<?xml version='1.0' encoding='UTF-8'?><gpx version="1.1" creator="JPX - https://github.com/jenetics/jpx" xmlns="http://www.topografix.com/GPX/1/1"><trk><trkseg><trkpt lat="45.50770753029118" lon="11.467255567603065"><ele>42.0</ele><time>2026-04-26T05:23:56.998Z</time></trkpt><trkpt lat="45.50767514332527" lon="11.467127638562946"><ele>42.0</ele><time>2026-04-26T05:23:58.998Z</time></trkpt><trkpt lat="45.5076557599793" lon="11.467009892371866"><ele>42.0</ele><time>2026-04-26T05:24:01.998Z</time></trkpt><trkpt lat="45.507562394525756" lon="11.467037898324138"><ele>42.0</ele><time>2026-04-26T05:24:04.998Z</time></trkpt><trkpt lat="45.50748060242722" lon="11.46707942075707"><ele>42.0</ele><time>2026-04-26T05:24:06.998Z</time></trkpt><trkpt lat="45.507409893514314" lon="11.46710653634956"><ele>42.0</ele><time>2026-04-26T05:24:08.998Z</time></trkpt><trkpt lat="45.50744241223147" lon="11.467228581829598"><ele>42.0</ele><time>2026-04-26T05:24:10.998Z</time></trkpt><trkpt lat="45.50747765232082" lon="11.467366611050025"><ele>42.0</ele><time>2026-04-26T05:24:12.998Z</time></trkpt><trkpt lat="45.507502488811205" lon="11.467509840646425"><ele>42.0</ele><time>2026-04-26T05:24:14.998Z</time></trkpt><trkpt lat="45.50752319147961" lon="11.467644007077043"><ele>42.0</ele><time>2026-04-26T05:24:16.998Z</time></trkpt><trkpt lat="45.50754711237613" lon="11.467768795849572"><ele>42.0</ele><time>2026-04-26T05:24:18.998Z</time></trkpt><trkpt lat="45.50755851815208" lon="11.467887728356342"><ele>42.166666666666664</ele><time>2026-04-26T05:24:20.998Z</time></trkpt><trkpt lat="45.507556890564175" lon="11.468004105220455"><ele>42.333333333333336</ele><time>2026-04-26T05:24:22.998Z</time></trkpt><trkpt lat="45.507502325952274" lon="11.468118063373018"><ele>42.5</ele><time>2026-04-26T05:24:24.998Z</time></trkpt><trkpt lat="45.50740511493763" lon="11.468168490772198"><ele>42.66666666666667</ele><time>2026-04-26T05:24:26.998Z</time></trkpt><trkpt lat="45.507319157674004" lon="11.468207811845595"><ele>42.833333333333336</ele><time>2026-04-26T05:24:28.998Z</time></trkpt><trkpt lat="45.50724869530462" lon="11.468239448506207"><ele>43.0</ele><time>2026-04-26T05:24:30.997Z</time></trkpt><trkpt lat="45.50721893660117" lon="11.468347253545804"><ele>43.0</ele><time>2026-04-26T05:24:32.997Z</time></trkpt><trkpt lat="45.50727129362599" lon="11.468463514895237"><ele>43.0</ele><time>2026-04-26T05:24:35Z</time></trkpt><trkpt lat="45.50733793561825" lon="11.468597214001088"><ele>43.0</ele><time>2026-04-26T05:24:37Z</time></trkpt><trkpt lat="45.50738509601064" lon="11.468735411776095"><ele>43.0</ele><time>2026-04-26T05:24:39Z</time></trkpt><trkpt lat="45.50742928346851" lon="11.468884594789504"><ele>43.0</ele><time>2026-04-26T05:24:41Z</time></trkpt><trkpt lat="45.50748697626198" lon="11.469041873179386"><ele>42.75</ele><time>2026-04-26T05:24:43Z</time></trkpt><trkpt lat="45.50755680148294" lon="11.469166014066381"><ele>42.5</ele><time>2026-04-26T05:24:45Z</time></trkpt><trkpt lat="45.50762148097441" lon="11.469292315711519"><ele>42.25</ele><time>2026-04-26T05:24:47Z</time></trkpt><trkpt lat="45.507696245479835" lon="11.469404109557477"><ele>42.0</ele><time>2026-04-26T05:24:49Z</time></trkpt><trkpt lat="45.507779595025205" lon="11.469528740426348"><ele>42.25</ele><time>2026-04-26T05:24:51Z</time></trkpt><trkpt lat="45.50785942560356" lon="11.469648109395784"><ele>42.5</ele><time>2026-04-26T05:24:53Z</time></trkpt><trkpt lat="45.5079347976022" lon="11.469755134200295"><ele>42.75</ele><time>2026-04-26T05:24:55Z</time></trkpt><trkpt lat="45.508025770403684" lon="11.469871434466924"><ele>43.0</ele><time>2026-04-26T05:24:57Z</time></trkpt><trkpt lat="45.50810785537011" lon="11.469977354993452"><ele>43.599999999999994</ele><time>2026-04-26T05:24:59Z</time></trkpt><trkpt lat="45.508179239391694" lon="11.470062979657609"><ele>44.199999999999996</ele><time>2026-04-26T05:25:01Z</time></trkpt><trkpt lat="45.508238020909815" lon="11.47012812457851"><ele>44.8</ele><time>2026-04-26T05:25:02Z</time></trkpt><trkpt lat="45.508201040530004" lon="11.470225000396164"><ele>45.4</ele><time>2026-04-26T05:25:04Z</time></trkpt><trkpt lat="45.50827780881469" lon="11.470322312438187"><ele>46.0</ele><time>2026-04-26T05:25:06Z</time></trkpt><trkpt lat="45.50830831125946" lon="11.47046352573631"><ele>46.16666666666667</ele><time>2026-04-26T05:25:08Z</time></trkpt><trkpt lat="45.50825277359602" lon="11.470575160719317"><ele>46.333333333333336</ele><time>2026-04-26T05:25:08.999Z</time></trkpt><trkpt lat="45.50827456480699" lon="11.470661029186445"><ele>46.5</ele><time>2026-04-26T05:25:09.999Z</time></trkpt><trkpt lat="45.50832633367089" lon="11.470811533320544"><ele>46.666666666666664</ele><time>2026-04-26T05:25:11.999Z</time></trkpt><trkpt lat="45.50835946994455" lon="11.470895859060244"><ele>46.83333333333333</ele><time>2026-04-26T05:25:12.999Z</time></trkpt><trkpt lat="45.50839865712936" lon="11.470992811394567"><ele>47.0</ele><time>2026-04-26T05:25:13.999Z</time></trkpt><trkpt lat="45.508444320736444" lon="11.471104676787704"><ele>47.0</ele><time>2026-04-26T05:25:15.999Z</time></trkpt><trkpt lat="45.508499760615734" lon="11.47124049186723"><ele>47.0</ele><time>2026-04-26T05:25:17.999Z</time></trkpt><trkpt lat="45.50855325261733" lon="11.471371535048688"><ele>47.0</ele><time>2026-04-26T05:25:19.999Z</time></trkpt><trkpt lat="45.5086017885614" lon="11.471495303821834"><ele>47.0</ele><time>2026-04-26T05:25:21.999Z</time></trkpt><trkpt lat="45.508645956745944" lon="11.471615947731589"><ele>47.0</ele><time>2026-04-26T05:25:23.999Z</time></trkpt><trkpt lat="45.50868525326254" lon="11.47173665006405"><ele>46.8</ele><time>2026-04-26T05:25:25.999Z</time></trkpt><trkpt lat="45.5086448313787" lon="11.471848466909297"><ele>46.6</ele><time>2026-04-26T05:25:27.999Z</time></trkpt><trkpt lat="45.50862421703318" lon="11.471988251278564"><ele>46.4</ele><time>2026-04-26T05:25:29.999Z</time></trkpt><trkpt lat="45.50854335493385" lon="11.472108104643917"><ele>46.199999999999996</ele><time>2026-04-26T05:25:31.999Z</time></trkpt><trkpt lat="45.50844058608488" lon="11.4722100644599"><ele>46.0</ele><time>2026-04-26T05:25:33.999Z</time></trkpt><trkpt lat="45.50833843482197" lon="11.472322571369316"><ele>44.75</ele><time>2026-04-26T05:25:35.999Z</time></trkpt><trkpt lat="45.508282324856346" lon="11.472385797270661"><ele>43.5</ele><time>2026-04-26T05:25:36.999Z</time></trkpt><trkpt lat="45.50818137386757" lon="11.472490427151978"><ele>42.25</ele><time>2026-04-26T05:25:38.999Z</time></trkpt><trkpt lat="45.5080821321532" lon="11.47261083267056"><ele>41.0</ele><time>2026-04-26T05:25:40.999Z</time></trkpt><trkpt lat="45.507978717481016" lon="11.472710254362259"><ele>40.8</ele><time>2026-04-26T05:25:42.999Z</time></trkpt><trkpt lat="45.5078838537654" lon="11.472825926337624"><ele>40.599999999999994</ele><time>2026-04-26T05:25:44.999Z</time></trkpt><trkpt lat="45.50783335407452" lon="11.472881852846896"><ele>40.4</ele><time>2026-04-26T05:25:46.022Z</time></trkpt><trkpt lat="45.5077349665524" lon="11.472986636597039"><ele>40.2</ele><time>2026-04-26T05:25:48.025Z</time></trkpt><trkpt lat="45.50766886326752" lon="11.473034224298159"><ele>40.0</ele><time>2026-04-26T05:25:49.998Z</time></trkpt><trkpt lat="45.507582937493844" lon="11.473135814208659"><ele>40.0</ele><time>2026-04-26T05:25:51.998Z</time></trkpt><trkpt lat="45.50759856992513" lon="11.473238424196918"><ele>40.0</ele><time>2026-04-26T05:25:52.998Z</time></trkpt><trkpt lat="45.50763549292301" lon="11.473342963170268"><ele>40.0</ele><time>2026-04-26T05:25:54.998Z</time></trkpt><trkpt lat="45.50772000366303" lon="11.473471675068478"><ele>40.0</ele><time>2026-04-26T05:25:56.998Z</time></trkpt><trkpt lat="45.50777941269919" lon="11.47360202388368"><ele>40.0</ele><time>2026-04-26T05:25:58.998Z</time></trkpt><trkpt lat="45.507829046696436" lon="11.473733846927257"><ele>39.8</ele><time>2026-04-26T05:26:00.998Z</time></trkpt><trkpt lat="45.50788687732619" lon="11.473887439421514"><ele>39.6</ele><time>2026-04-26T05:26:02.998Z</time></trkpt><trkpt lat="45.50794567085746" lon="11.47404378937717"><ele>39.4</ele><time>2026-04-26T05:26:04.998Z</time></trkpt><trkpt lat="45.50799155072182" lon="11.474165933688615"><ele>39.2</ele><time>2026-04-26T05:26:06.998Z</time></trkpt><trkpt lat="45.50805402445675" lon="11.474285406255524"><ele>39.0</ele><time>2026-04-26T05:26:08.998Z</time></trkpt><trkpt lat="45.50809923969945" lon="11.474424890943093"><ele>38.75</ele><time>2026-04-26T05:26:10.998Z</time></trkpt><trkpt lat="45.50815781144612" lon="11.474568817492532"><ele>38.5</ele><time>2026-04-26T05:26:12.998Z</time></trkpt><trkpt lat="45.508208042896605" lon="11.474714788613"><ele>38.25</ele><time>2026-04-26T05:26:14.998Z</time></trkpt><trkpt lat="45.50827693398247" lon="11.474861624958862"><ele>38.0</ele><time>2026-04-26T05:26:16.998Z</time></trkpt><trkpt lat="45.50833567793099" lon="11.475008864027092"><ele>38.0</ele><time>2026-04-26T05:26:18.998Z</time></trkpt><trkpt lat="45.508390962763436" lon="11.475158236647989"><ele>38.0</ele><time>2026-04-26T05:26:20.998Z</time></trkpt><trkpt lat="45.50842538005137" lon="11.475234399475905"><ele>38.0</ele><time>2026-04-26T05:26:21.998Z</time></trkpt><trkpt lat="45.50848715143002" lon="11.47538897348317"><ele>38.0</ele><time>2026-04-26T05:26:23.998Z</time></trkpt><trkpt lat="45.50851148191227" lon="11.475472564300953"><ele>38.0</ele><time>2026-04-26T05:26:24.998Z</time></trkpt><trkpt lat="45.50855908504636" lon="11.475607996057606"><ele>38.0</ele><time>2026-04-26T05:26:26.998Z</time></trkpt><trkpt lat="45.50860293630803" lon="11.475733170108306"><ele>38.0</ele><time>2026-04-26T05:26:28.998Z</time></trkpt><trkpt lat="45.50865651981767" lon="11.475866543317853"><ele>38.0</ele><time>2026-04-26T05:26:30.997Z</time></trkpt><trkpt lat="45.50869030850217" lon="11.475945982400653"><ele>38.0</ele><time>2026-04-26T05:26:31.997Z</time></trkpt><trkpt lat="45.508723619631525" lon="11.476024777575775"><ele>38.0</ele><time>2026-04-26T05:26:32.997Z</time></trkpt><trkpt lat="45.50876517251159" lon="11.476169434041406"><ele>38.0</ele><time>2026-04-26T05:26:34.997Z</time></trkpt><trkpt lat="45.50882466597968" lon="11.476288600227061"><ele>38.0</ele><time>2026-04-26T05:26:36.997Z</time></trkpt><trkpt lat="45.50887994013466" lon="11.476409097784478"><ele>38.0</ele><time>2026-04-26T05:26:38.997Z</time></trkpt><trkpt lat="45.508918119837155" lon="11.47652640187883"><ele>38.0</ele><time>2026-04-26T05:26:41Z</time></trkpt><trkpt lat="45.50897420236474" lon="11.476666534029842"><ele>38.0</ele><time>2026-04-26T05:26:43Z</time></trkpt><trkpt lat="45.50902426031078" lon="11.4768167744011"><ele>38.0</ele><time>2026-04-26T05:26:45Z</time></trkpt><trkpt lat="45.50909268771061" lon="11.476955054385117"><ele>38.0</ele><time>2026-04-26T05:26:47Z</time></trkpt><trkpt lat="45.509116619827374" lon="11.477042903824747"><ele>38.0</ele><time>2026-04-26T05:26:48Z</time></trkpt><trkpt lat="45.509170975826265" lon="11.477185021094558"><ele>38.0</ele><time>2026-04-26T05:26:50Z</time></trkpt><trkpt lat="45.50921749747637" lon="11.477321838671514"><ele>38.0</ele><time>2026-04-26T05:26:52Z</time></trkpt><trkpt lat="45.50927148204977" lon="11.477449964693056"><ele>38.0</ele><time>2026-04-26T05:26:54Z</time></trkpt><trkpt lat="45.509317272169575" lon="11.47758534280878"><ele>37.8</ele><time>2026-04-26T05:26:56Z</time></trkpt><trkpt lat="45.50935831413079" lon="11.477714937402645"><ele>37.599999999999994</ele><time>2026-04-26T05:26:58Z</time></trkpt><trkpt lat="45.50940546888693" lon="11.477862634701028"><ele>37.400000000000006</ele><time>2026-04-26T05:27:00Z</time></trkpt><trkpt lat="45.50942729840667" lon="11.477951529160242"><ele>37.2</ele><time>2026-04-26T05:27:01Z</time></trkpt><trkpt lat="45.509468337750896" lon="11.478099369608211"><ele>37.0</ele><time>2026-04-26T05:27:03Z</time></trkpt><trkpt lat="45.50950699471998" lon="11.47823726450233"><ele>37.0</ele><time>2026-04-26T05:27:05Z</time></trkpt><trkpt lat="45.50952728497645" lon="11.478385441892904"><ele>37.0</ele><time>2026-04-26T05:27:07Z</time></trkpt><trkpt lat="45.509547691900785" lon="11.47853120709321"><ele>37.0</ele><time>2026-04-26T05:27:09Z</time></trkpt><trkpt lat="45.50951937700837" lon="11.478684247497533"><ele>37.0</ele><time>2026-04-26T05:27:11Z</time></trkpt><trkpt lat="45.50952667425516" lon="11.47883462248748"><ele>37.0</ele><time>2026-04-26T05:27:13Z</time></trkpt><trkpt lat="45.5095317702993" lon="11.47898028009312"><ele>37.0</ele><time>2026-04-26T05:27:15Z</time></trkpt><trkpt lat="45.50951623869026" lon="11.479124690074533"><ele>37.0</ele><time>2026-04-26T05:27:17Z</time></trkpt><trkpt lat="45.509495172418234" lon="11.479261037924205"><ele>37.0</ele><time>2026-04-26T05:27:18.999Z</time></trkpt><trkpt lat="45.509469611809784" lon="11.479406715157365"><ele>37.0</ele><time>2026-04-26T05:27:20.999Z</time></trkpt><trkpt lat="45.50945046865354" lon="11.47949581729363"><ele>37.0</ele><time>2026-04-26T05:27:21.999Z</time></trkpt><trkpt lat="45.50940220458938" lon="11.479665967858734"><ele>37.4</ele><time>2026-04-26T05:27:23.999Z</time></trkpt><trkpt lat="45.50937297009041" lon="11.479838371226238"><ele>37.800000000000004</ele><time>2026-04-26T05:27:25.999Z</time></trkpt><trkpt lat="45.50934044809156" lon="11.479934323076337"><ele>38.2</ele><time>2026-04-26T05:27:26.999Z</time></trkpt><trkpt lat="45.50931719186412" lon="11.480021448057828"><ele>38.6</ele><time>2026-04-26T05:27:27.999Z</time></trkpt><trkpt lat="45.50928628273062" lon="11.480106936723077"><ele>39.0</ele><time>2026-04-26T05:27:28.999Z</time></trkpt><trkpt lat="45.50923051452787" lon="11.480274748735694"><ele>39.0</ele><time>2026-04-26T05:27:30.999Z</time></trkpt><trkpt lat="45.50921289308403" lon="11.48037037403769"><ele>39.0</ele><time>2026-04-26T05:27:31.999Z</time></trkpt><trkpt lat="45.50919350107928" lon="11.480460852596048"><ele>39.0</ele><time>2026-04-26T05:27:32.999Z</time></trkpt><trkpt lat="45.509154299521136" lon="11.480622984782961"><ele>39.0</ele><time>2026-04-26T05:27:34.999Z</time></trkpt><trkpt lat="45.509141273342955" lon="11.480776305494475"><ele>39.0</ele><time>2026-04-26T05:27:36.999Z</time></trkpt><trkpt lat="45.50913453208998" lon="11.480929025221274"><ele>39.0</ele><time>2026-04-26T05:27:38.999Z</time></trkpt><trkpt lat="45.50913772976363" lon="11.481074864483652"><ele>39.0</ele><time>2026-04-26T05:27:40.999Z</time></trkpt><trkpt lat="45.509158170799175" lon="11.481208069772322"><ele>39.0</ele><time>2026-04-26T05:27:42.999Z</time></trkpt><trkpt lat="45.50916112119449" lon="11.48129803626324"><ele>39.0</ele><time>2026-04-26T05:27:43.999Z</time></trkpt><trkpt lat="45.50919396515391" lon="11.48144902352996"><ele>39.0</ele><time>2026-04-26T05:27:45.999Z</time></trkpt><trkpt lat="45.509225296917435" lon="11.481616420359641"><ele>38.8</ele><time>2026-04-26T05:27:47.999Z</time></trkpt><trkpt lat="45.50926771545855" lon="11.481770594661745"><ele>38.599999999999994</ele><time>2026-04-26T05:27:49.999Z</time></trkpt><trkpt lat="45.509277549106635" lon="11.481864381456363"><ele>38.4</ele><time>2026-04-26T05:27:50.999Z</time></trkpt><trkpt lat="45.5092908039553" lon="11.481952886053055"><ele>38.199999999999996</ele><time>2026-04-26T05:27:51.999Z</time></trkpt><trkpt lat="45.509293235044126" lon="11.482133578247554"><ele>38.0</ele><time>2026-04-26T05:27:53.999Z</time></trkpt><trkpt lat="45.509268958232504" lon="11.482309927715292"><ele>37.666666666666664</ele><time>2026-04-26T05:27:55.999Z</time></trkpt><trkpt lat="45.50923159361312" lon="11.482385299955245"><ele>37.33333333333333</ele><time>2026-04-26T05:27:56.999Z</time></trkpt><trkpt lat="45.50919668518208" lon="11.482460653124026"><ele>37.0</ele><time>2026-04-26T05:27:57.998Z</time></trkpt><trkpt lat="45.50910278676522" lon="11.48257954234846"><ele>36.666666666666664</ele><time>2026-04-26T05:27:59.998Z</time></trkpt><trkpt lat="45.509053794822165" lon="11.482642161652729"><ele>36.333333333333336</ele><time>2026-04-26T05:28:00.998Z</time></trkpt><trkpt lat="45.508954849594566" lon="11.48274823585835"><ele>36.0</ele><time>2026-04-26T05:28:02.998Z</time></trkpt><trkpt lat="45.50886610632443" lon="11.482862604480093"><ele>35.4</ele><time>2026-04-26T05:28:04.998Z</time></trkpt><trkpt lat="45.50879431931614" lon="11.48298206708677"><ele>34.8</ele><time>2026-04-26T05:28:07.998Z</time></trkpt><trkpt lat="45.50871857961554" lon="11.48306012420248"><ele>34.199999999999996</ele><time>2026-04-26T05:28:09.998Z</time></trkpt><trkpt lat="45.50865720053035" lon="11.483137667712752"><ele>33.6</ele><time>2026-04-26T05:28:10.998Z</time></trkpt><trkpt lat="45.50859914649471" lon="11.483184297934939"><ele>33.0</ele><time>2026-04-26T05:28:11.998Z</time></trkpt><trkpt lat="45.50848693383646" lon="11.483277696386866"><ele>32.8</ele><time>2026-04-26T05:28:13.998Z</time></trkpt><trkpt lat="45.5084334504893" lon="11.483325970738813"><ele>32.599999999999994</ele><time>2026-04-26T05:28:14.998Z</time></trkpt><trkpt lat="45.50831981735771" lon="11.483401376979632"><ele>32.400000000000006</ele><time>2026-04-26T05:28:16.998Z</time></trkpt><trkpt lat="45.50826087208361" lon="11.483434511617348"><ele>32.2</ele><time>2026-04-26T05:28:17.998Z</time></trkpt><trkpt lat="45.5081530744922" lon="11.483515102016916"><ele>32.0</ele><time>2026-04-26T05:28:19.998Z</time></trkpt><trkpt lat="45.50804206053486" lon="11.483590025664766"><ele>32.0</ele><time>2026-04-26T05:28:21.998Z</time></trkpt><trkpt lat="45.507963379131496" lon="11.483644499741278"><ele>32.0</ele><time>2026-04-26T05:28:23.998Z</time></trkpt><trkpt lat="45.50788929821772" lon="11.483702963581596"><ele>32.0</ele><time>2026-04-26T05:28:25.998Z</time></trkpt><trkpt lat="45.50779297207918" lon="11.48377305376045"><ele>32.0</ele><time>2026-04-26T05:28:27.998Z</time></trkpt><trkpt lat="45.507690504478084" lon="11.483827111849708"><ele>32.0</ele><time>2026-04-26T05:28:29.998Z</time></trkpt><trkpt lat="45.50760311505963" lon="11.483894596766973"><ele>32.4</ele><time>2026-04-26T05:28:31.998Z</time></trkpt><trkpt lat="45.50750310980637" lon="11.483941602389844"><ele>32.800000000000004</ele><time>2026-04-26T05:28:33.998Z</time></trkpt><trkpt lat="45.507410673918066" lon="11.484017006208612"><ele>33.2</ele><time>2026-04-26T05:28:35.998Z</time></trkpt><trkpt lat="45.507338226856966" lon="11.48405886767294"><ele>33.6</ele><time>2026-04-26T05:28:36.998Z</time></trkpt><trkpt lat="45.507232449665274" lon="11.484123745861506"><ele>34.0</ele><time>2026-04-26T05:28:38.997Z</time></trkpt><trkpt lat="45.507113916968464" lon="11.484181893441287"><ele>33.75</ele><time>2026-04-26T05:28:40.997Z</time></trkpt><trkpt lat="45.50702275703736" lon="11.484252346819293"><ele>33.5</ele><time>2026-04-26T05:28:42.997Z</time></trkpt><trkpt lat="45.50691901986237" lon="11.484328168940134"><ele>33.25</ele><time>2026-04-26T05:28:44.997Z</time></trkpt><trkpt lat="45.50681908665622" lon="11.484408579611754"><ele>33.0</ele><time>2026-04-26T05:28:47Z</time></trkpt><trkpt lat="45.506697702940514" lon="11.484469181998966"><ele>33.0</ele><time>2026-04-26T05:28:49Z</time></trkpt><trkpt lat="45.50660235643618" lon="11.484545215309707"><ele>33.0</ele><time>2026-04-26T05:28:51Z</time></trkpt><trkpt lat="45.50654167991788" lon="11.484576397939518"><ele>33.0</ele><time>2026-04-26T05:28:52Z</time></trkpt><trkpt lat="45.506433520218835" lon="11.484644001862309"><ele>33.0</ele><time>2026-04-26T05:28:54Z</time></trkpt><trkpt lat="45.50633379218396" lon="11.484711359483109"><ele>33.0</ele><time>2026-04-26T05:28:56Z</time></trkpt><trkpt lat="45.506249373241126" lon="11.484823229611356"><ele>33.0</ele><time>2026-04-26T05:28:58Z</time></trkpt><trkpt lat="45.50626659453136" lon="11.484969626966807"><ele>33.0</ele><time>2026-04-26T05:29:00Z</time></trkpt><trkpt lat="45.50633158725862" lon="11.485083960139217"><ele>33.0</ele><time>2026-04-26T05:29:02Z</time></trkpt><trkpt lat="45.5064064368949" lon="11.485176346749816"><ele>33.0</ele><time>2026-04-26T05:29:04Z</time></trkpt><trkpt lat="45.50648772577019" lon="11.485269648714288"><ele>33.0</ele><time>2026-04-26T05:29:06Z</time></trkpt><trkpt lat="45.50654878259602" lon="11.48538838795612"><ele>33.6</ele><time>2026-04-26T05:29:08Z</time></trkpt><trkpt lat="45.50661345637377" lon="11.485515764983043"><ele>34.199999999999996</ele><time>2026-04-26T05:29:10Z</time></trkpt><trkpt lat="45.50667966459918" lon="11.485646837468558"><ele>34.8</ele><time>2026-04-26T05:29:12Z</time></trkpt><trkpt lat="45.506726372078184" lon="11.485784918857828"><ele>35.4</ele><time>2026-04-26T05:29:14Z</time></trkpt><trkpt lat="45.506765750055024" lon="11.485904471732965"><ele>36.0</ele><time>2026-04-26T05:29:16Z</time></trkpt><trkpt lat="45.50678502156119" lon="11.486048598868857"><ele>36.0</ele><time>2026-04-26T05:29:18Z</time></trkpt><trkpt lat="45.50680213570973" lon="11.486207180251373"><ele>36.0</ele><time>2026-04-26T05:29:20Z</time></trkpt><trkpt lat="45.506807663151505" lon="11.486364839868303"><ele>36.0</ele><time>2026-04-26T05:29:22Z</time></trkpt><trkpt lat="45.50681602269487" lon="11.48653038077934"><ele>36.0</ele><time>2026-04-26T05:29:23.999Z</time></trkpt><trkpt lat="45.50682661145813" lon="11.48668372370207"><ele>36.0</ele><time>2026-04-26T05:29:25.999Z</time></trkpt><trkpt lat="45.50682974882884" lon="11.486787509591192"><ele>38.0</ele><time>2026-04-26T05:29:26.999Z</time></trkpt><trkpt lat="45.506857151156865" lon="11.486952389182012"><ele>40.0</ele><time>2026-04-26T05:29:28.999Z</time></trkpt><trkpt lat="45.50690611944318" lon="11.487092184051678"><ele>42.0</ele><time>2026-04-26T05:29:30.999Z</time></trkpt><trkpt lat="45.506974889644376" lon="11.487239172092908"><ele>44.0</ele><time>2026-04-26T05:29:32.999Z</time></trkpt><trkpt lat="45.507050900285755" lon="11.487373454351026"><ele>42.800000000000004</ele><time>2026-04-26T05:29:34.999Z</time></trkpt><trkpt lat="45.507125857006386" lon="11.487489042910369"><ele>41.6</ele><time>2026-04-26T05:29:36.999Z</time></trkpt><trkpt lat="45.50719328364321" lon="11.487603603405377"><ele>40.4</ele><time>2026-04-26T05:29:38.999Z</time></trkpt><trkpt lat="45.507234344195105" lon="11.487679288514414"><ele>39.2</ele><time>2026-04-26T05:29:39.999Z</time></trkpt><trkpt lat="45.50731330636964" lon="11.487820784526992"><ele>38.0</ele><time>2026-04-26T05:29:41.999Z</time></trkpt><trkpt lat="45.50739348681636" lon="11.48794103955317"><ele>40.599999999999994</ele><time>2026-04-26T05:29:43.999Z</time></trkpt><trkpt lat="45.507460344786736" lon="11.48805662108119"><ele>43.199999999999996</ele><time>2026-04-26T05:29:45.999Z</time></trkpt><trkpt lat="45.507518927955" lon="11.488152737304578"><ele>45.8</ele><time>2026-04-26T05:29:47.999Z</time></trkpt><trkpt lat="45.50758134142027" lon="11.488249747360964"><ele>48.4</ele><time>2026-04-26T05:29:49.999Z</time></trkpt><trkpt lat="45.50765404707084" lon="11.488363818487331"><ele>51.0</ele><time>2026-04-26T05:29:51.999Z</time></trkpt><trkpt lat="45.507724598698104" lon="11.488501364870494"><ele>51.0</ele><time>2026-04-26T05:29:53.999Z</time></trkpt><trkpt lat="45.50779875218615" lon="11.48861398881867"><ele>51.0</ele><time>2026-04-26T05:29:55.999Z</time></trkpt><trkpt lat="45.507863900333014" lon="11.488721078905275"><ele>51.0</ele><time>2026-04-26T05:29:57.999Z</time></trkpt><trkpt lat="45.50792581644204" lon="11.488817085983412"><ele>51.0</ele><time>2026-04-26T05:29:59.999Z</time></trkpt><trkpt lat="45.507986578902376" lon="11.48891431509737"><ele>51.0</ele><time>2026-04-26T05:30:01.998Z</time></trkpt><trkpt lat="45.50805750649562" lon="11.489027501096714"><ele>50.0</ele><time>2026-04-26T05:30:03.998Z</time></trkpt><trkpt lat="45.5081295174016" lon="11.489163242803263"><ele>49.0</ele><time>2026-04-26T05:30:05.998Z</time></trkpt><trkpt lat="45.5082172129034" lon="11.489280970378223"><ele>48.0</ele><time>2026-04-26T05:30:07.998Z</time></trkpt><trkpt lat="45.508300978301165" lon="11.489401020366632"><ele>47.0</ele><time>2026-04-26T05:30:09.998Z</time></trkpt><trkpt lat="45.50837999989923" lon="11.489507568441164"><ele>47.0</ele><time>2026-04-26T05:30:11.998Z</time></trkpt><trkpt lat="45.50845483687042" lon="11.489590543947546"><ele>47.0</ele><time>2026-04-26T05:30:13.998Z</time></trkpt><trkpt lat="45.508520501667626" lon="11.489686826743938"><ele>47.0</ele><time>2026-04-26T05:30:15.998Z</time></trkpt><trkpt lat="45.50860444686188" lon="11.489773742128593"><ele>47.0</ele><time>2026-04-26T05:30:17.998Z</time></trkpt><trkpt lat="45.508692506090846" lon="11.489876449150657"><ele>47.0</ele><time>2026-04-26T05:30:19.998Z</time></trkpt><trkpt lat="45.50878283113774" lon="11.489976343616481"><ele>48.5</ele><time>2026-04-26T05:30:21.998Z</time></trkpt><trkpt lat="45.50887867696331" lon="11.490078221074553"><ele>50.0</ele><time>2026-04-26T05:30:23.998Z</time></trkpt><trkpt lat="45.508960498693476" lon="11.490207607736163"><ele>51.5</ele><time>2026-04-26T05:30:25.998Z</time></trkpt><trkpt lat="45.50905526197634" lon="11.490314324294381"><ele>53.0</ele><time>2026-04-26T05:30:27.998Z</time></trkpt><trkpt lat="45.509132280263145" lon="11.490456380698745"><ele>53.0</ele><time>2026-04-26T05:30:29.998Z</time></trkpt><trkpt lat="45.509171423071024" lon="11.490528562837603"><ele>53.0</ele><time>2026-04-26T05:30:30.998Z</time></trkpt><trkpt lat="45.509254865513384" lon="11.490648055451123"><ele>53.0</ele><time>2026-04-26T05:30:32.998Z</time></trkpt><trkpt lat="45.50929370553822" lon="11.490719531585793"><ele>53.0</ele><time>2026-04-26T05:30:33.998Z</time></trkpt><trkpt lat="45.5093748461319" lon="11.490843938152892"><ele>53.0</ele><time>2026-04-26T05:30:35.998Z</time></trkpt><trkpt lat="45.50944638452785" lon="11.490960249261674"><ele>53.0</ele><time>2026-04-26T05:30:37.998Z</time></trkpt><trkpt lat="45.50951138805756" lon="11.49106724126603"><ele>53.0</ele><time>2026-04-26T05:30:39.998Z</time></trkpt><trkpt lat="45.50958442430788" lon="11.491177725992541"><ele>53.0</ele><time>2026-04-26T05:30:41.997Z</time></trkpt><trkpt lat="45.50963470594162" lon="11.491233318547513"><ele>53.0</ele><time>2026-04-26T05:30:42.997Z</time></trkpt><trkpt lat="45.50968271601387" lon="11.491295363157846"><ele>53.0</ele><time>2026-04-26T05:30:43.997Z</time></trkpt><trkpt lat="45.50978221131904" lon="11.491384476234279"><ele>52.25</ele><time>2026-04-26T05:30:45.997Z</time></trkpt><trkpt lat="45.50988249208741" lon="11.491475616345335"><ele>51.5</ele><time>2026-04-26T05:30:47.997Z</time></trkpt><trkpt lat="45.50997849997993" lon="11.491563768379336"><ele>50.75</ele><time>2026-04-26T05:30:49.997Z</time></trkpt><trkpt lat="45.51007636285805" lon="11.4916594255344"><ele>50.0</ele><time>2026-04-26T05:30:51.997Z</time></trkpt><trkpt lat="45.51017344828815" lon="11.491738848368287"><ele>50.0</ele><time>2026-04-26T05:30:54Z</time></trkpt><trkpt lat="45.510271003365354" lon="11.49182293383387"><ele>50.0</ele><time>2026-04-26T05:30:56Z</time></trkpt><trkpt lat="45.51036672354749" lon="11.491906463537186"><ele>50.0</ele><time>2026-04-26T05:30:58Z</time></trkpt><trkpt lat="45.51046083939744" lon="11.491979021976165"><ele>50.0</ele><time>2026-04-26T05:31:00Z</time></trkpt><trkpt lat="45.510551083372164" lon="11.492058653438104"><ele>50.0</ele><time>2026-04-26T05:31:02Z</time></trkpt><trkpt lat="45.51064214327179" lon="11.492151817251061"><ele>49.333333333333336</ele><time>2026-04-26T05:31:04Z</time></trkpt><trkpt lat="45.51069867007505" lon="11.492200962824214"><ele>48.66666666666667</ele><time>2026-04-26T05:31:05Z</time></trkpt><trkpt lat="45.510791610813996" lon="11.492315382966357"><ele>48.0</ele><time>2026-04-26T05:31:07Z</time></trkpt><trkpt lat="45.51089289950137" lon="11.492415135317279"><ele>47.333333333333336</ele><time>2026-04-26T05:31:09Z</time></trkpt><trkpt lat="45.510945731553285" lon="11.492467909535598"><ele>46.66666666666667</ele><time>2026-04-26T05:31:10Z</time></trkpt><trkpt lat="45.51099975394645" lon="11.492521311648217"><ele>46.0</ele><time>2026-04-26T05:31:11Z</time></trkpt><trkpt lat="45.51109185562141" lon="11.49263150067618"><ele>46.0</ele><time>2026-04-26T05:31:13Z</time></trkpt><trkpt lat="45.51116770778325" lon="11.492764320265005"><ele>46.0</ele><time>2026-04-26T05:31:15Z</time></trkpt><trkpt lat="45.51123041625525" lon="11.492897614280126"><ele>46.0</ele><time>2026-04-26T05:31:17Z</time></trkpt><trkpt lat="45.5112828006844" lon="11.493029034689151"><ele>46.0</ele><time>2026-04-26T05:31:19Z</time></trkpt><trkpt lat="45.511329280700835" lon="11.493159675583069"><ele>46.0</ele><time>2026-04-26T05:31:21Z</time></trkpt><trkpt lat="45.51137096898276" lon="11.493325597073039"><ele>45.25</ele><time>2026-04-26T05:31:23Z</time></trkpt><trkpt lat="45.51141642932184" lon="11.493478562983794"><ele>44.5</ele><time>2026-04-26T05:31:25Z</time></trkpt><trkpt lat="45.51145719916819" lon="11.493633751003"><ele>43.75</ele><time>2026-04-26T05:31:27Z</time></trkpt><trkpt lat="45.51150068585214" lon="11.493785343566778"><ele>43.0</ele><time>2026-04-26T05:31:28.999Z</time></trkpt><trkpt lat="45.51154579216884" lon="11.493950497650326"><ele>43.0</ele><time>2026-04-26T05:31:30.999Z</time></trkpt><trkpt lat="45.51159902359519" lon="11.49410192431849"><ele>43.0</ele><time>2026-04-26T05:31:32.999Z</time></trkpt><trkpt lat="45.51166386764569" lon="11.494252454263586"><ele>43.0</ele><time>2026-04-26T05:31:34.999Z</time></trkpt><trkpt lat="45.51169666253386" lon="11.494333086776404"><ele>43.0</ele><time>2026-04-26T05:31:35.999Z</time></trkpt><trkpt lat="45.51175579424118" lon="11.49448297211905"><ele>43.0</ele><time>2026-04-26T05:31:37.999Z</time></trkpt><trkpt lat="45.51182058448752" lon="11.49462068627916"><ele>42.199999999999996</ele><time>2026-04-26T05:31:39.999Z</time></trkpt><trkpt lat="45.5118911759466" lon="11.494739000007064"><ele>41.4</ele><time>2026-04-26T05:31:41.999Z</time></trkpt><trkpt lat="45.51195425588436" lon="11.49485728513902"><ele>40.599999999999994</ele><time>2026-04-26T05:31:43.999Z</time></trkpt><trkpt lat="45.512020773090974" lon="11.494998115249714"><ele>39.8</ele><time>2026-04-26T05:31:45.999Z</time></trkpt><trkpt lat="45.51208396373056" lon="11.49513824610905"><ele>39.0</ele><time>2026-04-26T05:31:47.999Z</time></trkpt><trkpt lat="45.5121502153717" lon="11.495289558466633"><ele>39.0</ele><time>2026-04-26T05:31:49.999Z</time></trkpt><trkpt lat="45.5121828495991" lon="11.49536876062103"><ele>39.0</ele><time>2026-04-26T05:31:50.999Z</time></trkpt><trkpt lat="45.512209504512164" lon="11.4954548325444"><ele>39.0</ele><time>2026-04-26T05:31:51.999Z</time></trkpt><trkpt lat="45.51226445893095" lon="11.495604937216195"><ele>39.0</ele><time>2026-04-26T05:31:53.999Z</time></trkpt><trkpt lat="45.51231549125113" lon="11.495745436887429"><ele>39.0</ele><time>2026-04-26T05:31:55.999Z</time></trkpt><trkpt lat="45.51235597255244" lon="11.495892153300835"><ele>39.4</ele><time>2026-04-26T05:31:57.999Z</time></trkpt><trkpt lat="45.512380025734274" lon="11.4960437340849"><ele>39.8</ele><time>2026-04-26T05:31:59.999Z</time></trkpt><trkpt lat="45.51239322297187" lon="11.496190265397658"><ele>40.199999999999996</ele><time>2026-04-26T05:32:01.999Z</time></trkpt><trkpt lat="45.51237832462918" lon="11.496327117658856"><ele>40.599999999999994</ele><time>2026-04-26T05:32:03.999Z</time></trkpt><trkpt lat="45.512386874067865" lon="11.496454408156"><ele>41.0</ele><time>2026-04-26T05:32:05.999Z</time></trkpt><trkpt lat="45.512344176094025" lon="11.49653092373251"><ele>41.25</ele><time>2026-04-26T05:32:06.998Z</time></trkpt><trkpt lat="45.51227740820667" lon="11.49666931225897"><ele>41.5</ele><time>2026-04-26T05:32:08.998Z</time></trkpt><trkpt lat="45.51220112677862" lon="11.496801519171752"><ele>41.75</ele><time>2026-04-26T05:32:10.998Z</time></trkpt><trkpt lat="45.51211890650972" lon="11.496933864786495"><ele>42.0</ele><time>2026-04-26T05:32:12.998Z</time></trkpt><trkpt lat="45.51204578995413" lon="11.497064491831775"><ele>44.2</ele><time>2026-04-26T05:32:14.998Z</time></trkpt><trkpt lat="45.51197739513066" lon="11.497195984732079"><ele>46.400000000000006</ele><time>2026-04-26T05:32:16.998Z</time></trkpt><trkpt lat="45.51193456179714" lon="11.497266005430458"><ele>48.599999999999994</ele><time>2026-04-26T05:32:17.998Z</time></trkpt><trkpt lat="45.51185962952143" lon="11.497400479656392"><ele>50.8</ele><time>2026-04-26T05:32:19.998Z</time></trkpt><trkpt lat="45.511806596412576" lon="11.497470561801796"><ele>53.0</ele><time>2026-04-26T05:32:20.998Z</time></trkpt><trkpt lat="45.51173136809582" lon="11.49760413476964"><ele>53.0</ele><time>2026-04-26T05:32:22.998Z</time></trkpt><trkpt lat="45.51169286664485" lon="11.49767579107866"><ele>53.0</ele><time>2026-04-26T05:32:23.998Z</time></trkpt><trkpt lat="45.51163302458991" lon="11.497804409845669"><ele>53.0</ele><time>2026-04-26T05:32:25.998Z</time></trkpt><trkpt lat="45.51157669137341" lon="11.497925531886592"><ele>53.0</ele><time>2026-04-26T05:32:27.998Z</time></trkpt><trkpt lat="45.511528222842344" lon="11.498039358852267"><ele>53.0</ele><time>2026-04-26T05:32:29.998Z</time></trkpt><trkpt lat="45.511518452351" lon="11.498165709353671"><ele>50.0</ele><time>2026-04-26T05:32:31.998Z</time></trkpt><trkpt lat="45.511500272650345" lon="11.498329330844955"><ele>47.0</ele><time>2026-04-26T05:32:33.998Z</time></trkpt><trkpt lat="45.51151825655812" lon="11.498496145463175"><ele>44.0</ele><time>2026-04-26T05:32:35.998Z</time></trkpt><trkpt lat="45.511565799382936" lon="11.498648519945348"><ele>41.0</ele><time>2026-04-26T05:32:37.998Z</time></trkpt><trkpt lat="45.51160477639306" lon="11.498791066203749"><ele>40.5</ele><time>2026-04-26T05:32:39.998Z</time></trkpt><trkpt lat="45.511644884104555" lon="11.498921845984347"><ele>40.0</ele><time>2026-04-26T05:32:41.998Z</time></trkpt><trkpt lat="45.5116843780303" lon="11.499077373550739"><ele>39.5</ele><time>2026-04-26T05:32:43.998Z</time></trkpt><trkpt lat="45.51173563007937" lon="11.499239513967435"><ele>39.0</ele><time>2026-04-26T05:32:45.997Z</time></trkpt><trkpt lat="45.511777207618316" lon="11.499406694370096"><ele>39.0</ele><time>2026-04-26T05:32:47.997Z</time></trkpt><trkpt lat="45.51178905467545" lon="11.499497626539926"><ele>39.0</ele><time>2026-04-26T05:32:48.997Z</time></trkpt><trkpt lat="45.51181473009604" lon="11.499670884399775"><ele>39.0</ele><time>2026-04-26T05:32:50.997Z</time></trkpt><trkpt lat="45.51183265370226" lon="11.49984297338286"><ele>39.0</ele><time>2026-04-26T05:32:52.997Z</time></trkpt><trkpt lat="45.51184356603313" lon="11.499933188041773"><ele>39.0</ele><time>2026-04-26T05:32:53.997Z</time></trkpt><trkpt lat="45.51186514191036" lon="11.50010887505317"><ele>40.25</ele><time>2026-04-26T05:32:55.997Z</time></trkpt><trkpt lat="45.51188855477121" lon="11.500278467679932"><ele>41.5</ele><time>2026-04-26T05:32:57.997Z</time></trkpt><trkpt lat="45.511910874452596" lon="11.500451388828852"><ele>42.75</ele><time>2026-04-26T05:33:00Z</time></trkpt><trkpt lat="45.51192561951155" lon="11.5005969172556"><ele>44.0</ele><time>2026-04-26T05:33:02Z</time></trkpt><trkpt lat="45.511934115936214" lon="11.500755017250603"><ele>45.0</ele><time>2026-04-26T05:33:04Z</time></trkpt><trkpt lat="45.51194412248339" lon="11.500920010392607"><ele>46.0</ele><time>2026-04-26T05:33:06Z</time></trkpt><trkpt lat="45.51195262751958" lon="11.501066069532138"><ele>47.0</ele><time>2026-04-26T05:33:08Z</time></trkpt><trkpt lat="45.51196187252211" lon="11.501213404091514"><ele>48.0</ele><time>2026-04-26T05:33:10Z</time></trkpt><trkpt lat="45.5119584183561" lon="11.501303589616086"><ele>49.0</ele><time>2026-04-26T05:33:11Z</time></trkpt><trkpt lat="45.51195753226886" lon="11.50148067426642"><ele>49.400000000000006</ele><time>2026-04-26T05:33:13Z</time></trkpt><trkpt lat="45.511969218106195" lon="11.50157355006506"><ele>49.8</ele><time>2026-04-26T05:33:14Z</time></trkpt><trkpt lat="45.51201396856811" lon="11.501744416796019"><ele>50.2</ele><time>2026-04-26T05:33:16Z</time></trkpt><trkpt lat="45.51205434463256" lon="11.50191532983442"><ele>50.599999999999994</ele><time>2026-04-26T05:33:18Z</time></trkpt><trkpt lat="45.512106806004276" lon="11.502053357365773"><ele>51.0</ele><time>2026-04-26T05:33:20Z</time></trkpt><trkpt lat="45.51216847765296" lon="11.502181145072226"><ele>46.8</ele><time>2026-04-26T05:33:22Z</time></trkpt><trkpt lat="45.51222641717953" lon="11.502298863856442"><ele>42.599999999999994</ele><time>2026-04-26T05:33:24Z</time></trkpt><trkpt lat="45.51227529080549" lon="11.502411780781305"><ele>38.4</ele><time>2026-04-26T05:33:26Z</time></trkpt><trkpt lat="45.51233181470165" lon="11.502546113327375"><ele>34.2</ele><time>2026-04-26T05:33:28Z</time></trkpt><trkpt lat="45.51239720652256" lon="11.502658183260312"><ele>30.0</ele><time>2026-04-26T05:33:30Z</time></trkpt><trkpt lat="45.51244349282685" lon="11.50279966383424"><ele>33.6</ele><time>2026-04-26T05:33:31.999Z</time></trkpt><trkpt lat="45.512495948062636" lon="11.502951957568458"><ele>37.2</ele><time>2026-04-26T05:33:33.999Z</time></trkpt><trkpt lat="45.512528865183285" lon="11.503082316063011"><ele>40.8</ele><time>2026-04-26T05:33:35.999Z</time></trkpt><trkpt lat="45.512570056000435" lon="11.503193404071869"><ele>44.4</ele><time>2026-04-26T05:33:37.999Z</time></trkpt><trkpt lat="45.512614691264204" lon="11.503263090853716"><ele>48.0</ele><time>2026-04-26T05:33:38.999Z</time></trkpt><trkpt lat="45.512650948318615" lon="11.503400429837669"><ele>48.0</ele><time>2026-04-26T05:33:40.999Z</time></trkpt><trkpt lat="45.51268393034842" lon="11.503477782397232"><ele>48.0</ele><time>2026-04-26T05:33:41.999Z</time></trkpt><trkpt lat="45.512751746503575" lon="11.503618511019557"><ele>48.0</ele><time>2026-04-26T05:33:43.999Z</time></trkpt><trkpt lat="45.51281984737957" lon="11.503759138490494"><ele>48.0</ele><time>2026-04-26T05:33:45.999Z</time></trkpt><trkpt lat="45.51288638255375" lon="11.503884644334445"><ele>48.0</ele><time>2026-04-26T05:33:47.999Z</time></trkpt><trkpt lat="45.51294060858283" lon="11.503982746278908"><ele>44.4</ele><time>2026-04-26T05:33:49.999Z</time></trkpt><trkpt lat="45.513007665879954" lon="11.504089993146987"><ele>40.8</ele><time>2026-04-26T05:33:51.999Z</time></trkpt><trkpt lat="45.513051194441125" lon="11.504158290303232"><ele>37.2</ele><time>2026-04-26T05:33:52.999Z</time></trkpt><trkpt lat="45.513132708784504" lon="11.504259100701654"><ele>33.6</ele><time>2026-04-26T05:33:54.999Z</time></trkpt><trkpt lat="45.51319853453284" lon="11.504372020291758"><ele>30.0</ele><time>2026-04-26T05:33:56.999Z</time></trkpt><trkpt lat="45.51326731787212" lon="11.50449293276556"><ele>30.0</ele><time>2026-04-26T05:33:58.999Z</time></trkpt><trkpt lat="45.51332190842845" lon="11.504624633966158"><ele>30.0</ele><time>2026-04-26T05:34:00.999Z</time></trkpt><trkpt lat="45.51343462894225" lon="11.50458049891788"><ele>30.0</ele><time>2026-04-26T05:34:02.999Z</time></trkpt><trkpt lat="45.513469773267055" lon="11.504501678048923"><ele>30.0</ele><time>2026-04-26T05:34:03.999Z</time></trkpt><trkpt lat="45.51356531803949" lon="11.504442482497454"><ele>30.0</ele><time>2026-04-26T05:34:05.999Z</time></trkpt><trkpt lat="45.51365490175877" lon="11.504355075990725"><ele>30.0</ele><time>2026-04-26T05:34:07.998Z</time></trkpt><trkpt lat="45.51370935815667" lon="11.504304784560095"><ele>30.0</ele><time>2026-04-26T05:34:08.998Z</time></trkpt><trkpt lat="45.51381202427826" lon="11.504214480289273"><ele>30.0</ele><time>2026-04-26T05:34:10.998Z</time></trkpt><trkpt lat="45.513905863175594" lon="11.504131940354066"><ele>30.0</ele><time>2026-04-26T05:34:12.998Z</time></trkpt><trkpt lat="45.51398364004362" lon="11.504063528460374"><ele>30.0</ele><time>2026-04-26T05:34:14.998Z</time></trkpt><trkpt lat="45.513923879696215" lon="11.504116186875462"><ele>30.0</ele><time>2026-04-26T05:34:40.998Z</time></trkpt><trkpt lat="45.51386624386509" lon="11.504178835029933"><ele>30.0</ele><time>2026-04-26T05:34:46.997Z</time></trkpt><trkpt lat="45.5138170577424" lon="11.50424435807238"><ele>30.0</ele><time>2026-04-26T05:36:06.999Z</time></trkpt><trkpt lat="45.51373776482344" lon="11.504264096297243"><ele>30.0</ele><time>2026-04-26T05:36:13.998Z</time></trkpt><trkpt lat="45.513673422935554" lon="11.504338188432667"><ele>30.0</ele><time>2026-04-26T05:36:15.998Z</time></trkpt><trkpt lat="45.51359061179368" lon="11.504402368743886"><ele>30.0</ele><time>2026-04-26T05:36:17.998Z</time></trkpt><trkpt lat="45.51351716965835" lon="11.504456285555483"><ele>30.0</ele><time>2026-04-26T05:36:19.998Z</time></trkpt><trkpt lat="45.513457575503345" lon="11.504505315117974"><ele>30.0</ele><time>2026-04-26T05:36:21.998Z</time></trkpt><trkpt lat="45.513384468266175" lon="11.504586629316355"><ele>30.0</ele><time>2026-04-26T05:36:24.998Z</time></trkpt><trkpt lat="45.51335458111789" lon="11.504670126113924"><ele>30.0</ele><time>2026-04-26T05:36:26.998Z</time></trkpt><trkpt lat="45.513385967792566" lon="11.504815671780806"><ele>30.0</ele><time>2026-04-26T05:36:28.998Z</time></trkpt><trkpt lat="45.51342185287964" lon="11.504958437136558"><ele>30.0</ele><time>2026-04-26T05:36:30.998Z</time></trkpt><trkpt lat="45.51343248741738" lon="11.505122334887785"><ele>31.6</ele><time>2026-04-26T05:36:32.998Z</time></trkpt><trkpt lat="45.5134553639029" lon="11.505260368238389"><ele>33.2</ele><time>2026-04-26T05:36:34.998Z</time></trkpt><trkpt lat="45.51348393276034" lon="11.50542114089938"><ele>34.8</ele><time>2026-04-26T05:36:36.998Z</time></trkpt><trkpt lat="45.513511186002845" lon="11.505578106553763"><ele>36.4</ele><time>2026-04-26T05:36:38.998Z</time></trkpt><trkpt lat="45.513540849529306" lon="11.505736782068656"><ele>38.0</ele><time>2026-04-26T05:36:40.998Z</time></trkpt><trkpt lat="45.51356186719796" lon="11.505896215253307"><ele>38.0</ele><time>2026-04-26T05:36:42.998Z</time></trkpt><trkpt lat="45.5135702326014" lon="11.50607743443426"><ele>38.0</ele><time>2026-04-26T05:36:44.998Z</time></trkpt><trkpt lat="45.513593190998535" lon="11.506223164644254"><ele>38.0</ele><time>2026-04-26T05:36:46.998Z</time></trkpt><trkpt lat="45.51361824105443" lon="11.506384610142284"><ele>38.0</ele><time>2026-04-26T05:36:48.998Z</time></trkpt><trkpt lat="45.51365920107286" lon="11.506520736300086"><ele>36.6</ele><time>2026-04-26T05:36:50.998Z</time></trkpt><trkpt lat="45.513677340544234" lon="11.506669220563325"><ele>35.199999999999996</ele><time>2026-04-26T05:36:52.997Z</time></trkpt><trkpt lat="45.513697465946464" lon="11.506808614540262"><ele>33.8</ele><time>2026-04-26T05:36:54.997Z</time></trkpt><trkpt lat="45.513686581463276" lon="11.506923694995034"><ele>32.4</ele><time>2026-04-26T05:36:56.997Z</time></trkpt><trkpt lat="45.513576196312485" lon="11.50689277741225"><ele>31.0</ele><time>2026-04-26T05:36:57.997Z</time></trkpt><trkpt lat="45.513464642417404" lon="11.506937851789417"><ele>31.0</ele><time>2026-04-26T05:36:59.997Z</time></trkpt><trkpt lat="45.51336070771348" lon="11.506979799850251"><ele>31.0</ele><time>2026-04-26T05:37:01.997Z</time></trkpt><trkpt lat="45.513289114455915" lon="11.507005247942905"><ele>31.0</ele><time>2026-04-26T05:37:02.997Z</time></trkpt><trkpt lat="45.51319216811457" lon="11.506994948310124"><ele>31.0</ele><time>2026-04-26T05:37:04.997Z</time></trkpt><trkpt lat="45.513073314264226" lon="11.506937553421904"><ele>31.0</ele><time>2026-04-26T05:37:06.997Z</time></trkpt><trkpt lat="45.51298117547621" lon="11.50688054811257"><ele>31.6</ele><time>2026-04-26T05:37:08.997Z</time></trkpt><trkpt lat="45.51288839291651" lon="11.506820995947988"><ele>32.2</ele><time>2026-04-26T05:37:11Z</time></trkpt><trkpt lat="45.51279735591198" lon="11.506760829591116"><ele>32.8</ele><time>2026-04-26T05:37:13Z</time></trkpt><trkpt lat="45.51270745375102" lon="11.5066981871663"><ele>33.4</ele><time>2026-04-26T05:37:15Z</time></trkpt><trkpt lat="45.51259729675209" lon="11.506615125872942"><ele>34.0</ele><time>2026-04-26T05:37:17Z</time></trkpt><trkpt lat="45.51250212294277" lon="11.506544354490837"><ele>34.0</ele><time>2026-04-26T05:37:19Z</time></trkpt><trkpt lat="45.51240745014048" lon="11.506479588254676"><ele>34.0</ele><time>2026-04-26T05:37:21Z</time></trkpt><trkpt lat="45.51230847586425" lon="11.506415294182956"><ele>34.0</ele><time>2026-04-26T05:37:23Z</time></trkpt><trkpt lat="45.51220265709293" lon="11.506348207648095"><ele>34.0</ele><time>2026-04-26T05:37:25Z</time></trkpt><trkpt lat="45.512108374048616" lon="11.506288691226478"><ele>34.0</ele><time>2026-04-26T05:37:27Z</time></trkpt><trkpt lat="45.51201693252707" lon="11.506233181265173"><ele>35.5</ele><time>2026-04-26T05:37:29Z</time></trkpt><trkpt lat="45.51191765132727" lon="11.506174204004246"><ele>37.0</ele><time>2026-04-26T05:37:31Z</time></trkpt><trkpt lat="45.51183559524544" lon="11.506128883664717"><ele>38.5</ele><time>2026-04-26T05:37:33Z</time></trkpt><trkpt lat="45.51176249657538" lon="11.50610197805576"><ele>40.0</ele><time>2026-04-26T05:37:35Z</time></trkpt><trkpt lat="45.511683055445765" lon="11.506045753288612"><ele>41.5</ele><time>2026-04-26T05:37:37Z</time></trkpt><trkpt lat="45.511613088695924" lon="11.506007623133906"><ele>43.0</ele><time>2026-04-26T05:37:39Z</time></trkpt><trkpt lat="45.51152425033813" lon="11.506146964748579"><ele>41.0</ele><time>2026-04-26T05:37:41.999Z</time></trkpt><trkpt lat="45.51149223532106" lon="11.506282816505356"><ele>39.0</ele><time>2026-04-26T05:37:43.999Z</time></trkpt><trkpt lat="45.51144521168765" lon="11.506413433926195"><ele>37.0</ele><time>2026-04-26T05:37:45.999Z</time></trkpt><trkpt lat="45.511428041477416" lon="11.506552034659995"><ele>35.0</ele><time>2026-04-26T05:37:47.999Z</time></trkpt><trkpt lat="45.51140180485555" lon="11.506672278349795"><ele>33.0</ele><time>2026-04-26T05:37:49.999Z</time></trkpt><trkpt lat="45.51136745579265" lon="11.506783053107444"><ele>33.0</ele><time>2026-04-26T05:37:51.999Z</time></trkpt><trkpt lat="45.51133903249174" lon="11.506887648670208"><ele>33.0</ele><time>2026-04-26T05:37:53.999Z</time></trkpt><trkpt lat="45.51131463005471" lon="11.506977858294299"><ele>33.0</ele><time>2026-04-26T05:37:55.999Z</time></trkpt><trkpt lat="45.51127146594869" lon="11.50704355795578"><ele>33.0</ele><time>2026-04-26T05:37:57.999Z</time></trkpt><trkpt lat="45.51120456098577" lon="11.507061647575872"><ele>33.0</ele><time>2026-04-26T05:37:59.999Z</time></trkpt><trkpt lat="45.51112161864228" lon="11.507076797093392"><ele>33.0</ele><time>2026-04-26T05:38:01.999Z</time></trkpt><trkpt lat="45.5110417896468" lon="11.507116302053877"><ele>33.0</ele><time>2026-04-26T05:38:03.999Z</time></trkpt><trkpt lat="45.51095756698492" lon="11.507064887352382"><ele>33.166666666666664</ele><time>2026-04-26T05:38:05.999Z</time></trkpt><trkpt lat="45.51087102135522" lon="11.507047346398304"><ele>33.333333333333336</ele><time>2026-04-26T05:38:07.999Z</time></trkpt><trkpt lat="45.51078619759441" lon="11.507002721675192"><ele>33.5</ele><time>2026-04-26T05:38:09.999Z</time></trkpt><trkpt lat="45.51071356950922" lon="11.50696806173322"><ele>33.66666666666667</ele><time>2026-04-26T05:38:11.999Z</time></trkpt><trkpt lat="45.51063281388418" lon="11.506933468753385"><ele>33.833333333333336</ele><time>2026-04-26T05:38:13.999Z</time></trkpt><trkpt lat="45.510539516530415" lon="11.506880264840868"><ele>34.0</ele><time>2026-04-26T05:38:15.999Z</time></trkpt><trkpt lat="45.51043835165901" lon="11.506842584971885"><ele>34.4</ele><time>2026-04-26T05:38:17.999Z</time></trkpt><trkpt lat="45.510336924728676" lon="11.506798355150199"><ele>34.8</ele><time>2026-04-26T05:38:19.998Z</time></trkpt><trkpt lat="45.510231504836405" lon="11.506756169012737"><ele>35.2</ele><time>2026-04-26T05:38:21.998Z</time></trkpt><trkpt lat="45.510140191122396" lon="11.506730655995112"><ele>35.6</ele><time>2026-04-26T05:38:23.998Z</time></trkpt><trkpt lat="45.51005075560057" lon="11.506696213780673"><ele>36.0</ele><time>2026-04-26T05:38:25.998Z</time></trkpt><trkpt lat="45.50997226664882" lon="11.506657456733077"><ele>36.0</ele><time>2026-04-26T05:38:27.998Z</time></trkpt><trkpt lat="45.50996046329413" lon="11.506496084139526"><ele>36.0</ele><time>2026-04-26T05:38:28.998Z</time></trkpt><trkpt lat="45.509889630527915" lon="11.506470569300571"><ele>36.0</ele><time>2026-04-26T05:38:30.998Z</time></trkpt><trkpt lat="45.5098179887822" lon="11.506445941183038"><ele>36.0</ele><time>2026-04-26T05:38:33.998Z</time></trkpt><trkpt lat="45.50975450934953" lon="11.506744792050311"><ele>36.0</ele><time>2026-04-26T05:38:36.998Z</time></trkpt><trkpt lat="45.509770462213986" lon="11.50683399493541"><ele>36.0</ele><time>2026-04-26T05:38:39.998Z</time></trkpt><trkpt lat="45.50926210559705" lon="11.506947886012847"><ele>35.833333333333336</ele><time>2026-04-26T05:44:57.998Z</time></trkpt><trkpt lat="45.50922591809945" lon="11.50703464974425"><ele>35.666666666666664</ele><time>2026-04-26T05:45:12.998Z</time></trkpt><trkpt lat="45.509191988283334" lon="11.507118398014232"><ele>35.5</ele><time>2026-04-26T05:45:15.997Z</time></trkpt><trkpt lat="45.509146157841194" lon="11.507220163086112"><ele>35.33333333333333</ele><time>2026-04-26T05:45:18.997Z</time></trkpt><trkpt lat="45.509057497589886" lon="11.507216870641287"><ele>35.166666666666664</ele><time>2026-04-26T05:45:21.997Z</time></trkpt><trkpt lat="45.50899131720689" lon="11.507175777625191"><ele>35.0</ele><time>2026-04-26T05:45:26.997Z</time></trkpt><trkpt lat="45.508928614626676" lon="11.507121010145296"><ele>34.857142857142854</ele><time>2026-04-26T06:00:50.999Z</time></trkpt><trkpt lat="45.50886278794186" lon="11.507145130422783"><ele>34.714285714285715</ele><time>2026-04-26T06:00:55.999Z</time></trkpt><trkpt lat="45.50885547245507" lon="11.507254739341173"><ele>34.57142857142857</ele><time>2026-04-26T06:00:59.999Z</time></trkpt><trkpt lat="45.50886614359368" lon="11.507345442024352"><ele>34.42857142857143</ele><time>2026-04-26T06:01:03.999Z</time></trkpt><trkpt lat="45.50888395391597" lon="11.507256643814339"><ele>34.285714285714285</ele><time>2026-04-26T06:01:37.998Z</time></trkpt><trkpt lat="45.50888893047947" lon="11.5071616142501"><ele>34.14285714285714</ele><time>2026-04-26T06:01:40.998Z</time></trkpt><trkpt lat="45.50894066504718" lon="11.507108586738589"><ele>34.0</ele><time>2026-04-26T06:01:43.998Z</time></trkpt><trkpt lat="45.50901085607028" lon="11.507153436708288"><ele>33.99999999999999</ele><time>2026-04-26T06:01:46.998Z</time></trkpt><trkpt lat="45.5090976028912" lon="11.507159180914798"><ele>34.0</ele><time>2026-04-26T06:01:50.998Z</time></trkpt><trkpt lat="45.50912590786603" lon="11.507065959792401"><ele>34.0</ele><time>2026-04-26T06:01:53.998Z</time></trkpt><trkpt lat="45.50915658277507" lon="11.506979348198525"><ele>34.0</ele><time>2026-04-26T06:01:57.998Z</time></trkpt><trkpt lat="45.509218879673256" lon="11.506914831177246"><ele>34.0</ele><time>2026-04-26T06:02:02.998Z</time></trkpt><trkpt lat="45.50927975399739" lon="11.50694694949226"><ele>33.99999999999999</ele><time>2026-04-26T06:02:05.997Z</time></trkpt><trkpt lat="45.50929342562743" lon="11.507059976103461"><ele>34.0</ele><time>2026-04-26T06:02:08.997Z</time></trkpt><trkpt lat="45.509292387509646" lon="11.507152824892579"><ele>33.99999999999999</ele><time>2026-04-26T06:02:12.997Z</time></trkpt><trkpt lat="45.50932194082186" lon="11.5072405607901"><ele>34.0</ele><time>2026-04-26T06:02:16.997Z</time></trkpt><trkpt lat="45.5092997573227" lon="11.50715547962434"><ele>34.0</ele><time>2026-04-26T06:02:27Z</time></trkpt><trkpt lat="45.50924035657271" lon="11.507197872301468"><ele>34.0</ele><time>2026-04-26T06:03:11.999Z</time></trkpt><trkpt lat="45.509180149844966" lon="11.507170846012562"><ele>34.0</ele><time>2026-04-26T06:03:14.999Z</time></trkpt><trkpt lat="45.50910502007511" lon="11.507191610125197"><ele>33.99999999999999</ele><time>2026-04-26T06:03:23.999Z</time></trkpt><trkpt lat="45.50904288641135" lon="11.507228415747356"><ele>34.0</ele><time>2026-04-26T06:03:29.999Z</time></trkpt><trkpt lat="45.50897561069768" lon="11.50721327401691"><ele>34.0</ele><time>2026-04-26T06:03:38.998Z</time></trkpt><trkpt lat="45.50891011029459" lon="11.507188771634414"><ele>34.0</ele><time>2026-04-26T06:03:42.998Z</time></trkpt><trkpt lat="45.5088443083993" lon="11.507231977842183"><ele>34.0</ele><time>2026-04-26T06:03:46.998Z</time></trkpt><trkpt lat="45.50883536561616" lon="11.50732454337912"><ele>34.0</ele><time>2026-04-26T06:03:50.998Z</time></trkpt><trkpt lat="45.508758351559045" lon="11.50752442984797"><ele>34.0</ele><time>2026-04-26T06:12:19.998Z</time></trkpt><trkpt lat="45.50869209940399" lon="11.507606973563817"><ele>33.833333333333336</ele><time>2026-04-26T06:12:22.998Z</time></trkpt><trkpt lat="45.50861467606908" lon="11.507672534282207"><ele>33.66666666666667</ele><time>2026-04-26T06:12:25.998Z</time></trkpt><trkpt lat="45.508544058411964" lon="11.50773253125286"><ele>33.5</ele><time>2026-04-26T06:12:28.998Z</time></trkpt><trkpt lat="45.50848538274035" lon="11.507782387096226"><ele>33.333333333333336</ele><time>2026-04-26T06:12:30.998Z</time></trkpt><trkpt lat="45.508405261959815" lon="11.507839567199964"><ele>33.166666666666664</ele><time>2026-04-26T06:12:33.998Z</time></trkpt><trkpt lat="45.50833065303071" lon="11.507890521997362"><ele>33.0</ele><time>2026-04-26T06:12:36.998Z</time></trkpt><trkpt lat="45.50826981920362" lon="11.507933559242382"><ele>33.0</ele><time>2026-04-26T06:12:38.997Z</time></trkpt><trkpt lat="45.508210109589506" lon="11.507984015428361"><ele>33.0</ele><time>2026-04-26T06:12:40.997Z</time></trkpt><trkpt lat="45.5081463550497" lon="11.50803235699771"><ele>33.0</ele><time>2026-04-26T06:12:43.997Z</time></trkpt><trkpt lat="45.508083308130445" lon="11.508109494296303"><ele>33.0</ele><time>2026-04-26T06:12:47.997Z</time></trkpt><trkpt lat="45.508025462698775" lon="11.508145676984839"><ele>33.0</ele><time>2026-04-26T06:12:50.997Z</time></trkpt><trkpt lat="45.5079688588496" lon="11.508240336593909"><ele>33.0</ele><time>2026-04-26T06:12:55Z</time></trkpt><trkpt lat="45.50789905577358" lon="11.5083309013459"><ele>33.0</ele><time>2026-04-26T06:12:58Z</time></trkpt><trkpt lat="45.50783241248365" lon="11.50839527352746"><ele>33.0</ele><time>2026-04-26T06:13:00Z</time></trkpt><trkpt lat="45.50777415685717" lon="11.508471650466085"><ele>33.0</ele><time>2026-04-26T06:13:02Z</time></trkpt><trkpt lat="45.50771219573297" lon="11.508533649777082"><ele>33.0</ele><time>2026-04-26T06:13:04Z</time></trkpt><trkpt lat="45.50764452762577" lon="11.50858392580381"><ele>33.0</ele><time>2026-04-26T06:13:06Z</time></trkpt><trkpt lat="45.507595252199415" lon="11.508639844322358"><ele>33.0</ele><time>2026-04-26T06:13:08Z</time></trkpt><trkpt lat="45.50754808168902" lon="11.508711416170387"><ele>33.0</ele><time>2026-04-26T06:13:10Z</time></trkpt><trkpt lat="45.50749070051083" lon="11.508783455536681"><ele>32.833333333333336</ele><time>2026-04-26T06:13:12Z</time></trkpt><trkpt lat="45.50743163722166" lon="11.5088541831198"><ele>32.666666666666664</ele><time>2026-04-26T06:13:14Z</time></trkpt><trkpt lat="45.507372831376266" lon="11.508925423011009"><ele>32.5</ele><time>2026-04-26T06:13:16Z</time></trkpt><trkpt lat="45.50731197831941" lon="11.508996047891333"><ele>32.33333333333333</ele><time>2026-04-26T06:13:18Z</time></trkpt><trkpt lat="45.50724381265545" lon="11.50905076715005"><ele>32.166666666666664</ele><time>2026-04-26T06:13:20Z</time></trkpt><trkpt lat="45.50719296626016" lon="11.509125956847347"><ele>32.0</ele><time>2026-04-26T06:13:22Z</time></trkpt><trkpt lat="45.50713523168684" lon="11.509207514525617"><ele>32.0</ele><time>2026-04-26T06:13:23.999Z</time></trkpt><trkpt lat="45.50708192671828" lon="11.509285971869083"><ele>31.999999999999996</ele><time>2026-04-26T06:13:26.999Z</time></trkpt><trkpt lat="45.507023319443604" lon="11.509380243786348"><ele>32.0</ele><time>2026-04-26T06:13:29.999Z</time></trkpt><trkpt lat="45.50697973313035" lon="11.509445319072169"><ele>32.0</ele><time>2026-04-26T06:13:31.999Z</time></trkpt><trkpt lat="45.50693892853269" lon="11.50952724620847"><ele>31.999999999999996</ele><time>2026-04-26T06:13:33.999Z</time></trkpt><trkpt lat="45.506894713153976" lon="11.509594383765311"><ele>32.0</ele><time>2026-04-26T06:13:35.999Z</time></trkpt><trkpt lat="45.50685060595589" lon="11.509658556700145"><ele>32.0</ele><time>2026-04-26T06:13:37.999Z</time></trkpt><trkpt lat="45.50676880490192" lon="11.509675340386849"><ele>31.8</ele><time>2026-04-26T06:13:39.999Z</time></trkpt><trkpt lat="45.50663696112966" lon="11.509599886609006"><ele>31.6</ele><time>2026-04-26T06:13:41.999Z</time></trkpt><trkpt lat="45.50658242664921" lon="11.50954932874579"><ele>31.400000000000002</ele><time>2026-04-26T06:13:43.999Z</time></trkpt><trkpt lat="45.50652870646217" lon="11.509490894166849"><ele>31.200000000000003</ele><time>2026-04-26T06:13:45.999Z</time></trkpt><trkpt lat="45.50647315331721" lon="11.509440551576"><ele>31.0</ele><time>2026-04-26T06:13:47.999Z</time></trkpt><trkpt lat="45.50638654764036" lon="11.50931056308273"><ele>31.200000000000003</ele><time>2026-04-26T06:13:49.999Z</time></trkpt><trkpt lat="45.50631616228444" lon="11.509206603066572"><ele>31.400000000000002</ele><time>2026-04-26T06:13:51.999Z</time></trkpt><trkpt lat="45.506257431065954" lon="11.50912951329909"><ele>31.6</ele><time>2026-04-26T06:13:53.999Z</time></trkpt><trkpt lat="45.50619069643845" lon="11.5090373789217"><ele>31.8</ele><time>2026-04-26T06:13:55.999Z</time></trkpt><trkpt lat="45.50612890898166" lon="11.508942677501468"><ele>32.0</ele><time>2026-04-26T06:13:57.999Z</time></trkpt><trkpt lat="45.50605287817589" lon="11.5088755568692"><ele>31.999999999999996</ele><time>2026-04-26T06:13:59.999Z</time></trkpt><trkpt lat="45.505984436824875" lon="11.508807214282717"><ele>32.0</ele><time>2026-04-26T06:14:01.999Z</time></trkpt><trkpt lat="45.50593125229415" lon="11.508725044119544"><ele>32.0</ele><time>2026-04-26T06:14:03.999Z</time></trkpt><trkpt lat="45.50587293203535" lon="11.508626130009127"><ele>32.0</ele><time>2026-04-26T06:14:05.998Z</time></trkpt><trkpt lat="45.505821291306766" lon="11.508544850772662"><ele>31.999999999999996</ele><time>2026-04-26T06:14:07.998Z</time></trkpt><trkpt lat="45.50577216624729" lon="11.508461088182829"><ele>32.0</ele><time>2026-04-26T06:14:09.998Z</time></trkpt><trkpt lat="45.505717663307834" lon="11.508361707888627"><ele>32.166666666666664</ele><time>2026-04-26T06:14:11.998Z</time></trkpt><trkpt lat="45.50567793964996" lon="11.508276175037215"><ele>32.33333333333333</ele><time>2026-04-26T06:14:13.998Z</time></trkpt><trkpt lat="45.50562815579941" lon="11.508158857089862"><ele>32.5</ele><time>2026-04-26T06:14:16.998Z</time></trkpt><trkpt lat="45.505597051508325" lon="11.508052665455514"><ele>32.666666666666664</ele><time>2026-04-26T06:14:18.998Z</time></trkpt><trkpt lat="45.50557862642007" lon="11.507938171025392"><ele>32.833333333333336</ele><time>2026-04-26T06:14:20.998Z</time></trkpt><trkpt lat="45.50558138715147" lon="11.507822074542066"><ele>33.0</ele><time>2026-04-26T06:14:22.998Z</time></trkpt><trkpt lat="45.50559691190623" lon="11.507711164484288"><ele>33.0</ele><time>2026-04-26T06:14:24.998Z</time></trkpt><trkpt lat="45.50559915977087" lon="11.507598549615501"><ele>33.0</ele><time>2026-04-26T06:14:26.998Z</time></trkpt><trkpt lat="45.50556183435474" lon="11.507473534535984"><ele>33.0</ele><time>2026-04-26T06:14:28.998Z</time></trkpt><trkpt lat="45.50549533783471" lon="11.507425501671703"><ele>33.0</ele><time>2026-04-26T06:14:30.998Z</time></trkpt><trkpt lat="45.50541752027717" lon="11.507410175066797"><ele>33.0</ele><time>2026-04-26T06:14:32.998Z</time></trkpt><trkpt lat="45.505336534707105" lon="11.507398180922602"><ele>33.0</ele><time>2026-04-26T06:14:34.998Z</time></trkpt><trkpt lat="45.50526125758905" lon="11.507389079047318"><ele>32.833333333333336</ele><time>2026-04-26T06:14:36.998Z</time></trkpt><trkpt lat="45.50517809960181" lon="11.507371054583782"><ele>32.666666666666664</ele><time>2026-04-26T06:14:38.998Z</time></trkpt><trkpt lat="45.50509369719844" lon="11.507364702866314"><ele>32.5</ele><time>2026-04-26T06:14:40.998Z</time></trkpt><trkpt lat="45.50501416071009" lon="11.507365639518703"><ele>32.33333333333333</ele><time>2026-04-26T06:14:42.998Z</time></trkpt><trkpt lat="45.5049342931649" lon="11.50734477104515"><ele>32.166666666666664</ele><time>2026-04-26T06:14:44.997Z</time></trkpt><trkpt lat="45.504856674261916" lon="11.507309809310284"><ele>32.0</ele><time>2026-04-26T06:14:46.997Z</time></trkpt><trkpt lat="45.50477549276395" lon="11.507286948746373"><ele>31.999999999999996</ele><time>2026-04-26T06:14:48.997Z</time></trkpt><trkpt lat="45.50470094388958" lon="11.507255658953278"><ele>32.0</ele><time>2026-04-26T06:14:50.997Z</time></trkpt><trkpt lat="45.50462090147051" lon="11.507209271570629"><ele>32.0</ele><time>2026-04-26T06:14:52.997Z</time></trkpt><trkpt lat="45.50454009037173" lon="11.507162176803483"><ele>32.0</ele><time>2026-04-26T06:14:55.997Z</time></trkpt><trkpt lat="45.50445923039853" lon="11.507116742884316"><ele>31.999999999999996</ele><time>2026-04-26T06:14:59Z</time></trkpt><trkpt lat="45.504362409787156" lon="11.50705932074104"><ele>32.0</ele><time>2026-04-26T06:15:01Z</time></trkpt><trkpt lat="45.504275440446555" lon="11.506998801895914"><ele>31.8</ele><time>2026-04-26T06:15:03Z</time></trkpt><trkpt lat="45.50419381407073" lon="11.506948222737453"><ele>31.6</ele><time>2026-04-26T06:15:05Z</time></trkpt><trkpt lat="45.50410314074671" lon="11.50689703070797"><ele>31.400000000000002</ele><time>2026-04-26T06:15:07Z</time></trkpt><trkpt lat="45.5040104415779" lon="11.506855199815268"><ele>31.200000000000003</ele><time>2026-04-26T06:15:09Z</time></trkpt><trkpt lat="45.503924326015415" lon="11.506806098022604"><ele>31.0</ele><time>2026-04-26T06:15:11Z</time></trkpt><trkpt lat="45.50383668241298" lon="11.506775107556578"><ele>31.000000000000004</ele><time>2026-04-26T06:15:13Z</time></trkpt><trkpt lat="45.503750435003084" lon="11.506731114706687"><ele>31.0</ele><time>2026-04-26T06:15:15Z</time></trkpt><trkpt lat="45.503670603127965" lon="11.506699172190723"><ele>31.0</ele><time>2026-04-26T06:15:17Z</time></trkpt><trkpt lat="45.503586402796365" lon="11.506661321967469"><ele>31.0</ele><time>2026-04-26T06:15:19Z</time></trkpt><trkpt lat="45.503512992830416" lon="11.506636500629249"><ele>31.000000000000004</ele><time>2026-04-26T06:15:21Z</time></trkpt><trkpt lat="45.5034341113933" lon="11.50659847978393"><ele>31.0</ele><time>2026-04-26T06:15:23Z</time></trkpt><trkpt lat="45.50335959012002" lon="11.506569015626638"><ele>30.833333333333336</ele><time>2026-04-26T06:15:25Z</time></trkpt><trkpt lat="45.50328754735767" lon="11.506535844164368"><ele>30.666666666666668</ele><time>2026-04-26T06:15:27Z</time></trkpt><trkpt lat="45.503218164575074" lon="11.506524225351011"><ele>30.5</ele><time>2026-04-26T06:15:29Z</time></trkpt><trkpt lat="45.50314219840951" lon="11.506479464921489"><ele>30.333333333333336</ele><time>2026-04-26T06:15:31Z</time></trkpt><trkpt lat="45.50307122040961" lon="11.506450674465224"><ele>30.166666666666668</ele><time>2026-04-26T06:15:32.999Z</time></trkpt><trkpt lat="45.50299609988193" lon="11.506434627410481"><ele>30.0</ele><time>2026-04-26T06:15:34.999Z</time></trkpt><trkpt lat="45.50291149802284" lon="11.506426151055512"><ele>30.0</ele><time>2026-04-26T06:15:38.999Z</time></trkpt><trkpt lat="45.502828438984565" lon="11.506382218675673"><ele>30.0</ele><time>2026-04-26T06:15:41.999Z</time></trkpt><trkpt lat="45.50275428792917" lon="11.50634732952906"><ele>30.0</ele><time>2026-04-26T06:15:43.999Z</time></trkpt><trkpt lat="45.50265521159657" lon="11.506311826697017"><ele>30.0</ele><time>2026-04-26T06:15:45.999Z</time></trkpt><trkpt lat="45.502588534575985" lon="11.506257916651712"><ele>30.0</ele><time>2026-04-26T06:15:47.999Z</time></trkpt><trkpt lat="45.50257507763555" lon="11.506135016863336"><ele>30.0</ele><time>2026-04-26T06:15:49.999Z</time></trkpt><trkpt lat="45.50259060797575" lon="11.505984326249624"><ele>30.285714285714285</ele><time>2026-04-26T06:15:52.999Z</time></trkpt><trkpt lat="45.50261753318295" lon="11.505862036737906"><ele>30.57142857142857</ele><time>2026-04-26T06:15:54.999Z</time></trkpt><trkpt lat="45.502633653731976" lon="11.505760284519534"><ele>30.857142857142854</ele><time>2026-04-26T06:15:56.999Z</time></trkpt><trkpt lat="45.50263696361004" lon="11.505665482015896"><ele>31.142857142857142</ele><time>2026-04-26T06:15:58.999Z</time></trkpt><trkpt lat="45.50264367476384" lon="11.50556870089035"><ele>31.428571428571423</ele><time>2026-04-26T06:16:00.999Z</time></trkpt><trkpt lat="45.50266095374912" lon="11.505476408990152"><ele>31.71428571428571</ele><time>2026-04-26T06:16:02.999Z</time></trkpt><trkpt lat="45.50265644956519" lon="11.505382038957938"><ele>32.0</ele><time>2026-04-26T06:16:05.999Z</time></trkpt><trkpt lat="45.502590418193165" lon="11.50533552921647"><ele>34.166666666666664</ele><time>2026-04-26T06:16:08.999Z</time></trkpt><trkpt lat="45.50249720139107" lon="11.505332934573932"><ele>36.33333333333333</ele><time>2026-04-26T06:16:11.999Z</time></trkpt><trkpt lat="45.50241985251755" lon="11.50531035667022"><ele>38.5</ele><time>2026-04-26T06:16:13.998Z</time></trkpt><trkpt lat="45.502346644984556" lon="11.505259907885074"><ele>40.666666666666664</ele><time>2026-04-26T06:16:15.998Z</time></trkpt><trkpt lat="45.502273790289586" lon="11.505163963130602"><ele>42.833333333333336</ele><time>2026-04-26T06:16:17.998Z</time></trkpt><trkpt lat="45.50221288675075" lon="11.505089576323067"><ele>45.0</ele><time>2026-04-26T06:16:19.998Z</time></trkpt><trkpt lat="45.502162792375074" lon="11.505003323102441"><ele>45.0</ele><time>2026-04-26T06:16:22.998Z</time></trkpt><trkpt lat="45.502115303628" lon="11.50489064866071"><ele>45.0</ele><time>2026-04-26T06:16:25.998Z</time></trkpt><trkpt lat="45.502094715229546" lon="11.504798792018079"><ele>45.0</ele><time>2026-04-26T06:16:27.998Z</time></trkpt><trkpt lat="45.50208513690243" lon="11.504708795967357"><ele>45.0</ele><time>2026-04-26T06:16:28.998Z</time></trkpt><trkpt lat="45.502072255200964" lon="11.504600235385055"><ele>45.0</ele><time>2026-04-26T06:16:30.998Z</time></trkpt><trkpt lat="45.50206112957421" lon="11.504472461462024"><ele>45.0</ele><time>2026-04-26T06:16:33.998Z</time></trkpt><trkpt lat="45.50207494541851" lon="11.504367915364629"><ele>44.5</ele><time>2026-04-26T06:16:35.998Z</time></trkpt><trkpt lat="45.502104283889196" lon="11.504271360424587"><ele>44.0</ele><time>2026-04-26T06:16:37.998Z</time></trkpt><trkpt lat="45.50213967346074" lon="11.504147620836605"><ele>43.5</ele><time>2026-04-26T06:16:40.998Z</time></trkpt><trkpt lat="45.50215914117517" lon="11.504051100517412"><ele>43.0</ele><time>2026-04-26T06:16:42.998Z</time></trkpt><trkpt lat="45.50217491006122" lon="11.503949026861763"><ele>42.5</ele><time>2026-04-26T06:16:44.998Z</time></trkpt><trkpt lat="45.50219268441755" lon="11.503854817037166"><ele>42.0</ele><time>2026-04-26T06:16:45.998Z</time></trkpt><trkpt lat="45.50219421633282" lon="11.503744853570197"><ele>42.0</ele><time>2026-04-26T06:16:47.998Z</time></trkpt><trkpt lat="45.502185283130245" lon="11.503651941553892"><ele>42.0</ele><time>2026-04-26T06:16:49.998Z</time></trkpt><trkpt lat="45.50218697078938" lon="11.503541482605536"><ele>42.0</ele><time>2026-04-26T06:16:52.998Z</time></trkpt><trkpt lat="45.50217163975357" lon="11.503426669866148"><ele>42.0</ele><time>2026-04-26T06:16:54.997Z</time></trkpt><trkpt lat="45.50216291941699" lon="11.503303770356771"><ele>42.0</ele><time>2026-04-26T06:16:55.997Z</time></trkpt><trkpt lat="45.50217464884035" lon="11.503196956345802"><ele>42.0</ele><time>2026-04-26T06:16:56.997Z</time></trkpt><trkpt lat="45.502177403547755" lon="11.503107206867204"><ele>42.0</ele><time>2026-04-26T06:16:57.997Z</time></trkpt><trkpt lat="45.50216653102076" lon="11.50298175792455"><ele>42.0</ele><time>2026-04-26T06:16:59.997Z</time></trkpt><trkpt lat="45.50215980310966" lon="11.502859930987436"><ele>42.0</ele><time>2026-04-26T06:17:01.997Z</time></trkpt><trkpt lat="45.502141183259305" lon="11.50273426640474"><ele>42.0</ele><time>2026-04-26T06:17:03.997Z</time></trkpt><trkpt lat="45.50211757424472" lon="11.502624456929986"><ele>42.0</ele><time>2026-04-26T06:17:06Z</time></trkpt><trkpt lat="45.502089791498086" lon="11.502528545256498"><ele>42.0</ele><time>2026-04-26T06:17:08Z</time></trkpt><trkpt lat="45.50205916506252" lon="11.502412986482366"><ele>41.2</ele><time>2026-04-26T06:17:10Z</time></trkpt><trkpt lat="45.50201284658687" lon="11.502320072414538"><ele>40.400000000000006</ele><time>2026-04-26T06:17:12Z</time></trkpt><trkpt lat="45.50195303397303" lon="11.502228612422664"><ele>39.599999999999994</ele><time>2026-04-26T06:17:14Z</time></trkpt><trkpt lat="45.50188147373972" lon="11.50213096880327"><ele>38.8</ele><time>2026-04-26T06:17:16Z</time></trkpt><trkpt lat="45.50180614838913" lon="11.502058920233937"><ele>38.0</ele><time>2026-04-26T06:17:18Z</time></trkpt><trkpt lat="45.50173024336668" lon="11.501982851575674"><ele>39.83333333333333</ele><time>2026-04-26T06:17:20Z</time></trkpt><trkpt lat="45.50165615287231" lon="11.50190604808108"><ele>41.666666666666664</ele><time>2026-04-26T06:17:22Z</time></trkpt><trkpt lat="45.50158309066793" lon="11.501838181065038"><ele>43.5</ele><time>2026-04-26T06:17:24Z</time></trkpt><trkpt lat="45.501514743377705" lon="11.501745129841991"><ele>45.33333333333333</ele><time>2026-04-26T06:17:26Z</time></trkpt><trkpt lat="45.5014653636435" lon="11.501652926547155"><ele>47.166666666666664</ele><time>2026-04-26T06:17:28Z</time></trkpt><trkpt lat="45.501430543938056" lon="11.501540557959482"><ele>49.0</ele><time>2026-04-26T06:17:30Z</time></trkpt><trkpt lat="45.50140766658703" lon="11.501424892063827"><ele>48.99999999999999</ele><time>2026-04-26T06:17:32Z</time></trkpt><trkpt lat="45.50139716064028" lon="11.501303556970717"><ele>49.0</ele><time>2026-04-26T06:17:34Z</time></trkpt><trkpt lat="45.50141701787719" lon="11.50116670299356"><ele>49.0</ele><time>2026-04-26T06:17:36Z</time></trkpt><trkpt lat="45.50141622970949" lon="11.501061638410556"><ele>49.0</ele><time>2026-04-26T06:17:38Z</time></trkpt><trkpt lat="45.50144220288584" lon="11.500953736613495"><ele>48.99999999999999</ele><time>2026-04-26T06:17:39.999Z</time></trkpt><trkpt lat="45.50146053789723" lon="11.50084474378309"><ele>49.0</ele><time>2026-04-26T06:17:41.999Z</time></trkpt><trkpt lat="45.50147914575598" lon="11.500736225402866"><ele>49.33333333333333</ele><time>2026-04-26T06:17:43.999Z</time></trkpt><trkpt lat="45.501500119004454" lon="11.500622122584705"><ele>49.666666666666664</ele><time>2026-04-26T06:17:45.999Z</time></trkpt><trkpt lat="45.50150877261503" lon="11.500511395709609"><ele>50.0</ele><time>2026-04-26T06:17:47.999Z</time></trkpt><trkpt lat="45.501491232858484" lon="11.500389457761036"><ele>50.33333333333333</ele><time>2026-04-26T06:17:51.999Z</time></trkpt><trkpt lat="45.50148196209429" lon="11.500291891715557"><ele>50.666666666666664</ele><time>2026-04-26T06:17:53.999Z</time></trkpt><trkpt lat="45.50144745202379" lon="11.50013631198761"><ele>51.0</ele><time>2026-04-26T06:17:56.999Z</time></trkpt><trkpt lat="45.50140344253288" lon="11.500059870028837"><ele>51.5</ele><time>2026-04-26T06:17:59.999Z</time></trkpt><trkpt lat="45.501333684904736" lon="11.500037872141451"><ele>52.0</ele><time>2026-04-26T06:18:01.999Z</time></trkpt><trkpt lat="45.50127183079064" lon="11.500003955680906"><ele>52.5</ele><time>2026-04-26T06:18:03.999Z</time></trkpt><trkpt lat="45.501181595408084" lon="11.499906806077389"><ele>53.0</ele><time>2026-04-26T06:18:04.999Z</time></trkpt><trkpt lat="45.50111715668569" lon="11.49983295224056"><ele>53.5</ele><time>2026-04-26T06:18:05.999Z</time></trkpt><trkpt lat="45.50106002106967" lon="11.499774524575146"><ele>54.0</ele><time>2026-04-26T06:18:06.999Z</time></trkpt><trkpt lat="45.50100282310005" lon="11.499710952888071"><ele>53.42857142857143</ele><time>2026-04-26T06:18:07.999Z</time></trkpt><trkpt lat="45.50094596590445" lon="11.499656850646936"><ele>52.857142857142854</ele><time>2026-04-26T06:18:08.999Z</time></trkpt><trkpt lat="45.500885282933055" lon="11.499598619571769"><ele>52.28571428571429</ele><time>2026-04-26T06:18:09.999Z</time></trkpt><trkpt lat="45.5008281837708" lon="11.49953617293881"><ele>51.714285714285715</ele><time>2026-04-26T06:18:10.999Z</time></trkpt><trkpt lat="45.50076927248257" lon="11.499468669316045"><ele>51.142857142857146</ele><time>2026-04-26T06:18:11.999Z</time></trkpt><trkpt lat="45.5007135179804" lon="11.49940917361026"><ele>50.57142857142858</ele><time>2026-04-26T06:18:12.999Z</time></trkpt><trkpt lat="45.500665188572206" lon="11.499342720534692"><ele>50.0</ele><time>2026-04-26T06:18:13.999Z</time></trkpt><trkpt lat="45.50061290402634" lon="11.499283825472753"><ele>50.0</ele><time>2026-04-26T06:18:14.999Z</time></trkpt><trkpt lat="45.500529537094124" lon="11.49916406458257"><ele>50.0</ele><time>2026-04-26T06:18:16.999Z</time></trkpt><trkpt lat="45.5004614574243" lon="11.4990334030821"><ele>50.0</ele><time>2026-04-26T06:18:18.999Z</time></trkpt><trkpt lat="45.50042743574138" lon="11.49895161867548"><ele>50.0</ele><time>2026-04-26T06:18:19.998Z</time></trkpt><trkpt lat="45.500370703971726" lon="11.498825814811784"><ele>50.0</ele><time>2026-04-26T06:18:21.998Z</time></trkpt><trkpt lat="45.5003096449044" lon="11.498726960586414"><ele>48.333333333333336</ele><time>2026-04-26T06:18:23.998Z</time></trkpt><trkpt lat="45.50026162498958" lon="11.498624544508411"><ele>46.66666666666667</ele><time>2026-04-26T06:18:25.998Z</time></trkpt><trkpt lat="45.500203570528534" lon="11.498523704465235"><ele>45.0</ele><time>2026-04-26T06:18:27.998Z</time></trkpt><trkpt lat="45.50013947071441" lon="11.49844038742113"><ele>43.333333333333336</ele><time>2026-04-26T06:18:29.998Z</time></trkpt><trkpt lat="45.50007539057259" lon="11.498380087342227"><ele>41.66666666666667</ele><time>2026-04-26T06:18:31.998Z</time></trkpt><trkpt lat="45.50000970501655" lon="11.49832214836432"><ele>40.0</ele><time>2026-04-26T06:18:33.998Z</time></trkpt><trkpt lat="45.499934370871756" lon="11.498265807162245"><ele>40.0</ele><time>2026-04-26T06:18:35.998Z</time></trkpt><trkpt lat="45.49986298175873" lon="11.498182674606415"><ele>40.0</ele><time>2026-04-26T06:18:37.998Z</time></trkpt><trkpt lat="45.49980161547927" lon="11.498112775697965"><ele>40.0</ele><time>2026-04-26T06:18:39.998Z</time></trkpt><trkpt lat="45.49974497829193" lon="11.498027210285361"><ele>40.0</ele><time>2026-04-26T06:18:41.998Z</time></trkpt><trkpt lat="45.499678495507325" lon="11.497940170481737"><ele>40.0</ele><time>2026-04-26T06:18:45.998Z</time></trkpt><trkpt lat="45.49961619846062" lon="11.497846845057962"><ele>40.0</ele><time>2026-04-26T06:18:48.998Z</time></trkpt><trkpt lat="45.49957185333691" lon="11.497767292479622"><ele>39.66666666666667</ele><time>2026-04-26T06:18:50.998Z</time></trkpt><trkpt lat="45.49953940699172" lon="11.4976899077473"><ele>39.333333333333336</ele><time>2026-04-26T06:18:52.998Z</time></trkpt><trkpt lat="45.49949167284894" lon="11.49762248590785"><ele>39.0</ele><time>2026-04-26T06:18:54.998Z</time></trkpt><trkpt lat="45.4994588713271" lon="11.497539555415818"><ele>38.666666666666664</ele><time>2026-04-26T06:18:56.998Z</time></trkpt><trkpt lat="45.49942127268458" lon="11.49745269707759"><ele>38.33333333333333</ele><time>2026-04-26T06:18:58.998Z</time></trkpt><trkpt lat="45.49935148703045" lon="11.497312850904002"><ele>38.0</ele><time>2026-04-26T06:19:00.997Z</time></trkpt><trkpt lat="45.499310144117246" lon="11.49722218607994"><ele>37.83333333333333</ele><time>2026-04-26T06:19:01.997Z</time></trkpt><trkpt lat="45.49924408596738" lon="11.497071626997917"><ele>37.666666666666664</ele><time>2026-04-26T06:19:03.997Z</time></trkpt><trkpt lat="45.499208895651535" lon="11.496995529490531"><ele>37.5</ele><time>2026-04-26T06:19:04.997Z</time></trkpt><trkpt lat="45.49917086078526" lon="11.496918156007277"><ele>37.333333333333336</ele><time>2026-04-26T06:19:05.997Z</time></trkpt><trkpt lat="45.49912876930351" lon="11.49683989592204"><ele>37.16666666666667</ele><time>2026-04-26T06:19:06.997Z</time></trkpt><trkpt lat="45.499101651459895" lon="11.496756752474791"><ele>37.0</ele><time>2026-04-26T06:19:07.997Z</time></trkpt><trkpt lat="45.499043325285044" lon="11.496601316521335"><ele>37.0</ele><time>2026-04-26T06:19:09.997Z</time></trkpt><trkpt lat="45.49899781035874" lon="11.496451785010118"><ele>37.0</ele><time>2026-04-26T06:19:12Z</time></trkpt><trkpt lat="45.49895457908817" lon="11.496301204546175"><ele>37.0</ele><time>2026-04-26T06:19:14Z</time></trkpt><trkpt lat="45.498911890075625" lon="11.496162969257318"><ele>37.0</ele><time>2026-04-26T06:19:16Z</time></trkpt><trkpt lat="45.498900453464735" lon="11.49600799320201"><ele>37.0</ele><time>2026-04-26T06:19:18Z</time></trkpt><trkpt lat="45.49886605306932" lon="11.495868950649266"><ele>37.0</ele><time>2026-04-26T06:19:20Z</time></trkpt><trkpt lat="45.49883186721732" lon="11.495738953221474"><ele>37.0</ele><time>2026-04-26T06:19:22Z</time></trkpt><trkpt lat="45.49878904278969" lon="11.495606763122366"><ele>37.0</ele><time>2026-04-26T06:19:24Z</time></trkpt><trkpt lat="45.49873351073425" lon="11.495469645797368"><ele>37.0</ele><time>2026-04-26T06:19:26Z</time></trkpt><trkpt lat="45.498657902896454" lon="11.495366721426738"><ele>37.0</ele><time>2026-04-26T06:19:28Z</time></trkpt><trkpt lat="45.49858898778421" lon="11.495261781515161"><ele>37.0</ele><time>2026-04-26T06:19:30Z</time></trkpt><trkpt lat="45.498519303277355" lon="11.495168329045303"><ele>37.0</ele><time>2026-04-26T06:19:32Z</time></trkpt><trkpt lat="45.498448346477616" lon="11.495084709775574"><ele>37.0</ele><time>2026-04-26T06:19:34Z</time></trkpt><trkpt lat="45.498369434434295" lon="11.495016172861249"><ele>37.0</ele><time>2026-04-26T06:19:36Z</time></trkpt><trkpt lat="45.49828481465608" lon="11.494949724251459"><ele>37.0</ele><time>2026-04-26T06:19:38Z</time></trkpt><trkpt lat="45.498203285385046" lon="11.49488790141428"><ele>37.0</ele><time>2026-04-26T06:19:40Z</time></trkpt><trkpt lat="45.498134015757536" lon="11.494826545927355"><ele>37.0</ele><time>2026-04-26T06:19:42Z</time></trkpt><trkpt lat="45.498046984739254" lon="11.494794337653227"><ele>37.0</ele><time>2026-04-26T06:19:43.999Z</time></trkpt><trkpt lat="45.49796778600074" lon="11.494748487182159"><ele>37.0</ele><time>2026-04-26T06:19:45.999Z</time></trkpt><trkpt lat="45.49787788445659" lon="11.494685730724994"><ele>37.0</ele><time>2026-04-26T06:19:47.999Z</time></trkpt><trkpt lat="45.49779526939452" lon="11.49463515565635"><ele>37.0</ele><time>2026-04-26T06:19:49.999Z</time></trkpt><trkpt lat="45.49771090616463" lon="11.494595945279604"><ele>38.400000000000006</ele><time>2026-04-26T06:19:51.999Z</time></trkpt><trkpt lat="45.49761690163532" lon="11.494530254122877"><ele>39.800000000000004</ele><time>2026-04-26T06:19:53.999Z</time></trkpt><trkpt lat="45.497527878441794" lon="11.494468707599713"><ele>41.2</ele><time>2026-04-26T06:19:55.999Z</time></trkpt><trkpt lat="45.49743928007871" lon="11.494402927732672"><ele>42.6</ele><time>2026-04-26T06:19:57.999Z</time></trkpt><trkpt lat="45.497345307722014" lon="11.494362244170246"><ele>44.0</ele><time>2026-04-26T06:19:59.999Z</time></trkpt><trkpt lat="45.497260609278825" lon="11.494302365722575"><ele>44.0</ele><time>2026-04-26T06:20:01.999Z</time></trkpt><trkpt lat="45.49718142983704" lon="11.49424131807576"><ele>44.0</ele><time>2026-04-26T06:20:03.999Z</time></trkpt><trkpt lat="45.49709759550373" lon="11.494186486614584"><ele>44.0</ele><time>2026-04-26T06:20:05.999Z</time></trkpt><trkpt lat="45.497013896969904" lon="11.49416950359834"><ele>44.0</ele><time>2026-04-26T06:20:07.999Z</time></trkpt><trkpt lat="45.49693073059668" lon="11.494170421011342"><ele>44.0</ele><time>2026-04-26T06:20:09.999Z</time></trkpt><trkpt lat="45.49684336253867" lon="11.494171247084763"><ele>44.0</ele><time>2026-04-26T06:20:11.999Z</time></trkpt><trkpt lat="45.496771846945165" lon="11.494163922778581"><ele>43.400000000000006</ele><time>2026-04-26T06:20:13.999Z</time></trkpt><trkpt lat="45.4966701124214" lon="11.494133107490297"><ele>42.8</ele><time>2026-04-26T06:20:15.999Z</time></trkpt><trkpt lat="45.49658481543285" lon="11.49408474588575"><ele>42.2</ele><time>2026-04-26T06:20:17.999Z</time></trkpt><trkpt lat="45.49650412346599" lon="11.494037379031425"><ele>41.599999999999994</ele><time>2026-04-26T06:20:19.999Z</time></trkpt><trkpt lat="45.4964143906776" lon="11.493989485126013"><ele>41.0</ele><time>2026-04-26T06:20:21.999Z</time></trkpt><trkpt lat="45.49633684835511" lon="11.493931129743922"><ele>41.0</ele><time>2026-04-26T06:20:23.998Z</time></trkpt><trkpt lat="45.49625688700553" lon="11.493886963441343"><ele>41.0</ele><time>2026-04-26T06:20:25.998Z</time></trkpt><trkpt lat="45.49619164018239" lon="11.493819145136204"><ele>41.0</ele><time>2026-04-26T06:20:27.998Z</time></trkpt><trkpt lat="45.49612775406537" lon="11.49375121026172"><ele>41.0</ele><time>2026-04-26T06:20:29.998Z</time></trkpt><trkpt lat="45.49606775256255" lon="11.493671815140674"><ele>41.0</ele><time>2026-04-26T06:20:31.998Z</time></trkpt><trkpt lat="45.49600567223284" lon="11.493589633433308"><ele>41.0</ele><time>2026-04-26T06:20:33.998Z</time></trkpt><trkpt lat="45.49593893436179" lon="11.493541884568222"><ele>42.166666666666664</ele><time>2026-04-26T06:20:35.998Z</time></trkpt><trkpt lat="45.495862414455644" lon="11.493472371257518"><ele>43.33333333333333</ele><time>2026-04-26T06:20:37.998Z</time></trkpt><trkpt lat="45.495797049989235" lon="11.493374362041417"><ele>44.5</ele><time>2026-04-26T06:20:39.998Z</time></trkpt><trkpt lat="45.49571646098197" lon="11.493319633658727"><ele>45.666666666666664</ele><time>2026-04-26T06:20:41.998Z</time></trkpt><trkpt lat="45.49565442655476" lon="11.493281412561936"><ele>46.833333333333336</ele><time>2026-04-26T06:20:44.998Z</time></trkpt><trkpt lat="45.495591559423694" lon="11.493218644993378"><ele>48.0</ele><time>2026-04-26T06:20:46.998Z</time></trkpt><trkpt lat="45.49550680375837" lon="11.493142587714228"><ele>48.0</ele><time>2026-04-26T06:20:47.998Z</time></trkpt><trkpt lat="45.49542936963536" lon="11.493071141035555"><ele>48.0</ele><time>2026-04-26T06:20:49.998Z</time></trkpt><trkpt lat="45.49535560435472" lon="11.493009795364538"><ele>48.0</ele><time>2026-04-26T06:20:51.998Z</time></trkpt><trkpt lat="45.495278169644244" lon="11.492948899067366"><ele>48.0</ele><time>2026-04-26T06:20:53.998Z</time></trkpt><trkpt lat="45.49520392020271" lon="11.492870089444612"><ele>48.0</ele><time>2026-04-26T06:20:55.998Z</time></trkpt><trkpt lat="45.49514256742854" lon="11.492797342308027"><ele>48.0</ele><time>2026-04-26T06:20:57.998Z</time></trkpt><trkpt lat="45.495077198757016" lon="11.492721326584952"><ele>47.5</ele><time>2026-04-26T06:20:59.998Z</time></trkpt><trkpt lat="45.495013660802044" lon="11.492633148311963"><ele>47.0</ele><time>2026-04-26T06:21:01.998Z</time></trkpt><trkpt lat="45.49495242409172" lon="11.492552842308012"><ele>46.5</ele><time>2026-04-26T06:21:03.998Z</time></trkpt><trkpt lat="45.494891327325945" lon="11.492474057905994"><ele>46.0</ele><time>2026-04-26T06:21:05.997Z</time></trkpt><trkpt lat="45.494826033384165" lon="11.492387249312339"><ele>45.5</ele><time>2026-04-26T06:21:07.997Z</time></trkpt><trkpt lat="45.49476391557583" lon="11.49234647440705"><ele>45.0</ele><time>2026-04-26T06:21:09.997Z</time></trkpt><trkpt lat="45.49469346918968" lon="11.492249957430536"><ele>45.0</ele><time>2026-04-26T06:21:11.997Z</time></trkpt><trkpt lat="45.49462514251549" lon="11.492230220802918"><ele>45.0</ele><time>2026-04-26T06:21:14.997Z</time></trkpt><trkpt lat="45.49454381763096" lon="11.492173332497089"><ele>45.0</ele><time>2026-04-26T06:21:18Z</time></trkpt><trkpt lat="45.494484704465115" lon="11.492132614425262"><ele>45.0</ele><time>2026-04-26T06:21:20Z</time></trkpt><trkpt lat="45.49440622391873" lon="11.492096427493289"><ele>45.0</ele><time>2026-04-26T06:21:22Z</time></trkpt><trkpt lat="45.49433740503087" lon="11.492055293472168"><ele>45.0</ele><time>2026-04-26T06:21:24Z</time></trkpt><trkpt lat="45.494273261949864" lon="11.492018057712006"><ele>46.5</ele><time>2026-04-26T06:21:26Z</time></trkpt><trkpt lat="45.49419625234556" lon="11.49197437401474"><ele>48.0</ele><time>2026-04-26T06:21:28Z</time></trkpt><trkpt lat="45.49413295478022" lon="11.491908064252442"><ele>49.5</ele><time>2026-04-26T06:21:30Z</time></trkpt><trkpt lat="45.49406266955696" lon="11.491862959528614"><ele>51.0</ele><time>2026-04-26T06:21:32Z</time></trkpt><trkpt lat="45.493972275735125" lon="11.491773551160971"><ele>52.5</ele><time>2026-04-26T06:21:34Z</time></trkpt><trkpt lat="45.493908402660985" lon="11.491693471188368"><ele>54.0</ele><time>2026-04-26T06:21:35Z</time></trkpt><trkpt lat="45.49382738098153" lon="11.491625430047627"><ele>54.0</ele><time>2026-04-26T06:21:38Z</time></trkpt><trkpt lat="45.49376419677047" lon="11.491555189592784"><ele>54.0</ele><time>2026-04-26T06:21:41Z</time></trkpt><trkpt lat="45.49369421887009" lon="11.491471755867995"><ele>54.0</ele><time>2026-04-26T06:21:44Z</time></trkpt><trkpt lat="45.49363763298185" lon="11.491399792746613"><ele>54.0</ele><time>2026-04-26T06:21:46Z</time></trkpt><trkpt lat="45.49358537354008" lon="11.491305573668459"><ele>54.0</ele><time>2026-04-26T06:21:49Z</time></trkpt><trkpt lat="45.49352840491783" lon="11.491227101744904"><ele>54.0</ele><time>2026-04-26T06:21:51.999Z</time></trkpt><trkpt lat="45.49348559268601" lon="11.49115543275234"><ele>52.666666666666664</ele><time>2026-04-26T06:21:54.999Z</time></trkpt><trkpt lat="45.493445616855496" lon="11.49105660775222"><ele>51.333333333333336</ele><time>2026-04-26T06:21:57.999Z</time></trkpt><trkpt lat="45.49339208697228" lon="11.490965063452439"><ele>50.0</ele><time>2026-04-26T06:22:00.999Z</time></trkpt><trkpt lat="45.49334944029309" lon="11.490893032678933"><ele>48.66666666666667</ele><time>2026-04-26T06:22:02.999Z</time></trkpt><trkpt lat="45.493301886503815" lon="11.490773773660173"><ele>47.333333333333336</ele><time>2026-04-26T06:22:05.999Z</time></trkpt><trkpt lat="45.49325982535741" lon="11.49066738609453"><ele>46.0</ele><time>2026-04-26T06:22:08.999Z</time></trkpt><trkpt lat="45.49321974217236" lon="11.49056184223108"><ele>46.0</ele><time>2026-04-26T06:22:11.999Z</time></trkpt><trkpt lat="45.49319733619679" lon="11.490457771886286"><ele>46.0</ele><time>2026-04-26T06:22:14.999Z</time></trkpt><trkpt lat="45.49319245927328" lon="11.490341553928314"><ele>46.0</ele><time>2026-04-26T06:22:17.999Z</time></trkpt><trkpt lat="45.493166590322296" lon="11.4902348735282"><ele>46.0</ele><time>2026-04-26T06:22:20.999Z</time></trkpt><trkpt lat="45.493146091192095" lon="11.490135977817937"><ele>46.0</ele><time>2026-04-26T06:22:23.999Z</time></trkpt><trkpt lat="45.4931354949787" lon="11.490036085691862"><ele>46.0</ele><time>2026-04-26T06:22:26.999Z</time></trkpt><trkpt lat="45.49310349349385" lon="11.489931274598346"><ele>46.42857142857143</ele><time>2026-04-26T06:22:29.999Z</time></trkpt><trkpt lat="45.49308772018372" lon="11.489824189325535"><ele>46.857142857142854</ele><time>2026-04-26T06:22:32.998Z</time></trkpt><trkpt lat="45.49305511649653" lon="11.48973796570486"><ele>47.285714285714285</ele><time>2026-04-26T06:22:35.998Z</time></trkpt><trkpt lat="45.49301961662984" lon="11.489650847262979"><ele>47.714285714285715</ele><time>2026-04-26T06:22:38.998Z</time></trkpt><trkpt lat="45.49298149306769" lon="11.489577123271223"><ele>48.14285714285714</ele><time>2026-04-26T06:22:41.998Z</time></trkpt><trkpt lat="45.492950257148955" lon="11.489496487306225"><ele>48.57142857142857</ele><time>2026-04-26T06:22:44.998Z</time></trkpt><trkpt lat="45.49293072577295" lon="11.489404483348942"><ele>49.0</ele><time>2026-04-26T06:22:47.998Z</time></trkpt><trkpt lat="45.492892544491156" lon="11.489304265675736"><ele>49.0</ele><time>2026-04-26T06:22:51.998Z</time></trkpt><trkpt lat="45.49285349532316" lon="11.489229682448192"><ele>49.0</ele><time>2026-04-26T06:22:54.998Z</time></trkpt><trkpt lat="45.49281005803714" lon="11.489139785217999"><ele>49.0</ele><time>2026-04-26T06:22:57.998Z</time></trkpt><trkpt lat="45.49276929836349" lon="11.48905931028711"><ele>49.0</ele><time>2026-04-26T06:23:00.998Z</time></trkpt><trkpt lat="45.49273872722322" lon="11.488967519743072"><ele>49.0</ele><time>2026-04-26T06:23:03.998Z</time></trkpt><trkpt lat="45.49270395377011" lon="11.488887271037463"><ele>49.0</ele><time>2026-04-26T06:23:06.998Z</time></trkpt><trkpt lat="45.492663541929296" lon="11.488798194911476"><ele>49.0</ele><time>2026-04-26T06:23:10.998Z</time></trkpt><trkpt lat="45.49262158507271" lon="11.488707834659172"><ele>53.666666666666664</ele><time>2026-04-26T06:23:14.997Z</time></trkpt><trkpt lat="45.49257899712316" lon="11.48862073263212"><ele>58.33333333333333</ele><time>2026-04-26T06:23:18.997Z</time></trkpt><trkpt lat="45.49252861216955" lon="11.488531616379266"><ele>63.0</ele><time>2026-04-26T06:23:23Z</time></trkpt><trkpt lat="45.49248293091022" lon="11.488451319300832"><ele>67.66666666666667</ele><time>2026-04-26T06:23:27Z</time></trkpt><trkpt lat="45.49243025896714" lon="11.488369006052519"><ele>72.33333333333334</ele><time>2026-04-26T06:23:31Z</time></trkpt><trkpt lat="45.49238056482726" lon="11.488294968898895"><ele>77.0</ele><time>2026-04-26T06:23:34Z</time></trkpt><trkpt lat="45.49232673340743" lon="11.488205102285017"><ele>77.0</ele><time>2026-04-26T06:23:37Z</time></trkpt><trkpt lat="45.4922712702956" lon="11.48811247437464"><ele>77.0</ele><time>2026-04-26T06:23:40Z</time></trkpt><trkpt lat="45.4922134498557" lon="11.488032953649979"><ele>77.0</ele><time>2026-04-26T06:23:43Z</time></trkpt><trkpt lat="45.4921659922871" lon="11.487956942986612"><ele>77.0</ele><time>2026-04-26T06:23:46Z</time></trkpt><trkpt lat="45.49210526837063" lon="11.487867055760471"><ele>77.0</ele><time>2026-04-26T06:23:50Z</time></trkpt><trkpt lat="45.49206251461315" lon="11.487795130412751"><ele>77.0</ele><time>2026-04-26T06:23:53Z</time></trkpt><trkpt lat="45.49201146670625" lon="11.487723788228607"><ele>77.71428571428571</ele><time>2026-04-26T06:23:55.999Z</time></trkpt><trkpt lat="45.49196451518513" lon="11.487653881042139"><ele>78.42857142857143</ele><time>2026-04-26T06:23:58.999Z</time></trkpt><trkpt lat="45.491899855636206" lon="11.4875851677704"><ele>79.14285714285714</ele><time>2026-04-26T06:24:01.999Z</time></trkpt><trkpt lat="45.49183952992703" lon="11.487505473812902"><ele>79.85714285714286</ele><time>2026-04-26T06:24:03.999Z</time></trkpt><trkpt lat="45.49178764946523" lon="11.48744627971408"><ele>80.57142857142857</ele><time>2026-04-26T06:24:06.999Z</time></trkpt><trkpt lat="45.49172904561709" lon="11.487373534772892"><ele>81.28571428571428</ele><time>2026-04-26T06:24:09.999Z</time></trkpt><trkpt lat="45.491658215224376" lon="11.487341356794621"><ele>82.0</ele><time>2026-04-26T06:24:12.999Z</time></trkpt><trkpt lat="45.491604494296176" lon="11.48728172616894"><ele>82.0</ele><time>2026-04-26T06:24:14.999Z</time></trkpt><trkpt lat="45.49152426606846" lon="11.487218889071965"><ele>82.0</ele><time>2026-04-26T06:24:16.999Z</time></trkpt><trkpt lat="45.49145180633695" lon="11.487141453962511"><ele>82.0</ele><time>2026-04-26T06:24:18.999Z</time></trkpt><trkpt lat="45.49138273731623" lon="11.487048834771798"><ele>82.0</ele><time>2026-04-26T06:24:20.999Z</time></trkpt><trkpt lat="45.491307218088274" lon="11.487004343760026"><ele>82.0</ele><time>2026-04-26T06:24:22.999Z</time></trkpt><trkpt lat="45.491235462734885" lon="11.486990122437183"><ele>82.0</ele><time>2026-04-26T06:24:24.999Z</time></trkpt><trkpt lat="45.49115276552201" lon="11.48693136537805"><ele>84.33333333333333</ele><time>2026-04-26T06:24:26.999Z</time></trkpt><trkpt lat="45.49108480556409" lon="11.486888076602716"><ele>86.66666666666666</ele><time>2026-04-26T06:24:28.999Z</time></trkpt><trkpt lat="45.4910155281901" lon="11.486850024275238"><ele>89.0</ele><time>2026-04-26T06:24:30.999Z</time></trkpt><trkpt lat="45.49095693200987" lon="11.486814657701698"><ele>91.33333333333333</ele><time>2026-04-26T06:24:32.999Z</time></trkpt><trkpt lat="45.490893970285384" lon="11.486779012969057"><ele>93.66666666666667</ele><time>2026-04-26T06:24:35.998Z</time></trkpt><trkpt lat="45.49081941160223" lon="11.486738716477017"><ele>96.0</ele><time>2026-04-26T06:24:38.998Z</time></trkpt><trkpt lat="45.490737755470285" lon="11.486669085209138"><ele>96.0</ele><time>2026-04-26T06:24:40.998Z</time></trkpt><trkpt lat="45.49066796445826" lon="11.486595004693598"><ele>96.0</ele><time>2026-04-26T06:24:44.998Z</time></trkpt><trkpt lat="45.49060586052763" lon="11.486526603970729"><ele>96.0</ele><time>2026-04-26T06:24:47.998Z</time></trkpt><trkpt lat="45.49052297061625" lon="11.486419532391599"><ele>96.0</ele><time>2026-04-26T06:24:49.998Z</time></trkpt><trkpt lat="45.49044863112632" lon="11.48639129526104"><ele>96.0</ele><time>2026-04-26T06:24:53.998Z</time></trkpt><trkpt lat="45.49038928895869" lon="11.486345204087584"><ele>96.0</ele><time>2026-04-26T06:24:55.998Z</time></trkpt><trkpt lat="45.490305352661906" lon="11.486283331227817"><ele>100.16666666666667</ele><time>2026-04-26T06:24:58.998Z</time></trkpt><trkpt lat="45.49023075080331" lon="11.486236685602533"><ele>104.33333333333334</ele><time>2026-04-26T06:25:01.998Z</time></trkpt><trkpt lat="45.49016097034089" lon="11.486184980293054"><ele>108.5</ele><time>2026-04-26T06:25:04.998Z</time></trkpt><trkpt lat="45.490067544232886" lon="11.48614064629595"><ele>112.66666666666667</ele><time>2026-04-26T06:25:06.998Z</time></trkpt><trkpt lat="45.489986245741164" lon="11.486089431833426"><ele>116.83333333333334</ele><time>2026-04-26T06:25:09.998Z</time></trkpt><trkpt lat="45.48990742668249" lon="11.486039991461302"><ele>121.0</ele><time>2026-04-26T06:25:12.998Z</time></trkpt><trkpt lat="45.489853333077185" lon="11.485985915972424"><ele>121.00000000000001</ele><time>2026-04-26T06:25:14.998Z</time></trkpt><trkpt lat="45.48974369953261" lon="11.485970990790872"><ele>121.0</ele><time>2026-04-26T06:25:17.997Z</time></trkpt><trkpt lat="45.489675804410155" lon="11.4859349125711"><ele>121.0</ele><time>2026-04-26T06:25:20.997Z</time></trkpt><trkpt lat="45.48961315752319" lon="11.485904813214981"><ele>121.0</ele><time>2026-04-26T06:25:22.997Z</time></trkpt><trkpt lat="45.48953100896744" lon="11.485840845245741"><ele>121.00000000000001</ele><time>2026-04-26T06:25:25.997Z</time></trkpt><trkpt lat="45.48947696022828" lon="11.485778391765285"><ele>121.0</ele><time>2026-04-26T06:25:27.997Z</time></trkpt><trkpt lat="45.48939789019921" lon="11.485736838235566"><ele>118.33333333333334</ele><time>2026-04-26T06:25:30Z</time></trkpt><trkpt lat="45.48932179442992" lon="11.485741706691217"><ele>115.66666666666667</ele><time>2026-04-26T06:25:32Z</time></trkpt><trkpt lat="45.48924470876854" lon="11.48572502262806"><ele>113.0</ele><time>2026-04-26T06:25:35Z</time></trkpt><trkpt lat="45.48916351594722" lon="11.485675160530223"><ele>110.33333333333334</ele><time>2026-04-26T06:25:38Z</time></trkpt><trkpt lat="45.489094384714" lon="11.485631540887459"><ele>107.66666666666667</ele><time>2026-04-26T06:25:41Z</time></trkpt><trkpt lat="45.48902611458553" lon="11.4855871799212"><ele>105.0</ele><time>2026-04-26T06:25:44Z</time></trkpt><trkpt lat="45.488955886884455" lon="11.485558399515615"><ele>105.0</ele><time>2026-04-26T06:25:47Z</time></trkpt><trkpt lat="45.48889194959675" lon="11.485525075170958"><ele>105.0</ele><time>2026-04-26T06:25:50Z</time></trkpt><trkpt lat="45.48883411528727" lon="11.485483811829297"><ele>105.0</ele><time>2026-04-26T06:25:53Z</time></trkpt><trkpt lat="45.48876616618521" lon="11.485454018272616"><ele>105.0</ele><time>2026-04-26T06:25:57Z</time></trkpt><trkpt lat="45.488705692911175" lon="11.485380779676476"><ele>105.0</ele><time>2026-04-26T06:26:01Z</time></trkpt><trkpt lat="45.4886377024062" lon="11.485321233116895"><ele>105.0</ele><time>2026-04-26T06:26:04.999Z</time></trkpt><trkpt lat="45.488571625722585" lon="11.485272115492004"><ele>105.0</ele><time>2026-04-26T06:26:08.999Z</time></trkpt><trkpt lat="45.48851646237146" lon="11.48522153991538"><ele>107.57142857142857</ele><time>2026-04-26T06:26:11.999Z</time></trkpt><trkpt lat="45.488460298370846" lon="11.485170240012662"><ele>110.14285714285714</ele><time>2026-04-26T06:26:14.999Z</time></trkpt><trkpt lat="45.48839452314903" lon="11.485106650008658"><ele>112.71428571428572</ele><time>2026-04-26T06:26:17.999Z</time></trkpt><trkpt lat="45.48833865760063" lon="11.48504261184352"><ele>115.28571428571429</ele><time>2026-04-26T06:26:20.999Z</time></trkpt><trkpt lat="45.48827977285178" lon="11.484974573440548"><ele>117.85714285714286</ele><time>2026-04-26T06:26:23.999Z</time></trkpt><trkpt lat="45.48821873009628" lon="11.484902771276156"><ele>120.42857142857144</ele><time>2026-04-26T06:26:26.999Z</time></trkpt><trkpt lat="45.48816333630574" lon="11.484828554479478"><ele>123.00000000000001</ele><time>2026-04-26T06:26:29.999Z</time></trkpt><trkpt lat="45.48810662814918" lon="11.484760707435791"><ele>123.0</ele><time>2026-04-26T06:26:32.999Z</time></trkpt><trkpt lat="45.48805325152112" lon="11.484681665714952"><ele>123.0</ele><time>2026-04-26T06:26:35.999Z</time></trkpt><trkpt lat="45.48799774412573" lon="11.484605858719137"><ele>123.0</ele><time>2026-04-26T06:26:38.999Z</time></trkpt><trkpt lat="45.487952235434875" lon="11.484518558271702"><ele>123.0</ele><time>2026-04-26T06:26:41.999Z</time></trkpt><trkpt lat="45.487906726820015" lon="11.484425239357307"><ele>123.0</ele><time>2026-04-26T06:26:44.999Z</time></trkpt><trkpt lat="45.48786988432694" lon="11.484327454748565"><ele>123.0</ele><time>2026-04-26T06:26:47.998Z</time></trkpt><trkpt lat="45.487825436954225" lon="11.484227351737456"><ele>122.33333333333333</ele><time>2026-04-26T06:26:50.998Z</time></trkpt><trkpt lat="45.487797958103734" lon="11.484116448350392"><ele>121.66666666666666</ele><time>2026-04-26T06:26:53.998Z</time></trkpt><trkpt lat="45.48776994769451" lon="11.48401370043088"><ele>121.0</ele><time>2026-04-26T06:26:56.998Z</time></trkpt><trkpt lat="45.487741213512194" lon="11.483895809488732"><ele>120.33333333333333</ele><time>2026-04-26T06:26:59.998Z</time></trkpt><trkpt lat="45.48773291140667" lon="11.483767460108853"><ele>119.66666666666666</ele><time>2026-04-26T06:27:02.998Z</time></trkpt><trkpt lat="45.48773973511592" lon="11.483635379144314"><ele>119.0</ele><time>2026-04-26T06:27:05.998Z</time></trkpt><trkpt lat="45.48773764484064" lon="11.483512159778636"><ele>121.33333333333333</ele><time>2026-04-26T06:27:08.998Z</time></trkpt><trkpt lat="45.48774071421567" lon="11.483393368799538"><ele>123.66666666666666</ele><time>2026-04-26T06:27:11.998Z</time></trkpt><trkpt lat="45.48776807563249" lon="11.483279309784159"><ele>126.0</ele><time>2026-04-26T06:27:14.998Z</time></trkpt><trkpt lat="45.4877921134671" lon="11.48317241017869"><ele>128.33333333333334</ele><time>2026-04-26T06:27:17.998Z</time></trkpt><trkpt lat="45.487796404517454" lon="11.48307549839514"><ele>130.66666666666669</ele><time>2026-04-26T06:27:20.998Z</time></trkpt><trkpt lat="45.487809537023864" lon="11.482968478068402"><ele>133.0</ele><time>2026-04-26T06:27:23.998Z</time></trkpt><trkpt lat="45.487826658346705" lon="11.482864827159618"><ele>135.66666666666669</ele><time>2026-04-26T06:27:25.998Z</time></trkpt><trkpt lat="45.48783431334698" lon="11.482770762796337"><ele>138.33333333333334</ele><time>2026-04-26T06:27:27.997Z</time></trkpt><trkpt lat="45.48784959639795" lon="11.482631351492046"><ele>141.0</ele><time>2026-04-26T06:27:30.997Z</time></trkpt><trkpt lat="45.48782350320511" lon="11.48254795400856"><ele>143.66666666666666</ele><time>2026-04-26T06:27:35Z</time></trkpt><trkpt lat="45.487766811803084" lon="11.482479945850779"><ele>146.33333333333331</ele><time>2026-04-26T06:27:38Z</time></trkpt><trkpt lat="45.48769637471432" lon="11.48247569406032"><ele>149.0</ele><time>2026-04-26T06:27:41Z</time></trkpt><trkpt lat="45.48761469242237" lon="11.482515793527856"><ele>149.0</ele><time>2026-04-26T06:27:46Z</time></trkpt><trkpt lat="45.48753065068366" lon="11.482487345834066"><ele>149.0</ele><time>2026-04-26T06:27:50Z</time></trkpt><trkpt lat="45.487459062302776" lon="11.482489890522803"><ele>149.0</ele><time>2026-04-26T06:27:53Z</time></trkpt><trkpt lat="45.48737564558679" lon="11.482505490285119"><ele>149.0</ele><time>2026-04-26T06:27:56Z</time></trkpt><trkpt lat="45.487322760149326" lon="11.482558038509346"><ele>149.0</ele><time>2026-04-26T06:27:58Z</time></trkpt><trkpt lat="45.487249427203686" lon="11.482577500749915"><ele>149.0</ele><time>2026-04-26T06:28:02Z</time></trkpt><trkpt lat="45.48716474545881" lon="11.482640586694764"><ele>149.0</ele><time>2026-04-26T06:28:06Z</time></trkpt><trkpt lat="45.487100160434885" lon="11.482649467061046"><ele>149.0</ele><time>2026-04-26T06:28:09Z</time></trkpt><trkpt lat="45.48702219937315" lon="11.482656452789556"><ele>149.0</ele><time>2026-04-26T06:28:11.999Z</time></trkpt><trkpt lat="45.48695393659296" lon="11.48263446554622"><ele>149.0</ele><time>2026-04-26T06:28:14.999Z</time></trkpt><trkpt lat="45.48685468545302" lon="11.482543206714995"><ele>149.0</ele><time>2026-04-26T06:28:17.999Z</time></trkpt><trkpt lat="45.48678918814987" lon="11.482428870772825"><ele>149.0</ele><time>2026-04-26T06:28:19.999Z</time></trkpt><trkpt lat="45.48672920009835" lon="11.482329374371625"><ele>148.0</ele><time>2026-04-26T06:28:21.999Z</time></trkpt><trkpt lat="45.48668632353701" lon="11.4822313626071"><ele>147.0</ele><time>2026-04-26T06:28:23.999Z</time></trkpt><trkpt lat="45.48663769864754" lon="11.482134994663205"><ele>146.0</ele><time>2026-04-26T06:28:25.999Z</time></trkpt><trkpt lat="45.48659602081201" lon="11.482044984134754"><ele>145.0</ele><time>2026-04-26T06:28:27.999Z</time></trkpt><trkpt lat="45.48655154882966" lon="11.48196570157292"><ele>144.0</ele><time>2026-04-26T06:28:29.999Z</time></trkpt><trkpt lat="45.486481403685914" lon="11.481884050468105"><ele>143.0</ele><time>2026-04-26T06:28:31.999Z</time></trkpt><trkpt lat="45.48641623390371" lon="11.481831735547104"><ele>143.42857142857142</ele><time>2026-04-26T06:28:33.999Z</time></trkpt><trkpt lat="45.486340822840475" lon="11.48179850817368"><ele>143.85714285714286</ele><time>2026-04-26T06:28:35.999Z</time></trkpt><trkpt lat="45.486278906221195" lon="11.481773667925829"><ele>144.28571428571428</ele><time>2026-04-26T06:28:37.999Z</time></trkpt><trkpt lat="45.486202812322155" lon="11.481750013223698"><ele>144.71428571428572</ele><time>2026-04-26T06:28:39.999Z</time></trkpt><trkpt lat="45.48613013161944" lon="11.48170871699788"><ele>145.14285714285714</ele><time>2026-04-26T06:28:41.999Z</time></trkpt><trkpt lat="45.48607294519444" lon="11.481651337246278"><ele>145.57142857142856</ele><time>2026-04-26T06:28:43.999Z</time></trkpt><trkpt lat="45.48601153860458" lon="11.4815995260237"><ele>146.0</ele><time>2026-04-26T06:28:45.999Z</time></trkpt><trkpt lat="45.485938059438794" lon="11.481550824734898"><ele>146.0</ele><time>2026-04-26T06:28:48.999Z</time></trkpt><trkpt lat="45.48585701015975" lon="11.481491663183203"><ele>146.0</ele><time>2026-04-26T06:28:51.998Z</time></trkpt><trkpt lat="45.485790239050786" lon="11.481465482572077"><ele>146.0</ele><time>2026-04-26T06:28:56.998Z</time></trkpt><trkpt lat="45.48571116523467" lon="11.48144604547857"><ele>146.0</ele><time>2026-04-26T06:28:59.998Z</time></trkpt><trkpt lat="45.485638981572606" lon="11.48140329464087"><ele>146.0</ele><time>2026-04-26T06:29:03.998Z</time></trkpt><trkpt lat="45.485567470552894" lon="11.481379503834159"><ele>146.0</ele><time>2026-04-26T06:29:05.998Z</time></trkpt><trkpt lat="45.48550244274795" lon="11.481365377202101"><ele>146.0</ele><time>2026-04-26T06:29:08.998Z</time></trkpt><trkpt lat="45.485453173440646" lon="11.481273666064986"><ele>146.0</ele><time>2026-04-26T06:29:11.998Z</time></trkpt><trkpt lat="45.485413368692136" lon="11.481190480000828"><ele>146.0</ele><time>2026-04-26T06:29:14.998Z</time></trkpt><trkpt lat="45.48533598212121" lon="11.481144995658658"><ele>146.0</ele><time>2026-04-26T06:29:19.998Z</time></trkpt><trkpt lat="45.48527366862169" lon="11.481178832245883"><ele>146.0</ele><time>2026-04-26T06:29:22.998Z</time></trkpt><trkpt lat="45.485207793654055" lon="11.481204724825261"><ele>146.0</ele><time>2026-04-26T06:29:25.998Z</time></trkpt><trkpt lat="45.485127837772495" lon="11.481202981845598"><ele>147.57142857142856</ele><time>2026-04-26T06:29:28.998Z</time></trkpt><trkpt lat="45.485062122645054" lon="11.481244099547904"><ele>149.14285714285714</ele><time>2026-04-26T06:29:31.997Z</time></trkpt><trkpt lat="45.48499164491648" lon="11.481285751649876"><ele>150.71428571428572</ele><time>2026-04-26T06:29:35.997Z</time></trkpt><trkpt lat="45.48492609211808" lon="11.481328930023233"><ele>152.28571428571428</ele><time>2026-04-26T06:29:38.997Z</time></trkpt><trkpt lat="45.48486262610957" lon="11.481340319937365"><ele>153.85714285714286</ele><time>2026-04-26T06:29:41Z</time></trkpt><trkpt lat="45.48478127048558" lon="11.481348038536284"><ele>155.42857142857142</ele><time>2026-04-26T06:29:44Z</time></trkpt><trkpt lat="45.484716662606175" lon="11.481378351129793"><ele>157.0</ele><time>2026-04-26T06:29:46Z</time></trkpt><trkpt lat="45.48463698989978" lon="11.481412796858882"><ele>158.5</ele><time>2026-04-26T06:29:49Z</time></trkpt><trkpt lat="45.48457262869811" lon="11.481453148775742"><ele>160.0</ele><time>2026-04-26T06:29:51Z</time></trkpt><trkpt lat="45.48450576711518" lon="11.481501296524613"><ele>161.5</ele><time>2026-04-26T06:29:54Z</time></trkpt><trkpt lat="45.48444842714557" lon="11.48153879961084"><ele>163.0</ele><time>2026-04-26T06:29:56Z</time></trkpt><trkpt lat="45.48438825785126" lon="11.48160839796407"><ele>164.5</ele><time>2026-04-26T06:29:58Z</time></trkpt><trkpt lat="45.484321936891455" lon="11.481667664179877"><ele>166.0</ele><time>2026-04-26T06:30:00Z</time></trkpt><trkpt lat="45.484248543359406" lon="11.481747152607443"><ele>166.0</ele><time>2026-04-26T06:30:03Z</time></trkpt><trkpt lat="45.48417964942056" lon="11.481828311562465"><ele>166.0</ele><time>2026-04-26T06:30:06Z</time></trkpt><trkpt lat="45.48411569602874" lon="11.481905562641758"><ele>166.0</ele><time>2026-04-26T06:30:09Z</time></trkpt><trkpt lat="45.48407156385746" lon="11.481991661368637"><ele>166.0</ele><time>2026-04-26T06:30:12Z</time></trkpt><trkpt lat="45.484031515367704" lon="11.482094569911496"><ele>166.0</ele><time>2026-04-26T06:30:14.999Z</time></trkpt><trkpt lat="45.48396778785953" lon="11.48223507297872"><ele>166.0</ele><time>2026-04-26T06:30:17.999Z</time></trkpt><trkpt lat="45.4839111280331" lon="11.482311290164748"><ele>164.5</ele><time>2026-04-26T06:30:19.999Z</time></trkpt><trkpt lat="45.48385293460407" lon="11.482408067179188"><ele>163.0</ele><time>2026-04-26T06:30:21.999Z</time></trkpt><trkpt lat="45.483805358199305" lon="11.482484216564337"><ele>161.5</ele><time>2026-04-26T06:30:23.999Z</time></trkpt><trkpt lat="45.48377034428404" lon="11.482576499478252"><ele>160.0</ele><time>2026-04-26T06:30:25.999Z</time></trkpt><trkpt lat="45.483719176510725" lon="11.482665325725904"><ele>158.5</ele><time>2026-04-26T06:30:27.999Z</time></trkpt><trkpt lat="45.48367878113382" lon="11.482742277299524"><ele>157.0</ele><time>2026-04-26T06:30:29.999Z</time></trkpt><trkpt lat="45.4836194834675" lon="11.48284791724955"><ele>161.39999999999998</ele><time>2026-04-26T06:30:32.999Z</time></trkpt><trkpt lat="45.48358278100109" lon="11.48295520190566"><ele>165.79999999999998</ele><time>2026-04-26T06:30:35.999Z</time></trkpt><trkpt lat="45.48354013373606" lon="11.48308157433071"><ele>170.2</ele><time>2026-04-26T06:30:38.999Z</time></trkpt><trkpt lat="45.48352503989321" lon="11.483179085103451"><ele>174.6</ele><time>2026-04-26T06:30:41.999Z</time></trkpt><trkpt lat="45.483479815966" lon="11.483336823290497"><ele>179.0</ele><time>2026-04-26T06:30:43.999Z</time></trkpt><trkpt lat="45.48344187282083" lon="11.483462556154944"><ele>179.0</ele><time>2026-04-26T06:30:45.999Z</time></trkpt><trkpt lat="45.48342538628315" lon="11.483567782534177"><ele>179.0</ele><time>2026-04-26T06:30:47.999Z</time></trkpt><trkpt lat="45.48341356575372" lon="11.483667760919198"><ele>179.0</ele><time>2026-04-26T06:30:49.999Z</time></trkpt><trkpt lat="45.48339802592789" lon="11.483766434034653"><ele>179.0</ele><time>2026-04-26T06:30:51.999Z</time></trkpt><trkpt lat="45.48339407625356" lon="11.483890536367152"><ele>179.0</ele><time>2026-04-26T06:30:54.999Z</time></trkpt><trkpt lat="45.483397340149885" lon="11.484022984289227"><ele>179.0</ele><time>2026-04-26T06:30:57.998Z</time></trkpt><trkpt lat="45.48338819605103" lon="11.484125796100747"><ele>179.14285714285717</ele><time>2026-04-26T06:31:00.998Z</time></trkpt><trkpt lat="45.483365789934254" lon="11.484235469663885"><ele>179.28571428571428</ele><time>2026-04-26T06:31:03.998Z</time></trkpt><trkpt lat="45.483375841502486" lon="11.48433017702066"><ele>179.42857142857144</ele><time>2026-04-26T06:31:07.998Z</time></trkpt><trkpt lat="45.48336369321332" lon="11.484438266142478"><ele>179.57142857142858</ele><time>2026-04-26T06:31:11.998Z</time></trkpt><trkpt lat="45.48331091997092" lon="11.484522734620722"><ele>179.71428571428572</ele><time>2026-04-26T06:31:15.998Z</time></trkpt><trkpt lat="45.48327658621014" lon="11.484614827260408"><ele>179.85714285714286</ele><time>2026-04-26T06:31:19.998Z</time></trkpt><trkpt lat="45.4832306137226" lon="11.484683164532246"><ele>180.0</ele><time>2026-04-26T06:31:23.998Z</time></trkpt><trkpt lat="45.483198401434365" lon="11.484770596850495"><ele>179.57142857142856</ele><time>2026-04-26T06:31:26.998Z</time></trkpt><trkpt lat="45.48315853883169" lon="11.484859829728352"><ele>179.14285714285717</ele><time>2026-04-26T06:31:29.998Z</time></trkpt><trkpt lat="45.48314267596259" lon="11.484963205993532"><ele>178.71428571428572</ele><time>2026-04-26T06:31:33.998Z</time></trkpt><trkpt lat="45.4830840444334" lon="11.485051323438139"><ele>178.28571428571428</ele><time>2026-04-26T06:31:37.997Z</time></trkpt><trkpt lat="45.48305898010371" lon="11.485137702776115"><ele>177.85714285714283</ele><time>2026-04-26T06:31:41.997Z</time></trkpt><trkpt lat="45.483018929518224" lon="11.485217630898639"><ele>177.42857142857144</ele><time>2026-04-26T06:31:43.997Z</time></trkpt><trkpt lat="45.482986969957935" lon="11.485301979503891"><ele>177.0</ele><time>2026-04-26T06:31:48Z</time></trkpt><trkpt lat="45.48293749234955" lon="11.485369658034001"><ele>182.16666666666666</ele><time>2026-04-26T06:31:54Z</time></trkpt><trkpt lat="45.48287743849119" lon="11.485400615109468"><ele>187.33333333333331</ele><time>2026-04-26T06:31:57Z</time></trkpt><trkpt lat="45.48278958548329" lon="11.485378967883946"><ele>192.5</ele><time>2026-04-26T06:32:01Z</time></trkpt><trkpt lat="45.48269434955867" lon="11.485376106790287"><ele>197.66666666666666</ele><time>2026-04-26T06:32:04Z</time></trkpt><trkpt lat="45.48262668814163" lon="11.48537264111129"><ele>202.83333333333331</ele><time>2026-04-26T06:32:06Z</time></trkpt><trkpt lat="45.48256740466902" lon="11.485320863914108"><ele>208.0</ele><time>2026-04-26T06:32:08Z</time></trkpt><trkpt lat="45.48248969723823" lon="11.485315542437856"><ele>208.0</ele><time>2026-04-26T06:32:11Z</time></trkpt><trkpt lat="45.48241983791565" lon="11.48529783030901"><ele>208.0</ele><time>2026-04-26T06:32:14Z</time></trkpt><trkpt lat="45.48234393197639" lon="11.485295633914964"><ele>208.0</ele><time>2026-04-26T06:32:18Z</time></trkpt><trkpt lat="45.48227472307713" lon="11.485278540291832"><ele>208.0</ele><time>2026-04-26T06:32:21.999Z</time></trkpt><trkpt lat="45.48219822291045" lon="11.485298130455433"><ele>208.0</ele><time>2026-04-26T06:32:24.999Z</time></trkpt><trkpt lat="45.482135925242936" lon="11.485271594251335"><ele>208.0</ele><time>2026-04-26T06:32:27.999Z</time></trkpt><trkpt lat="45.48205090055841" lon="11.48528084159518"><ele>208.0</ele><time>2026-04-26T06:32:31.999Z</time></trkpt><trkpt lat="45.481978451231555" lon="11.485285669386995"><ele>209.99999999999997</ele><time>2026-04-26T06:32:34.999Z</time></trkpt><trkpt lat="45.48190114918665" lon="11.485281806594891"><ele>212.0</ele><time>2026-04-26T06:32:38.999Z</time></trkpt><trkpt lat="45.481836195376594" lon="11.485288204856545"><ele>214.0</ele><time>2026-04-26T06:32:41.999Z</time></trkpt><trkpt lat="45.481760152795076" lon="11.485280430521016"><ele>216.0</ele><time>2026-04-26T06:32:44.999Z</time></trkpt><trkpt lat="45.481678158281305" lon="11.485245626605154"><ele>217.99999999999997</ele><time>2026-04-26T06:32:48.999Z</time></trkpt><trkpt lat="45.48159837512495" lon="11.485241588241909"><ele>220.0</ele><time>2026-04-26T06:32:52.999Z</time></trkpt><trkpt lat="45.48152933543247" lon="11.48523256519642"><ele>219.99999999999997</ele><time>2026-04-26T06:32:55.999Z</time></trkpt><trkpt lat="45.48146990190139" lon="11.4851844963496"><ele>220.0</ele><time>2026-04-26T06:32:58.999Z</time></trkpt><trkpt lat="45.481396050949286" lon="11.485150907897202"><ele>220.0</ele><time>2026-04-26T06:33:02.998Z</time></trkpt><trkpt lat="45.48132104550326" lon="11.485125254416738"><ele>220.0</ele><time>2026-04-26T06:33:06.998Z</time></trkpt><trkpt lat="45.48125329690338" lon="11.485117996563577"><ele>220.0</ele><time>2026-04-26T06:33:08.998Z</time></trkpt><trkpt lat="45.48116779214639" lon="11.485083965810128"><ele>219.99999999999997</ele><time>2026-04-26T06:33:10.998Z</time></trkpt><trkpt lat="45.48110838851112" lon="11.485049416946643"><ele>220.0</ele><time>2026-04-26T06:33:14.998Z</time></trkpt><trkpt lat="45.48105322292446" lon="11.484962011061175"><ele>221.83333333333331</ele><time>2026-04-26T06:33:18.998Z</time></trkpt><trkpt lat="45.48103062503822" lon="11.484860949497632"><ele>223.66666666666666</ele><time>2026-04-26T06:33:21.998Z</time></trkpt><trkpt lat="45.480952504002836" lon="11.484870164748743"><ele>225.5</ele><time>2026-04-26T06:33:25.998Z</time></trkpt><trkpt lat="45.480881635113114" lon="11.484808144055158"><ele>227.33333333333331</ele><time>2026-04-26T06:33:32.998Z</time></trkpt><trkpt lat="45.480810972578084" lon="11.484824904800337"><ele>229.16666666666666</ele><time>2026-04-26T06:33:36.998Z</time></trkpt><trkpt lat="45.48071998870636" lon="11.484816127328896"><ele>231.0</ele><time>2026-04-26T06:33:39.998Z</time></trkpt><trkpt lat="45.48065718579081" lon="11.484781998454197"><ele>231.0</ele><time>2026-04-26T06:33:42.997Z</time></trkpt><trkpt lat="45.480606113575035" lon="11.484680720450637"><ele>231.0</ele><time>2026-04-26T06:33:47.997Z</time></trkpt><trkpt lat="45.48055141482808" lon="11.484621928767583"><ele>231.0</ele><time>2026-04-26T06:33:50.997Z</time></trkpt><trkpt lat="45.480504230283465" lon="11.484548767260945"><ele>231.0</ele><time>2026-04-26T06:33:53Z</time></trkpt><trkpt lat="45.48043371866144" lon="11.484490023446659"><ele>231.0</ele><time>2026-04-26T06:33:58Z</time></trkpt><trkpt lat="45.48037173346949" lon="11.484400984055759"><ele>231.0</ele><time>2026-04-26T06:34:01Z</time></trkpt><trkpt lat="45.48030048537764" lon="11.484345749119116"><ele>231.0</ele><time>2026-04-26T06:34:05Z</time></trkpt><trkpt lat="45.48024262470523" lon="11.484302813788448"><ele>231.0</ele><time>2026-04-26T06:34:08Z</time></trkpt><trkpt lat="45.480200794911674" lon="11.48420798158851"><ele>231.0</ele><time>2026-04-26T06:34:12Z</time></trkpt><trkpt lat="45.48014418072978" lon="11.484125700666072"><ele>231.0</ele><time>2026-04-26T06:34:16Z</time></trkpt><trkpt lat="45.480064183513576" lon="11.484083064078643"><ele>231.0</ele><time>2026-04-26T06:34:20Z</time></trkpt><trkpt lat="45.47998821166578" lon="11.48404662601724"><ele>231.0</ele><time>2026-04-26T06:34:29.999Z</time></trkpt><trkpt lat="45.47991974014453" lon="11.48405316881995"><ele>231.0</ele><time>2026-04-26T06:34:32.999Z</time></trkpt><trkpt lat="45.479847272068106" lon="11.484075301031456"><ele>231.0</ele><time>2026-04-26T06:34:36.999Z</time></trkpt><trkpt lat="45.47977240103598" lon="11.484090698972013"><ele>231.0</ele><time>2026-04-26T06:34:40.999Z</time></trkpt><trkpt lat="45.479704412852016" lon="11.484097343248285"><ele>231.0</ele><time>2026-04-26T06:34:44.999Z</time></trkpt><trkpt lat="45.479638653664104" lon="11.484123780597061"><ele>231.0</ele><time>2026-04-26T06:34:48.999Z</time></trkpt><trkpt lat="45.479576477901915" lon="11.48413901756262"><ele>231.0</ele><time>2026-04-26T06:34:51.999Z</time></trkpt><trkpt lat="45.47952277416615" lon="11.484189083948737"><ele>231.0</ele><time>2026-04-26T06:34:54.999Z</time></trkpt><trkpt lat="45.47945360986825" lon="11.484261583018416"><ele>232.42857142857144</ele><time>2026-04-26T06:34:58.999Z</time></trkpt><trkpt lat="45.47940465135118" lon="11.484331396800291"><ele>233.85714285714286</ele><time>2026-04-26T06:35:01.999Z</time></trkpt><trkpt lat="45.4793809881239" lon="11.48442403995915"><ele>235.28571428571428</ele><time>2026-04-26T06:35:06.998Z</time></trkpt><trkpt lat="45.479333367841306" lon="11.484503226620133"><ele>236.71428571428572</ele><time>2026-04-26T06:35:09.998Z</time></trkpt><trkpt lat="45.47928297695016" lon="11.484562135388982"><ele>238.14285714285717</ele><time>2026-04-26T06:35:12.998Z</time></trkpt><trkpt lat="45.47923520128823" lon="11.48463232405384"><ele>239.57142857142858</ele><time>2026-04-26T06:35:16.998Z</time></trkpt><trkpt lat="45.47916012552643" lon="11.484687820702794"><ele>241.0</ele><time>2026-04-26T06:35:20.998Z</time></trkpt><trkpt lat="45.47908320056472" lon="11.484735352620902"><ele>241.14285714285717</ele><time>2026-04-26T06:35:24.998Z</time></trkpt><trkpt lat="45.4790289082574" lon="11.484795640408107"><ele>241.2857142857143</ele><time>2026-04-26T06:35:29.998Z</time></trkpt><trkpt lat="45.47897854674647" lon="11.484732676163082"><ele>241.42857142857144</ele><time>2026-04-26T06:38:16Z</time></trkpt><trkpt lat="45.47890088486408" lon="11.484681314829107"><ele>241.57142857142856</ele><time>2026-04-26T06:38:20Z</time></trkpt><trkpt lat="45.478836512125206" lon="11.484658908484972"><ele>241.7142857142857</ele><time>2026-04-26T06:38:24Z</time></trkpt><trkpt lat="45.47876987134934" lon="11.484664099536063"><ele>241.85714285714283</ele><time>2026-04-26T06:38:30Z</time></trkpt><trkpt lat="45.47870136778049" lon="11.484677162133138"><ele>242.0</ele><time>2026-04-26T06:39:53.998Z</time></trkpt><trkpt lat="45.4786085820483" lon="11.484688713573851"><ele>242.0</ele><time>2026-04-26T06:39:56.998Z</time></trkpt><trkpt lat="45.47854054425213" lon="11.484758924814539"><ele>242.0</ele><time>2026-04-26T06:39:58.997Z</time></trkpt><trkpt lat="45.47848634903031" lon="11.484838373460056"><ele>242.0</ele><time>2026-04-26T06:40:00.997Z</time></trkpt><trkpt lat="45.478413397362296" lon="11.48496782771981"><ele>242.0</ele><time>2026-04-26T06:40:02.997Z</time></trkpt><trkpt lat="45.47838014996525" lon="11.485073801952133"><ele>242.0</ele><time>2026-04-26T06:40:03.997Z</time></trkpt><trkpt lat="45.478338131560896" lon="11.485212336589429"><ele>242.00000000000003</ele><time>2026-04-26T06:40:05.997Z</time></trkpt><trkpt lat="45.47829632562332" lon="11.48534354555124"><ele>242.0</ele><time>2026-04-26T06:40:07.997Z</time></trkpt><trkpt lat="45.478283711167165" lon="11.485439892960917"><ele>242.0</ele><time>2026-04-26T06:40:11Z</time></trkpt><trkpt lat="45.47826822700197" lon="11.485554470887806"><ele>242.0</ele><time>2026-04-26T06:40:14Z</time></trkpt><trkpt lat="45.47823846631424" lon="11.485668292222194"><ele>242.00000000000003</ele><time>2026-04-26T06:40:17Z</time></trkpt><trkpt lat="45.47821809923737" lon="11.485766081407224"><ele>242.0</ele><time>2026-04-26T06:40:19Z</time></trkpt><trkpt lat="45.478201191416396" lon="11.485872519414364"><ele>243.00000000000003</ele><time>2026-04-26T06:40:21Z</time></trkpt><trkpt lat="45.478155448357846" lon="11.485966291850799"><ele>244.0</ele><time>2026-04-26T06:40:24Z</time></trkpt><trkpt lat="45.47816728219469" lon="11.486093435312144"><ele>245.0</ele><time>2026-04-26T06:40:27Z</time></trkpt><trkpt lat="45.478136083041676" lon="11.48621619698899"><ele>246.0</ele><time>2026-04-26T06:40:30Z</time></trkpt><trkpt lat="45.478148338024994" lon="11.486333313839737"><ele>247.00000000000003</ele><time>2026-04-26T06:40:33Z</time></trkpt><trkpt lat="45.47811423658251" lon="11.486430285060198"><ele>248.0</ele><time>2026-04-26T06:40:36Z</time></trkpt><trkpt lat="45.47808628711987" lon="11.486524379903532"><ele>248.66666666666669</ele><time>2026-04-26T06:40:39Z</time></trkpt><trkpt lat="45.478063918550966" lon="11.486628844085372"><ele>249.33333333333334</ele><time>2026-04-26T06:40:41.999Z</time></trkpt><trkpt lat="45.47805844384215" lon="11.486741693333855"><ele>250.0</ele><time>2026-04-26T06:40:44.999Z</time></trkpt><trkpt lat="45.47805709655676" lon="11.486865461855206"><ele>250.66666666666669</ele><time>2026-04-26T06:40:47.999Z</time></trkpt><trkpt lat="45.47803834810787" lon="11.486977659106506"><ele>251.33333333333334</ele><time>2026-04-26T06:40:50.999Z</time></trkpt><trkpt lat="45.47801879306809" lon="11.487095536880854"><ele>252.0</ele><time>2026-04-26T06:40:57.999Z</time></trkpt><trkpt lat="45.477990620878444" lon="11.487233025725326"><ele>252.16666666666666</ele><time>2026-04-26T06:40:59.999Z</time></trkpt><trkpt lat="45.47799786508164" lon="11.487343741487281"><ele>252.33333333333331</ele><time>2026-04-26T06:41:00.999Z</time></trkpt><trkpt lat="45.47797246921124" lon="11.487477181286451"><ele>252.5</ele><time>2026-04-26T06:41:02.999Z</time></trkpt><trkpt lat="45.477963872936726" lon="11.48764815577775"><ele>252.66666666666666</ele><time>2026-04-26T06:41:06.999Z</time></trkpt><trkpt lat="45.47795781064036" lon="11.487739845755023"><ele>252.83333333333331</ele><time>2026-04-26T06:41:07.999Z</time></trkpt><trkpt lat="45.47796221663389" lon="11.487860316758885"><ele>253.0</ele><time>2026-04-26T06:41:09.999Z</time></trkpt><trkpt lat="45.477974483016766" lon="11.487954241758299"><ele>251.99999999999997</ele><time>2026-04-26T06:41:11.999Z</time></trkpt><trkpt lat="45.477981311595435" lon="11.488084561076253"><ele>251.0</ele><time>2026-04-26T06:41:14.999Z</time></trkpt><trkpt lat="45.47799645174565" lon="11.48819610017869"><ele>250.0</ele><time>2026-04-26T06:41:16.999Z</time></trkpt><trkpt lat="45.478017646927505" lon="11.488302853815268"><ele>249.0</ele><time>2026-04-26T06:41:18.999Z</time></trkpt><trkpt lat="45.47802711945922" lon="11.488397751436318"><ele>247.99999999999997</ele><time>2026-04-26T06:41:20.999Z</time></trkpt><trkpt lat="45.47804141570094" lon="11.488506738956907"><ele>247.0</ele><time>2026-04-26T06:41:22.998Z</time></trkpt><trkpt lat="45.478061948172055" lon="11.48861456617293"><ele>246.99999999999997</ele><time>2026-04-26T06:41:24.998Z</time></trkpt><trkpt lat="45.47808853630145" lon="11.488733272503948"><ele>247.0</ele><time>2026-04-26T06:41:26.998Z</time></trkpt><trkpt lat="45.47810061400155" lon="11.48882543854859"><ele>247.0</ele><time>2026-04-26T06:41:28.998Z</time></trkpt><trkpt lat="45.47812547110726" lon="11.488969824702641"><ele>247.0</ele><time>2026-04-26T06:41:31.998Z</time></trkpt><trkpt lat="45.47814903646126" lon="11.48907818199597"><ele>246.99999999999997</ele><time>2026-04-26T06:41:33.998Z</time></trkpt><trkpt lat="45.478165964640795" lon="11.489175330091083"><ele>247.0</ele><time>2026-04-26T06:41:35.998Z</time></trkpt><trkpt lat="45.478184805890635" lon="11.489273329473754"><ele>246.66666666666666</ele><time>2026-04-26T06:41:37.998Z</time></trkpt><trkpt lat="45.47821007790263" lon="11.489366945656238"><ele>246.33333333333331</ele><time>2026-04-26T06:41:39.998Z</time></trkpt><trkpt lat="45.47822881195743" lon="11.489461838101255"><ele>246.0</ele><time>2026-04-26T06:41:41.998Z</time></trkpt><trkpt lat="45.478258538513316" lon="11.489560089775749"><ele>245.66666666666669</ele><time>2026-04-26T06:41:43.998Z</time></trkpt><trkpt lat="45.478289042237215" lon="11.489655254327605"><ele>245.33333333333334</ele><time>2026-04-26T06:41:45.998Z</time></trkpt><trkpt lat="45.4783130801807" lon="11.489765372531489"><ele>245.0</ele><time>2026-04-26T06:41:49.998Z</time></trkpt><trkpt lat="45.47832674260442" lon="11.489887506478226"><ele>245.8</ele><time>2026-04-26T06:41:52.998Z</time></trkpt><trkpt lat="45.478334934576864" lon="11.490006243979902"><ele>246.6</ele><time>2026-04-26T06:41:54.998Z</time></trkpt><trkpt lat="45.47833671520987" lon="11.490108139137545"><ele>247.39999999999998</ele><time>2026-04-26T06:41:55.998Z</time></trkpt><trkpt lat="45.47833432240317" lon="11.490262984972167"><ele>248.2</ele><time>2026-04-26T06:41:57.998Z</time></trkpt><trkpt lat="45.478331224053065" lon="11.490428291581624"><ele>249.0</ele><time>2026-04-26T06:41:59.998Z</time></trkpt><trkpt lat="45.47833693826529" lon="11.490588666242509"><ele>249.16666666666666</ele><time>2026-04-26T06:42:01.998Z</time></trkpt><trkpt lat="45.478335494739376" lon="11.490683199853997"><ele>249.33333333333331</ele><time>2026-04-26T06:42:02.998Z</time></trkpt><trkpt lat="45.478334638558024" lon="11.490778894050804"><ele>249.5</ele><time>2026-04-26T06:42:03.997Z</time></trkpt><trkpt lat="45.478337369653474" lon="11.49086939643073"><ele>249.66666666666666</ele><time>2026-04-26T06:42:04.997Z</time></trkpt><trkpt lat="45.47834161921509" lon="11.490977050577758"><ele>249.83333333333331</ele><time>2026-04-26T06:42:05.997Z</time></trkpt><trkpt lat="45.478325183002696" lon="11.491154817748852"><ele>250.0</ele><time>2026-04-26T06:42:07.997Z</time></trkpt><trkpt lat="45.47831201935803" lon="11.491247336824827"><ele>248.6</ele><time>2026-04-26T06:42:08.997Z</time></trkpt><trkpt lat="45.47828669942614" lon="11.49133986692014"><ele>247.2</ele><time>2026-04-26T06:42:09.997Z</time></trkpt><trkpt lat="45.478242788776086" lon="11.49149767656913"><ele>245.8</ele><time>2026-04-26T06:42:11.997Z</time></trkpt><trkpt lat="45.47819691768808" lon="11.491649878487856"><ele>244.4</ele><time>2026-04-26T06:42:13.997Z</time></trkpt><trkpt lat="45.47815195941273" lon="11.491806231639634"><ele>243.0</ele><time>2026-04-26T06:42:15.997Z</time></trkpt><trkpt lat="45.47811833909949" lon="11.491887169500801"><ele>243.0</ele><time>2026-04-26T06:42:17Z</time></trkpt><trkpt lat="45.47807503109008" lon="11.492045119067923"><ele>243.0</ele><time>2026-04-26T06:42:19Z</time></trkpt><trkpt lat="45.4780524614133" lon="11.492129488309512"><ele>243.0</ele><time>2026-04-26T06:42:20Z</time></trkpt><trkpt lat="45.47802649384615" lon="11.49221280116452"><ele>243.0</ele><time>2026-04-26T06:42:21Z</time></trkpt><trkpt lat="45.477977752447885" lon="11.49237779426759"><ele>243.0</ele><time>2026-04-26T06:42:23Z</time></trkpt><trkpt lat="45.47792909199333" lon="11.492550181930406"><ele>242.4</ele><time>2026-04-26T06:42:25Z</time></trkpt><trkpt lat="45.47784976749955" lon="11.492663254357922"><ele>241.8</ele><time>2026-04-26T06:42:27Z</time></trkpt><trkpt lat="45.477752877011" lon="11.49274554906122"><ele>241.2</ele><time>2026-04-26T06:42:29Z</time></trkpt><trkpt lat="45.47766359916801" lon="11.492810690273176"><ele>240.6</ele><time>2026-04-26T06:42:31Z</time></trkpt><trkpt lat="45.4775716573588" lon="11.492897534227124"><ele>240.0</ele><time>2026-04-26T06:42:33Z</time></trkpt><trkpt lat="45.47746416524401" lon="11.492970361964305"><ele>240.0</ele><time>2026-04-26T06:42:35Z</time></trkpt><trkpt lat="45.47736868306195" lon="11.493052627332935"><ele>240.0</ele><time>2026-04-26T06:42:37Z</time></trkpt><trkpt lat="45.477282985304385" lon="11.493117471464368"><ele>240.0</ele><time>2026-04-26T06:42:39Z</time></trkpt><trkpt lat="45.47719764618989" lon="11.493166432753736"><ele>240.0</ele><time>2026-04-26T06:42:41Z</time></trkpt><trkpt lat="45.477099273824024" lon="11.493204629354121"><ele>240.0</ele><time>2026-04-26T06:42:43Z</time></trkpt><trkpt lat="45.47700051351192" lon="11.49323842474552"><ele>241.8</ele><time>2026-04-26T06:42:45Z</time></trkpt><trkpt lat="45.47690752392027" lon="11.493264144021737"><ele>243.6</ele><time>2026-04-26T06:42:46.999Z</time></trkpt><trkpt lat="45.476818165146724" lon="11.493287971858766"><ele>245.39999999999998</ele><time>2026-04-26T06:42:48.999Z</time></trkpt><trkpt lat="45.476720756308275" lon="11.49333104707907"><ele>247.2</ele><time>2026-04-26T06:42:50.999Z</time></trkpt><trkpt lat="45.476620641265086" lon="11.493406839351136"><ele>249.0</ele><time>2026-04-26T06:42:52.999Z</time></trkpt><trkpt lat="45.476536697831115" lon="11.493462698835273"><ele>249.0</ele><time>2026-04-26T06:42:54.999Z</time></trkpt><trkpt lat="45.47645655496963" lon="11.493519009570738"><ele>248.99999999999997</ele><time>2026-04-26T06:42:56.999Z</time></trkpt><trkpt lat="45.47637524549301" lon="11.493541218062765"><ele>248.99999999999997</ele><time>2026-04-26T06:42:58.999Z</time></trkpt><trkpt lat="45.47629401685921" lon="11.493601044239071"><ele>249.0</ele><time>2026-04-26T06:43:00.999Z</time></trkpt><trkpt lat="45.47620727590721" lon="11.493680430505767"><ele>249.0</ele><time>2026-04-26T06:43:02.999Z</time></trkpt><trkpt lat="45.47612828175651" lon="11.493745826837944"><ele>249.33333333333334</ele><time>2026-04-26T06:43:04.999Z</time></trkpt><trkpt lat="45.476050276815265" lon="11.493824229766952"><ele>249.66666666666669</ele><time>2026-04-26T06:43:06.999Z</time></trkpt><trkpt lat="45.47597713854397" lon="11.493882382105292"><ele>250.0</ele><time>2026-04-26T06:43:08.999Z</time></trkpt><trkpt lat="45.47590740798602" lon="11.493963401859155"><ele>250.33333333333334</ele><time>2026-04-26T06:43:10.999Z</time></trkpt><trkpt lat="45.475850704995516" lon="11.494042155689211"><ele>250.66666666666669</ele><time>2026-04-26T06:43:12.999Z</time></trkpt><trkpt lat="45.475773784652226" lon="11.49412533694294"><ele>251.0</ele><time>2026-04-26T06:43:14.999Z</time></trkpt><trkpt lat="45.475694072678984" lon="11.494209126187219"><ele>251.0</ele><time>2026-04-26T06:43:16.999Z</time></trkpt><trkpt lat="45.475625049890496" lon="11.494277482749677"><ele>251.00000000000003</ele><time>2026-04-26T06:43:18.999Z</time></trkpt><trkpt lat="45.475548932643115" lon="11.494369763195092"><ele>251.00000000000003</ele><time>2026-04-26T06:43:20.999Z</time></trkpt><trkpt lat="45.47546585524859" lon="11.49444264546384"><ele>251.0</ele><time>2026-04-26T06:43:22.999Z</time></trkpt><trkpt lat="45.47540072181566" lon="11.494518967749533"><ele>251.0</ele><time>2026-04-26T06:43:24.999Z</time></trkpt><trkpt lat="45.47533001233414" lon="11.494598573500578"><ele>251.60000000000002</ele><time>2026-04-26T06:43:26.998Z</time></trkpt><trkpt lat="45.47529274677753" lon="11.494713816806591"><ele>252.20000000000002</ele><time>2026-04-26T06:43:28.998Z</time></trkpt><trkpt lat="45.475261023347045" lon="11.494823323337815"><ele>252.79999999999998</ele><time>2026-04-26T06:43:30.998Z</time></trkpt><trkpt lat="45.4752598652936" lon="11.494951105750308"><ele>253.39999999999998</ele><time>2026-04-26T06:43:32.998Z</time></trkpt><trkpt lat="45.475250590963306" lon="11.495089695649924"><ele>254.0</ele><time>2026-04-26T06:43:34.998Z</time></trkpt><trkpt lat="45.47524607895483" lon="11.495234966145757"><ele>254.00000000000003</ele><time>2026-04-26T06:43:36.998Z</time></trkpt><trkpt lat="45.47526845838701" lon="11.49538286246326"><ele>254.0</ele><time>2026-04-26T06:43:38.998Z</time></trkpt><trkpt lat="45.4752680330276" lon="11.495522793901339"><ele>254.0</ele><time>2026-04-26T06:43:40.998Z</time></trkpt><trkpt lat="45.47527279803843" lon="11.495638429459627"><ele>254.0</ele><time>2026-04-26T06:43:42.998Z</time></trkpt><trkpt lat="45.47527424440758" lon="11.495739473523194"><ele>254.00000000000003</ele><time>2026-04-26T06:43:44.998Z</time></trkpt><trkpt lat="45.47527431607823" lon="11.495833293951991"><ele>254.0</ele><time>2026-04-26T06:43:46.998Z</time></trkpt><trkpt lat="45.47528022783944" lon="11.495934412211492"><ele>253.16666666666669</ele><time>2026-04-26T06:43:48.998Z</time></trkpt><trkpt lat="45.475273814469304" lon="11.496036817074692"><ele>252.33333333333334</ele><time>2026-04-26T06:43:50.998Z</time></trkpt><trkpt lat="45.47529225099047" lon="11.49614237238601"><ele>251.5</ele><time>2026-04-26T06:43:52.998Z</time></trkpt><trkpt lat="45.47528647909935" lon="11.496253518513493"><ele>250.66666666666669</ele><time>2026-04-26T06:43:54.998Z</time></trkpt><trkpt lat="45.475286774097164" lon="11.496370637258073"><ele>249.83333333333334</ele><time>2026-04-26T06:43:56.998Z</time></trkpt><trkpt lat="45.47530886591777" lon="11.49647657213396"><ele>249.0</ele><time>2026-04-26T06:43:58.998Z</time></trkpt><trkpt lat="45.47531283511599" lon="11.496587117926966"><ele>249.0</ele><time>2026-04-26T06:44:00.998Z</time></trkpt><trkpt lat="45.47531459221329" lon="11.496708196057197"><ele>248.99999999999997</ele><time>2026-04-26T06:44:03.998Z</time></trkpt><trkpt lat="45.47532622553357" lon="11.496798893040786"><ele>249.0</ele><time>2026-04-26T06:44:05.998Z</time></trkpt><trkpt lat="45.47533348578387" lon="11.496908860307613"><ele>249.0</ele><time>2026-04-26T06:44:07.997Z</time></trkpt><trkpt lat="45.47534470714632" lon="11.497018284621134"><ele>248.99999999999997</ele><time>2026-04-26T06:44:09.997Z</time></trkpt><trkpt lat="45.47536275812841" lon="11.497107641956191"><ele>249.0</ele><time>2026-04-26T06:44:11.997Z</time></trkpt><trkpt lat="45.47538759492527" lon="11.497196904047453"><ele>249.0</ele><time>2026-04-26T06:44:13.997Z</time></trkpt><trkpt lat="45.47537738424425" lon="11.497301431711264"><ele>248.16666666666666</ele><time>2026-04-26T06:44:15.997Z</time></trkpt><trkpt lat="45.475355569496955" lon="11.497385878774036"><ele>247.33333333333331</ele><time>2026-04-26T06:44:17.997Z</time></trkpt><trkpt lat="45.47526105944413" lon="11.497362500352937"><ele>246.5</ele><time>2026-04-26T06:44:19.997Z</time></trkpt><trkpt lat="45.47518830457299" lon="11.49732793549118"><ele>245.66666666666666</ele><time>2026-04-26T06:44:23Z</time></trkpt><trkpt lat="45.475113602828465" lon="11.497291209967408"><ele>244.83333333333331</ele><time>2026-04-26T06:44:26Z</time></trkpt><trkpt lat="45.47504318426645" lon="11.497242676332421"><ele>244.0</ele><time>2026-04-26T06:44:29Z</time></trkpt><trkpt lat="45.47497272306891" lon="11.497210180304428"><ele>243.99999999999997</ele><time>2026-04-26T06:44:32Z</time></trkpt><trkpt lat="45.47489852040576" lon="11.497180933632254"><ele>244.0</ele><time>2026-04-26T06:44:36Z</time></trkpt><trkpt lat="45.474841397714165" lon="11.497140570706112"><ele>243.99999999999997</ele><time>2026-04-26T06:44:39Z</time></trkpt><trkpt lat="45.47478979403724" lon="11.497060221288345"><ele>243.99999999999997</ele><time>2026-04-26T06:44:42Z</time></trkpt><trkpt lat="45.47473824866905" lon="11.496984554100065"><ele>244.0</ele><time>2026-04-26T06:44:45Z</time></trkpt><trkpt lat="45.474683827765915" lon="11.496933323170971"><ele>243.99999999999997</ele><time>2026-04-26T06:44:48Z</time></trkpt><trkpt lat="45.474626764254396" lon="11.496851415848251"><ele>243.99999999999997</ele><time>2026-04-26T06:44:51Z</time></trkpt><trkpt lat="45.47456771073485" lon="11.49678162502208"><ele>245.99999999999997</ele><time>2026-04-26T06:44:54Z</time></trkpt><trkpt lat="45.474506198170566" lon="11.496710960048162"><ele>248.0</ele><time>2026-04-26T06:44:56.999Z</time></trkpt><trkpt lat="45.47444651803093" lon="11.496650176487728"><ele>250.0</ele><time>2026-04-26T06:44:59.999Z</time></trkpt><trkpt lat="45.47438169246095" lon="11.496581426714181"><ele>252.0</ele><time>2026-04-26T06:45:02.999Z</time></trkpt><trkpt lat="45.4743114216747" lon="11.496523853625842"><ele>253.99999999999997</ele><time>2026-04-26T06:45:05.999Z</time></trkpt><trkpt lat="45.47424755003499" lon="11.496453785344732"><ele>256.0</ele><time>2026-04-26T06:45:08.999Z</time></trkpt><trkpt lat="45.47417646512412" lon="11.496397518678336"><ele>255.99999999999997</ele><time>2026-04-26T06:45:11.999Z</time></trkpt><trkpt lat="45.47409564582213" lon="11.496363507819172"><ele>256.0</ele><time>2026-04-26T06:45:14.999Z</time></trkpt><trkpt lat="45.47401599013464" lon="11.496318400388073"><ele>256.0</ele><time>2026-04-26T06:45:17.999Z</time></trkpt><trkpt lat="45.47394711025455" lon="11.496231958411292"><ele>256.0</ele><time>2026-04-26T06:45:20.999Z</time></trkpt><trkpt lat="45.47391450574073" lon="11.496120095290351"><ele>255.99999999999997</ele><time>2026-04-26T06:45:22.999Z</time></trkpt><trkpt lat="45.47387889998854" lon="11.49604471465921"><ele>256.0</ele><time>2026-04-26T06:45:24.999Z</time></trkpt><trkpt lat="45.47384569199328" lon="11.495966585223174"><ele>255.99999999999997</ele><time>2026-04-26T06:45:26.999Z</time></trkpt><trkpt lat="45.47380354453541" lon="11.495860374880799"><ele>256.0</ele><time>2026-04-26T06:45:29.999Z</time></trkpt><trkpt lat="45.473788442776424" lon="11.495739441830512"><ele>256.0</ele><time>2026-04-26T06:45:32.999Z</time></trkpt><trkpt lat="45.473780175550544" lon="11.495629087002973"><ele>256.0</ele><time>2026-04-26T06:45:35.999Z</time></trkpt><trkpt lat="45.47377977292385" lon="11.495511624613204"><ele>255.99999999999997</ele><time>2026-04-26T06:45:38.998Z</time></trkpt><trkpt lat="45.4737753468405" lon="11.495415171128025"><ele>256.0</ele><time>2026-04-26T06:45:41.998Z</time></trkpt><trkpt lat="45.47375783856874" lon="11.49531614319614"><ele>257.0</ele><time>2026-04-26T06:45:44.998Z</time></trkpt><trkpt lat="45.473677692999466" lon="11.495248819030971"><ele>258.0</ele><time>2026-04-26T06:45:47.998Z</time></trkpt><trkpt lat="45.47362634781125" lon="11.495184426184009"><ele>259.0</ele><time>2026-04-26T06:45:50.998Z</time></trkpt><trkpt lat="45.47358070206596" lon="11.495103392730917"><ele>260.0</ele><time>2026-04-26T06:45:53.998Z</time></trkpt><trkpt lat="45.473525145931546" lon="11.495042683509835"><ele>261.0</ele><time>2026-04-26T06:45:56.998Z</time></trkpt><trkpt lat="45.47347455393796" lon="11.494964542178542"><ele>262.0</ele><time>2026-04-26T06:45:59.998Z</time></trkpt><trkpt lat="45.473447292377365" lon="11.494866774354886"><ele>262.0</ele><time>2026-04-26T06:46:02.998Z</time></trkpt><trkpt lat="45.47340677449623" lon="11.494758272632104"><ele>262.0</ele><time>2026-04-26T06:46:06.998Z</time></trkpt><trkpt lat="45.47339749956527" lon="11.494659999514147"><ele>262.0</ele><time>2026-04-26T06:46:09.998Z</time></trkpt><trkpt lat="45.47337436292232" lon="11.494571022622619"><ele>262.0</ele><time>2026-04-26T06:46:12.998Z</time></trkpt><trkpt lat="45.47336167624386" lon="11.494470503245543"><ele>262.0</ele><time>2026-04-26T06:46:15.998Z</time></trkpt><trkpt lat="45.47335285675797" lon="11.494371609354125"><ele>262.0</ele><time>2026-04-26T06:46:18.998Z</time></trkpt><trkpt lat="45.47331279461382" lon="11.49429785736761"><ele>262.0</ele><time>2026-04-26T06:46:21.997Z</time></trkpt><trkpt lat="45.47323774976921" lon="11.494219755824359"><ele>262.8571428571429</ele><time>2026-04-26T06:46:24.997Z</time></trkpt><trkpt lat="45.47317961511034" lon="11.494179634366002"><ele>263.7142857142857</ele><time>2026-04-26T06:46:26.997Z</time></trkpt><trkpt lat="45.47311759854198" lon="11.494151647500994"><ele>264.57142857142856</ele><time>2026-04-26T06:46:29Z</time></trkpt><trkpt lat="45.47305361168409" lon="11.494146847455175"><ele>265.42857142857144</ele><time>2026-04-26T06:46:31Z</time></trkpt><trkpt lat="45.472974257473226" lon="11.494127718605368"><ele>266.2857142857143</ele><time>2026-04-26T06:46:34Z</time></trkpt><trkpt lat="45.472904901945945" lon="11.494136738047352"><ele>267.14285714285717</ele><time>2026-04-26T06:46:36Z</time></trkpt><trkpt lat="45.47283351905842" lon="11.494156649491986"><ele>268.0</ele><time>2026-04-26T06:46:39Z</time></trkpt><trkpt lat="45.47275200797794" lon="11.494141374487047"><ele>268.14285714285717</ele><time>2026-04-26T06:46:42Z</time></trkpt><trkpt lat="45.47267535033127" lon="11.494162545430283"><ele>268.2857142857143</ele><time>2026-04-26T06:46:45Z</time></trkpt><trkpt lat="45.472604723811365" lon="11.494180766794345"><ele>268.42857142857144</ele><time>2026-04-26T06:46:48Z</time></trkpt><trkpt lat="45.47253435362825" lon="11.494197652520041"><ele>268.57142857142856</ele><time>2026-04-26T06:46:52Z</time></trkpt><trkpt lat="45.47246913070713" lon="11.494195645976978"><ele>268.7142857142857</ele><time>2026-04-26T06:46:55Z</time></trkpt><trkpt lat="45.472400936974736" lon="11.494205078426905"><ele>268.8571428571429</ele><time>2026-04-26T06:46:59Z</time></trkpt><trkpt lat="45.472315171641895" lon="11.494193823542165"><ele>269.0</ele><time>2026-04-26T06:47:01.999Z</time></trkpt><trkpt lat="45.472235903972965" lon="11.49420733772162"><ele>269.0</ele><time>2026-04-26T06:47:05.999Z</time></trkpt><trkpt lat="45.47216355017623" lon="11.49421803787882"><ele>269.0</ele><time>2026-04-26T06:47:09.999Z</time></trkpt><trkpt lat="45.47208610453253" lon="11.494258477998892"><ele>269.0</ele><time>2026-04-26T06:47:13.999Z</time></trkpt><trkpt lat="45.4720124517944" lon="11.494290853739951"><ele>269.0</ele><time>2026-04-26T06:47:16.999Z</time></trkpt><trkpt lat="45.47193325833696" lon="11.494301067893428"><ele>269.0</ele><time>2026-04-26T06:47:20.999Z</time></trkpt><trkpt lat="45.4718532963301" lon="11.49433582681858"><ele>269.0</ele><time>2026-04-26T06:47:23.999Z</time></trkpt><trkpt lat="45.47178174421329" lon="11.494374810316545"><ele>269.57142857142856</ele><time>2026-04-26T06:47:27.999Z</time></trkpt><trkpt lat="45.47169684493658" lon="11.49440351849383"><ele>270.14285714285717</ele><time>2026-04-26T06:47:30.999Z</time></trkpt><trkpt lat="45.47162973447909" lon="11.494431375952873"><ele>270.7142857142857</ele><time>2026-04-26T06:47:33.999Z</time></trkpt><trkpt lat="45.471564589349924" lon="11.4944724228735"><ele>271.2857142857143</ele><time>2026-04-26T06:47:36.999Z</time></trkpt><trkpt lat="45.47149319902712" lon="11.494507125315145"><ele>271.8571428571429</ele><time>2026-04-26T06:47:38.999Z</time></trkpt><trkpt lat="45.47142644083636" lon="11.494537217851455"><ele>272.42857142857144</ele><time>2026-04-26T06:47:41.998Z</time></trkpt><trkpt lat="45.47136237494993" lon="11.494585027644426"><ele>273.0</ele><time>2026-04-26T06:47:45.998Z</time></trkpt><trkpt lat="45.471300967485114" lon="11.494644768332378"><ele>274.5</ele><time>2026-04-26T06:47:49.998Z</time></trkpt><trkpt lat="45.47123740064214" lon="11.494638459931233"><ele>276.0</ele><time>2026-04-26T06:47:51.998Z</time></trkpt><trkpt lat="45.4711626544679" lon="11.494691139400521"><ele>277.5</ele><time>2026-04-26T06:47:55.998Z</time></trkpt><trkpt lat="45.471096835287874" lon="11.494696482080242"><ele>279.0</ele><time>2026-04-26T06:47:58.998Z</time></trkpt><trkpt lat="45.47104266341907" lon="11.494754332993468"><ele>280.5</ele><time>2026-04-26T06:48:00.998Z</time></trkpt><trkpt lat="45.47098535539946" lon="11.494800618226025"><ele>282.0</ele><time>2026-04-26T06:48:02.998Z</time></trkpt><trkpt lat="45.47089908679381" lon="11.494890394629538"><ele>282.0</ele><time>2026-04-26T06:48:05.998Z</time></trkpt><trkpt lat="45.470827703274715" lon="11.494971976500313"><ele>282.0</ele><time>2026-04-26T06:48:07.998Z</time></trkpt><trkpt lat="45.47076072039076" lon="11.495022448113474"><ele>282.0</ele><time>2026-04-26T06:48:09.998Z</time></trkpt><trkpt lat="45.47072707600297" lon="11.495110681281366"><ele>282.0</ele><time>2026-04-26T06:48:11.998Z</time></trkpt><trkpt lat="45.47070244729224" lon="11.49519845354778"><ele>282.0</ele><time>2026-04-26T06:48:13.998Z</time></trkpt><trkpt lat="45.470687418135356" lon="11.495297283932379"><ele>282.0</ele><time>2026-04-26T06:48:15.998Z</time></trkpt><trkpt lat="45.47067352131873" lon="11.495403422412757"><ele>281.0</ele><time>2026-04-26T06:48:17.998Z</time></trkpt><trkpt lat="45.470673802616865" lon="11.4955182338698"><ele>280.0</ele><time>2026-04-26T06:48:19.998Z</time></trkpt><trkpt lat="45.4706791778674" lon="11.49561484170201"><ele>279.0</ele><time>2026-04-26T06:48:21.998Z</time></trkpt><trkpt lat="45.470654823460464" lon="11.495740917847955"><ele>278.0</ele><time>2026-04-26T06:48:23.997Z</time></trkpt><trkpt lat="45.470621366976104" lon="11.495840924559497"><ele>277.0</ele><time>2026-04-26T06:48:25.997Z</time></trkpt><trkpt lat="45.47056691145698" lon="11.495930277344973"><ele>276.0</ele><time>2026-04-26T06:48:27.997Z</time></trkpt><trkpt lat="45.47050172882776" lon="11.495968206404044"><ele>276.0</ele><time>2026-04-26T06:48:29.997Z</time></trkpt><trkpt lat="45.47041629121885" lon="11.495929683169766"><ele>276.0</ele><time>2026-04-26T06:48:32.997Z</time></trkpt><trkpt lat="45.470352101011684" lon="11.495914195602879"><ele>276.0</ele><time>2026-04-26T06:48:35Z</time></trkpt><trkpt lat="45.470284881598005" lon="11.495880890309994"><ele>276.0</ele><time>2026-04-26T06:48:37Z</time></trkpt><trkpt lat="45.47021802277689" lon="11.495869334840565"><ele>276.0</ele><time>2026-04-26T06:48:39Z</time></trkpt><trkpt lat="45.47016099960328" lon="11.495787666670754"><ele>276.0</ele><time>2026-04-26T06:48:41Z</time></trkpt><trkpt lat="45.47012496749933" lon="11.495710115125886"><ele>276.0</ele><time>2026-04-26T06:48:43Z</time></trkpt><trkpt lat="45.47005247036206" lon="11.495671658373166"><ele>276.0</ele><time>2026-04-26T06:48:47Z</time></trkpt><trkpt lat="45.47000194938141" lon="11.495599887749764"><ele>276.0</ele><time>2026-04-26T06:48:51Z</time></trkpt><trkpt lat="45.46994137973469" lon="11.495549158526234"><ele>276.0</ele><time>2026-04-26T06:48:54Z</time></trkpt><trkpt lat="45.46987029468501" lon="11.495473752352678"><ele>276.0</ele><time>2026-04-26T06:48:58Z</time></trkpt><trkpt lat="45.46981288601357" lon="11.495379668805208"><ele>276.0</ele><time>2026-04-26T06:49:02Z</time></trkpt><trkpt lat="45.46976291818117" lon="11.495302764336534"><ele>276.0</ele><time>2026-04-26T06:49:06Z</time></trkpt><trkpt lat="45.46973893729849" lon="11.495212607944207"><ele>276.8333333333333</ele><time>2026-04-26T06:49:09Z</time></trkpt><trkpt lat="45.469710661865854" lon="11.495082689455606"><ele>277.6666666666667</ele><time>2026-04-26T06:49:12.999Z</time></trkpt><trkpt lat="45.469692912249734" lon="11.494968421006773"><ele>278.5</ele><time>2026-04-26T06:49:16.999Z</time></trkpt><trkpt lat="45.46964095806125" lon="11.494876818762403"><ele>279.33333333333337</ele><time>2026-04-26T06:49:20.999Z</time></trkpt><trkpt lat="45.46960736519503" lon="11.494784227528285"><ele>280.1666666666667</ele><time>2026-04-26T06:49:23.999Z</time></trkpt><trkpt lat="45.46956667009958" lon="11.49467691598385"><ele>281.0</ele><time>2026-04-26T06:49:27.999Z</time></trkpt><trkpt lat="45.46952633573472" lon="11.494575087137145"><ele>282.28571428571433</ele><time>2026-04-26T06:49:30.999Z</time></trkpt><trkpt lat="45.46951728466351" lon="11.494470553316678"><ele>283.57142857142856</ele><time>2026-04-26T06:49:33.999Z</time></trkpt><trkpt lat="45.469533338561185" lon="11.494382986501437"><ele>284.8571428571429</ele><time>2026-04-26T06:49:35.999Z</time></trkpt><trkpt lat="45.46957405749002" lon="11.49431374393495"><ele>286.14285714285717</ele><time>2026-04-26T06:49:37.999Z</time></trkpt><trkpt lat="45.469610542317156" lon="11.494214854595372"><ele>287.42857142857144</ele><time>2026-04-26T06:49:40.999Z</time></trkpt><trkpt lat="45.46961462735609" lon="11.494119632119109"><ele>288.7142857142857</ele><time>2026-04-26T06:49:43.999Z</time></trkpt><trkpt lat="45.46962909087866" lon="11.49402513834646"><ele>290.0</ele><time>2026-04-26T06:49:47.999Z</time></trkpt><trkpt lat="45.469635040085414" lon="11.493930688706595"><ele>290.0</ele><time>2026-04-26T06:49:50.999Z</time></trkpt><trkpt lat="45.469610617284324" lon="11.493845812964942"><ele>290.0</ele><time>2026-04-26T06:49:55.998Z</time></trkpt><trkpt lat="45.46957003282794" lon="11.4937590642129"><ele>290.0</ele><time>2026-04-26T06:49:59.998Z</time></trkpt><trkpt lat="45.46954019775955" lon="11.493678114576188"><ele>290.0</ele><time>2026-04-26T06:50:03.998Z</time></trkpt><trkpt lat="45.469497143817385" lon="11.493611054294924"><ele>290.0</ele><time>2026-04-26T06:50:08.998Z</time></trkpt><trkpt lat="45.469431166273054" lon="11.493571301069696"><ele>290.0</ele><time>2026-04-26T06:50:13.998Z</time></trkpt><trkpt lat="45.46937772194192" lon="11.493518366446652"><ele>290.0</ele><time>2026-04-26T06:50:17.998Z</time></trkpt><trkpt lat="45.469303412568756" lon="11.493490152086713"><ele>291.83333333333337</ele><time>2026-04-26T06:50:21.998Z</time></trkpt><trkpt lat="45.4692297395333" lon="11.493431936875016"><ele>293.6666666666667</ele><time>2026-04-26T06:50:27.998Z</time></trkpt><trkpt lat="45.46917112213335" lon="11.493361237809655"><ele>295.5</ele><time>2026-04-26T06:50:31.998Z</time></trkpt><trkpt lat="45.46910748054933" lon="11.493371226713212"><ele>297.3333333333333</ele><time>2026-04-26T06:50:35.997Z</time></trkpt><trkpt lat="45.469028784746506" lon="11.493370341699311"><ele>299.16666666666663</ele><time>2026-04-26T06:50:38.997Z</time></trkpt><trkpt lat="45.46896045494976" lon="11.493360683183766"><ele>301.0</ele><time>2026-04-26T06:50:42Z</time></trkpt><trkpt lat="45.46888161838486" lon="11.493369437093747"><ele>301.0</ele><time>2026-04-26T06:50:45Z</time></trkpt><trkpt lat="45.468816703329495" lon="11.493405529084136"><ele>301.0</ele><time>2026-04-26T06:50:48Z</time></trkpt><trkpt lat="45.468751571793064" lon="11.493418583674126"><ele>301.0</ele><time>2026-04-26T06:50:50Z</time></trkpt><trkpt lat="45.46867798634769" lon="11.493439346468236"><ele>301.0</ele><time>2026-04-26T06:50:52Z</time></trkpt><trkpt lat="45.46861054189757" lon="11.493450946377724"><ele>301.0</ele><time>2026-04-26T06:50:54Z</time></trkpt><trkpt lat="45.468545171526586" lon="11.493466469157692"><ele>301.0</ele><time>2026-04-26T06:50:56Z</time></trkpt><trkpt lat="45.46848193459669" lon="11.493500997579378"><ele>301.0</ele><time>2026-04-26T06:50:58Z</time></trkpt><trkpt lat="45.468425449836744" lon="11.493540921983351"><ele>300.57142857142856</ele><time>2026-04-26T06:51:00Z</time></trkpt><trkpt lat="45.468357285370686" lon="11.493544584981109"><ele>300.1428571428571</ele><time>2026-04-26T06:51:02Z</time></trkpt><trkpt lat="45.46830026799563" lon="11.493593897065677"><ele>299.7142857142857</ele><time>2026-04-26T06:51:04Z</time></trkpt><trkpt lat="45.46821679460425" lon="11.493632393928689"><ele>299.2857142857143</ele><time>2026-04-26T06:51:07Z</time></trkpt><trkpt lat="45.46819119396634" lon="11.49372336806768"><ele>298.85714285714283</ele><time>2026-04-26T06:51:10Z</time></trkpt><trkpt lat="45.46817156308603" lon="11.493812741259049"><ele>298.42857142857144</ele><time>2026-04-26T06:51:12Z</time></trkpt><trkpt lat="45.46812002670037" lon="11.493875502206352"><ele>298.0</ele><time>2026-04-26T06:51:14Z</time></trkpt><trkpt lat="45.46804774764564" lon="11.493930683322336"><ele>297.5</ele><time>2026-04-26T06:51:16.999Z</time></trkpt><trkpt lat="45.467971793128015" lon="11.493977095472822"><ele>297.0</ele><time>2026-04-26T06:51:19.999Z</time></trkpt><trkpt lat="45.4679083550586" lon="11.493993453684729"><ele>296.5</ele><time>2026-04-26T06:51:21.999Z</time></trkpt><trkpt lat="45.46783282876177" lon="11.494046259728037"><ele>296.0</ele><time>2026-04-26T06:51:24.999Z</time></trkpt><trkpt lat="45.46775627401375" lon="11.494057403569139"><ele>295.5</ele><time>2026-04-26T06:51:27.999Z</time></trkpt><trkpt lat="45.46769082431264" lon="11.49408536789163"><ele>295.0</ele><time>2026-04-26T06:51:31.999Z</time></trkpt><trkpt lat="45.467616599349476" lon="11.494104472590434"><ele>296.8333333333333</ele><time>2026-04-26T06:51:35.999Z</time></trkpt><trkpt lat="45.467540087098705" lon="11.49415321075498"><ele>298.66666666666663</ele><time>2026-04-26T06:51:39.999Z</time></trkpt><trkpt lat="45.46745716014908" lon="11.494198320376459"><ele>300.5</ele><time>2026-04-26T06:51:43.999Z</time></trkpt><trkpt lat="45.467390979036146" lon="11.494225495337155"><ele>302.3333333333333</ele><time>2026-04-26T06:51:46.999Z</time></trkpt><trkpt lat="45.46732465747018" lon="11.49426716644279"><ele>304.1666666666667</ele><time>2026-04-26T06:51:49.999Z</time></trkpt><trkpt lat="45.46725855267563" lon="11.494275261338068"><ele>306.0</ele><time>2026-04-26T06:51:52.999Z</time></trkpt><trkpt lat="45.46719124697738" lon="11.494311817675497"><ele>306.0</ele><time>2026-04-26T06:51:56.998Z</time></trkpt><trkpt lat="45.46713760149125" lon="11.494363098966083"><ele>306.0</ele><time>2026-04-26T06:51:59.998Z</time></trkpt><trkpt lat="45.46705659932054" lon="11.494382475101396"><ele>306.0</ele><time>2026-04-26T06:52:02.998Z</time></trkpt><trkpt lat="45.46699163916692" lon="11.494373961981937"><ele>306.0</ele><time>2026-04-26T06:52:05.998Z</time></trkpt><trkpt lat="45.466906270762145" lon="11.494378988478315"><ele>306.0</ele><time>2026-04-26T06:52:08.998Z</time></trkpt><trkpt lat="45.46683572383553" lon="11.49441537550642"><ele>306.0</ele><time>2026-04-26T06:52:11.998Z</time></trkpt><trkpt lat="45.46676820726191" lon="11.494433566726796"><ele>306.0</ele><time>2026-04-26T06:52:14.998Z</time></trkpt><trkpt lat="45.46670157823643" lon="11.494496481900509"><ele>306.5</ele><time>2026-04-26T06:52:17.998Z</time></trkpt><trkpt lat="45.46661290859913" lon="11.494550646416728"><ele>307.0</ele><time>2026-04-26T06:52:20.998Z</time></trkpt><trkpt lat="45.46652851656538" lon="11.494587677278643"><ele>307.5</ele><time>2026-04-26T06:52:24.998Z</time></trkpt><trkpt lat="45.4664492124922" lon="11.494617815600188"><ele>308.0</ele><time>2026-04-26T06:52:27.998Z</time></trkpt><trkpt lat="45.466386995177935" lon="11.494647568280605"><ele>308.5</ele><time>2026-04-26T06:52:30.998Z</time></trkpt><trkpt lat="45.46631664302894" lon="11.494640743893124"><ele>309.0</ele><time>2026-04-26T06:52:33.998Z</time></trkpt><trkpt lat="45.46622254440297" lon="11.494662604071559"><ele>309.0</ele><time>2026-04-26T06:52:36.997Z</time></trkpt><trkpt lat="45.4661497245711" lon="11.494683155332252"><ele>309.0</ele><time>2026-04-26T06:52:39.997Z</time></trkpt><trkpt lat="45.466078717544086" lon="11.49470733018856"><ele>309.0</ele><time>2026-04-26T06:52:41.997Z</time></trkpt><trkpt lat="45.46598251381715" lon="11.494706616921802"><ele>309.0</ele><time>2026-04-26T06:52:44.997Z</time></trkpt><trkpt lat="45.4659068898857" lon="11.494715657803145"><ele>309.0</ele><time>2026-04-26T06:52:48Z</time></trkpt><trkpt lat="45.46583433921721" lon="11.494734470459743"><ele>309.0</ele><time>2026-04-26T06:52:51Z</time></trkpt><trkpt lat="45.46576534548134" lon="11.494757092949486"><ele>309.0</ele><time>2026-04-26T06:52:54Z</time></trkpt><trkpt lat="45.46568784972941" lon="11.494769569762692"><ele>309.0</ele><time>2026-04-26T06:52:57Z</time></trkpt><trkpt lat="45.46561606774051" lon="11.494748366353258"><ele>309.0</ele><time>2026-04-26T06:52:59Z</time></trkpt><trkpt lat="45.4655179758012" lon="11.494747593921943"><ele>309.0</ele><time>2026-04-26T06:53:02Z</time></trkpt><trkpt lat="45.465426210381146" lon="11.494735291747553"><ele>309.0</ele><time>2026-04-26T06:53:07Z</time></trkpt><trkpt lat="45.465355991506456" lon="11.494713198408906"><ele>309.0</ele><time>2026-04-26T06:53:11Z</time></trkpt><trkpt lat="45.46529207456102" lon="11.49465835233348"><ele>311.5714285714286</ele><time>2026-04-26T06:53:15Z</time></trkpt><trkpt lat="45.46525272163114" lon="11.494584256005034"><ele>314.14285714285717</ele><time>2026-04-26T06:53:18Z</time></trkpt><trkpt lat="45.46522675554725" lon="11.494482281480837"><ele>316.7142857142857</ele><time>2026-04-26T06:53:21.999Z</time></trkpt><trkpt lat="45.46518261116715" lon="11.494409857111734"><ele>319.28571428571433</ele><time>2026-04-26T06:53:24.999Z</time></trkpt><trkpt lat="45.4651251781489" lon="11.494327163723858"><ele>321.8571428571429</ele><time>2026-04-26T06:53:28.999Z</time></trkpt><trkpt lat="45.46507394053468" lon="11.49426025284237"><ele>324.42857142857144</ele><time>2026-04-26T06:53:31.999Z</time></trkpt><trkpt lat="45.465009539373256" lon="11.494219115461288"><ele>327.0</ele><time>2026-04-26T06:53:34.999Z</time></trkpt><trkpt lat="45.46494952914329" lon="11.494143547773325"><ele>327.0</ele><time>2026-04-26T06:53:37.999Z</time></trkpt><trkpt lat="45.464883927301756" lon="11.494080958295237"><ele>327.0</ele><time>2026-04-26T06:53:39.999Z</time></trkpt><trkpt lat="45.4648198935874" lon="11.494014294886131"><ele>327.0</ele><time>2026-04-26T06:53:42.999Z</time></trkpt><trkpt lat="45.46474691258344" lon="11.49396632965893"><ele>327.0</ele><time>2026-04-26T06:53:45.999Z</time></trkpt><trkpt lat="45.46467363021718" lon="11.49393157136909"><ele>327.0</ele><time>2026-04-26T06:53:48.999Z</time></trkpt><trkpt lat="45.464599417161374" lon="11.493925944549192"><ele>327.0</ele><time>2026-04-26T06:53:50.999Z</time></trkpt><trkpt lat="45.464520908999916" lon="11.493849775648922"><ele>326.8333333333333</ele><time>2026-04-26T06:53:52.999Z</time></trkpt><trkpt lat="45.464447335753235" lon="11.49382721222448"><ele>326.6666666666667</ele><time>2026-04-26T06:53:53.999Z</time></trkpt><trkpt lat="45.464370584428906" lon="11.493755930348236"><ele>326.5</ele><time>2026-04-26T06:53:54.999Z</time></trkpt><trkpt lat="45.464287915086594" lon="11.493758962939385"><ele>326.33333333333337</ele><time>2026-04-26T06:53:56.999Z</time></trkpt><trkpt lat="45.4642160515045" lon="11.493756292635462"><ele>326.1666666666667</ele><time>2026-04-26T06:54:24.998Z</time></trkpt><trkpt lat="45.464141035784074" lon="11.493702043138718"><ele>326.0</ele><time>2026-04-26T06:54:27.998Z</time></trkpt><trkpt lat="45.46407287770663" lon="11.493643279734167"><ele>327.0</ele><time>2026-04-26T06:54:29.998Z</time></trkpt><trkpt lat="45.46402032558502" lon="11.493586737681198"><ele>328.0</ele><time>2026-04-26T06:54:31.998Z</time></trkpt><trkpt lat="45.46394762383415" lon="11.493559202271795"><ele>329.0</ele><time>2026-04-26T06:54:34.998Z</time></trkpt><trkpt lat="45.463880614273904" lon="11.493471171634349"><ele>330.0</ele><time>2026-04-26T06:54:37.998Z</time></trkpt><trkpt lat="45.46381249371326" lon="11.493391791112716"><ele>331.0</ele><time>2026-04-26T06:54:40.997Z</time></trkpt><trkpt lat="45.46377903021794" lon="11.493314704195626"><ele>332.0</ele><time>2026-04-26T06:54:42.997Z</time></trkpt><trkpt lat="45.46374377531579" lon="11.493191834341177"><ele>332.1428571428571</ele><time>2026-04-26T06:54:45.997Z</time></trkpt><trkpt lat="45.46369882654583" lon="11.49311845431206"><ele>332.28571428571433</ele><time>2026-04-26T06:54:48.997Z</time></trkpt><trkpt lat="45.463630833743245" lon="11.49315198320755"><ele>332.42857142857144</ele><time>2026-04-26T06:54:53Z</time></trkpt><trkpt lat="45.46355999182686" lon="11.493203299069995"><ele>332.57142857142856</ele><time>2026-04-26T06:54:56Z</time></trkpt><trkpt lat="45.463512184194954" lon="11.493266301764994"><ele>332.71428571428567</ele><time>2026-04-26T06:54:58Z</time></trkpt><trkpt lat="45.463457555569775" lon="11.493314522004228"><ele>332.8571428571429</ele><time>2026-04-26T06:55:00Z</time></trkpt><trkpt lat="45.46337706294727" lon="11.493370675729109"><ele>333.0</ele><time>2026-04-26T06:55:06Z</time></trkpt><trkpt lat="45.46332817935146" lon="11.493434157842778"><ele>333.0</ele><time>2026-04-26T06:55:10Z</time></trkpt><trkpt lat="45.463244258389096" lon="11.493465419989072"><ele>333.0</ele><time>2026-04-26T06:55:14Z</time></trkpt><trkpt lat="45.463170087641295" lon="11.493495678152383"><ele>333.0</ele><time>2026-04-26T06:55:18Z</time></trkpt><trkpt lat="45.46310611232756" lon="11.49351882767327"><ele>333.0</ele><time>2026-04-26T06:55:21Z</time></trkpt><trkpt lat="45.46304399491314" lon="11.493536792575632"><ele>333.0</ele><time>2026-04-26T06:55:24.999Z</time></trkpt><trkpt lat="45.46297562699374" lon="11.493574073752008"><ele>333.0</ele><time>2026-04-26T06:55:27.999Z</time></trkpt><trkpt lat="45.46289684220093" lon="11.493536419595562"><ele>333.3333333333333</ele><time>2026-04-26T06:55:33.999Z</time></trkpt><trkpt lat="45.46281338112849" lon="11.493549580592738"><ele>333.6666666666667</ele><time>2026-04-26T06:55:36.999Z</time></trkpt><trkpt lat="45.46274930964792" lon="11.493559188055043"><ele>334.0</ele><time>2026-04-26T06:55:39.999Z</time></trkpt><trkpt lat="45.46267039211818" lon="11.493551263425605"><ele>334.33333333333337</ele><time>2026-04-26T06:55:43.999Z</time></trkpt><trkpt lat="45.462592417563634" lon="11.493511537364977"><ele>334.6666666666667</ele><time>2026-04-26T06:55:46.999Z</time></trkpt><trkpt lat="45.46253112384135" lon="11.49342756022453"><ele>335.0</ele><time>2026-04-26T06:55:51.999Z</time></trkpt><trkpt lat="45.46244802308031" lon="11.493413420908634"><ele>335.0</ele><time>2026-04-26T06:55:55.999Z</time></trkpt><trkpt lat="45.462371751787046" lon="11.493397312521882"><ele>335.0</ele><time>2026-04-26T06:55:58.999Z</time></trkpt><trkpt lat="45.462298548708056" lon="11.493356022108511"><ele>335.0</ele><time>2026-04-26T06:56:02.998Z</time></trkpt><trkpt lat="45.46220881790063" lon="11.493377450330472"><ele>335.0</ele><time>2026-04-26T06:56:06.998Z</time></trkpt><trkpt lat="45.46214058121333" lon="11.4933780311895"><ele>335.0</ele><time>2026-04-26T06:56:09.998Z</time></trkpt><trkpt lat="45.46202272153034" lon="11.493388408796367"><ele>335.0</ele><time>2026-04-26T06:56:11.998Z</time></trkpt><trkpt lat="45.461915431219495" lon="11.493410441649566"><ele>335.5</ele><time>2026-04-26T06:56:13.998Z</time></trkpt><trkpt lat="45.46182245639932" lon="11.493406928837306"><ele>336.0</ele><time>2026-04-26T06:56:15.998Z</time></trkpt><trkpt lat="45.46173689445125" lon="11.493401613676198"><ele>336.5</ele><time>2026-04-26T06:56:17.998Z</time></trkpt><trkpt lat="45.46164479718026" lon="11.493413191994932"><ele>337.0</ele><time>2026-04-26T06:56:19.998Z</time></trkpt><trkpt lat="45.461562306840655" lon="11.493406717368705"><ele>337.5</ele><time>2026-04-26T06:56:21.998Z</time></trkpt><trkpt lat="45.46147896771746" lon="11.493405932635385"><ele>338.0</ele><time>2026-04-26T06:56:23.998Z</time></trkpt><trkpt lat="45.461406616066526" lon="11.493388754573838"><ele>338.0</ele><time>2026-04-26T06:56:25.998Z</time></trkpt><trkpt lat="45.46131973160523" lon="11.49339494345186"><ele>338.0</ele><time>2026-04-26T06:56:27.998Z</time></trkpt><trkpt lat="45.4612374101892" lon="11.493383969153639"><ele>338.0</ele><time>2026-04-26T06:56:29.998Z</time></trkpt><trkpt lat="45.46116644447037" lon="11.493374390396564"><ele>338.0</ele><time>2026-04-26T06:56:31.998Z</time></trkpt><trkpt lat="45.461080727136384" lon="11.493341217458742"><ele>338.0</ele><time>2026-04-26T06:56:33.998Z</time></trkpt><trkpt lat="45.46098927616339" lon="11.493332435808792"><ele>338.0</ele><time>2026-04-26T06:56:35.998Z</time></trkpt><trkpt lat="45.460922609075226" lon="11.493333980924346"><ele>337.57142857142856</ele><time>2026-04-26T06:56:36.998Z</time></trkpt><trkpt lat="45.46085645232138" lon="11.493326205332755"><ele>337.1428571428571</ele><time>2026-04-26T06:56:37.998Z</time></trkpt><trkpt lat="45.46079327462001" lon="11.493362766272158"><ele>336.71428571428567</ele><time>2026-04-26T06:56:38.998Z</time></trkpt><trkpt lat="45.46072764195788" lon="11.493351793578748"><ele>336.2857142857143</ele><time>2026-04-26T06:56:39.998Z</time></trkpt><trkpt lat="45.460657657097464" lon="11.493365201714033"><ele>335.85714285714283</ele><time>2026-04-26T06:56:40.998Z</time></trkpt><trkpt lat="45.46059344305949" lon="11.493362692584029"><ele>335.4285714285714</ele><time>2026-04-26T06:56:41.998Z</time></trkpt><trkpt lat="45.46048753300497" lon="11.493370045887714"><ele>335.0</ele><time>2026-04-26T06:56:43.998Z</time></trkpt><trkpt lat="45.46041932453315" lon="11.493393746991847"><ele>334.0</ele><time>2026-04-26T06:56:44.998Z</time></trkpt><trkpt lat="45.46035003189414" lon="11.493402880945766"><ele>333.0</ele><time>2026-04-26T06:56:45.997Z</time></trkpt><trkpt lat="45.46022421559859" lon="11.49341123864426"><ele>332.0</ele><time>2026-04-26T06:56:47.997Z</time></trkpt><trkpt lat="45.46016004939155" lon="11.493418856990486"><ele>331.0</ele><time>2026-04-26T06:56:48.997Z</time></trkpt><trkpt lat="45.46009114671428" lon="11.493428738433073"><ele>330.0</ele><time>2026-04-26T06:56:49.997Z</time></trkpt><trkpt lat="45.46001730013032" lon="11.493457701344639"><ele>329.0</ele><time>2026-04-26T06:56:50.997Z</time></trkpt><trkpt lat="45.45994382782587" lon="11.493493653732887"><ele>329.0</ele><time>2026-04-26T06:56:51.997Z</time></trkpt><trkpt lat="45.45987371471963" lon="11.493520047367841"><ele>329.0</ele><time>2026-04-26T06:56:52.997Z</time></trkpt><trkpt lat="45.459810675529425" lon="11.493530926583125"><ele>329.0</ele><time>2026-04-26T06:56:53.997Z</time></trkpt><trkpt lat="45.45971820220368" lon="11.49355453277777"><ele>329.0</ele><time>2026-04-26T06:56:55.997Z</time></trkpt><trkpt lat="45.45963255174037" lon="11.493606055124145"><ele>329.0</ele><time>2026-04-26T06:56:59Z</time></trkpt><trkpt lat="45.459570246185955" lon="11.49362548335275"><ele>329.0</ele><time>2026-04-26T06:57:01Z</time></trkpt><trkpt lat="45.459495864427886" lon="11.493673814205373"><ele>328.6666666666667</ele><time>2026-04-26T06:57:03Z</time></trkpt><trkpt lat="45.45940851360581" lon="11.49371834685834"><ele>328.33333333333337</ele><time>2026-04-26T06:57:06Z</time></trkpt><trkpt lat="45.45932254289454" lon="11.493751434972019"><ele>328.0</ele><time>2026-04-26T06:57:08Z</time></trkpt><trkpt lat="45.45925813792172" lon="11.493776296652854"><ele>327.6666666666667</ele><time>2026-04-26T06:57:10Z</time></trkpt><trkpt lat="45.45919855653743" lon="11.49382305101047"><ele>327.3333333333333</ele><time>2026-04-26T06:57:12Z</time></trkpt><trkpt lat="45.45912421239345" lon="11.49382768017158"><ele>327.0</ele><time>2026-04-26T06:57:14Z</time></trkpt><trkpt lat="45.45903993101243" lon="11.493839854088353"><ele>328.0</ele><time>2026-04-26T06:57:17Z</time></trkpt><trkpt lat="45.4589539284118" lon="11.493851883912908"><ele>329.0</ele><time>2026-04-26T06:57:20Z</time></trkpt><trkpt lat="45.45887821569359" lon="11.493850093028735"><ele>330.0</ele><time>2026-04-26T06:57:23Z</time></trkpt><trkpt lat="45.45878034149129" lon="11.493841714489406"><ele>331.0</ele><time>2026-04-26T06:57:26Z</time></trkpt><trkpt lat="45.45869013884895" lon="11.493830917855432"><ele>332.0</ele><time>2026-04-26T06:57:28.999Z</time></trkpt><trkpt lat="45.458595470167765" lon="11.493860294245325"><ele>333.0</ele><time>2026-04-26T06:57:33.999Z</time></trkpt><trkpt lat="45.4584975524532" lon="11.493899733917802"><ele>334.3333333333333</ele><time>2026-04-26T06:57:37.999Z</time></trkpt><trkpt lat="45.458423345206285" lon="11.493944903809558"><ele>335.6666666666667</ele><time>2026-04-26T06:57:40.999Z</time></trkpt><trkpt lat="45.4583598760973" lon="11.493956159130857"><ele>337.0</ele><time>2026-04-26T06:57:42.999Z</time></trkpt><trkpt lat="45.458251042376816" lon="11.49401471577108"><ele>338.33333333333337</ele><time>2026-04-26T06:57:44.999Z</time></trkpt><trkpt lat="45.45818895357618" lon="11.494044450723292"><ele>339.6666666666667</ele><time>2026-04-26T06:57:45.999Z</time></trkpt><trkpt lat="45.458124112865335" lon="11.494079550600606"><ele>341.0</ele><time>2026-04-26T06:57:47.999Z</time></trkpt><trkpt lat="45.458035686383255" lon="11.494107458599919"><ele>340.8</ele><time>2026-04-26T06:57:49.999Z</time></trkpt><trkpt lat="45.45793238953861" lon="11.494112030223679"><ele>340.6</ele><time>2026-04-26T06:57:51.999Z</time></trkpt><trkpt lat="45.457834839071985" lon="11.494089826677689"><ele>340.4</ele><time>2026-04-26T06:57:53.999Z</time></trkpt><trkpt lat="45.457749732349335" lon="11.494063619919503"><ele>340.2</ele><time>2026-04-26T06:57:55.999Z</time></trkpt><trkpt lat="45.45765765538937" lon="11.494076108169914"><ele>340.0</ele><time>2026-04-26T06:57:57.999Z</time></trkpt><trkpt lat="45.45756684021407" lon="11.494045577129256"><ele>340.0</ele><time>2026-04-26T06:57:59.999Z</time></trkpt><trkpt lat="45.45749969594653" lon="11.494026373921438"><ele>340.0</ele><time>2026-04-26T06:58:01.999Z</time></trkpt><trkpt lat="45.45741810076555" lon="11.494009547632242"><ele>340.0</ele><time>2026-04-26T06:58:03.999Z</time></trkpt><trkpt lat="45.45734785942829" lon="11.494020897698807"><ele>340.0</ele><time>2026-04-26T06:58:05.999Z</time></trkpt><trkpt lat="45.457273998636126" lon="11.494028559898537"><ele>340.0</ele><time>2026-04-26T06:58:07.998Z</time></trkpt><trkpt lat="45.457208526990186" lon="11.494047775748767"><ele>340.0</ele><time>2026-04-26T06:58:09.998Z</time></trkpt><trkpt lat="45.45714228256089" lon="11.49406602514932"><ele>340.0</ele><time>2026-04-26T06:58:11.998Z</time></trkpt><trkpt lat="45.457078368396026" lon="11.49407986008248"><ele>340.66666666666663</ele><time>2026-04-26T06:58:13.998Z</time></trkpt><trkpt lat="45.456976452718706" lon="11.494082561891226"><ele>341.3333333333333</ele><time>2026-04-26T06:58:16.998Z</time></trkpt><trkpt lat="45.45690931290064" lon="11.494098319855288"><ele>342.0</ele><time>2026-04-26T06:58:18.998Z</time></trkpt><trkpt lat="45.45684513891445" lon="11.494110754240257"><ele>342.6666666666667</ele><time>2026-04-26T06:58:20.998Z</time></trkpt><trkpt lat="45.45675585317789" lon="11.49411712174418"><ele>343.33333333333337</ele><time>2026-04-26T06:58:23.998Z</time></trkpt><trkpt lat="45.45668686253921" lon="11.494163623194828"><ele>344.0</ele><time>2026-04-26T06:58:26.998Z</time></trkpt><trkpt lat="45.45661303167351" lon="11.494160223467578"><ele>344.00000000000006</ele><time>2026-04-26T06:58:28.998Z</time></trkpt><trkpt lat="45.456545181618004" lon="11.494157836245142"><ele>344.0</ele><time>2026-04-26T06:58:31.998Z</time></trkpt><trkpt lat="45.45647331412444" lon="11.494194089702322"><ele>344.0</ele><time>2026-04-26T06:58:35.998Z</time></trkpt><trkpt lat="45.45640634589412" lon="11.494237351560564"><ele>344.0</ele><time>2026-04-26T06:58:39.998Z</time></trkpt><trkpt lat="45.45633938482884" lon="11.494245479458504"><ele>344.0</ele><time>2026-04-26T06:58:42.998Z</time></trkpt><trkpt lat="45.45626782868559" lon="11.494260945011135"><ele>344.00000000000006</ele><time>2026-04-26T06:58:45.998Z</time></trkpt><trkpt lat="45.456198585417624" lon="11.494233123485335"><ele>344.0</ele><time>2026-04-26T06:58:48.997Z</time></trkpt><trkpt lat="45.456121598573155" lon="11.494254445211016"><ele>344.8571428571429</ele><time>2026-04-26T06:58:51.997Z</time></trkpt><trkpt lat="45.45605614880217" lon="11.494238997664798"><ele>345.7142857142857</ele><time>2026-04-26T06:58:54.997Z</time></trkpt><trkpt lat="45.45598900181148" lon="11.494231021398646"><ele>346.57142857142856</ele><time>2026-04-26T06:58:57.997Z</time></trkpt><trkpt lat="45.45591448567125" lon="11.494243292017893"><ele>347.42857142857144</ele><time>2026-04-26T06:59:00.997Z</time></trkpt><trkpt lat="45.45584833358466" lon="11.494255110914185"><ele>348.2857142857143</ele><time>2026-04-26T06:59:03.997Z</time></trkpt><trkpt lat="45.455776856922505" lon="11.494264426773116"><ele>349.14285714285717</ele><time>2026-04-26T06:59:07Z</time></trkpt><trkpt lat="45.45571052737796" lon="11.494286817276851"><ele>350.0</ele><time>2026-04-26T06:59:10Z</time></trkpt><trkpt lat="45.45565493932265" lon="11.4943391753125"><ele>350.0</ele><time>2026-04-26T06:59:13Z</time></trkpt><trkpt lat="45.4555915568428" lon="11.494376148768294"><ele>350.0</ele><time>2026-04-26T06:59:16Z</time></trkpt><trkpt lat="45.455517037147395" lon="11.494421319117562"><ele>350.0</ele><time>2026-04-26T06:59:20Z</time></trkpt><trkpt lat="45.45544540340816" lon="11.49443865855274"><ele>350.0</ele><time>2026-04-26T06:59:23Z</time></trkpt><trkpt lat="45.455372323408916" lon="11.494461947980911"><ele>350.0</ele><time>2026-04-26T06:59:26Z</time></trkpt><trkpt lat="45.45529118124275" lon="11.494465085123547"><ele>350.0</ele><time>2026-04-26T06:59:29Z</time></trkpt><trkpt lat="45.455212352397815" lon="11.494464068457997"><ele>352.0</ele><time>2026-04-26T06:59:32Z</time></trkpt><trkpt lat="45.455139142642295" lon="11.494465253373425"><ele>354.0</ele><time>2026-04-26T06:59:34.999Z</time></trkpt><trkpt lat="45.45507518134947" lon="11.494453234802583"><ele>356.0</ele><time>2026-04-26T06:59:37.999Z</time></trkpt><trkpt lat="45.455008916916654" lon="11.494453583969875"><ele>358.0</ele><time>2026-04-26T06:59:40.999Z</time></trkpt><trkpt lat="45.45493266539218" lon="11.49446088987094"><ele>360.0</ele><time>2026-04-26T06:59:43.999Z</time></trkpt><trkpt lat="45.454862470318616" lon="11.494423505844878"><ele>362.0</ele><time>2026-04-26T06:59:46.999Z</time></trkpt><trkpt lat="45.45479770293056" lon="11.494363544663063"><ele>364.0</ele><time>2026-04-26T06:59:49.999Z</time></trkpt><trkpt lat="45.454733855697704" lon="11.494309476758371"><ele>364.0</ele><time>2026-04-26T06:59:52.999Z</time></trkpt><trkpt lat="45.45466630166" lon="11.494284303659532"><ele>364.0</ele><time>2026-04-26T06:59:55.999Z</time></trkpt><trkpt lat="45.454598588199616" lon="11.494252295022779"><ele>364.0</ele><time>2026-04-26T06:59:58.999Z</time></trkpt><trkpt lat="45.45452937528869" lon="11.494239702274681"><ele>364.0</ele><time>2026-04-26T07:00:01.999Z</time></trkpt><trkpt lat="45.45445831988852" lon="11.494229327926647"><ele>364.0</ele><time>2026-04-26T07:00:04.999Z</time></trkpt><trkpt lat="45.45438317920665" lon="11.494217809209916"><ele>364.0</ele><time>2026-04-26T07:00:07.999Z</time></trkpt><trkpt lat="45.45432009631896" lon="11.494200833646676"><ele>364.0</ele><time>2026-04-26T07:00:10.999Z</time></trkpt><trkpt lat="45.454269911915695" lon="11.494255116618742"><ele>365.0</ele><time>2026-04-26T07:00:14.999Z</time></trkpt><trkpt lat="45.45425484899668" lon="11.494352987844533"><ele>366.0</ele><time>2026-04-26T07:00:18.998Z</time></trkpt><trkpt lat="45.45423511198936" lon="11.494453417763266"><ele>367.0</ele><time>2026-04-26T07:00:22.998Z</time></trkpt><trkpt lat="45.45418841892055" lon="11.494541329348426"><ele>368.0</ele><time>2026-04-26T07:00:26.998Z</time></trkpt><trkpt lat="45.45414182781898" lon="11.494616047579"><ele>369.0</ele><time>2026-04-26T07:00:29.998Z</time></trkpt><trkpt lat="45.45406953400919" lon="11.494656699672454"><ele>370.0</ele><time>2026-04-26T07:00:32.998Z</time></trkpt><trkpt lat="45.453996182507524" lon="11.494724280435271"><ele>369.0</ele><time>2026-04-26T07:00:35.998Z</time></trkpt><trkpt lat="45.45392157595811" lon="11.494804359752957"><ele>368.0</ele><time>2026-04-26T07:00:39.998Z</time></trkpt><trkpt lat="45.45386110155431" lon="11.494858023154793"><ele>367.0</ele><time>2026-04-26T07:00:42.998Z</time></trkpt><trkpt lat="45.453788650234834" lon="11.49493189381241"><ele>366.0</ele><time>2026-04-26T07:00:45.998Z</time></trkpt><trkpt lat="45.453704054169584" lon="11.494973213787398"><ele>365.0</ele><time>2026-04-26T07:00:48.998Z</time></trkpt><trkpt lat="45.45356376447721" lon="11.495035705256676"><ele>365.0</ele><time>2026-04-26T07:00:50.998Z</time></trkpt><trkpt lat="45.45345915018651" lon="11.495054201869356"><ele>365.0</ele><time>2026-04-26T07:00:51.998Z</time></trkpt><trkpt lat="45.453367361975964" lon="11.49506937794891"><ele>365.0</ele><time>2026-04-26T07:00:52.998Z</time></trkpt><trkpt lat="45.4532868089061" lon="11.495080420012684"><ele>365.0</ele><time>2026-04-26T07:00:53.998Z</time></trkpt><trkpt lat="45.453215920853935" lon="11.495095826338739"><ele>365.0</ele><time>2026-04-26T07:00:54.998Z</time></trkpt><trkpt lat="45.45314208675678" lon="11.49503989160766"><ele>365.0</ele><time>2026-04-26T07:00:55.998Z</time></trkpt><trkpt lat="45.453067986788874" lon="11.49503346064587"><ele>365.0</ele><time>2026-04-26T07:00:56.997Z</time></trkpt><trkpt lat="45.45300504276885" lon="11.495036577107223"><ele>365.0</ele><time>2026-04-26T07:00:57.997Z</time></trkpt><trkpt lat="45.45290704010412" lon="11.495146335054146"><ele>365.0</ele><time>2026-04-26T07:00:59.997Z</time></trkpt><trkpt lat="45.45287163176077" lon="11.495265407601515"><ele>365.0</ele><time>2026-04-26T07:01:00.997Z</time></trkpt><trkpt lat="45.452847225180996" lon="11.49536668843831"><ele>365.0</ele><time>2026-04-26T07:01:01.997Z</time></trkpt><trkpt lat="45.45281817839914" lon="11.495480761555"><ele>365.0</ele><time>2026-04-26T07:01:02.997Z</time></trkpt><trkpt lat="45.45276460083967" lon="11.495576793872406"><ele>363.2</ele><time>2026-04-26T07:01:03.997Z</time></trkpt><trkpt lat="45.4527139720404" lon="11.495691141609274"><ele>361.4</ele><time>2026-04-26T07:01:04.997Z</time></trkpt><trkpt lat="45.45263105830073" lon="11.495792055232961"><ele>359.6</ele><time>2026-04-26T07:01:05.997Z</time></trkpt><trkpt lat="45.45255226397873" lon="11.495882133661208"><ele>357.8</ele><time>2026-04-26T07:01:06.997Z</time></trkpt><trkpt lat="45.45246061356091" lon="11.495942226233012"><ele>356.0</ele><time>2026-04-26T07:01:07.997Z</time></trkpt><trkpt lat="45.45237726142368" lon="11.496029538015256"><ele>356.0</ele><time>2026-04-26T07:01:08.997Z</time></trkpt><trkpt lat="45.45229721406666" lon="11.49609459393827"><ele>356.0</ele><time>2026-04-26T07:01:09.997Z</time></trkpt><trkpt lat="45.45222090454918" lon="11.496148910883678"><ele>356.0</ele><time>2026-04-26T07:01:11Z</time></trkpt><trkpt lat="45.452162724171906" lon="11.49620440982363"><ele>356.0</ele><time>2026-04-26T07:01:12Z</time></trkpt><trkpt lat="45.45208040087923" lon="11.496265685972755"><ele>356.0</ele><time>2026-04-26T07:01:14Z</time></trkpt><trkpt lat="45.45200220250651" lon="11.496280567292759"><ele>356.0</ele><time>2026-04-26T07:01:17Z</time></trkpt><trkpt lat="45.4519286978023" lon="11.49625905384145"><ele>356.5</ele><time>2026-04-26T07:01:19Z</time></trkpt><trkpt lat="45.45183658889639" lon="11.496287682935526"><ele>357.0</ele><time>2026-04-26T07:01:21Z</time></trkpt><trkpt lat="45.45176484586753" lon="11.496356845238841"><ele>357.5</ele><time>2026-04-26T07:01:23Z</time></trkpt><trkpt lat="45.451704763884194" lon="11.49642490267286"><ele>358.0</ele><time>2026-04-26T07:01:25Z</time></trkpt><trkpt lat="45.451654571410806" lon="11.496511903596772"><ele>358.5</ele><time>2026-04-26T07:01:27Z</time></trkpt><trkpt lat="45.451616530090185" lon="11.496605321978901"><ele>359.0</ele><time>2026-04-26T07:01:29Z</time></trkpt><trkpt lat="45.45158707310165" lon="11.496717915253438"><ele>359.0</ele><time>2026-04-26T07:01:31Z</time></trkpt><trkpt lat="45.4515513405053" lon="11.496825791123989"><ele>359.0</ele><time>2026-04-26T07:01:33Z</time></trkpt><trkpt lat="45.451517133156784" lon="11.496950114061754"><ele>359.0</ele><time>2026-04-26T07:01:35Z</time></trkpt><trkpt lat="45.45146219451469" lon="11.497046182885606"><ele>359.0</ele><time>2026-04-26T07:01:37Z</time></trkpt><trkpt lat="45.45138775893508" lon="11.497182880361317"><ele>359.0</ele><time>2026-04-26T07:01:39Z</time></trkpt><trkpt lat="45.45137816167753" lon="11.497302243716614"><ele>357.4</ele><time>2026-04-26T07:01:40Z</time></trkpt><trkpt lat="45.45130999438203" lon="11.497374488125645"><ele>355.79999999999995</ele><time>2026-04-26T07:01:41Z</time></trkpt><trkpt lat="45.45125052633852" lon="11.497454561281739"><ele>354.20000000000005</ele><time>2026-04-26T07:01:42Z</time></trkpt><trkpt lat="45.45119283726171" lon="11.497576106684983"><ele>352.6</ele><time>2026-04-26T07:01:43Z</time></trkpt><trkpt lat="45.45114139124118" lon="11.497700308254089"><ele>351.0</ele><time>2026-04-26T07:01:44Z</time></trkpt><trkpt lat="45.45108978471546" lon="11.497809086864995"><ele>350.6666666666667</ele><time>2026-04-26T07:01:45Z</time></trkpt><trkpt lat="45.45103021846726" lon="11.497901711706024"><ele>350.3333333333333</ele><time>2026-04-26T07:01:45.999Z</time></trkpt><trkpt lat="45.45096034243007" lon="11.497981796625462"><ele>350.0</ele><time>2026-04-26T07:01:46.999Z</time></trkpt><trkpt lat="45.450895476397406" lon="11.498058135971672"><ele>349.66666666666663</ele><time>2026-04-26T07:01:47.999Z</time></trkpt><trkpt lat="45.45083206258728" lon="11.49812632591532"><ele>349.3333333333333</ele><time>2026-04-26T07:01:48.999Z</time></trkpt><trkpt lat="45.45077508894812" lon="11.498189984863656"><ele>349.0</ele><time>2026-04-26T07:01:49.999Z</time></trkpt><trkpt lat="45.45072084852428" lon="11.498240960912447"><ele>348.5</ele><time>2026-04-26T07:01:50.999Z</time></trkpt><trkpt lat="45.45062977000136" lon="11.49834166838503"><ele>348.0</ele><time>2026-04-26T07:01:52.999Z</time></trkpt><trkpt lat="45.45055397676308" lon="11.498461747616526"><ele>347.5</ele><time>2026-04-26T07:01:54.999Z</time></trkpt><trkpt lat="45.45051517157803" lon="11.498615681079189"><ele>347.0</ele><time>2026-04-26T07:01:56.999Z</time></trkpt><trkpt lat="45.45049019277859" lon="11.49876460674962"><ele>348.0</ele><time>2026-04-26T07:01:58.999Z</time></trkpt><trkpt lat="45.450462102355665" lon="11.498893660646313"><ele>349.0</ele><time>2026-04-26T07:02:00.999Z</time></trkpt><trkpt lat="45.45043413092133" lon="11.49901254619095"><ele>350.0</ele><time>2026-04-26T07:02:02.999Z</time></trkpt><trkpt lat="45.45041078753162" lon="11.499102405925152"><ele>351.0</ele><time>2026-04-26T07:02:04.999Z</time></trkpt><trkpt lat="45.450395480550085" lon="11.49923588979178"><ele>352.0</ele><time>2026-04-26T07:02:07.999Z</time></trkpt><trkpt lat="45.450371442919234" lon="11.49937126549575"><ele>353.0</ele><time>2026-04-26T07:02:10.999Z</time></trkpt><trkpt lat="45.45035627159186" lon="11.499467535519996"><ele>351.4285714285714</ele><time>2026-04-26T07:02:12.999Z</time></trkpt><trkpt lat="45.45033191005339" lon="11.499560218332823"><ele>349.8571428571429</ele><time>2026-04-26T07:02:14.999Z</time></trkpt><trkpt lat="45.450332486796626" lon="11.499652046181135"><ele>348.2857142857143</ele><time>2026-04-26T07:02:16.999Z</time></trkpt><trkpt lat="45.45032773762398" lon="11.499746561930676"><ele>346.71428571428567</ele><time>2026-04-26T07:02:18.999Z</time></trkpt><trkpt lat="45.45031068988309" lon="11.499839524687353"><ele>345.1428571428571</ele><time>2026-04-26T07:02:21.999Z</time></trkpt><trkpt lat="45.45034306553574" lon="11.499926222578488"><ele>343.57142857142856</ele><time>2026-04-26T07:02:24.999Z</time></trkpt><trkpt lat="45.45034211891883" lon="11.500032274534759"><ele>342.0</ele><time>2026-04-26T07:02:27.998Z</time></trkpt><trkpt lat="45.450361350129214" lon="11.500128457444967"><ele>342.0</ele><time>2026-04-26T07:02:30.998Z</time></trkpt><trkpt lat="45.4504340855397" lon="11.500201469774531"><ele>342.0</ele><time>2026-04-26T07:02:33.998Z</time></trkpt><trkpt lat="45.45050548305933" lon="11.500231399168033"><ele>342.0</ele><time>2026-04-26T07:02:37.998Z</time></trkpt><trkpt lat="45.45060371369815" lon="11.500267257055215"><ele>342.0</ele><time>2026-04-26T07:02:40.998Z</time></trkpt><trkpt lat="45.45067722752078" lon="11.500292085811878"><ele>342.0</ele><time>2026-04-26T07:02:43.998Z</time></trkpt><trkpt lat="45.450745491904826" lon="11.500327255958098"><ele>342.0</ele><time>2026-04-26T07:02:46.998Z</time></trkpt><trkpt lat="45.45081526111209" lon="11.500334399034196"><ele>343.1666666666667</ele><time>2026-04-26T07:02:50.998Z</time></trkpt><trkpt lat="45.4508934948763" lon="11.500415448737972"><ele>344.3333333333333</ele><time>2026-04-26T07:02:53.998Z</time></trkpt><trkpt lat="45.45096041553457" lon="11.500475984957042"><ele>345.5</ele><time>2026-04-26T07:02:56.998Z</time></trkpt><trkpt lat="45.451044966463606" lon="11.500550950903795"><ele>346.66666666666663</ele><time>2026-04-26T07:02:58.998Z</time></trkpt><trkpt lat="45.45112157752007" lon="11.500581843351736"><ele>347.8333333333333</ele><time>2026-04-26T07:03:00.998Z</time></trkpt><trkpt lat="45.45119206470999" lon="11.500647623434594"><ele>349.0</ele><time>2026-04-26T07:03:04.998Z</time></trkpt><trkpt lat="45.45124567662795" lon="11.500714398713681"><ele>350.8333333333333</ele><time>2026-04-26T07:03:08.998Z</time></trkpt><trkpt lat="45.45131732342509" lon="11.50072312216585"><ele>352.66666666666663</ele><time>2026-04-26T07:03:12.997Z</time></trkpt><trkpt lat="45.45138740498968" lon="11.500756298343054"><ele>354.5</ele><time>2026-04-26T07:03:15.997Z</time></trkpt><trkpt lat="45.451440786936615" lon="11.500809797272847"><ele>356.3333333333333</ele><time>2026-04-26T07:03:19Z</time></trkpt><trkpt lat="45.451526869866036" lon="11.500827527847504"><ele>358.1666666666667</ele><time>2026-04-26T07:03:22Z</time></trkpt><trkpt lat="45.451597392014456" lon="11.500839941783243"><ele>360.0</ele><time>2026-04-26T07:03:25Z</time></trkpt><trkpt lat="45.451680851402344" lon="11.500910038584909"><ele>360.0</ele><time>2026-04-26T07:03:27Z</time></trkpt><trkpt lat="45.45174005712542" lon="11.501009711258275"><ele>360.0</ele><time>2026-04-26T07:03:29Z</time></trkpt><trkpt lat="45.45180763076661" lon="11.501096159706961"><ele>360.0</ele><time>2026-04-26T07:03:31Z</time></trkpt><trkpt lat="45.45187300114953" lon="11.501175032955619"><ele>360.0</ele><time>2026-04-26T07:03:33Z</time></trkpt><trkpt lat="45.45187762027523" lon="11.501268389447937"><ele>360.0</ele><time>2026-04-26T07:03:37Z</time></trkpt><trkpt lat="45.4518932817733" lon="11.501362118668315"><ele>360.0</ele><time>2026-04-26T07:03:40Z</time></trkpt><trkpt lat="45.45193657243292" lon="11.501491130019645"><ele>358.8333333333333</ele><time>2026-04-26T07:03:42Z</time></trkpt><trkpt lat="45.451977518983114" lon="11.501560007773307"><ele>357.6666666666667</ele><time>2026-04-26T07:03:43Z</time></trkpt><trkpt lat="45.452006913857986" lon="11.501664042959089"><ele>356.5</ele><time>2026-04-26T07:03:44Z</time></trkpt><trkpt lat="45.45194012602763" lon="11.501775739206726"><ele>355.33333333333337</ele><time>2026-04-26T07:03:46Z</time></trkpt><trkpt lat="45.451878868772155" lon="11.50181928111878"><ele>354.1666666666667</ele><time>2026-04-26T07:03:47Z</time></trkpt><trkpt lat="45.45181341098124" lon="11.501904836878117"><ele>353.0</ele><time>2026-04-26T07:03:49Z</time></trkpt><trkpt lat="45.45174310517561" lon="11.501953024586157"><ele>353.0</ele><time>2026-04-26T07:03:51Z</time></trkpt><trkpt lat="45.45167510345454" lon="11.502031000031346"><ele>353.0</ele><time>2026-04-26T07:03:53.999Z</time></trkpt><trkpt lat="45.45163826977899" lon="11.50211446048853"><ele>353.0</ele><time>2026-04-26T07:03:55.999Z</time></trkpt><trkpt lat="45.451586227409805" lon="11.502186133941898"><ele>353.0</ele><time>2026-04-26T07:03:57.999Z</time></trkpt><trkpt lat="45.45150636312737" lon="11.502224568594487"><ele>353.0</ele><time>2026-04-26T07:03:59.999Z</time></trkpt><trkpt lat="45.45145497364267" lon="11.502279650499037"><ele>353.0</ele><time>2026-04-26T07:04:01.999Z</time></trkpt><trkpt lat="45.45138813812578" lon="11.502358672306453"><ele>352.33333333333337</ele><time>2026-04-26T07:04:04.999Z</time></trkpt><trkpt lat="45.451330350568185" lon="11.502406226787809"><ele>351.6666666666667</ele><time>2026-04-26T07:04:07.999Z</time></trkpt><trkpt lat="45.45126654247636" lon="11.502513494084358"><ele>351.0</ele><time>2026-04-26T07:04:11.999Z</time></trkpt><trkpt lat="45.45121962286125" lon="11.502578833344991"><ele>350.3333333333333</ele><time>2026-04-26T07:04:13.999Z</time></trkpt><trkpt lat="45.45115231995493" lon="11.50266493208942"><ele>349.66666666666663</ele><time>2026-04-26T07:04:17.999Z</time></trkpt><trkpt lat="45.45109243794379" lon="11.502701397947733"><ele>349.0</ele><time>2026-04-26T07:04:20.999Z</time></trkpt><trkpt lat="45.451055940738186" lon="11.502849974506002"><ele>351.2</ele><time>2026-04-26T07:04:23.999Z</time></trkpt><trkpt lat="45.45098024748775" lon="11.502965891870701"><ele>353.4</ele><time>2026-04-26T07:04:25.999Z</time></trkpt><trkpt lat="45.450900651800595" lon="11.503032068117573"><ele>355.6</ele><time>2026-04-26T07:04:27.999Z</time></trkpt><trkpt lat="45.45084146841672" lon="11.503067675881136"><ele>357.8</ele><time>2026-04-26T07:04:28.999Z</time></trkpt><trkpt lat="45.45075126146578" lon="11.503127430180154"><ele>360.0</ele><time>2026-04-26T07:04:31.999Z</time></trkpt><trkpt lat="45.450683874391785" lon="11.503209875007084"><ele>360.0</ele><time>2026-04-26T07:04:33.998Z</time></trkpt><trkpt lat="45.450644478316605" lon="11.503282990700091"><ele>360.0</ele><time>2026-04-26T07:04:35.998Z</time></trkpt><trkpt lat="45.45060153124834" lon="11.503385022020908"><ele>360.0</ele><time>2026-04-26T07:04:39.998Z</time></trkpt><trkpt lat="45.45055980664813" lon="11.5034736967804"><ele>360.0</ele><time>2026-04-26T07:04:42.998Z</time></trkpt><trkpt lat="45.45055152280524" lon="11.503580714739345"><ele>360.0</ele><time>2026-04-26T07:04:45.998Z</time></trkpt><trkpt lat="45.45055174387454" lon="11.50368968452638"><ele>360.0</ele><time>2026-04-26T07:04:47.998Z</time></trkpt><trkpt lat="45.45051469696646" lon="11.50379468597888"><ele>359.6666666666667</ele><time>2026-04-26T07:04:50.998Z</time></trkpt><trkpt lat="45.45050868046285" lon="11.503889149608579"><ele>359.3333333333333</ele><time>2026-04-26T07:04:53.998Z</time></trkpt><trkpt lat="45.45056835436764" lon="11.503954229440199"><ele>359.0</ele><time>2026-04-26T07:04:57.998Z</time></trkpt><trkpt lat="45.450624347394246" lon="11.50406023718441"><ele>358.66666666666663</ele><time>2026-04-26T07:05:00.998Z</time></trkpt><trkpt lat="45.450696974887514" lon="11.504105257981244"><ele>358.3333333333333</ele><time>2026-04-26T07:05:02.998Z</time></trkpt><trkpt lat="45.45076677033327" lon="11.504191524888084"><ele>358.0</ele><time>2026-04-26T07:05:04.998Z</time></trkpt><trkpt lat="45.450809740746585" lon="11.50428612990911"><ele>358.0</ele><time>2026-04-26T07:05:05.998Z</time></trkpt><trkpt lat="45.450850365328584" lon="11.504356252477855"><ele>358.0</ele><time>2026-04-26T07:05:06.998Z</time></trkpt><trkpt lat="45.450917926450394" lon="11.50446321454347"><ele>358.0</ele><time>2026-04-26T07:05:08.998Z</time></trkpt><trkpt lat="45.450946981269084" lon="11.504574396070371"><ele>358.0</ele><time>2026-04-26T07:05:10.998Z</time></trkpt><trkpt lat="45.450995164796836" lon="11.504677405700626"><ele>358.0</ele><time>2026-04-26T07:05:12.998Z</time></trkpt><trkpt lat="45.45106489726594" lon="11.504770045141651"><ele>358.0</ele><time>2026-04-26T07:05:14.998Z</time></trkpt><trkpt lat="45.451133527593406" lon="11.504857903493585"><ele>357.66666666666663</ele><time>2026-04-26T07:05:16.997Z</time></trkpt><trkpt lat="45.45120005401348" lon="11.504911995281502"><ele>357.3333333333333</ele><time>2026-04-26T07:05:18.997Z</time></trkpt><trkpt lat="45.451260727712025" lon="11.504962215935882"><ele>357.0</ele><time>2026-04-26T07:05:20.997Z</time></trkpt><trkpt lat="45.451327140446544" lon="11.50505174379554"><ele>356.6666666666667</ele><time>2026-04-26T07:05:25Z</time></trkpt><trkpt lat="45.45131025850234" lon="11.505156161857714"><ele>356.33333333333337</ele><time>2026-04-26T07:05:27Z</time></trkpt><trkpt lat="45.45127829671098" lon="11.505298471417492"><ele>356.0</ele><time>2026-04-26T07:05:29Z</time></trkpt><trkpt lat="45.451246882170345" lon="11.505461436193093"><ele>355.83333333333337</ele><time>2026-04-26T07:05:31Z</time></trkpt><trkpt lat="45.451234666152864" lon="11.50561493204592"><ele>355.6666666666667</ele><time>2026-04-26T07:05:33Z</time></trkpt><trkpt lat="45.451258183188486" lon="11.505750439168349"><ele>355.5</ele><time>2026-04-26T07:05:35Z</time></trkpt><trkpt lat="45.45129048582558" lon="11.505863196840938"><ele>355.3333333333333</ele><time>2026-04-26T07:05:37Z</time></trkpt><trkpt lat="45.45129858268246" lon="11.505958241594142"><ele>355.16666666666663</ele><time>2026-04-26T07:05:39Z</time></trkpt><trkpt lat="45.451321802186456" lon="11.506047704448536"><ele>355.0</ele><time>2026-04-26T07:05:41Z</time></trkpt><trkpt lat="45.45135940005147" lon="11.506127438554707"><ele>355.42857142857144</ele><time>2026-04-26T07:05:44Z</time></trkpt><trkpt lat="45.45141484671605" lon="11.506196531962054"><ele>355.8571428571429</ele><time>2026-04-26T07:05:47Z</time></trkpt><trkpt lat="45.451461947987056" lon="11.506259267825236"><ele>356.28571428571433</ele><time>2026-04-26T07:05:51Z</time></trkpt><trkpt lat="45.45152742663919" lon="11.5062763710071"><ele>356.7142857142857</ele><time>2026-04-26T07:05:55Z</time></trkpt><trkpt lat="45.451592673472014" lon="11.506279777283462"><ele>357.14285714285717</ele><time>2026-04-26T07:05:59.999Z</time></trkpt><trkpt lat="45.45166961512508" lon="11.506317524402425"><ele>357.5714285714286</ele><time>2026-04-26T07:06:03.999Z</time></trkpt><trkpt lat="45.451711104746785" lon="11.506389941510173"><ele>358.0</ele><time>2026-04-26T07:06:06.999Z</time></trkpt><trkpt lat="45.45169335308307" lon="11.50650506716167"><ele>358.5714285714286</ele><time>2026-04-26T07:06:09.999Z</time></trkpt><trkpt lat="45.45168466787876" lon="11.506595731225758"><ele>359.14285714285717</ele><time>2026-04-26T07:06:12.999Z</time></trkpt><trkpt lat="45.451684059116246" lon="11.506712214754295"><ele>359.7142857142857</ele><time>2026-04-26T07:06:16.999Z</time></trkpt><trkpt lat="45.45168163860668" lon="11.506825586652694"><ele>360.28571428571433</ele><time>2026-04-26T07:06:20.999Z</time></trkpt><trkpt lat="45.45168514942179" lon="11.506941950559728"><ele>360.85714285714283</ele><time>2026-04-26T07:06:24.999Z</time></trkpt><trkpt lat="45.45168927474675" lon="11.50703188114546"><ele>361.42857142857144</ele><time>2026-04-26T07:06:27.999Z</time></trkpt><trkpt lat="45.45170925566876" lon="11.507118633739022"><ele>362.0</ele><time>2026-04-26T07:06:30.999Z</time></trkpt><trkpt lat="45.45172402158141" lon="11.507210380695893"><ele>363.33333333333337</ele><time>2026-04-26T07:06:33.999Z</time></trkpt><trkpt lat="45.45174232031674" lon="11.50732505726968"><ele>364.6666666666667</ele><time>2026-04-26T07:06:37.998Z</time></trkpt><trkpt lat="45.45176066965544" lon="11.507425769600028"><ele>366.0</ele><time>2026-04-26T07:06:41.998Z</time></trkpt><trkpt lat="45.45176736686576" lon="11.507533898820835"><ele>367.3333333333333</ele><time>2026-04-26T07:06:45.998Z</time></trkpt><trkpt lat="45.45174221488813" lon="11.507626284464033"><ele>368.66666666666663</ele><time>2026-04-26T07:06:49.998Z</time></trkpt><trkpt lat="45.45172084296028" lon="11.507736064449542"><ele>370.0</ele><time>2026-04-26T07:06:53.998Z</time></trkpt><trkpt lat="45.45171311779583" lon="11.507840634773945"><ele>370.0</ele><time>2026-04-26T07:06:56.998Z</time></trkpt><trkpt lat="45.45170529893871" lon="11.507953965826687"><ele>370.0</ele><time>2026-04-26T07:07:00.998Z</time></trkpt><trkpt lat="45.45166528693681" lon="11.508081052774248"><ele>370.0</ele><time>2026-04-26T07:07:03.998Z</time></trkpt><trkpt lat="45.45163799940181" lon="11.508192038118606"><ele>370.0</ele><time>2026-04-26T07:07:06.998Z</time></trkpt><trkpt lat="45.45159002029585" lon="11.508256094765132"><ele>370.0</ele><time>2026-04-26T07:07:09.998Z</time></trkpt><trkpt lat="45.451519585039286" lon="11.508301249380068"><ele>370.0</ele><time>2026-04-26T07:07:11.998Z</time></trkpt><trkpt lat="45.45143339315006" lon="11.508336305549415"><ele>369.99999999999994</ele><time>2026-04-26T07:07:14.998Z</time></trkpt><trkpt lat="45.45136375706293" lon="11.508361777045044"><ele>370.0</ele><time>2026-04-26T07:07:17.997Z</time></trkpt><trkpt lat="45.451289592172444" lon="11.508389826101252"><ele>370.0</ele><time>2026-04-26T07:07:20.997Z</time></trkpt><trkpt lat="45.45120902565214" lon="11.508406628037498"><ele>370.0</ele><time>2026-04-26T07:07:23.997Z</time></trkpt><trkpt lat="45.45114966688711" lon="11.508459536679977"><ele>370.0</ele><time>2026-04-26T07:07:27.997Z</time></trkpt><trkpt lat="45.45107499437787" lon="11.508479755558039"><ele>369.99999999999994</ele><time>2026-04-26T07:07:31Z</time></trkpt><trkpt lat="45.45101001174464" lon="11.508488768437532"><ele>370.0</ele><time>2026-04-26T07:07:34Z</time></trkpt><trkpt lat="45.45094805910825" lon="11.508469658457454"><ele>371.5</ele><time>2026-04-26T07:07:37Z</time></trkpt><trkpt lat="45.450887153612705" lon="11.50841975659289"><ele>373.0</ele><time>2026-04-26T07:07:40Z</time></trkpt><trkpt lat="45.450826400928314" lon="11.508370231769325"><ele>374.5</ele><time>2026-04-26T07:07:43Z</time></trkpt><trkpt lat="45.45074441079711" lon="11.508311016297032"><ele>376.0</ele><time>2026-04-26T07:07:48Z</time></trkpt><trkpt lat="45.45067486376175" lon="11.508310703716727"><ele>377.5</ele><time>2026-04-26T07:07:52Z</time></trkpt><trkpt lat="45.450597121620234" lon="11.508309247135383"><ele>379.0</ele><time>2026-04-26T07:07:56Z</time></trkpt><trkpt lat="45.45052290243637" lon="11.508348377457459"><ele>378.28571428571433</ele><time>2026-04-26T07:08:00Z</time></trkpt><trkpt lat="45.450457732984525" lon="11.508401166605383"><ele>377.57142857142856</ele><time>2026-04-26T07:08:03.999Z</time></trkpt><trkpt lat="45.450426635015475" lon="11.508487626029613"><ele>376.8571428571429</ele><time>2026-04-26T07:08:07.999Z</time></trkpt><trkpt lat="45.45037612134815" lon="11.508567105154777"><ele>376.14285714285717</ele><time>2026-04-26T07:08:11.999Z</time></trkpt><trkpt lat="45.450333602704326" lon="11.508655232789451"><ele>375.42857142857144</ele><time>2026-04-26T07:08:15.999Z</time></trkpt><trkpt lat="45.450308244432456" lon="11.508751970518729"><ele>374.7142857142857</ele><time>2026-04-26T07:08:19.999Z</time></trkpt><trkpt lat="45.45027956854436" lon="11.508852634845171"><ele>374.0</ele><time>2026-04-26T07:08:23.999Z</time></trkpt><trkpt lat="45.45026655378988" lon="11.508942432726222"><ele>375.6666666666667</ele><time>2026-04-26T07:08:27.999Z</time></trkpt><trkpt lat="45.450238620857995" lon="11.50903481237317"><ele>377.33333333333337</ele><time>2026-04-26T07:08:30.999Z</time></trkpt><trkpt lat="45.45022839008341" lon="11.509176946575801"><ele>379.0</ele><time>2026-04-26T07:08:34.999Z</time></trkpt><trkpt lat="45.45021823591467" lon="11.509284074644762"><ele>380.6666666666667</ele><time>2026-04-26T07:08:38.999Z</time></trkpt><trkpt lat="45.45022292477609" lon="11.5093835399322"><ele>382.3333333333333</ele><time>2026-04-26T07:08:41.999Z</time></trkpt><trkpt lat="45.450212419771276" lon="11.50948801264467"><ele>384.0</ele><time>2026-04-26T07:08:45.998Z</time></trkpt><trkpt lat="45.450204862990454" lon="11.509589045238455"><ele>384.85714285714283</ele><time>2026-04-26T07:08:49.998Z</time></trkpt><trkpt lat="45.4501966732729" lon="11.509679906093844"><ele>385.7142857142857</ele><time>2026-04-26T07:08:52.998Z</time></trkpt><trkpt lat="45.45018468566219" lon="11.509782074030339"><ele>386.57142857142856</ele><time>2026-04-26T07:08:57.998Z</time></trkpt><trkpt lat="45.450117117990445" lon="11.509850882656531"><ele>387.42857142857144</ele><time>2026-04-26T07:09:01.998Z</time></trkpt><trkpt lat="45.45008902065632" lon="11.509770266444033"><ele>388.2857142857143</ele><time>2026-04-26T07:09:03.998Z</time></trkpt><trkpt lat="45.450038004313754" lon="11.509690341872112"><ele>389.1428571428571</ele><time>2026-04-26T07:09:07.998Z</time></trkpt><trkpt lat="45.44995764308571" lon="11.50965729971361"><ele>390.0</ele><time>2026-04-26T07:09:11.998Z</time></trkpt><trkpt lat="45.449870618255986" lon="11.509633643230673"><ele>390.0</ele><time>2026-04-26T07:09:15.998Z</time></trkpt><trkpt lat="45.44977450595618" lon="11.5096345552368"><ele>390.0</ele><time>2026-04-26T07:09:19.998Z</time></trkpt><trkpt lat="45.44968556793785" lon="11.509671676673792"><ele>390.0</ele><time>2026-04-26T07:09:23.998Z</time></trkpt><trkpt lat="45.449587669482334" lon="11.509681254399828"><ele>390.0</ele><time>2026-04-26T07:09:26.997Z</time></trkpt><trkpt lat="45.449523954846214" lon="11.509670575082009"><ele>390.0</ele><time>2026-04-26T07:09:28.997Z</time></trkpt><trkpt lat="45.449433460324194" lon="11.509682899634985"><ele>390.0</ele><time>2026-04-26T07:09:31.997Z</time></trkpt><trkpt lat="45.44936575896259" lon="11.509665304754378"><ele>388.7142857142857</ele><time>2026-04-26T07:09:34Z</time></trkpt><trkpt lat="45.44929574956121" lon="11.50965896123831"><ele>387.42857142857144</ele><time>2026-04-26T07:09:37Z</time></trkpt><trkpt lat="45.44920053180686" lon="11.509662358220236"><ele>386.1428571428571</ele><time>2026-04-26T07:09:40Z</time></trkpt><trkpt lat="45.44910937020896" lon="11.509664651510853"><ele>384.8571428571429</ele><time>2026-04-26T07:09:42Z</time></trkpt><trkpt lat="45.44904987431689" lon="11.509635291950808"><ele>383.5714285714286</ele><time>2026-04-26T07:09:45Z</time></trkpt><trkpt lat="45.44898696841273" lon="11.50962165391053"><ele>382.2857142857143</ele><time>2026-04-26T07:09:48Z</time></trkpt><trkpt lat="45.44892361603348" lon="11.509599285231642"><ele>381.0</ele><time>2026-04-26T07:09:51Z</time></trkpt><trkpt lat="45.44885153554311" lon="11.509594167261088"><ele>382.5</ele><time>2026-04-26T07:09:57Z</time></trkpt><trkpt lat="45.44878627629296" lon="11.509533208935798"><ele>384.0</ele><time>2026-04-26T07:10:01Z</time></trkpt><trkpt lat="45.44874231081256" lon="11.509423862159691"><ele>385.5</ele><time>2026-04-26T07:10:04Z</time></trkpt><trkpt lat="45.44870378816515" lon="11.509317672807828"><ele>387.0</ele><time>2026-04-26T07:10:07.999Z</time></trkpt><trkpt lat="45.44866705892965" lon="11.509216935257369"><ele>388.5</ele><time>2026-04-26T07:10:11.999Z</time></trkpt><trkpt lat="45.44864976772812" lon="11.509119407049734"><ele>390.0</ele><time>2026-04-26T07:10:14.999Z</time></trkpt><trkpt lat="45.44860214703319" lon="11.509038567927497"><ele>390.0</ele><time>2026-04-26T07:10:16.999Z</time></trkpt><trkpt lat="45.448596500432934" lon="11.508938851573047"><ele>390.0</ele><time>2026-04-26T07:10:18.999Z</time></trkpt><trkpt lat="45.4485554420386" lon="11.508866760231946"><ele>390.0</ele><time>2026-04-26T07:10:20.999Z</time></trkpt><trkpt lat="45.44848914906631" lon="11.508820497613161"><ele>390.0</ele><time>2026-04-26T07:10:22.999Z</time></trkpt><trkpt lat="45.44842290023703" lon="11.508756378601088"><ele>390.0</ele><time>2026-04-26T07:10:25.999Z</time></trkpt><trkpt lat="45.448357630267346" lon="11.508743396974996"><ele>390.0</ele><time>2026-04-26T07:10:26.999Z</time></trkpt><trkpt lat="45.44827355716725" lon="11.508763832067803"><ele>390.0</ele><time>2026-04-26T07:10:28.999Z</time></trkpt><trkpt lat="45.4481952330961" lon="11.50878628001389"><ele>390.0</ele><time>2026-04-26T07:10:30.999Z</time></trkpt><trkpt lat="45.448113735944844" lon="11.50880780682568"><ele>390.0</ele><time>2026-04-26T07:10:33.999Z</time></trkpt><trkpt lat="45.44803980327105" lon="11.508837392336563"><ele>390.0</ele><time>2026-04-26T07:10:36.999Z</time></trkpt><trkpt lat="45.44796135845625" lon="11.508851643703023"><ele>390.0</ele><time>2026-04-26T07:10:38.999Z</time></trkpt><trkpt lat="45.447889590423415" lon="11.50888785113672"><ele>390.0</ele><time>2026-04-26T07:10:40.999Z</time></trkpt><trkpt lat="45.447794676599806" lon="11.5089343610044"><ele>390.0</ele><time>2026-04-26T07:10:43.999Z</time></trkpt><trkpt lat="45.447713447226725" lon="11.50894273439788"><ele>389.6666666666667</ele><time>2026-04-26T07:10:46.998Z</time></trkpt><trkpt lat="45.44764599566524" lon="11.508968378498038"><ele>389.33333333333337</ele><time>2026-04-26T07:10:48.998Z</time></trkpt><trkpt lat="45.44756336876127" lon="11.509013180939306"><ele>389.0</ele><time>2026-04-26T07:10:51.998Z</time></trkpt><trkpt lat="45.447497820017965" lon="11.509018295262509"><ele>388.6666666666667</ele><time>2026-04-26T07:10:54.998Z</time></trkpt><trkpt lat="45.44740684115744" lon="11.509047191809403"><ele>388.33333333333337</ele><time>2026-04-26T07:10:57.998Z</time></trkpt><trkpt lat="45.44733758547341" lon="11.50907688091243"><ele>388.0</ele><time>2026-04-26T07:10:59.998Z</time></trkpt><trkpt lat="45.44726516058631" lon="11.509127034930984"><ele>388.00000000000006</ele><time>2026-04-26T07:11:03.998Z</time></trkpt><trkpt lat="45.44721059318967" lon="11.509225955209919"><ele>388.0</ele><time>2026-04-26T07:11:07.998Z</time></trkpt><trkpt lat="45.4471542582075" lon="11.509324987541055"><ele>388.0</ele><time>2026-04-26T07:11:12.998Z</time></trkpt><trkpt lat="45.44711515514796" lon="11.509413584713476"><ele>388.0</ele><time>2026-04-26T07:11:15.998Z</time></trkpt><trkpt lat="45.44716341222935" lon="11.509499588106209"><ele>388.00000000000006</ele><time>2026-04-26T07:11:19.998Z</time></trkpt><trkpt lat="45.44709312521477" lon="11.50957367663568"><ele>388.0</ele><time>2026-04-26T07:11:23.998Z</time></trkpt><trkpt lat="45.447022758462026" lon="11.509622493968267"><ele>387.1666666666667</ele><time>2026-04-26T07:11:25.997Z</time></trkpt><trkpt lat="45.44698194200873" lon="11.509704364882543"><ele>386.33333333333337</ele><time>2026-04-26T07:11:27.997Z</time></trkpt><trkpt lat="45.44691897478136" lon="11.509755788309661"><ele>385.5</ele><time>2026-04-26T07:11:30.997Z</time></trkpt><trkpt lat="45.44685554553662" lon="11.509774284946749"><ele>384.6666666666667</ele><time>2026-04-26T07:11:32.997Z</time></trkpt><trkpt lat="45.44672509906634" lon="11.509851860365465"><ele>383.83333333333337</ele><time>2026-04-26T07:11:34.997Z</time></trkpt><trkpt lat="45.44664933433914" lon="11.509882320337613"><ele>383.0</ele><time>2026-04-26T07:11:35.997Z</time></trkpt><trkpt lat="45.446536478476055" lon="11.509948772627977"><ele>383.0</ele><time>2026-04-26T07:11:37.997Z</time></trkpt><trkpt lat="45.44647310521697" lon="11.509935434963738"><ele>383.0</ele><time>2026-04-26T07:11:40Z</time></trkpt><trkpt lat="45.44639452755371" lon="11.509961712213915"><ele>383.0</ele><time>2026-04-26T07:11:43Z</time></trkpt><trkpt lat="45.44637590979454" lon="11.510084821366638"><ele>383.0</ele><time>2026-04-26T07:11:45Z</time></trkpt><trkpt lat="45.446393586125154" lon="11.510179819756356"><ele>383.0</ele><time>2026-04-26T07:11:46Z</time></trkpt><trkpt lat="45.446422809159" lon="11.510338930150636"><ele>383.0</ele><time>2026-04-26T07:11:48Z</time></trkpt><trkpt lat="45.44647168459418" lon="11.510475895780763"><ele>382.1666666666667</ele><time>2026-04-26T07:11:50Z</time></trkpt><trkpt lat="45.44655116561633" lon="11.510590814455574"><ele>381.33333333333337</ele><time>2026-04-26T07:11:52Z</time></trkpt><trkpt lat="45.44663570606834" lon="11.510607823144142"><ele>380.5</ele><time>2026-04-26T07:11:54Z</time></trkpt><trkpt lat="45.44669992504987" lon="11.51060666883085"><ele>379.6666666666667</ele><time>2026-04-26T07:11:56Z</time></trkpt><trkpt lat="45.446738648534236" lon="11.510708815554601"><ele>378.8333333333333</ele><time>2026-04-26T07:12:00Z</time></trkpt><trkpt lat="45.44668174387915" lon="11.510788408018596"><ele>378.0</ele><time>2026-04-26T07:12:02Z</time></trkpt><trkpt lat="45.446608557679504" lon="11.510824829410591"><ele>378.0</ele><time>2026-04-26T07:12:04Z</time></trkpt><trkpt lat="45.44651745991951" lon="11.510816196147392"><ele>378.0</ele><time>2026-04-26T07:12:06Z</time></trkpt><trkpt lat="45.446419627147684" lon="11.510825976153761"><ele>378.0</ele><time>2026-04-26T07:12:08Z</time></trkpt><trkpt lat="45.44633114491838" lon="11.510825886095642"><ele>378.0</ele><time>2026-04-26T07:12:10Z</time></trkpt><trkpt lat="45.4462478012558" lon="11.510775218348783"><ele>378.0</ele><time>2026-04-26T07:12:12Z</time></trkpt><trkpt lat="45.446197319238834" lon="11.510717612610316"><ele>378.0</ele><time>2026-04-26T07:12:13.999Z</time></trkpt><trkpt lat="45.446123398556175" lon="11.510784590496558"><ele>375.59999999999997</ele><time>2026-04-26T07:12:16.999Z</time></trkpt><trkpt lat="45.44610063960599" lon="11.51090489715373"><ele>373.2</ele><time>2026-04-26T07:12:18.999Z</time></trkpt><trkpt lat="45.4460569690941" lon="11.511026590890134"><ele>370.8</ele><time>2026-04-26T07:12:20.999Z</time></trkpt><trkpt lat="45.44598191051391" lon="11.51112308784016"><ele>368.4</ele><time>2026-04-26T07:12:22.999Z</time></trkpt><trkpt lat="45.44591026870834" lon="11.511201959608293"><ele>366.0</ele><time>2026-04-26T07:12:24.999Z</time></trkpt><trkpt lat="45.445842045578985" lon="11.511270160161525"><ele>366.0</ele><time>2026-04-26T07:12:26.999Z</time></trkpt><trkpt lat="45.445790762690855" lon="11.5113318302925"><ele>366.0</ele><time>2026-04-26T07:12:28.999Z</time></trkpt><trkpt lat="45.445732441948564" lon="11.511399549995298"><ele>366.0</ele><time>2026-04-26T07:12:30.999Z</time></trkpt><trkpt lat="45.44566789211271" lon="11.511477654495742"><ele>366.0</ele><time>2026-04-26T07:12:32.999Z</time></trkpt><trkpt lat="45.445597926667816" lon="11.511562431739863"><ele>366.0</ele><time>2026-04-26T07:12:35.999Z</time></trkpt><trkpt lat="45.44553936298105" lon="11.511615979642475"><ele>366.0</ele><time>2026-04-26T07:12:37.999Z</time></trkpt><trkpt lat="45.44548020484163" lon="11.511653285267016"><ele>366.57142857142856</ele><time>2026-04-26T07:12:39.999Z</time></trkpt><trkpt lat="45.44543596671335" lon="11.511725806266432"><ele>367.14285714285717</ele><time>2026-04-26T07:12:42.999Z</time></trkpt><trkpt lat="45.44539046303947" lon="11.511809728169638"><ele>367.71428571428567</ele><time>2026-04-26T07:12:46.999Z</time></trkpt><trkpt lat="45.4453412152038" lon="11.511891330950995"><ele>368.2857142857143</ele><time>2026-04-26T07:12:50.999Z</time></trkpt><trkpt lat="45.44530410254148" lon="11.511978515960664"><ele>368.85714285714283</ele><time>2026-04-26T07:12:54.998Z</time></trkpt><trkpt lat="45.44526191761223" lon="11.512076245757868"><ele>369.4285714285714</ele><time>2026-04-26T07:12:58.998Z</time></trkpt><trkpt lat="45.44522731661739" lon="11.512169157237903"><ele>370.0</ele><time>2026-04-26T07:13:02.998Z</time></trkpt><trkpt lat="45.44519510019633" lon="11.512260201154248"><ele>370.99999999999994</ele><time>2026-04-26T07:13:06.998Z</time></trkpt><trkpt lat="45.44516961986259" lon="11.512346975906333"><ele>372.0</ele><time>2026-04-26T07:13:10.998Z</time></trkpt><trkpt lat="45.445122427574766" lon="11.512418990952659"><ele>373.0</ele><time>2026-04-26T07:13:14.998Z</time></trkpt><trkpt lat="45.44507468251474" lon="11.512496145967795"><ele>374.0</ele><time>2026-04-26T07:13:17.998Z</time></trkpt><trkpt lat="45.445033863054796" lon="11.512569666198203"><ele>375.0</ele><time>2026-04-26T07:13:21.998Z</time></trkpt><trkpt lat="45.44498952730957" lon="11.512633422934671"><ele>375.99999999999994</ele><time>2026-04-26T07:13:24.998Z</time></trkpt><trkpt lat="45.44492477083696" lon="11.512671869674971"><ele>377.0</ele><time>2026-04-26T07:13:27.998Z</time></trkpt><trkpt lat="45.44486697747327" lon="11.51273848757502"><ele>377.0</ele><time>2026-04-26T07:13:31.998Z</time></trkpt><trkpt lat="45.44480468642105" lon="11.512815813757925"><ele>377.0</ele><time>2026-04-26T07:13:35.997Z</time></trkpt><trkpt lat="45.44473291572977" lon="11.512849083339113"><ele>377.0</ele><time>2026-04-26T07:13:39.997Z</time></trkpt><trkpt lat="45.44467027608758" lon="11.512909675223717"><ele>377.0</ele><time>2026-04-26T07:13:43.997Z</time></trkpt><trkpt lat="45.44461926397462" lon="11.51299608492136"><ele>377.0</ele><time>2026-04-26T07:13:48Z</time></trkpt><trkpt lat="45.44458682060874" lon="11.513074506271575"><ele>377.0</ele><time>2026-04-26T07:13:51Z</time></trkpt><trkpt lat="45.44456182316794" lon="11.513173624820782"><ele>378.99999999999994</ele><time>2026-04-26T07:13:55Z</time></trkpt><trkpt lat="45.44453148317362" lon="11.513272001577873"><ele>381.0</ele><time>2026-04-26T07:13:59Z</time></trkpt><trkpt lat="45.44451027894267" lon="11.513379494275094"><ele>383.0</ele><time>2026-04-26T07:14:03Z</time></trkpt><trkpt lat="45.444498196791415" lon="11.513481751149484"><ele>385.0</ele><time>2026-04-26T07:14:07Z</time></trkpt><trkpt lat="45.444477280559546" lon="11.513569687394495"><ele>387.0</ele><time>2026-04-26T07:14:10Z</time></trkpt><trkpt lat="45.444473628733306" lon="11.513677609172442"><ele>388.99999999999994</ele><time>2026-04-26T07:14:14Z</time></trkpt><trkpt lat="45.44446639664924" lon="11.513779575539179"><ele>391.0</ele><time>2026-04-26T07:14:17Z</time></trkpt><trkpt lat="45.44446227361696" lon="11.513895394707887"><ele>391.57142857142856</ele><time>2026-04-26T07:14:20.999Z</time></trkpt><trkpt lat="45.444460543944345" lon="11.513990439013403"><ele>392.1428571428571</ele><time>2026-04-26T07:14:23.999Z</time></trkpt><trkpt lat="45.444448066411674" lon="11.514082742216079"><ele>392.71428571428567</ele><time>2026-04-26T07:14:26.999Z</time></trkpt><trkpt lat="45.444445670936474" lon="11.514174624707683"><ele>393.2857142857143</ele><time>2026-04-26T07:14:29.999Z</time></trkpt><trkpt lat="45.44443607937055" lon="11.514282657564737"><ele>393.8571428571429</ele><time>2026-04-26T07:14:32.999Z</time></trkpt><trkpt lat="45.44443052619295" lon="11.514374501018889"><ele>394.4285714285714</ele><time>2026-04-26T07:14:34.999Z</time></trkpt><trkpt lat="45.444427136223496" lon="11.51450892727078"><ele>395.0</ele><time>2026-04-26T07:14:36.999Z</time></trkpt><trkpt lat="45.4444140109791" lon="11.514661127915335"><ele>393.4</ele><time>2026-04-26T07:14:38.999Z</time></trkpt><trkpt lat="45.444397957055365" lon="11.514774000615017"><ele>391.8</ele><time>2026-04-26T07:14:40.999Z</time></trkpt><trkpt lat="45.44434875484774" lon="11.514861819266303"><ele>390.20000000000005</ele><time>2026-04-26T07:14:42.999Z</time></trkpt><trkpt lat="45.444290350992" lon="11.514934673947748"><ele>388.6</ele><time>2026-04-26T07:14:44.999Z</time></trkpt><trkpt lat="45.444219963410454" lon="11.515012489544922"><ele>387.0</ele><time>2026-04-26T07:14:46.999Z</time></trkpt><trkpt lat="45.4441356410032" lon="11.515143725868382"><ele>387.0</ele><time>2026-04-26T07:14:48.999Z</time></trkpt><trkpt lat="45.44405745984689" lon="11.515286459534797"><ele>387.0</ele><time>2026-04-26T07:14:50.999Z</time></trkpt><trkpt lat="45.44400953268889" lon="11.515354945142997"><ele>387.0</ele><time>2026-04-26T07:14:51.999Z</time></trkpt><trkpt lat="45.44396126950559" lon="11.51544045162524"><ele>387.0</ele><time>2026-04-26T07:14:52.999Z</time></trkpt><trkpt lat="45.44392347323195" lon="11.515537824150258"><ele>387.0</ele><time>2026-04-26T07:14:53.999Z</time></trkpt><trkpt lat="45.443886976502384" lon="11.515641347892835"><ele>387.0</ele><time>2026-04-26T07:14:54.999Z</time></trkpt><trkpt lat="45.44383709458074" lon="11.515728202364993"><ele>386.7142857142857</ele><time>2026-04-26T07:14:55.999Z</time></trkpt><trkpt lat="45.44380260313964" lon="11.515832235976003"><ele>386.42857142857144</ele><time>2026-04-26T07:14:56.999Z</time></trkpt><trkpt lat="45.44377047725" lon="11.515925248668953"><ele>386.1428571428571</ele><time>2026-04-26T07:14:57.999Z</time></trkpt><trkpt lat="45.443748340419944" lon="11.51601699238874"><ele>385.8571428571429</ele><time>2026-04-26T07:14:58.999Z</time></trkpt><trkpt lat="45.44373727477929" lon="11.51611179759902"><ele>385.57142857142856</ele><time>2026-04-26T07:14:59.999Z</time></trkpt><trkpt lat="45.443732552645066" lon="11.516205092463755"><ele>385.2857142857143</ele><time>2026-04-26T07:15:00.999Z</time></trkpt><trkpt lat="45.44373828836038" lon="11.516317920572357"><ele>385.0</ele><time>2026-04-26T07:15:01.998Z</time></trkpt><trkpt lat="45.44375362654344" lon="11.516428440967118"><ele>383.6666666666667</ele><time>2026-04-26T07:15:02.998Z</time></trkpt><trkpt lat="45.44377425530848" lon="11.516534419889123"><ele>382.33333333333337</ele><time>2026-04-26T07:15:03.998Z</time></trkpt><trkpt lat="45.443783411392424" lon="11.516650976163604"><ele>381.0</ele><time>2026-04-26T07:15:04.998Z</time></trkpt><trkpt lat="45.44379901461146" lon="11.51677108033492"><ele>379.6666666666667</ele><time>2026-04-26T07:15:05.998Z</time></trkpt><trkpt lat="45.44381864678772" lon="11.516870700370973"><ele>378.33333333333337</ele><time>2026-04-26T07:15:06.998Z</time></trkpt><trkpt lat="45.44380930315091" lon="11.516977709640342"><ele>377.0</ele><time>2026-04-26T07:15:07.998Z</time></trkpt><trkpt lat="45.443788551620486" lon="11.517079013691978"><ele>377.0</ele><time>2026-04-26T07:15:08.998Z</time></trkpt><trkpt lat="45.44374405673465" lon="11.517163179902196"><ele>377.0</ele><time>2026-04-26T07:15:09.998Z</time></trkpt><trkpt lat="45.443677179029976" lon="11.517259192031126"><ele>377.0</ele><time>2026-04-26T07:15:11.998Z</time></trkpt><trkpt lat="45.443623163231386" lon="11.51733476538811"><ele>377.0</ele><time>2026-04-26T07:15:14.998Z</time></trkpt><trkpt lat="45.4435601362812" lon="11.517411865600979"><ele>377.0</ele><time>2026-04-26T07:15:17.998Z</time></trkpt><trkpt lat="45.44349514505806" lon="11.517481605249621"><ele>377.0</ele><time>2026-04-26T07:15:20.998Z</time></trkpt><trkpt lat="45.4434369558188" lon="11.517524639516024"><ele>377.0</ele><time>2026-04-26T07:15:22.998Z</time></trkpt><trkpt lat="45.443359096069415" lon="11.517569591510364"><ele>377.0</ele><time>2026-04-26T07:15:25.998Z</time></trkpt><trkpt lat="45.443279059454056" lon="11.517623023343264"><ele>377.0</ele><time>2026-04-26T07:15:28.998Z</time></trkpt><trkpt lat="45.44320456920216" lon="11.517693226415995"><ele>377.0</ele><time>2026-04-26T07:15:31.998Z</time></trkpt><trkpt lat="45.44313708179285" lon="11.517758449881782"><ele>377.0</ele><time>2026-04-26T07:15:34.998Z</time></trkpt><trkpt lat="45.44307851440186" lon="11.517833115156753"><ele>377.0</ele><time>2026-04-26T07:15:37.998Z</time></trkpt><trkpt lat="45.44304942044959" lon="11.517913188566027"><ele>377.1666666666667</ele><time>2026-04-26T07:15:39.998Z</time></trkpt><trkpt lat="45.44299113991074" lon="11.517992858797644"><ele>377.33333333333337</ele><time>2026-04-26T07:15:42.997Z</time></trkpt><trkpt lat="45.44299072921802" lon="11.518140773796683"><ele>377.5</ele><time>2026-04-26T07:15:45.997Z</time></trkpt><trkpt lat="45.442952524661905" lon="11.518232362340592"><ele>377.6666666666667</ele><time>2026-04-26T07:15:48.997Z</time></trkpt><trkpt lat="45.44292589212709" lon="11.518318880182461"><ele>377.8333333333333</ele><time>2026-04-26T07:15:53Z</time></trkpt><trkpt lat="45.442904997255994" lon="11.518410959756974"><ele>378.0</ele><time>2026-04-26T07:15:55Z</time></trkpt><trkpt lat="45.442877904834845" lon="11.518501122643285"><ele>378.0</ele><time>2026-04-26T07:15:57Z</time></trkpt><trkpt lat="45.44284192661572" lon="11.518600836804243"><ele>378.0</ele><time>2026-04-26T07:15:59Z</time></trkpt><trkpt lat="45.44278487070379" lon="11.51867950747533"><ele>378.0</ele><time>2026-04-26T07:16:02Z</time></trkpt><trkpt lat="45.44272797357788" lon="11.518732927367084"><ele>378.0</ele><time>2026-04-26T07:16:05Z</time></trkpt><trkpt lat="45.442656048486825" lon="11.518790699799611"><ele>378.0</ele><time>2026-04-26T07:16:08Z</time></trkpt><trkpt lat="45.442590874506884" lon="11.518793202754008"><ele>378.0</ele><time>2026-04-26T07:16:10Z</time></trkpt><trkpt lat="45.44252732125787" lon="11.518805896276787"><ele>378.0</ele><time>2026-04-26T07:16:12Z</time></trkpt><trkpt lat="45.44245621103188" lon="11.518804197807885"><ele>379.0</ele><time>2026-04-26T07:16:15Z</time></trkpt><trkpt lat="45.44238488955282" lon="11.518837860058127"><ele>380.0</ele><time>2026-04-26T07:16:18Z</time></trkpt><trkpt lat="45.442304239220846" lon="11.518862827831123"><ele>381.0</ele><time>2026-04-26T07:16:22Z</time></trkpt><trkpt lat="45.44224405126258" lon="11.518927762024306"><ele>382.0</ele><time>2026-04-26T07:16:24.999Z</time></trkpt><trkpt lat="45.44217608099456" lon="11.518969614048297"><ele>383.0</ele><time>2026-04-26T07:16:27.999Z</time></trkpt><trkpt lat="45.44210829794596" lon="11.51901008253741"><ele>384.0</ele><time>2026-04-26T07:16:29.999Z</time></trkpt><trkpt lat="45.44203943089372" lon="11.519086941763238"><ele>384.0</ele><time>2026-04-26T07:16:31.999Z</time></trkpt><trkpt lat="45.44197325600227" lon="11.519145065727253"><ele>384.0</ele><time>2026-04-26T07:16:33.999Z</time></trkpt><trkpt lat="45.44193258405559" lon="11.519224358949526"><ele>384.0</ele><time>2026-04-26T07:16:36.999Z</time></trkpt><trkpt lat="45.44190099147865" lon="11.519304022421723"><ele>384.0</ele><time>2026-04-26T07:16:39.999Z</time></trkpt><trkpt lat="45.4418915708145" lon="11.519427462684426"><ele>384.0</ele><time>2026-04-26T07:16:41.999Z</time></trkpt><trkpt lat="45.44184608567775" lon="11.519551160829971"><ele>384.0</ele><time>2026-04-26T07:16:43.999Z</time></trkpt><trkpt lat="45.4417957333311" lon="11.51967695581242"><ele>384.3333333333333</ele><time>2026-04-26T07:16:45.999Z</time></trkpt><trkpt lat="45.44172790867142" lon="11.51977884979827"><ele>384.66666666666663</ele><time>2026-04-26T07:16:47.999Z</time></trkpt><trkpt lat="45.441661318889665" lon="11.51985834992083"><ele>385.0</ele><time>2026-04-26T07:16:49.999Z</time></trkpt><trkpt lat="45.4416127680734" lon="11.519931256069079"><ele>385.3333333333333</ele><time>2026-04-26T07:16:51.999Z</time></trkpt><trkpt lat="45.44155794585473" lon="11.519993332081242"><ele>385.66666666666663</ele><time>2026-04-26T07:16:53.999Z</time></trkpt><trkpt lat="45.44148791311629" lon="11.520038828801054"><ele>386.0</ele><time>2026-04-26T07:16:55.999Z</time></trkpt><trkpt lat="45.441410099259166" lon="11.520078926018149"><ele>385.99999999999994</ele><time>2026-04-26T07:16:57.999Z</time></trkpt><trkpt lat="45.441312588235405" lon="11.520083342406451"><ele>386.0</ele><time>2026-04-26T07:16:59.999Z</time></trkpt><trkpt lat="45.441238635717596" lon="11.52005068357796"><ele>386.0</ele><time>2026-04-26T07:17:02.999Z</time></trkpt><trkpt lat="45.44115042804055" lon="11.52000656345278"><ele>386.0</ele><time>2026-04-26T07:17:05.998Z</time></trkpt><trkpt lat="45.441073370626334" lon="11.519947536010438"><ele>385.99999999999994</ele><time>2026-04-26T07:17:08.998Z</time></trkpt><trkpt lat="45.441009022458374" lon="11.51986580873494"><ele>386.0</ele><time>2026-04-26T07:17:11.998Z</time></trkpt><trkpt lat="45.44094439874596" lon="11.51983145629337"><ele>387.28571428571433</ele><time>2026-04-26T07:17:15.998Z</time></trkpt><trkpt lat="45.44086881315211" lon="11.519779197797613"><ele>388.57142857142856</ele><time>2026-04-26T07:17:19.998Z</time></trkpt><trkpt lat="45.440803179886686" lon="11.519764783745618"><ele>389.8571428571429</ele><time>2026-04-26T07:17:22.998Z</time></trkpt><trkpt lat="45.44073691606019" lon="11.519755720044445"><ele>391.14285714285717</ele><time>2026-04-26T07:17:25.998Z</time></trkpt><trkpt lat="45.44066738670662" lon="11.519759910021737"><ele>392.42857142857144</ele><time>2026-04-26T07:17:28.998Z</time></trkpt><trkpt lat="45.44058698544239" lon="11.519824375218967"><ele>393.7142857142857</ele><time>2026-04-26T07:17:31.998Z</time></trkpt><trkpt lat="45.44054372869948" lon="11.519892574434314"><ele>395.0</ele><time>2026-04-26T07:17:33.998Z</time></trkpt><trkpt lat="45.440450593747165" lon="11.519930684718409"><ele>395.66666666666663</ele><time>2026-04-26T07:17:35.998Z</time></trkpt><trkpt lat="45.44037888721708" lon="11.519955999496686"><ele>396.3333333333333</ele><time>2026-04-26T07:17:36.998Z</time></trkpt><trkpt lat="45.44030698302522" lon="11.519995677906605"><ele>397.0</ele><time>2026-04-26T07:17:37.998Z</time></trkpt><trkpt lat="45.44024171059437" lon="11.520020115441017"><ele>397.66666666666663</ele><time>2026-04-26T07:17:38.998Z</time></trkpt><trkpt lat="45.44014542589868" lon="11.520039410100345"><ele>398.3333333333333</ele><time>2026-04-26T07:17:40.998Z</time></trkpt><trkpt lat="45.440078998001866" lon="11.520057307232227"><ele>399.0</ele><time>2026-04-26T07:17:42.998Z</time></trkpt><trkpt lat="45.440007799418126" lon="11.52002076978091"><ele>399.0</ele><time>2026-04-26T07:17:46.997Z</time></trkpt><trkpt lat="45.439922385419884" lon="11.52002377293824"><ele>399.0</ele><time>2026-04-26T07:17:48.997Z</time></trkpt><trkpt lat="45.43982815539716" lon="11.520031699685044"><ele>399.0</ele><time>2026-04-26T07:17:50.997Z</time></trkpt><trkpt lat="45.43971783763633" lon="11.520044028434492"><ele>399.0</ele><time>2026-04-26T07:17:52.997Z</time></trkpt><trkpt lat="45.43961946222334" lon="11.520080698495674"><ele>399.0</ele><time>2026-04-26T07:17:54.997Z</time></trkpt><trkpt lat="45.439533321157" lon="11.520190130823348"><ele>399.4</ele><time>2026-04-26T07:17:56.997Z</time></trkpt><trkpt lat="45.43950003818949" lon="11.520283686345262"><ele>399.79999999999995</ele><time>2026-04-26T07:17:58Z</time></trkpt><trkpt lat="45.43941464860049" lon="11.520422419506378"><ele>400.20000000000005</ele><time>2026-04-26T07:18:00Z</time></trkpt><trkpt lat="45.43932069788989" lon="11.520537652016928"><ele>400.6</ele><time>2026-04-26T07:18:02Z</time></trkpt><trkpt lat="45.43927258549197" lon="11.520602936180007"><ele>401.0</ele><time>2026-04-26T07:18:03Z</time></trkpt><trkpt lat="45.43917800047295" lon="11.520674711873932"><ele>400.99999999999994</ele><time>2026-04-26T07:18:05Z</time></trkpt><trkpt lat="45.43909089933952" lon="11.52073867931373"><ele>401.0</ele><time>2026-04-26T07:18:07Z</time></trkpt><trkpt lat="45.43902564281144" lon="11.520797261563683"><ele>401.0</ele><time>2026-04-26T07:18:09Z</time></trkpt><trkpt lat="45.438958852988634" lon="11.520845406868652"><ele>401.0</ele><time>2026-04-26T07:18:11Z</time></trkpt><trkpt lat="45.43887595049868" lon="11.52089504749364"><ele>400.99999999999994</ele><time>2026-04-26T07:18:14Z</time></trkpt><trkpt lat="45.438805876332495" lon="11.520958050436057"><ele>401.0</ele><time>2026-04-26T07:18:17Z</time></trkpt><trkpt lat="45.43871236141989" lon="11.52101227690656"><ele>399.49999999999994</ele><time>2026-04-26T07:18:20Z</time></trkpt><trkpt lat="45.43863357139148" lon="11.5210475703554"><ele>398.0</ele><time>2026-04-26T07:18:22Z</time></trkpt><trkpt lat="45.438549689385496" lon="11.5210835031813"><ele>396.5</ele><time>2026-04-26T07:18:25Z</time></trkpt><trkpt lat="45.438486842411" lon="11.521069144942606"><ele>395.0</ele><time>2026-04-26T07:18:27Z</time></trkpt><trkpt lat="45.438419858743956" lon="11.521088250010736"><ele>393.49999999999994</ele><time>2026-04-26T07:18:29Z</time></trkpt><trkpt lat="45.43834629591634" lon="11.521096749845928"><ele>392.0</ele><time>2026-04-26T07:18:31Z</time></trkpt><trkpt lat="45.43825868743127" lon="11.521100110185877"><ele>391.99999999999994</ele><time>2026-04-26T07:18:32.999Z</time></trkpt><trkpt lat="45.438186192978506" lon="11.521150099104334"><ele>392.0</ele><time>2026-04-26T07:18:36.999Z</time></trkpt><trkpt lat="45.43811506176313" lon="11.521161391285936"><ele>392.0</ele><time>2026-04-26T07:18:39.999Z</time></trkpt><trkpt lat="45.43804912262269" lon="11.521169159895404"><ele>392.0</ele><time>2026-04-26T07:18:41.999Z</time></trkpt><trkpt lat="45.43794801165563" lon="11.521178067911192"><ele>391.99999999999994</ele><time>2026-04-26T07:18:43.999Z</time></trkpt><trkpt lat="45.437863910237816" lon="11.521183639061544"><ele>392.0</ele><time>2026-04-26T07:18:45.999Z</time></trkpt><trkpt lat="45.43778221426829" lon="11.52117581059807"><ele>391.8333333333333</ele><time>2026-04-26T07:18:47.999Z</time></trkpt><trkpt lat="45.43770052578312" lon="11.521164204751926"><ele>391.66666666666663</ele><time>2026-04-26T07:18:50.999Z</time></trkpt><trkpt lat="45.43762713691964" lon="11.521164484193962"><ele>391.5</ele><time>2026-04-26T07:18:52.999Z</time></trkpt><trkpt lat="45.4375314818111" lon="11.521179340987555"><ele>391.33333333333337</ele><time>2026-04-26T07:18:55.999Z</time></trkpt><trkpt lat="45.43745600694685" lon="11.521210511989771"><ele>391.1666666666667</ele><time>2026-04-26T07:18:58.999Z</time></trkpt><trkpt lat="45.437389575504554" lon="11.521251914789447"><ele>391.0</ele><time>2026-04-26T07:19:01.999Z</time></trkpt><trkpt lat="45.437317901153286" lon="11.52130106255754"><ele>391.71428571428567</ele><time>2026-04-26T07:19:05.999Z</time></trkpt><trkpt lat="45.437254176521236" lon="11.521373947419725"><ele>392.42857142857144</ele><time>2026-04-26T07:19:09.999Z</time></trkpt><trkpt lat="45.43721868149988" lon="11.521448141694322"><ele>393.1428571428571</ele><time>2026-04-26T07:19:12.998Z</time></trkpt><trkpt lat="45.43716814645555" lon="11.521516100407602"><ele>393.85714285714283</ele><time>2026-04-26T07:19:16.998Z</time></trkpt><trkpt lat="45.43710745531949" lon="11.52158709800516"><ele>394.57142857142856</ele><time>2026-04-26T07:19:20.998Z</time></trkpt><trkpt lat="45.43703985940138" lon="11.521610135255477"><ele>395.2857142857143</ele><time>2026-04-26T07:19:24.998Z</time></trkpt><trkpt lat="45.43697732087375" lon="11.521633639662586"><ele>396.0</ele><time>2026-04-26T07:19:26.998Z</time></trkpt><trkpt lat="45.43687720313673" lon="11.521638028258772"><ele>396.0</ele><time>2026-04-26T07:19:28.998Z</time></trkpt><trkpt lat="45.43678230739396" lon="11.52159257311162"><ele>396.0</ele><time>2026-04-26T07:19:30.998Z</time></trkpt><trkpt lat="45.436700718131156" lon="11.52145865919309"><ele>396.0</ele><time>2026-04-26T07:19:32.998Z</time></trkpt><trkpt lat="45.43666625754423" lon="11.52137423031373"><ele>396.0</ele><time>2026-04-26T07:19:33.998Z</time></trkpt><trkpt lat="45.4366139218332" lon="11.521312741338264"><ele>396.0</ele><time>2026-04-26T07:19:34.998Z</time></trkpt><trkpt lat="45.43655397050321" lon="11.521256037765857"><ele>396.0</ele><time>2026-04-26T07:19:35.998Z</time></trkpt><trkpt lat="45.43644226187903" lon="11.521191989893259"><ele>395.4</ele><time>2026-04-26T07:19:37.998Z</time></trkpt><trkpt lat="45.436380957437784" lon="11.521163583236326"><ele>394.8</ele><time>2026-04-26T07:19:38.998Z</time></trkpt><trkpt lat="45.43627761735799" lon="11.5210824318185"><ele>394.2</ele><time>2026-04-26T07:19:40.998Z</time></trkpt><trkpt lat="45.43616600060886" lon="11.52104023204138"><ele>393.59999999999997</ele><time>2026-04-26T07:19:42.998Z</time></trkpt><trkpt lat="45.43604817343057" lon="11.52103111234101"><ele>393.0</ele><time>2026-04-26T07:19:44.998Z</time></trkpt><trkpt lat="45.43598098138233" lon="11.521027336317143"><ele>391.79999999999995</ele><time>2026-04-26T07:19:45.998Z</time></trkpt><trkpt lat="45.43586358879404" lon="11.520976686918123"><ele>390.6</ele><time>2026-04-26T07:19:47.998Z</time></trkpt><trkpt lat="45.43574913257842" lon="11.520994800256133"><ele>389.4</ele><time>2026-04-26T07:19:49.998Z</time></trkpt><trkpt lat="45.4356639820697" lon="11.521022927716869"><ele>388.20000000000005</ele><time>2026-04-26T07:19:51.998Z</time></trkpt><trkpt lat="45.43558620237365" lon="11.521026989460326"><ele>387.0</ele><time>2026-04-26T07:19:53.997Z</time></trkpt><trkpt lat="45.435506704334536" lon="11.52104841337152"><ele>387.0</ele><time>2026-04-26T07:19:55.997Z</time></trkpt><trkpt lat="45.43541467879911" lon="11.521057963909294"><ele>387.0</ele><time>2026-04-26T07:19:57.997Z</time></trkpt><trkpt lat="45.43532457431495" lon="11.521067782901941"><ele>387.0</ele><time>2026-04-26T07:20:00.997Z</time></trkpt><trkpt lat="45.43524202361733" lon="11.521047355132776"><ele>387.0</ele><time>2026-04-26T07:20:03Z</time></trkpt><trkpt lat="45.435156799346075" lon="11.520976670894552"><ele>387.0</ele><time>2026-04-26T07:20:05Z</time></trkpt><trkpt lat="45.435081831057445" lon="11.520841035485194"><ele>387.0</ele><time>2026-04-26T07:20:07Z</time></trkpt><trkpt lat="45.43500291184611" lon="11.52071244495138"><ele>387.0</ele><time>2026-04-26T07:20:09Z</time></trkpt><trkpt lat="45.4349116616008" lon="11.520608784311909"><ele>387.0</ele><time>2026-04-26T07:20:11Z</time></trkpt><trkpt lat="45.43481295986705" lon="11.520515579902932"><ele>387.0</ele><time>2026-04-26T07:20:13Z</time></trkpt><trkpt lat="45.43472096542132" lon="11.520421386747289"><ele>387.0</ele><time>2026-04-26T07:20:15Z</time></trkpt><trkpt lat="45.434656847614356" lon="11.520424670925495"><ele>387.0</ele><time>2026-04-26T07:20:16Z</time></trkpt><trkpt lat="45.434552709729104" lon="11.520365775867578"><ele>387.0</ele><time>2026-04-26T07:20:18Z</time></trkpt><trkpt lat="45.43445179932525" lon="11.520296425097976"><ele>387.0</ele><time>2026-04-26T07:20:20Z</time></trkpt><trkpt lat="45.434349675078685" lon="11.520263491121629"><ele>387.0</ele><time>2026-04-26T07:20:22Z</time></trkpt><trkpt lat="45.434274405743935" lon="11.52022787348985"><ele>387.8333333333333</ele><time>2026-04-26T07:20:24Z</time></trkpt><trkpt lat="45.43418972524303" lon="11.520217005805696"><ele>388.66666666666663</ele><time>2026-04-26T07:20:26Z</time></trkpt><trkpt lat="45.43411011792809" lon="11.520178882123217"><ele>389.5</ele><time>2026-04-26T07:20:28Z</time></trkpt><trkpt lat="45.43403790930174" lon="11.520151204407213"><ele>390.3333333333333</ele><time>2026-04-26T07:20:30Z</time></trkpt><trkpt lat="45.43399002833764" lon="11.520083396282724"><ele>391.16666666666663</ele><time>2026-04-26T07:20:32Z</time></trkpt><trkpt lat="45.43394344466132" lon="11.519987091294421"><ele>392.0</ele><time>2026-04-26T07:20:34Z</time></trkpt><trkpt lat="45.43390184610454" lon="11.519911523878601"><ele>392.0</ele><time>2026-04-26T07:20:35Z</time></trkpt><trkpt lat="45.43386597849812" lon="11.519814217448026"><ele>392.0</ele><time>2026-04-26T07:20:37.999Z</time></trkpt><trkpt lat="45.43381083164479" lon="11.519669823588087"><ele>392.0</ele><time>2026-04-26T07:20:40.999Z</time></trkpt><trkpt lat="45.43379917754776" lon="11.519508530478289"><ele>392.0</ele><time>2026-04-26T07:20:42.999Z</time></trkpt><trkpt lat="45.433809918207345" lon="11.519416316918127"><ele>392.0</ele><time>2026-04-26T07:20:43.999Z</time></trkpt><trkpt lat="45.43380279541112" lon="11.519272248124707"><ele>390.40000000000003</ele><time>2026-04-26T07:20:45.999Z</time></trkpt><trkpt lat="45.43380020093045" lon="11.519153940177437"><ele>388.8</ele><time>2026-04-26T07:20:47.999Z</time></trkpt><trkpt lat="45.43379779826306" lon="11.519044378796767"><ele>387.2</ele><time>2026-04-26T07:20:49.999Z</time></trkpt><trkpt lat="45.433600319486274" lon="11.518969275072534"><ele>385.6</ele><time>2026-04-26T07:20:51.999Z</time></trkpt><trkpt lat="45.43358079485143" lon="11.518872418577466"><ele>384.0</ele><time>2026-04-26T07:20:53.999Z</time></trkpt><trkpt lat="45.433571342733" lon="11.518768831792373"><ele>384.8333333333333</ele><time>2026-04-26T07:20:55.999Z</time></trkpt><trkpt lat="45.433548803341345" lon="11.51867035077997"><ele>385.66666666666663</ele><time>2026-04-26T07:20:58.999Z</time></trkpt><trkpt lat="45.43355583589915" lon="11.51855997342615"><ele>386.5</ele><time>2026-04-26T07:21:01.999Z</time></trkpt><trkpt lat="45.433527044018476" lon="11.51845875590277"><ele>387.3333333333333</ele><time>2026-04-26T07:21:04.999Z</time></trkpt><trkpt lat="45.433520412688026" lon="11.518333938717877"><ele>388.16666666666663</ele><time>2026-04-26T07:21:07.999Z</time></trkpt><trkpt lat="45.4334952580618" lon="11.518248392572543"><ele>389.0</ele><time>2026-04-26T07:21:10.999Z</time></trkpt><trkpt lat="45.43346432547702" lon="11.518134941071919"><ele>388.99999999999994</ele><time>2026-04-26T07:21:14.999Z</time></trkpt><trkpt lat="45.43346190042558" lon="11.518018862299995"><ele>389.0</ele><time>2026-04-26T07:21:18.998Z</time></trkpt><trkpt lat="45.433416262668395" lon="11.517911148749127"><ele>389.0</ele><time>2026-04-26T07:21:22.998Z</time></trkpt><trkpt lat="45.43339926535911" lon="11.517808541280246"><ele>389.0</ele><time>2026-04-26T07:21:25.998Z</time></trkpt><trkpt lat="45.43338957358271" lon="11.5177142182151"><ele>388.99999999999994</ele><time>2026-04-26T07:21:29.998Z</time></trkpt><trkpt lat="45.4333828463813" lon="11.517618912955601"><ele>389.0</ele><time>2026-04-26T07:21:33.998Z</time></trkpt><trkpt lat="45.433327036562595" lon="11.517544067408291"><ele>389.2</ele><time>2026-04-26T07:21:52.998Z</time></trkpt><trkpt lat="45.43325980223287" lon="11.517442794581228"><ele>389.4</ele><time>2026-04-26T07:21:55.998Z</time></trkpt><trkpt lat="45.43318382158817" lon="11.517367804595253"><ele>389.6</ele><time>2026-04-26T07:21:58.997Z</time></trkpt><trkpt lat="45.433147060501" lon="11.517246924108367"><ele>389.8</ele><time>2026-04-26T07:22:00.997Z</time></trkpt><trkpt lat="45.43308993218286" lon="11.517175448115385"><ele>390.0</ele><time>2026-04-26T07:22:02.997Z</time></trkpt><trkpt lat="45.4330006349146" lon="11.517120697825717"><ele>389.6666666666667</ele><time>2026-04-26T07:22:04.997Z</time></trkpt><trkpt lat="45.432978063164" lon="11.517036037092865"><ele>389.33333333333337</ele><time>2026-04-26T07:22:05.997Z</time></trkpt><trkpt lat="45.432939776740064" lon="11.51688631174112"><ele>389.0</ele><time>2026-04-26T07:22:07.997Z</time></trkpt><trkpt lat="45.432907889113864" lon="11.516734659962577"><ele>388.6666666666667</ele><time>2026-04-26T07:22:10Z</time></trkpt><trkpt lat="45.43289802088382" lon="11.516636222012172"><ele>388.33333333333337</ele><time>2026-04-26T07:22:11Z</time></trkpt><trkpt lat="45.432885257129385" lon="11.516541957346112"><ele>388.0</ele><time>2026-04-26T07:22:12Z</time></trkpt><trkpt lat="45.43288289953475" lon="11.516383964041127"><ele>386.33333333333337</ele><time>2026-04-26T07:22:14Z</time></trkpt><trkpt lat="45.43281829773606" lon="11.516280835663188"><ele>384.6666666666667</ele><time>2026-04-26T07:22:16Z</time></trkpt><trkpt lat="45.432767769105844" lon="11.51618444291872"><ele>383.0</ele><time>2026-04-26T07:22:18Z</time></trkpt><trkpt lat="45.43274158428678" lon="11.516097405191397"><ele>381.33333333333337</ele><time>2026-04-26T07:22:19Z</time></trkpt><trkpt lat="45.43271692769093" lon="11.51599081045952"><ele>379.6666666666667</ele><time>2026-04-26T07:22:20Z</time></trkpt><trkpt lat="45.4327123981604" lon="11.515896678274819"><ele>378.0</ele><time>2026-04-26T07:22:21Z</time></trkpt><trkpt lat="45.43267493850014" lon="11.515770073561814"><ele>378.0</ele><time>2026-04-26T07:22:23Z</time></trkpt><trkpt lat="45.43260315383168" lon="11.515695830386653"><ele>378.0</ele><time>2026-04-26T07:22:25Z</time></trkpt><trkpt lat="45.432598625629495" lon="11.51559460391301"><ele>378.0</ele><time>2026-04-26T07:22:28Z</time></trkpt><trkpt lat="45.43256871435174" lon="11.515503255513998"><ele>378.0</ele><time>2026-04-26T07:22:31Z</time></trkpt><trkpt lat="45.43254700171131" lon="11.515414751802254"><ele>378.0</ele><time>2026-04-26T07:22:34Z</time></trkpt><trkpt lat="45.43253116942182" lon="11.515316484011949"><ele>378.0</ele><time>2026-04-26T07:22:38Z</time></trkpt><trkpt lat="45.43251827929728" lon="11.515222896516686"><ele>378.0</ele><time>2026-04-26T07:22:42Z</time></trkpt><trkpt lat="45.432484140381135" lon="11.515112507435855"><ele>378.6666666666667</ele><time>2026-04-26T07:22:45.999Z</time></trkpt><trkpt lat="45.43246398909051" lon="11.515018623559866"><ele>379.3333333333333</ele><time>2026-04-26T07:22:50.999Z</time></trkpt><trkpt lat="45.43242786655828" lon="11.514939899203865"><ele>380.0</ele><time>2026-04-26T07:22:53.999Z</time></trkpt><trkpt lat="45.43235558543156" lon="11.51485301989977"><ele>380.66666666666663</ele><time>2026-04-26T07:22:58.999Z</time></trkpt><trkpt lat="45.43232045348007" lon="11.514778552919184"><ele>381.3333333333333</ele><time>2026-04-26T07:23:01.999Z</time></trkpt><trkpt lat="45.43225671402165" lon="11.514665461728953"><ele>382.0</ele><time>2026-04-26T07:23:04.999Z</time></trkpt><trkpt lat="45.43222226319321" lon="11.514584330306686"><ele>381.66666666666663</ele><time>2026-04-26T07:23:06.999Z</time></trkpt><trkpt lat="45.43217389926561" lon="11.514489803288916"><ele>381.3333333333333</ele><time>2026-04-26T07:23:09.999Z</time></trkpt><trkpt lat="45.43210465760023" lon="11.514378220857955"><ele>381.0</ele><time>2026-04-26T07:23:11.999Z</time></trkpt><trkpt lat="45.432053064901474" lon="11.514269919688845"><ele>380.6666666666667</ele><time>2026-04-26T07:23:13.999Z</time></trkpt><trkpt lat="45.43198387453675" lon="11.514218553935745"><ele>380.33333333333337</ele><time>2026-04-26T07:23:15.999Z</time></trkpt><trkpt lat="45.43191379968246" lon="11.51415198972331"><ele>380.0</ele><time>2026-04-26T07:23:18.999Z</time></trkpt><trkpt lat="45.43185165722006" lon="11.51413436985797"><ele>381.0</ele><time>2026-04-26T07:23:20.999Z</time></trkpt><trkpt lat="45.43178306167489" lon="11.514120058465714"><ele>382.0</ele><time>2026-04-26T07:23:22.998Z</time></trkpt><trkpt lat="45.43170186025856" lon="11.514122518807781"><ele>383.0</ele><time>2026-04-26T07:23:25.998Z</time></trkpt><trkpt lat="45.431633845137284" lon="11.51417877396703"><ele>384.0</ele><time>2026-04-26T07:23:28.998Z</time></trkpt><trkpt lat="45.431549828860064" lon="11.514172309642412"><ele>384.99999999999994</ele><time>2026-04-26T07:23:32.998Z</time></trkpt><trkpt lat="45.43147816028475" lon="11.514141582296642"><ele>386.0</ele><time>2026-04-26T07:23:36.998Z</time></trkpt><trkpt lat="45.431409469402766" lon="11.514141760000614"><ele>386.0</ele><time>2026-04-26T07:23:40.998Z</time></trkpt><trkpt lat="45.431307693640456" lon="11.514160449366225"><ele>386.0</ele><time>2026-04-26T07:23:44.998Z</time></trkpt><trkpt lat="45.431227562457" lon="11.514202137971843"><ele>386.0</ele><time>2026-04-26T07:23:46.998Z</time></trkpt><trkpt lat="45.43111635695399" lon="11.514253269834354"><ele>386.0</ele><time>2026-04-26T07:23:48.998Z</time></trkpt><trkpt lat="45.43101148439459" lon="11.514303518766674"><ele>386.0</ele><time>2026-04-26T07:23:50.998Z</time></trkpt><trkpt lat="45.43092347597668" lon="11.514349612669756"><ele>385.8333333333333</ele><time>2026-04-26T07:23:52.998Z</time></trkpt><trkpt lat="45.43085438542604" lon="11.514384400615016"><ele>385.66666666666663</ele><time>2026-04-26T07:23:54.998Z</time></trkpt><trkpt lat="45.430778539469905" lon="11.514424009289002"><ele>385.5</ele><time>2026-04-26T07:23:56.998Z</time></trkpt><trkpt lat="45.43071888957917" lon="11.514509044741612"><ele>385.33333333333337</ele><time>2026-04-26T07:23:58.998Z</time></trkpt><trkpt lat="45.430666394179" lon="11.514566675473791"><ele>385.1666666666667</ele><time>2026-04-26T07:24:00.998Z</time></trkpt><trkpt lat="45.43063629752456" lon="11.5146779128251"><ele>385.0</ele><time>2026-04-26T07:24:02.997Z</time></trkpt><trkpt lat="45.43058357121167" lon="11.514760091500523"><ele>385.0</ele><time>2026-04-26T07:24:05.997Z</time></trkpt><trkpt lat="45.430485091025545" lon="11.514637921774602"><ele>385.0</ele><time>2026-04-26T07:24:08.997Z</time></trkpt><trkpt lat="45.4304544356671" lon="11.514476159037327"><ele>385.0</ele><time>2026-04-26T07:24:10.997Z</time></trkpt><trkpt lat="45.430449658335526" lon="11.51438169994819"><ele>385.0</ele><time>2026-04-26T07:24:11.997Z</time></trkpt><trkpt lat="45.43037764230516" lon="11.514325677267019"><ele>385.0</ele><time>2026-04-26T07:24:12.997Z</time></trkpt><trkpt lat="45.43029813194512" lon="11.514277161956036"><ele>381.6666666666667</ele><time>2026-04-26T07:24:13.997Z</time></trkpt><trkpt lat="45.43020683216653" lon="11.514259316996604"><ele>378.33333333333337</ele><time>2026-04-26T07:24:15Z</time></trkpt><trkpt lat="45.43011683894575" lon="11.51424183851764"><ele>375.0</ele><time>2026-04-26T07:24:16Z</time></trkpt><trkpt lat="45.430026874473945" lon="11.51425356783822"><ele>371.6666666666667</ele><time>2026-04-26T07:24:17Z</time></trkpt><trkpt lat="45.429939664251755" lon="11.514264292615621"><ele>368.33333333333337</ele><time>2026-04-26T07:24:18Z</time></trkpt><trkpt lat="45.4298602291542" lon="11.514273964762113"><ele>365.0</ele><time>2026-04-26T07:24:19Z</time></trkpt><trkpt lat="45.429782438973206" lon="11.51428343662076"><ele>365.0</ele><time>2026-04-26T07:24:20Z</time></trkpt><trkpt lat="45.42966282393427" lon="11.514293854499751"><ele>365.0</ele><time>2026-04-26T07:24:22Z</time></trkpt><trkpt lat="45.42956094229718" lon="11.514300275469848"><ele>365.0</ele><time>2026-04-26T07:24:24Z</time></trkpt><trkpt lat="45.429492896869" lon="11.514308190384982"><ele>365.0</ele><time>2026-04-26T07:24:26Z</time></trkpt><trkpt lat="45.42941879523871" lon="11.5142018382389"><ele>365.0</ele><time>2026-04-26T07:24:30Z</time></trkpt><trkpt lat="45.429384251150005" lon="11.514083395239075"><ele>364.6666666666667</ele><time>2026-04-26T07:24:32Z</time></trkpt><trkpt lat="45.429350266897714" lon="11.513944467902071"><ele>364.33333333333337</ele><time>2026-04-26T07:24:34Z</time></trkpt><trkpt lat="45.42932670649622" lon="11.51382156934232"><ele>364.0</ele><time>2026-04-26T07:24:36Z</time></trkpt><trkpt lat="45.42929761517592" lon="11.513703353766187"><ele>363.6666666666667</ele><time>2026-04-26T07:24:38Z</time></trkpt><trkpt lat="45.42928394942106" lon="11.51359665982868"><ele>363.3333333333333</ele><time>2026-04-26T07:24:40Z</time></trkpt><trkpt lat="45.42927200141031" lon="11.51350169254801"><ele>363.0</ele><time>2026-04-26T07:24:42Z</time></trkpt><trkpt lat="45.42927315857469" lon="11.513404421825044"><ele>363.0</ele><time>2026-04-26T07:24:44Z</time></trkpt><trkpt lat="45.42925590829066" lon="11.513317274186578"><ele>363.0</ele><time>2026-04-26T07:24:46Z</time></trkpt><trkpt lat="45.429194078644215" lon="11.51321936947311"><ele>363.0</ele><time>2026-04-26T07:24:49.999Z</time></trkpt><trkpt lat="45.42912567170846" lon="11.513089985012295"><ele>363.0</ele><time>2026-04-26T07:24:51.999Z</time></trkpt><trkpt lat="45.42905855040444" lon="11.512954283330778"><ele>363.0</ele><time>2026-04-26T07:24:53.999Z</time></trkpt><trkpt lat="45.428983981190875" lon="11.512863184882878"><ele>361.59999999999997</ele><time>2026-04-26T07:24:55.999Z</time></trkpt><trkpt lat="45.42890760428493" lon="11.512791991941729"><ele>360.2</ele><time>2026-04-26T07:24:57.999Z</time></trkpt><trkpt lat="45.428825331884596" lon="11.512733949454503"><ele>358.8</ele><time>2026-04-26T07:24:59.999Z</time></trkpt><trkpt lat="45.42875594576178" lon="11.512781437820781"><ele>357.4</ele><time>2026-04-26T07:25:01.999Z</time></trkpt><trkpt lat="45.428682605672506" lon="11.512821737811477"><ele>356.0</ele><time>2026-04-26T07:25:02.999Z</time></trkpt><trkpt lat="45.42856618920685" lon="11.512831710795686"><ele>355.83333333333337</ele><time>2026-04-26T07:25:04.999Z</time></trkpt><trkpt lat="45.42847564865346" lon="11.512841806829629"><ele>355.6666666666667</ele><time>2026-04-26T07:25:06.999Z</time></trkpt><trkpt lat="45.42839693887124" lon="11.512858832541653"><ele>355.5</ele><time>2026-04-26T07:25:08.999Z</time></trkpt><trkpt lat="45.428332648394054" lon="11.512840429845665"><ele>355.3333333333333</ele><time>2026-04-26T07:25:10.999Z</time></trkpt><trkpt lat="45.42825396839349" lon="11.512807264319335"><ele>355.16666666666663</ele><time>2026-04-26T07:25:13.999Z</time></trkpt><trkpt lat="45.428180561574365" lon="11.512769626489945"><ele>355.0</ele><time>2026-04-26T07:25:16.999Z</time></trkpt><trkpt lat="45.42810281178497" lon="11.512721833042862"><ele>355.0</ele><time>2026-04-26T07:25:19.999Z</time></trkpt><trkpt lat="45.42802461700998" lon="11.512689592076558"><ele>355.0</ele><time>2026-04-26T07:25:22.999Z</time></trkpt><trkpt lat="45.427939406600224" lon="11.512664905502872"><ele>355.0</ele><time>2026-04-26T07:25:25.999Z</time></trkpt><trkpt lat="45.42788057520886" lon="11.512630867899354"><ele>355.0</ele><time>2026-04-26T07:25:27.998Z</time></trkpt><trkpt lat="45.42780153946575" lon="11.512618286623747"><ele>355.0</ele><time>2026-04-26T07:25:30.998Z</time></trkpt><trkpt lat="45.4277283120131" lon="11.512615372795311"><ele>355.0</ele><time>2026-04-26T07:25:33.998Z</time></trkpt><trkpt lat="45.42766166287823" lon="11.512584568409697"><ele>354.42857142857144</ele><time>2026-04-26T07:25:36.998Z</time></trkpt><trkpt lat="45.42759937762394" lon="11.512555500017935"><ele>353.8571428571429</ele><time>2026-04-26T07:25:40.998Z</time></trkpt><trkpt lat="45.427531969807845" lon="11.512539404835612"><ele>353.28571428571433</ele><time>2026-04-26T07:25:47.998Z</time></trkpt><trkpt lat="45.42746595901131" lon="11.512528323531093"><ele>352.7142857142857</ele><time>2026-04-26T07:25:55.998Z</time></trkpt><trkpt lat="45.42738329861141" lon="11.512506310937633"><ele>352.14285714285717</ele><time>2026-04-26T07:25:59.998Z</time></trkpt><trkpt lat="45.42731058415343" lon="11.512481562231443"><ele>351.5714285714286</ele><time>2026-04-26T07:26:02.998Z</time></trkpt><trkpt lat="45.4272382662238" lon="11.512460800061243"><ele>351.0</ele><time>2026-04-26T07:26:04.998Z</time></trkpt><trkpt lat="45.4271358619869" lon="11.512464438871001"><ele>351.0</ele><time>2026-04-26T07:26:06.998Z</time></trkpt><trkpt lat="45.42704186300206" lon="11.51247557318604"><ele>351.0</ele><time>2026-04-26T07:26:08.997Z</time></trkpt><trkpt lat="45.42694153146383" lon="11.512516232195958"><ele>351.0</ele><time>2026-04-26T07:26:12.997Z</time></trkpt><trkpt lat="45.42681953933621" lon="11.512529027142747"><ele>351.0</ele><time>2026-04-26T07:26:14.997Z</time></trkpt><trkpt lat="45.42674691422024" lon="11.512528025349456"><ele>351.0</ele><time>2026-04-26T07:26:15.997Z</time></trkpt><trkpt lat="45.42661832441966" lon="11.512545571601914"><ele>351.0</ele><time>2026-04-26T07:26:17.997Z</time></trkpt><trkpt lat="45.426552633388106" lon="11.512573170385563"><ele>351.0</ele><time>2026-04-26T07:26:18.997Z</time></trkpt><trkpt lat="45.42648689805563" lon="11.512609967497177"><ele>351.0</ele><time>2026-04-26T07:26:19.997Z</time></trkpt><trkpt lat="45.426381736161005" lon="11.51266879788657"><ele>351.0</ele><time>2026-04-26T07:26:22Z</time></trkpt><trkpt lat="45.42632278559228" lon="11.512711686724456"><ele>351.0</ele><time>2026-04-26T07:26:23Z</time></trkpt><trkpt lat="45.426246524450036" lon="11.51276819112904"><ele>351.0</ele><time>2026-04-26T07:26:25Z</time></trkpt><trkpt lat="45.426183051055844" lon="11.51284614090946"><ele>349.1666666666667</ele><time>2026-04-26T07:26:28Z</time></trkpt><trkpt lat="45.42611870999692" lon="11.512959012625467"><ele>347.3333333333333</ele><time>2026-04-26T07:26:30Z</time></trkpt><trkpt lat="45.42605593356216" lon="11.513011747377524"><ele>345.5</ele><time>2026-04-26T07:26:32Z</time></trkpt><trkpt lat="45.42598907854673" lon="11.513051953428809"><ele>343.66666666666663</ele><time>2026-04-26T07:26:34Z</time></trkpt><trkpt lat="45.42592659456495" lon="11.513115304717735"><ele>341.8333333333333</ele><time>2026-04-26T07:26:39Z</time></trkpt><trkpt lat="45.42586840806559" lon="11.513155701845863"><ele>340.0</ele><time>2026-04-26T07:27:00.999Z</time></trkpt><trkpt lat="45.42586152300064" lon="11.51324682468343"><ele>340.0</ele><time>2026-04-26T07:27:04.999Z</time></trkpt><trkpt lat="45.42582523917737" lon="11.513338441194088"><ele>340.0</ele><time>2026-04-26T07:27:08.999Z</time></trkpt><trkpt lat="45.425762732748396" lon="11.51339379226086"><ele>340.0</ele><time>2026-04-26T07:27:10.999Z</time></trkpt><trkpt lat="45.42570079913188" lon="11.513425828688293"><ele>340.0</ele><time>2026-04-26T07:27:12.999Z</time></trkpt><trkpt lat="45.425647559656625" lon="11.513494265122329"><ele>340.0</ele><time>2026-04-26T07:27:14.999Z</time></trkpt><trkpt lat="45.42552920029607" lon="11.513518771630057"><ele>340.0</ele><time>2026-04-26T07:27:17.999Z</time></trkpt><trkpt lat="45.42545087946758" lon="11.513554796187439"><ele>340.4</ele><time>2026-04-26T07:27:19.999Z</time></trkpt><trkpt lat="45.425376434288935" lon="11.513603794949887"><ele>340.8</ele><time>2026-04-26T07:27:21.999Z</time></trkpt><trkpt lat="45.42531403429266" lon="11.51369436365302"><ele>341.20000000000005</ele><time>2026-04-26T07:27:25.999Z</time></trkpt><trkpt lat="45.425204864556804" lon="11.51374187604233"><ele>341.6</ele><time>2026-04-26T07:27:27.999Z</time></trkpt><trkpt lat="45.42513403621711" lon="11.51374421360295"><ele>342.0</ele><time>2026-04-26T07:27:28.999Z</time></trkpt><trkpt lat="45.42502340971504" lon="11.513780123994918"><ele>339.8333333333333</ele><time>2026-04-26T07:27:30.999Z</time></trkpt><trkpt lat="45.42495226968056" lon="11.5138326068219"><ele>337.6666666666667</ele><time>2026-04-26T07:27:32.999Z</time></trkpt><trkpt lat="45.42488898802065" lon="11.513822434729118"><ele>335.5</ele><time>2026-04-26T07:27:34.999Z</time></trkpt><trkpt lat="45.424834317670616" lon="11.513934912019979"><ele>333.33333333333337</ele><time>2026-04-26T07:27:36.998Z</time></trkpt><trkpt lat="45.42474485223098" lon="11.513969998239084"><ele>331.1666666666667</ele><time>2026-04-26T07:27:38.998Z</time></trkpt><trkpt lat="45.42466485083756" lon="11.513988682163786"><ele>329.0</ele><time>2026-04-26T07:27:39.998Z</time></trkpt><trkpt lat="45.42460823491523" lon="11.514067465890728"><ele>329.0</ele><time>2026-04-26T07:27:40.998Z</time></trkpt><trkpt lat="45.42449529540517" lon="11.514107628169377"><ele>329.0</ele><time>2026-04-26T07:27:42.998Z</time></trkpt><trkpt lat="45.42441471011326" lon="11.51420430338859"><ele>329.0</ele><time>2026-04-26T07:27:44.998Z</time></trkpt><trkpt lat="45.424351434821986" lon="11.514257987244774"><ele>329.0</ele><time>2026-04-26T07:27:46.998Z</time></trkpt><trkpt lat="45.424274506213386" lon="11.51436013787782"><ele>329.0</ele><time>2026-04-26T07:27:48.998Z</time></trkpt><trkpt lat="45.42423472302377" lon="11.514474639735953"><ele>329.0</ele><time>2026-04-26T07:27:50.998Z</time></trkpt><trkpt lat="45.424201660215" lon="11.514564206404811"><ele>329.0</ele><time>2026-04-26T07:27:52.998Z</time></trkpt><trkpt lat="45.424127437027174" lon="11.514653106424099"><ele>329.0</ele><time>2026-04-26T07:27:54.998Z</time></trkpt><trkpt lat="45.42405669214994" lon="11.514753757909263"><ele>329.0</ele><time>2026-04-26T07:27:56.998Z</time></trkpt><trkpt lat="45.42400403476817" lon="11.514805569486015"><ele>329.0</ele><time>2026-04-26T07:27:57.998Z</time></trkpt><trkpt lat="45.423937900377595" lon="11.51484129714649"><ele>329.0</ele><time>2026-04-26T07:27:58.998Z</time></trkpt><trkpt lat="45.423831761131424" lon="11.514838891488608"><ele>326.4</ele><time>2026-04-26T07:28:00.998Z</time></trkpt><trkpt lat="45.423739490465366" lon="11.514893677215744"><ele>323.79999999999995</ele><time>2026-04-26T07:28:02.998Z</time></trkpt><trkpt lat="45.42364011555479" lon="11.51496829117222"><ele>321.20000000000005</ele><time>2026-04-26T07:28:04.998Z</time></trkpt><trkpt lat="45.42354278718686" lon="11.515014439998305"><ele>318.6</ele><time>2026-04-26T07:28:06.998Z</time></trkpt><trkpt lat="45.42344538986987" lon="11.515028552922583"><ele>316.0</ele><time>2026-04-26T07:28:08.998Z</time></trkpt><trkpt lat="45.42332708562162" lon="11.515020887776036"><ele>316.0</ele><time>2026-04-26T07:28:10.998Z</time></trkpt><trkpt lat="45.42321429364975" lon="11.515042129941238"><ele>316.0</ele><time>2026-04-26T07:28:12.998Z</time></trkpt><trkpt lat="45.42311864655996" lon="11.515155698724415"><ele>316.0</ele><time>2026-04-26T07:28:14.998Z</time></trkpt><trkpt lat="45.42307724090909" lon="11.515224316493358"><ele>316.0</ele><time>2026-04-26T07:28:15.997Z</time></trkpt><trkpt lat="45.42296796379342" lon="11.51531700516756"><ele>316.0</ele><time>2026-04-26T07:28:17.997Z</time></trkpt><trkpt lat="45.42291187294715" lon="11.515361046369772"><ele>314.40000000000003</ele><time>2026-04-26T07:28:18.997Z</time></trkpt><trkpt lat="45.42282483677354" lon="11.51547192407362"><ele>312.8</ele><time>2026-04-26T07:28:20.997Z</time></trkpt><trkpt lat="45.42277466504151" lon="11.51560899410933"><ele>311.20000000000005</ele><time>2026-04-26T07:28:22.997Z</time></trkpt><trkpt lat="45.42273219674133" lon="11.515735010273886"><ele>309.6</ele><time>2026-04-26T07:28:24.997Z</time></trkpt><trkpt lat="45.42269158781877" lon="11.515886582676735"><ele>308.0</ele><time>2026-04-26T07:28:27Z</time></trkpt><trkpt lat="45.422664876359754" lon="11.516001009754799"><ele>308.0</ele><time>2026-04-26T07:28:29Z</time></trkpt><trkpt lat="45.42263611786785" lon="11.51612573215315"><ele>308.0</ele><time>2026-04-26T07:28:31Z</time></trkpt><trkpt lat="45.42259728261602" lon="11.516261981718383"><ele>308.0</ele><time>2026-04-26T07:28:33Z</time></trkpt><trkpt lat="45.42255096980859" lon="11.516390224826585"><ele>308.0</ele><time>2026-04-26T07:28:35Z</time></trkpt><trkpt lat="45.42249716101586" lon="11.516511615103179"><ele>308.0</ele><time>2026-04-26T07:28:37Z</time></trkpt><trkpt lat="45.422444283617224" lon="11.51662113038992"><ele>307.0</ele><time>2026-04-26T07:28:39Z</time></trkpt><trkpt lat="45.42235315595867" lon="11.516727723464319"><ele>306.0</ele><time>2026-04-26T07:28:41Z</time></trkpt><trkpt lat="45.422289990392755" lon="11.516756350023554"><ele>305.0</ele><time>2026-04-26T07:28:42Z</time></trkpt><trkpt lat="45.422239571671184" lon="11.516814802369407"><ele>304.0</ele><time>2026-04-26T07:28:43Z</time></trkpt><trkpt lat="45.42219713098112" lon="11.516892301595313"><ele>303.0</ele><time>2026-04-26T07:28:44Z</time></trkpt><trkpt lat="45.42212936933167" lon="11.516940793313433"><ele>302.0</ele><time>2026-04-26T07:28:45Z</time></trkpt><trkpt lat="45.42205999017438" lon="11.516978693529865"><ele>302.0</ele><time>2026-04-26T07:28:46Z</time></trkpt><trkpt lat="45.42199663161167" lon="11.516986963861632"><ele>302.0</ele><time>2026-04-26T07:28:47Z</time></trkpt><trkpt lat="45.421905338513824" lon="11.517040786790917"><ele>302.0</ele><time>2026-04-26T07:28:49Z</time></trkpt><trkpt lat="45.4218287411655" lon="11.517096260013606"><ele>302.0</ele><time>2026-04-26T07:28:51Z</time></trkpt><trkpt lat="45.42175768269543" lon="11.517155072841724"><ele>302.0</ele><time>2026-04-26T07:28:53Z</time></trkpt><trkpt lat="45.42170191173627" lon="11.517204298892958"><ele>302.0</ele><time>2026-04-26T07:28:55Z</time></trkpt><trkpt lat="45.42163691513704" lon="11.517264315342262"><ele>302.1666666666667</ele><time>2026-04-26T07:28:58Z</time></trkpt><trkpt lat="45.421586179595714" lon="11.517326344146495"><ele>302.33333333333337</ele><time>2026-04-26T07:28:59.999Z</time></trkpt><trkpt lat="45.42152257149637" lon="11.517399254892183"><ele>302.5</ele><time>2026-04-26T07:29:02.999Z</time></trkpt><trkpt lat="45.421458089493335" lon="11.51744182475917"><ele>302.6666666666667</ele><time>2026-04-26T07:29:04.999Z</time></trkpt><trkpt lat="45.42136010662986" lon="11.51743748617466"><ele>302.8333333333333</ele><time>2026-04-26T07:29:06.999Z</time></trkpt><trkpt lat="45.421268683469755" lon="11.517412307155771"><ele>303.0</ele><time>2026-04-26T07:29:09.999Z</time></trkpt><trkpt lat="45.42119256957663" lon="11.517390722288042"><ele>304.0</ele><time>2026-04-26T07:29:12.999Z</time></trkpt><trkpt lat="45.42113570592212" lon="11.51734886966444"><ele>305.0</ele><time>2026-04-26T07:29:15.999Z</time></trkpt><trkpt lat="45.42108013693854" lon="11.517305669735869"><ele>306.0</ele><time>2026-04-26T07:29:18.999Z</time></trkpt><trkpt lat="45.4210265231326" lon="11.517242438574538"><ele>307.0</ele><time>2026-04-26T07:29:21.999Z</time></trkpt><trkpt lat="45.420950143747284" lon="11.517227144987332"><ele>308.0</ele><time>2026-04-26T07:29:24.999Z</time></trkpt><trkpt lat="45.420861439559964" lon="11.51718498707219"><ele>309.0</ele><time>2026-04-26T07:29:26.999Z</time></trkpt><trkpt lat="45.42078107016058" lon="11.517146023051954"><ele>309.0</ele><time>2026-04-26T07:29:28.999Z</time></trkpt><trkpt lat="45.42070187435488" lon="11.517093146379976"><ele>309.0</ele><time>2026-04-26T07:29:30.999Z</time></trkpt><trkpt lat="45.42062439539373" lon="11.517056859196003"><ele>309.0</ele><time>2026-04-26T07:29:32.999Z</time></trkpt><trkpt lat="45.420556305990715" lon="11.517021074618174"><ele>309.0</ele><time>2026-04-26T07:29:34.999Z</time></trkpt><trkpt lat="45.42048391840752" lon="11.517005749391762"><ele>309.0</ele><time>2026-04-26T07:29:36.999Z</time></trkpt><trkpt lat="45.42042147123302" lon="11.51696006807038"><ele>309.0</ele><time>2026-04-26T07:29:38.998Z</time></trkpt><trkpt lat="45.42035248168175" lon="11.516917940916167"><ele>308.4</ele><time>2026-04-26T07:29:40.998Z</time></trkpt><trkpt lat="45.42027057104026" lon="11.516883658068855"><ele>307.79999999999995</ele><time>2026-04-26T07:29:42.998Z</time></trkpt><trkpt lat="45.420175912226966" lon="11.516858820810041"><ele>307.20000000000005</ele><time>2026-04-26T07:29:44.998Z</time></trkpt><trkpt lat="45.4200717917689" lon="11.516815766676766"><ele>306.6</ele><time>2026-04-26T07:29:46.998Z</time></trkpt><trkpt lat="45.41994886136694" lon="11.516776885276398"><ele>306.0</ele><time>2026-04-26T07:29:48.998Z</time></trkpt><trkpt lat="45.41987903537418" lon="11.516761045799658"><ele>306.0</ele><time>2026-04-26T07:29:49.998Z</time></trkpt><trkpt lat="45.41980513410001" lon="11.516742459928599"><ele>306.0</ele><time>2026-04-26T07:29:50.998Z</time></trkpt><trkpt lat="45.41973005687387" lon="11.51673132025971"><ele>306.0</ele><time>2026-04-26T07:29:51.998Z</time></trkpt><trkpt lat="45.41965110382379" lon="11.516711956221716"><ele>306.0</ele><time>2026-04-26T07:29:52.998Z</time></trkpt><trkpt lat="45.419573129173756" lon="11.516713519165911"><ele>306.0</ele><time>2026-04-26T07:29:53.998Z</time></trkpt><trkpt lat="45.41949237277198" lon="11.516715573020665"><ele>306.0</ele><time>2026-04-26T07:29:54.998Z</time></trkpt><trkpt lat="45.41940850420202" lon="11.516721532542515"><ele>305.2</ele><time>2026-04-26T07:29:55.998Z</time></trkpt><trkpt lat="45.41931994243223" lon="11.516720996079421"><ele>304.40000000000003</ele><time>2026-04-26T07:29:56.998Z</time></trkpt><trkpt lat="45.41916871814586" lon="11.516704651070544"><ele>303.6</ele><time>2026-04-26T07:29:58.998Z</time></trkpt><trkpt lat="45.41907483706096" lon="11.516698979779141"><ele>302.8</ele><time>2026-04-26T07:30:00.998Z</time></trkpt><trkpt lat="45.419005452535735" lon="11.516691417057809"><ele>302.0</ele><time>2026-04-26T07:30:02.998Z</time></trkpt><trkpt lat="45.418926512316254" lon="11.51666171021081"><ele>302.0</ele><time>2026-04-26T07:30:05.998Z</time></trkpt><trkpt lat="45.418853889834715" lon="11.516646298890826"><ele>302.0</ele><time>2026-04-26T07:30:09.998Z</time></trkpt><trkpt lat="45.41879673777211" lon="11.517018757020436"><ele>302.0</ele><time>2026-04-26T07:30:10.998Z</time></trkpt><trkpt lat="45.418737253253596" lon="11.517061896557431"><ele>302.0</ele><time>2026-04-26T07:30:15.998Z</time></trkpt><trkpt lat="45.418688198754" lon="11.517118390576002"><ele>304.28571428571433</ele><time>2026-04-26T07:30:18.997Z</time></trkpt><trkpt lat="45.41865138088911" lon="11.517197857429757"><ele>306.57142857142856</ele><time>2026-04-26T07:30:21.997Z</time></trkpt><trkpt lat="45.41861390822266" lon="11.517283739784492"><ele>308.8571428571429</ele><time>2026-04-26T07:30:26.997Z</time></trkpt><trkpt lat="45.41856149054172" lon="11.517358053883301"><ele>311.14285714285717</ele><time>2026-04-26T07:30:30.997Z</time></trkpt><trkpt lat="45.41852114915495" lon="11.517442463454007"><ele>313.42857142857144</ele><time>2026-04-26T07:30:35Z</time></trkpt><trkpt lat="45.4184733721596" lon="11.51751702273515"><ele>315.7142857142857</ele><time>2026-04-26T07:30:39Z</time></trkpt><trkpt lat="45.41840822565046" lon="11.517595978182523"><ele>318.0</ele><time>2026-04-26T07:30:43Z</time></trkpt><trkpt lat="45.41836883915631" lon="11.51766976431968"><ele>318.0</ele><time>2026-04-26T07:30:46Z</time></trkpt><trkpt lat="45.41832398312051" lon="11.517766497103686"><ele>318.0</ele><time>2026-04-26T07:30:50Z</time></trkpt><trkpt lat="45.41826559372342" lon="11.517814998252003"><ele>318.0</ele><time>2026-04-26T07:30:53Z</time></trkpt><trkpt lat="45.418222677435914" lon="11.51790098997966"><ele>318.0</ele><time>2026-04-26T07:30:57Z</time></trkpt><trkpt lat="45.418178533657546" lon="11.517999362387393"><ele>318.0</ele><time>2026-04-26T07:31:01Z</time></trkpt><trkpt lat="45.41817395913486" lon="11.518094253476884"><ele>318.0</ele><time>2026-04-26T07:31:05Z</time></trkpt><trkpt lat="45.41817117386855" lon="11.518186297017342"><ele>318.0</ele><time>2026-04-26T07:31:07.999Z</time></trkpt><trkpt lat="45.418164427685284" lon="11.51829332018636"><ele>317.3333333333333</ele><time>2026-04-26T07:31:10.999Z</time></trkpt><trkpt lat="45.41816041494049" lon="11.518413283713405"><ele>316.6666666666667</ele><time>2026-04-26T07:31:13.999Z</time></trkpt><trkpt lat="45.41812815589054" lon="11.518516822099615"><ele>316.0</ele><time>2026-04-26T07:31:16.999Z</time></trkpt><trkpt lat="45.41809797440382" lon="11.518605724887871"><ele>315.33333333333337</ele><time>2026-04-26T07:31:19.999Z</time></trkpt><trkpt lat="45.4180473812777" lon="11.518694409726928"><ele>314.6666666666667</ele><time>2026-04-26T07:31:23.999Z</time></trkpt><trkpt lat="45.41802228910261" lon="11.518789533189643"><ele>314.0</ele><time>2026-04-26T07:31:26.999Z</time></trkpt><trkpt lat="45.41798273893105" lon="11.518908815869215"><ele>315.6666666666667</ele><time>2026-04-26T07:31:29.999Z</time></trkpt><trkpt lat="45.41794450181342" lon="11.519003787068645"><ele>317.33333333333337</ele><time>2026-04-26T07:31:31.999Z</time></trkpt><trkpt lat="45.41786846313022" lon="11.519104965395357"><ele>319.0</ele><time>2026-04-26T07:31:33.999Z</time></trkpt><trkpt lat="45.417802672948646" lon="11.519171012035278"><ele>320.6666666666667</ele><time>2026-04-26T07:31:35.999Z</time></trkpt><trkpt lat="45.41774401901395" lon="11.51922161480097"><ele>322.3333333333333</ele><time>2026-04-26T07:31:37.999Z</time></trkpt><trkpt lat="45.41767981187272" lon="11.519254349835725"><ele>324.0</ele><time>2026-04-26T07:31:39.999Z</time></trkpt><trkpt lat="45.41761297246335" lon="11.519295598720362"><ele>324.0</ele><time>2026-04-26T07:31:41.999Z</time></trkpt><trkpt lat="45.417552413380854" lon="11.5193500143483"><ele>324.0</ele><time>2026-04-26T07:31:43.999Z</time></trkpt><trkpt lat="45.41747209334755" lon="11.519391823411825"><ele>324.0</ele><time>2026-04-26T07:31:45.999Z</time></trkpt><trkpt lat="45.41737227900534" lon="11.519416921720348"><ele>324.0</ele><time>2026-04-26T07:31:47.998Z</time></trkpt><trkpt lat="45.417276014100615" lon="11.519442824664372"><ele>324.0</ele><time>2026-04-26T07:31:49.998Z</time></trkpt><trkpt lat="45.41719912814904" lon="11.51946333820527"><ele>324.0</ele><time>2026-04-26T07:31:51.998Z</time></trkpt><trkpt lat="45.417128571999044" lon="11.519509175565316"><ele>324.5</ele><time>2026-04-26T07:31:53.998Z</time></trkpt><trkpt lat="45.41707441000134" lon="11.519593293278263"><ele>325.0</ele><time>2026-04-26T07:31:55.998Z</time></trkpt><trkpt lat="45.41704457757775" lon="11.519725588502894"><ele>325.5</ele><time>2026-04-26T07:31:58.998Z</time></trkpt><trkpt lat="45.41699378662131" lon="11.519805664215639"><ele>326.0</ele><time>2026-04-26T07:32:00.998Z</time></trkpt><trkpt lat="45.41696862072959" lon="11.519892897628072"><ele>326.5</ele><time>2026-04-26T07:32:03.998Z</time></trkpt><trkpt lat="45.41693086865867" lon="11.519988803995574"><ele>327.0</ele><time>2026-04-26T07:32:07.998Z</time></trkpt><trkpt lat="45.41689094324753" lon="11.520090326403002"><ele>327.0</ele><time>2026-04-26T07:32:10.998Z</time></trkpt><trkpt lat="45.4168038225134" lon="11.520126173750878"><ele>327.0</ele><time>2026-04-26T07:32:14.998Z</time></trkpt><trkpt lat="45.41673848593967" lon="11.520064551143912"><ele>327.0</ele><time>2026-04-26T07:32:18.998Z</time></trkpt><trkpt lat="45.4166797469027" lon="11.520005440353424"><ele>327.0</ele><time>2026-04-26T07:32:21.998Z</time></trkpt><trkpt lat="45.416615098946004" lon="11.520009577622863"><ele>327.0</ele><time>2026-04-26T07:32:24.998Z</time></trkpt><trkpt lat="45.41653705434112" lon="11.519974750074436"><ele>327.0</ele><time>2026-04-26T07:32:28.997Z</time></trkpt><trkpt lat="45.41647197631395" lon="11.51990510979233"><ele>327.0</ele><time>2026-04-26T07:32:33.997Z</time></trkpt><trkpt lat="45.41640159607461" lon="11.51987995091861"><ele>327.0</ele><time>2026-04-26T07:32:37.997Z</time></trkpt><trkpt lat="45.41632772326703" lon="11.51983506957559"><ele>327.0</ele><time>2026-04-26T07:32:42Z</time></trkpt><trkpt lat="45.41626070504863" lon="11.51977941784308"><ele>327.0</ele><time>2026-04-26T07:32:46Z</time></trkpt><trkpt lat="45.41620784812867" lon="11.519703068467722"><ele>327.0</ele><time>2026-04-26T07:32:50Z</time></trkpt><trkpt lat="45.41616383121419" lon="11.519636317498806"><ele>327.0</ele><time>2026-04-26T07:32:53Z</time></trkpt><trkpt lat="45.416128179333796" lon="11.519547167293492"><ele>327.0</ele><time>2026-04-26T07:33:11Z</time></trkpt><trkpt lat="45.41607154710099" lon="11.519487937744975"><ele>329.2857142857143</ele><time>2026-04-26T07:33:14.999Z</time></trkpt><trkpt lat="45.416031591890295" lon="11.519415102132738"><ele>331.57142857142856</ele><time>2026-04-26T07:33:17.999Z</time></trkpt><trkpt lat="45.416000129464315" lon="11.519304481129364"><ele>333.8571428571429</ele><time>2026-04-26T07:33:20.999Z</time></trkpt><trkpt lat="45.415985535787605" lon="11.519216087938874"><ele>336.1428571428571</ele><time>2026-04-26T07:33:23.999Z</time></trkpt><trkpt lat="45.41595332821079" lon="11.519128867064605"><ele>338.42857142857144</ele><time>2026-04-26T07:33:26.999Z</time></trkpt><trkpt lat="45.41592120488861" lon="11.519035550121524"><ele>340.7142857142857</ele><time>2026-04-26T07:33:29.999Z</time></trkpt><trkpt lat="45.41588974910726" lon="11.518941003216538"><ele>343.0</ele><time>2026-04-26T07:33:33.999Z</time></trkpt><trkpt lat="45.41586697778445" lon="11.518832219631166"><ele>343.0</ele><time>2026-04-26T07:33:36.999Z</time></trkpt><trkpt lat="45.41585096700102" lon="11.51871417047241"><ele>343.0</ele><time>2026-04-26T07:33:40.999Z</time></trkpt><trkpt lat="45.4158489461706" lon="11.51861742788767"><ele>343.0</ele><time>2026-04-26T07:33:43.999Z</time></trkpt><trkpt lat="45.41582311637961" lon="11.518518924317306"><ele>343.0</ele><time>2026-04-26T07:33:46.999Z</time></trkpt><trkpt lat="45.41581371685734" lon="11.518429811643982"><ele>343.0</ele><time>2026-04-26T07:33:49.999Z</time></trkpt><trkpt lat="45.41579124353893" lon="11.518335390710906"><ele>343.0</ele><time>2026-04-26T07:33:52.999Z</time></trkpt><trkpt lat="45.41580097338669" lon="11.518241634864193"><ele>343.0</ele><time>2026-04-26T07:33:55.998Z</time></trkpt><trkpt lat="45.41576971642706" lon="11.518143390629433"><ele>343.0</ele><time>2026-04-26T07:33:58.998Z</time></trkpt><trkpt lat="45.415751841511835" lon="11.518018901767547"><ele>343.0</ele><time>2026-04-26T07:34:02.998Z</time></trkpt><trkpt lat="45.41572682802433" lon="11.517935331556401"><ele>343.0</ele><time>2026-04-26T07:34:05.998Z</time></trkpt><trkpt lat="45.4157197436066" lon="11.517837135110033"><ele>343.0</ele><time>2026-04-26T07:34:08.998Z</time></trkpt><trkpt lat="45.415710785397295" lon="11.517725137214684"><ele>343.0</ele><time>2026-04-26T07:34:12.998Z</time></trkpt><trkpt lat="45.415704479710314" lon="11.517613122423283"><ele>343.0</ele><time>2026-04-26T07:34:15.998Z</time></trkpt><trkpt lat="45.415699458825195" lon="11.517511840278464"><ele>343.66666666666663</ele><time>2026-04-26T07:34:18.998Z</time></trkpt><trkpt lat="45.41568258561995" lon="11.517424033414532"><ele>344.3333333333333</ele><time>2026-04-26T07:34:24.998Z</time></trkpt><trkpt lat="45.41566819679195" lon="11.517335651912116"><ele>345.0</ele><time>2026-04-26T07:34:28.998Z</time></trkpt><trkpt lat="45.41566542868173" lon="11.517241606056198"><ele>345.6666666666667</ele><time>2026-04-26T07:34:30.998Z</time></trkpt><trkpt lat="45.41568868682631" lon="11.517096265330308"><ele>346.33333333333337</ele><time>2026-04-26T07:34:34.997Z</time></trkpt><trkpt lat="45.41565292398969" lon="11.516914778634652"><ele>347.0</ele><time>2026-04-26T07:34:37.997Z</time></trkpt><trkpt lat="45.415628915088845" lon="11.516780764982569"><ele>347.33333333333337</ele><time>2026-04-26T07:34:38.997Z</time></trkpt><trkpt lat="45.4156123166985" lon="11.516688116751492"><ele>347.6666666666667</ele><time>2026-04-26T07:34:39.997Z</time></trkpt><trkpt lat="45.41557591011052" lon="11.516542466710463"><ele>348.0</ele><time>2026-04-26T07:34:41.997Z</time></trkpt><trkpt lat="45.41551844588646" lon="11.516480029938466"><ele>348.3333333333333</ele><time>2026-04-26T07:34:43.997Z</time></trkpt><trkpt lat="45.41544940614816" lon="11.516435769704822"><ele>348.66666666666663</ele><time>2026-04-26T07:34:47Z</time></trkpt><trkpt lat="45.41539925431936" lon="11.516373579059916"><ele>349.0</ele><time>2026-04-26T07:34:49Z</time></trkpt><trkpt lat="45.415322162286415" lon="11.516357190094508"><ele>348.99999999999994</ele><time>2026-04-26T07:34:52Z</time></trkpt><trkpt lat="45.415247374418385" lon="11.51635141341674"><ele>349.0</ele><time>2026-04-26T07:34:55Z</time></trkpt><trkpt lat="45.41518952603425" lon="11.516314932386884"><ele>349.0</ele><time>2026-04-26T07:34:58Z</time></trkpt><trkpt lat="45.41512593260108" lon="11.51627684995741"><ele>349.0</ele><time>2026-04-26T07:35:01Z</time></trkpt><trkpt lat="45.41504459963171" lon="11.516242263680931"><ele>349.0</ele><time>2026-04-26T07:35:05Z</time></trkpt><trkpt lat="45.4149871066793" lon="11.516182277814359"><ele>348.99999999999994</ele><time>2026-04-26T07:35:08Z</time></trkpt><trkpt lat="45.41493025412581" lon="11.516138193433862"><ele>349.0</ele><time>2026-04-26T07:35:11Z</time></trkpt><trkpt lat="45.414903733706474" lon="11.516034356728941"><ele>349.57142857142856</ele><time>2026-04-26T07:35:14Z</time></trkpt><trkpt lat="45.41488021393499" lon="11.515937371931267"><ele>350.1428571428571</ele><time>2026-04-26T07:35:16.999Z</time></trkpt><trkpt lat="45.41482501317951" lon="11.51586940869008"><ele>350.71428571428567</ele><time>2026-04-26T07:35:20.999Z</time></trkpt><trkpt lat="45.41476825142347" lon="11.515826504548448"><ele>351.2857142857143</ele><time>2026-04-26T07:35:23.999Z</time></trkpt><trkpt lat="45.4147256408545" lon="11.515731274310868"><ele>351.8571428571429</ele><time>2026-04-26T07:35:27.999Z</time></trkpt><trkpt lat="45.414671592782994" lon="11.515642407526348"><ele>352.4285714285714</ele><time>2026-04-26T07:35:31.999Z</time></trkpt><trkpt lat="45.41460470706381" lon="11.51562731408416"><ele>353.0</ele><time>2026-04-26T07:35:34.999Z</time></trkpt><trkpt lat="45.4145158610651" lon="11.515578782681509"><ele>353.5</ele><time>2026-04-26T07:36:26.998Z</time></trkpt><trkpt lat="45.41446121781009" lon="11.515646655440332"><ele>354.0</ele><time>2026-04-26T07:40:20.998Z</time></trkpt><trkpt lat="45.414434407182945" lon="11.515740163060643"><ele>354.5</ele><time>2026-04-26T07:40:23.998Z</time></trkpt><trkpt lat="45.414389489374344" lon="11.515840799538223"><ele>355.0</ele><time>2026-04-26T07:40:27.998Z</time></trkpt><trkpt lat="45.414314715578165" lon="11.515942642085461"><ele>355.5</ele><time>2026-04-26T07:40:30.998Z</time></trkpt><trkpt lat="45.414258944665534" lon="11.516017037907902"><ele>356.0</ele><time>2026-04-26T07:40:32.998Z</time></trkpt><trkpt lat="45.414196460948254" lon="11.516111928506628"><ele>355.99999999999994</ele><time>2026-04-26T07:40:36.998Z</time></trkpt><trkpt lat="45.41411840806199" lon="11.516142978122737"><ele>356.0</ele><time>2026-04-26T07:40:39.998Z</time></trkpt><trkpt lat="45.414047188385304" lon="11.516200487229098"><ele>356.0</ele><time>2026-04-26T07:40:42.998Z</time></trkpt><trkpt lat="45.41396449087006" lon="11.516248413932418"><ele>356.0</ele><time>2026-04-26T07:40:46.998Z</time></trkpt><trkpt lat="45.413904034687995" lon="11.516286616423926"><ele>356.0</ele><time>2026-04-26T07:40:48.998Z</time></trkpt><trkpt lat="45.41384774581066" lon="11.516327849434532"><ele>355.99999999999994</ele><time>2026-04-26T07:40:50.998Z</time></trkpt><trkpt lat="45.41379370446339" lon="11.516379296579597"><ele>356.0</ele><time>2026-04-26T07:40:54.997Z</time></trkpt><trkpt lat="45.41371660872933" lon="11.516415571166567"><ele>356.5</ele><time>2026-04-26T07:41:03Z</time></trkpt><trkpt lat="45.413667089411334" lon="11.51633791430362"><ele>357.0</ele><time>2026-04-26T07:41:07Z</time></trkpt><trkpt lat="45.41358885259077" lon="11.516271247391549"><ele>357.5</ele><time>2026-04-26T07:41:10Z</time></trkpt><trkpt lat="45.41353722837959" lon="11.516151930826895"><ele>358.0</ele><time>2026-04-26T07:41:13Z</time></trkpt><trkpt lat="45.41352651119904" lon="11.516061202621755"><ele>358.5</ele><time>2026-04-26T07:41:15Z</time></trkpt><trkpt lat="45.41353428119954" lon="11.515947702786049"><ele>359.0</ele><time>2026-04-26T07:41:17Z</time></trkpt><trkpt lat="45.41345066769402" lon="11.515853997483017"><ele>357.5</ele><time>2026-04-26T07:41:20Z</time></trkpt><trkpt lat="45.413343336002626" lon="11.515858037031125"><ele>356.0</ele><time>2026-04-26T07:41:22Z</time></trkpt><trkpt lat="45.41325209738325" lon="11.51586303412799"><ele>354.5</ele><time>2026-04-26T07:41:24Z</time></trkpt><trkpt lat="45.413181036251515" lon="11.515846642334912"><ele>353.0</ele><time>2026-04-26T07:41:26Z</time></trkpt><trkpt lat="45.41309743156716" lon="11.515824581234048"><ele>351.5</ele><time>2026-04-26T07:41:29Z</time></trkpt><trkpt lat="45.41303901696513" lon="11.515783847703037"><ele>350.0</ele><time>2026-04-26T07:41:34Z</time></trkpt><trkpt lat="45.41299320062011" lon="11.515708685310596"><ele>350.0</ele><time>2026-04-26T07:41:39.999Z</time></trkpt><trkpt lat="45.41296957135477" lon="11.515619568254364"><ele>350.0</ele><time>2026-04-26T07:41:42.999Z</time></trkpt><trkpt lat="45.41298949243109" lon="11.51552718349105"><ele>350.0</ele><time>2026-04-26T07:41:44.999Z</time></trkpt><trkpt lat="45.41298782114601" lon="11.515403886817596"><ele>350.0</ele><time>2026-04-26T07:41:47.999Z</time></trkpt><trkpt lat="45.41300762518829" lon="11.51531092998375"><ele>350.0</ele><time>2026-04-26T07:41:49.999Z</time></trkpt><trkpt lat="45.41304560770568" lon="11.515196249039874"><ele>350.0</ele><time>2026-04-26T07:41:52.999Z</time></trkpt><trkpt lat="45.413056664188396" lon="11.515089135985761"><ele>348.33333333333337</ele><time>2026-04-26T07:41:54.999Z</time></trkpt><trkpt lat="45.41305374115719" lon="11.514986006724353"><ele>346.6666666666667</ele><time>2026-04-26T07:41:56.999Z</time></trkpt><trkpt lat="45.413043454897995" lon="11.514876479647748"><ele>345.0</ele><time>2026-04-26T07:41:58.999Z</time></trkpt><trkpt lat="45.41305570617826" lon="11.51478688561543"><ele>343.3333333333333</ele><time>2026-04-26T07:42:00.999Z</time></trkpt><trkpt lat="45.41302952557736" lon="11.514649259781066"><ele>341.66666666666663</ele><time>2026-04-26T07:42:02.999Z</time></trkpt><trkpt lat="45.412997864053196" lon="11.514548555384206"><ele>340.0</ele><time>2026-04-26T07:42:04.999Z</time></trkpt><trkpt lat="45.41295178954731" lon="11.514464634414292"><ele>340.0</ele><time>2026-04-26T07:42:06.999Z</time></trkpt><trkpt lat="45.41292889759038" lon="11.51430016088465"><ele>340.0</ele><time>2026-04-26T07:42:08.999Z</time></trkpt><trkpt lat="45.41290980631771" lon="11.514123832587284"><ele>340.0</ele><time>2026-04-26T07:42:10.999Z</time></trkpt><trkpt lat="45.41292204165086" lon="11.513966231449242"><ele>340.0</ele><time>2026-04-26T07:42:12.999Z</time></trkpt><trkpt lat="45.412929184830766" lon="11.513870537685461"><ele>340.0</ele><time>2026-04-26T07:42:13.999Z</time></trkpt><trkpt lat="45.412917267848385" lon="11.5137245507217"><ele>338.4</ele><time>2026-04-26T07:42:15.999Z</time></trkpt><trkpt lat="45.41291848072805" lon="11.513582937440066"><ele>336.8</ele><time>2026-04-26T07:42:17.998Z</time></trkpt><trkpt lat="45.41285655332423" lon="11.513450912080486"><ele>335.20000000000005</ele><time>2026-04-26T07:42:19.998Z</time></trkpt><trkpt lat="45.41279866172584" lon="11.513345644470668"><ele>333.6</ele><time>2026-04-26T07:42:21.998Z</time></trkpt><trkpt lat="45.41268040537845" lon="11.51328749487411"><ele>332.0</ele><time>2026-04-26T07:42:23.998Z</time></trkpt><trkpt lat="45.41260811765919" lon="11.513248573330166"><ele>332.0</ele><time>2026-04-26T07:42:24.998Z</time></trkpt><trkpt lat="45.41252689240433" lon="11.51312970773061"><ele>332.0</ele><time>2026-04-26T07:42:26.998Z</time></trkpt><trkpt lat="45.41244297480876" lon="11.513003932408708"><ele>332.0</ele><time>2026-04-26T07:42:28.998Z</time></trkpt><trkpt lat="45.41235738663881" lon="11.512894747188154"><ele>332.0</ele><time>2026-04-26T07:42:30.998Z</time></trkpt><trkpt lat="45.41226915269564" lon="11.512776914690974"><ele>331.40000000000003</ele><time>2026-04-26T07:42:32.998Z</time></trkpt><trkpt lat="45.41221016663621" lon="11.512660885588625"><ele>330.8</ele><time>2026-04-26T07:42:34.998Z</time></trkpt><trkpt lat="45.412166942527016" lon="11.512529498362573"><ele>330.2</ele><time>2026-04-26T07:42:36.998Z</time></trkpt><trkpt lat="45.412140203954706" lon="11.512403215839939"><ele>329.6</ele><time>2026-04-26T07:42:38.998Z</time></trkpt><trkpt lat="45.4121200231925" lon="11.512301162744114"><ele>329.0</ele><time>2026-04-26T07:42:42.998Z</time></trkpt><trkpt lat="45.412086793305285" lon="11.512186288279494"><ele>329.0</ele><time>2026-04-26T07:42:45.998Z</time></trkpt><trkpt lat="45.412065775092564" lon="11.51209185405645"><ele>329.0</ele><time>2026-04-26T07:42:47.998Z</time></trkpt><trkpt lat="45.4120315018576" lon="11.511999129450704"><ele>329.0</ele><time>2026-04-26T07:42:49.998Z</time></trkpt><trkpt lat="45.41196812656209" lon="11.511951343226844"><ele>329.0</ele><time>2026-04-26T07:42:53.998Z</time></trkpt><trkpt lat="45.41192564900269" lon="11.512036908113616"><ele>329.0</ele><time>2026-04-26T07:42:56.998Z</time></trkpt><trkpt lat="45.411867984735" lon="11.512092129994443"><ele>329.0</ele><time>2026-04-26T07:42:59.997Z</time></trkpt><trkpt lat="45.41180123372096" lon="11.512140789024734"><ele>329.0</ele><time>2026-04-26T07:43:02.997Z</time></trkpt><trkpt lat="45.41174852199782" lon="11.512192177730622"><ele>329.0</ele><time>2026-04-26T07:43:06.997Z</time></trkpt><trkpt lat="45.41168578092946" lon="11.512249302716846"><ele>329.0</ele><time>2026-04-26T07:43:11Z</time></trkpt><trkpt lat="45.41162325461342" lon="11.512285197910899"><ele>329.0</ele><time>2026-04-26T07:43:14Z</time></trkpt><trkpt lat="45.41154944450484" lon="11.512302451524883"><ele>329.0</ele><time>2026-04-26T07:43:18Z</time></trkpt><trkpt lat="45.41148413642345" lon="11.5123374809069"><ele>329.0</ele><time>2026-04-26T07:43:22Z</time></trkpt><trkpt lat="45.41142031348795" lon="11.51238407450033"><ele>329.0</ele><time>2026-04-26T07:43:26Z</time></trkpt><trkpt lat="45.41134132034827" lon="11.512368131671145"><ele>329.0</ele><time>2026-04-26T07:43:30Z</time></trkpt><trkpt lat="45.41127025331093" lon="11.512361802283557"><ele>330.0</ele><time>2026-04-26T07:43:33Z</time></trkpt><trkpt lat="45.411178759292895" lon="11.51231979604084"><ele>331.0</ele><time>2026-04-26T07:43:37Z</time></trkpt><trkpt lat="45.41111844125246" lon="11.512262132124658"><ele>332.0</ele><time>2026-04-26T07:43:41Z</time></trkpt><trkpt lat="45.41104023734567" lon="11.512238819211804"><ele>333.0</ele><time>2026-04-26T07:43:43.999Z</time></trkpt><trkpt lat="45.410968127427516" lon="11.512228498024768"><ele>334.0</ele><time>2026-04-26T07:43:45.999Z</time></trkpt><trkpt lat="45.41089817554892" lon="11.512237853289774"><ele>335.0</ele><time>2026-04-26T07:43:47.999Z</time></trkpt><trkpt lat="45.410820347732454" lon="11.512251685625051"><ele>335.0</ele><time>2026-04-26T07:43:50.999Z</time></trkpt><trkpt lat="45.410739130841684" lon="11.512311106281434"><ele>335.0</ele><time>2026-04-26T07:43:53.999Z</time></trkpt><trkpt lat="45.41069873523221" lon="11.512412180682402"><ele>335.0</ele><time>2026-04-26T07:43:57.999Z</time></trkpt><trkpt lat="45.410653987107864" lon="11.512482205748476"><ele>335.0</ele><time>2026-04-26T07:44:02.999Z</time></trkpt><trkpt lat="45.410574302533185" lon="11.512504168592674"><ele>335.0</ele><time>2026-04-26T07:44:05.999Z</time></trkpt><trkpt lat="45.41050316086113" lon="11.512538850057743"><ele>335.0</ele><time>2026-04-26T07:44:08.999Z</time></trkpt><trkpt lat="45.410436997434196" lon="11.512536981882475"><ele>335.85714285714283</ele><time>2026-04-26T07:44:11.999Z</time></trkpt><trkpt lat="45.41037180754525" lon="11.512552191459491"><ele>336.7142857142857</ele><time>2026-04-26T07:44:14.999Z</time></trkpt><trkpt lat="45.4103247764438" lon="11.512485381495923"><ele>337.57142857142856</ele><time>2026-04-26T07:44:19.999Z</time></trkpt><trkpt lat="45.41025993049373" lon="11.512483370242082"><ele>338.42857142857144</ele><time>2026-04-26T07:44:23.998Z</time></trkpt><trkpt lat="45.41023181036908" lon="11.512563935509556"><ele>339.2857142857143</ele><time>2026-04-26T07:44:43.998Z</time></trkpt><trkpt lat="45.41020792830096" lon="11.512651964279831"><ele>340.1428571428571</ele><time>2026-04-26T07:45:13.997Z</time></trkpt><trkpt lat="45.41014578691437" lon="11.51269181786366"><ele>341.0</ele><time>2026-04-26T07:45:16Z</time></trkpt><trkpt lat="45.41011906168621" lon="11.512783913113852"><ele>341.0</ele><time>2026-04-26T07:45:18Z</time></trkpt><trkpt lat="45.4100911805155" lon="11.51287975201686"><ele>341.0</ele><time>2026-04-26T07:45:21Z</time></trkpt><trkpt lat="45.41005148810295" lon="11.512965700973574"><ele>341.0</ele><time>2026-04-26T07:45:24Z</time></trkpt><trkpt lat="45.41003975250476" lon="11.51308663356546"><ele>341.0</ele><time>2026-04-26T07:45:27Z</time></trkpt><trkpt lat="45.41002139594727" lon="11.513180274561128"><ele>341.0</ele><time>2026-04-26T07:45:31Z</time></trkpt><trkpt lat="45.4099836011589" lon="11.513268551642458"><ele>341.0</ele><time>2026-04-26T07:45:34Z</time></trkpt><trkpt lat="45.40994784916832" lon="11.51335152344634"><ele>341.0</ele><time>2026-04-26T07:45:37Z</time></trkpt><trkpt lat="45.409909044608256" lon="11.513433398997808"><ele>340.6</ele><time>2026-04-26T07:45:40Z</time></trkpt><trkpt lat="45.40984442927223" lon="11.513480214294974"><ele>340.20000000000005</ele><time>2026-04-26T07:45:43Z</time></trkpt><trkpt lat="45.40978062364834" lon="11.513584828933336"><ele>339.79999999999995</ele><time>2026-04-26T07:45:46Z</time></trkpt><trkpt lat="45.40969618811004" lon="11.513671412150728"><ele>339.4</ele><time>2026-04-26T07:45:48Z</time></trkpt><trkpt lat="45.40962567067825" lon="11.513732726637404"><ele>339.0</ele><time>2026-04-26T07:45:49.999Z</time></trkpt><trkpt lat="45.4095271001107" lon="11.513791337552254"><ele>340.5</ele><time>2026-04-26T07:45:51.999Z</time></trkpt><trkpt lat="45.409449217351934" lon="11.513847980539202"><ele>342.0</ele><time>2026-04-26T07:45:53.999Z</time></trkpt><trkpt lat="45.409371509370075" lon="11.513910294396585"><ele>343.5</ele><time>2026-04-26T07:45:56.999Z</time></trkpt><trkpt lat="45.409331927429044" lon="11.513994064782278"><ele>345.0</ele><time>2026-04-26T07:45:59.999Z</time></trkpt><trkpt lat="45.40926492779664" lon="11.513998337351333"><ele>346.5</ele><time>2026-04-26T07:46:00.999Z</time></trkpt><trkpt lat="45.409178176241454" lon="11.513972410094674"><ele>348.0</ele><time>2026-04-26T07:46:02.999Z</time></trkpt><trkpt lat="45.409118239966084" lon="11.513904196688278"><ele>348.0</ele><time>2026-04-26T07:46:03.999Z</time></trkpt><trkpt lat="45.40903557635645" lon="11.513818247507468"><ele>348.0</ele><time>2026-04-26T07:46:05.999Z</time></trkpt><trkpt lat="45.40894924851661" lon="11.513775640947117"><ele>348.0</ele><time>2026-04-26T07:46:07.999Z</time></trkpt><trkpt lat="45.40887457280536" lon="11.51372062295449"><ele>348.0</ele><time>2026-04-26T07:46:10.999Z</time></trkpt><trkpt lat="45.40879329844237" lon="11.513712455343287"><ele>348.0</ele><time>2026-04-26T07:46:12.999Z</time></trkpt><trkpt lat="45.408727006370256" lon="11.51371163062838"><ele>348.0</ele><time>2026-04-26T07:46:14.999Z</time></trkpt><trkpt lat="45.40862526942136" lon="11.513617790500486"><ele>344.4</ele><time>2026-04-26T07:46:16.999Z</time></trkpt><trkpt lat="45.40854230737908" lon="11.51353992952733"><ele>340.79999999999995</ele><time>2026-04-26T07:46:18.999Z</time></trkpt><trkpt lat="45.40846345716732" lon="11.513499889483702"><ele>337.2</ele><time>2026-04-26T07:46:20.999Z</time></trkpt><trkpt lat="45.408388104933" lon="11.513425561181636"><ele>333.6</ele><time>2026-04-26T07:46:22.999Z</time></trkpt><trkpt lat="45.408315128348505" lon="11.513335205983273"><ele>330.0</ele><time>2026-04-26T07:46:24.999Z</time></trkpt><trkpt lat="45.40822692301564" lon="11.513255242806855"><ele>330.0</ele><time>2026-04-26T07:46:26.999Z</time></trkpt><trkpt lat="45.408151819440526" lon="11.513210177739063"><ele>330.0</ele><time>2026-04-26T07:46:28.999Z</time></trkpt><trkpt lat="45.40811926942073" lon="11.513103021133212"><ele>330.0</ele><time>2026-04-26T07:46:42.998Z</time></trkpt><trkpt lat="45.4081330274388" lon="11.512983953251682"><ele>330.0</ele><time>2026-04-26T07:46:45.998Z</time></trkpt><trkpt lat="45.40814020438125" lon="11.51287192833857"><ele>330.0</ele><time>2026-04-26T07:46:47.998Z</time></trkpt><trkpt lat="45.40813845903214" lon="11.512748889737162"><ele>330.0</ele><time>2026-04-26T07:46:49.998Z</time></trkpt><trkpt lat="45.408140928809296" lon="11.512641250041332"><ele>329.3333333333333</ele><time>2026-04-26T07:46:52.998Z</time></trkpt><trkpt lat="45.408121447360024" lon="11.512543286721789"><ele>328.6666666666667</ele><time>2026-04-26T07:46:55.998Z</time></trkpt><trkpt lat="45.40808631489198" lon="11.512435428123236"><ele>328.0</ele><time>2026-04-26T07:46:58.998Z</time></trkpt><trkpt lat="45.408061909423665" lon="11.512335348756332"><ele>327.33333333333337</ele><time>2026-04-26T07:47:03.998Z</time></trkpt><trkpt lat="45.40804692209877" lon="11.512226483056532"><ele>326.6666666666667</ele><time>2026-04-26T07:47:07.998Z</time></trkpt><trkpt lat="45.408053004858324" lon="11.512106572522814"><ele>326.0</ele><time>2026-04-26T07:47:10.997Z</time></trkpt><trkpt lat="45.40809335253426" lon="11.511986574971392"><ele>325.6666666666667</ele><time>2026-04-26T07:47:13.997Z</time></trkpt><trkpt lat="45.408127227257374" lon="11.51187547548315"><ele>325.33333333333337</ele><time>2026-04-26T07:47:16.997Z</time></trkpt><trkpt lat="45.40818893981785" lon="11.511761361298559"><ele>325.0</ele><time>2026-04-26T07:47:19.997Z</time></trkpt><trkpt lat="45.40822349602831" lon="11.511664479389305"><ele>324.6666666666667</ele><time>2026-04-26T07:47:23Z</time></trkpt><trkpt lat="45.4082570591401" lon="11.511561783516514"><ele>324.3333333333333</ele><time>2026-04-26T07:47:26Z</time></trkpt><trkpt lat="45.408299521093234" lon="11.511455129395554"><ele>324.0</ele><time>2026-04-26T07:47:30Z</time></trkpt><trkpt lat="45.40834272687303" lon="11.511344317106566"><ele>324.0</ele><time>2026-04-26T07:47:33Z</time></trkpt><trkpt lat="45.40836570019981" lon="11.51124465792285"><ele>324.0</ele><time>2026-04-26T07:47:35Z</time></trkpt><trkpt lat="45.40841769127224" lon="11.511151100783614"><ele>324.0</ele><time>2026-04-26T07:47:37Z</time></trkpt><trkpt lat="45.40846894805813" lon="11.511056323457783"><ele>324.0</ele><time>2026-04-26T07:47:39Z</time></trkpt><trkpt lat="45.408541995476305" lon="11.51093633857824"><ele>324.0</ele><time>2026-04-26T07:47:41Z</time></trkpt><trkpt lat="45.408596499678104" lon="11.510886489104058"><ele>324.0</ele><time>2026-04-26T07:47:43Z</time></trkpt><trkpt lat="45.40860594933274" lon="11.510787633071772"><ele>324.5</ele><time>2026-04-26T07:47:45Z</time></trkpt><trkpt lat="45.40866166882315" lon="11.51073608401903"><ele>325.0</ele><time>2026-04-26T07:47:46Z</time></trkpt><trkpt lat="45.40872226827699" lon="11.510672546739004"><ele>325.5</ele><time>2026-04-26T07:47:48Z</time></trkpt><trkpt lat="45.40880810297232" lon="11.510623528208031"><ele>326.0</ele><time>2026-04-26T07:47:51Z</time></trkpt><trkpt lat="45.40889989661906" lon="11.510614738436"><ele>326.5</ele><time>2026-04-26T07:47:53Z</time></trkpt><trkpt lat="45.40899648378892" lon="11.510624838691902"><ele>327.0</ele><time>2026-04-26T07:47:55Z</time></trkpt><trkpt lat="45.40908401159231" lon="11.51062248096666"><ele>325.5</ele><time>2026-04-26T07:47:57.999Z</time></trkpt><trkpt lat="45.409148244773974" lon="11.510585206508155"><ele>324.0</ele><time>2026-04-26T07:47:59.999Z</time></trkpt><trkpt lat="45.409236897395594" lon="11.510497893888115"><ele>322.5</ele><time>2026-04-26T07:48:01.999Z</time></trkpt><trkpt lat="45.409303058413094" lon="11.510429288410789"><ele>321.0</ele><time>2026-04-26T07:48:03.999Z</time></trkpt><trkpt lat="45.40933346082621" lon="11.51031574613689"><ele>319.5</ele><time>2026-04-26T07:48:05.999Z</time></trkpt><trkpt lat="45.409333402039834" lon="11.51018264370766"><ele>318.0</ele><time>2026-04-26T07:48:07.999Z</time></trkpt><trkpt lat="45.40932673990013" lon="11.510050789492546"><ele>318.0</ele><time>2026-04-26T07:48:09.999Z</time></trkpt><trkpt lat="45.409325530424475" lon="11.509933155719606"><ele>318.0</ele><time>2026-04-26T07:48:11.999Z</time></trkpt><trkpt lat="45.40925829421492" lon="11.509795450034119"><ele>318.0</ele><time>2026-04-26T07:48:13.999Z</time></trkpt><trkpt lat="45.40919714659999" lon="11.509726987095686"><ele>318.0</ele><time>2026-04-26T07:48:15.999Z</time></trkpt><trkpt lat="45.409116409753544" lon="11.50976009175299"><ele>318.0</ele><time>2026-04-26T07:48:17.999Z</time></trkpt><trkpt lat="45.4090126452851" lon="11.509750297367193"><ele>318.0</ele><time>2026-04-26T07:48:20.999Z</time></trkpt><trkpt lat="45.408931057175636" lon="11.509757016824953"><ele>318.0</ele><time>2026-04-26T07:48:23.999Z</time></trkpt><trkpt lat="45.4088321365478" lon="11.509726727588383"><ele>318.0</ele><time>2026-04-26T07:48:44.998Z</time></trkpt><trkpt lat="45.408760750449865" lon="11.509617909219608"><ele>318.0</ele><time>2026-04-26T07:48:46.998Z</time></trkpt><trkpt lat="45.40869024399555" lon="11.509510832666491"><ele>318.0</ele><time>2026-04-26T07:48:48.998Z</time></trkpt><trkpt lat="45.408553558734894" lon="11.509493140904137"><ele>316.8</ele><time>2026-04-26T07:48:50.998Z</time></trkpt><trkpt lat="45.408482672123895" lon="11.509405111104915"><ele>315.6</ele><time>2026-04-26T07:48:51.998Z</time></trkpt><trkpt lat="45.408380552550234" lon="11.509377657695202"><ele>314.4</ele><time>2026-04-26T07:48:53.998Z</time></trkpt><trkpt lat="45.40832945598482" lon="11.509466934201587"><ele>313.2</ele><time>2026-04-26T07:48:54.998Z</time></trkpt><trkpt lat="45.40825461674213" lon="11.509376576351956"><ele>312.0</ele><time>2026-04-26T07:48:57.998Z</time></trkpt><trkpt lat="45.40817125854853" lon="11.509296578588618"><ele>312.0</ele><time>2026-04-26T07:48:59.998Z</time></trkpt><trkpt lat="45.40811330335607" lon="11.509215227105976"><ele>312.0</ele><time>2026-04-26T07:49:01.998Z</time></trkpt><trkpt lat="45.40803297212989" lon="11.509142606521753"><ele>312.0</ele><time>2026-04-26T07:49:03.998Z</time></trkpt><trkpt lat="45.407963332514264" lon="11.509076547174825"><ele>312.0</ele><time>2026-04-26T07:49:05.998Z</time></trkpt><trkpt lat="45.40788539330921" lon="11.509011666330355"><ele>312.0</ele><time>2026-04-26T07:49:07.998Z</time></trkpt><trkpt lat="45.40779008213611" lon="11.508986842789314"><ele>312.0</ele><time>2026-04-26T07:49:09.998Z</time></trkpt><trkpt lat="45.407727358813936" lon="11.508970805329408"><ele>312.6666666666667</ele><time>2026-04-26T07:49:11.998Z</time></trkpt><trkpt lat="45.407638485362355" lon="11.508984447056326"><ele>313.3333333333333</ele><time>2026-04-26T07:49:14.998Z</time></trkpt><trkpt lat="45.40757728004859" lon="11.509028759127016"><ele>314.0</ele><time>2026-04-26T07:49:16.997Z</time></trkpt><trkpt lat="45.40750378393674" lon="11.509065570445811"><ele>314.66666666666663</ele><time>2026-04-26T07:49:18.997Z</time></trkpt><trkpt lat="45.407420262281896" lon="11.50909145311591"><ele>315.3333333333333</ele><time>2026-04-26T07:49:20.997Z</time></trkpt><trkpt lat="45.407326291902116" lon="11.509124926677929"><ele>316.0</ele><time>2026-04-26T07:49:22.997Z</time></trkpt><trkpt lat="45.40725643848216" lon="11.50910933565287"><ele>316.0</ele><time>2026-04-26T07:49:27Z</time></trkpt><trkpt lat="45.40719309513828" lon="11.509117951497544"><ele>316.0</ele><time>2026-04-26T07:49:28Z</time></trkpt><trkpt lat="45.407099660713634" lon="11.509138993778691"><ele>316.0</ele><time>2026-04-26T07:49:29Z</time></trkpt><trkpt lat="45.40701710353401" lon="11.50917632704666"><ele>316.0</ele><time>2026-04-26T07:49:30Z</time></trkpt><trkpt lat="45.40694238521604" lon="11.509211796742228"><ele>316.0</ele><time>2026-04-26T07:49:31Z</time></trkpt><trkpt lat="45.40687088196036" lon="11.50936381559595"><ele>314.2</ele><time>2026-04-26T07:49:33Z</time></trkpt><trkpt lat="45.4068275096718" lon="11.509441702585539"><ele>312.40000000000003</ele><time>2026-04-26T07:49:34Z</time></trkpt><trkpt lat="45.40676008796071" lon="11.509570435187557"><ele>310.6</ele><time>2026-04-26T07:49:36Z</time></trkpt><trkpt lat="45.406677866470986" lon="11.509688860481598"><ele>308.8</ele><time>2026-04-26T07:49:38Z</time></trkpt><trkpt lat="45.40658936219457" lon="11.5097537847886"><ele>307.0</ele><time>2026-04-26T07:49:40Z</time></trkpt><trkpt lat="45.406514553056404" lon="11.50973009022331"><ele>307.0</ele><time>2026-04-26T07:49:41Z</time></trkpt><trkpt lat="45.40644184678119" lon="11.509653652403584"><ele>307.0</ele><time>2026-04-26T07:49:42Z</time></trkpt><trkpt lat="45.40635540355934" lon="11.509586710542456"><ele>307.0</ele><time>2026-04-26T07:49:43Z</time></trkpt><trkpt lat="45.40626474324192" lon="11.509513304098304"><ele>307.0</ele><time>2026-04-26T07:49:44Z</time></trkpt><trkpt lat="45.40619166233116" lon="11.509444336982966"><ele>307.0</ele><time>2026-04-26T07:49:45Z</time></trkpt><trkpt lat="45.406111038674865" lon="11.509391750716444"><ele>304.16666666666663</ele><time>2026-04-26T07:49:46Z</time></trkpt><trkpt lat="45.40603961615209" lon="11.509331804055092"><ele>301.3333333333333</ele><time>2026-04-26T07:49:47Z</time></trkpt><trkpt lat="45.40596210801558" lon="11.509302336541115"><ele>298.5</ele><time>2026-04-26T07:49:48Z</time></trkpt><trkpt lat="45.40588324356038" lon="11.509281434251305"><ele>295.6666666666667</ele><time>2026-04-26T07:49:49Z</time></trkpt><trkpt lat="45.40580238650777" lon="11.509260605711397"><ele>292.83333333333337</ele><time>2026-04-26T07:49:50Z</time></trkpt><trkpt lat="45.40572300138532" lon="11.50923818726253"><ele>290.0</ele><time>2026-04-26T07:49:51Z</time></trkpt><trkpt lat="45.40564236982482" lon="11.509224290117434"><ele>290.0</ele><time>2026-04-26T07:49:52Z</time></trkpt><trkpt lat="45.40557086850817" lon="11.509178526649485"><ele>290.0</ele><time>2026-04-26T07:49:53Z</time></trkpt><trkpt lat="45.405499068489334" lon="11.509153514378967"><ele>290.0</ele><time>2026-04-26T07:49:54Z</time></trkpt><trkpt lat="45.405431053054144" lon="11.509129820557945"><ele>290.0</ele><time>2026-04-26T07:49:55Z</time></trkpt><trkpt lat="45.405360911656636" lon="11.509105122177175"><ele>290.0</ele><time>2026-04-26T07:49:56Z</time></trkpt><trkpt lat="45.40529453793343" lon="11.50908488286683"><ele>290.0</ele><time>2026-04-26T07:49:57Z</time></trkpt><trkpt lat="45.405224854229985" lon="11.509066974102623"><ele>290.0</ele><time>2026-04-26T07:49:58Z</time></trkpt><trkpt lat="45.40515623192353" lon="11.509045335944105"><ele>291.0</ele><time>2026-04-26T07:49:58.999Z</time></trkpt><trkpt lat="45.40508847767451" lon="11.509014749720563"><ele>292.0</ele><time>2026-04-26T07:49:59.999Z</time></trkpt><trkpt lat="45.40498800976261" lon="11.508964154997578"><ele>293.0</ele><time>2026-04-26T07:50:01.999Z</time></trkpt><trkpt lat="45.40492762909649" lon="11.508933789577174"><ele>294.0</ele><time>2026-04-26T07:50:02.999Z</time></trkpt><trkpt lat="45.404865061563946" lon="11.508902324078722"><ele>295.0</ele><time>2026-04-26T07:50:03.999Z</time></trkpt><trkpt lat="45.40479406627784" lon="11.50887314013857"><ele>296.0</ele><time>2026-04-26T07:50:04.999Z</time></trkpt><trkpt lat="45.40471534918608" lon="11.508848653752503"><ele>295.2857142857143</ele><time>2026-04-26T07:50:05.999Z</time></trkpt><trkpt lat="45.404651908688464" lon="11.508853169111669"><ele>294.57142857142856</ele><time>2026-04-26T07:50:06.999Z</time></trkpt><trkpt lat="45.40457748116064" lon="11.508860481269895"><ele>293.85714285714283</ele><time>2026-04-26T07:50:07.999Z</time></trkpt><trkpt lat="45.40450690817006" lon="11.50887126597286"><ele>293.1428571428571</ele><time>2026-04-26T07:50:08.999Z</time></trkpt><trkpt lat="45.40444125582551" lon="11.50888564898164"><ele>292.4285714285714</ele><time>2026-04-26T07:50:09.999Z</time></trkpt><trkpt lat="45.404358445316944" lon="11.508913020123389"><ele>291.7142857142857</ele><time>2026-04-26T07:50:11.999Z</time></trkpt><trkpt lat="45.40429837161355" lon="11.508942029082014"><ele>291.0</ele><time>2026-04-26T07:50:13.999Z</time></trkpt><trkpt lat="45.40427095722835" lon="11.509043488519191"><ele>291.0</ele><time>2026-04-26T07:50:16.999Z</time></trkpt><trkpt lat="45.40421756356266" lon="11.509107318918987"><ele>291.0</ele><time>2026-04-26T07:50:19.999Z</time></trkpt><trkpt lat="45.40414702858774" lon="11.509080705620784"><ele>291.0</ele><time>2026-04-26T07:50:30.999Z</time></trkpt><trkpt lat="45.40408295379366" lon="11.509061480001188"><ele>291.0</ele><time>2026-04-26T07:50:36.999Z</time></trkpt><trkpt lat="45.40399833945653" lon="11.50904149082415"><ele>291.0</ele><time>2026-04-26T07:51:12.998Z</time></trkpt><trkpt lat="45.40394355118546" lon="11.508979997898386"><ele>291.0</ele><time>2026-04-26T07:51:19.997Z</time></trkpt><trkpt lat="45.40388444964447" lon="11.508936448363036"><ele>291.0</ele><time>2026-04-26T07:51:58Z</time></trkpt><trkpt lat="45.40382300982171" lon="11.508960183050895"><ele>289.3333333333333</ele><time>2026-04-26T07:52:05.999Z</time></trkpt><trkpt lat="45.40375740752324" lon="11.50896442219906"><ele>287.6666666666667</ele><time>2026-04-26T07:52:10.999Z</time></trkpt><trkpt lat="45.40368853968002" lon="11.50892179926567"><ele>286.0</ele><time>2026-04-26T07:52:16.999Z</time></trkpt><trkpt lat="45.40361189593128" lon="11.508894428098152"><ele>284.33333333333337</ele><time>2026-04-26T07:52:20.999Z</time></trkpt><trkpt lat="45.40352224739633" lon="11.508930564241192"><ele>282.6666666666667</ele><time>2026-04-26T07:52:24.999Z</time></trkpt><trkpt lat="45.40344500367035" lon="11.508967987358048"><ele>281.0</ele><time>2026-04-26T07:52:27.999Z</time></trkpt><trkpt lat="45.40336976737651" lon="11.508921828604736"><ele>281.0</ele><time>2026-04-26T07:52:30.999Z</time></trkpt><trkpt lat="45.40328133402544" lon="11.508921985029373"><ele>281.0</ele><time>2026-04-26T07:52:33.999Z</time></trkpt><trkpt lat="45.40321910401135" lon="11.508971449450101"><ele>281.0</ele><time>2026-04-26T07:52:35.999Z</time></trkpt><trkpt lat="45.403191271858645" lon="11.50907148167697"><ele>281.0</ele><time>2026-04-26T07:52:59.998Z</time></trkpt><trkpt lat="45.403267166815866" lon="11.509107678009363"><ele>281.0</ele><time>2026-04-26T07:53:40Z</time></trkpt><trkpt lat="45.40333400326653" lon="11.509141446581728"><ele>281.0</ele><time>2026-04-26T07:53:42Z</time></trkpt><trkpt lat="45.403389540098416" lon="11.509197170016481"><ele>281.0</ele><time>2026-04-26T07:53:45Z</time></trkpt><trkpt lat="45.40345804151815" lon="11.509272501185412"><ele>281.0</ele><time>2026-04-26T07:53:48Z</time></trkpt><trkpt lat="45.40350961575402" lon="11.509353814414702"><ele>281.0</ele><time>2026-04-26T07:53:51Z</time></trkpt><trkpt lat="45.403566359373116" lon="11.50941226360328"><ele>281.0</ele><time>2026-04-26T07:53:54Z</time></trkpt><trkpt lat="45.40358051676362" lon="11.509512909674255"><ele>281.0</ele><time>2026-04-26T07:53:57Z</time></trkpt><trkpt lat="45.40353770415234" lon="11.509589002365091"><ele>281.0</ele><time>2026-04-26T07:53:59Z</time></trkpt><trkpt lat="45.40351118209382" lon="11.509698799138087"><ele>280.1666666666667</ele><time>2026-04-26T07:54:02Z</time></trkpt><trkpt lat="45.403478350911676" lon="11.509812841872773"><ele>279.33333333333337</ele><time>2026-04-26T07:54:06Z</time></trkpt><trkpt lat="45.40345680145965" lon="11.509946016926785"><ele>278.5</ele><time>2026-04-26T07:54:09Z</time></trkpt><trkpt lat="45.40345192500251" lon="11.510044873404231"><ele>277.6666666666667</ele><time>2026-04-26T07:54:11Z</time></trkpt><trkpt lat="45.40345850352907" lon="11.510140971072722"><ele>276.8333333333333</ele><time>2026-04-26T07:54:12.999Z</time></trkpt><trkpt lat="45.403460235890435" lon="11.510247230430176"><ele>276.0</ele><time>2026-04-26T07:54:15.999Z</time></trkpt><trkpt lat="45.403393858578845" lon="11.510253554777522"><ele>276.0</ele><time>2026-04-26T07:54:18.999Z</time></trkpt><trkpt lat="45.40331205055936" lon="11.51016571125466"><ele>276.0</ele><time>2026-04-26T07:54:21.999Z</time></trkpt><trkpt lat="45.4032313458128" lon="11.510125780684847"><ele>276.0</ele><time>2026-04-26T07:54:23.999Z</time></trkpt><trkpt lat="45.40315518324708" lon="11.510099839541509"><ele>276.0</ele><time>2026-04-26T07:54:25.999Z</time></trkpt><trkpt lat="45.40306814771686" lon="11.510062915156517"><ele>276.0</ele><time>2026-04-26T07:54:27.999Z</time></trkpt><trkpt lat="45.40297154703941" lon="11.510039151725609"><ele>274.8333333333333</ele><time>2026-04-26T07:54:29.999Z</time></trkpt><trkpt lat="45.4028737356909" lon="11.510015901606137"><ele>273.6666666666667</ele><time>2026-04-26T07:54:31.999Z</time></trkpt><trkpt lat="45.4027884997679" lon="11.51003019552647"><ele>272.5</ele><time>2026-04-26T07:54:33.999Z</time></trkpt><trkpt lat="45.40271350703544" lon="11.510039852692984"><ele>271.33333333333337</ele><time>2026-04-26T07:54:35.999Z</time></trkpt><trkpt lat="45.402643948281884" lon="11.510063482200238"><ele>270.1666666666667</ele><time>2026-04-26T07:54:37.999Z</time></trkpt><trkpt lat="45.402568286438786" lon="11.51012679841088"><ele>269.0</ele><time>2026-04-26T07:54:39.999Z</time></trkpt><trkpt lat="45.40249466978891" lon="11.510143237124534"><ele>269.0</ele><time>2026-04-26T07:54:41.999Z</time></trkpt><trkpt lat="45.4023949261881" lon="11.510114011532849"><ele>269.0</ele><time>2026-04-26T07:54:43.999Z</time></trkpt><trkpt lat="45.402302543401504" lon="11.510115256391666"><ele>269.0</ele><time>2026-04-26T07:54:45.999Z</time></trkpt><trkpt lat="45.40222632957053" lon="11.5101151753371"><ele>269.0</ele><time>2026-04-26T07:54:47.999Z</time></trkpt><trkpt lat="45.40215354772876" lon="11.51010213765039"><ele>269.0</ele><time>2026-04-26T07:54:49.999Z</time></trkpt><trkpt lat="45.4020605396727" lon="11.51007576791756"><ele>269.0</ele><time>2026-04-26T07:54:51.998Z</time></trkpt><trkpt lat="45.40198754341018" lon="11.510109008842234"><ele>268.5</ele><time>2026-04-26T07:54:53.998Z</time></trkpt><trkpt lat="45.40191800367322" lon="11.51016266580628"><ele>268.0</ele><time>2026-04-26T07:54:55.998Z</time></trkpt><trkpt lat="45.40184639127973" lon="11.510217233591387"><ele>267.5</ele><time>2026-04-26T07:54:57.998Z</time></trkpt><trkpt lat="45.40175782530055" lon="11.510290937437073"><ele>267.0</ele><time>2026-04-26T07:54:59.998Z</time></trkpt><trkpt lat="45.40168584151587" lon="11.510340389645828"><ele>266.5</ele><time>2026-04-26T07:55:01.998Z</time></trkpt><trkpt lat="45.401595360764446" lon="11.51034856348877"><ele>266.0</ele><time>2026-04-26T07:55:03.998Z</time></trkpt><trkpt lat="45.401516674826354" lon="11.510373102389133"><ele>266.0</ele><time>2026-04-26T07:55:05.998Z</time></trkpt><trkpt lat="45.40140979438619" lon="11.510385429628833"><ele>266.0</ele><time>2026-04-26T07:55:07.998Z</time></trkpt><trkpt lat="45.40134042689858" lon="11.510355396809448"><ele>266.0</ele><time>2026-04-26T07:55:09.998Z</time></trkpt><trkpt lat="45.401247148653724" lon="11.510311398436965"><ele>266.0</ele><time>2026-04-26T07:55:12.998Z</time></trkpt><trkpt lat="45.40117467148096" lon="11.51028671257879"><ele>266.0</ele><time>2026-04-26T07:55:14.998Z</time></trkpt><trkpt lat="45.40111357248157" lon="11.51024909057322"><ele>266.0</ele><time>2026-04-26T07:55:17.998Z</time></trkpt><trkpt lat="45.40105477012932" lon="11.510207973337591"><ele>262.1666666666667</ele><time>2026-04-26T07:55:21.998Z</time></trkpt><trkpt lat="45.40100110385171" lon="11.510123661814978"><ele>258.33333333333337</ele><time>2026-04-26T07:55:24.998Z</time></trkpt><trkpt lat="45.40095721623949" lon="11.510005300425247"><ele>254.5</ele><time>2026-04-26T07:55:27.998Z</time></trkpt><trkpt lat="45.40092379974126" lon="11.50990351457416"><ele>250.66666666666669</ele><time>2026-04-26T07:55:30.997Z</time></trkpt><trkpt lat="45.40090639604925" lon="11.509787856727275"><ele>246.83333333333334</ele><time>2026-04-26T07:55:33.997Z</time></trkpt><trkpt lat="45.400811894472824" lon="11.509712165410798"><ele>243.0</ele><time>2026-04-26T07:55:36.997Z</time></trkpt><trkpt lat="45.400715964061725" lon="11.509704971149166"><ele>243.0</ele><time>2026-04-26T07:55:38.997Z</time></trkpt><trkpt lat="45.400629043427415" lon="11.509711192518484"><ele>243.0</ele><time>2026-04-26T07:55:40.997Z</time></trkpt><trkpt lat="45.40054528636901" lon="11.509736923309138"><ele>243.0</ele><time>2026-04-26T07:55:42.997Z</time></trkpt><trkpt lat="45.40046864544073" lon="11.509732994917599"><ele>243.0</ele><time>2026-04-26T07:55:45Z</time></trkpt><trkpt lat="45.40037786833665" lon="11.509635467506516"><ele>243.0</ele><time>2026-04-26T07:55:47Z</time></trkpt><trkpt lat="45.40032903406401" lon="11.509567002011554"><ele>243.0</ele><time>2026-04-26T07:55:48Z</time></trkpt><trkpt lat="45.40028477706549" lon="11.509473022960274"><ele>239.0</ele><time>2026-04-26T07:55:49Z</time></trkpt><trkpt lat="45.400248931096456" lon="11.509379422875735"><ele>235.0</ele><time>2026-04-26T07:55:50Z</time></trkpt><trkpt lat="45.40020528621381" lon="11.509258882102186"><ele>231.0</ele><time>2026-04-26T07:55:51Z</time></trkpt><trkpt lat="45.40015416944708" lon="11.50918287288209"><ele>227.0</ele><time>2026-04-26T07:55:52Z</time></trkpt><trkpt lat="45.400115157073586" lon="11.509092333467665"><ele>223.0</ele><time>2026-04-26T07:55:53Z</time></trkpt><trkpt lat="45.4000779578578" lon="11.509005271493178"><ele>219.0</ele><time>2026-04-26T07:55:54Z</time></trkpt><trkpt lat="45.40004368660863" lon="11.508918504253053"><ele>219.0</ele><time>2026-04-26T07:55:55Z</time></trkpt><trkpt lat="45.400024747878845" lon="11.508825089402908"><ele>218.99999999999997</ele><time>2026-04-26T07:55:56Z</time></trkpt><trkpt lat="45.39997277051996" lon="11.508710673267826"><ele>218.99999999999997</ele><time>2026-04-26T07:55:58Z</time></trkpt><trkpt lat="45.39992627316271" lon="11.508596878777622"><ele>219.0</ele><time>2026-04-26T07:56:01Z</time></trkpt><trkpt lat="45.39990265529783" lon="11.508747733785416"><ele>219.0</ele><time>2026-04-26T07:56:05Z</time></trkpt><trkpt lat="45.3999225218982" lon="11.50890274122527"><ele>219.0</ele><time>2026-04-26T07:56:07Z</time></trkpt><trkpt lat="45.3999333044063" lon="11.509075000223152"><ele>218.99999999999997</ele><time>2026-04-26T07:56:09Z</time></trkpt><trkpt lat="45.399953136224774" lon="11.509247020302746"><ele>218.99999999999997</ele><time>2026-04-26T07:56:11Z</time></trkpt><trkpt lat="45.39996621773626" lon="11.509353810711094"><ele>219.0</ele><time>2026-04-26T07:56:12Z</time></trkpt><trkpt lat="45.39999798660079" lon="11.509455733204714"><ele>219.0</ele><time>2026-04-26T07:56:13Z</time></trkpt><trkpt lat="45.40002063747832" lon="11.509556603680307"><ele>218.0</ele><time>2026-04-26T07:56:14Z</time></trkpt><trkpt lat="45.4000501485492" lon="11.509651803900038"><ele>217.0</ele><time>2026-04-26T07:56:15Z</time></trkpt><trkpt lat="45.40007636750193" lon="11.509741256466738"><ele>216.0</ele><time>2026-04-26T07:56:16Z</time></trkpt><trkpt lat="45.400095971164575" lon="11.50982879375874"><ele>215.0</ele><time>2026-04-26T07:56:17Z</time></trkpt><trkpt lat="45.40012945361421" lon="11.509983723401225"><ele>214.0</ele><time>2026-04-26T07:56:18.999Z</time></trkpt><trkpt lat="45.400156324611196" lon="11.51014166209926"><ele>213.0</ele><time>2026-04-26T07:56:20.999Z</time></trkpt><trkpt lat="45.40017149628994" lon="11.510312366239383"><ele>213.2</ele><time>2026-04-26T07:56:22.999Z</time></trkpt><trkpt lat="45.40017496273757" lon="11.510491087958787"><ele>213.4</ele><time>2026-04-26T07:56:24.999Z</time></trkpt><trkpt lat="45.40016169969422" lon="11.510580876017844"><ele>213.59999999999997</ele><time>2026-04-26T07:56:25.999Z</time></trkpt><trkpt lat="45.40013517918106" lon="11.510719669691607"><ele>213.79999999999998</ele><time>2026-04-26T07:56:27.999Z</time></trkpt><trkpt lat="45.400082264928095" lon="11.51086911311965"><ele>214.0</ele><time>2026-04-26T07:56:29.999Z</time></trkpt><trkpt lat="45.4000725281431" lon="11.51102007884628"><ele>213.99999999999997</ele><time>2026-04-26T07:56:31.999Z</time></trkpt><trkpt lat="45.400036998829364" lon="11.51112385950713"><ele>214.0</ele><time>2026-04-26T07:56:33.999Z</time></trkpt><trkpt lat="45.40001905748974" lon="11.511244944674678"><ele>214.0</ele><time>2026-04-26T07:56:36.999Z</time></trkpt><trkpt lat="45.400020645492994" lon="11.511351159643779"><ele>214.0</ele><time>2026-04-26T07:56:38.999Z</time></trkpt><trkpt lat="45.39999594476872" lon="11.511490892990796"><ele>213.99999999999997</ele><time>2026-04-26T07:56:40.999Z</time></trkpt><trkpt lat="45.39999006443691" lon="11.511625672599061"><ele>214.0</ele><time>2026-04-26T07:56:42.999Z</time></trkpt><trkpt lat="45.399966782445" lon="11.51175305218793"><ele>214.83333333333331</ele><time>2026-04-26T07:56:44.999Z</time></trkpt><trkpt lat="45.399941426616806" lon="11.511863808446638"><ele>215.66666666666666</ele><time>2026-04-26T07:56:46.999Z</time></trkpt><trkpt lat="45.399908569639535" lon="11.511970457039402"><ele>216.5</ele><time>2026-04-26T07:56:48.999Z</time></trkpt><trkpt lat="45.39989591572832" lon="11.512072467090995"><ele>217.33333333333331</ele><time>2026-04-26T07:56:53.999Z</time></trkpt><trkpt lat="45.39982907993467" lon="11.512104088042475"><ele>218.16666666666666</ele><time>2026-04-26T07:56:57.999Z</time></trkpt><trkpt lat="45.39974858465894" lon="11.512076582784676"><ele>219.0</ele><time>2026-04-26T07:57:00.998Z</time></trkpt><trkpt lat="45.39965552962881" lon="11.512030345743343"><ele>219.16666666666666</ele><time>2026-04-26T07:57:03.998Z</time></trkpt><trkpt lat="45.399609441358734" lon="11.511919175453214"><ele>219.33333333333331</ele><time>2026-04-26T07:57:06.998Z</time></trkpt><trkpt lat="45.39954252671214" lon="11.511849269888522"><ele>219.5</ele><time>2026-04-26T07:57:08.998Z</time></trkpt><trkpt lat="45.39949661795318" lon="11.511765711890002"><ele>219.66666666666666</ele><time>2026-04-26T07:57:10.998Z</time></trkpt><trkpt lat="45.399450046041586" lon="11.511658773572156"><ele>219.83333333333331</ele><time>2026-04-26T07:57:13.998Z</time></trkpt><trkpt lat="45.39941049021752" lon="11.511564780645068"><ele>220.0</ele><time>2026-04-26T07:57:15.998Z</time></trkpt><trkpt lat="45.399398824472144" lon="11.511467761981057"><ele>219.99999999999997</ele><time>2026-04-26T07:57:17.998Z</time></trkpt><trkpt lat="45.39938163518904" lon="11.511336301287148"><ele>220.0</ele><time>2026-04-26T07:57:20.998Z</time></trkpt><trkpt lat="45.399325858356555" lon="11.511255538538729"><ele>220.0</ele><time>2026-04-26T07:57:22.998Z</time></trkpt><trkpt lat="45.39927265982788" lon="11.511174606837692"><ele>220.0</ele><time>2026-04-26T07:57:25.998Z</time></trkpt><trkpt lat="45.39918184229792" lon="11.51111033901552"><ele>219.99999999999997</ele><time>2026-04-26T07:57:32.998Z</time></trkpt><trkpt lat="45.399135744796745" lon="11.511042858280042"><ele>220.0</ele><time>2026-04-26T07:57:33.998Z</time></trkpt><trkpt lat="45.39908552969201" lon="11.510965168866997"><ele>217.0</ele><time>2026-04-26T07:57:34.998Z</time></trkpt><trkpt lat="45.39901630802983" lon="11.510900867335879"><ele>214.0</ele><time>2026-04-26T07:57:35.998Z</time></trkpt><trkpt lat="45.398972593613564" lon="11.51083127057885"><ele>211.0</ele><time>2026-04-26T07:57:36.998Z</time></trkpt><trkpt lat="45.398938372332786" lon="11.510755614128312"><ele>208.0</ele><time>2026-04-26T07:57:37.998Z</time></trkpt><trkpt lat="45.39888322615063" lon="11.510627320316486"><ele>205.0</ele><time>2026-04-26T07:57:39.997Z</time></trkpt><trkpt lat="45.39884693998549" lon="11.510443611398866"><ele>206.16666666666666</ele><time>2026-04-26T07:57:41.997Z</time></trkpt><trkpt lat="45.39883773145552" lon="11.51034232500963"><ele>207.33333333333331</ele><time>2026-04-26T07:57:42.997Z</time></trkpt><trkpt lat="45.39883029738473" lon="11.510191479833589"><ele>208.5</ele><time>2026-04-26T07:57:44.997Z</time></trkpt><trkpt lat="45.39879947838655" lon="11.510027560362836"><ele>209.66666666666669</ele><time>2026-04-26T07:57:46.997Z</time></trkpt><trkpt lat="45.3987749568383" lon="11.509921057541202"><ele>210.83333333333334</ele><time>2026-04-26T07:57:47.997Z</time></trkpt><trkpt lat="45.398764883195426" lon="11.509827161906353"><ele>212.0</ele><time>2026-04-26T07:57:48.997Z</time></trkpt><trkpt lat="45.398753224288306" lon="11.50972366530114"><ele>212.00000000000003</ele><time>2026-04-26T07:57:49.997Z</time></trkpt><trkpt lat="45.39874813126808" lon="11.509582629281322"><ele>212.0</ele><time>2026-04-26T07:57:52Z</time></trkpt><trkpt lat="45.39873787441196" lon="11.509476510072123"><ele>212.0</ele><time>2026-04-26T07:57:56Z</time></trkpt><trkpt lat="45.39874596060728" lon="11.509330481681705"><ele>212.0</ele><time>2026-04-26T07:57:59Z</time></trkpt><trkpt lat="45.39874031371249" lon="11.509234108586272"><ele>212.00000000000003</ele><time>2026-04-26T07:58:02Z</time></trkpt><trkpt lat="45.39866055373282" lon="11.509178951027053"><ele>212.0</ele><time>2026-04-26T07:58:05Z</time></trkpt><trkpt lat="45.398594456722385" lon="11.509128287000813"><ele>209.66666666666669</ele><time>2026-04-26T07:58:08Z</time></trkpt><trkpt lat="45.39851526434885" lon="11.509061815366042"><ele>207.33333333333334</ele><time>2026-04-26T07:58:11Z</time></trkpt><trkpt lat="45.3984542067857" lon="11.509036645735625"><ele>205.0</ele><time>2026-04-26T07:58:13Z</time></trkpt><trkpt lat="45.39839355971097" lon="11.509007393417047"><ele>202.66666666666669</ele><time>2026-04-26T07:58:15Z</time></trkpt><trkpt lat="45.398321806105095" lon="11.508963570177215"><ele>200.33333333333334</ele><time>2026-04-26T07:58:18Z</time></trkpt><trkpt lat="45.39824381975946" lon="11.508934015537692"><ele>198.0</ele><time>2026-04-26T07:58:21Z</time></trkpt><trkpt lat="45.39814473344165" lon="11.508932449626407"><ele>198.0</ele><time>2026-04-26T07:58:24Z</time></trkpt><trkpt lat="45.39806156313502" lon="11.508918480760155"><ele>198.0</ele><time>2026-04-26T07:58:26.999Z</time></trkpt><trkpt lat="45.397982460155234" lon="11.508927882999352"><ele>198.0</ele><time>2026-04-26T07:58:29.999Z</time></trkpt><trkpt lat="45.39790800624201" lon="11.508975346778007"><ele>198.0</ele><time>2026-04-26T07:58:31.999Z</time></trkpt><trkpt lat="45.397836675888165" lon="11.5089972496621"><ele>198.0</ele><time>2026-04-26T07:58:34.999Z</time></trkpt><trkpt lat="45.39775314417295" lon="11.509021525204934"><ele>198.0</ele><time>2026-04-26T07:58:37.999Z</time></trkpt><trkpt lat="45.397675722672915" lon="11.509082616075473"><ele>197.0</ele><time>2026-04-26T07:58:41.999Z</time></trkpt><trkpt lat="45.39762826238822" lon="11.509156448221388"><ele>196.0</ele><time>2026-04-26T07:58:43.999Z</time></trkpt><trkpt lat="45.39756100085403" lon="11.509215306727958"><ele>195.0</ele><time>2026-04-26T07:58:45.999Z</time></trkpt><trkpt lat="45.3975066369141" lon="11.509275725794689"><ele>194.0</ele><time>2026-04-26T07:58:47.999Z</time></trkpt><trkpt lat="45.39746324841341" lon="11.50934305532412"><ele>193.0</ele><time>2026-04-26T07:58:49.999Z</time></trkpt><trkpt lat="45.39738480783189" lon="11.509390051374286"><ele>192.0</ele><time>2026-04-26T07:58:51.999Z</time></trkpt><trkpt lat="45.39730619721545" lon="11.509414106009691"><ele>191.0</ele><time>2026-04-26T07:58:53.999Z</time></trkpt><trkpt lat="45.39723136594583" lon="11.509435327358297"><ele>191.0</ele><time>2026-04-26T07:58:56.999Z</time></trkpt><trkpt lat="45.39717175423373" lon="11.509490639070624"><ele>191.0</ele><time>2026-04-26T07:58:59.999Z</time></trkpt><trkpt lat="45.39708629731326" lon="11.50952224711605"><ele>191.0</ele><time>2026-04-26T07:59:01.999Z</time></trkpt><trkpt lat="45.39700419620695" lon="11.509565600761885"><ele>191.0</ele><time>2026-04-26T07:59:03.999Z</time></trkpt><trkpt lat="45.396967308464845" lon="11.509643222441683"><ele>191.0</ele><time>2026-04-26T07:59:07.998Z</time></trkpt><trkpt lat="45.396904995383586" lon="11.509692429802094"><ele>191.0</ele><time>2026-04-26T07:59:08.998Z</time></trkpt><trkpt lat="45.39682989075564" lon="11.50976482925314"><ele>191.66666666666666</ele><time>2026-04-26T07:59:10.998Z</time></trkpt><trkpt lat="45.39677759484768" lon="11.509834249137745"><ele>192.33333333333331</ele><time>2026-04-26T07:59:12.998Z</time></trkpt><trkpt lat="45.39671032034354" lon="11.509881918384306"><ele>193.0</ele><time>2026-04-26T07:59:14.998Z</time></trkpt><trkpt lat="45.39663095118279" lon="11.509900195521034"><ele>193.66666666666666</ele><time>2026-04-26T07:59:16.998Z</time></trkpt><trkpt lat="45.39657218189178" lon="11.50993610262383"><ele>194.33333333333334</ele><time>2026-04-26T07:59:18.998Z</time></trkpt><trkpt lat="45.39648593569291" lon="11.509992838599423"><ele>195.0</ele><time>2026-04-26T07:59:23.998Z</time></trkpt><trkpt lat="45.39643035464392" lon="11.510049800490739"><ele>195.0</ele><time>2026-04-26T07:59:26.998Z</time></trkpt><trkpt lat="45.39635632242106" lon="11.510142728133191"><ele>195.0</ele><time>2026-04-26T07:59:28.998Z</time></trkpt><trkpt lat="45.39631052444689" lon="11.510213110204813"><ele>195.0</ele><time>2026-04-26T07:59:31.998Z</time></trkpt><trkpt lat="45.39624564452601" lon="11.5102974359994"><ele>195.0</ele><time>2026-04-26T07:59:34.998Z</time></trkpt><trkpt lat="45.39618427357613" lon="11.510390696409699"><ele>195.0</ele><time>2026-04-26T07:59:38.998Z</time></trkpt><trkpt lat="45.39614126953188" lon="11.51045829416928"><ele>195.0</ele><time>2026-04-26T07:59:41.998Z</time></trkpt><trkpt lat="45.39609742342267" lon="11.51054942873291"><ele>196.8</ele><time>2026-04-26T07:59:43.998Z</time></trkpt><trkpt lat="45.39600194742038" lon="11.51057546141679"><ele>198.6</ele><time>2026-04-26T07:59:47.997Z</time></trkpt><trkpt lat="45.39592480397981" lon="11.510634277479735"><ele>200.39999999999998</ele><time>2026-04-26T07:59:50.997Z</time></trkpt><trkpt lat="45.39583240778125" lon="11.510695216103905"><ele>202.2</ele><time>2026-04-26T07:59:53.997Z</time></trkpt><trkpt lat="45.395761095490755" lon="11.510723647575762"><ele>204.0</ele><time>2026-04-26T07:59:54.997Z</time></trkpt><trkpt lat="45.39566336768662" lon="11.510746080535837"><ele>204.0</ele><time>2026-04-26T07:59:57Z</time></trkpt><trkpt lat="45.39557914675991" lon="11.510769952540738"><ele>204.0</ele><time>2026-04-26T07:59:59Z</time></trkpt><trkpt lat="45.39550759296036" lon="11.510794248042133"><ele>204.0</ele><time>2026-04-26T08:00:01Z</time></trkpt><trkpt lat="45.39543595114137" lon="11.510813376843307"><ele>204.0</ele><time>2026-04-26T08:00:03Z</time></trkpt><trkpt lat="45.39536059207683" lon="11.510826353360653"><ele>204.0</ele><time>2026-04-26T08:00:05Z</time></trkpt><trkpt lat="45.3952742538617" lon="11.510852603872763"><ele>204.0</ele><time>2026-04-26T08:00:07Z</time></trkpt><trkpt lat="45.39520506502411" lon="11.510874278295969"><ele>202.16666666666666</ele><time>2026-04-26T08:00:09Z</time></trkpt><trkpt lat="45.395140674368285" lon="11.510889511580787"><ele>200.33333333333331</ele><time>2026-04-26T08:00:11Z</time></trkpt><trkpt lat="45.395062824604956" lon="11.510918496582867"><ele>198.5</ele><time>2026-04-26T08:00:13Z</time></trkpt><trkpt lat="45.39499803616578" lon="11.510958421057397"><ele>196.66666666666666</ele><time>2026-04-26T08:00:15Z</time></trkpt><trkpt lat="45.39494197376164" lon="11.511005424422311"><ele>194.83333333333331</ele><time>2026-04-26T08:00:17Z</time></trkpt><trkpt lat="45.39487299414155" lon="11.511087692212012"><ele>193.0</ele><time>2026-04-26T08:00:20Z</time></trkpt><trkpt lat="45.39478850930123" lon="11.511146946098757"><ele>192.99999999999997</ele><time>2026-04-26T08:00:23Z</time></trkpt><trkpt lat="45.39471718263448" lon="11.5112132377801"><ele>193.0</ele><time>2026-04-26T08:00:26Z</time></trkpt><trkpt lat="45.39465707211041" lon="11.5112596718147"><ele>193.0</ele><time>2026-04-26T08:00:29Z</time></trkpt><trkpt lat="45.39459362341507" lon="11.511300514854893"><ele>193.0</ele><time>2026-04-26T08:00:30.999Z</time></trkpt><trkpt lat="45.39451953613179" lon="11.51135670811297"><ele>192.99999999999997</ele><time>2026-04-26T08:00:33.999Z</time></trkpt><trkpt lat="45.39443968813362" lon="11.511412343017113"><ele>193.0</ele><time>2026-04-26T08:00:36.999Z</time></trkpt><trkpt lat="45.394369168584994" lon="11.51148664334644"><ele>194.00000000000003</ele><time>2026-04-26T08:00:39.999Z</time></trkpt><trkpt lat="45.3943095739315" lon="11.511531678847067"><ele>195.0</ele><time>2026-04-26T08:00:41.999Z</time></trkpt><trkpt lat="45.394243618522296" lon="11.511540205373663"><ele>196.0</ele><time>2026-04-26T08:00:43.999Z</time></trkpt><trkpt lat="45.394181484931" lon="11.511601826752681"><ele>197.0</ele><time>2026-04-26T08:00:45.999Z</time></trkpt><trkpt lat="45.39411313822746" lon="11.51160977278588"><ele>198.0</ele><time>2026-04-26T08:00:46.999Z</time></trkpt><trkpt lat="45.39404576623308" lon="11.511689291006046"><ele>199.00000000000003</ele><time>2026-04-26T08:00:48.999Z</time></trkpt><trkpt lat="45.39397718392123" lon="11.511727769275302"><ele>200.0</ele><time>2026-04-26T08:00:50.999Z</time></trkpt><trkpt lat="45.393913195379604" lon="11.511748176303133"><ele>197.33333333333334</ele><time>2026-04-26T08:00:52.999Z</time></trkpt><trkpt lat="45.39381858035344" lon="11.511777520121596"><ele>194.66666666666669</ele><time>2026-04-26T08:00:54.999Z</time></trkpt><trkpt lat="45.393747274340434" lon="11.511804611295393"><ele>192.0</ele><time>2026-04-26T08:00:57.999Z</time></trkpt><trkpt lat="45.39368334882646" lon="11.51180596912171"><ele>189.33333333333334</ele><time>2026-04-26T08:01:00.999Z</time></trkpt><trkpt lat="45.39360701450397" lon="11.511832488037033"><ele>186.66666666666669</ele><time>2026-04-26T08:01:03.999Z</time></trkpt><trkpt lat="45.393512959410906" lon="11.511874758254624"><ele>184.0</ele><time>2026-04-26T08:01:06.999Z</time></trkpt><trkpt lat="45.39345167599844" lon="11.511925718073318"><ele>184.0</ele><time>2026-04-26T08:01:09.998Z</time></trkpt><trkpt lat="45.39338453283091" lon="11.511948279581164"><ele>184.0</ele><time>2026-04-26T08:01:12.998Z</time></trkpt><trkpt lat="45.39331848168596" lon="11.511977494787589"><ele>184.0</ele><time>2026-04-26T08:01:15.998Z</time></trkpt><trkpt lat="45.393244045933365" lon="11.512016290433097"><ele>184.0</ele><time>2026-04-26T08:01:18.998Z</time></trkpt><trkpt lat="45.39317511748062" lon="11.512025008899325"><ele>184.0</ele><time>2026-04-26T08:01:22.998Z</time></trkpt><trkpt lat="45.39309957799836" lon="11.512009873377949"><ele>184.0</ele><time>2026-04-26T08:01:25.998Z</time></trkpt><trkpt lat="45.39301711404885" lon="11.512019757219473"><ele>184.0</ele><time>2026-04-26T08:01:29.998Z</time></trkpt><trkpt lat="45.39292010424763" lon="11.51199359942708"><ele>182.71428571428572</ele><time>2026-04-26T08:01:32.998Z</time></trkpt><trkpt lat="45.392867826336584" lon="11.511938127129591"><ele>181.42857142857142</ele><time>2026-04-26T08:01:34.998Z</time></trkpt><trkpt lat="45.392807304877394" lon="11.511977016530858"><ele>180.14285714285714</ele><time>2026-04-26T08:01:36.998Z</time></trkpt><trkpt lat="45.3927381199927" lon="11.51195543458828"><ele>178.85714285714286</ele><time>2026-04-26T08:01:39.998Z</time></trkpt><trkpt lat="45.392697247336756" lon="11.511879591520108"><ele>177.57142857142856</ele><time>2026-04-26T08:01:41.998Z</time></trkpt><trkpt lat="45.39265374407324" lon="11.511807977024237"><ele>176.28571428571428</ele><time>2026-04-26T08:01:43.998Z</time></trkpt><trkpt lat="45.39258894980104" lon="11.511764753524599"><ele>175.0</ele><time>2026-04-26T08:01:45.998Z</time></trkpt><trkpt lat="45.39251706888163" lon="11.511749928782123"><ele>175.0</ele><time>2026-04-26T08:01:47.998Z</time></trkpt><trkpt lat="45.392439006984056" lon="11.511712807905434"><ele>175.0</ele><time>2026-04-26T08:01:49.997Z</time></trkpt><trkpt lat="45.39237876853657" lon="11.511675634865739"><ele>175.0</ele><time>2026-04-26T08:01:51.997Z</time></trkpt><trkpt lat="45.392320658299624" lon="11.511637691601752"><ele>175.0</ele><time>2026-04-26T08:01:53.997Z</time></trkpt><trkpt lat="45.39225278954113" lon="11.511635091481303"><ele>175.0</ele><time>2026-04-26T08:01:55.997Z</time></trkpt><trkpt lat="45.39216506564218" lon="11.51166734117765"><ele>175.0</ele><time>2026-04-26T08:01:58.997Z</time></trkpt><trkpt lat="45.392079976666004" lon="11.511724947797354"><ele>171.57142857142858</ele><time>2026-04-26T08:02:01.997Z</time></trkpt><trkpt lat="45.39201367253356" lon="11.511742758503713"><ele>168.14285714285714</ele><time>2026-04-26T08:02:05Z</time></trkpt><trkpt lat="45.39194210791519" lon="11.511685370360022"><ele>164.71428571428572</ele><time>2026-04-26T08:02:08Z</time></trkpt><trkpt lat="45.391878225532544" lon="11.511610357781095"><ele>161.28571428571428</ele><time>2026-04-26T08:02:11Z</time></trkpt><trkpt lat="45.39181873644108" lon="11.511542041726024"><ele>157.85714285714286</ele><time>2026-04-26T08:02:13Z</time></trkpt><trkpt lat="45.3917790698309" lon="11.511467973247557"><ele>154.42857142857144</ele><time>2026-04-26T08:02:15Z</time></trkpt><trkpt lat="45.39173107240438" lon="11.511401740207122"><ele>151.0</ele><time>2026-04-26T08:02:17Z</time></trkpt><trkpt lat="45.39168436295517" lon="11.511321797217926"><ele>151.66666666666669</ele><time>2026-04-26T08:02:19Z</time></trkpt><trkpt lat="45.391642990617214" lon="11.511217086819837"><ele>152.33333333333334</ele><time>2026-04-26T08:02:22Z</time></trkpt><trkpt lat="45.39159536696179" lon="11.511126040829417"><ele>153.0</ele><time>2026-04-26T08:02:24Z</time></trkpt><trkpt lat="45.391550013906844" lon="11.511045750445025"><ele>153.66666666666666</ele><time>2026-04-26T08:02:26Z</time></trkpt><trkpt lat="45.39150451604378" lon="11.51096491391252"><ele>154.33333333333331</ele><time>2026-04-26T08:02:29Z</time></trkpt><trkpt lat="45.391465149172234" lon="11.51089486226848"><ele>155.0</ele><time>2026-04-26T08:02:31Z</time></trkpt><trkpt lat="45.391396838711" lon="11.510794907142275"><ele>154.66666666666666</ele><time>2026-04-26T08:02:34Z</time></trkpt><trkpt lat="45.391331567283935" lon="11.510722691066078"><ele>154.33333333333331</ele><time>2026-04-26T08:02:35.999Z</time></trkpt><trkpt lat="45.39126848942931" lon="11.510630307185977"><ele>154.0</ele><time>2026-04-26T08:02:38.999Z</time></trkpt><trkpt lat="45.39119769766894" lon="11.510553037174924"><ele>153.66666666666666</ele><time>2026-04-26T08:02:41.999Z</time></trkpt><trkpt lat="45.39112941490962" lon="11.510466615921748"><ele>153.33333333333334</ele><time>2026-04-26T08:02:44.999Z</time></trkpt><trkpt lat="45.391151620608866" lon="11.51036423224476"><ele>153.0</ele><time>2026-04-26T08:02:47.999Z</time></trkpt><trkpt lat="45.39123248321697" lon="11.510303235285715"><ele>153.0</ele><time>2026-04-26T08:02:49.999Z</time></trkpt><trkpt lat="45.39132816899385" lon="11.51029954365897"><ele>153.0</ele><time>2026-04-26T08:02:51.999Z</time></trkpt><trkpt lat="45.39141438324717" lon="11.510304720208595"><ele>153.0</ele><time>2026-04-26T08:02:53.999Z</time></trkpt><trkpt lat="45.39149170350016" lon="11.510295631171166"><ele>153.0</ele><time>2026-04-26T08:02:55.999Z</time></trkpt><trkpt lat="45.39158011966198" lon="11.510252842851235"><ele>153.0</ele><time>2026-04-26T08:02:58.999Z</time></trkpt><trkpt lat="45.391647331941286" lon="11.51023027216419"><ele>153.0</ele><time>2026-04-26T08:03:00.999Z</time></trkpt><trkpt lat="45.39173218722763" lon="11.510189259117915"><ele>150.6</ele><time>2026-04-26T08:03:03.999Z</time></trkpt><trkpt lat="45.39179782157429" lon="11.510139810574602"><ele>148.20000000000002</ele><time>2026-04-26T08:03:06.999Z</time></trkpt><trkpt lat="45.391942192151724" lon="11.510072960093389"><ele>145.8</ele><time>2026-04-26T08:03:11.999Z</time></trkpt><trkpt lat="45.392034639164535" lon="11.510024449540335"><ele>143.4</ele><time>2026-04-26T08:03:14.998Z</time></trkpt><trkpt lat="45.3920927932" lon="11.509985880258418"><ele>141.0</ele><time>2026-04-26T08:03:16.998Z</time></trkpt><trkpt lat="45.392155355992955" lon="11.50994468007139"><ele>142.0</ele><time>2026-04-26T08:03:18.998Z</time></trkpt><trkpt lat="45.39221584989178" lon="11.50989077315093"><ele>143.0</ele><time>2026-04-26T08:03:20.998Z</time></trkpt><trkpt lat="45.3923017434505" lon="11.509832160496703"><ele>144.0</ele><time>2026-04-26T08:03:23.998Z</time></trkpt><trkpt lat="45.39238360844794" lon="11.509768104574812"><ele>145.0</ele><time>2026-04-26T08:03:26.998Z</time></trkpt><trkpt lat="45.392458594521905" lon="11.50969771706981"><ele>146.0</ele><time>2026-04-26T08:03:29.998Z</time></trkpt><trkpt lat="45.39253468861375" lon="11.509657232375556"><ele>147.0</ele><time>2026-04-26T08:03:32.998Z</time></trkpt><trkpt lat="45.392602156180416" lon="11.509591078049922"><ele>146.5</ele><time>2026-04-26T08:03:35.998Z</time></trkpt><trkpt lat="45.392635909537354" lon="11.509471064288144"><ele>146.0</ele><time>2026-04-26T08:03:38.998Z</time></trkpt><trkpt lat="45.39262417498555" lon="11.509363552865999"><ele>145.5</ele><time>2026-04-26T08:03:41.998Z</time></trkpt><trkpt lat="45.392626826262585" lon="11.509240502436048"><ele>145.0</ele><time>2026-04-26T08:03:44.998Z</time></trkpt><trkpt lat="45.392610921363634" lon="11.509125281017832"><ele>144.5</ele><time>2026-04-26T08:03:47.998Z</time></trkpt><trkpt lat="45.39257838148076" lon="11.509002554757851"><ele>144.0</ele><time>2026-04-26T08:03:50.998Z</time></trkpt><trkpt lat="45.392547156117615" lon="11.508892272004935"><ele>144.0</ele><time>2026-04-26T08:03:52.998Z</time></trkpt><trkpt lat="45.39251353816072" lon="11.508790441076941"><ele>144.0</ele><time>2026-04-26T08:03:54.997Z</time></trkpt><trkpt lat="45.39247975826272" lon="11.50865637864861"><ele>144.0</ele><time>2026-04-26T08:03:57.997Z</time></trkpt><trkpt lat="45.392444639442424" lon="11.508547142657632"><ele>144.0</ele><time>2026-04-26T08:03:59.997Z</time></trkpt><trkpt lat="45.39239524731424" lon="11.508446527084642"><ele>144.0</ele><time>2026-04-26T08:04:01.997Z</time></trkpt><trkpt lat="45.39239635194795" lon="11.508344930103776"><ele>144.0</ele><time>2026-04-26T08:04:02.997Z</time></trkpt><trkpt lat="45.392395015627194" lon="11.508220199638608"><ele>144.16666666666666</ele><time>2026-04-26T08:04:04.997Z</time></trkpt><trkpt lat="45.39241176833722" lon="11.508105404656147"><ele>144.33333333333334</ele><time>2026-04-26T08:04:06.997Z</time></trkpt><trkpt lat="45.39243597791867" lon="11.508003174797336"><ele>144.5</ele><time>2026-04-26T08:04:09Z</time></trkpt><trkpt lat="45.39247246850604" lon="11.507860207304635"><ele>144.66666666666669</ele><time>2026-04-26T08:04:12Z</time></trkpt><trkpt lat="45.392485864482936" lon="11.507769217083744"><ele>144.83333333333334</ele><time>2026-04-26T08:04:14Z</time></trkpt><trkpt lat="45.39251099954072" lon="11.507651629656982"><ele>145.0</ele><time>2026-04-26T08:04:16Z</time></trkpt><trkpt lat="45.39253132761264" lon="11.507537365813555"><ele>145.5</ele><time>2026-04-26T08:04:18Z</time></trkpt><trkpt lat="45.392554525692816" lon="11.507422059137713"><ele>146.0</ele><time>2026-04-26T08:04:20Z</time></trkpt><trkpt lat="45.3925751734874" lon="11.507308345992703"><ele>146.5</ele><time>2026-04-26T08:04:22Z</time></trkpt><trkpt lat="45.392608924789336" lon="11.507165621171323"><ele>147.0</ele><time>2026-04-26T08:04:24Z</time></trkpt><trkpt lat="45.392638764763504" lon="11.50704298428764"><ele>147.5</ele><time>2026-04-26T08:04:26Z</time></trkpt><trkpt lat="45.392673615083154" lon="11.506934556325781"><ele>148.0</ele><time>2026-04-26T08:04:28Z</time></trkpt><trkpt lat="45.39270746125943" lon="11.506834097139382"><ele>149.66666666666669</ele><time>2026-04-26T08:04:30Z</time></trkpt><trkpt lat="45.392744802401545" lon="11.506715070225589"><ele>151.33333333333334</ele><time>2026-04-26T08:04:32Z</time></trkpt><trkpt lat="45.39277329319259" lon="11.506614513952327"><ele>153.0</ele><time>2026-04-26T08:04:34Z</time></trkpt><trkpt lat="45.39282405442299" lon="11.506508111401715"><ele>154.66666666666666</ele><time>2026-04-26T08:04:36Z</time></trkpt><trkpt lat="45.392869204284835" lon="11.506414491132665"><ele>156.33333333333331</ele><time>2026-04-26T08:04:38Z</time></trkpt><trkpt lat="45.39291411937893" lon="11.506329186543695"><ele>158.0</ele><time>2026-04-26T08:04:40Z</time></trkpt><trkpt lat="45.392959763553996" lon="11.506233371595183"><ele>160.0</ele><time>2026-04-26T08:04:41.999Z</time></trkpt><trkpt lat="45.39300252408461" lon="11.50613521536081"><ele>162.0</ele><time>2026-04-26T08:04:43.999Z</time></trkpt><trkpt lat="45.393059803180826" lon="11.506053466173878"><ele>164.0</ele><time>2026-04-26T08:04:45.999Z</time></trkpt><trkpt lat="45.393106292902594" lon="11.505961971023845"><ele>166.0</ele><time>2026-04-26T08:04:47.999Z</time></trkpt><trkpt lat="45.39314524726058" lon="11.505862851498494"><ele>168.0</ele><time>2026-04-26T08:04:49.999Z</time></trkpt><trkpt lat="45.39318275589007" lon="11.505758559391765"><ele>170.0</ele><time>2026-04-26T08:04:51.999Z</time></trkpt><trkpt lat="45.39321443843209" lon="11.50566557297603"><ele>167.83333333333331</ele><time>2026-04-26T08:04:53.999Z</time></trkpt><trkpt lat="45.39327317976694" lon="11.50558292698383"><ele>165.66666666666666</ele><time>2026-04-26T08:04:55.999Z</time></trkpt><trkpt lat="45.39331527977689" lon="11.505506661250978"><ele>163.5</ele><time>2026-04-26T08:04:57.999Z</time></trkpt><trkpt lat="45.393373078134786" lon="11.505426047391019"><ele>161.33333333333334</ele><time>2026-04-26T08:04:59.999Z</time></trkpt><trkpt lat="45.39343192218474" lon="11.505342397039291"><ele>159.16666666666669</ele><time>2026-04-26T08:05:01.999Z</time></trkpt><trkpt lat="45.39350349666893" lon="11.50527854875784"><ele>157.0</ele><time>2026-04-26T08:05:03.999Z</time></trkpt><trkpt lat="45.393560490959096" lon="11.505224184574336"><ele>157.0</ele><time>2026-04-26T08:05:05.999Z</time></trkpt><trkpt lat="45.393634450057505" lon="11.505149978639741"><ele>157.0</ele><time>2026-04-26T08:05:08.999Z</time></trkpt><trkpt lat="45.39369540427023" lon="11.505103168537431"><ele>157.0</ele><time>2026-04-26T08:05:10.999Z</time></trkpt><trkpt lat="45.39374737160379" lon="11.50504781075409"><ele>157.0</ele><time>2026-04-26T08:05:12.999Z</time></trkpt><trkpt lat="45.39378230816909" lon="11.504962258772435"><ele>157.0</ele><time>2026-04-26T08:05:16.999Z</time></trkpt><trkpt lat="45.39385622178694" lon="11.504878518544185"><ele>157.0</ele><time>2026-04-26T08:05:19.999Z</time></trkpt><trkpt lat="45.393930960682155" lon="11.50482450829952"><ele>155.5</ele><time>2026-04-26T08:05:21.998Z</time></trkpt><trkpt lat="45.39399403510944" lon="11.504760825313085"><ele>154.0</ele><time>2026-04-26T08:05:23.998Z</time></trkpt><trkpt lat="45.394057366942064" lon="11.50469182015817"><ele>152.5</ele><time>2026-04-26T08:05:26.998Z</time></trkpt><trkpt lat="45.39412104441109" lon="11.504633827756999"><ele>151.0</ele><time>2026-04-26T08:05:28.998Z</time></trkpt><trkpt lat="45.3941849853708" lon="11.504589376906962"><ele>149.5</ele><time>2026-04-26T08:05:30.998Z</time></trkpt><trkpt lat="45.39429107191353" lon="11.504502744477922"><ele>148.0</ele><time>2026-04-26T08:05:32.998Z</time></trkpt><trkpt lat="45.39437533040186" lon="11.504454551035245"><ele>148.0</ele><time>2026-04-26T08:05:34.998Z</time></trkpt><trkpt lat="45.39445412901612" lon="11.50439820317477"><ele>148.0</ele><time>2026-04-26T08:05:36.998Z</time></trkpt><trkpt lat="45.39452742609753" lon="11.504335164885743"><ele>148.0</ele><time>2026-04-26T08:05:38.998Z</time></trkpt><trkpt lat="45.39460796215034" lon="11.504293456121164"><ele>148.0</ele><time>2026-04-26T08:05:40.998Z</time></trkpt><trkpt lat="45.394633106786976" lon="11.504197350825327"><ele>148.0</ele><time>2026-04-26T08:05:42.998Z</time></trkpt><trkpt lat="45.394605490742826" lon="11.50410039728733"><ele>148.0</ele><time>2026-04-26T08:05:44.998Z</time></trkpt><trkpt lat="45.394571127307195" lon="11.504018299201661"><ele>148.0</ele><time>2026-04-26T08:05:46.998Z</time></trkpt><trkpt lat="45.39454180659394" lon="11.503926621670505"><ele>148.0</ele><time>2026-04-26T08:05:48.998Z</time></trkpt><trkpt lat="45.39450180909874" lon="11.503834999665699"><ele>148.0</ele><time>2026-04-26T08:05:50.998Z</time></trkpt><trkpt lat="45.39445971384335" lon="11.503752035769578"><ele>148.0</ele><time>2026-04-26T08:05:52.998Z</time></trkpt><trkpt lat="45.394418501474554" lon="11.503680790192636"><ele>148.0</ele><time>2026-04-26T08:05:54.998Z</time></trkpt><trkpt lat="45.39437831855908" lon="11.503586009337386"><ele>148.0</ele><time>2026-04-26T08:05:56.998Z</time></trkpt><trkpt lat="45.394343499945286" lon="11.503508370879523"><ele>148.0</ele><time>2026-04-26T08:05:58.998Z</time></trkpt><trkpt lat="45.39429553846092" lon="11.503438477723734"><ele>148.33333333333334</ele><time>2026-04-26T08:06:00.997Z</time></trkpt><trkpt lat="45.39425689749854" lon="11.503341632875529"><ele>148.66666666666669</ele><time>2026-04-26T08:06:03.997Z</time></trkpt><trkpt lat="45.39425696344725" lon="11.503235553792496"><ele>149.0</ele><time>2026-04-26T08:06:05.997Z</time></trkpt><trkpt lat="45.39426160840291" lon="11.503125512216629"><ele>149.33333333333334</ele><time>2026-04-26T08:06:07.997Z</time></trkpt><trkpt lat="45.394277595199036" lon="11.50301654688581"><ele>149.66666666666666</ele><time>2026-04-26T08:06:10.997Z</time></trkpt><trkpt lat="45.39429780161274" lon="11.502916038195737"><ele>150.0</ele><time>2026-04-26T08:06:13.997Z</time></trkpt><trkpt lat="45.394330696268575" lon="11.50282061295496"><ele>150.7142857142857</ele><time>2026-04-26T08:06:17Z</time></trkpt><trkpt lat="45.39436145234914" lon="11.502722424299039"><ele>151.42857142857142</ele><time>2026-04-26T08:06:20Z</time></trkpt><trkpt lat="45.39438313895679" lon="11.502610736783712"><ele>152.14285714285714</ele><time>2026-04-26T08:06:23Z</time></trkpt><trkpt lat="45.39439059690732" lon="11.50251081729512"><ele>152.85714285714283</ele><time>2026-04-26T08:06:26Z</time></trkpt><trkpt lat="45.394394437804415" lon="11.502410220850441"><ele>153.57142857142856</ele><time>2026-04-26T08:06:29Z</time></trkpt><trkpt lat="45.394385928461325" lon="11.502312699924547"><ele>154.28571428571428</ele><time>2026-04-26T08:06:33Z</time></trkpt><trkpt lat="45.39437963983327" lon="11.502201513616845"><ele>155.0</ele><time>2026-04-26T08:06:37Z</time></trkpt><trkpt lat="45.394367310092385" lon="11.502093658722048"><ele>156.66666666666666</ele><time>2026-04-26T08:06:41Z</time></trkpt><trkpt lat="45.39435436666623" lon="11.501990237831475"><ele>158.33333333333331</ele><time>2026-04-26T08:06:45Z</time></trkpt><trkpt lat="45.39434818940083" lon="11.501890426070526"><ele>160.0</ele><time>2026-04-26T08:06:48.999Z</time></trkpt><trkpt lat="45.394335117101804" lon="11.50178417965322"><ele>161.66666666666666</ele><time>2026-04-26T08:06:52.999Z</time></trkpt><trkpt lat="45.39433670796306" lon="11.501675582890174"><ele>163.33333333333334</ele><time>2026-04-26T08:06:56.999Z</time></trkpt><trkpt lat="45.39434431018435" lon="11.501571324063294"><ele>165.0</ele><time>2026-04-26T08:07:00.999Z</time></trkpt><trkpt lat="45.39434305056384" lon="11.50145575105124"><ele>165.0</ele><time>2026-04-26T08:07:04.999Z</time></trkpt><trkpt lat="45.39432910675327" lon="11.501347538661333"><ele>165.0</ele><time>2026-04-26T08:07:08.999Z</time></trkpt><trkpt lat="45.3943115226014" lon="11.501231386583232"><ele>165.0</ele><time>2026-04-26T08:07:12.999Z</time></trkpt><trkpt lat="45.39429107377564" lon="11.501125400306433"><ele>165.0</ele><time>2026-04-26T08:07:16.999Z</time></trkpt><trkpt lat="45.394279878486685" lon="11.501031832808302"><ele>165.0</ele><time>2026-04-26T08:07:19.999Z</time></trkpt><trkpt lat="45.39425845942489" lon="11.500912051638647"><ele>165.0</ele><time>2026-04-26T08:07:23.999Z</time></trkpt><trkpt lat="45.394239440937845" lon="11.500817497593447"><ele>166.16666666666666</ele><time>2026-04-26T08:07:26.998Z</time></trkpt><trkpt lat="45.39422696657389" lon="11.500713927952399"><ele>167.33333333333334</ele><time>2026-04-26T08:07:29.998Z</time></trkpt><trkpt lat="45.39421768219106" lon="11.500618923108409"><ele>168.5</ele><time>2026-04-26T08:07:32.998Z</time></trkpt><trkpt lat="45.39421000774035" lon="11.500510685082103"><ele>169.66666666666669</ele><time>2026-04-26T08:07:35.998Z</time></trkpt><trkpt lat="45.39421135051061" lon="11.50039326086836"><ele>170.83333333333334</ele><time>2026-04-26T08:07:38.998Z</time></trkpt><trkpt lat="45.3942108418034" lon="11.500289502781941"><ele>172.0</ele><time>2026-04-26T08:07:41.998Z</time></trkpt><trkpt lat="45.39421436740768" lon="11.500172629085162"><ele>172.14285714285717</ele><time>2026-04-26T08:07:44.998Z</time></trkpt><trkpt lat="45.39422864253202" lon="11.50005496192439"><ele>172.28571428571428</ele><time>2026-04-26T08:07:47.998Z</time></trkpt><trkpt lat="45.39422797605347" lon="11.499956485329253"><ele>172.42857142857144</ele><time>2026-04-26T08:07:50.998Z</time></trkpt><trkpt lat="45.39424716456608" lon="11.499859449333442"><ele>172.57142857142858</ele><time>2026-04-26T08:07:53.998Z</time></trkpt><trkpt lat="45.39425785076038" lon="11.499764382084418"><ele>172.71428571428572</ele><time>2026-04-26T08:07:56.998Z</time></trkpt><trkpt lat="45.39427422136231" lon="11.499664992346645"><ele>172.85714285714286</ele><time>2026-04-26T08:07:59.998Z</time></trkpt><trkpt lat="45.39429507809198" lon="11.499559500220208"><ele>173.0</ele><time>2026-04-26T08:08:02.998Z</time></trkpt><trkpt lat="45.394320986672945" lon="11.499475055133708"><ele>173.0</ele><time>2026-04-26T08:08:04.998Z</time></trkpt><trkpt lat="45.39432170148534" lon="11.499369874426066"><ele>173.0</ele><time>2026-04-26T08:08:06.997Z</time></trkpt><trkpt lat="45.39433063855177" lon="11.499238577460998"><ele>173.0</ele><time>2026-04-26T08:08:09.997Z</time></trkpt><trkpt lat="45.394329019060784" lon="11.499107260991774"><ele>173.0</ele><time>2026-04-26T08:08:12.997Z</time></trkpt><trkpt lat="45.39434228929476" lon="11.498981879657943"><ele>173.0</ele><time>2026-04-26T08:08:15.997Z</time></trkpt><trkpt lat="45.39434141151028" lon="11.498876645767664"><ele>173.0</ele><time>2026-04-26T08:08:18.997Z</time></trkpt><trkpt lat="45.39435544624246" lon="11.498763772017506"><ele>173.16666666666666</ele><time>2026-04-26T08:08:22Z</time></trkpt><trkpt lat="45.394356821646014" lon="11.49865406545567"><ele>173.33333333333331</ele><time>2026-04-26T08:08:25Z</time></trkpt><trkpt lat="45.39436344743572" lon="11.49852974303601"><ele>173.5</ele><time>2026-04-26T08:08:28Z</time></trkpt><trkpt lat="45.39437135428633" lon="11.498416870766457"><ele>173.66666666666666</ele><time>2026-04-26T08:08:30Z</time></trkpt><trkpt lat="45.394382209965535" lon="11.49830712899321"><ele>173.83333333333334</ele><time>2026-04-26T08:08:32Z</time></trkpt><trkpt lat="45.39437255621459" lon="11.49821554295828"><ele>174.0</ele><time>2026-04-26T08:08:34Z</time></trkpt><trkpt lat="45.3943004013034" lon="11.498133566235127"><ele>174.0</ele><time>2026-04-26T08:08:36Z</time></trkpt><trkpt lat="45.39421609244011" lon="11.498043058843361"><ele>174.0</ele><time>2026-04-26T08:08:38Z</time></trkpt><trkpt lat="45.39414413571717" lon="11.497925335663355"><ele>174.0</ele><time>2026-04-26T08:08:40Z</time></trkpt><trkpt lat="45.394087696748784" lon="11.497815253294558"><ele>174.0</ele><time>2026-04-26T08:08:42Z</time></trkpt><trkpt lat="45.39403360711164" lon="11.49775576723927"><ele>174.0</ele><time>2026-04-26T08:08:44Z</time></trkpt><trkpt lat="45.3939825623027" lon="11.497667880713726"><ele>174.33333333333334</ele><time>2026-04-26T08:08:47Z</time></trkpt><trkpt lat="45.39395433147766" lon="11.497586320512577"><ele>174.66666666666666</ele><time>2026-04-26T08:08:50Z</time></trkpt><trkpt lat="45.393972451203446" lon="11.497498352328313"><ele>175.0</ele><time>2026-04-26T08:08:51.999Z</time></trkpt><trkpt lat="45.394015237010905" lon="11.497404221475922"><ele>175.33333333333331</ele><time>2026-04-26T08:08:53.999Z</time></trkpt><trkpt lat="45.39404999807222" lon="11.497273972438903"><ele>175.66666666666666</ele><time>2026-04-26T08:08:56.999Z</time></trkpt><trkpt lat="45.394072616506385" lon="11.497142193848417"><ele>176.0</ele><time>2026-04-26T08:08:59.999Z</time></trkpt><trkpt lat="45.39409913956075" lon="11.49703788412521"><ele>176.85714285714286</ele><time>2026-04-26T08:09:01.999Z</time></trkpt><trkpt lat="45.39411085911025" lon="11.496944706106481"><ele>177.71428571428572</ele><time>2026-04-26T08:09:03.999Z</time></trkpt><trkpt lat="45.39411595745512" lon="11.496839550323488"><ele>178.57142857142856</ele><time>2026-04-26T08:09:05.999Z</time></trkpt><trkpt lat="45.39412245870421" lon="11.496746707924787"><ele>179.42857142857144</ele><time>2026-04-26T08:09:07.999Z</time></trkpt><trkpt lat="45.39412966403189" lon="11.496623158587356"><ele>180.28571428571428</ele><time>2026-04-26T08:09:10.999Z</time></trkpt><trkpt lat="45.39414296041595" lon="11.4965278626739"><ele>181.14285714285714</ele><time>2026-04-26T08:09:12.999Z</time></trkpt><trkpt lat="45.3941476238571" lon="11.496436092476328"><ele>182.0</ele><time>2026-04-26T08:09:14.999Z</time></trkpt><trkpt lat="45.39415954871956" lon="11.496337632384202"><ele>182.39999999999998</ele><time>2026-04-26T08:09:16.999Z</time></trkpt><trkpt lat="45.39417403900232" lon="11.496220757756417"><ele>182.79999999999998</ele><time>2026-04-26T08:09:18.999Z</time></trkpt><trkpt lat="45.39418964910475" lon="11.49609373472849"><ele>183.2</ele><time>2026-04-26T08:09:20.999Z</time></trkpt><trkpt lat="45.39420778639008" lon="11.495961679970124"><ele>183.6</ele><time>2026-04-26T08:09:22.999Z</time></trkpt><trkpt lat="45.39421727528593" lon="11.495834027726197"><ele>184.0</ele><time>2026-04-26T08:09:24.999Z</time></trkpt><trkpt lat="45.394210882203595" lon="11.495703747691625"><ele>184.0</ele><time>2026-04-26T08:09:26.999Z</time></trkpt><trkpt lat="45.394206712224" lon="11.49558095145878"><ele>184.0</ele><time>2026-04-26T08:09:28.999Z</time></trkpt><trkpt lat="45.39421790804595" lon="11.4954663451952"><ele>184.0</ele><time>2026-04-26T08:09:30.999Z</time></trkpt><trkpt lat="45.39423234845456" lon="11.49536221465682"><ele>184.0</ele><time>2026-04-26T08:09:32.998Z</time></trkpt><trkpt lat="45.39424100305385" lon="11.49527251485644"><ele>184.0</ele><time>2026-04-26T08:09:34.998Z</time></trkpt><trkpt lat="45.39423467823402" lon="11.49514366597636"><ele>184.0</ele><time>2026-04-26T08:09:37.998Z</time></trkpt><trkpt lat="45.394160015097725" lon="11.495072245185732"><ele>182.66666666666669</ele><time>2026-04-26T08:09:39.998Z</time></trkpt><trkpt lat="45.394100272232166" lon="11.495014155250116"><ele>181.33333333333334</ele><time>2026-04-26T08:09:41.998Z</time></trkpt><trkpt lat="45.3940328497763" lon="11.494909281007374"><ele>180.0</ele><time>2026-04-26T08:09:44.998Z</time></trkpt><trkpt lat="45.39399415218726" lon="11.494809052944138"><ele>178.66666666666666</ele><time>2026-04-26T08:09:46.998Z</time></trkpt><trkpt lat="45.39395190429472" lon="11.494726073071783"><ele>177.33333333333331</ele><time>2026-04-26T08:09:48.998Z</time></trkpt><trkpt lat="45.39389835398413" lon="11.49463655195134"><ele>176.0</ele><time>2026-04-26T08:09:50.998Z</time></trkpt><trkpt lat="45.39384934946308" lon="11.49452838071297"><ele>175.16666666666666</ele><time>2026-04-26T08:09:52.998Z</time></trkpt><trkpt lat="45.39376590845493" lon="11.494443308303012"><ele>174.33333333333331</ele><time>2026-04-26T08:09:54.998Z</time></trkpt><trkpt lat="45.39367246147937" lon="11.494370576311631"><ele>173.5</ele><time>2026-04-26T08:09:56.998Z</time></trkpt><trkpt lat="45.39360533025236" lon="11.494344618735196"><ele>172.66666666666666</ele><time>2026-04-26T08:09:57.998Z</time></trkpt><trkpt lat="45.393539365824985" lon="11.494284366769408"><ele>171.83333333333334</ele><time>2026-04-26T08:09:58.998Z</time></trkpt><trkpt lat="45.39347172597305" lon="11.494203918499888"><ele>171.0</ele><time>2026-04-26T08:09:59.998Z</time></trkpt><trkpt lat="45.39340328525183" lon="11.494119123574048"><ele>171.0</ele><time>2026-04-26T08:10:00.998Z</time></trkpt><trkpt lat="45.39333436211957" lon="11.494027349458767"><ele>171.0</ele><time>2026-04-26T08:10:01.998Z</time></trkpt><trkpt lat="45.39327750932165" lon="11.49390856422975"><ele>171.0</ele><time>2026-04-26T08:10:02.998Z</time></trkpt><trkpt lat="45.39321356392505" lon="11.493804409083896"><ele>171.0</ele><time>2026-04-26T08:10:03.998Z</time></trkpt><trkpt lat="45.39314782844547" lon="11.493707685816622"><ele>171.0</ele><time>2026-04-26T08:10:04.998Z</time></trkpt><trkpt lat="45.39308090009396" lon="11.493615518102466"><ele>170.66666666666666</ele><time>2026-04-26T08:10:05.998Z</time></trkpt><trkpt lat="45.393011141421205" lon="11.49352920204507"><ele>170.33333333333334</ele><time>2026-04-26T08:10:06.998Z</time></trkpt><trkpt lat="45.39293946022385" lon="11.493449026696434"><ele>170.0</ele><time>2026-04-26T08:10:07.998Z</time></trkpt><trkpt lat="45.39286151171505" lon="11.493386311919933"><ele>169.66666666666669</ele><time>2026-04-26T08:10:08.998Z</time></trkpt><trkpt lat="45.39278254542814" lon="11.493328600383578"><ele>169.33333333333334</ele><time>2026-04-26T08:10:09.998Z</time></trkpt><trkpt lat="45.39270511387886" lon="11.493277479700348"><ele>169.0</ele><time>2026-04-26T08:10:10.997Z</time></trkpt><trkpt lat="45.392637253442736" lon="11.493235062232243"><ele>169.0</ele><time>2026-04-26T08:10:11.997Z</time></trkpt><trkpt lat="45.392572996069774" lon="11.49319388387555"><ele>169.0</ele><time>2026-04-26T08:10:12.997Z</time></trkpt><trkpt lat="45.39251540351542" lon="11.493146149317274"><ele>169.0</ele><time>2026-04-26T08:10:13.997Z</time></trkpt><trkpt lat="45.392460256697696" lon="11.49309504125858"><ele>169.0</ele><time>2026-04-26T08:10:14.997Z</time></trkpt><trkpt lat="45.39243413198126" lon="11.493002312880957"><ele>169.0</ele><time>2026-04-26T08:10:15.997Z</time></trkpt><trkpt lat="45.392400970887344" lon="11.492845653135014"><ele>169.0</ele><time>2026-04-26T08:10:17.997Z</time></trkpt><trkpt lat="45.39237851378095" lon="11.492740046920588"><ele>170.66666666666669</ele><time>2026-04-26T08:10:18.997Z</time></trkpt><trkpt lat="45.39234830216735" lon="11.492627047891133"><ele>172.33333333333334</ele><time>2026-04-26T08:10:19.997Z</time></trkpt><trkpt lat="45.39231323685469" lon="11.492526254111805"><ele>174.0</ele><time>2026-04-26T08:10:20.997Z</time></trkpt><trkpt lat="45.39227370071596" lon="11.492418163216783"><ele>175.66666666666666</ele><time>2026-04-26T08:10:21.997Z</time></trkpt><trkpt lat="45.39223732694343" lon="11.49232146696688"><ele>177.33333333333331</ele><time>2026-04-26T08:10:22.997Z</time></trkpt><trkpt lat="45.39219806747343" lon="11.492225927125737"><ele>179.0</ele><time>2026-04-26T08:10:23.997Z</time></trkpt><trkpt lat="45.39215997528995" lon="11.492136451997482"><ele>174.33333333333331</ele><time>2026-04-26T08:10:24.997Z</time></trkpt><trkpt lat="45.3921145520836" lon="11.492045764288639"><ele>169.66666666666666</ele><time>2026-04-26T08:10:25.997Z</time></trkpt><trkpt lat="45.392063445880744" lon="11.491957500781071"><ele>165.0</ele><time>2026-04-26T08:10:27Z</time></trkpt><trkpt lat="45.39199946822048" lon="11.49188952058719"><ele>160.33333333333334</ele><time>2026-04-26T08:10:28Z</time></trkpt><trkpt lat="45.39195094367349" lon="11.49179077400576"><ele>155.66666666666669</ele><time>2026-04-26T08:10:29Z</time></trkpt><trkpt lat="45.391884853231026" lon="11.491702539020112"><ele>151.0</ele><time>2026-04-26T08:10:30Z</time></trkpt><trkpt lat="45.39182128475704" lon="11.491620856847286"><ele>151.0</ele><time>2026-04-26T08:10:31Z</time></trkpt><trkpt lat="45.39175852474153" lon="11.491540968221479"><ele>151.0</ele><time>2026-04-26T08:10:32Z</time></trkpt><trkpt lat="45.39168746388127" lon="11.491478531871527"><ele>151.0</ele><time>2026-04-26T08:10:33Z</time></trkpt><trkpt lat="45.39163925506291" lon="11.491395213804918"><ele>151.0</ele><time>2026-04-26T08:10:34Z</time></trkpt><trkpt lat="45.39158202159338" lon="11.491347527834254"><ele>151.0</ele><time>2026-04-26T08:10:35Z</time></trkpt><trkpt lat="45.39147602019426" lon="11.49128113342301"><ele>151.0</ele><time>2026-04-26T08:10:37Z</time></trkpt><trkpt lat="45.39139336645278" lon="11.49118554435409"><ele>148.66666666666669</ele><time>2026-04-26T08:10:39Z</time></trkpt><trkpt lat="45.39129524582943" lon="11.49107699262015"><ele>146.33333333333334</ele><time>2026-04-26T08:10:41Z</time></trkpt><trkpt lat="45.39123095891554" lon="11.491024710602467"><ele>144.0</ele><time>2026-04-26T08:10:42Z</time></trkpt><trkpt lat="45.391159341663766" lon="11.490988501881992"><ele>141.66666666666666</ele><time>2026-04-26T08:10:43Z</time></trkpt><trkpt lat="45.391087093518856" lon="11.490945777467001"><ele>139.33333333333331</ele><time>2026-04-26T08:10:44Z</time></trkpt><trkpt lat="45.391008599847844" lon="11.490910979080203"><ele>137.0</ele><time>2026-04-26T08:10:45Z</time></trkpt><trkpt lat="45.39092826534538" lon="11.490872339771961"><ele>137.0</ele><time>2026-04-26T08:10:46Z</time></trkpt><trkpt lat="45.39084308895408" lon="11.490829766381696"><ele>137.0</ele><time>2026-04-26T08:10:47Z</time></trkpt><trkpt lat="45.39076210840694" lon="11.490798128433152"><ele>137.0</ele><time>2026-04-26T08:10:48Z</time></trkpt><trkpt lat="45.39068541782049" lon="11.490761479151162"><ele>137.0</ele><time>2026-04-26T08:10:49Z</time></trkpt><trkpt lat="45.3906032209287" lon="11.490731409607656"><ele>137.0</ele><time>2026-04-26T08:10:50Z</time></trkpt><trkpt lat="45.39052983054028" lon="11.490696546942983"><ele>137.0</ele><time>2026-04-26T08:10:51Z</time></trkpt><trkpt lat="45.390455043955676" lon="11.490648576187422"><ele>137.4</ele><time>2026-04-26T08:10:52Z</time></trkpt><trkpt lat="45.390385569830514" lon="11.490593567977308"><ele>137.79999999999998</ele><time>2026-04-26T08:10:53Z</time></trkpt><trkpt lat="45.39031017834611" lon="11.490536626448646"><ele>138.2</ele><time>2026-04-26T08:10:54Z</time></trkpt><trkpt lat="45.3902390140233" lon="11.49045739061349"><ele>138.6</ele><time>2026-04-26T08:10:55Z</time></trkpt><trkpt lat="45.390153849838555" lon="11.49039093204341"><ele>139.0</ele><time>2026-04-26T08:10:56Z</time></trkpt><trkpt lat="45.390061865691095" lon="11.490316953910673"><ele>131.6</ele><time>2026-04-26T08:10:56.999Z</time></trkpt><trkpt lat="45.38997447552021" lon="11.490267393286464"><ele>124.2</ele><time>2026-04-26T08:10:57.999Z</time></trkpt><trkpt lat="45.389880676338805" lon="11.490230646690195"><ele>116.8</ele><time>2026-04-26T08:10:58.999Z</time></trkpt><trkpt lat="45.38978420386478" lon="11.490177997994246"><ele>109.39999999999999</ele><time>2026-04-26T08:10:59.999Z</time></trkpt><trkpt lat="45.389688735176335" lon="11.490188675933819"><ele>102.0</ele><time>2026-04-26T08:11:00.999Z</time></trkpt><trkpt lat="45.38960497137218" lon="11.490197220656103"><ele>100.85714285714286</ele><time>2026-04-26T08:11:01.999Z</time></trkpt><trkpt lat="45.38952930989241" lon="11.490214674260338"><ele>99.71428571428572</ele><time>2026-04-26T08:11:02.999Z</time></trkpt><trkpt lat="45.38944946565991" lon="11.490237250436044"><ele>98.57142857142857</ele><time>2026-04-26T08:11:03.999Z</time></trkpt><trkpt lat="45.38937246866682" lon="11.49023421520387"><ele>97.42857142857143</ele><time>2026-04-26T08:11:04.999Z</time></trkpt><trkpt lat="45.38930695811377" lon="11.490256852493353"><ele>96.28571428571428</ele><time>2026-04-26T08:11:05.999Z</time></trkpt><trkpt lat="45.38924250333519" lon="11.490291359041214"><ele>95.14285714285714</ele><time>2026-04-26T08:11:06.999Z</time></trkpt><trkpt lat="45.389176746006385" lon="11.49033653330255"><ele>94.0</ele><time>2026-04-26T08:11:07.999Z</time></trkpt><trkpt lat="45.38906200725788" lon="11.490432984087175"><ele>94.14285714285714</ele><time>2026-04-26T08:11:09.999Z</time></trkpt><trkpt lat="45.38901708975506" lon="11.490506149446514"><ele>94.28571428571428</ele><time>2026-04-26T08:11:10.999Z</time></trkpt><trkpt lat="45.388962492906664" lon="11.490559215964694"><ele>94.42857142857143</ele><time>2026-04-26T08:11:11.999Z</time></trkpt><trkpt lat="45.388896869085364" lon="11.490598138048288"><ele>94.57142857142857</ele><time>2026-04-26T08:11:12.999Z</time></trkpt><trkpt lat="45.38882692537809" lon="11.490635443372723"><ele>94.71428571428572</ele><time>2026-04-26T08:11:13.999Z</time></trkpt><trkpt lat="45.388766171575796" lon="11.490666100438848"><ele>94.85714285714286</ele><time>2026-04-26T08:11:14.999Z</time></trkpt><trkpt lat="45.388698328895906" lon="11.49068990908127"><ele>95.0</ele><time>2026-04-26T08:11:15.999Z</time></trkpt><trkpt lat="45.388632466551606" lon="11.490711167454826"><ele>95.0</ele><time>2026-04-26T08:11:16.999Z</time></trkpt><trkpt lat="45.388564666758406" lon="11.490729714563207"><ele>95.0</ele><time>2026-04-26T08:11:17.999Z</time></trkpt><trkpt lat="45.38849612686099" lon="11.49076158163307"><ele>95.0</ele><time>2026-04-26T08:11:18.999Z</time></trkpt><trkpt lat="45.38843344934151" lon="11.490806457765482"><ele>95.0</ele><time>2026-04-26T08:11:19.999Z</time></trkpt><trkpt lat="45.38836951128479" lon="11.490838275840884"><ele>95.0</ele><time>2026-04-26T08:11:20.999Z</time></trkpt><trkpt lat="45.38830687876141" lon="11.490922211609766"><ele>95.0</ele><time>2026-04-26T08:11:21.999Z</time></trkpt><trkpt lat="45.38825440302394" lon="11.491025572497772"><ele>95.0</ele><time>2026-04-26T08:11:22.999Z</time></trkpt><trkpt lat="45.388211314548116" lon="11.491134666286367"><ele>95.0</ele><time>2026-04-26T08:11:23.999Z</time></trkpt><trkpt lat="45.38817777641025" lon="11.491238200977632"><ele>95.0</ele><time>2026-04-26T08:11:24.999Z</time></trkpt><trkpt lat="45.38814906484715" lon="11.491326241287334"><ele>95.0</ele><time>2026-04-26T08:11:25.999Z</time></trkpt><trkpt lat="45.38809344342481" lon="11.49143437351279"><ele>95.0</ele><time>2026-04-26T08:11:27.999Z</time></trkpt><trkpt lat="45.38798285593128" lon="11.491437379123031"><ele>95.0</ele><time>2026-04-26T08:11:29.999Z</time></trkpt><trkpt lat="45.387892014818455" lon="11.49139886257649"><ele>96.4</ele><time>2026-04-26T08:11:30.999Z</time></trkpt><trkpt lat="45.38779004992991" lon="11.491355777123172"><ele>97.8</ele><time>2026-04-26T08:11:31.999Z</time></trkpt><trkpt lat="45.38769867399365" lon="11.491321346610514"><ele>99.19999999999999</ele><time>2026-04-26T08:11:32.999Z</time></trkpt><trkpt lat="45.387600613963166" lon="11.491288138360883"><ele>100.6</ele><time>2026-04-26T08:11:33.999Z</time></trkpt><trkpt lat="45.387484530624256" lon="11.491260110409854"><ele>102.0</ele><time>2026-04-26T08:11:34.999Z</time></trkpt><trkpt lat="45.38738904717102" lon="11.491290828594158"><ele>96.8</ele><time>2026-04-26T08:11:35.999Z</time></trkpt><trkpt lat="45.38729006274764" lon="11.49125173592501"><ele>91.6</ele><time>2026-04-26T08:11:36.999Z</time></trkpt><trkpt lat="45.387196780312365" lon="11.49121115665371"><ele>86.39999999999999</ele><time>2026-04-26T08:11:37.998Z</time></trkpt><trkpt lat="45.38710881895381" lon="11.491143179261197"><ele>81.19999999999999</ele><time>2026-04-26T08:11:38.998Z</time></trkpt><trkpt lat="45.38701437711769" lon="11.491075347870336"><ele>76.0</ele><time>2026-04-26T08:11:39.998Z</time></trkpt><trkpt lat="45.38691287788992" lon="11.49099652173125"><ele>74.8</ele><time>2026-04-26T08:11:40.998Z</time></trkpt><trkpt lat="45.386819778978854" lon="11.490932091902696"><ele>73.6</ele><time>2026-04-26T08:11:41.998Z</time></trkpt><trkpt lat="45.38672325526074" lon="11.490877423485353"><ele>72.4</ele><time>2026-04-26T08:11:42.998Z</time></trkpt><trkpt lat="45.38663054832953" lon="11.490821195856062"><ele>71.2</ele><time>2026-04-26T08:11:43.998Z</time></trkpt><trkpt lat="45.38656123005059" lon="11.49075182677647"><ele>70.0</ele><time>2026-04-26T08:11:44.998Z</time></trkpt><trkpt lat="45.386497341510115" lon="11.490682501233126"><ele>70.0</ele><time>2026-04-26T08:11:45.998Z</time></trkpt><trkpt lat="45.386441620693006" lon="11.490619713727188"><ele>70.0</ele><time>2026-04-26T08:11:46.998Z</time></trkpt><trkpt lat="45.38637035557799" lon="11.490583798428045"><ele>70.0</ele><time>2026-04-26T08:11:47.998Z</time></trkpt><trkpt lat="45.38628330433004" lon="11.490558581141832"><ele>70.0</ele><time>2026-04-26T08:11:48.998Z</time></trkpt><trkpt lat="45.38620443783527" lon="11.49054871076181"><ele>70.0</ele><time>2026-04-26T08:11:49.998Z</time></trkpt><trkpt lat="45.386134022659725" lon="11.490519256179486"><ele>70.0</ele><time>2026-04-26T08:11:50.998Z</time></trkpt><trkpt lat="45.38607307254857" lon="11.490477830327425"><ele>67.0</ele><time>2026-04-26T08:11:51.998Z</time></trkpt><trkpt lat="45.385964023356756" lon="11.49040138867561"><ele>64.0</ele><time>2026-04-26T08:11:53.998Z</time></trkpt><trkpt lat="45.38587316682866" lon="11.490250500540721"><ele>61.0</ele><time>2026-04-26T08:11:55.998Z</time></trkpt><trkpt lat="45.385851676275095" lon="11.490119746279547"><ele>58.0</ele><time>2026-04-26T08:11:56.998Z</time></trkpt><trkpt lat="45.38582574991998" lon="11.48999139564138"><ele>55.0</ele><time>2026-04-26T08:11:57.998Z</time></trkpt><trkpt lat="45.38580388432238" lon="11.489849354431426"><ele>55.0</ele><time>2026-04-26T08:11:58.998Z</time></trkpt><trkpt lat="45.38577344520913" lon="11.4897153527875"><ele>55.0</ele><time>2026-04-26T08:11:59.998Z</time></trkpt><trkpt lat="45.38572768090388" lon="11.489591838610771"><ele>55.0</ele><time>2026-04-26T08:12:00.998Z</time></trkpt><trkpt lat="45.38567324555016" lon="11.489474942559934"><ele>55.0</ele><time>2026-04-26T08:12:01.998Z</time></trkpt><trkpt lat="45.3856210717496" lon="11.489366135873329"><ele>55.0</ele><time>2026-04-26T08:12:02.998Z</time></trkpt><trkpt lat="45.38556715905584" lon="11.489275191958512"><ele>52.83333333333333</ele><time>2026-04-26T08:12:03.998Z</time></trkpt><trkpt lat="45.38552428613983" lon="11.489182265738432"><ele>50.666666666666664</ele><time>2026-04-26T08:12:04.998Z</time></trkpt><trkpt lat="45.38549124699329" lon="11.48907917035835"><ele>48.5</ele><time>2026-04-26T08:12:05.998Z</time></trkpt><trkpt lat="45.38547051489033" lon="11.488957385646438"><ele>46.33333333333333</ele><time>2026-04-26T08:12:06.998Z</time></trkpt><trkpt lat="45.38545569454912" lon="11.48883301893523"><ele>44.166666666666664</ele><time>2026-04-26T08:12:07.998Z</time></trkpt><trkpt lat="45.38544122339245" lon="11.488720649631379"><ele>42.0</ele><time>2026-04-26T08:12:08.998Z</time></trkpt><trkpt lat="45.385434091866415" lon="11.488615622075516"><ele>41.2</ele><time>2026-04-26T08:12:09.998Z</time></trkpt><trkpt lat="45.38542804368017" lon="11.488446589075389"><ele>40.400000000000006</ele><time>2026-04-26T08:12:11.998Z</time></trkpt><trkpt lat="45.385429252337616" lon="11.488285480966999"><ele>39.599999999999994</ele><time>2026-04-26T08:12:13.998Z</time></trkpt><trkpt lat="45.385424841729325" lon="11.48816262836364"><ele>38.8</ele><time>2026-04-26T08:12:15.998Z</time></trkpt><trkpt lat="45.38549408395616" lon="11.48805947341204"><ele>38.0</ele><time>2026-04-26T08:12:17.998Z</time></trkpt><trkpt lat="45.38556801878531" lon="11.488045540980798"><ele>37.166666666666664</ele><time>2026-04-26T08:12:18.997Z</time></trkpt><trkpt lat="45.38564190700426" lon="11.488041277637693"><ele>36.33333333333333</ele><time>2026-04-26T08:12:19.997Z</time></trkpt><trkpt lat="45.385715912837085" lon="11.488038831938377"><ele>35.5</ele><time>2026-04-26T08:12:20.997Z</time></trkpt><trkpt lat="45.38579803108108" lon="11.488035711532103"><ele>34.666666666666664</ele><time>2026-04-26T08:12:21.997Z</time></trkpt><trkpt lat="45.3858768076013" lon="11.488024373276168"><ele>33.833333333333336</ele><time>2026-04-26T08:12:22.997Z</time></trkpt><trkpt lat="45.38595540362869" lon="11.488013785797701"><ele>33.0</ele><time>2026-04-26T08:12:23.997Z</time></trkpt><trkpt lat="45.38603273214499" lon="11.488007363390407"><ele>33.0</ele><time>2026-04-26T08:12:24.997Z</time></trkpt><trkpt lat="45.38611014819389" lon="11.488020321028314"><ele>33.0</ele><time>2026-04-26T08:12:25.997Z</time></trkpt><trkpt lat="45.38618833678687" lon="11.488018550268935"><ele>33.0</ele><time>2026-04-26T08:12:26.997Z</time></trkpt><trkpt lat="45.38626402117282" lon="11.488013486019751"><ele>33.0</ele><time>2026-04-26T08:12:27.997Z</time></trkpt><trkpt lat="45.38633351443251" lon="11.48800694574205"><ele>33.0</ele><time>2026-04-26T08:12:28.997Z</time></trkpt><trkpt lat="45.386436259403396" lon="11.487961411057212"><ele>33.0</ele><time>2026-04-26T08:12:30.997Z</time></trkpt><trkpt lat="45.38645973601393" lon="11.487797657937405"><ele>31.4</ele><time>2026-04-26T08:12:33Z</time></trkpt><trkpt lat="45.38645929421006" lon="11.48762518468409"><ele>29.799999999999997</ele><time>2026-04-26T08:12:35Z</time></trkpt><trkpt lat="45.38644084325549" lon="11.487537609035487"><ele>28.2</ele><time>2026-04-26T08:12:36Z</time></trkpt><trkpt lat="45.38644138241421" lon="11.487360817174173"><ele>26.6</ele><time>2026-04-26T08:12:38Z</time></trkpt><trkpt lat="45.386435107690374" lon="11.487180138853745"><ele>25.0</ele><time>2026-04-26T08:12:40Z</time></trkpt><trkpt lat="45.38642904099803" lon="11.487090224468002"><ele>24.28571428571429</ele><time>2026-04-26T08:12:41Z</time></trkpt><trkpt lat="45.38642310934372" lon="11.486998557493475"><ele>23.571428571428573</ele><time>2026-04-26T08:12:42Z</time></trkpt><trkpt lat="45.38641774636412" lon="11.486903002991314"><ele>22.857142857142858</ele><time>2026-04-26T08:12:43Z</time></trkpt><trkpt lat="45.386414653548314" lon="11.486806520919986"><ele>22.142857142857146</ele><time>2026-04-26T08:12:44Z</time></trkpt><trkpt lat="45.38641183589561" lon="11.486709302799866"><ele>21.42857142857143</ele><time>2026-04-26T08:12:45Z</time></trkpt><trkpt lat="45.38640406296507" lon="11.486610685565351"><ele>20.714285714285715</ele><time>2026-04-26T08:12:46Z</time></trkpt><trkpt lat="45.38639876498374" lon="11.486510132828812"><ele>20.0</ele><time>2026-04-26T08:12:47Z</time></trkpt><trkpt lat="45.38639466259137" lon="11.48640793217625"><ele>20.0</ele><time>2026-04-26T08:12:48Z</time></trkpt><trkpt lat="45.386393948446454" lon="11.486303824361755"><ele>20.0</ele><time>2026-04-26T08:12:49Z</time></trkpt><trkpt lat="45.38638881324984" lon="11.486199182269427"><ele>20.0</ele><time>2026-04-26T08:12:50Z</time></trkpt><trkpt lat="45.386380919650094" lon="11.486095312599327"><ele>20.0</ele><time>2026-04-26T08:12:51Z</time></trkpt><trkpt lat="45.38637940014377" lon="11.485987154068042"><ele>20.0</ele><time>2026-04-26T08:12:52Z</time></trkpt><trkpt lat="45.386375882615525" lon="11.48588007680242"><ele>20.0</ele><time>2026-04-26T08:12:53Z</time></trkpt><trkpt lat="45.386371468452474" lon="11.485769188479132"><ele>20.0</ele><time>2026-04-26T08:12:54Z</time></trkpt><trkpt lat="45.38636761294547" lon="11.485659101853129"><ele>19.5</ele><time>2026-04-26T08:12:55Z</time></trkpt><trkpt lat="45.38636483197261" lon="11.48554976810811"><ele>19.0</ele><time>2026-04-26T08:12:56Z</time></trkpt><trkpt lat="45.386364067534664" lon="11.485438671565692"><ele>18.5</ele><time>2026-04-26T08:12:57Z</time></trkpt><trkpt lat="45.38636253265901" lon="11.485324457424197"><ele>18.0</ele><time>2026-04-26T08:12:58Z</time></trkpt><trkpt lat="45.386360895296036" lon="11.485209375337588"><ele>17.5</ele><time>2026-04-26T08:12:59Z</time></trkpt><trkpt lat="45.38635418386708" lon="11.485093934590095"><ele>17.0</ele><time>2026-04-26T08:13:00Z</time></trkpt><trkpt lat="45.38634379719375" lon="11.484980973357109"><ele>16.833333333333336</ele><time>2026-04-26T08:13:01Z</time></trkpt><trkpt lat="45.386334015698694" lon="11.48486517384889"><ele>16.666666666666668</ele><time>2026-04-26T08:13:02Z</time></trkpt><trkpt lat="45.38632567548918" lon="11.484750919428924"><ele>16.5</ele><time>2026-04-26T08:13:03Z</time></trkpt><trkpt lat="45.38632093016049" lon="11.484635920091154"><ele>16.333333333333332</ele><time>2026-04-26T08:13:03.999Z</time></trkpt><trkpt lat="45.38631775146427" lon="11.484522912845428"><ele>16.166666666666664</ele><time>2026-04-26T08:13:04.999Z</time></trkpt><trkpt lat="45.3863151104674" lon="11.484408818133383"><ele>16.0</ele><time>2026-04-26T08:13:05.999Z</time></trkpt><trkpt lat="45.38630771623045" lon="11.484294942505109"><ele>15.833333333333332</ele><time>2026-04-26T08:13:06.999Z</time></trkpt><trkpt lat="45.38630327317295" lon="11.48418110571103"><ele>15.666666666666666</ele><time>2026-04-26T08:13:07.999Z</time></trkpt><trkpt lat="45.386296606378735" lon="11.484067286743157"><ele>15.5</ele><time>2026-04-26T08:13:08.999Z</time></trkpt><trkpt lat="45.386291087364846" lon="11.483951634613682"><ele>15.333333333333332</ele><time>2026-04-26T08:13:09.999Z</time></trkpt><trkpt lat="45.386285752638855" lon="11.483833389950092"><ele>15.166666666666666</ele><time>2026-04-26T08:13:10.999Z</time></trkpt><trkpt lat="45.38628217119535" lon="11.483714330401758"><ele>15.0</ele><time>2026-04-26T08:13:11.999Z</time></trkpt><trkpt lat="45.386274271236275" lon="11.483599490736559"><ele>14.833333333333334</ele><time>2026-04-26T08:13:12.999Z</time></trkpt><trkpt lat="45.386279527345756" lon="11.483482253098792"><ele>14.666666666666668</ele><time>2026-04-26T08:13:13.999Z</time></trkpt><trkpt lat="45.38627202512383" lon="11.483370310631903"><ele>14.5</ele><time>2026-04-26T08:13:14.999Z</time></trkpt><trkpt lat="45.386267231012475" lon="11.483268145052449"><ele>14.333333333333334</ele><time>2026-04-26T08:13:15.999Z</time></trkpt><trkpt lat="45.386262523489876" lon="11.483177752315122"><ele>14.166666666666668</ele><time>2026-04-26T08:13:16.999Z</time></trkpt><trkpt lat="45.38625392384876" lon="11.483018718079615"><ele>14.0</ele><time>2026-04-26T08:13:18.999Z</time></trkpt><trkpt lat="45.38625756746186" lon="11.482868954967495"><ele>14.0</ele><time>2026-04-26T08:13:20.999Z</time></trkpt><trkpt lat="45.38624260983471" lon="11.48273409811528"><ele>13.999999999999998</ele><time>2026-04-26T08:13:22.999Z</time></trkpt><trkpt lat="45.38624349603755" lon="11.482589828434444"><ele>13.999999999999998</ele><time>2026-04-26T08:13:24.999Z</time></trkpt><trkpt lat="45.38624292116363" lon="11.48246503503603"><ele>14.0</ele><time>2026-04-26T08:13:26.999Z</time></trkpt><trkpt lat="45.386236695915436" lon="11.482335681446244"><ele>14.0</ele><time>2026-04-26T08:13:28.999Z</time></trkpt><trkpt lat="45.38622925344404" lon="11.482214752767"><ele>14.2</ele><time>2026-04-26T08:13:30.999Z</time></trkpt><trkpt lat="45.38622019515921" lon="11.482088780714866"><ele>14.399999999999999</ele><time>2026-04-26T08:13:32.999Z</time></trkpt><trkpt lat="45.38623029786959" lon="11.481933269358004"><ele>14.6</ele><time>2026-04-26T08:13:34.999Z</time></trkpt><trkpt lat="45.386244318058274" lon="11.481763252408314"><ele>14.8</ele><time>2026-04-26T08:13:36.999Z</time></trkpt><trkpt lat="45.386237106500026" lon="11.481628571708494"><ele>15.0</ele><time>2026-04-26T08:13:38.999Z</time></trkpt><trkpt lat="45.386220646383414" lon="11.48151395456607"><ele>15.0</ele><time>2026-04-26T08:13:40.999Z</time></trkpt><trkpt lat="45.38621073452949" lon="11.481401353746683"><ele>15.0</ele><time>2026-04-26T08:13:42.999Z</time></trkpt><trkpt lat="45.386206117018034" lon="11.481266609440858"><ele>15.0</ele><time>2026-04-26T08:13:45.998Z</time></trkpt><trkpt lat="45.386207544789094" lon="11.481148234417663"><ele>15.0</ele><time>2026-04-26T08:13:48.998Z</time></trkpt><trkpt lat="45.38620469872956" lon="11.48104995987472"><ele>15.0</ele><time>2026-04-26T08:13:51.998Z</time></trkpt><trkpt lat="45.386197236119244" lon="11.48094737344922"><ele>15.0</ele><time>2026-04-26T08:13:54.998Z</time></trkpt><trkpt lat="45.3862095818192" lon="11.480842396608598"><ele>14.666666666666666</ele><time>2026-04-26T08:13:56.998Z</time></trkpt><trkpt lat="45.38624995038332" lon="11.480720616533489"><ele>14.333333333333332</ele><time>2026-04-26T08:13:57.998Z</time></trkpt><trkpt lat="45.38631880103149" lon="11.480623338170444"><ele>14.0</ele><time>2026-04-26T08:13:58.998Z</time></trkpt><trkpt lat="45.38638722704733" lon="11.48057071671353"><ele>13.666666666666666</ele><time>2026-04-26T08:13:59.998Z</time></trkpt><trkpt lat="45.386432282722225" lon="11.480494679804671"><ele>13.333333333333332</ele><time>2026-04-26T08:14:00.998Z</time></trkpt><trkpt lat="45.386475195768085" lon="11.480423067401935"><ele>13.0</ele><time>2026-04-26T08:14:01.998Z</time></trkpt><trkpt lat="45.38651750120352" lon="11.480352468962675"><ele>12.857142857142856</ele><time>2026-04-26T08:14:02.998Z</time></trkpt><trkpt lat="45.38656163953147" lon="11.48027470312597"><ele>12.714285714285715</ele><time>2026-04-26T08:14:03.998Z</time></trkpt><trkpt lat="45.386609466137756" lon="11.480187856974144"><ele>12.571428571428571</ele><time>2026-04-26T08:14:04.998Z</time></trkpt><trkpt lat="45.38665283178768" lon="11.480103813243431"><ele>12.428571428571427</ele><time>2026-04-26T08:14:05.998Z</time></trkpt><trkpt lat="45.38669501510768" lon="11.480013050698782"><ele>12.285714285714285</ele><time>2026-04-26T08:14:06.998Z</time></trkpt><trkpt lat="45.386726511211386" lon="11.479914229374547"><ele>12.142857142857142</ele><time>2026-04-26T08:14:07.998Z</time></trkpt><trkpt lat="45.386752799348365" lon="11.479817612093242"><ele>12.0</ele><time>2026-04-26T08:14:08.998Z</time></trkpt><trkpt lat="45.38677221240268" lon="11.479717238794015"><ele>12.0</ele><time>2026-04-26T08:14:09.998Z</time></trkpt><trkpt lat="45.38678403241594" lon="11.479615227326722"><ele>12.0</ele><time>2026-04-26T08:14:10.998Z</time></trkpt><trkpt lat="45.386779545744034" lon="11.479514776344397"><ele>12.0</ele><time>2026-04-26T08:14:11.998Z</time></trkpt><trkpt lat="45.38677372995235" lon="11.479415688384647"><ele>12.0</ele><time>2026-04-26T08:14:12.998Z</time></trkpt><trkpt lat="45.3867483900967" lon="11.479239356764111"><ele>12.0</ele><time>2026-04-26T08:14:14.998Z</time></trkpt><trkpt lat="45.38671637257872" lon="11.479086294748985"><ele>12.2</ele><time>2026-04-26T08:14:16.998Z</time></trkpt><trkpt lat="45.38666975093103" lon="11.478949406258044"><ele>12.399999999999999</ele><time>2026-04-26T08:14:18.998Z</time></trkpt><trkpt lat="45.38663762296306" lon="11.478807355302036"><ele>12.600000000000001</ele><time>2026-04-26T08:14:20.998Z</time></trkpt><trkpt lat="45.386604297377644" lon="11.47867648746683"><ele>12.8</ele><time>2026-04-26T08:14:22.998Z</time></trkpt><trkpt lat="45.386575848471665" lon="11.478551285126832"><ele>13.0</ele><time>2026-04-26T08:14:24.998Z</time></trkpt><trkpt lat="45.386551255303345" lon="11.478441109624354"><ele>13.0</ele><time>2026-04-26T08:14:26.997Z</time></trkpt><trkpt lat="45.38650953777046" lon="11.478316067388949"><ele>13.0</ele><time>2026-04-26T08:14:28.997Z</time></trkpt><trkpt lat="45.386491894121875" lon="11.478144294935165"><ele>13.0</ele><time>2026-04-26T08:14:30.997Z</time></trkpt><trkpt lat="45.386460260364316" lon="11.478013964163134"><ele>13.0</ele><time>2026-04-26T08:14:32.997Z</time></trkpt><trkpt lat="45.38642947992767" lon="11.477887149303884"><ele>13.0</ele><time>2026-04-26T08:14:34.997Z</time></trkpt><trkpt lat="45.38638585716076" lon="11.477775546675975"><ele>12.999999999999998</ele><time>2026-04-26T08:14:36.997Z</time></trkpt><trkpt lat="45.38635887460432" lon="11.477649245206877"><ele>13.0</ele><time>2026-04-26T08:14:39Z</time></trkpt><trkpt lat="45.38633137384748" lon="11.477547622505051"><ele>13.0</ele><time>2026-04-26T08:14:41Z</time></trkpt><trkpt lat="45.386300658067036" lon="11.477449874025302"><ele>13.0</ele><time>2026-04-26T08:14:43Z</time></trkpt><trkpt lat="45.3862772030119" lon="11.477349746404233"><ele>12.999999999999998</ele><time>2026-04-26T08:14:45Z</time></trkpt><trkpt lat="45.38624748275208" lon="11.477238962428446"><ele>13.0</ele><time>2026-04-26T08:14:47Z</time></trkpt><trkpt lat="45.386226405483804" lon="11.47712827215821"><ele>12.833333333333332</ele><time>2026-04-26T08:14:49Z</time></trkpt><trkpt lat="45.386206310324184" lon="11.47702109485938"><ele>12.666666666666666</ele><time>2026-04-26T08:14:51Z</time></trkpt><trkpt lat="45.38616779707394" lon="11.4768940008145"><ele>12.5</ele><time>2026-04-26T08:14:53Z</time></trkpt><trkpt lat="45.386135110722996" lon="11.476771439191905"><ele>12.333333333333332</ele><time>2026-04-26T08:14:55Z</time></trkpt><trkpt lat="45.38610640894248" lon="11.476657197211994"><ele>12.166666666666666</ele><time>2026-04-26T08:14:57Z</time></trkpt><trkpt lat="45.386079314240185" lon="11.476545871110648"><ele>12.0</ele><time>2026-04-26T08:14:59Z</time></trkpt><trkpt lat="45.38605756146664" lon="11.476436719044077"><ele>12.0</ele><time>2026-04-26T08:15:01Z</time></trkpt><trkpt lat="45.38603509443727" lon="11.476311817347248"><ele>12.0</ele><time>2026-04-26T08:15:03Z</time></trkpt><trkpt lat="45.385999603335364" lon="11.476184602095634"><ele>12.0</ele><time>2026-04-26T08:15:05Z</time></trkpt><trkpt lat="45.385976909222165" lon="11.476077421226469"><ele>12.0</ele><time>2026-04-26T08:15:07Z</time></trkpt><trkpt lat="45.385962585417" lon="11.475977818886523"><ele>12.0</ele><time>2026-04-26T08:15:09Z</time></trkpt><trkpt lat="45.38595363645286" lon="11.475873786149014"><ele>12.0</ele><time>2026-04-26T08:15:10.999Z</time></trkpt><trkpt lat="45.385941411082676" lon="11.475752065584262"><ele>12.0</ele><time>2026-04-26T08:15:12.999Z</time></trkpt><trkpt lat="45.38593472026614" lon="11.475639084805804"><ele>12.0</ele><time>2026-04-26T08:15:14.999Z</time></trkpt><trkpt lat="45.385935146461" lon="11.475514305849847"><ele>12.0</ele><time>2026-04-26T08:15:16.999Z</time></trkpt><trkpt lat="45.38594224888965" lon="11.475404541963641"><ele>12.0</ele><time>2026-04-26T08:15:18.999Z</time></trkpt><trkpt lat="45.38593949285029" lon="11.475285430144087"><ele>12.0</ele><time>2026-04-26T08:15:20.999Z</time></trkpt><trkpt lat="45.38593577702008" lon="11.475146638739066"><ele>12.0</ele><time>2026-04-26T08:15:22.999Z</time></trkpt><trkpt lat="45.38594217284099" lon="11.47502259252994"><ele>11.833333333333334</ele><time>2026-04-26T08:15:24.999Z</time></trkpt><trkpt lat="45.38594230608984" lon="11.47490388825258"><ele>11.666666666666666</ele><time>2026-04-26T08:15:26.999Z</time></trkpt><trkpt lat="45.38593960597088" lon="11.474787757702504"><ele>11.5</ele><time>2026-04-26T08:15:28.999Z</time></trkpt><trkpt lat="45.385951409410005" lon="11.474672497901098"><ele>11.333333333333332</ele><time>2026-04-26T08:15:30.999Z</time></trkpt><trkpt lat="45.38595536270133" lon="11.47455235734679"><ele>11.166666666666666</ele><time>2026-04-26T08:15:32.999Z</time></trkpt><trkpt lat="45.38595366418814" lon="11.47444387858962"><ele>11.0</ele><time>2026-04-26T08:15:34.999Z</time></trkpt><trkpt lat="45.385958920649045" lon="11.474325190844466"><ele>11.0</ele><time>2026-04-26T08:15:36.999Z</time></trkpt><trkpt lat="45.385953400093534" lon="11.47420056142035"><ele>11.0</ele><time>2026-04-26T08:15:38.999Z</time></trkpt><trkpt lat="45.38595794232148" lon="11.474087326058719"><ele>11.0</ele><time>2026-04-26T08:15:40.999Z</time></trkpt><trkpt lat="45.38596725230949" lon="11.473979379541088"><ele>11.0</ele><time>2026-04-26T08:15:42.999Z</time></trkpt><trkpt lat="45.385973794395326" lon="11.473858994220818"><ele>11.0</ele><time>2026-04-26T08:15:44.999Z</time></trkpt><trkpt lat="45.385967704897006" lon="11.47374064192881"><ele>11.0</ele><time>2026-04-26T08:15:46.999Z</time></trkpt><trkpt lat="45.38597367603808" lon="11.473633061342369"><ele>11.428571428571429</ele><time>2026-04-26T08:15:48.999Z</time></trkpt><trkpt lat="45.38596728864105" lon="11.473533635671275"><ele>11.857142857142858</ele><time>2026-04-26T08:15:50.999Z</time></trkpt><trkpt lat="45.38597096856201" lon="11.473424608892016"><ele>12.285714285714285</ele><time>2026-04-26T08:15:52.998Z</time></trkpt><trkpt lat="45.385976665374514" lon="11.473323184626485"><ele>12.714285714285715</ele><time>2026-04-26T08:15:54.998Z</time></trkpt><trkpt lat="45.385985236369415" lon="11.473216898431957"><ele>13.142857142857142</ele><time>2026-04-26T08:15:56.998Z</time></trkpt><trkpt lat="45.38598215296871" lon="11.473117643325626"><ele>13.571428571428571</ele><time>2026-04-26T08:15:58.998Z</time></trkpt><trkpt lat="45.38599645353795" lon="11.473004221449322"><ele>14.0</ele><time>2026-04-26T08:16:00.998Z</time></trkpt><trkpt lat="45.38600338833053" lon="11.47289562509512"><ele>14.333333333333334</ele><time>2026-04-26T08:16:02.998Z</time></trkpt><trkpt lat="45.38601598610603" lon="11.472798650541522"><ele>14.666666666666668</ele><time>2026-04-26T08:16:04.998Z</time></trkpt><trkpt lat="45.38602505607184" lon="11.472688418214451"><ele>15.0</ele><time>2026-04-26T08:16:06.998Z</time></trkpt><trkpt lat="45.3860340002488" lon="11.472589745890334"><ele>15.333333333333332</ele><time>2026-04-26T08:16:08.998Z</time></trkpt><trkpt lat="45.38604445071066" lon="11.472485398995444"><ele>15.666666666666666</ele><time>2026-04-26T08:16:10.998Z</time></trkpt><trkpt lat="45.38605059603314" lon="11.472359362080942"><ele>16.0</ele><time>2026-04-26T08:16:13.998Z</time></trkpt><trkpt lat="45.38606039480511" lon="11.472229162968048"><ele>16.0</ele><time>2026-04-26T08:16:16.998Z</time></trkpt><trkpt lat="45.386062655035566" lon="11.472126316587778"><ele>15.999999999999998</ele><time>2026-04-26T08:16:18.998Z</time></trkpt><trkpt lat="45.38607173896389" lon="11.472014072274664"><ele>16.0</ele><time>2026-04-26T08:16:20.998Z</time></trkpt><trkpt lat="45.386080639143074" lon="11.471916563026278"><ele>16.0</ele><time>2026-04-26T08:16:22.998Z</time></trkpt><trkpt lat="45.386092437436815" lon="11.47182331493245"><ele>15.999999999999998</ele><time>2026-04-26T08:16:24.998Z</time></trkpt><trkpt lat="45.38609596636674" lon="11.47170351643165"><ele>16.0</ele><time>2026-04-26T08:16:27.998Z</time></trkpt><trkpt lat="45.386106214258895" lon="11.471603982933999"><ele>16.0</ele><time>2026-04-26T08:16:29.998Z</time></trkpt><trkpt lat="45.386120816313856" lon="11.471480441413034"><ele>16.333333333333332</ele><time>2026-04-26T08:16:32.997Z</time></trkpt><trkpt lat="45.38614409951183" lon="11.47136675352725"><ele>16.666666666666664</ele><time>2026-04-26T08:16:35.997Z</time></trkpt><trkpt lat="45.38615239959475" lon="11.47125101872529"><ele>17.0</ele><time>2026-04-26T08:16:38.997Z</time></trkpt><trkpt lat="45.38616455907082" lon="11.471133753807626"><ele>17.333333333333332</ele><time>2026-04-26T08:16:41.997Z</time></trkpt><trkpt lat="45.386182156535035" lon="11.471006271739409"><ele>17.666666666666668</ele><time>2026-04-26T08:16:45Z</time></trkpt><trkpt lat="45.386201847763765" lon="11.470886539363123"><ele>18.0</ele><time>2026-04-26T08:16:48Z</time></trkpt><trkpt lat="45.38621028969227" lon="11.470763296242376"><ele>19.0</ele><time>2026-04-26T08:16:51Z</time></trkpt><trkpt lat="45.38621112620298" lon="11.470644452669983"><ele>20.0</ele><time>2026-04-26T08:16:55Z</time></trkpt><trkpt lat="45.38621835947158" lon="11.470546133722076"><ele>21.0</ele><time>2026-04-26T08:16:59Z</time></trkpt><trkpt lat="45.38619235713209" lon="11.470433741497315"><ele>22.0</ele><time>2026-04-26T08:17:02Z</time></trkpt><trkpt lat="45.386145328490265" lon="11.470360771019083"><ele>23.0</ele><time>2026-04-26T08:17:07Z</time></trkpt><trkpt lat="45.386066824319634" lon="11.470342114228462"><ele>24.0</ele><time>2026-04-26T08:17:12Z</time></trkpt><trkpt lat="45.386021524607926" lon="11.470253605525164"><ele>25.285714285714285</ele><time>2026-04-26T08:17:16Z</time></trkpt><trkpt lat="45.38602068215941" lon="11.470152622671261"><ele>26.57142857142857</ele><time>2026-04-26T08:17:31.999Z</time></trkpt><trkpt lat="45.38609757489116" lon="11.470145194086916"><ele>27.857142857142854</ele><time>2026-04-26T08:17:34.999Z</time></trkpt><trkpt lat="45.38612894112278" lon="11.470049757437561"><ele>29.142857142857142</ele><time>2026-04-26T08:17:39.999Z</time></trkpt><trkpt lat="45.38612100556091" lon="11.469953529964648"><ele>30.42857142857143</ele><time>2026-04-26T08:18:21.998Z</time></trkpt><trkpt lat="45.386049670876695" lon="11.469954891012817"><ele>31.71428571428571</ele><time>2026-04-26T08:18:29.998Z</time></trkpt><trkpt lat="45.386115171857675" lon="11.469936250272191"><ele>33.0</ele><time>2026-04-26T08:18:46.997Z</time></trkpt><trkpt lat="45.386159813236375" lon="11.47000037707256"><ele>33.0</ele><time>2026-04-26T08:19:13Z</time></trkpt><trkpt lat="45.386100481750695" lon="11.469954180009855"><ele>33.0</ele><time>2026-04-26T08:32:03.999Z</time></trkpt><trkpt lat="45.38614984825893" lon="11.470024488317414"><ele>33.0</ele><time>2026-04-26T08:35:01.998Z</time></trkpt><trkpt lat="45.38613887765279" lon="11.47013423207174"><ele>33.0</ele><time>2026-04-26T08:35:05.998Z</time></trkpt><trkpt lat="45.38607518792527" lon="11.470168425728593"><ele>33.0</ele><time>2026-04-26T08:35:10.998Z</time></trkpt><trkpt lat="45.38601282696224" lon="11.470237503172761"><ele>33.0</ele><time>2026-04-26T08:35:20.998Z</time></trkpt><trkpt lat="45.38608711011304" lon="11.470240625305882"><ele>33.0</ele><time>2026-04-26T08:35:26.998Z</time></trkpt><trkpt lat="45.38615057278423" lon="11.47021177351392"><ele>33.0</ele><time>2026-04-26T08:35:32.998Z</time></trkpt><trkpt lat="45.38622955180039" lon="11.470208609267761"><ele>33.0</ele><time>2026-04-26T08:35:35.998Z</time></trkpt><trkpt lat="45.38629275087317" lon="11.470156902673667"><ele>33.0</ele><time>2026-04-26T08:35:39Z</time></trkpt><trkpt lat="45.3863059237107" lon="11.470052242939973"><ele>33.0</ele><time>2026-04-26T08:35:42Z</time></trkpt><trkpt lat="45.386331127628004" lon="11.469955642451351"><ele>33.0</ele><time>2026-04-26T08:35:45Z</time></trkpt><trkpt lat="45.38632589917709" lon="11.469837206183085"><ele>33.0</ele><time>2026-04-26T08:35:48Z</time></trkpt><trkpt lat="45.386376889886904" lon="11.46974185583296"><ele>33.42857142857143</ele><time>2026-04-26T08:35:51Z</time></trkpt><trkpt lat="45.38642133111096" lon="11.469675045804774"><ele>33.85714285714286</ele><time>2026-04-26T08:35:54Z</time></trkpt><trkpt lat="45.38647219884144" lon="11.46960177374429"><ele>34.28571428571429</ele><time>2026-04-26T08:35:58Z</time></trkpt><trkpt lat="45.3865302446283" lon="11.469521843053327"><ele>34.714285714285715</ele><time>2026-04-26T08:36:01Z</time></trkpt><trkpt lat="45.386576099175" lon="11.46944258492759"><ele>35.142857142857146</ele><time>2026-04-26T08:36:04Z</time></trkpt><trkpt lat="45.38661088794588" lon="11.469366165668491"><ele>35.57142857142858</ele><time>2026-04-26T08:36:07Z</time></trkpt><trkpt lat="45.38666139195365" lon="11.469295389686339"><ele>36.0</ele><time>2026-04-26T08:36:10Z</time></trkpt><trkpt lat="45.38673453893116" lon="11.469267656001406"><ele>38.333333333333336</ele><time>2026-04-26T08:36:13Z</time></trkpt><trkpt lat="45.38676603799671" lon="11.469175262488042"><ele>40.66666666666667</ele><time>2026-04-26T08:36:16Z</time></trkpt><trkpt lat="45.38678420777133" lon="11.46906695781367"><ele>43.0</ele><time>2026-04-26T08:36:20Z</time></trkpt><trkpt lat="45.38672148420718" lon="11.469035356687765"><ele>45.333333333333336</ele><time>2026-04-26T08:36:24.999Z</time></trkpt><trkpt lat="45.386656148702535" lon="11.469042769044707"><ele>47.66666666666667</ele><time>2026-04-26T08:36:28.999Z</time></trkpt><trkpt lat="45.38657007366842" lon="11.46902963975732"><ele>50.0</ele><time>2026-04-26T08:36:32.999Z</time></trkpt><trkpt lat="45.38648138364582" lon="11.468995530030917"><ele>50.00000000000001</ele><time>2026-04-26T08:36:36.999Z</time></trkpt><trkpt lat="45.38640959197438" lon="11.468986993503242"><ele>50.0</ele><time>2026-04-26T08:36:39.999Z</time></trkpt><trkpt lat="45.38634727972418" lon="11.468949678464057"><ele>50.0</ele><time>2026-04-26T08:36:42.999Z</time></trkpt><trkpt lat="45.38628092186446" lon="11.468937054216466"><ele>50.0</ele><time>2026-04-26T08:36:45.999Z</time></trkpt><trkpt lat="45.38618534692751" lon="11.46893414026512"><ele>50.00000000000001</ele><time>2026-04-26T08:36:48.999Z</time></trkpt><trkpt lat="45.386106318574235" lon="11.468934063505722"><ele>50.0</ele><time>2026-04-26T08:36:51.999Z</time></trkpt><trkpt lat="45.38601574973034" lon="11.46890355999095"><ele>50.50000000000001</ele><time>2026-04-26T08:36:54.999Z</time></trkpt><trkpt lat="45.38594697544488" lon="11.468930643027521"><ele>51.0</ele><time>2026-04-26T08:36:57.999Z</time></trkpt><trkpt lat="45.385859819765585" lon="11.468918949424264"><ele>51.5</ele><time>2026-04-26T08:37:00.999Z</time></trkpt><trkpt lat="45.385776521035446" lon="11.468917925714504"><ele>52.0</ele><time>2026-04-26T08:37:03.999Z</time></trkpt><trkpt lat="45.385690457919935" lon="11.468916758659523"><ele>52.50000000000001</ele><time>2026-04-26T08:37:06.998Z</time></trkpt><trkpt lat="45.38562397472374" lon="11.468948105972194"><ele>53.0</ele><time>2026-04-26T08:37:09.998Z</time></trkpt><trkpt lat="45.38555433517565" lon="11.468916533504741"><ele>55.714285714285715</ele><time>2026-04-26T08:37:13.998Z</time></trkpt><trkpt lat="45.38549102019203" lon="11.468943202659007"><ele>58.42857142857143</ele><time>2026-04-26T08:37:46Z</time></trkpt><trkpt lat="45.385418626216726" lon="11.468915136138458"><ele>61.142857142857146</ele><time>2026-04-26T08:37:49Z</time></trkpt><trkpt lat="45.385353194159684" lon="11.468919022761392"><ele>63.85714285714286</ele><time>2026-04-26T08:37:52Z</time></trkpt><trkpt lat="45.38527845221832" lon="11.468932970211611"><ele>66.57142857142857</ele><time>2026-04-26T08:37:55Z</time></trkpt><trkpt lat="45.385205373686674" lon="11.468928858156266"><ele>69.28571428571429</ele><time>2026-04-26T08:37:58Z</time></trkpt><trkpt lat="45.38514808218303" lon="11.46897471111321"><ele>72.0</ele><time>2026-04-26T08:38:02Z</time></trkpt><trkpt lat="45.38508899202534" lon="11.469008386113973"><ele>72.00000000000001</ele><time>2026-04-26T08:38:05Z</time></trkpt><trkpt lat="45.38502223688646" lon="11.46903027495407"><ele>72.0</ele><time>2026-04-26T08:38:09Z</time></trkpt><trkpt lat="45.38496453451993" lon="11.469077292827405"><ele>72.0</ele><time>2026-04-26T08:38:13Z</time></trkpt><trkpt lat="45.38490973336375" lon="11.469135550288001"><ele>72.0</ele><time>2026-04-26T08:38:17Z</time></trkpt><trkpt lat="45.38485103867768" lon="11.469206394565113"><ele>72.0</ele><time>2026-04-26T08:38:21Z</time></trkpt><trkpt lat="45.38479595439068" lon="11.469286011822035"><ele>72.00000000000001</ele><time>2026-04-26T08:38:25Z</time></trkpt><trkpt lat="45.384720141924696" lon="11.469331382056316"><ele>72.0</ele><time>2026-04-26T08:38:28.999Z</time></trkpt><trkpt lat="45.384657077667626" lon="11.46935824750039"><ele>74.16666666666667</ele><time>2026-04-26T08:38:31.999Z</time></trkpt><trkpt lat="45.3845978804126" lon="11.469395050445222"><ele>76.33333333333333</ele><time>2026-04-26T08:38:34.999Z</time></trkpt><trkpt lat="45.38452228812134" lon="11.469439718355467"><ele>78.5</ele><time>2026-04-26T08:38:38.999Z</time></trkpt><trkpt lat="45.384445145426746" lon="11.469438505124021"><ele>80.66666666666666</ele><time>2026-04-26T08:38:42.999Z</time></trkpt><trkpt lat="45.38436417877893" lon="11.469464146078815"><ele>82.83333333333333</ele><time>2026-04-26T08:38:46.999Z</time></trkpt><trkpt lat="45.38428480146375" lon="11.469482188731892"><ele>85.0</ele><time>2026-04-26T08:38:50.999Z</time></trkpt><trkpt lat="45.384209168759824" lon="11.46948141383718"><ele>85.0</ele><time>2026-04-26T08:38:54.999Z</time></trkpt><trkpt lat="45.384132402680066" lon="11.469490033260474"><ele>85.0</ele><time>2026-04-26T08:38:58.999Z</time></trkpt><trkpt lat="45.38405525203182" lon="11.46948976064235"><ele>85.0</ele><time>2026-04-26T08:39:02.999Z</time></trkpt><trkpt lat="45.38399340585017" lon="11.469469330074144"><ele>85.0</ele><time>2026-04-26T08:39:05.999Z</time></trkpt><trkpt lat="45.383929956378175" lon="11.469467636140912"><ele>85.0</ele><time>2026-04-26T08:39:08.999Z</time></trkpt><trkpt lat="45.383868375110374" lon="11.469436194561005"><ele>85.0</ele><time>2026-04-26T08:39:11.998Z</time></trkpt><trkpt lat="45.38382764573946" lon="11.469363968600469"><ele>85.0</ele><time>2026-04-26T08:39:14.998Z</time></trkpt><trkpt lat="45.38380072392574" lon="11.469269920052055"><ele>83.42857142857143</ele><time>2026-04-26T08:39:17.998Z</time></trkpt><trkpt lat="45.38377708434013" lon="11.469165597336694"><ele>81.85714285714285</ele><time>2026-04-26T08:39:21.998Z</time></trkpt><trkpt lat="45.38377302088285" lon="11.469061815918952"><ele>80.28571428571428</ele><time>2026-04-26T08:39:25.998Z</time></trkpt><trkpt lat="45.383764827569024" lon="11.468961481310368"><ele>78.71428571428572</ele><time>2026-04-26T08:39:29.998Z</time></trkpt><trkpt lat="45.38375543180452" lon="11.468857302511607"><ele>77.14285714285714</ele><time>2026-04-26T08:39:33.998Z</time></trkpt><trkpt lat="45.38373910099259" lon="11.468761155168579"><ele>75.57142857142857</ele><time>2026-04-26T08:39:36.998Z</time></trkpt><trkpt lat="45.383739924345385" lon="11.468669584139501"><ele>74.0</ele><time>2026-04-26T08:39:39.998Z</time></trkpt><trkpt lat="45.38373852275052" lon="11.468562637525503"><ele>77.71428571428572</ele><time>2026-04-26T08:39:43.998Z</time></trkpt><trkpt lat="45.383733640556" lon="11.468452786425525"><ele>81.42857142857143</ele><time>2026-04-26T08:39:47.998Z</time></trkpt><trkpt lat="45.38371836704413" lon="11.468340742917716"><ele>85.14285714285714</ele><time>2026-04-26T08:39:52Z</time></trkpt><trkpt lat="45.38370916299669" lon="11.46824454564741"><ele>88.85714285714286</ele><time>2026-04-26T08:39:56Z</time></trkpt><trkpt lat="45.38369796217802" lon="11.468149445111475"><ele>92.57142857142857</ele><time>2026-04-26T08:40:00Z</time></trkpt><trkpt lat="45.38369907021049" lon="11.468054003260022"><ele>96.28571428571429</ele><time>2026-04-26T08:40:04Z</time></trkpt><trkpt lat="45.38368363146793" lon="11.467963042710554"><ele>100.0</ele><time>2026-04-26T08:40:08Z</time></trkpt><trkpt lat="45.38367740648705" lon="11.467864538334748"><ele>102.33333333333334</ele><time>2026-04-26T08:40:12Z</time></trkpt><trkpt lat="45.38367762727402" lon="11.467753385082307"><ele>104.66666666666667</ele><time>2026-04-26T08:40:16Z</time></trkpt><trkpt lat="45.383723172912795" lon="11.467667740985055"><ele>107.0</ele><time>2026-04-26T08:40:19Z</time></trkpt><trkpt lat="45.383784061899654" lon="11.46758831296276"><ele>109.33333333333334</ele><time>2026-04-26T08:40:23Z</time></trkpt><trkpt lat="45.38384360492844" lon="11.467531408001124"><ele>111.66666666666667</ele><time>2026-04-26T08:40:27Z</time></trkpt><trkpt lat="45.38390350584927" lon="11.46747598778128"><ele>114.0</ele><time>2026-04-26T08:40:30.999Z</time></trkpt><trkpt lat="45.38395960220604" lon="11.467407650523787"><ele>114.0</ele><time>2026-04-26T08:40:34.999Z</time></trkpt><trkpt lat="45.38402384837832" lon="11.467343131125835"><ele>113.99999999999999</ele><time>2026-04-26T08:40:38.999Z</time></trkpt><trkpt lat="45.38409784660599" lon="11.467291789373926"><ele>114.0</ele><time>2026-04-26T08:40:42.999Z</time></trkpt><trkpt lat="45.384165836040964" lon="11.467244130211599"><ele>114.0</ele><time>2026-04-26T08:40:46.999Z</time></trkpt><trkpt lat="45.38423362259701" lon="11.467187885425309"><ele>113.99999999999999</ele><time>2026-04-26T08:40:50.999Z</time></trkpt><trkpt lat="45.38430273820503" lon="11.467176842066229"><ele>114.0</ele><time>2026-04-26T08:40:53.999Z</time></trkpt><trkpt lat="45.384359716266644" lon="11.467133646684935"><ele>114.0</ele><time>2026-04-26T08:40:56.999Z</time></trkpt><trkpt lat="45.38444389740968" lon="11.467145123708848"><ele>114.0</ele><time>2026-04-26T08:40:59.999Z</time></trkpt><trkpt lat="45.38450976486092" lon="11.467146490733345"><ele>113.99999999999999</ele><time>2026-04-26T08:41:02.999Z</time></trkpt><trkpt lat="45.3845809159337" lon="11.467134088131928"><ele>114.0</ele><time>2026-04-26T08:41:05.999Z</time></trkpt><trkpt lat="45.38463792453445" lon="11.467072039260776"><ele>114.0</ele><time>2026-04-26T08:41:08.999Z</time></trkpt><trkpt lat="45.384705585406685" lon="11.467073316939574"><ele>113.99999999999999</ele><time>2026-04-26T08:41:12.998Z</time></trkpt><trkpt lat="45.38476225353085" lon="11.467031274885017"><ele>114.0</ele><time>2026-04-26T08:41:15.998Z</time></trkpt><trkpt lat="45.38483383630339" lon="11.467022340414815"><ele>114.0</ele><time>2026-04-26T08:41:19.998Z</time></trkpt><trkpt lat="45.384905594315164" lon="11.467016911395405"><ele>118.5</ele><time>2026-04-26T08:41:23.998Z</time></trkpt><trkpt lat="45.38496348981849" lon="11.466972624931785"><ele>123.0</ele><time>2026-04-26T08:41:27.998Z</time></trkpt><trkpt lat="45.38504048176969" lon="11.466928859145836"><ele>127.5</ele><time>2026-04-26T08:41:31.998Z</time></trkpt><trkpt lat="45.38510335001773" lon="11.46689021186088"><ele>132.0</ele><time>2026-04-26T08:41:35.998Z</time></trkpt><trkpt lat="45.38517416510155" lon="11.466838730973803"><ele>136.5</ele><time>2026-04-26T08:41:39.998Z</time></trkpt><trkpt lat="45.3852562805796" lon="11.466813108212067"><ele>141.0</ele><time>2026-04-26T08:41:43.998Z</time></trkpt><trkpt lat="45.38534091596643" lon="11.46678930094419"><ele>141.0</ele><time>2026-04-26T08:41:47.998Z</time></trkpt><trkpt lat="45.38540315389636" lon="11.466743103761026"><ele>141.0</ele><time>2026-04-26T08:41:51.998Z</time></trkpt><trkpt lat="45.385460580317925" lon="11.466687063929287"><ele>141.0</ele><time>2026-04-26T08:41:55.997Z</time></trkpt><trkpt lat="45.38553790335722" lon="11.466634406634203"><ele>141.0</ele><time>2026-04-26T08:42:01Z</time></trkpt><trkpt lat="45.38560850986425" lon="11.466591092603137"><ele>141.0</ele><time>2026-04-26T08:42:05Z</time></trkpt><trkpt lat="45.38567240171605" lon="11.466542145841434"><ele>141.0</ele><time>2026-04-26T08:42:09Z</time></trkpt><trkpt lat="45.38573669665856" lon="11.466474585096169"><ele>141.0</ele><time>2026-04-26T08:42:13Z</time></trkpt><trkpt lat="45.385797512936996" lon="11.46641680898337"><ele>141.0</ele><time>2026-04-26T08:42:18Z</time></trkpt><trkpt lat="45.38573971454563" lon="11.466354017037188"><ele>141.0</ele><time>2026-04-26T08:42:25Z</time></trkpt><trkpt lat="45.38565956840768" lon="11.466358308944212"><ele>141.0</ele><time>2026-04-26T08:42:29Z</time></trkpt><trkpt lat="45.38559741768129" lon="11.466400600458488"><ele>141.0</ele><time>2026-04-26T08:42:32.999Z</time></trkpt><trkpt lat="45.38553394568965" lon="11.46642852430898"><ele>141.0</ele><time>2026-04-26T08:42:36.999Z</time></trkpt><trkpt lat="45.38547183826772" lon="11.466451649067167"><ele>141.0</ele><time>2026-04-26T08:42:40.999Z</time></trkpt><trkpt lat="45.385398606456285" lon="11.466444379367575"><ele>141.0</ele><time>2026-04-26T08:42:44.999Z</time></trkpt><trkpt lat="45.385334711107795" lon="11.466447285785886"><ele>141.0</ele><time>2026-04-26T08:42:48.999Z</time></trkpt><trkpt lat="45.38526794421549" lon="11.466463281285437"><ele>141.0</ele><time>2026-04-26T08:42:52.999Z</time></trkpt><trkpt lat="45.385198424298764" lon="11.466470284113829"><ele>141.0</ele><time>2026-04-26T08:42:56.999Z</time></trkpt><trkpt lat="45.385123566151314" lon="11.466476176028381"><ele>141.0</ele><time>2026-04-26T08:43:00.999Z</time></trkpt><trkpt lat="45.38506037059339" lon="11.466476898267153"><ele>141.0</ele><time>2026-04-26T08:43:04.999Z</time></trkpt><trkpt lat="45.38499584128281" lon="11.466473399044837"><ele>141.0</ele><time>2026-04-26T08:43:08.999Z</time></trkpt><trkpt lat="45.38492974980318" lon="11.466441065115529"><ele>141.0</ele><time>2026-04-26T08:43:12.999Z</time></trkpt><trkpt lat="45.38486189373662" lon="11.466400365544342"><ele>141.0</ele><time>2026-04-26T08:43:16.998Z</time></trkpt><trkpt lat="45.384808197533374" lon="11.466334997239786"><ele>141.0</ele><time>2026-04-26T08:43:20.998Z</time></trkpt><trkpt lat="45.38478126320215" lon="11.466231636988024"><ele>141.0</ele><time>2026-04-26T08:43:24.998Z</time></trkpt><trkpt lat="45.38474472025591" lon="11.466150447914126"><ele>141.0</ele><time>2026-04-26T08:43:28.998Z</time></trkpt><trkpt lat="45.384699761349765" lon="11.466077799492544"><ele>141.0</ele><time>2026-04-26T08:43:32.998Z</time></trkpt><trkpt lat="45.38465326942927" lon="11.465990583941835"><ele>141.0</ele><time>2026-04-26T08:43:36.998Z</time></trkpt><trkpt lat="45.38460874933121" lon="11.465909524154931"><ele>144.57142857142858</ele><time>2026-04-26T08:43:40.998Z</time></trkpt><trkpt lat="45.38456186624693" lon="11.465832181771342"><ele>148.14285714285714</ele><time>2026-04-26T08:43:44.998Z</time></trkpt><trkpt lat="45.38450758644725" lon="11.465761813242443"><ele>151.71428571428572</ele><time>2026-04-26T08:43:48.998Z</time></trkpt><trkpt lat="45.38444269639555" lon="11.465719204178296"><ele>155.28571428571428</ele><time>2026-04-26T08:43:52.998Z</time></trkpt><trkpt lat="45.38437908906767" lon="11.46569461274381"><ele>158.85714285714286</ele><time>2026-04-26T08:43:56.998Z</time></trkpt><trkpt lat="45.384317305130246" lon="11.465669587021447"><ele>162.42857142857142</ele><time>2026-04-26T08:44:00.997Z</time></trkpt><trkpt lat="45.38425124617869" lon="11.465635646354011"><ele>166.0</ele><time>2026-04-26T08:44:05Z</time></trkpt><trkpt lat="45.384180416085876" lon="11.465673300339398"><ele>166.0</ele><time>2026-04-26T08:44:09Z</time></trkpt><trkpt lat="45.384118790374785" lon="11.465700432707093"><ele>166.0</ele><time>2026-04-26T08:44:13Z</time></trkpt><trkpt lat="45.38404886122625" lon="11.465717177429351"><ele>166.0</ele><time>2026-04-26T08:44:17Z</time></trkpt><trkpt lat="45.38397467378431" lon="11.465668792056226"><ele>166.0</ele><time>2026-04-26T08:44:22Z</time></trkpt><trkpt lat="45.38395618712495" lon="11.46557057693187"><ele>166.0</ele><time>2026-04-26T08:44:26Z</time></trkpt><trkpt lat="45.383912451370776" lon="11.465505372525374"><ele>166.0</ele><time>2026-04-26T08:44:30Z</time></trkpt><trkpt lat="45.38385815557507" lon="11.46543620692399"><ele>166.0</ele><time>2026-04-26T08:44:34Z</time></trkpt><trkpt lat="45.38380987522121" lon="11.465363299790289"><ele>169.28571428571428</ele><time>2026-04-26T08:44:37.999Z</time></trkpt><trkpt lat="45.38375996038813" lon="11.465304250690806"><ele>172.57142857142858</ele><time>2026-04-26T08:44:41.999Z</time></trkpt><trkpt lat="45.3837076967605" lon="11.465230160872721"><ele>175.85714285714286</ele><time>2026-04-26T08:44:45.999Z</time></trkpt><trkpt lat="45.383660081656856" lon="11.465163684709994"><ele>179.14285714285714</ele><time>2026-04-26T08:44:49.999Z</time></trkpt><trkpt lat="45.3836015466209" lon="11.46508868427942"><ele>182.42857142857144</ele><time>2026-04-26T08:44:53.999Z</time></trkpt><trkpt lat="45.383540370218334" lon="11.465042503183856"><ele>185.71428571428572</ele><time>2026-04-26T08:44:57.999Z</time></trkpt><trkpt lat="45.38347383274047" lon="11.464988334530924"><ele>189.0</ele><time>2026-04-26T08:45:01.999Z</time></trkpt><trkpt lat="45.383415443501164" lon="11.464931095025845"><ele>189.0</ele><time>2026-04-26T08:45:05.999Z</time></trkpt><trkpt lat="45.383355473679245" lon="11.46486365105283"><ele>189.0</ele><time>2026-04-26T08:45:09.999Z</time></trkpt><trkpt lat="45.38329167714523" lon="11.464814338301741"><ele>189.0</ele><time>2026-04-26T08:45:13.999Z</time></trkpt><trkpt lat="45.38324177255074" lon="11.464741178582107"><ele>189.0</ele><time>2026-04-26T08:45:17.999Z</time></trkpt><trkpt lat="45.38319646897419" lon="11.464651431385139"><ele>189.0</ele><time>2026-04-26T08:45:21.998Z</time></trkpt><trkpt lat="45.38317584900723" lon="11.464550236513114"><ele>189.0</ele><time>2026-04-26T08:45:25.998Z</time></trkpt><trkpt lat="45.383191046120245" lon="11.464429521928055"><ele>190.16666666666666</ele><time>2026-04-26T08:45:29.998Z</time></trkpt><trkpt lat="45.383220486063074" lon="11.464332667450574"><ele>191.33333333333331</ele><time>2026-04-26T08:45:32.998Z</time></trkpt><trkpt lat="45.38326854479744" lon="11.464221149958094"><ele>192.5</ele><time>2026-04-26T08:45:35.998Z</time></trkpt><trkpt lat="45.38331729239293" lon="11.464099053923572"><ele>193.66666666666666</ele><time>2026-04-26T08:45:38.998Z</time></trkpt><trkpt lat="45.38336857595291" lon="11.464043865179216"><ele>194.83333333333331</ele><time>2026-04-26T08:45:40.998Z</time></trkpt><trkpt lat="45.38342464320255" lon="11.463986284747111"><ele>196.0</ele><time>2026-04-26T08:45:42.998Z</time></trkpt><trkpt lat="45.38350336010251" lon="11.463888317722226"><ele>196.0</ele><time>2026-04-26T08:45:44.998Z</time></trkpt><trkpt lat="45.3835538287137" lon="11.463820408651843"><ele>196.0</ele><time>2026-04-26T08:45:46.998Z</time></trkpt><trkpt lat="45.38360465410539" lon="11.463751372430139"><ele>196.0</ele><time>2026-04-26T08:45:48.998Z</time></trkpt><trkpt lat="45.383646996961794" lon="11.463672474551348"><ele>196.0</ele><time>2026-04-26T08:45:51.998Z</time></trkpt><trkpt lat="45.38368925566424" lon="11.463592958658834"><ele>196.0</ele><time>2026-04-26T08:45:53.998Z</time></trkpt><trkpt lat="45.38373329391837" lon="11.463521089517744"><ele>196.0</ele><time>2026-04-26T08:45:55.998Z</time></trkpt><trkpt lat="45.38378840116786" lon="11.463430243768677"><ele>196.0</ele><time>2026-04-26T08:45:59.998Z</time></trkpt><trkpt lat="45.3838437796551" lon="11.463326321902004"><ele>196.42857142857142</ele><time>2026-04-26T08:46:02.998Z</time></trkpt><trkpt lat="45.383898188773834" lon="11.463255175728298"><ele>196.85714285714286</ele><time>2026-04-26T08:46:05.997Z</time></trkpt><trkpt lat="45.38394903804452" lon="11.463194148050498"><ele>197.28571428571428</ele><time>2026-04-26T08:46:09Z</time></trkpt><trkpt lat="45.3840184111925" lon="11.46310350282507"><ele>197.71428571428572</ele><time>2026-04-26T08:46:12Z</time></trkpt><trkpt lat="45.384072104285586" lon="11.463048159801621"><ele>198.14285714285714</ele><time>2026-04-26T08:46:15Z</time></trkpt><trkpt lat="45.3841067716102" lon="11.46296910856172"><ele>198.57142857142856</ele><time>2026-04-26T08:46:18Z</time></trkpt><trkpt lat="45.3841509958001" lon="11.462875321450648"><ele>199.0</ele><time>2026-04-26T08:46:22Z</time></trkpt><trkpt lat="45.38419573705229" lon="11.462794797461521"><ele>200.57142857142856</ele><time>2026-04-26T08:46:26Z</time></trkpt><trkpt lat="45.384223961082775" lon="11.46269752660184"><ele>202.14285714285714</ele><time>2026-04-26T08:46:30Z</time></trkpt><trkpt lat="45.384232706440194" lon="11.462597569318666"><ele>203.71428571428572</ele><time>2026-04-26T08:46:34Z</time></trkpt><trkpt lat="45.3842157951887" lon="11.46249926498616"><ele>205.28571428571428</ele><time>2026-04-26T08:46:38Z</time></trkpt><trkpt lat="45.38419642541097" lon="11.462401483885774"><ele>206.85714285714286</ele><time>2026-04-26T08:46:42Z</time></trkpt><trkpt lat="45.38418444323068" lon="11.462296523372375"><ele>208.42857142857142</ele><time>2026-04-26T08:46:45.999Z</time></trkpt><trkpt lat="45.38419096899403" lon="11.462188509304225"><ele>210.0</ele><time>2026-04-26T08:46:49.999Z</time></trkpt><trkpt lat="45.38420193486708" lon="11.462086530713162"><ele>210.5</ele><time>2026-04-26T08:46:54.999Z</time></trkpt><trkpt lat="45.38418776342869" lon="11.461985739351897"><ele>211.0</ele><time>2026-04-26T08:46:59.999Z</time></trkpt><trkpt lat="45.384268760123575" lon="11.461985821627207"><ele>211.5</ele><time>2026-04-26T08:47:59.998Z</time></trkpt><trkpt lat="45.38434456094334" lon="11.46193998679106"><ele>212.0</ele><time>2026-04-26T08:48:02.998Z</time></trkpt><trkpt lat="45.384405823847686" lon="11.46188783126409"><ele>212.5</ele><time>2026-04-26T08:48:05.998Z</time></trkpt><trkpt lat="45.384477132651696" lon="11.4618450274053"><ele>213.0</ele><time>2026-04-26T08:48:08.998Z</time></trkpt><trkpt lat="45.38453599602353" lon="11.461802982905066"><ele>212.99999999999997</ele><time>2026-04-26T08:48:11.997Z</time></trkpt><trkpt lat="45.38459825934004" lon="11.461746887055995"><ele>213.0</ele><time>2026-04-26T08:48:15Z</time></trkpt><trkpt lat="45.38464777047585" lon="11.461690223095053"><ele>213.0</ele><time>2026-04-26T08:48:18Z</time></trkpt><trkpt lat="45.38469961306099" lon="11.461629850363284"><ele>213.0</ele><time>2026-04-26T08:48:21Z</time></trkpt><trkpt lat="45.384745052207045" lon="11.46156735790657"><ele>213.0</ele><time>2026-04-26T08:48:25Z</time></trkpt><trkpt lat="45.38480125061993" lon="11.461489469344547"><ele>212.99999999999997</ele><time>2026-04-26T08:48:29Z</time></trkpt><trkpt lat="45.384851747155714" lon="11.461416467080692"><ele>213.0</ele><time>2026-04-26T08:48:33Z</time></trkpt><trkpt lat="45.384902340866695" lon="11.461338609491202"><ele>213.5</ele><time>2026-04-26T08:48:37Z</time></trkpt><trkpt lat="45.384956746996565" lon="11.46125799431528"><ele>214.0</ele><time>2026-04-26T08:48:41Z</time></trkpt><trkpt lat="45.385020714016875" lon="11.461164861722986"><ele>214.5</ele><time>2026-04-26T08:48:45Z</time></trkpt><trkpt lat="45.38507940808459" lon="11.461102783407085"><ele>215.0</ele><time>2026-04-26T08:48:47.999Z</time></trkpt><trkpt lat="45.385120519861964" lon="11.461030431261651"><ele>215.5</ele><time>2026-04-26T08:48:50.999Z</time></trkpt><trkpt lat="45.38516695611224" lon="11.460950927927883"><ele>216.0</ele><time>2026-04-26T08:48:54.999Z</time></trkpt><trkpt lat="45.38522816763115" lon="11.460879905188719"><ele>216.0</ele><time>2026-04-26T08:48:58.999Z</time></trkpt><trkpt lat="45.385282508341824" lon="11.460805723307343"><ele>216.0</ele><time>2026-04-26T08:49:02.999Z</time></trkpt><trkpt lat="45.38532816272694" lon="11.460724286400122"><ele>216.0</ele><time>2026-04-26T08:49:06.999Z</time></trkpt><trkpt lat="45.38537585155249" lon="11.460664879500628"><ele>216.0</ele><time>2026-04-26T08:49:09.999Z</time></trkpt><trkpt lat="45.38543355231341" lon="11.460598271869276"><ele>216.0</ele><time>2026-04-26T08:49:13.999Z</time></trkpt><trkpt lat="45.38549592120467" lon="11.460527605271004"><ele>216.0</ele><time>2026-04-26T08:49:17.999Z</time></trkpt><trkpt lat="45.38555817127038" lon="11.460461143556609"><ele>216.0</ele><time>2026-04-26T08:49:21.999Z</time></trkpt><trkpt lat="45.38563341707155" lon="11.460407026657933"><ele>218.14285714285714</ele><time>2026-04-26T08:49:25.999Z</time></trkpt><trkpt lat="45.38569665112941" lon="11.460356331871997"><ele>220.28571428571428</ele><time>2026-04-26T08:49:29.999Z</time></trkpt><trkpt lat="45.38575916149196" lon="11.460277473851216"><ele>222.42857142857144</ele><time>2026-04-26T08:49:33.998Z</time></trkpt><trkpt lat="45.38581789773629" lon="11.460237244598684"><ele>224.57142857142856</ele><time>2026-04-26T08:49:36.998Z</time></trkpt><trkpt lat="45.38586567880879" lon="11.460168305326746"><ele>226.71428571428572</ele><time>2026-04-26T08:49:40.998Z</time></trkpt><trkpt lat="45.38591454115649" lon="11.460090544636905"><ele>228.85714285714286</ele><time>2026-04-26T08:49:45.998Z</time></trkpt><trkpt lat="45.38597644558815" lon="11.460017536029078"><ele>231.0</ele><time>2026-04-26T08:49:50.998Z</time></trkpt><trkpt lat="45.38602488273991" lon="11.459953749660423"><ele>231.0</ele><time>2026-04-26T08:49:54.998Z</time></trkpt><trkpt lat="45.38608664683635" lon="11.459898620406959"><ele>231.0</ele><time>2026-04-26T08:49:58.998Z</time></trkpt><trkpt lat="45.38613835698044" lon="11.45984207196968"><ele>231.0</ele><time>2026-04-26T08:50:02.998Z</time></trkpt><trkpt lat="45.38619052307144" lon="11.459779460602672"><ele>231.0</ele><time>2026-04-26T08:50:05.998Z</time></trkpt><trkpt lat="45.38624211796973" lon="11.459725704489234"><ele>231.0</ele><time>2026-04-26T08:50:08.998Z</time></trkpt><trkpt lat="45.38629214088594" lon="11.459653788619837"><ele>231.0</ele><time>2026-04-26T08:50:11.998Z</time></trkpt><trkpt lat="45.38636689067113" lon="11.459608124742285"><ele>231.0</ele><time>2026-04-26T08:50:15.997Z</time></trkpt><trkpt lat="45.38642042409143" lon="11.45953204991704"><ele>231.28571428571428</ele><time>2026-04-26T08:50:19.997Z</time></trkpt><trkpt lat="45.38646182267508" lon="11.459463740680196"><ele>231.57142857142856</ele><time>2026-04-26T08:50:23Z</time></trkpt><trkpt lat="45.38645598027092" lon="11.459364398917156"><ele>231.85714285714286</ele><time>2026-04-26T08:50:26Z</time></trkpt><trkpt lat="45.38640633429006" lon="11.459284517188213"><ele>232.14285714285714</ele><time>2026-04-26T08:50:30Z</time></trkpt><trkpt lat="45.38639878792833" lon="11.459195242343455"><ele>232.42857142857142</ele><time>2026-04-26T08:50:33Z</time></trkpt><trkpt lat="45.38639972312851" lon="11.459101972256313"><ele>232.71428571428572</ele><time>2026-04-26T08:50:37Z</time></trkpt><trkpt lat="45.3863751658066" lon="11.458996417473134"><ele>233.0</ele><time>2026-04-26T08:50:42Z</time></trkpt><trkpt lat="45.386322411100515" lon="11.45890617349398"><ele>233.00000000000003</ele><time>2026-04-26T08:50:45Z</time></trkpt><trkpt lat="45.3862997488782" lon="11.458819111453753"><ele>233.0</ele><time>2026-04-26T08:50:48Z</time></trkpt><trkpt lat="45.38629596934376" lon="11.458693849096292"><ele>233.0</ele><time>2026-04-26T08:50:51Z</time></trkpt><trkpt lat="45.38630393023127" lon="11.458594056234057"><ele>233.0</ele><time>2026-04-26T08:50:54Z</time></trkpt><trkpt lat="45.386302536414554" lon="11.458477704381618"><ele>233.00000000000003</ele><time>2026-04-26T08:50:57.999Z</time></trkpt><trkpt lat="45.386309498888515" lon="11.458364792537962"><ele>233.0</ele><time>2026-04-26T08:51:02.999Z</time></trkpt><trkpt lat="45.38629971132215" lon="11.458269118753336"><ele>232.85714285714286</ele><time>2026-04-26T08:51:07.999Z</time></trkpt><trkpt lat="45.386293494980706" lon="11.458174457944727"><ele>232.71428571428572</ele><time>2026-04-26T08:51:11.999Z</time></trkpt><trkpt lat="45.38628678781526" lon="11.458082527435485"><ele>232.57142857142858</ele><time>2026-04-26T08:51:14.999Z</time></trkpt><trkpt lat="45.38630401558271" lon="11.457990184210566"><ele>232.42857142857144</ele><time>2026-04-26T08:51:34.999Z</time></trkpt><trkpt lat="45.386364215773526" lon="11.457956412591715"><ele>232.28571428571428</ele><time>2026-04-26T08:51:37.999Z</time></trkpt><trkpt lat="45.386410224311106" lon="11.457890166591275"><ele>232.14285714285717</ele><time>2026-04-26T08:51:41.998Z</time></trkpt><trkpt lat="45.38647321257311" lon="11.457868661178948"><ele>232.00000000000003</ele><time>2026-04-26T08:51:46.998Z</time></trkpt><trkpt lat="45.38653876920276" lon="11.45781831892732"><ele>233.5714285714286</ele><time>2026-04-26T08:52:09.998Z</time></trkpt><trkpt lat="45.38657855714896" lon="11.45773914575157"><ele>235.14285714285717</ele><time>2026-04-26T08:52:19.998Z</time></trkpt><trkpt lat="45.38664216956017" lon="11.457692410970099"><ele>236.71428571428572</ele><time>2026-04-26T08:52:28Z</time></trkpt><trkpt lat="45.386706675517544" lon="11.457637992198446"><ele>238.2857142857143</ele><time>2026-04-26T08:52:33Z</time></trkpt><trkpt lat="45.38676488544727" lon="11.457570916987837"><ele>239.8571428571429</ele><time>2026-04-26T08:52:52Z</time></trkpt><trkpt lat="45.386828480860856" lon="11.457506455436407"><ele>241.42857142857142</ele><time>2026-04-26T08:53:07.999Z</time></trkpt><trkpt lat="45.38689637547907" lon="11.457442005095452"><ele>243.0</ele><time>2026-04-26T08:53:11.999Z</time></trkpt><trkpt lat="45.38698116607704" lon="11.457380662918997"><ele>243.0</ele><time>2026-04-26T08:53:13.999Z</time></trkpt><trkpt lat="45.38705012170498" lon="11.457309321113481"><ele>243.0</ele><time>2026-04-26T08:53:17.999Z</time></trkpt><trkpt lat="45.387092653891614" lon="11.457223696131374"><ele>243.0</ele><time>2026-04-26T08:53:20.999Z</time></trkpt><trkpt lat="45.38715486437693" lon="11.457182565014765"><ele>243.0</ele><time>2026-04-26T08:53:22.999Z</time></trkpt><trkpt lat="45.387228491160734" lon="11.457112065881441"><ele>243.0</ele><time>2026-04-26T08:53:25.999Z</time></trkpt><trkpt lat="45.387298877668925" lon="11.457073578318468"><ele>243.0</ele><time>2026-04-26T08:53:28.999Z</time></trkpt><trkpt lat="45.38735575432493" lon="11.45700151776603"><ele>243.83333333333334</ele><time>2026-04-26T08:53:32.999Z</time></trkpt><trkpt lat="45.38740309116331" lon="11.456927017424212"><ele>244.66666666666669</ele><time>2026-04-26T08:53:37.999Z</time></trkpt><trkpt lat="45.38748173661821" lon="11.456868674754256"><ele>245.5</ele><time>2026-04-26T08:53:59.998Z</time></trkpt><trkpt lat="45.38753749310808" lon="11.45676495311343"><ele>246.33333333333334</ele><time>2026-04-26T08:54:02.998Z</time></trkpt><trkpt lat="45.38759012323275" lon="11.456683798812916"><ele>247.16666666666669</ele><time>2026-04-26T08:54:05.998Z</time></trkpt><trkpt lat="45.38767909229613" lon="11.456624647668018"><ele>248.0</ele><time>2026-04-26T08:54:09.998Z</time></trkpt><trkpt lat="45.38774275969879" lon="11.456582388545737"><ele>248.00000000000003</ele><time>2026-04-26T08:54:11.998Z</time></trkpt><trkpt lat="45.38781355227507" lon="11.456515428966057"><ele>248.0</ele><time>2026-04-26T08:54:14.998Z</time></trkpt><trkpt lat="45.38785830621801" lon="11.456450543328513"><ele>248.0</ele><time>2026-04-26T08:54:16.998Z</time></trkpt><trkpt lat="45.38791815669114" lon="11.45640440063054"><ele>248.0</ele><time>2026-04-26T08:54:18.998Z</time></trkpt><trkpt lat="45.38800081009862" lon="11.456361744057537"><ele>248.00000000000003</ele><time>2026-04-26T08:54:21.998Z</time></trkpt><trkpt lat="45.388067760119526" lon="11.456264476679607"><ele>248.0</ele><time>2026-04-26T08:54:24.998Z</time></trkpt><trkpt lat="45.38811883526722" lon="11.456208307984907"><ele>246.83333333333334</ele><time>2026-04-26T08:54:27.997Z</time></trkpt><trkpt lat="45.388184345219045" lon="11.45616787384238"><ele>245.66666666666669</ele><time>2026-04-26T08:54:30.997Z</time></trkpt><trkpt lat="45.38824113630815" lon="11.456101263115185"><ele>244.5</ele><time>2026-04-26T08:54:33Z</time></trkpt><trkpt lat="45.38826044818197" lon="11.455994540887716"><ele>243.33333333333331</ele><time>2026-04-26T08:54:35Z</time></trkpt><trkpt lat="45.38828356830381" lon="11.455885665412309"><ele>242.16666666666666</ele><time>2026-04-26T08:54:37Z</time></trkpt><trkpt lat="45.38834318300579" lon="11.455785280924049"><ele>241.0</ele><time>2026-04-26T08:54:39Z</time></trkpt><trkpt lat="45.38839589339204" lon="11.455689898349608"><ele>240.99999999999997</ele><time>2026-04-26T08:54:41Z</time></trkpt><trkpt lat="45.388451573019964" lon="11.455625240540744"><ele>241.0</ele><time>2026-04-26T08:54:43Z</time></trkpt><trkpt lat="45.38847506643576" lon="11.455532869954421"><ele>241.0</ele><time>2026-04-26T08:54:45Z</time></trkpt><trkpt lat="45.38851835682361" lon="11.455460063410296"><ele>241.0</ele><time>2026-04-26T08:54:47Z</time></trkpt><trkpt lat="45.38859410671994" lon="11.45542840371911"><ele>240.99999999999997</ele><time>2026-04-26T08:54:49Z</time></trkpt><trkpt lat="45.388670013739656" lon="11.455429608944382"><ele>241.0</ele><time>2026-04-26T08:54:51Z</time></trkpt><trkpt lat="45.38875782638385" lon="11.455421925939595"><ele>239.83333333333331</ele><time>2026-04-26T08:54:54Z</time></trkpt><trkpt lat="45.3888253016482" lon="11.45542540795975"><ele>238.66666666666666</ele><time>2026-04-26T08:54:57Z</time></trkpt><trkpt lat="45.38888276414926" lon="11.455377541476963"><ele>237.5</ele><time>2026-04-26T08:55:00Z</time></trkpt><trkpt lat="45.388941395573895" lon="11.455302915434073"><ele>236.33333333333331</ele><time>2026-04-26T08:55:03Z</time></trkpt><trkpt lat="45.389016201340745" lon="11.455285096702683"><ele>235.16666666666666</ele><time>2026-04-26T08:55:06Z</time></trkpt><trkpt lat="45.38907098790929" lon="11.455234849747844"><ele>234.0</ele><time>2026-04-26T08:55:07.999Z</time></trkpt><trkpt lat="45.389156975846305" lon="11.45516927851627"><ele>233.33333333333334</ele><time>2026-04-26T08:55:09.999Z</time></trkpt><trkpt lat="45.38921645858306" lon="11.45513064477512"><ele>232.66666666666669</ele><time>2026-04-26T08:55:11.999Z</time></trkpt><trkpt lat="45.38928165828136" lon="11.455077618117485"><ele>232.0</ele><time>2026-04-26T08:55:13.999Z</time></trkpt><trkpt lat="45.3893389583499" lon="11.455003065690514"><ele>231.33333333333334</ele><time>2026-04-26T08:55:15.999Z</time></trkpt><trkpt lat="45.38941286166109" lon="11.454909079778387"><ele>230.66666666666669</ele><time>2026-04-26T08:55:17.999Z</time></trkpt><trkpt lat="45.38946233960943" lon="11.454761114096337"><ele>230.0</ele><time>2026-04-26T08:55:19.999Z</time></trkpt><trkpt lat="45.38951057768248" lon="11.454639634598177"><ele>229.50000000000003</ele><time>2026-04-26T08:55:21.999Z</time></trkpt><trkpt lat="45.3895546725216" lon="11.454480782364298"><ele>229.0</ele><time>2026-04-26T08:55:23.999Z</time></trkpt><trkpt lat="45.38957862126317" lon="11.45439502646894"><ele>228.5</ele><time>2026-04-26T08:55:24.999Z</time></trkpt><trkpt lat="45.38961347885776" lon="11.454317888119741"><ele>228.0</ele><time>2026-04-26T08:55:25.999Z</time></trkpt><trkpt lat="45.38964625016033" lon="11.454237617013767"><ele>227.50000000000003</ele><time>2026-04-26T08:55:26.999Z</time></trkpt><trkpt lat="45.38967891350803" lon="11.454154346959072"><ele>227.0</ele><time>2026-04-26T08:55:27.999Z</time></trkpt><trkpt lat="45.38974092404193" lon="11.454031003444292"><ele>226.6</ele><time>2026-04-26T08:55:29.999Z</time></trkpt><trkpt lat="45.38979534239522" lon="11.453911339685732"><ele>226.2</ele><time>2026-04-26T08:55:31.999Z</time></trkpt><trkpt lat="45.3898456477374" lon="11.453759759937997"><ele>225.8</ele><time>2026-04-26T08:55:33.999Z</time></trkpt><trkpt lat="45.38991005464752" lon="11.453637155930293"><ele>225.4</ele><time>2026-04-26T08:55:35.999Z</time></trkpt><trkpt lat="45.38996668067215" lon="11.453510952431852"><ele>225.0</ele><time>2026-04-26T08:55:37.999Z</time></trkpt><trkpt lat="45.390027223363404" lon="11.453383328691817"><ele>225.0</ele><time>2026-04-26T08:55:39.999Z</time></trkpt><trkpt lat="45.39008327108164" lon="11.45327438116894"><ele>225.0</ele><time>2026-04-26T08:55:41.999Z</time></trkpt><trkpt lat="45.39010938060489" lon="11.453189119334878"><ele>225.0</ele><time>2026-04-26T08:55:44.999Z</time></trkpt><trkpt lat="45.390106941363875" lon="11.453095154646014"><ele>225.0</ele><time>2026-04-26T08:56:43Z</time></trkpt><trkpt lat="45.39009763231498" lon="11.452982349733674"><ele>225.0</ele><time>2026-04-26T08:59:01Z</time></trkpt><trkpt lat="45.3900790200032" lon="11.452845076501546"><ele>225.0</ele><time>2026-04-26T08:59:03Z</time></trkpt><trkpt lat="45.390080527016906" lon="11.452725506102421"><ele>224.2</ele><time>2026-04-26T08:59:05Z</time></trkpt><trkpt lat="45.39010168535372" lon="11.452577081663252"><ele>223.4</ele><time>2026-04-26T08:59:07Z</time></trkpt><trkpt lat="45.39014400793416" lon="11.45244249608281"><ele>222.60000000000002</ele><time>2026-04-26T08:59:09Z</time></trkpt><trkpt lat="45.39018282375193" lon="11.452331151677878"><ele>221.8</ele><time>2026-04-26T08:59:11Z</time></trkpt><trkpt lat="45.390209861806014" lon="11.452220798198772"><ele>221.0</ele><time>2026-04-26T08:59:12.999Z</time></trkpt><trkpt lat="45.39024533120035" lon="11.452113553534153"><ele>220.50000000000003</ele><time>2026-04-26T08:59:14.999Z</time></trkpt><trkpt lat="45.3902648688177" lon="11.452014152341471"><ele>220.0</ele><time>2026-04-26T08:59:16.999Z</time></trkpt><trkpt lat="45.390278650675526" lon="11.451856276807861"><ele>219.5</ele><time>2026-04-26T08:59:19.999Z</time></trkpt><trkpt lat="45.3902856133747" lon="11.451750500856042"><ele>219.0</ele><time>2026-04-26T08:59:21.999Z</time></trkpt><trkpt lat="45.390318120953054" lon="11.451637678041223"><ele>218.50000000000003</ele><time>2026-04-26T08:59:23.999Z</time></trkpt><trkpt lat="45.39038444704313" lon="11.451585697959054"><ele>218.0</ele><time>2026-04-26T08:59:25.999Z</time></trkpt><trkpt lat="45.390447208468885" lon="11.451559758032996"><ele>219.2</ele><time>2026-04-26T08:59:27.999Z</time></trkpt><trkpt lat="45.39054596221364" lon="11.451605263064875"><ele>220.4</ele><time>2026-04-26T09:00:13.998Z</time></trkpt><trkpt lat="45.39068692525554" lon="11.451601050518958"><ele>221.59999999999997</ele><time>2026-04-26T09:00:18.998Z</time></trkpt><trkpt lat="45.39076610845465" lon="11.451615826184586"><ele>222.79999999999998</ele><time>2026-04-26T09:00:20.998Z</time></trkpt><trkpt lat="45.39085553988433" lon="11.451663576309995"><ele>224.0</ele><time>2026-04-26T09:00:22.998Z</time></trkpt><trkpt lat="45.390938633524904" lon="11.451706728231471"><ele>224.0</ele><time>2026-04-26T09:00:25.998Z</time></trkpt><trkpt lat="45.39100704030869" lon="11.451696941939744"><ele>224.0</ele><time>2026-04-26T09:00:28.998Z</time></trkpt><trkpt lat="45.39107233159988" lon="11.451642173946535"><ele>224.0</ele><time>2026-04-26T09:00:33.998Z</time></trkpt><trkpt lat="45.39112791177746" lon="11.451597497584643"><ele>224.0</ele><time>2026-04-26T09:00:36.998Z</time></trkpt><trkpt lat="45.3911771681371" lon="11.451538342068863"><ele>224.0</ele><time>2026-04-26T09:00:38.998Z</time></trkpt><trkpt lat="45.39124041559613" lon="11.451523461890002"><ele>224.0</ele><time>2026-04-26T09:00:41.998Z</time></trkpt><trkpt lat="45.391312627355205" lon="11.451533991070391"><ele>224.0</ele><time>2026-04-26T09:00:44.998Z</time></trkpt><trkpt lat="45.39138735929275" lon="11.451533511294537"><ele>224.57142857142856</ele><time>2026-04-26T09:00:46.997Z</time></trkpt><trkpt lat="45.39145339102247" lon="11.451550818208796"><ele>225.14285714285714</ele><time>2026-04-26T09:00:48.997Z</time></trkpt><trkpt lat="45.391545658666566" lon="11.451551521778917"><ele>225.71428571428572</ele><time>2026-04-26T09:00:51Z</time></trkpt><trkpt lat="45.391615513554015" lon="11.451599385958755"><ele>226.28571428571428</ele><time>2026-04-26T09:00:53Z</time></trkpt><trkpt lat="45.39167134533526" lon="11.451647762943534"><ele>226.85714285714283</ele><time>2026-04-26T09:00:57Z</time></trkpt><trkpt lat="45.39173072520682" lon="11.451714150746291"><ele>227.42857142857142</ele><time>2026-04-26T09:01:00Z</time></trkpt><trkpt lat="45.39178353380152" lon="11.451780097942677"><ele>228.0</ele><time>2026-04-26T09:01:03Z</time></trkpt><trkpt lat="45.391817010064585" lon="11.451888359503794"><ele>228.0</ele><time>2026-04-26T09:01:06Z</time></trkpt><trkpt lat="45.39183718273584" lon="11.451997906243683"><ele>228.0</ele><time>2026-04-26T09:01:09Z</time></trkpt><trkpt lat="45.391865823471356" lon="11.452084135980924"><ele>228.0</ele><time>2026-04-26T09:01:12Z</time></trkpt><trkpt lat="45.3919307985894" lon="11.452165392035452"><ele>228.0</ele><time>2026-04-26T09:01:15Z</time></trkpt><trkpt lat="45.39200685293931" lon="11.452191476262438"><ele>228.0</ele><time>2026-04-26T09:01:19Z</time></trkpt><trkpt lat="45.39205276460381" lon="11.452267077386454"><ele>228.0</ele><time>2026-04-26T09:01:22Z</time></trkpt><trkpt lat="45.392119430420145" lon="11.452311596676122"><ele>228.57142857142856</ele><time>2026-04-26T09:01:24.999Z</time></trkpt><trkpt lat="45.392185384642154" lon="11.452332894954584"><ele>229.1428571428571</ele><time>2026-04-26T09:01:27.999Z</time></trkpt><trkpt lat="45.39224854481652" lon="11.452346704367606"><ele>229.71428571428572</ele><time>2026-04-26T09:01:30.999Z</time></trkpt><trkpt lat="45.39231608930346" lon="11.452375005440063"><ele>230.28571428571428</ele><time>2026-04-26T09:01:33.999Z</time></trkpt><trkpt lat="45.39238023170782" lon="11.452397815754633"><ele>230.85714285714286</ele><time>2026-04-26T09:01:36.999Z</time></trkpt><trkpt lat="45.39245100986459" lon="11.4524112466793"><ele>231.42857142857144</ele><time>2026-04-26T09:01:39.999Z</time></trkpt><trkpt lat="45.392530752990744" lon="11.452498165165741"><ele>232.00000000000003</ele><time>2026-04-26T09:01:42.999Z</time></trkpt><trkpt lat="45.39257709202263" lon="11.4526220411801"><ele>231.99999999999997</ele><time>2026-04-26T09:01:44.999Z</time></trkpt><trkpt lat="45.39260729920992" lon="11.45272645089264"><ele>232.0</ele><time>2026-04-26T09:01:46.999Z</time></trkpt><trkpt lat="45.39267518955177" lon="11.45284671996916"><ele>232.0</ele><time>2026-04-26T09:01:49.999Z</time></trkpt><trkpt lat="45.39272183741628" lon="11.452922729611922"><ele>232.0</ele><time>2026-04-26T09:01:51.999Z</time></trkpt><trkpt lat="45.39276343942049" lon="11.453004990059702"><ele>231.99999999999997</ele><time>2026-04-26T09:01:53.999Z</time></trkpt><trkpt lat="45.39283992910064" lon="11.453079612805354"><ele>232.0</ele><time>2026-04-26T09:01:55.999Z</time></trkpt><trkpt lat="45.392950490000224" lon="11.453089233796069"><ele>231.66666666666666</ele><time>2026-04-26T09:01:57.999Z</time></trkpt><trkpt lat="45.393044787190846" lon="11.453048445306834"><ele>231.33333333333331</ele><time>2026-04-26T09:01:59.999Z</time></trkpt><trkpt lat="45.39313323282466" lon="11.45301105758247"><ele>231.0</ele><time>2026-04-26T09:02:01.999Z</time></trkpt><trkpt lat="45.39321478069691" lon="11.452968880461475"><ele>230.66666666666669</ele><time>2026-04-26T09:02:03.999Z</time></trkpt><trkpt lat="45.39329109999495" lon="11.45292985742466"><ele>230.33333333333334</ele><time>2026-04-26T09:02:05.999Z</time></trkpt><trkpt lat="45.39335390668477" lon="11.452885893133892"><ele>230.0</ele><time>2026-04-26T09:02:07.999Z</time></trkpt><trkpt lat="45.393435007982106" lon="11.452842355302897"><ele>230.0</ele><time>2026-04-26T09:02:09.998Z</time></trkpt><trkpt lat="45.39350751854415" lon="11.452779585356163"><ele>230.0</ele><time>2026-04-26T09:02:11.998Z</time></trkpt><trkpt lat="45.39358024079539" lon="11.4527171905247"><ele>230.0</ele><time>2026-04-26T09:02:13.998Z</time></trkpt><trkpt lat="45.39365552237187" lon="11.45265978697964"><ele>230.0</ele><time>2026-04-26T09:02:15.998Z</time></trkpt><trkpt lat="45.39375565194325" lon="11.45257429491844"><ele>230.0</ele><time>2026-04-26T09:02:17.998Z</time></trkpt><trkpt lat="45.393839205771854" lon="11.4524921652242"><ele>230.50000000000003</ele><time>2026-04-26T09:02:19.998Z</time></trkpt><trkpt lat="45.39390592338" lon="11.452410003945502"><ele>231.0</ele><time>2026-04-26T09:02:21.998Z</time></trkpt><trkpt lat="45.39396330390392" lon="11.452304155927921"><ele>231.5</ele><time>2026-04-26T09:02:23.998Z</time></trkpt><trkpt lat="45.39400017125841" lon="11.452191279800166"><ele>232.0</ele><time>2026-04-26T09:02:25.998Z</time></trkpt><trkpt lat="45.394048708279655" lon="11.452092305960829"><ele>232.50000000000003</ele><time>2026-04-26T09:02:27.998Z</time></trkpt><trkpt lat="45.3940787944718" lon="11.451982746225127"><ele>233.0</ele><time>2026-04-26T09:02:29.998Z</time></trkpt><trkpt lat="45.39404676836344" lon="11.45188742170212"><ele>233.00000000000003</ele><time>2026-04-26T09:02:31.998Z</time></trkpt><trkpt lat="45.394009344461544" lon="11.451802117364954"><ele>233.0</ele><time>2026-04-26T09:02:33.998Z</time></trkpt><trkpt lat="45.393964449540704" lon="11.451728243773676"><ele>233.0</ele><time>2026-04-26T09:02:35.998Z</time></trkpt><trkpt lat="45.39399570203317" lon="11.451632160683115"><ele>233.0</ele><time>2026-04-26T09:02:38.998Z</time></trkpt><trkpt lat="45.394041520965345" lon="11.45156621201054"><ele>233.00000000000003</ele><time>2026-04-26T09:02:40.998Z</time></trkpt><trkpt lat="45.394110381615846" lon="11.451490503739484"><ele>233.0</ele><time>2026-04-26T09:02:42.998Z</time></trkpt><trkpt lat="45.39419042503961" lon="11.451412885805212"><ele>233.00000000000003</ele><time>2026-04-26T09:02:44.998Z</time></trkpt><trkpt lat="45.394267436780865" lon="11.451357979271801"><ele>233.0</ele><time>2026-04-26T09:02:46.998Z</time></trkpt><trkpt lat="45.39433682619592" lon="11.451257408059972"><ele>233.0</ele><time>2026-04-26T09:02:48.998Z</time></trkpt><trkpt lat="45.39440687108928" lon="11.451216767899187"><ele>233.0</ele><time>2026-04-26T09:02:50.998Z</time></trkpt><trkpt lat="45.39448595930943" lon="11.45115449199557"><ele>233.00000000000003</ele><time>2026-04-26T09:02:53.998Z</time></trkpt><trkpt lat="45.394556118894656" lon="11.451147525057214"><ele>233.0</ele><time>2026-04-26T09:02:55.997Z</time></trkpt><trkpt lat="45.394651206364976" lon="11.451111076710884"><ele>232.00000000000003</ele><time>2026-04-26T09:02:58Z</time></trkpt><trkpt lat="45.394720970091555" lon="11.45109166876963"><ele>231.0</ele><time>2026-04-26T09:02:59Z</time></trkpt><trkpt lat="45.39480996584983" lon="11.451020714728003"><ele>230.0</ele><time>2026-04-26T09:03:01Z</time></trkpt><trkpt lat="45.39486104931367" lon="11.45094344739405"><ele>229.0</ele><time>2026-04-26T09:03:03Z</time></trkpt><trkpt lat="45.394957045053474" lon="11.450970080819692"><ele>228.00000000000003</ele><time>2026-04-26T09:03:05Z</time></trkpt><trkpt lat="45.395030456217306" lon="11.451024202869997"><ele>227.0</ele><time>2026-04-26T09:03:06Z</time></trkpt><trkpt lat="45.39510258501626" lon="11.451099156614994"><ele>227.00000000000003</ele><time>2026-04-26T09:03:08Z</time></trkpt><trkpt lat="45.39516753960452" lon="11.451087667016926"><ele>227.0</ele><time>2026-04-26T09:03:11Z</time></trkpt><trkpt lat="45.39525726048828" lon="11.451097976074095"><ele>227.0</ele><time>2026-04-26T09:03:14Z</time></trkpt><trkpt lat="45.39532062847788" lon="11.451029029394908"><ele>227.0</ele><time>2026-04-26T09:03:17Z</time></trkpt><trkpt lat="45.39539026348317" lon="11.450973476524304"><ele>227.00000000000003</ele><time>2026-04-26T09:03:21Z</time></trkpt><trkpt lat="45.39545828438354" lon="11.450902181871554"><ele>227.0</ele><time>2026-04-26T09:03:25Z</time></trkpt><trkpt lat="45.395538053085794" lon="11.450886855769825"><ele>226.50000000000003</ele><time>2026-04-26T09:03:27Z</time></trkpt><trkpt lat="45.39560376555492" lon="11.450808537802583"><ele>226.0</ele><time>2026-04-26T09:03:30Z</time></trkpt><trkpt lat="45.395663913663334" lon="11.450739181322279"><ele>225.5</ele><time>2026-04-26T09:03:32Z</time></trkpt><trkpt lat="45.395718651825895" lon="11.450643652881832"><ele>225.0</ele><time>2026-04-26T09:03:34.999Z</time></trkpt><trkpt lat="45.395777485751985" lon="11.450568486114035"><ele>224.50000000000003</ele><time>2026-04-26T09:03:36.999Z</time></trkpt><trkpt lat="45.3958258852705" lon="11.450502926855686"><ele>224.0</ele><time>2026-04-26T09:03:39.999Z</time></trkpt><trkpt lat="45.39587524204008" lon="11.450432490851883"><ele>224.0</ele><time>2026-04-26T09:04:21.998Z</time></trkpt><trkpt lat="45.39592693501054" lon="11.450352950210904"><ele>224.0</ele><time>2026-04-26T09:04:24.998Z</time></trkpt><trkpt lat="45.39598082298449" lon="11.450260315153058"><ele>224.0</ele><time>2026-04-26T09:04:27.998Z</time></trkpt><trkpt lat="45.39602618082376" lon="11.45019396595561"><ele>224.0</ele><time>2026-04-26T09:04:29.998Z</time></trkpt><trkpt lat="45.396067968139924" lon="11.450116611855462"><ele>224.0</ele><time>2026-04-26T09:04:31.998Z</time></trkpt><trkpt lat="45.39611683348742" lon="11.450026552669758"><ele>224.0</ele><time>2026-04-26T09:04:33.998Z</time></trkpt><trkpt lat="45.39616833933579" lon="11.449963964243805"><ele>224.0</ele><time>2026-04-26T09:04:35.998Z</time></trkpt><trkpt lat="45.39622787906134" lon="11.44987541504831"><ele>224.00000000000003</ele><time>2026-04-26T09:04:38.998Z</time></trkpt><trkpt lat="45.39627889111716" lon="11.449801406817405"><ele>224.0</ele><time>2026-04-26T09:04:42.998Z</time></trkpt><trkpt lat="45.39633277140366" lon="11.449717618815573"><ele>224.0</ele><time>2026-04-26T09:04:44.998Z</time></trkpt><trkpt lat="45.39640238312656" lon="11.44963044929226"><ele>224.0</ele><time>2026-04-26T09:04:46.998Z</time></trkpt><trkpt lat="45.396471278239666" lon="11.449568830444967"><ele>224.00000000000003</ele><time>2026-04-26T09:04:51.998Z</time></trkpt><trkpt lat="45.396556739238335" lon="11.449457348686032"><ele>224.0</ele><time>2026-04-26T09:04:54.998Z</time></trkpt><trkpt lat="45.396603715694624" lon="11.449381209253279"><ele>224.57142857142856</ele><time>2026-04-26T09:04:57.998Z</time></trkpt><trkpt lat="45.39665884604123" lon="11.449320328135716"><ele>225.14285714285714</ele><time>2026-04-26T09:04:59.998Z</time></trkpt><trkpt lat="45.39671206556445" lon="11.449251770777712"><ele>225.71428571428572</ele><time>2026-04-26T09:05:01.998Z</time></trkpt><trkpt lat="45.39677033233826" lon="11.4491898052406"><ele>226.28571428571428</ele><time>2026-04-26T09:05:05Z</time></trkpt><trkpt lat="45.39682546929458" lon="11.449128557975701"><ele>226.85714285714283</ele><time>2026-04-26T09:05:07Z</time></trkpt><trkpt lat="45.396890426695805" lon="11.449062386919511"><ele>227.42857142857142</ele><time>2026-04-26T09:05:10Z</time></trkpt><trkpt lat="45.39695514750716" lon="11.44902523253269"><ele>228.0</ele><time>2026-04-26T09:05:13Z</time></trkpt><trkpt lat="45.397031546198946" lon="11.449011878828736"><ele>228.0</ele><time>2026-04-26T09:05:17Z</time></trkpt><trkpt lat="45.39708860841412" lon="11.448945830443703"><ele>228.0</ele><time>2026-04-26T09:05:22Z</time></trkpt><trkpt lat="45.397120249835446" lon="11.448863400382312"><ele>228.0</ele><time>2026-04-26T09:05:25Z</time></trkpt><trkpt lat="45.39718005840901" lon="11.44882682523104"><ele>228.0</ele><time>2026-04-26T09:05:27Z</time></trkpt><trkpt lat="45.39724996990048" lon="11.448808512087753"><ele>228.0</ele><time>2026-04-26T09:05:29Z</time></trkpt><trkpt lat="45.39731295979954" lon="11.448674970854073"><ele>228.0</ele><time>2026-04-26T09:05:32Z</time></trkpt><trkpt lat="45.397374988657646" lon="11.448580980571439"><ele>227.16666666666666</ele><time>2026-04-26T09:05:34Z</time></trkpt><trkpt lat="45.39744428662271" lon="11.448501161290858"><ele>226.33333333333331</ele><time>2026-04-26T09:05:36Z</time></trkpt><trkpt lat="45.397475654035816" lon="11.448395424912778"><ele>225.5</ele><time>2026-04-26T09:05:38Z</time></trkpt><trkpt lat="45.39752839275129" lon="11.448314688644377"><ele>224.66666666666666</ele><time>2026-04-26T09:05:40Z</time></trkpt><trkpt lat="45.397583249033225" lon="11.448224763139706"><ele>223.83333333333331</ele><time>2026-04-26T09:05:41.999Z</time></trkpt><trkpt lat="45.39757778372415" lon="11.448089350874243"><ele>223.0</ele><time>2026-04-26T09:05:43.999Z</time></trkpt><trkpt lat="45.39761402327638" lon="11.447963112544258"><ele>223.16666666666666</ele><time>2026-04-26T09:05:46.999Z</time></trkpt><trkpt lat="45.39764292266573" lon="11.447855557539913"><ele>223.33333333333331</ele><time>2026-04-26T09:05:48.999Z</time></trkpt><trkpt lat="45.39769238773267" lon="11.447774818697049"><ele>223.5</ele><time>2026-04-26T09:05:50.999Z</time></trkpt><trkpt lat="45.39778369557362" lon="11.447759390430862"><ele>223.66666666666669</ele><time>2026-04-26T09:05:52.999Z</time></trkpt><trkpt lat="45.39786797334433" lon="11.447748167174522"><ele>223.83333333333334</ele><time>2026-04-26T09:05:54.999Z</time></trkpt><trkpt lat="45.397973513492666" lon="11.447777445009077"><ele>224.0</ele><time>2026-04-26T09:05:56.999Z</time></trkpt><trkpt lat="45.39806959043714" lon="11.447789320798336"><ele>224.00000000000003</ele><time>2026-04-26T09:05:58.999Z</time></trkpt><trkpt lat="45.398146024252156" lon="11.447750228177357"><ele>224.0</ele><time>2026-04-26T09:06:00.999Z</time></trkpt><trkpt lat="45.39819466178186" lon="11.447683678297306"><ele>224.0</ele><time>2026-04-26T09:06:02.999Z</time></trkpt><trkpt lat="45.39820954643271" lon="11.447596089610022"><ele>224.0</ele><time>2026-04-26T09:06:06.999Z</time></trkpt><trkpt lat="45.39826395930954" lon="11.44751556341533"><ele>224.00000000000003</ele><time>2026-04-26T09:06:08.999Z</time></trkpt><trkpt lat="45.39833487738956" lon="11.447429022167185"><ele>224.0</ele><time>2026-04-26T09:06:10.999Z</time></trkpt><trkpt lat="45.39843364695377" lon="11.44739497530191"><ele>224.00000000000003</ele><time>2026-04-26T09:06:12.999Z</time></trkpt><trkpt lat="45.39850308586044" lon="11.447383419895726"><ele>224.0</ele><time>2026-04-26T09:06:14.999Z</time></trkpt><trkpt lat="45.39857471562961" lon="11.447342599838633"><ele>224.0</ele><time>2026-04-26T09:06:16.999Z</time></trkpt><trkpt lat="45.398656949770654" lon="11.447343516556895"><ele>224.0</ele><time>2026-04-26T09:06:18.999Z</time></trkpt><trkpt lat="45.398746713595045" lon="11.447244078273735"><ele>224.00000000000003</ele><time>2026-04-26T09:06:21.999Z</time></trkpt><trkpt lat="45.39881109198834" lon="11.447228586252784"><ele>224.0</ele><time>2026-04-26T09:06:23.998Z</time></trkpt><trkpt lat="45.39887514391402" lon="11.44724031054842"><ele>225.00000000000003</ele><time>2026-04-26T09:06:25.998Z</time></trkpt><trkpt lat="45.39897695904816" lon="11.4471791037385"><ele>226.0</ele><time>2026-04-26T09:06:29.998Z</time></trkpt><trkpt lat="45.399056180383944" lon="11.44713089616497"><ele>227.0</ele><time>2026-04-26T09:06:32.998Z</time></trkpt><trkpt lat="45.399137620680555" lon="11.447100267829084"><ele>228.0</ele><time>2026-04-26T09:06:34.998Z</time></trkpt><trkpt lat="45.399195041945795" lon="11.447037782371003"><ele>229.00000000000003</ele><time>2026-04-26T09:06:36.998Z</time></trkpt><trkpt lat="45.399277562259435" lon="11.44700993985437"><ele>230.0</ele><time>2026-04-26T09:06:39.998Z</time></trkpt><trkpt lat="45.39934285930589" lon="11.446976694755111"><ele>230.00000000000003</ele><time>2026-04-26T09:06:41.998Z</time></trkpt><trkpt lat="45.39938759828407" lon="11.446911362034708"><ele>230.0</ele><time>2026-04-26T09:06:43.998Z</time></trkpt><trkpt lat="45.39943015488749" lon="11.446830445506135"><ele>230.0</ele><time>2026-04-26T09:06:46.998Z</time></trkpt><trkpt lat="45.39949013499625" lon="11.446767034160715"><ele>230.0</ele><time>2026-04-26T09:06:50.998Z</time></trkpt><trkpt lat="45.39951950512608" lon="11.44667806930928"><ele>230.00000000000003</ele><time>2026-04-26T09:06:53.998Z</time></trkpt><trkpt lat="45.39955982458367" lon="11.446598938995223"><ele>230.0</ele><time>2026-04-26T09:06:56.998Z</time></trkpt><trkpt lat="45.39966992524593" lon="11.446572406456351"><ele>229.50000000000003</ele><time>2026-04-26T09:06:58.998Z</time></trkpt><trkpt lat="45.39970148820657" lon="11.4464444240094"><ele>229.0</ele><time>2026-04-26T09:07:01.998Z</time></trkpt><trkpt lat="45.39973569152893" lon="11.446366642024895"><ele>228.5</ele><time>2026-04-26T09:07:03.998Z</time></trkpt><trkpt lat="45.399832749181215" lon="11.446328882155818"><ele>228.0</ele><time>2026-04-26T09:07:05.998Z</time></trkpt><trkpt lat="45.39989571293849" lon="11.446234389575155"><ele>227.50000000000003</ele><time>2026-04-26T09:07:06.998Z</time></trkpt><trkpt lat="45.3999763966143" lon="11.446196850628183"><ele>227.0</ele><time>2026-04-26T09:07:07.997Z</time></trkpt><trkpt lat="45.40005658843398" lon="11.44615793102784"><ele>227.00000000000003</ele><time>2026-04-26T09:07:10Z</time></trkpt><trkpt lat="45.40012289396892" lon="11.446103501803632"><ele>227.0</ele><time>2026-04-26T09:07:14Z</time></trkpt><trkpt lat="45.400187020933934" lon="11.44608793142503"><ele>227.0</ele><time>2026-04-26T09:07:16Z</time></trkpt><trkpt lat="45.40026027218253" lon="11.446032428565529"><ele>227.0</ele><time>2026-04-26T09:07:18Z</time></trkpt><trkpt lat="45.40030554639431" lon="11.445956646037928"><ele>227.00000000000003</ele><time>2026-04-26T09:07:20Z</time></trkpt><trkpt lat="45.40037246151403" lon="11.445933799275476"><ele>227.0</ele><time>2026-04-26T09:07:42Z</time></trkpt><trkpt lat="45.400457418941485" lon="11.445903894159864"><ele>226.16666666666669</ele><time>2026-04-26T09:07:45Z</time></trkpt><trkpt lat="45.40055269921237" lon="11.445916765052946"><ele>225.33333333333334</ele><time>2026-04-26T09:07:46.999Z</time></trkpt><trkpt lat="45.40065331325296" lon="11.44591437058424"><ele>224.5</ele><time>2026-04-26T09:07:48.999Z</time></trkpt><trkpt lat="45.40072856393354" lon="11.445906425806916"><ele>223.66666666666669</ele><time>2026-04-26T09:07:49.999Z</time></trkpt><trkpt lat="45.4008276850718" lon="11.445906348574626"><ele>222.83333333333334</ele><time>2026-04-26T09:07:50.999Z</time></trkpt><trkpt lat="45.40089423932214" lon="11.445883523356242"><ele>222.0</ele><time>2026-04-26T09:07:52.999Z</time></trkpt><trkpt lat="45.40096363392093" lon="11.44585169842687"><ele>222.0</ele><time>2026-04-26T09:07:54.999Z</time></trkpt><trkpt lat="45.40105525301096" lon="11.445808634321502"><ele>222.0</ele><time>2026-04-26T09:07:56.999Z</time></trkpt><trkpt lat="45.4011246666741" lon="11.445811427141091"><ele>222.0</ele><time>2026-04-26T09:07:57.999Z</time></trkpt><trkpt lat="45.40123771847798" lon="11.445779710235673"><ele>222.0</ele><time>2026-04-26T09:07:59.999Z</time></trkpt><trkpt lat="45.40130029876178" lon="11.445739456683846"><ele>222.0</ele><time>2026-04-26T09:08:01.999Z</time></trkpt><trkpt lat="45.401366289766656" lon="11.445708185793977"><ele>222.0</ele><time>2026-04-26T09:08:04.999Z</time></trkpt><trkpt lat="45.401428828547566" lon="11.44567293680705"><ele>222.16666666666666</ele><time>2026-04-26T09:08:44.998Z</time></trkpt><trkpt lat="45.401459423014394" lon="11.445783752330493"><ele>222.33333333333331</ele><time>2026-04-26T09:08:48.998Z</time></trkpt><trkpt lat="45.40151229458348" lon="11.44585312473538"><ele>222.5</ele><time>2026-04-26T09:08:50.998Z</time></trkpt><trkpt lat="45.401567630908744" lon="11.445788085454213"><ele>222.66666666666666</ele><time>2026-04-26T09:08:55.998Z</time></trkpt><trkpt lat="45.40158935157429" lon="11.445675244155233"><ele>222.83333333333331</ele><time>2026-04-26T09:08:57.998Z</time></trkpt><trkpt lat="45.40163268111683" lon="11.445576619635851"><ele>223.0</ele><time>2026-04-26T09:08:59.998Z</time></trkpt><trkpt lat="45.40167725025404" lon="11.445499262525654"><ele>222.99999999999997</ele><time>2026-04-26T09:09:01.998Z</time></trkpt><trkpt lat="45.401650650513716" lon="11.445626505398105"><ele>223.0</ele><time>2026-04-26T09:09:13.997Z</time></trkpt><trkpt lat="45.40159102019814" lon="11.445694119711824"><ele>223.0</ele><time>2026-04-26T09:09:16Z</time></trkpt><trkpt lat="45.40157631495321" lon="11.445822067761267"><ele>223.0</ele><time>2026-04-26T09:09:18Z</time></trkpt><trkpt lat="45.40154965028859" lon="11.44591674157942"><ele>222.99999999999997</ele><time>2026-04-26T09:09:20Z</time></trkpt><trkpt lat="45.40148669238094" lon="11.44599877614233"><ele>223.0</ele><time>2026-04-26T09:09:23Z</time></trkpt><trkpt lat="45.401413924091436" lon="11.44602105761634"><ele>222.99999999999997</ele><time>2026-04-26T09:10:27.999Z</time></trkpt><trkpt lat="45.40139324850009" lon="11.446122589925507"><ele>223.0</ele><time>2026-04-26T09:10:32.999Z</time></trkpt><trkpt lat="45.40147995521781" lon="11.44620617016347"><ele>223.0</ele><time>2026-04-26T09:10:35.998Z</time></trkpt><trkpt lat="45.40159246108503" lon="11.446243055405855"><ele>223.0</ele><time>2026-04-26T09:10:37.998Z</time></trkpt><trkpt lat="45.401655867441285" lon="11.44626621187203"><ele>222.99999999999997</ele><time>2026-04-26T09:10:38.998Z</time></trkpt><trkpt lat="45.401720264070114" lon="11.44628125151566"><ele>223.0</ele><time>2026-04-26T09:10:39.998Z</time></trkpt><trkpt lat="45.401777269814566" lon="11.446326291827916"><ele>220.71428571428572</ele><time>2026-04-26T09:10:40.998Z</time></trkpt><trkpt lat="45.40185193396461" lon="11.446338693675012"><ele>218.42857142857142</ele><time>2026-04-26T09:10:41.998Z</time></trkpt><trkpt lat="45.40192251320108" lon="11.446347263560787"><ele>216.14285714285717</ele><time>2026-04-26T09:10:42.998Z</time></trkpt><trkpt lat="45.4019911426885" lon="11.446353867449625"><ele>213.85714285714286</ele><time>2026-04-26T09:10:43.998Z</time></trkpt><trkpt lat="45.40206350642254" lon="11.446354427512174"><ele>211.57142857142858</ele><time>2026-04-26T09:10:44.998Z</time></trkpt><trkpt lat="45.40212749746431" lon="11.446341508724796"><ele>209.2857142857143</ele><time>2026-04-26T09:10:45.998Z</time></trkpt><trkpt lat="45.40221758906129" lon="11.446336475360928"><ele>207.0</ele><time>2026-04-26T09:10:46.998Z</time></trkpt><trkpt lat="45.402290267972056" lon="11.446322269514067"><ele>205.33333333333334</ele><time>2026-04-26T09:10:47.998Z</time></trkpt><trkpt lat="45.40236382333132" lon="11.44630834551329"><ele>203.66666666666669</ele><time>2026-04-26T09:10:48.998Z</time></trkpt><trkpt lat="45.40245371303974" lon="11.446324114318957"><ele>202.0</ele><time>2026-04-26T09:10:49.998Z</time></trkpt><trkpt lat="45.40253850209638" lon="11.446320626989369"><ele>200.33333333333334</ele><time>2026-04-26T09:10:50.998Z</time></trkpt><trkpt lat="45.402630367545164" lon="11.446317955262543"><ele>198.66666666666669</ele><time>2026-04-26T09:10:51.998Z</time></trkpt><trkpt lat="45.40271356453294" lon="11.446317283488346"><ele>197.0</ele><time>2026-04-26T09:10:52.998Z</time></trkpt><trkpt lat="45.40278579750806" lon="11.446317932346846"><ele>197.0</ele><time>2026-04-26T09:10:53.998Z</time></trkpt><trkpt lat="45.40287603112332" lon="11.446323248646783"><ele>197.0</ele><time>2026-04-26T09:10:54.998Z</time></trkpt><trkpt lat="45.40295933502934" lon="11.446331504903059"><ele>197.0</ele><time>2026-04-26T09:10:55.998Z</time></trkpt><trkpt lat="45.40305623521779" lon="11.446342805340961"><ele>197.0</ele><time>2026-04-26T09:10:56.998Z</time></trkpt><trkpt lat="45.403150484662646" lon="11.446358285779299"><ele>197.0</ele><time>2026-04-26T09:10:57.998Z</time></trkpt><trkpt lat="45.40323867219703" lon="11.446377822733103"><ele>195.2</ele><time>2026-04-26T09:10:58.998Z</time></trkpt><trkpt lat="45.403345018128796" lon="11.446388692022579"><ele>193.39999999999998</ele><time>2026-04-26T09:10:59.998Z</time></trkpt><trkpt lat="45.40344621649139" lon="11.446410347244113"><ele>191.60000000000002</ele><time>2026-04-26T09:11:00.998Z</time></trkpt><trkpt lat="45.40354680891929" lon="11.446439692067209"><ele>189.8</ele><time>2026-04-26T09:11:01.998Z</time></trkpt><trkpt lat="45.40364173561816" lon="11.446485028564393"><ele>188.0</ele><time>2026-04-26T09:11:02.998Z</time></trkpt><trkpt lat="45.403724203387185" lon="11.446495002307937"><ele>188.0</ele><time>2026-04-26T09:11:03.998Z</time></trkpt><trkpt lat="45.40381340807041" lon="11.446525777453482"><ele>188.0</ele><time>2026-04-26T09:11:04.998Z</time></trkpt><trkpt lat="45.40390769428239" lon="11.446572939982888"><ele>188.0</ele><time>2026-04-26T09:11:05.998Z</time></trkpt><trkpt lat="45.40403050556676" lon="11.446597705825162"><ele>188.0</ele><time>2026-04-26T09:11:06.998Z</time></trkpt><trkpt lat="45.40414589320161" lon="11.446654210087328"><ele>188.0</ele><time>2026-04-26T09:11:07.998Z</time></trkpt><trkpt lat="45.40425144875346" lon="11.446694948179434"><ele>188.0</ele><time>2026-04-26T09:11:08.998Z</time></trkpt><trkpt lat="45.40435664404298" lon="11.446734896683223"><ele>188.0</ele><time>2026-04-26T09:11:09.998Z</time></trkpt><trkpt lat="45.40446366427288" lon="11.446781426948384"><ele>188.0</ele><time>2026-04-26T09:11:10.998Z</time></trkpt><trkpt lat="45.40457688257565" lon="11.446796372121423"><ele>188.0</ele><time>2026-04-26T09:11:11.998Z</time></trkpt><trkpt lat="45.404705597995346" lon="11.446842862479226"><ele>189.0</ele><time>2026-04-26T09:11:12.998Z</time></trkpt><trkpt lat="45.40483821186636" lon="11.446884556890852"><ele>190.0</ele><time>2026-04-26T09:11:13.998Z</time></trkpt><trkpt lat="45.40494501181201" lon="11.446924625628034"><ele>191.0</ele><time>2026-04-26T09:11:14.998Z</time></trkpt><trkpt lat="45.40504452610762" lon="11.446926478467727"><ele>192.0</ele><time>2026-04-26T09:11:15.997Z</time></trkpt><trkpt lat="45.405143786542226" lon="11.446966964779074"><ele>193.0</ele><time>2026-04-26T09:11:16.997Z</time></trkpt><trkpt lat="45.40524474325523" lon="11.447002174505347"><ele>192.99999999999997</ele><time>2026-04-26T09:11:17.997Z</time></trkpt><trkpt lat="45.40533544375805" lon="11.4470515267814"><ele>193.0</ele><time>2026-04-26T09:11:18.997Z</time></trkpt><trkpt lat="45.40542660609699" lon="11.44707589194149"><ele>193.0</ele><time>2026-04-26T09:11:19.997Z</time></trkpt><trkpt lat="45.40550127697556" lon="11.44708638054553"><ele>193.0</ele><time>2026-04-26T09:11:21Z</time></trkpt><trkpt lat="45.40557561225643" lon="11.447127547359885"><ele>192.99999999999997</ele><time>2026-04-26T09:11:22Z</time></trkpt><trkpt lat="45.40565131737862" lon="11.447132206112157"><ele>193.0</ele><time>2026-04-26T09:11:23Z</time></trkpt><trkpt lat="45.405716191913946" lon="11.44717241896175"><ele>188.49999999999997</ele><time>2026-04-26T09:11:24Z</time></trkpt><trkpt lat="45.405779874012666" lon="11.44719723307917"><ele>184.0</ele><time>2026-04-26T09:11:25Z</time></trkpt><trkpt lat="45.40583608001838" lon="11.447250195343198"><ele>179.5</ele><time>2026-04-26T09:11:26Z</time></trkpt><trkpt lat="45.40588998274409" lon="11.447300144299325"><ele>175.0</ele><time>2026-04-26T09:11:27Z</time></trkpt><trkpt lat="45.40598639354603" lon="11.447380064726893"><ele>170.5</ele><time>2026-04-26T09:11:29Z</time></trkpt><trkpt lat="45.40605218581264" lon="11.447409187752317"><ele>166.0</ele><time>2026-04-26T09:11:30Z</time></trkpt><trkpt lat="45.406140772716455" lon="11.447469659833416"><ele>166.0</ele><time>2026-04-26T09:11:32Z</time></trkpt><trkpt lat="45.4062412971806" lon="11.447502883378592"><ele>166.0</ele><time>2026-04-26T09:11:34Z</time></trkpt><trkpt lat="45.4063259171533" lon="11.447567677527678"><ele>166.0</ele><time>2026-04-26T09:11:36Z</time></trkpt><trkpt lat="45.40641600875143" lon="11.447593169659847"><ele>166.0</ele><time>2026-04-26T09:11:38Z</time></trkpt><trkpt lat="45.406499554289645" lon="11.447607565539235"><ele>166.0</ele><time>2026-04-26T09:11:40Z</time></trkpt><trkpt lat="45.406593769000615" lon="11.447665828112306"><ele>167.60000000000002</ele><time>2026-04-26T09:11:42Z</time></trkpt><trkpt lat="45.40670219799871" lon="11.447716531658651"><ele>169.2</ele><time>2026-04-26T09:11:44Z</time></trkpt><trkpt lat="45.406768066565164" lon="11.4477544344086"><ele>170.8</ele><time>2026-04-26T09:11:45Z</time></trkpt><trkpt lat="45.40685215755288" lon="11.447823451588386"><ele>172.39999999999998</ele><time>2026-04-26T09:11:47Z</time></trkpt><trkpt lat="45.406963353805565" lon="11.447888601430966"><ele>174.0</ele><time>2026-04-26T09:11:49Z</time></trkpt><trkpt lat="45.40703737898231" lon="11.447931267498584"><ele>170.79999999999998</ele><time>2026-04-26T09:11:51Z</time></trkpt><trkpt lat="45.40724567345181" lon="11.448024863006765"><ele>167.6</ele><time>2026-04-26T09:11:56Z</time></trkpt><trkpt lat="45.40732498661665" lon="11.44808746488614"><ele>164.4</ele><time>2026-04-26T09:11:57.999Z</time></trkpt><trkpt lat="45.407383691174516" lon="11.448124370606553"><ele>161.2</ele><time>2026-04-26T09:11:59.999Z</time></trkpt><trkpt lat="45.407444254575644" lon="11.44816271089147"><ele>158.0</ele><time>2026-04-26T09:12:02.999Z</time></trkpt><trkpt lat="45.407513141457756" lon="11.448142668091382"><ele>158.0</ele><time>2026-04-26T09:12:06.999Z</time></trkpt><trkpt lat="45.4074488912051" lon="11.448115688311505"><ele>158.0</ele><time>2026-04-26T09:12:52.998Z</time></trkpt><trkpt lat="45.407552732469185" lon="11.448126245179099"><ele>158.0</ele><time>2026-04-26T09:13:07.998Z</time></trkpt><trkpt lat="45.40762697346966" lon="11.448133201596749"><ele>158.0</ele><time>2026-04-26T09:13:29Z</time></trkpt><trkpt lat="45.4077119587178" lon="11.448196513268572"><ele>158.0</ele><time>2026-04-26T09:15:00.998Z</time></trkpt><trkpt lat="45.407772339947705" lon="11.44822885907866"><ele>158.0</ele><time>2026-04-26T09:15:02.998Z</time></trkpt><trkpt lat="45.40781821979058" lon="11.44831343035493"><ele>158.0</ele><time>2026-04-26T09:15:04.998Z</time></trkpt><trkpt lat="45.4078639949708" lon="11.448406246903286"><ele>158.0</ele><time>2026-04-26T09:15:14.998Z</time></trkpt><trkpt lat="45.40792372863938" lon="11.44848676948181"><ele>158.0</ele><time>2026-04-26T09:15:17.998Z</time></trkpt><trkpt lat="45.40798772511539" lon="11.448519291288058"><ele>158.0</ele><time>2026-04-26T09:15:18.998Z</time></trkpt><trkpt lat="45.40808508451879" lon="11.448592185570082"><ele>158.0</ele><time>2026-04-26T09:15:20.998Z</time></trkpt><trkpt lat="45.40817569288133" lon="11.448626678625834"><ele>158.0</ele><time>2026-04-26T09:15:22.997Z</time></trkpt><trkpt lat="45.40825864642833" lon="11.448688757966494"><ele>161.8</ele><time>2026-04-26T09:15:24.997Z</time></trkpt><trkpt lat="45.40835763591529" lon="11.448741974136274"><ele>165.60000000000002</ele><time>2026-04-26T09:15:26.997Z</time></trkpt><trkpt lat="45.408427500903564" lon="11.448712876102531"><ele>169.39999999999998</ele><time>2026-04-26T09:15:27.997Z</time></trkpt><trkpt lat="45.40852494185955" lon="11.448729728284956"><ele>173.2</ele><time>2026-04-26T09:15:29.997Z</time></trkpt><trkpt lat="45.40861654122421" lon="11.44870999342154"><ele>177.0</ele><time>2026-04-26T09:15:31.997Z</time></trkpt><trkpt lat="45.40885198814895" lon="11.448712115289197"><ele>178.8</ele><time>2026-04-26T09:15:45Z</time></trkpt><trkpt lat="45.40892221851081" lon="11.44863476686576"><ele>180.6</ele><time>2026-04-26T09:16:00Z</time></trkpt><trkpt lat="45.40898186724988" lon="11.44858287006165"><ele>182.4</ele><time>2026-04-26T09:16:02Z</time></trkpt><trkpt lat="45.409048852107404" lon="11.44866385891841"><ele>184.20000000000002</ele><time>2026-04-26T09:16:05Z</time></trkpt><trkpt lat="45.40913696390962" lon="11.448738064557263"><ele>186.0</ele><time>2026-04-26T09:16:07.999Z</time></trkpt><trkpt lat="45.40933739285928" lon="11.448635664652182"><ele>186.0</ele><time>2026-04-26T09:16:12.999Z</time></trkpt><trkpt lat="45.409443700985996" lon="11.44868218112987"><ele>186.0</ele><time>2026-04-26T09:16:14.999Z</time></trkpt><trkpt lat="45.409540736909406" lon="11.448766868700773"><ele>186.0</ele><time>2026-04-26T09:16:16.999Z</time></trkpt><trkpt lat="45.409610990406726" lon="11.448788843376722"><ele>186.0</ele><time>2026-04-26T09:16:18.999Z</time></trkpt><trkpt lat="45.409661322542775" lon="11.448857725039069"><ele>186.0</ele><time>2026-04-26T09:16:21.999Z</time></trkpt><trkpt lat="45.40972874607433" lon="11.448921790466416"><ele>186.0</ele><time>2026-04-26T09:16:24.999Z</time></trkpt><trkpt lat="45.40978337655944" lon="11.448974311902273"><ele>180.20000000000002</ele><time>2026-04-26T09:16:26.999Z</time></trkpt><trkpt lat="45.409806549177425" lon="11.449061014996637"><ele>174.4</ele><time>2026-04-26T09:16:28.999Z</time></trkpt><trkpt lat="45.40989225290719" lon="11.44912760173267"><ele>168.6</ele><time>2026-04-26T09:16:30.999Z</time></trkpt><trkpt lat="45.40995107898901" lon="11.449200636638546"><ele>162.8</ele><time>2026-04-26T09:16:32.999Z</time></trkpt><trkpt lat="45.41009632775291" lon="11.449183507512679"><ele>157.0</ele><time>2026-04-26T09:16:34.999Z</time></trkpt><trkpt lat="45.41016138207393" lon="11.449213003121965"><ele>157.0</ele><time>2026-04-26T09:16:35.999Z</time></trkpt><trkpt lat="45.41019222125865" lon="11.44930596236201"><ele>157.0</ele><time>2026-04-26T09:16:37.999Z</time></trkpt><trkpt lat="45.410276871954416" lon="11.449333163093609"><ele>157.0</ele><time>2026-04-26T09:16:39.999Z</time></trkpt><trkpt lat="45.410369290885264" lon="11.449375076376723"><ele>157.0</ele><time>2026-04-26T09:16:41.999Z</time></trkpt><trkpt lat="45.410453130563454" lon="11.449412356820233"><ele>157.0</ele><time>2026-04-26T09:16:43.999Z</time></trkpt><trkpt lat="45.41054124096817" lon="11.449434992043827"><ele>157.0</ele><time>2026-04-26T09:16:45.999Z</time></trkpt><trkpt lat="45.410659183804626" lon="11.449471258942951"><ele>160.75</ele><time>2026-04-26T09:16:47.998Z</time></trkpt><trkpt lat="45.410826906455355" lon="11.449474583155713"><ele>164.5</ele><time>2026-04-26T09:16:51.998Z</time></trkpt><trkpt lat="45.41092225104403" lon="11.449551417343296"><ele>168.25</ele><time>2026-04-26T09:16:53.998Z</time></trkpt><trkpt lat="45.41103672581703" lon="11.449542777031109"><ele>172.0</ele><time>2026-04-26T09:16:55.998Z</time></trkpt><trkpt lat="45.411126451131224" lon="11.449555267704632"><ele>172.0</ele><time>2026-04-26T09:16:57.998Z</time></trkpt><trkpt lat="45.411235621016566" lon="11.449616277545728"><ele>172.0</ele><time>2026-04-26T09:16:59.998Z</time></trkpt><trkpt lat="45.41133825788271" lon="11.44967083162176"><ele>172.0</ele><time>2026-04-26T09:17:01.998Z</time></trkpt><trkpt lat="45.41143595500005" lon="11.449684180556774"><ele>172.0</ele><time>2026-04-26T09:17:03.998Z</time></trkpt><trkpt lat="45.41150882844434" lon="11.449703586932328"><ele>172.0</ele><time>2026-04-26T09:17:05.998Z</time></trkpt><trkpt lat="45.411584115227726" lon="11.449712316794434"><ele>164.2</ele><time>2026-04-26T09:17:07.998Z</time></trkpt><trkpt lat="45.411669190669336" lon="11.449758216018482"><ele>156.39999999999998</ele><time>2026-04-26T09:17:09.998Z</time></trkpt><trkpt lat="45.41181519960549" lon="11.449787666853771"><ele>148.60000000000002</ele><time>2026-04-26T09:17:12.998Z</time></trkpt><trkpt lat="45.41188962368849" lon="11.44982971088032"><ele>140.8</ele><time>2026-04-26T09:17:14.998Z</time></trkpt><trkpt lat="45.411987313969576" lon="11.449864264672447"><ele>133.0</ele><time>2026-04-26T09:17:16.998Z</time></trkpt><trkpt lat="45.41209173454121" lon="11.44989068373486"><ele>134.5</ele><time>2026-04-26T09:17:20.998Z</time></trkpt><trkpt lat="45.41217502959919" lon="11.44995210127131"><ele>136.0</ele><time>2026-04-26T09:17:22.998Z</time></trkpt><trkpt lat="45.41219552046598" lon="11.45004964717583"><ele>137.5</ele><time>2026-04-26T09:17:23.998Z</time></trkpt><trkpt lat="45.41225066304799" lon="11.45015678773504"><ele>139.0</ele><time>2026-04-26T09:17:28.997Z</time></trkpt><trkpt lat="45.41232928121497" lon="11.450270840174186"><ele>140.5</ele><time>2026-04-26T09:17:30.997Z</time></trkpt><trkpt lat="45.41238329285714" lon="11.450320222006475"><ele>142.0</ele><time>2026-04-26T09:17:32.997Z</time></trkpt><trkpt lat="45.41245356324721" lon="11.450378383750039"><ele>134.2</ele><time>2026-04-26T09:17:34.997Z</time></trkpt><trkpt lat="45.41247248653632" lon="11.450465751515326"><ele>126.39999999999999</ele><time>2026-04-26T09:17:35.997Z</time></trkpt><trkpt lat="45.41253882247266" lon="11.45052380949423"><ele>118.6</ele><time>2026-04-26T09:17:37.997Z</time></trkpt><trkpt lat="45.412630211833466" lon="11.450591555305493"><ele>110.80000000000001</ele><time>2026-04-26T09:17:40Z</time></trkpt><trkpt lat="45.412705026054496" lon="11.45067543209539"><ele>103.0</ele><time>2026-04-26T09:17:42Z</time></trkpt><trkpt lat="45.4128485716924" lon="11.450688323710782"><ele>103.0</ele><time>2026-04-26T09:17:44Z</time></trkpt><trkpt lat="45.41297715790234" lon="11.450748433149764"><ele>103.0</ele><time>2026-04-26T09:17:46Z</time></trkpt><trkpt lat="45.413202761540276" lon="11.450748301232919"><ele>103.0</ele><time>2026-04-26T09:17:52Z</time></trkpt><trkpt lat="45.41326745262148" lon="11.450746862466596"><ele>103.0</ele><time>2026-04-26T09:17:53Z</time></trkpt><trkpt lat="45.413391312059865" lon="11.450746626064252"><ele>104.80000000000001</ele><time>2026-04-26T09:17:55Z</time></trkpt><trkpt lat="45.41350059115611" lon="11.45072376438623"><ele>106.6</ele><time>2026-04-26T09:17:57Z</time></trkpt><trkpt lat="45.41360626777412" lon="11.450731769000244"><ele>108.39999999999999</ele><time>2026-04-26T09:17:59Z</time></trkpt><trkpt lat="45.41371603929783" lon="11.450730435188374"><ele>110.19999999999999</ele><time>2026-04-26T09:18:01Z</time></trkpt><trkpt lat="45.41382253162134" lon="11.450758602148147"><ele>112.0</ele><time>2026-04-26T09:18:03Z</time></trkpt><trkpt lat="45.41394987842206" lon="11.450807917378036"><ele>112.75</ele><time>2026-04-26T09:18:05Z</time></trkpt><trkpt lat="45.414090808747794" lon="11.45086883286086"><ele>113.5</ele><time>2026-04-26T09:18:07Z</time></trkpt><trkpt lat="45.41423144019217" lon="11.450918035105854"><ele>114.25</ele><time>2026-04-26T09:18:09Z</time></trkpt><trkpt lat="45.41433538785105" lon="11.450914083668449"><ele>115.0</ele><time>2026-04-26T09:18:11Z</time></trkpt><trkpt lat="45.414443619518835" lon="11.450944576109025"><ele>115.0</ele><time>2026-04-26T09:18:12.999Z</time></trkpt><trkpt lat="45.41455736965232" lon="11.45108569216035"><ele>115.0</ele><time>2026-04-26T09:18:14.999Z</time></trkpt><trkpt lat="45.41461565761701" lon="11.451163065111025"><ele>115.0</ele><time>2026-04-26T09:18:15.999Z</time></trkpt><trkpt lat="45.414670708216775" lon="11.451211087053744"><ele>115.0</ele><time>2026-04-26T09:18:16.999Z</time></trkpt><trkpt lat="45.414731009452616" lon="11.451275069284378"><ele>115.0</ele><time>2026-04-26T09:18:17.999Z</time></trkpt><trkpt lat="45.41481347158376" lon="11.45135797838927"><ele>111.4</ele><time>2026-04-26T09:18:19.999Z</time></trkpt><trkpt lat="45.41476608534871" lon="11.451589491326398"><ele>107.8</ele><time>2026-04-26T09:18:20.999Z</time></trkpt><trkpt lat="45.41468025996608" lon="11.451492190949017"><ele>104.19999999999999</ele><time>2026-04-26T09:18:26.999Z</time></trkpt><trkpt lat="45.414780961104654" lon="11.451465687997706"><ele>100.6</ele><time>2026-04-26T09:18:27.999Z</time></trkpt><trkpt lat="45.41481851941259" lon="11.451388150143144"><ele>97.0</ele><time>2026-04-26T09:18:31.999Z</time></trkpt><trkpt lat="45.414869804386406" lon="11.451325968938322"><ele>99.50000000000001</ele><time>2026-04-26T09:18:35.999Z</time></trkpt><trkpt lat="45.41491924977735" lon="11.45125595002625"><ele>102.0</ele><time>2026-04-26T09:18:38.999Z</time></trkpt><trkpt lat="45.41498007132846" lon="11.451194144951598"><ele>104.5</ele><time>2026-04-26T09:18:40.999Z</time></trkpt><trkpt lat="45.41508556621035" lon="11.45111208081847"><ele>107.0</ele><time>2026-04-26T09:18:43.999Z</time></trkpt><trkpt lat="45.415141806899996" lon="11.451066923550748"><ele>109.50000000000001</ele><time>2026-04-26T09:18:45.999Z</time></trkpt><trkpt lat="45.41524157646948" lon="11.451011113792587"><ele>112.0</ele><time>2026-04-26T09:18:48.999Z</time></trkpt><trkpt lat="45.41529571056356" lon="11.450927038085384"><ele>112.00000000000001</ele><time>2026-04-26T09:18:52.998Z</time></trkpt><trkpt lat="45.41532971047472" lon="11.450838751436704"><ele>112.0</ele><time>2026-04-26T09:18:55.998Z</time></trkpt><trkpt lat="45.415410298418585" lon="11.45074978391407"><ele>112.0</ele><time>2026-04-26T09:18:59.998Z</time></trkpt><trkpt lat="45.415479824280595" lon="11.450712410796228"><ele>112.0</ele><time>2026-04-26T09:19:02.998Z</time></trkpt><trkpt lat="45.41553705450655" lon="11.450654132875854"><ele>112.00000000000001</ele><time>2026-04-26T09:19:05.998Z</time></trkpt><trkpt lat="45.41560435071352" lon="11.450618104187301"><ele>112.0</ele><time>2026-04-26T09:19:08.998Z</time></trkpt><trkpt lat="45.4156862360043" lon="11.45059103182434"><ele>110.83333333333334</ele><time>2026-04-26T09:19:11.998Z</time></trkpt><trkpt lat="45.415747630140544" lon="11.450543547625692"><ele>109.66666666666667</ele><time>2026-04-26T09:19:14.998Z</time></trkpt><trkpt lat="45.41583116819912" lon="11.450505966082686"><ele>108.5</ele><time>2026-04-26T09:19:18.998Z</time></trkpt><trkpt lat="45.41589146955714" lon="11.450423340725413"><ele>107.33333333333334</ele><time>2026-04-26T09:19:22.998Z</time></trkpt><trkpt lat="45.41595378005093" lon="11.450401657016306"><ele>106.16666666666667</ele><time>2026-04-26T09:19:25.998Z</time></trkpt><trkpt lat="45.41601114192405" lon="11.450328986209762"><ele>105.0</ele><time>2026-04-26T09:19:27.998Z</time></trkpt><trkpt lat="45.41607408874694" lon="11.45027043461068"><ele>109.0</ele><time>2026-04-26T09:19:32.997Z</time></trkpt><trkpt lat="45.41615503942581" lon="11.450247529071047"><ele>113.0</ele><time>2026-04-26T09:19:35.997Z</time></trkpt><trkpt lat="45.41623590052511" lon="11.450203975569508"><ele>117.0</ele><time>2026-04-26T09:19:39.997Z</time></trkpt><trkpt lat="45.416303501834776" lon="11.450170742448089"><ele>121.0</ele><time>2026-04-26T09:19:44Z</time></trkpt><trkpt lat="45.416367672987825" lon="11.450118079960692"><ele>125.0</ele><time>2026-04-26T09:19:48Z</time></trkpt><trkpt lat="45.4164339393332" lon="11.450090085359722"><ele>129.0</ele><time>2026-04-26T09:19:52Z</time></trkpt><trkpt lat="45.416509048334866" lon="11.450068136946555"><ele>128.99999999999997</ele><time>2026-04-26T09:19:55Z</time></trkpt><trkpt lat="45.41657035055706" lon="11.450021319277532"><ele>129.0</ele><time>2026-04-26T09:20:00Z</time></trkpt><trkpt lat="45.41663453745985" lon="11.450008773438864"><ele>129.0</ele><time>2026-04-26T09:20:03Z</time></trkpt><trkpt lat="45.41670753121958" lon="11.449969736515909"><ele>129.0</ele><time>2026-04-26T09:20:07Z</time></trkpt><trkpt lat="45.41676839946425" lon="11.45001192073627"><ele>129.0</ele><time>2026-04-26T09:20:10Z</time></trkpt><trkpt lat="45.41684631046595" lon="11.45004302516985"><ele>128.99999999999997</ele><time>2026-04-26T09:20:15Z</time></trkpt><trkpt lat="45.416914402280156" lon="11.450089333028904"><ele>129.0</ele><time>2026-04-26T09:20:17.999Z</time></trkpt><trkpt lat="45.41697691074215" lon="11.450151413992097"><ele>128.99999999999997</ele><time>2026-04-26T09:20:21.999Z</time></trkpt><trkpt lat="45.417044194027575" lon="11.450163217088985"><ele>129.0</ele><time>2026-04-26T09:20:24.999Z</time></trkpt><trkpt lat="45.417114397970074" lon="11.450201753192475"><ele>129.0</ele><time>2026-04-26T09:20:28.999Z</time></trkpt><trkpt lat="45.417183569535815" lon="11.450255080176087"><ele>129.0</ele><time>2026-04-26T09:20:32.999Z</time></trkpt><trkpt lat="45.41724257950138" lon="11.450321674916864"><ele>129.0</ele><time>2026-04-26T09:20:35.999Z</time></trkpt><trkpt lat="45.41731259220427" lon="11.45037192947202"><ele>128.99999999999997</ele><time>2026-04-26T09:20:39.999Z</time></trkpt><trkpt lat="45.41737912838308" lon="11.450389074016341"><ele>129.0</ele><time>2026-04-26T09:20:42.999Z</time></trkpt><trkpt lat="45.41745997904821" lon="11.450415102717786"><ele>130.33333333333334</ele><time>2026-04-26T09:20:47.999Z</time></trkpt><trkpt lat="45.417529046137226" lon="11.450446053333726"><ele>131.66666666666666</ele><time>2026-04-26T09:20:51.999Z</time></trkpt><trkpt lat="45.417607373220754" lon="11.450430488164148"><ele>133.0</ele><time>2026-04-26T09:20:56.998Z</time></trkpt><trkpt lat="45.41767241034764" lon="11.4504190169565"><ele>134.33333333333331</ele><time>2026-04-26T09:20:59.998Z</time></trkpt><trkpt lat="45.417745451384974" lon="11.450370027513037"><ele>135.66666666666666</ele><time>2026-04-26T09:21:03.998Z</time></trkpt><trkpt lat="45.41782435350394" lon="11.450334927736966"><ele>137.0</ele><time>2026-04-26T09:21:07.998Z</time></trkpt><trkpt lat="45.41789857140693" lon="11.450302234206008"><ele>137.0</ele><time>2026-04-26T09:21:11.998Z</time></trkpt><trkpt lat="45.41796884776064" lon="11.450266060105816"><ele>137.0</ele><time>2026-04-26T09:21:14.998Z</time></trkpt><trkpt lat="45.41805058576562" lon="11.45028655270267"><ele>137.0</ele><time>2026-04-26T09:21:18.998Z</time></trkpt><trkpt lat="45.418133210816514" lon="11.450298823962266"><ele>137.0</ele><time>2026-04-26T09:21:22.998Z</time></trkpt><trkpt lat="45.41821960080493" lon="11.45031376484354"><ele>137.0</ele><time>2026-04-26T09:21:27.998Z</time></trkpt><trkpt lat="45.41827528635181" lon="11.450375615324798"><ele>137.0</ele><time>2026-04-26T09:21:29.998Z</time></trkpt><trkpt lat="45.41833730429802" lon="11.450402428005244"><ele>136.33333333333331</ele><time>2026-04-26T09:21:31.998Z</time></trkpt><trkpt lat="45.41840558556976" lon="11.450428995574491"><ele>135.66666666666666</ele><time>2026-04-26T09:21:34.998Z</time></trkpt><trkpt lat="45.41848797093604" lon="11.45050487718055"><ele>135.0</ele><time>2026-04-26T09:21:37.997Z</time></trkpt><trkpt lat="45.41859462938431" lon="11.450523985377576"><ele>134.33333333333334</ele><time>2026-04-26T09:21:40.997Z</time></trkpt><trkpt lat="45.41867458362776" lon="11.45056087144501"><ele>133.66666666666669</ele><time>2026-04-26T09:21:44.997Z</time></trkpt><trkpt lat="45.41873724495206" lon="11.450573344292884"><ele>133.0</ele><time>2026-04-26T09:21:47.997Z</time></trkpt><trkpt lat="45.41884520850882" lon="11.450584029248473"><ele>133.0</ele><time>2026-04-26T09:21:51Z</time></trkpt><trkpt lat="45.418941794154804" lon="11.450646391932946"><ele>133.0</ele><time>2026-04-26T09:21:55Z</time></trkpt><trkpt lat="45.419008773828836" lon="11.450638993791173"><ele>133.0</ele><time>2026-04-26T09:21:57Z</time></trkpt><trkpt lat="45.419073418690836" lon="11.450646137696168"><ele>133.0</ele><time>2026-04-26T09:22:00Z</time></trkpt><trkpt lat="45.41915197027218" lon="11.450614874151727"><ele>133.0</ele><time>2026-04-26T09:22:03Z</time></trkpt><trkpt lat="45.419257785598994" lon="11.450566745414546"><ele>133.0</ele><time>2026-04-26T09:22:06Z</time></trkpt><trkpt lat="45.41932820172604" lon="11.450495900538796"><ele>134.83333333333334</ele><time>2026-04-26T09:22:08Z</time></trkpt><trkpt lat="45.419386732098985" lon="11.450393763095853"><ele>136.66666666666669</ele><time>2026-04-26T09:22:11Z</time></trkpt><trkpt lat="45.41944035161696" lon="11.450313788851421"><ele>138.5</ele><time>2026-04-26T09:22:14Z</time></trkpt><trkpt lat="45.41947431590698" lon="11.450235346251809"><ele>140.33333333333334</ele><time>2026-04-26T09:22:16Z</time></trkpt><trkpt lat="45.419497959346636" lon="11.450147033448468"><ele>142.16666666666666</ele><time>2026-04-26T09:22:18Z</time></trkpt><trkpt lat="45.41954324712626" lon="11.450051387016378"><ele>144.0</ele><time>2026-04-26T09:22:21Z</time></trkpt><trkpt lat="45.41958234100793" lon="11.44993142903449"><ele>144.00000000000003</ele><time>2026-04-26T09:22:24Z</time></trkpt><trkpt lat="45.41960680888653" lon="11.449843143291238"><ele>144.0</ele><time>2026-04-26T09:22:26.999Z</time></trkpt><trkpt lat="45.41961722971664" lon="11.449727920276947"><ele>144.0</ele><time>2026-04-26T09:22:29.999Z</time></trkpt><trkpt lat="45.41965620246442" lon="11.44962551144567"><ele>144.0</ele><time>2026-04-26T09:22:32.999Z</time></trkpt><trkpt lat="45.419683983176704" lon="11.449537881271715"><ele>144.0</ele><time>2026-04-26T09:22:35.999Z</time></trkpt><trkpt lat="45.419714013898826" lon="11.449441549982577"><ele>144.00000000000003</ele><time>2026-04-26T09:22:39.999Z</time></trkpt><trkpt lat="45.41974085496692" lon="11.449356073834418"><ele>144.0</ele><time>2026-04-26T09:22:42.999Z</time></trkpt><trkpt lat="45.419774909107524" lon="11.449278522292609"><ele>145.16666666666666</ele><time>2026-04-26T09:22:45.999Z</time></trkpt><trkpt lat="45.41980970002905" lon="11.449180228023675"><ele>146.33333333333334</ele><time>2026-04-26T09:22:48.999Z</time></trkpt><trkpt lat="45.419841524615975" lon="11.449082422801975"><ele>147.5</ele><time>2026-04-26T09:22:51.999Z</time></trkpt><trkpt lat="45.41989042036105" lon="11.448991614950817"><ele>148.66666666666669</ele><time>2026-04-26T09:22:54.999Z</time></trkpt><trkpt lat="45.41995342921146" lon="11.448928667713579"><ele>149.83333333333334</ele><time>2026-04-26T09:22:57.999Z</time></trkpt><trkpt lat="45.42002822333493" lon="11.448877103674459"><ele>151.0</ele><time>2026-04-26T09:23:01.999Z</time></trkpt><trkpt lat="45.42008785181761" lon="11.448815881998373"><ele>151.0</ele><time>2026-04-26T09:23:05.998Z</time></trkpt><trkpt lat="45.42015964116856" lon="11.448808588046731"><ele>151.0</ele><time>2026-04-26T09:23:08.998Z</time></trkpt><trkpt lat="45.420222783824485" lon="11.448759056364493"><ele>151.0</ele><time>2026-04-26T09:23:10.998Z</time></trkpt><trkpt lat="45.420302582507624" lon="11.448705919698869"><ele>151.0</ele><time>2026-04-26T09:23:12.998Z</time></trkpt><trkpt lat="45.420382528918864" lon="11.44863704383007"><ele>151.0</ele><time>2026-04-26T09:23:15.998Z</time></trkpt><trkpt lat="45.42048326572017" lon="11.448547252016843"><ele>151.0</ele><time>2026-04-26T09:23:17.998Z</time></trkpt><trkpt lat="45.420582299721566" lon="11.448472598680018"><ele>151.0</ele><time>2026-04-26T09:23:19.998Z</time></trkpt><trkpt lat="45.420666921522" lon="11.448407486585163"><ele>151.0</ele><time>2026-04-26T09:23:21.998Z</time></trkpt><trkpt lat="45.42076494751933" lon="11.448329456423735"><ele>151.0</ele><time>2026-04-26T09:23:23.998Z</time></trkpt><trkpt lat="45.42087406229843" lon="11.448251763730065"><ele>151.0</ele><time>2026-04-26T09:23:25.998Z</time></trkpt><trkpt lat="45.420979404792135" lon="11.448183410491533"><ele>151.0</ele><time>2026-04-26T09:23:27.998Z</time></trkpt><trkpt lat="45.42103863962835" lon="11.448146346369528"><ele>151.0</ele><time>2026-04-26T09:23:28.998Z</time></trkpt><trkpt lat="45.42113696322447" lon="11.448084811535962"><ele>151.0</ele><time>2026-04-26T09:23:30.998Z</time></trkpt><trkpt lat="45.42123903667717" lon="11.448021496094468"><ele>151.0</ele><time>2026-04-26T09:23:32.998Z</time></trkpt><trkpt lat="45.4213390853539" lon="11.447967136636498"><ele>151.0</ele><time>2026-04-26T09:23:34.998Z</time></trkpt><trkpt lat="45.4214424112471" lon="11.447948220266225"><ele>151.0</ele><time>2026-04-26T09:23:36.998Z</time></trkpt><trkpt lat="45.42153693260411" lon="11.447969382613877"><ele>150.83333333333334</ele><time>2026-04-26T09:23:38.998Z</time></trkpt><trkpt lat="45.42161109801799" lon="11.448012436983237"><ele>150.66666666666669</ele><time>2026-04-26T09:23:40.998Z</time></trkpt><trkpt lat="45.42169210483452" lon="11.448058497950242"><ele>150.5</ele><time>2026-04-26T09:23:43.998Z</time></trkpt><trkpt lat="45.42177362949852" lon="11.448098049769794"><ele>150.33333333333334</ele><time>2026-04-26T09:23:46.997Z</time></trkpt><trkpt lat="45.421871788616805" lon="11.448123533724825"><ele>150.16666666666666</ele><time>2026-04-26T09:23:49.997Z</time></trkpt><trkpt lat="45.42194672536033" lon="11.448183236848694"><ele>150.0</ele><time>2026-04-26T09:23:52.997Z</time></trkpt><trkpt lat="45.4219997203468" lon="11.448233506414677"><ele>150.0</ele><time>2026-04-26T09:23:54.997Z</time></trkpt><trkpt lat="45.42204240818345" lon="11.448305594223628"><ele>150.0</ele><time>2026-04-26T09:23:59Z</time></trkpt><trkpt lat="45.422067481122845" lon="11.448399411956776"><ele>150.0</ele><time>2026-04-26T09:24:03Z</time></trkpt><trkpt lat="45.42211384330362" lon="11.448471448222763"><ele>150.0</ele><time>2026-04-26T09:24:07Z</time></trkpt><trkpt lat="45.422147154986035" lon="11.448578619724502"><ele>150.0</ele><time>2026-04-26T09:24:11Z</time></trkpt><trkpt lat="45.42214605832508" lon="11.448673711950196"><ele>150.0</ele><time>2026-04-26T09:24:14Z</time></trkpt><trkpt lat="45.42215344381898" lon="11.448815403176686"><ele>149.16666666666666</ele><time>2026-04-26T09:24:17Z</time></trkpt><trkpt lat="45.422145850849965" lon="11.448942340235194"><ele>148.33333333333334</ele><time>2026-04-26T09:24:20Z</time></trkpt><trkpt lat="45.42215108966871" lon="11.449047124372253"><ele>147.5</ele><time>2026-04-26T09:24:22Z</time></trkpt><trkpt lat="45.42214741428494" lon="11.449163556830458"><ele>146.66666666666669</ele><time>2026-04-26T09:24:24Z</time></trkpt><trkpt lat="45.42213424463854" lon="11.449259267894648"><ele>145.83333333333334</ele><time>2026-04-26T09:24:26Z</time></trkpt><trkpt lat="45.422132269341205" lon="11.449358573019847"><ele>145.0</ele><time>2026-04-26T09:24:27.999Z</time></trkpt><trkpt lat="45.42211916724771" lon="11.44947021446228"><ele>145.0</ele><time>2026-04-26T09:24:29.999Z</time></trkpt><trkpt lat="45.422111127007966" lon="11.449591037853427"><ele>145.0</ele><time>2026-04-26T09:24:31.999Z</time></trkpt><trkpt lat="45.422122931289756" lon="11.449721813956813"><ele>145.0</ele><time>2026-04-26T09:24:33.999Z</time></trkpt><trkpt lat="45.42213778497189" lon="11.449865212783829"><ele>145.0</ele><time>2026-04-26T09:24:35.999Z</time></trkpt><trkpt lat="45.422156566149596" lon="11.450022797500276"><ele>145.0</ele><time>2026-04-26T09:24:37.999Z</time></trkpt><trkpt lat="45.422210559862506" lon="11.450173991376507"><ele>147.25</ele><time>2026-04-26T09:24:39.999Z</time></trkpt><trkpt lat="45.42227534799423" lon="11.45032633383749"><ele>149.5</ele><time>2026-04-26T09:24:41.999Z</time></trkpt><trkpt lat="45.42234907718824" lon="11.450456444651635"><ele>151.75</ele><time>2026-04-26T09:24:43.999Z</time></trkpt><trkpt lat="45.42242505281352" lon="11.450580518723154"><ele>154.0</ele><time>2026-04-26T09:24:45.999Z</time></trkpt><trkpt lat="45.42249292832947" lon="11.4507031377302"><ele>154.0</ele><time>2026-04-26T09:24:47.999Z</time></trkpt><trkpt lat="45.42255591150921" lon="11.45080525843037"><ele>154.0</ele><time>2026-04-26T09:24:49.999Z</time></trkpt><trkpt lat="45.42261534546288" lon="11.450914211669105"><ele>154.0</ele><time>2026-04-26T09:24:51.999Z</time></trkpt><trkpt lat="45.42267650110774" lon="11.451015326610204"><ele>154.0</ele><time>2026-04-26T09:24:53.999Z</time></trkpt><trkpt lat="45.422751674041386" lon="11.451119276420453"><ele>154.0</ele><time>2026-04-26T09:24:55.999Z</time></trkpt><trkpt lat="45.4227927840661" lon="11.45118885509178"><ele>155.2</ele><time>2026-04-26T09:24:56.999Z</time></trkpt><trkpt lat="45.4228550282523" lon="11.451311168711154"><ele>156.4</ele><time>2026-04-26T09:24:58.999Z</time></trkpt><trkpt lat="45.42295993818011" lon="11.451387078860895"><ele>157.6</ele><time>2026-04-26T09:25:00.999Z</time></trkpt><trkpt lat="45.42305539663644" lon="11.45144989621588"><ele>158.8</ele><time>2026-04-26T09:25:02.999Z</time></trkpt><trkpt lat="45.42312067345802" lon="11.45149342501686"><ele>160.0</ele><time>2026-04-26T09:25:03.999Z</time></trkpt><trkpt lat="45.42323777040773" lon="11.451568453015787"><ele>160.0</ele><time>2026-04-26T09:25:05.999Z</time></trkpt><trkpt lat="45.423311226383795" lon="11.451629662345207"><ele>160.0</ele><time>2026-04-26T09:25:07.998Z</time></trkpt><trkpt lat="45.42338331297239" lon="11.451642574281626"><ele>160.0</ele><time>2026-04-26T09:25:09.998Z</time></trkpt><trkpt lat="45.4234747567091" lon="11.451688222904364"><ele>160.0</ele><time>2026-04-26T09:25:11.998Z</time></trkpt><trkpt lat="45.42356327887637" lon="11.451738019003933"><ele>160.0</ele><time>2026-04-26T09:25:14.998Z</time></trkpt><trkpt lat="45.42363524490183" lon="11.451768838783769"><ele>160.0</ele><time>2026-04-26T09:25:17.998Z</time></trkpt><trkpt lat="45.42371883456519" lon="11.451817186004106"><ele>160.0</ele><time>2026-04-26T09:25:20.998Z</time></trkpt><trkpt lat="45.4238035026723" lon="11.451829270802735"><ele>160.0</ele><time>2026-04-26T09:25:25.998Z</time></trkpt><trkpt lat="45.42386388083848" lon="11.451878427500086"><ele>160.0</ele><time>2026-04-26T09:25:28.998Z</time></trkpt><trkpt lat="45.423932847313885" lon="11.451894395243416"><ele>160.0</ele><time>2026-04-26T09:25:31.998Z</time></trkpt><trkpt lat="45.42401831960236" lon="11.451953678435025"><ele>160.0</ele><time>2026-04-26T09:25:33.998Z</time></trkpt><trkpt lat="45.42409570456639" lon="11.452023834525411"><ele>160.0</ele><time>2026-04-26T09:25:35.998Z</time></trkpt><trkpt lat="45.424145118572966" lon="11.452087509981403"><ele>161.33333333333334</ele><time>2026-04-26T09:25:37.998Z</time></trkpt><trkpt lat="45.4242129847103" lon="11.452098612396167"><ele>162.66666666666669</ele><time>2026-04-26T09:25:39.998Z</time></trkpt><trkpt lat="45.424293577011404" lon="11.452155408619427"><ele>164.0</ele><time>2026-04-26T09:25:41.998Z</time></trkpt><trkpt lat="45.424369092354404" lon="11.452187209766898"><ele>165.33333333333334</ele><time>2026-04-26T09:25:43.998Z</time></trkpt><trkpt lat="45.42444987795553" lon="11.452248820935003"><ele>166.66666666666666</ele><time>2026-04-26T09:25:45.998Z</time></trkpt><trkpt lat="45.42452685536362" lon="11.452299538267873"><ele>168.0</ele><time>2026-04-26T09:25:47.998Z</time></trkpt><trkpt lat="45.42459483008188" lon="11.452371785834817"><ele>168.0</ele><time>2026-04-26T09:25:50.997Z</time></trkpt><trkpt lat="45.42462650868283" lon="11.452463732600778"><ele>168.0</ele><time>2026-04-26T09:25:52.997Z</time></trkpt><trkpt lat="45.42461478938442" lon="11.452567179025758"><ele>168.0</ele><time>2026-04-26T09:25:55.997Z</time></trkpt><trkpt lat="45.424565500919215" lon="11.45263465745398"><ele>168.0</ele><time>2026-04-26T09:25:57.997Z</time></trkpt><trkpt lat="45.42449495712374" lon="11.452674297522968"><ele>168.0</ele><time>2026-04-26T09:26:00.997Z</time></trkpt><trkpt lat="45.424421526222844" lon="11.452669903238142"><ele>168.0</ele><time>2026-04-26T09:26:04Z</time></trkpt><trkpt lat="45.424349033397256" lon="11.452675835025643"><ele>168.0</ele><time>2026-04-26T09:26:07Z</time></trkpt><trkpt lat="45.424272398242614" lon="11.452653007441269"><ele>168.0</ele><time>2026-04-26T09:26:10Z</time></trkpt><trkpt lat="45.424191867219825" lon="11.452638893339069"><ele>168.0</ele><time>2026-04-26T09:26:13Z</time></trkpt><trkpt lat="45.42412039292415" lon="11.452654066769155"><ele>168.0</ele><time>2026-04-26T09:26:16Z</time></trkpt><trkpt lat="45.4240437887068" lon="11.45264797478921"><ele>168.0</ele><time>2026-04-26T09:26:19Z</time></trkpt><trkpt lat="45.42397497878146" lon="11.452652457236438"><ele>168.0</ele><time>2026-04-26T09:26:22Z</time></trkpt><trkpt lat="45.42390389890188" lon="11.452624910689329"><ele>168.0</ele><time>2026-04-26T09:26:26Z</time></trkpt><trkpt lat="45.423830055671026" lon="11.452625004271377"><ele>168.0</ele><time>2026-04-26T09:26:29Z</time></trkpt><trkpt lat="45.42375578395574" lon="11.452624388516664"><ele>168.5</ele><time>2026-04-26T09:26:32Z</time></trkpt><trkpt lat="45.42367631181077" lon="11.452675696971298"><ele>169.0</ele><time>2026-04-26T09:26:34.999Z</time></trkpt><trkpt lat="45.42360603541047" lon="11.452745049408431"><ele>169.5</ele><time>2026-04-26T09:26:37.999Z</time></trkpt><trkpt lat="45.42353904996596" lon="11.452792243606819"><ele>170.0</ele><time>2026-04-26T09:26:40.999Z</time></trkpt><trkpt lat="45.42346618924665" lon="11.452827027353297"><ele>170.5</ele><time>2026-04-26T09:26:42.999Z</time></trkpt><trkpt lat="45.42339956173673" lon="11.452845852758069"><ele>171.0</ele><time>2026-04-26T09:26:44.999Z</time></trkpt><trkpt lat="45.42332421230334" lon="11.452909697291279"><ele>171.0</ele><time>2026-04-26T09:26:47.999Z</time></trkpt><trkpt lat="45.42323830064539" lon="11.452945543175233"><ele>171.0</ele><time>2026-04-26T09:26:50.999Z</time></trkpt><trkpt lat="45.42317969137695" lon="11.452978360279937"><ele>171.0</ele><time>2026-04-26T09:26:52.999Z</time></trkpt><trkpt lat="45.42314159820982" lon="11.453065137485885"><ele>171.0</ele><time>2026-04-26T09:26:54.999Z</time></trkpt><trkpt lat="45.42311854359418" lon="11.453191639142757"><ele>171.0</ele><time>2026-04-26T09:26:57.999Z</time></trkpt><trkpt lat="45.42318754430579" lon="11.453318123602536"><ele>171.0</ele><time>2026-04-26T09:27:00.999Z</time></trkpt><trkpt lat="45.42322833650312" lon="11.453399181907459"><ele>170.5</ele><time>2026-04-26T09:27:02.999Z</time></trkpt><trkpt lat="45.42327621746975" lon="11.453522784363129"><ele>170.0</ele><time>2026-04-26T09:27:05.999Z</time></trkpt><trkpt lat="45.423342090552055" lon="11.453626410115778"><ele>169.5</ele><time>2026-04-26T09:27:07.999Z</time></trkpt><trkpt lat="45.42339646469061" lon="11.453764422684921"><ele>169.0</ele><time>2026-04-26T09:27:09.999Z</time></trkpt><trkpt lat="45.423405709132616" lon="11.453857039567092"><ele>168.5</ele><time>2026-04-26T09:27:10.999Z</time></trkpt><trkpt lat="45.423417104606756" lon="11.4539495898854"><ele>168.0</ele><time>2026-04-26T09:27:11.999Z</time></trkpt><trkpt lat="45.42343548154792" lon="11.454044663140444"><ele>168.0</ele><time>2026-04-26T09:27:12.999Z</time></trkpt><trkpt lat="45.42347209918729" lon="11.4541434466773"><ele>168.0</ele><time>2026-04-26T09:27:13.999Z</time></trkpt><trkpt lat="45.42350934824522" lon="11.454309981160474"><ele>168.0</ele><time>2026-04-26T09:27:15.999Z</time></trkpt><trkpt lat="45.42358254646811" lon="11.45445005446462"><ele>168.0</ele><time>2026-04-26T09:27:17.998Z</time></trkpt><trkpt lat="45.423604422144" lon="11.454552850936906"><ele>168.0</ele><time>2026-04-26T09:27:18.998Z</time></trkpt><trkpt lat="45.42362993104574" lon="11.454650357478057"><ele>165.83333333333334</ele><time>2026-04-26T09:27:19.998Z</time></trkpt><trkpt lat="45.42366614761594" lon="11.454744899774004"><ele>163.66666666666666</ele><time>2026-04-26T09:27:20.998Z</time></trkpt><trkpt lat="45.423683964742054" lon="11.454846449671804"><ele>161.5</ele><time>2026-04-26T09:27:21.998Z</time></trkpt><trkpt lat="45.423691030300795" lon="11.45495502597393"><ele>159.33333333333331</ele><time>2026-04-26T09:27:22.998Z</time></trkpt><trkpt lat="45.423717575988796" lon="11.455053081748728"><ele>157.16666666666666</ele><time>2026-04-26T09:27:23.998Z</time></trkpt><trkpt lat="45.423742350436534" lon="11.455151970163335"><ele>155.0</ele><time>2026-04-26T09:27:24.998Z</time></trkpt><trkpt lat="45.42378487292345" lon="11.455264370275302"><ele>155.0</ele><time>2026-04-26T09:27:25.998Z</time></trkpt><trkpt lat="45.42379944330782" lon="11.455385887775419"><ele>155.0</ele><time>2026-04-26T09:27:26.998Z</time></trkpt><trkpt lat="45.42382887794799" lon="11.455509159483903"><ele>155.0</ele><time>2026-04-26T09:27:27.998Z</time></trkpt><trkpt lat="45.42385953943878" lon="11.45563134758023"><ele>155.0</ele><time>2026-04-26T09:27:28.998Z</time></trkpt><trkpt lat="45.423878184541984" lon="11.455757899113992"><ele>155.0</ele><time>2026-04-26T09:27:29.998Z</time></trkpt><trkpt lat="45.423910683219916" lon="11.455861498387453"><ele>155.0</ele><time>2026-04-26T09:27:30.998Z</time></trkpt><trkpt lat="45.42394477567018" lon="11.455961909186772"><ele>154.33333333333331</ele><time>2026-04-26T09:27:31.998Z</time></trkpt><trkpt lat="45.42399810812956" lon="11.456051220810778"><ele>153.66666666666666</ele><time>2026-04-26T09:27:32.998Z</time></trkpt><trkpt lat="45.424038251695535" lon="11.456145904898829"><ele>153.0</ele><time>2026-04-26T09:27:33.998Z</time></trkpt><trkpt lat="45.424073644961396" lon="11.456242566324041"><ele>152.33333333333334</ele><time>2026-04-26T09:27:35.998Z</time></trkpt><trkpt lat="45.42396021279999" lon="11.456354341630908"><ele>151.66666666666669</ele><time>2026-04-26T09:27:38.998Z</time></trkpt><trkpt lat="45.42389554203086" lon="11.456305101935893"><ele>151.0</ele><time>2026-04-26T09:27:39.998Z</time></trkpt><trkpt lat="45.42383094268517" lon="11.456246902645965"><ele>150.4</ele><time>2026-04-26T09:27:40.998Z</time></trkpt><trkpt lat="45.42375762061552" lon="11.456180018081568"><ele>149.8</ele><time>2026-04-26T09:27:41.998Z</time></trkpt><trkpt lat="45.42367486032194" lon="11.456136469515718"><ele>149.20000000000002</ele><time>2026-04-26T09:27:42.998Z</time></trkpt><trkpt lat="45.42358989390015" lon="11.456095703294631"><ele>148.6</ele><time>2026-04-26T09:27:43.998Z</time></trkpt><trkpt lat="45.423506511141795" lon="11.45607299862779"><ele>148.0</ele><time>2026-04-26T09:27:44.998Z</time></trkpt><trkpt lat="45.423407524934795" lon="11.456115677034179"><ele>148.0</ele><time>2026-04-26T09:27:45.998Z</time></trkpt><trkpt lat="45.42331162201194" lon="11.456193104251295"><ele>148.0</ele><time>2026-04-26T09:27:46.998Z</time></trkpt><trkpt lat="45.42321594671675" lon="11.456260109768232"><ele>148.0</ele><time>2026-04-26T09:27:47.998Z</time></trkpt><trkpt lat="45.42311168778914" lon="11.456280376193734"><ele>148.0</ele><time>2026-04-26T09:27:48.998Z</time></trkpt><trkpt lat="45.4230060801826" lon="11.456305066779137"><ele>148.0</ele><time>2026-04-26T09:27:49.998Z</time></trkpt><trkpt lat="45.42290590845253" lon="11.456304392730013"><ele>143.6</ele><time>2026-04-26T09:27:50.998Z</time></trkpt><trkpt lat="45.422799459610076" lon="11.456331931634196"><ele>139.20000000000002</ele><time>2026-04-26T09:27:51.998Z</time></trkpt><trkpt lat="45.42269832574847" lon="11.456348295235802"><ele>134.8</ele><time>2026-04-26T09:27:52.998Z</time></trkpt><trkpt lat="45.422590779991914" lon="11.456343038099162"><ele>130.4</ele><time>2026-04-26T09:27:53.998Z</time></trkpt><trkpt lat="45.42251213249522" lon="11.456361408577658"><ele>126.0</ele><time>2026-04-26T09:27:54.998Z</time></trkpt><trkpt lat="45.42243695724736" lon="11.456369857294554"><ele>126.0</ele><time>2026-04-26T09:27:55.998Z</time></trkpt><trkpt lat="45.422372419692884" lon="11.456408963953535"><ele>126.0</ele><time>2026-04-26T09:27:56.998Z</time></trkpt><trkpt lat="45.422278962902226" lon="11.45652835811809"><ele>126.0</ele><time>2026-04-26T09:27:58.997Z</time></trkpt><trkpt lat="45.42226187805186" lon="11.4566354236739"><ele>126.0</ele><time>2026-04-26T09:27:59.997Z</time></trkpt><trkpt lat="45.42228493424604" lon="11.456761665356318"><ele>126.0</ele><time>2026-04-26T09:28:00.997Z</time></trkpt><trkpt lat="45.42229793748406" lon="11.456875089247024"><ele>126.0</ele><time>2026-04-26T09:28:01.997Z</time></trkpt><trkpt lat="45.42236005529654" lon="11.45697359558222"><ele>126.0</ele><time>2026-04-26T09:28:02.997Z</time></trkpt><trkpt lat="45.42242060823798" lon="11.45705617815603"><ele>126.0</ele><time>2026-04-26T09:28:03.997Z</time></trkpt><trkpt lat="45.42250803287348" lon="11.457147252831174"><ele>126.0</ele><time>2026-04-26T09:28:04.997Z</time></trkpt><trkpt lat="45.42260746930171" lon="11.457201690846045"><ele>126.0</ele><time>2026-04-26T09:28:05.997Z</time></trkpt><trkpt lat="45.42274293276327" lon="11.457240790553024"><ele>126.0</ele><time>2026-04-26T09:28:06.997Z</time></trkpt><trkpt lat="45.42286085236057" lon="11.457302142471125"><ele>124.5</ele><time>2026-04-26T09:28:08Z</time></trkpt><trkpt lat="45.42296206925036" lon="11.457388083034727"><ele>123.0</ele><time>2026-04-26T09:28:09Z</time></trkpt><trkpt lat="45.42306085599125" lon="11.457464137050595"><ele>121.5</ele><time>2026-04-26T09:28:10Z</time></trkpt><trkpt lat="45.42315095502569" lon="11.457581227149475"><ele>120.0</ele><time>2026-04-26T09:28:11Z</time></trkpt><trkpt lat="45.42323706428225" lon="11.457711586278519"><ele>120.0</ele><time>2026-04-26T09:28:12Z</time></trkpt><trkpt lat="45.42332969187461" lon="11.45783955487209"><ele>120.0</ele><time>2026-04-26T09:28:13Z</time></trkpt><trkpt lat="45.42341679408818" lon="11.457969768061277"><ele>120.0</ele><time>2026-04-26T09:28:14Z</time></trkpt><trkpt lat="45.42350697715184" lon="11.458098454205963"><ele>120.0</ele><time>2026-04-26T09:28:15Z</time></trkpt><trkpt lat="45.42359122230847" lon="11.458219841711612"><ele>116.5</ele><time>2026-04-26T09:28:16Z</time></trkpt><trkpt lat="45.42366210476614" lon="11.458349947844349"><ele>113.0</ele><time>2026-04-26T09:28:17Z</time></trkpt><trkpt lat="45.42369868111609" lon="11.4585118135015"><ele>109.5</ele><time>2026-04-26T09:28:18Z</time></trkpt><trkpt lat="45.423681583588056" lon="11.45870804238224"><ele>106.0</ele><time>2026-04-26T09:28:19Z</time></trkpt><trkpt lat="45.42366852682278" lon="11.458850872081202"><ele>104.4</ele><time>2026-04-26T09:28:20Z</time></trkpt><trkpt lat="45.423655275483085" lon="11.458989549886876"><ele>102.8</ele><time>2026-04-26T09:28:21Z</time></trkpt><trkpt lat="45.4236594547762" lon="11.459125810878446"><ele>101.2</ele><time>2026-04-26T09:28:22Z</time></trkpt><trkpt lat="45.42363479526882" lon="11.459255932031631"><ele>99.60000000000001</ele><time>2026-04-26T09:28:23Z</time></trkpt><trkpt lat="45.42361378768695" lon="11.459380029418725"><ele>98.0</ele><time>2026-04-26T09:28:24Z</time></trkpt><trkpt lat="45.42359321405404" lon="11.459507730965443"><ele>98.49999999999999</ele><time>2026-04-26T09:28:25Z</time></trkpt><trkpt lat="45.423564513085076" lon="11.459628243063102"><ele>99.0</ele><time>2026-04-26T09:28:26Z</time></trkpt><trkpt lat="45.42354995576124" lon="11.459753600015224"><ele>99.5</ele><time>2026-04-26T09:28:27Z</time></trkpt><trkpt lat="45.4235201062433" lon="11.459862759422052"><ele>100.0</ele><time>2026-04-26T09:28:28Z</time></trkpt><trkpt lat="45.423484530456854" lon="11.459969413929604"><ele>100.49999999999999</ele><time>2026-04-26T09:28:29Z</time></trkpt><trkpt lat="45.4234606296614" lon="11.46007386589497"><ele>101.0</ele><time>2026-04-26T09:28:30Z</time></trkpt><trkpt lat="45.42344023685711" lon="11.46017090451384"><ele>101.0</ele><time>2026-04-26T09:28:31Z</time></trkpt><trkpt lat="45.42343178651122" lon="11.460269001443994"><ele>101.0</ele><time>2026-04-26T09:28:32Z</time></trkpt><trkpt lat="45.423418705478674" lon="11.460368536099091"><ele>101.0</ele><time>2026-04-26T09:28:33Z</time></trkpt><trkpt lat="45.42341437705334" lon="11.4604690693874"><ele>101.0</ele><time>2026-04-26T09:28:34Z</time></trkpt><trkpt lat="45.42342388876906" lon="11.460570343832366"><ele>101.0</ele><time>2026-04-26T09:28:35Z</time></trkpt><trkpt lat="45.423431588157" lon="11.460672633021765"><ele>101.0</ele><time>2026-04-26T09:28:36Z</time></trkpt><trkpt lat="45.423460172521374" lon="11.460771436198591"><ele>101.0</ele><time>2026-04-26T09:28:37Z</time></trkpt><trkpt lat="45.4234972935664" lon="11.460873966775123"><ele>101.0</ele><time>2026-04-26T09:28:38Z</time></trkpt><trkpt lat="45.42353789081601" lon="11.460972986646032"><ele>101.0</ele><time>2026-04-26T09:28:39Z</time></trkpt><trkpt lat="45.42358348017681" lon="11.461081722700845"><ele>101.0</ele><time>2026-04-26T09:28:39.999Z</time></trkpt><trkpt lat="45.423630671888354" lon="11.461194280614556"><ele>101.0</ele><time>2026-04-26T09:28:40.999Z</time></trkpt><trkpt lat="45.4236794199341" lon="11.461310550599798"><ele>101.0</ele><time>2026-04-26T09:28:41.999Z</time></trkpt><trkpt lat="45.42372766587344" lon="11.461425622850895"><ele>101.33333333333333</ele><time>2026-04-26T09:28:42.999Z</time></trkpt><trkpt lat="45.42377238133765" lon="11.461536167552316"><ele>101.66666666666666</ele><time>2026-04-26T09:28:43.999Z</time></trkpt><trkpt lat="45.42381657348077" lon="11.461647968374999"><ele>102.0</ele><time>2026-04-26T09:28:44.999Z</time></trkpt><trkpt lat="45.42385489511307" lon="11.46176155877634"><ele>102.33333333333334</ele><time>2026-04-26T09:28:45.999Z</time></trkpt><trkpt lat="45.42388528674118" lon="11.461869629499278"><ele>102.66666666666667</ele><time>2026-04-26T09:28:46.999Z</time></trkpt><trkpt lat="45.4239450615606" lon="11.461937771844847"><ele>103.0</ele><time>2026-04-26T09:28:47.999Z</time></trkpt><trkpt lat="45.423999692546" lon="11.46201992652845"><ele>103.00000000000001</ele><time>2026-04-26T09:28:48.999Z</time></trkpt><trkpt lat="45.42407968418844" lon="11.462059046951937"><ele>103.0</ele><time>2026-04-26T09:28:49.999Z</time></trkpt><trkpt lat="45.42414192393386" lon="11.462117565742643"><ele>103.0</ele><time>2026-04-26T09:28:50.999Z</time></trkpt><trkpt lat="45.42419572446997" lon="11.462201967117098"><ele>103.0</ele><time>2026-04-26T09:28:51.999Z</time></trkpt><trkpt lat="45.42423402023889" lon="11.462275334577996"><ele>103.00000000000001</ele><time>2026-04-26T09:28:52.999Z</time></trkpt><trkpt lat="45.42428268709605" lon="11.462410247806485"><ele>103.0</ele><time>2026-04-26T09:28:54.999Z</time></trkpt><trkpt lat="45.42433245752052" lon="11.462537580517113"><ele>101.80000000000001</ele><time>2026-04-26T09:28:56.999Z</time></trkpt><trkpt lat="45.4243630617913" lon="11.462653524598583"><ele>100.6</ele><time>2026-04-26T09:28:58.999Z</time></trkpt><trkpt lat="45.424387878109506" lon="11.46276478049832"><ele>99.4</ele><time>2026-04-26T09:29:00.999Z</time></trkpt><trkpt lat="45.42441767949658" lon="11.462891177715115"><ele>98.19999999999999</ele><time>2026-04-26T09:29:02.999Z</time></trkpt><trkpt lat="45.42442972538994" lon="11.463000759358263"><ele>97.0</ele><time>2026-04-26T09:29:03.999Z</time></trkpt><trkpt lat="45.42443588110511" lon="11.463174972387748"><ele>96.50000000000001</ele><time>2026-04-26T09:29:05.999Z</time></trkpt><trkpt lat="45.42444053019588" lon="11.463273198282756"><ele>96.0</ele><time>2026-04-26T09:29:07.999Z</time></trkpt><trkpt lat="45.42445364644888" lon="11.463408212700777"><ele>95.5</ele><time>2026-04-26T09:29:10.999Z</time></trkpt><trkpt lat="45.42444795717696" lon="11.46355911846284"><ele>95.0</ele><time>2026-04-26T09:29:12.999Z</time></trkpt><trkpt lat="45.424451922292725" lon="11.463650150703295"><ele>94.5</ele><time>2026-04-26T09:29:14.999Z</time></trkpt><trkpt lat="45.424423850095806" lon="11.46375928813139"><ele>94.0</ele><time>2026-04-26T09:29:16.999Z</time></trkpt><trkpt lat="45.42445938846446" lon="11.463850317199118"><ele>93.66666666666666</ele><time>2026-04-26T09:29:18.999Z</time></trkpt><trkpt lat="45.42447520970527" lon="11.463956916351965"><ele>93.33333333333333</ele><time>2026-04-26T09:29:21.998Z</time></trkpt><trkpt lat="45.42447825969989" lon="11.46408041860525"><ele>93.0</ele><time>2026-04-26T09:29:24.998Z</time></trkpt><trkpt lat="45.424495108013595" lon="11.46417896403463"><ele>92.66666666666667</ele><time>2026-04-26T09:29:26.998Z</time></trkpt><trkpt lat="45.42447228331871" lon="11.464280460744101"><ele>92.33333333333334</ele><time>2026-04-26T09:29:28.998Z</time></trkpt><trkpt lat="45.42446396412216" lon="11.464416868920082"><ele>92.0</ele><time>2026-04-26T09:29:31.998Z</time></trkpt><trkpt lat="45.42447327468264" lon="11.464508033735035"><ele>92.66666666666667</ele><time>2026-04-26T09:29:33.998Z</time></trkpt><trkpt lat="45.424474266524896" lon="11.46462432103625"><ele>93.33333333333334</ele><time>2026-04-26T09:29:36.998Z</time></trkpt><trkpt lat="45.424447698853506" lon="11.464737191197031"><ele>94.0</ele><time>2026-04-26T09:29:39.998Z</time></trkpt><trkpt lat="45.42442265254184" lon="11.464831505959305"><ele>94.66666666666667</ele><time>2026-04-26T09:29:41.998Z</time></trkpt><trkpt lat="45.42440363908921" lon="11.46493619714718"><ele>95.33333333333333</ele><time>2026-04-26T09:29:43.998Z</time></trkpt><trkpt lat="45.424388299831236" lon="11.465040339470715"><ele>96.0</ele><time>2026-04-26T09:29:45.998Z</time></trkpt><trkpt lat="45.424376075943265" lon="11.465181224551046"><ele>95.99999999999999</ele><time>2026-04-26T09:29:48.998Z</time></trkpt><trkpt lat="45.42438168965302" lon="11.465274838979967"><ele>96.0</ele><time>2026-04-26T09:29:50.998Z</time></trkpt><trkpt lat="45.42433716294582" lon="11.465377034724495"><ele>96.0</ele><time>2026-04-26T09:29:52.998Z</time></trkpt><trkpt lat="45.424334175866335" lon="11.46548557679708"><ele>96.0</ele><time>2026-04-26T09:29:54.998Z</time></trkpt><trkpt lat="45.42431514576484" lon="11.465575323873049"><ele>96.0</ele><time>2026-04-26T09:29:56.998Z</time></trkpt><trkpt lat="45.424262943226" lon="11.465661271098675"><ele>95.99999999999999</ele><time>2026-04-26T09:29:58.998Z</time></trkpt><trkpt lat="45.42426217946097" lon="11.465755871558857"><ele>96.0</ele><time>2026-04-26T09:30:00.998Z</time></trkpt><trkpt lat="45.42421421830329" lon="11.46581770044616"><ele>97.83333333333333</ele><time>2026-04-26T09:30:02.997Z</time></trkpt><trkpt lat="45.424168635312675" lon="11.46591597682442"><ele>99.66666666666666</ele><time>2026-04-26T09:30:05.997Z</time></trkpt><trkpt lat="45.424165920739824" lon="11.466043134409125"><ele>101.5</ele><time>2026-04-26T09:30:07.997Z</time></trkpt><trkpt lat="45.4241458329317" lon="11.466134183841678"><ele>103.33333333333333</ele><time>2026-04-26T09:30:09.997Z</time></trkpt><trkpt lat="45.42413853635109" lon="11.466233139046865"><ele>105.16666666666666</ele><time>2026-04-26T09:30:11.997Z</time></trkpt><trkpt lat="45.42413771803489" lon="11.466339470144984"><ele>107.0</ele><time>2026-04-26T09:30:14Z</time></trkpt><trkpt lat="45.424120125649615" lon="11.466460152583103"><ele>108.83333333333333</ele><time>2026-04-26T09:30:17Z</time></trkpt><trkpt lat="45.424093591048056" lon="11.466570586548347"><ele>110.66666666666666</ele><time>2026-04-26T09:30:20Z</time></trkpt><trkpt lat="45.424084693181065" lon="11.466682824920428"><ele>112.5</ele><time>2026-04-26T09:30:23Z</time></trkpt><trkpt lat="45.42407497737509" lon="11.46678065345723"><ele>114.33333333333334</ele><time>2026-04-26T09:30:25Z</time></trkpt><trkpt lat="45.42408910314883" lon="11.466892262234264"><ele>116.16666666666667</ele><time>2026-04-26T09:30:27Z</time></trkpt><trkpt lat="45.424090635257706" lon="11.466990401388367"><ele>118.0</ele><time>2026-04-26T09:30:29Z</time></trkpt><trkpt lat="45.42411600961208" lon="11.46709115289359"><ele>117.0</ele><time>2026-04-26T09:30:31Z</time></trkpt><trkpt lat="45.42417414772204" lon="11.46719176521823"><ele>116.00000000000001</ele><time>2026-04-26T09:30:33Z</time></trkpt><trkpt lat="45.42418144110414" lon="11.467381143111236"><ele>115.00000000000001</ele><time>2026-04-26T09:30:35Z</time></trkpt><trkpt lat="45.42418150890088" lon="11.467533542002116"><ele>114.0</ele><time>2026-04-26T09:30:37Z</time></trkpt><trkpt lat="45.424203547482165" lon="11.467625629508335"><ele>113.0</ele><time>2026-04-26T09:30:39Z</time></trkpt><trkpt lat="45.42423162510704" lon="11.467712957490486"><ele>112.99999999999999</ele><time>2026-04-26T09:30:41Z</time></trkpt><trkpt lat="45.42426563130215" lon="11.467803728804817"><ele>113.0</ele><time>2026-04-26T09:30:43Z</time></trkpt><trkpt lat="45.42433957170055" lon="11.467904653850013"><ele>113.0</ele><time>2026-04-26T09:30:45Z</time></trkpt><trkpt lat="45.424436913849334" lon="11.467940012784716"><ele>113.0</ele><time>2026-04-26T09:30:46.999Z</time></trkpt><trkpt lat="45.42449822785778" lon="11.468015853106102"><ele>112.99999999999999</ele><time>2026-04-26T09:30:48.999Z</time></trkpt><trkpt lat="45.42457237985459" lon="11.46803960864977"><ele>113.0</ele><time>2026-04-26T09:30:50.999Z</time></trkpt><trkpt lat="45.42465342834537" lon="11.468054619506207"><ele>112.99999999999999</ele><time>2026-04-26T09:30:52.999Z</time></trkpt><trkpt lat="45.42473823704416" lon="11.468060843901513"><ele>113.0</ele><time>2026-04-26T09:30:54.999Z</time></trkpt><trkpt lat="45.424830433694545" lon="11.4680683250083"><ele>113.0</ele><time>2026-04-26T09:30:56.999Z</time></trkpt><trkpt lat="45.424927265527664" lon="11.468101154146499"><ele>113.0</ele><time>2026-04-26T09:30:58.999Z</time></trkpt><trkpt lat="45.42501140921949" lon="11.468122658461041"><ele>112.99999999999999</ele><time>2026-04-26T09:31:00.999Z</time></trkpt><trkpt lat="45.4250938903621" lon="11.468143623750308"><ele>113.0</ele><time>2026-04-26T09:31:02.999Z</time></trkpt><trkpt lat="45.42518396717574" lon="11.468150636186941"><ele>113.0</ele><time>2026-04-26T09:31:05.999Z</time></trkpt><trkpt lat="45.425277637190575" lon="11.468184089245751"><ele>113.00000000000001</ele><time>2026-04-26T09:31:08.999Z</time></trkpt><trkpt lat="45.425380122107015" lon="11.468122384234073"><ele>113.00000000000001</ele><time>2026-04-26T09:31:10.999Z</time></trkpt><trkpt lat="45.42547167984013" lon="11.468107114186488"><ele>113.0</ele><time>2026-04-26T09:31:12.999Z</time></trkpt><trkpt lat="45.42553595682717" lon="11.468106226169713"><ele>113.0</ele><time>2026-04-26T09:31:13.999Z</time></trkpt><trkpt lat="45.4256319365845" lon="11.468111059620789"><ele>113.99999999999999</ele><time>2026-04-26T09:31:15.999Z</time></trkpt><trkpt lat="45.4256728650144" lon="11.468188359412368"><ele>115.0</ele><time>2026-04-26T09:31:16.999Z</time></trkpt><trkpt lat="45.425740425555944" lon="11.468190373352837"><ele>116.0</ele><time>2026-04-26T09:31:18.999Z</time></trkpt><trkpt lat="45.425833504231754" lon="11.468187232350699"><ele>117.0</ele><time>2026-04-26T09:31:21.999Z</time></trkpt><trkpt lat="45.42592822546729" lon="11.468204080245544"><ele>117.99999999999999</ele><time>2026-04-26T09:31:23.999Z</time></trkpt><trkpt lat="45.426027979866134" lon="11.468217839184986"><ele>119.0</ele><time>2026-04-26T09:31:25.999Z</time></trkpt><trkpt lat="45.42611552236105" lon="11.468237516530236"><ele>119.0</ele><time>2026-04-26T09:31:27.998Z</time></trkpt><trkpt lat="45.4261784194933" lon="11.468255722214577"><ele>119.0</ele><time>2026-04-26T09:31:28.998Z</time></trkpt><trkpt lat="45.42624481239093" lon="11.468279334479107"><ele>119.0</ele><time>2026-04-26T09:31:30.998Z</time></trkpt><trkpt lat="45.42630784002767" lon="11.468297062917207"><ele>119.0</ele><time>2026-04-26T09:31:32.998Z</time></trkpt><trkpt lat="45.426382575937765" lon="11.468337367066205"><ele>119.0</ele><time>2026-04-26T09:31:34.998Z</time></trkpt><trkpt lat="45.426436195128346" lon="11.468392274482676"><ele>119.0</ele><time>2026-04-26T09:31:35.998Z</time></trkpt><trkpt lat="45.426518175663674" lon="11.46845621917751"><ele>119.0</ele><time>2026-04-26T09:31:37.998Z</time></trkpt><trkpt lat="45.42659618386209" lon="11.468556679848946"><ele>121.66666666666666</ele><time>2026-04-26T09:31:39.998Z</time></trkpt><trkpt lat="45.42666579493506" lon="11.468611824712015"><ele>124.33333333333333</ele><time>2026-04-26T09:31:41.998Z</time></trkpt><trkpt lat="45.42675911322482" lon="11.468665657231048"><ele>127.0</ele><time>2026-04-26T09:31:43.998Z</time></trkpt><trkpt lat="45.42682156504673" lon="11.468729212210457"><ele>129.66666666666666</ele><time>2026-04-26T09:31:45.998Z</time></trkpt><trkpt lat="45.426879194515486" lon="11.46878969561222"><ele>132.33333333333334</ele><time>2026-04-26T09:31:47.998Z</time></trkpt><trkpt lat="45.42694852386821" lon="11.468805156401434"><ele>135.0</ele><time>2026-04-26T09:31:50.998Z</time></trkpt><trkpt lat="45.42703772659605" lon="11.468852497984033"><ele>132.83333333333334</ele><time>2026-04-26T09:31:53.998Z</time></trkpt><trkpt lat="45.427121583139126" lon="11.468875915175271"><ele>130.66666666666666</ele><time>2026-04-26T09:31:56.998Z</time></trkpt><trkpt lat="45.427210389271664" lon="11.468900292913201"><ele>128.5</ele><time>2026-04-26T09:31:59.998Z</time></trkpt><trkpt lat="45.427271595132304" lon="11.468934711963776"><ele>126.33333333333333</ele><time>2026-04-26T09:32:01.998Z</time></trkpt><trkpt lat="45.42735816754453" lon="11.468948568456927"><ele>124.16666666666666</ele><time>2026-04-26T09:32:04.998Z</time></trkpt><trkpt lat="45.4274554085111" lon="11.468964985303348"><ele>122.0</ele><time>2026-04-26T09:32:07.997Z</time></trkpt><trkpt lat="45.427531402980705" lon="11.468959415343068"><ele>122.0</ele><time>2026-04-26T09:32:09.997Z</time></trkpt><trkpt lat="45.42767880685214" lon="11.468998151383515"><ele>121.99999999999999</ele><time>2026-04-26T09:32:13.997Z</time></trkpt><trkpt lat="45.427748114176865" lon="11.469038214209789"><ele>121.99999999999999</ele><time>2026-04-26T09:32:15.997Z</time></trkpt><trkpt lat="45.42784480732133" lon="11.469008584612029"><ele>122.0</ele><time>2026-04-26T09:32:16.997Z</time></trkpt><trkpt lat="45.427962073259856" lon="11.46897776215957"><ele>122.0</ele><time>2026-04-26T09:32:17.997Z</time></trkpt><trkpt lat="45.428058969914616" lon="11.468942976813246"><ele>121.66666666666666</ele><time>2026-04-26T09:32:18.997Z</time></trkpt><trkpt lat="45.42816393094283" lon="11.468898157694579"><ele>121.33333333333334</ele><time>2026-04-26T09:32:20Z</time></trkpt><trkpt lat="45.4282358557659" lon="11.468862740225024"><ele>121.0</ele><time>2026-04-26T09:32:21Z</time></trkpt><trkpt lat="45.42850474956837" lon="11.468776816925923"><ele>121.6</ele><time>2026-04-26T09:32:25Z</time></trkpt><trkpt lat="45.4286011041306" lon="11.468720150349748"><ele>122.19999999999999</ele><time>2026-04-26T09:32:27Z</time></trkpt><trkpt lat="45.4286970940034" lon="11.468706116298991"><ele>122.80000000000001</ele><time>2026-04-26T09:32:29Z</time></trkpt><trkpt lat="45.42880099848347" lon="11.46863519814102"><ele>123.4</ele><time>2026-04-26T09:32:31Z</time></trkpt><trkpt lat="45.42888803856444" lon="11.46862757632316"><ele>124.0</ele><time>2026-04-26T09:32:33Z</time></trkpt><trkpt lat="45.428939756476325" lon="11.468570408809445"><ele>124.0</ele><time>2026-04-26T09:32:34Z</time></trkpt><trkpt lat="45.42902586661728" lon="11.46845951425216"><ele>124.0</ele><time>2026-04-26T09:32:36Z</time></trkpt><trkpt lat="45.42909674221529" lon="11.468338598517585"><ele>124.0</ele><time>2026-04-26T09:32:38Z</time></trkpt><trkpt lat="45.4291429497751" lon="11.468265171530302"><ele>124.0</ele><time>2026-04-26T09:32:39Z</time></trkpt><trkpt lat="45.429215692592535" lon="11.468169805902406"><ele>124.0</ele><time>2026-04-26T09:32:41Z</time></trkpt><trkpt lat="45.42929004913993" lon="11.468069114136421"><ele>124.0</ele><time>2026-04-26T09:32:43Z</time></trkpt><trkpt lat="45.429384597553025" lon="11.468054464790386"><ele>124.0</ele><time>2026-04-26T09:32:45Z</time></trkpt><trkpt lat="45.429533340985365" lon="11.468071676312007"><ele>124.0</ele><time>2026-04-26T09:32:47Z</time></trkpt><trkpt lat="45.42960057351806" lon="11.468065661565127"><ele>124.0</ele><time>2026-04-26T09:32:48Z</time></trkpt><trkpt lat="45.42971850499103" lon="11.468000075237686"><ele>124.0</ele><time>2026-04-26T09:32:50Z</time></trkpt><trkpt lat="45.42983139881753" lon="11.467967948196094"><ele>126.2</ele><time>2026-04-26T09:32:52Z</time></trkpt><trkpt lat="45.42994024800299" lon="11.467912470740464"><ele>128.4</ele><time>2026-04-26T09:32:53.999Z</time></trkpt><trkpt lat="45.43003688797509" lon="11.467855155477023"><ele>130.6</ele><time>2026-04-26T09:32:55.999Z</time></trkpt><trkpt lat="45.430139770169674" lon="11.46776701053759"><ele>132.8</ele><time>2026-04-26T09:32:57.999Z</time></trkpt><trkpt lat="45.430217883131114" lon="11.467680198638066"><ele>135.0</ele><time>2026-04-26T09:32:59.999Z</time></trkpt><trkpt lat="45.4302980107421" lon="11.46757863649411"><ele>135.0</ele><time>2026-04-26T09:33:01.999Z</time></trkpt><trkpt lat="45.430369315646914" lon="11.467490744257391"><ele>135.0</ele><time>2026-04-26T09:33:03.999Z</time></trkpt><trkpt lat="45.43044084646536" lon="11.467415238683435"><ele>135.0</ele><time>2026-04-26T09:33:05.999Z</time></trkpt><trkpt lat="45.430515336566515" lon="11.467344809013364"><ele>135.0</ele><time>2026-04-26T09:33:07.999Z</time></trkpt><trkpt lat="45.4305987286481" lon="11.467240183649968"><ele>135.0</ele><time>2026-04-26T09:33:09.999Z</time></trkpt><trkpt lat="45.43067136486622" lon="11.467128587439833"><ele>134.6</ele><time>2026-04-26T09:33:11.999Z</time></trkpt><trkpt lat="45.430723756724724" lon="11.466993365803468"><ele>134.2</ele><time>2026-04-26T09:33:13.999Z</time></trkpt><trkpt lat="45.430773862408465" lon="11.466898780252384"><ele>133.8</ele><time>2026-04-26T09:33:15.999Z</time></trkpt><trkpt lat="45.43082994710571" lon="11.466817520026014"><ele>133.4</ele><time>2026-04-26T09:33:17.999Z</time></trkpt><trkpt lat="45.43093766947091" lon="11.466760926624499"><ele>133.0</ele><time>2026-04-26T09:33:19.999Z</time></trkpt><trkpt lat="45.43100682078188" lon="11.466744883478235"><ele>133.0</ele><time>2026-04-26T09:33:20.999Z</time></trkpt><trkpt lat="45.43110257242197" lon="11.466675369677095"><ele>133.0</ele><time>2026-04-26T09:33:22.999Z</time></trkpt><trkpt lat="45.431175007668756" lon="11.466633544235568"><ele>133.0</ele><time>2026-04-26T09:33:24.999Z</time></trkpt><trkpt lat="45.43125988603833" lon="11.46657592491396"><ele>133.0</ele><time>2026-04-26T09:33:26.999Z</time></trkpt><trkpt lat="45.43133724928102" lon="11.466554166945295"><ele>133.0</ele><time>2026-04-26T09:33:28.999Z</time></trkpt><trkpt lat="45.43141728644705" lon="11.46648037264199"><ele>133.8</ele><time>2026-04-26T09:33:30.999Z</time></trkpt><trkpt lat="45.43148937500885" lon="11.466383217625884"><ele>134.60000000000002</ele><time>2026-04-26T09:33:32.999Z</time></trkpt><trkpt lat="45.4315353450405" lon="11.466273843029981"><ele>135.39999999999998</ele><time>2026-04-26T09:33:34.998Z</time></trkpt><trkpt lat="45.431600151454" lon="11.46618425222842"><ele>136.2</ele><time>2026-04-26T09:33:36.998Z</time></trkpt><trkpt lat="45.431659513146116" lon="11.466069802223256"><ele>137.0</ele><time>2026-04-26T09:33:38.998Z</time></trkpt><trkpt lat="45.43171773584281" lon="11.465931089468452"><ele>137.0</ele><time>2026-04-26T09:33:40.998Z</time></trkpt><trkpt lat="45.431793085795576" lon="11.465883670596112"><ele>137.0</ele><time>2026-04-26T09:33:42.998Z</time></trkpt><trkpt lat="45.43185990649494" lon="11.465834125981878"><ele>137.0</ele><time>2026-04-26T09:33:44.998Z</time></trkpt><trkpt lat="45.43192633313707" lon="11.465786588573248"><ele>137.0</ele><time>2026-04-26T09:33:46.998Z</time></trkpt><trkpt lat="45.43204249228614" lon="11.465755916773652"><ele>137.0</ele><time>2026-04-26T09:33:48.998Z</time></trkpt><trkpt lat="45.43213935285957" lon="11.465750976053759"><ele>137.0</ele><time>2026-04-26T09:33:50.998Z</time></trkpt><trkpt lat="45.43221857981735" lon="11.465769955934812"><ele>135.42857142857144</ele><time>2026-04-26T09:33:52.998Z</time></trkpt><trkpt lat="45.43230423513111" lon="11.46575314846377"><ele>133.85714285714286</ele><time>2026-04-26T09:33:54.998Z</time></trkpt><trkpt lat="45.43237920770964" lon="11.465741425451188"><ele>132.28571428571428</ele><time>2026-04-26T09:33:56.998Z</time></trkpt><trkpt lat="45.43243937522635" lon="11.465712629002926"><ele>130.71428571428572</ele><time>2026-04-26T09:33:58.998Z</time></trkpt><trkpt lat="45.43249111637487" lon="11.465660046964286"><ele>129.14285714285714</ele><time>2026-04-26T09:34:33Z</time></trkpt><trkpt lat="45.43254750046359" lon="11.465595756743104"><ele>127.57142857142857</ele><time>2026-04-26T09:34:36Z</time></trkpt><trkpt lat="45.43261040946433" lon="11.465558924718186"><ele>126.0</ele><time>2026-04-26T09:34:39Z</time></trkpt><trkpt lat="45.4326831236255" lon="11.465538933674857"><ele>126.0</ele><time>2026-04-26T09:34:41Z</time></trkpt><trkpt lat="45.4327470839967" lon="11.465468175980678"><ele>126.0</ele><time>2026-04-26T09:34:44Z</time></trkpt><trkpt lat="45.43279787394169" lon="11.465408778697457"><ele>126.0</ele><time>2026-04-26T09:36:35Z</time></trkpt><trkpt lat="45.43287374478657" lon="11.465296314723052"><ele>126.0</ele><time>2026-04-26T09:36:38Z</time></trkpt><trkpt lat="45.43296370489741" lon="11.465243908048263"><ele>126.0</ele><time>2026-04-26T09:36:40Z</time></trkpt><trkpt lat="45.43302904956622" lon="11.465177668141795"><ele>126.0</ele><time>2026-04-26T09:36:42Z</time></trkpt><trkpt lat="45.433097061596044" lon="11.4651346192706"><ele>127.83333333333333</ele><time>2026-04-26T09:36:44Z</time></trkpt><trkpt lat="45.43317077627952" lon="11.465098668422566"><ele>129.66666666666666</ele><time>2026-04-26T09:36:46Z</time></trkpt><trkpt lat="45.433233678056105" lon="11.465016860347351"><ele>131.5</ele><time>2026-04-26T09:36:49Z</time></trkpt><trkpt lat="45.43331150361096" lon="11.464953839620946"><ele>133.33333333333331</ele><time>2026-04-26T09:36:52Z</time></trkpt><trkpt lat="45.43337502203541" lon="11.464908019681523"><ele>135.16666666666666</ele><time>2026-04-26T09:36:55Z</time></trkpt><trkpt lat="45.43344784372813" lon="11.46487242573072"><ele>137.0</ele><time>2026-04-26T09:36:58Z</time></trkpt><trkpt lat="45.433509984840335" lon="11.46482779418292"><ele>137.0</ele><time>2026-04-26T09:37:01Z</time></trkpt><trkpt lat="45.43358670135247" lon="11.464812293868496"><ele>137.0</ele><time>2026-04-26T09:37:03.999Z</time></trkpt><trkpt lat="45.433656539589286" lon="11.464738111550515"><ele>137.0</ele><time>2026-04-26T09:37:06.999Z</time></trkpt><trkpt lat="45.433728135363936" lon="11.46471840851634"><ele>137.0</ele><time>2026-04-26T09:37:09.999Z</time></trkpt><trkpt lat="45.433818705021636" lon="11.464648584343836"><ele>137.0</ele><time>2026-04-26T09:37:12.999Z</time></trkpt><trkpt lat="45.4338865861681" lon="11.464633824126059"><ele>137.0</ele><time>2026-04-26T09:37:14.999Z</time></trkpt><trkpt lat="45.433947269864255" lon="11.464589194906745"><ele>138.83333333333331</ele><time>2026-04-26T09:37:16.999Z</time></trkpt><trkpt lat="45.43401406533405" lon="11.464555607751551"><ele>140.66666666666666</ele><time>2026-04-26T09:37:18.999Z</time></trkpt><trkpt lat="45.434083566093875" lon="11.464515443921625"><ele>142.5</ele><time>2026-04-26T09:37:21.999Z</time></trkpt><trkpt lat="45.43415174131162" lon="11.464519533812169"><ele>144.33333333333334</ele><time>2026-04-26T09:37:23.999Z</time></trkpt><trkpt lat="45.43421348859457" lon="11.4644696671973"><ele>146.16666666666669</ele><time>2026-04-26T09:37:27.999Z</time></trkpt><trkpt lat="45.434271296985315" lon="11.464426342069425"><ele>148.0</ele><time>2026-04-26T09:37:30.999Z</time></trkpt><trkpt lat="45.434499135672155" lon="11.464395391962872"><ele>148.0</ele><time>2026-04-26T09:37:38.999Z</time></trkpt><trkpt lat="45.43457600495309" lon="11.464443835905746"><ele>148.0</ele><time>2026-04-26T09:37:40.999Z</time></trkpt><trkpt lat="45.434652724126074" lon="11.464463314230889"><ele>148.0</ele><time>2026-04-26T09:37:43.998Z</time></trkpt><trkpt lat="45.43471649555696" lon="11.464517884466671"><ele>148.0</ele><time>2026-04-26T09:37:46.998Z</time></trkpt><trkpt lat="45.43478037006157" lon="11.46452895089431"><ele>148.0</ele><time>2026-04-26T09:37:49.998Z</time></trkpt><trkpt lat="45.434854279570686" lon="11.464581311684258"><ele>148.0</ele><time>2026-04-26T09:37:54.998Z</time></trkpt><trkpt lat="45.434914689278365" lon="11.464636623605669"><ele>147.5</ele><time>2026-04-26T09:37:58.998Z</time></trkpt><trkpt lat="45.434991168026194" lon="11.464702196231737"><ele>147.0</ele><time>2026-04-26T09:38:01.998Z</time></trkpt><trkpt lat="45.435053453524" lon="11.464747325737362"><ele>146.5</ele><time>2026-04-26T09:38:04.998Z</time></trkpt><trkpt lat="45.43513889346055" lon="11.464816677180918"><ele>146.0</ele><time>2026-04-26T09:38:08.998Z</time></trkpt><trkpt lat="45.435197689699905" lon="11.464851470310743"><ele>145.5</ele><time>2026-04-26T09:38:11.998Z</time></trkpt><trkpt lat="45.43528777881063" lon="11.46486895668709"><ele>145.0</ele><time>2026-04-26T09:38:14.998Z</time></trkpt><trkpt lat="45.435365361908595" lon="11.464906617677991"><ele>145.0</ele><time>2026-04-26T09:38:17.998Z</time></trkpt><trkpt lat="45.43544047312748" lon="11.464908884369379"><ele>145.0</ele><time>2026-04-26T09:38:20.998Z</time></trkpt><trkpt lat="45.43550375809515" lon="11.464881057846677"><ele>145.0</ele><time>2026-04-26T09:38:23.998Z</time></trkpt><trkpt lat="45.43557893425955" lon="11.464858554150382"><ele>145.0</ele><time>2026-04-26T09:38:26.997Z</time></trkpt><trkpt lat="45.43565822020305" lon="11.464854249976929"><ele>145.0</ele><time>2026-04-26T09:38:28.997Z</time></trkpt><trkpt lat="45.43573550629442" lon="11.464823494529663"><ele>145.0</ele><time>2026-04-26T09:38:32.997Z</time></trkpt><trkpt lat="45.43585056133854" lon="11.464773583818964"><ele>147.6</ele><time>2026-04-26T09:38:37Z</time></trkpt><trkpt lat="45.43596560203339" lon="11.464732924183453"><ele>150.2</ele><time>2026-04-26T09:38:40Z</time></trkpt><trkpt lat="45.436042483570375" lon="11.46468568768234"><ele>152.8</ele><time>2026-04-26T09:38:42Z</time></trkpt><trkpt lat="45.436153684707335" lon="11.464630142256983"><ele>155.4</ele><time>2026-04-26T09:38:44Z</time></trkpt><trkpt lat="45.436251560196226" lon="11.464647447291576"><ele>158.0</ele><time>2026-04-26T09:38:46Z</time></trkpt><trkpt lat="45.4363337824473" lon="11.464635689131246"><ele>160.0</ele><time>2026-04-26T09:38:48Z</time></trkpt><trkpt lat="45.43639934958221" lon="11.464571299701593"><ele>162.0</ele><time>2026-04-26T09:38:52Z</time></trkpt><trkpt lat="45.43649540002023" lon="11.464565126891195"><ele>164.0</ele><time>2026-04-26T09:38:56Z</time></trkpt><trkpt lat="45.436567726347505" lon="11.464523367987171"><ele>166.0</ele><time>2026-04-26T09:38:59Z</time></trkpt><trkpt lat="45.43663594196945" lon="11.464496856455"><ele>168.0</ele><time>2026-04-26T09:39:02Z</time></trkpt><trkpt lat="45.436705160447694" lon="11.464465289326723"><ele>170.0</ele><time>2026-04-26T09:39:05Z</time></trkpt><trkpt lat="45.436780989487474" lon="11.464421461519551"><ele>170.0</ele><time>2026-04-26T09:39:07.999Z</time></trkpt><trkpt lat="45.43686542749023" lon="11.464365895270351"><ele>170.0</ele><time>2026-04-26T09:39:11.999Z</time></trkpt><trkpt lat="45.43692558855623" lon="11.464323337395948"><ele>170.0</ele><time>2026-04-26T09:39:14.999Z</time></trkpt><trkpt lat="45.436998146418986" lon="11.464278609885618"><ele>170.0</ele><time>2026-04-26T09:39:17.999Z</time></trkpt><trkpt lat="45.437057464646635" lon="11.464211540461129"><ele>170.0</ele><time>2026-04-26T09:39:20.999Z</time></trkpt><trkpt lat="45.43712447155078" lon="11.464166558924632"><ele>170.0</ele><time>2026-04-26T09:39:23.999Z</time></trkpt><trkpt lat="45.43721017843489" lon="11.464135992421678"><ele>172.66666666666666</ele><time>2026-04-26T09:39:26.999Z</time></trkpt><trkpt lat="45.43727165015729" lon="11.464097456312839"><ele>175.33333333333331</ele><time>2026-04-26T09:39:29.999Z</time></trkpt><trkpt lat="45.43735091747204" lon="11.464069063081032"><ele>178.0</ele><time>2026-04-26T09:39:32.999Z</time></trkpt><trkpt lat="45.43744302444481" lon="11.464068596514592"><ele>180.66666666666666</ele><time>2026-04-26T09:39:35.999Z</time></trkpt><trkpt lat="45.437520300834905" lon="11.464029426914587"><ele>183.33333333333334</ele><time>2026-04-26T09:39:39.999Z</time></trkpt><trkpt lat="45.437591150664005" lon="11.46403559822308"><ele>186.0</ele><time>2026-04-26T09:39:42.999Z</time></trkpt><trkpt lat="45.43761162213892" lon="11.464142813442884"><ele>186.0</ele><time>2026-04-26T09:40:01.998Z</time></trkpt><trkpt lat="45.43769459366987" lon="11.464179662435996"><ele>186.0</ele><time>2026-04-26T09:40:04.998Z</time></trkpt><trkpt lat="45.437766469119026" lon="11.464183148230655"><ele>186.0</ele><time>2026-04-26T09:40:07.998Z</time></trkpt><trkpt lat="45.43784319064776" lon="11.46419605699825"><ele>186.0</ele><time>2026-04-26T09:40:10.998Z</time></trkpt><trkpt lat="45.43793194115642" lon="11.464225275625497"><ele>186.0</ele><time>2026-04-26T09:40:12.998Z</time></trkpt><trkpt lat="45.438027822264985" lon="11.464258473636491"><ele>186.0</ele><time>2026-04-26T09:40:15.998Z</time></trkpt><trkpt lat="45.43809278900712" lon="11.464307658870888"><ele>187.83333333333334</ele><time>2026-04-26T09:40:17.998Z</time></trkpt><trkpt lat="45.438156090686824" lon="11.464321547979404"><ele>189.66666666666669</ele><time>2026-04-26T09:40:19.998Z</time></trkpt><trkpt lat="45.43822850046314" lon="11.464386539566084"><ele>191.5</ele><time>2026-04-26T09:40:22.998Z</time></trkpt><trkpt lat="45.438298841747" lon="11.46446073623995"><ele>193.33333333333334</ele><time>2026-04-26T09:40:26.998Z</time></trkpt><trkpt lat="45.43832759662794" lon="11.464552251976274"><ele>195.16666666666669</ele><time>2026-04-26T09:40:28.998Z</time></trkpt><trkpt lat="45.43838696836648" lon="11.46461758707425"><ele>197.0</ele><time>2026-04-26T09:40:30.997Z</time></trkpt><trkpt lat="45.43839844818752" lon="11.464711820926068"><ele>198.00000000000003</ele><time>2026-04-26T09:40:32.997Z</time></trkpt><trkpt lat="45.43842607696787" lon="11.46480832377178"><ele>199.0</ele><time>2026-04-26T09:40:35.997Z</time></trkpt><trkpt lat="45.438469104367535" lon="11.464875286366215"><ele>200.0</ele><time>2026-04-26T09:40:38.997Z</time></trkpt><trkpt lat="45.43853693071173" lon="11.464903396849142"><ele>201.0</ele><time>2026-04-26T09:40:43Z</time></trkpt><trkpt lat="45.438599512592674" lon="11.464915093153019"><ele>202.00000000000003</ele><time>2026-04-26T09:40:46Z</time></trkpt><trkpt lat="45.4387162074742" lon="11.464964769676637"><ele>203.0</ele><time>2026-04-26T09:40:49Z</time></trkpt><trkpt lat="45.438777789640824" lon="11.46502466803426"><ele>203.8</ele><time>2026-04-26T09:40:50Z</time></trkpt><trkpt lat="45.438863051614334" lon="11.465067805611204"><ele>204.60000000000002</ele><time>2026-04-26T09:40:52Z</time></trkpt><trkpt lat="45.4389513338821" lon="11.46509224666194"><ele>205.39999999999998</ele><time>2026-04-26T09:40:54Z</time></trkpt><trkpt lat="45.43903064249821" lon="11.465161816860943"><ele>206.2</ele><time>2026-04-26T09:40:56Z</time></trkpt><trkpt lat="45.43907809144119" lon="11.465293049071315"><ele>207.0</ele><time>2026-04-26T09:40:58Z</time></trkpt><trkpt lat="45.43911920128911" lon="11.465401546807565"><ele>208.33333333333334</ele><time>2026-04-26T09:41:00Z</time></trkpt><trkpt lat="45.43910605421046" lon="11.465504607686272"><ele>209.66666666666669</ele><time>2026-04-26T09:41:02Z</time></trkpt><trkpt lat="45.43909606431446" lon="11.465603401811125"><ele>211.0</ele><time>2026-04-26T09:41:04Z</time></trkpt><trkpt lat="45.43909345517708" lon="11.465701514193148"><ele>212.33333333333334</ele><time>2026-04-26T09:41:06Z</time></trkpt><trkpt lat="45.43905558440461" lon="11.465824026112193"><ele>213.66666666666669</ele><time>2026-04-26T09:41:08Z</time></trkpt><trkpt lat="45.43900131968916" lon="11.465947188909436"><ele>215.0</ele><time>2026-04-26T09:41:10Z</time></trkpt><trkpt lat="45.43895688573449" lon="11.4660577239436"><ele>215.00000000000003</ele><time>2026-04-26T09:41:12Z</time></trkpt><trkpt lat="45.438946616741084" lon="11.466161868611492"><ele>215.0</ele><time>2026-04-26T09:41:14Z</time></trkpt><trkpt lat="45.43890134375315" lon="11.466280845260004"><ele>215.0</ele><time>2026-04-26T09:41:16.999Z</time></trkpt><trkpt lat="45.438863485502374" lon="11.46636224773425"><ele>215.0</ele><time>2026-04-26T09:41:18.999Z</time></trkpt><trkpt lat="45.43880546581815" lon="11.466444965096064"><ele>215.00000000000003</ele><time>2026-04-26T09:41:20.999Z</time></trkpt><trkpt lat="45.43882631741983" lon="11.466547475475643"><ele>215.0</ele><time>2026-04-26T09:41:22.999Z</time></trkpt><trkpt lat="45.43877555581742" lon="11.466623074086868"><ele>215.33333333333334</ele><time>2026-04-26T09:41:24.999Z</time></trkpt><trkpt lat="45.438756721246655" lon="11.466757674610827"><ele>215.66666666666669</ele><time>2026-04-26T09:41:27.999Z</time></trkpt><trkpt lat="45.438726147834956" lon="11.466888612004944"><ele>216.0</ele><time>2026-04-26T09:41:29.999Z</time></trkpt><trkpt lat="45.43869926493649" lon="11.467010554608164"><ele>216.33333333333331</ele><time>2026-04-26T09:41:31.999Z</time></trkpt><trkpt lat="45.4386884793437" lon="11.46713697873745"><ele>216.66666666666666</ele><time>2026-04-26T09:41:36.999Z</time></trkpt><trkpt lat="45.438705593950864" lon="11.467226842975208"><ele>217.0</ele><time>2026-04-26T09:41:38.999Z</time></trkpt><trkpt lat="45.43866048857868" lon="11.467336551344404"><ele>216.99999999999997</ele><time>2026-04-26T09:41:41.999Z</time></trkpt><trkpt lat="45.438578912371945" lon="11.467378099895944"><ele>217.0</ele><time>2026-04-26T09:41:43.999Z</time></trkpt><trkpt lat="45.43850224246968" lon="11.467452174526532"><ele>217.0</ele><time>2026-04-26T09:41:45.999Z</time></trkpt><trkpt lat="45.43840473489714" lon="11.467503962753254"><ele>217.0</ele><time>2026-04-26T09:41:47.999Z</time></trkpt><trkpt lat="45.438368909116456" lon="11.467601098243392"><ele>216.99999999999997</ele><time>2026-04-26T09:41:51.999Z</time></trkpt><trkpt lat="45.438312706656994" lon="11.467659949800664"><ele>217.0</ele><time>2026-04-26T09:41:53.999Z</time></trkpt><trkpt lat="45.43825667364875" lon="11.467710567081275"><ele>216.99999999999997</ele><time>2026-04-26T09:41:55.999Z</time></trkpt><trkpt lat="45.43820573752406" lon="11.467794845567623"><ele>217.0</ele><time>2026-04-26T09:41:58.998Z</time></trkpt><trkpt lat="45.43813813800302" lon="11.467850487229304"><ele>217.0</ele><time>2026-04-26T09:42:03.998Z</time></trkpt><trkpt lat="45.438076485675964" lon="11.46792789488642"><ele>217.0</ele><time>2026-04-26T09:42:06.998Z</time></trkpt><trkpt lat="45.43799761824199" lon="11.467975917792868"><ele>216.99999999999997</ele><time>2026-04-26T09:42:10.998Z</time></trkpt><trkpt lat="45.43793693203333" lon="11.468027320676223"><ele>217.0</ele><time>2026-04-26T09:42:13.998Z</time></trkpt><trkpt lat="45.43788207881086" lon="11.468113846652397"><ele>217.57142857142858</ele><time>2026-04-26T09:42:16.998Z</time></trkpt><trkpt lat="45.43782725086448" lon="11.468189202684094"><ele>218.14285714285714</ele><time>2026-04-26T09:42:20.998Z</time></trkpt><trkpt lat="45.437766397854816" lon="11.46824818573554"><ele>218.71428571428572</ele><time>2026-04-26T09:42:22.998Z</time></trkpt><trkpt lat="45.43771668401074" lon="11.468330226123365"><ele>219.28571428571428</ele><time>2026-04-26T09:42:25.998Z</time></trkpt><trkpt lat="45.437675049499106" lon="11.468402500513811"><ele>219.85714285714286</ele><time>2026-04-26T09:42:27.998Z</time></trkpt><trkpt lat="45.43763554412249" lon="11.468498762240992"><ele>220.42857142857144</ele><time>2026-04-26T09:42:30.998Z</time></trkpt><trkpt lat="45.437598586413884" lon="11.468578181069821"><ele>221.0</ele><time>2026-04-26T09:42:32.998Z</time></trkpt><trkpt lat="45.43755097934422" lon="11.468689641563005"><ele>222.71428571428572</ele><time>2026-04-26T09:42:35.998Z</time></trkpt><trkpt lat="45.4375092826676" lon="11.468804530503467"><ele>224.42857142857144</ele><time>2026-04-26T09:42:38.998Z</time></trkpt><trkpt lat="45.43748784971272" lon="11.468915968309215"><ele>226.14285714285717</ele><time>2026-04-26T09:42:42.997Z</time></trkpt><trkpt lat="45.43746755042581" lon="11.46900184003802"><ele>227.85714285714286</ele><time>2026-04-26T09:42:44.997Z</time></trkpt><trkpt lat="45.437478321666894" lon="11.4690958352191"><ele>229.57142857142856</ele><time>2026-04-26T09:42:46.997Z</time></trkpt><trkpt lat="45.43746632389488" lon="11.469199650637306"><ele>231.2857142857143</ele><time>2026-04-26T09:42:50Z</time></trkpt><trkpt lat="45.43746450548065" lon="11.46929597931879"><ele>233.0</ele><time>2026-04-26T09:42:54Z</time></trkpt><trkpt lat="45.43750299781507" lon="11.469383968844086"><ele>233.00000000000003</ele><time>2026-04-26T09:43:06Z</time></trkpt><trkpt lat="45.437540723673955" lon="11.46947009348007"><ele>233.0</ele><time>2026-04-26T09:43:10Z</time></trkpt><trkpt lat="45.43754308731629" lon="11.469587380297384"><ele>233.0</ele><time>2026-04-26T09:43:13Z</time></trkpt><trkpt lat="45.437593327232065" lon="11.469723827713171"><ele>233.0</ele><time>2026-04-26T09:43:16Z</time></trkpt><trkpt lat="45.437606277935465" lon="11.469831863425068"><ele>233.00000000000003</ele><time>2026-04-26T09:43:19Z</time></trkpt><trkpt lat="45.43761477583838" lon="11.469929807037463"><ele>233.0</ele><time>2026-04-26T09:43:22Z</time></trkpt><trkpt lat="45.43761905027578" lon="11.470026511494831"><ele>233.83333333333334</ele><time>2026-04-26T09:43:24.999Z</time></trkpt><trkpt lat="45.43762917165936" lon="11.470170106246796"><ele>234.66666666666669</ele><time>2026-04-26T09:43:27.999Z</time></trkpt><trkpt lat="45.43758094880365" lon="11.470234786035387"><ele>235.5</ele><time>2026-04-26T09:43:30.999Z</time></trkpt><trkpt lat="45.43755839621703" lon="11.470335362362501"><ele>236.33333333333331</ele><time>2026-04-26T09:43:32.999Z</time></trkpt><trkpt lat="45.43752069947508" lon="11.47045999855392"><ele>237.16666666666666</ele><time>2026-04-26T09:43:35.999Z</time></trkpt><trkpt lat="45.437499730718415" lon="11.470550473518534"><ele>238.0</ele><time>2026-04-26T09:43:38.999Z</time></trkpt><trkpt lat="45.43747441564206" lon="11.470641033450445"><ele>238.14285714285714</ele><time>2026-04-26T09:43:41.999Z</time></trkpt><trkpt lat="45.437474675126765" lon="11.470741369589417"><ele>238.28571428571428</ele><time>2026-04-26T09:43:44.999Z</time></trkpt><trkpt lat="45.437497957993806" lon="11.470846970860645"><ele>238.42857142857144</ele><time>2026-04-26T09:43:48.999Z</time></trkpt><trkpt lat="45.43756767952628" lon="11.470865822328552"><ele>238.57142857142858</ele><time>2026-04-26T09:43:51.999Z</time></trkpt><trkpt lat="45.43763011079554" lon="11.470879313784172"><ele>238.71428571428572</ele><time>2026-04-26T09:43:54.999Z</time></trkpt><trkpt lat="45.437705978384784" lon="11.470889307569589"><ele>238.8571428571429</ele><time>2026-04-26T09:43:57.999Z</time></trkpt><trkpt lat="45.4377737360155" lon="11.470911828594915"><ele>239.00000000000003</ele><time>2026-04-26T09:44:00.999Z</time></trkpt><trkpt lat="45.437853808362" lon="11.47096679495097"><ele>239.0</ele><time>2026-04-26T09:44:03.998Z</time></trkpt><trkpt lat="45.43791980905924" lon="11.471019277061956"><ele>238.99999999999997</ele><time>2026-04-26T09:44:06.998Z</time></trkpt><trkpt lat="45.43799703491601" lon="11.471022690218033"><ele>238.99999999999997</ele><time>2026-04-26T09:44:08.998Z</time></trkpt><trkpt lat="45.43804884606813" lon="11.471087492620539"><ele>239.0</ele><time>2026-04-26T09:44:10.998Z</time></trkpt><trkpt lat="45.438157511220965" lon="11.47117066908203"><ele>239.0</ele><time>2026-04-26T09:44:13.998Z</time></trkpt><trkpt lat="45.43825657799989" lon="11.471252989201147"><ele>240.0</ele><time>2026-04-26T09:44:15.998Z</time></trkpt><trkpt lat="45.43834618369728" lon="11.471316393941626"><ele>240.99999999999997</ele><time>2026-04-26T09:44:17.998Z</time></trkpt><trkpt lat="45.43840057907562" lon="11.471368068492497"><ele>241.99999999999997</ele><time>2026-04-26T09:44:18.998Z</time></trkpt><trkpt lat="45.438484438983025" lon="11.471458154402084"><ele>243.0</ele><time>2026-04-26T09:44:21.998Z</time></trkpt><trkpt lat="45.43857973257105" lon="11.47152731718427"><ele>244.0</ele><time>2026-04-26T09:44:23.998Z</time></trkpt><trkpt lat="45.438647284637526" lon="11.471578486600713"><ele>243.99999999999997</ele><time>2026-04-26T09:44:25.998Z</time></trkpt><trkpt lat="45.43869448820237" lon="11.471658444368906"><ele>244.0</ele><time>2026-04-26T09:44:27.998Z</time></trkpt><trkpt lat="45.43875680999313" lon="11.47171068125408"><ele>244.0</ele><time>2026-04-26T09:44:29.998Z</time></trkpt><trkpt lat="45.438828149500154" lon="11.471767274842064"><ele>244.0</ele><time>2026-04-26T09:44:31.998Z</time></trkpt><trkpt lat="45.4388887261732" lon="11.471835535680977"><ele>243.99999999999997</ele><time>2026-04-26T09:44:33.998Z</time></trkpt><trkpt lat="45.43895985974072" lon="11.47188915469877"><ele>244.0</ele><time>2026-04-26T09:44:36.998Z</time></trkpt><trkpt lat="45.439022318057035" lon="11.471966524066657"><ele>245.2</ele><time>2026-04-26T09:44:38.998Z</time></trkpt><trkpt lat="45.43908016729302" lon="11.472022861652224"><ele>246.39999999999998</ele><time>2026-04-26T09:44:40.998Z</time></trkpt><trkpt lat="45.43913438322519" lon="11.472082570570123"><ele>247.6</ele><time>2026-04-26T09:44:41.998Z</time></trkpt><trkpt lat="45.4392297285949" lon="11.472161274281211"><ele>248.8</ele><time>2026-04-26T09:44:43.998Z</time></trkpt><trkpt lat="45.439332227304824" lon="11.472258409313453"><ele>250.0</ele><time>2026-04-26T09:44:45.997Z</time></trkpt><trkpt lat="45.439421612398" lon="11.47233814603679"><ele>250.0</ele><time>2026-04-26T09:44:47.997Z</time></trkpt><trkpt lat="45.439490870948305" lon="11.47244229298895"><ele>250.0</ele><time>2026-04-26T09:44:49.997Z</time></trkpt><trkpt lat="45.43956752765902" lon="11.47253131082753"><ele>250.0</ele><time>2026-04-26T09:44:51.997Z</time></trkpt><trkpt lat="45.43964134861359" lon="11.472614435228293"><ele>250.0</ele><time>2026-04-26T09:44:54Z</time></trkpt><trkpt lat="45.43972229268603" lon="11.472685746460012"><ele>250.0</ele><time>2026-04-26T09:44:56Z</time></trkpt><trkpt lat="45.43980943973736" lon="11.47274603747254"><ele>251.0</ele><time>2026-04-26T09:44:58Z</time></trkpt><trkpt lat="45.43989206968515" lon="11.472816789644426"><ele>252.0</ele><time>2026-04-26T09:45:00Z</time></trkpt><trkpt lat="45.43998593421144" lon="11.472907906602465"><ele>253.0</ele><time>2026-04-26T09:45:02Z</time></trkpt><trkpt lat="45.4400848257699" lon="11.473010024400194"><ele>254.0</ele><time>2026-04-26T09:45:04Z</time></trkpt><trkpt lat="45.4401939374184" lon="11.473077935817402"><ele>254.0</ele><time>2026-04-26T09:45:06Z</time></trkpt><trkpt lat="45.44025120312762" lon="11.473124808480158"><ele>253.99999999999997</ele><time>2026-04-26T09:45:07Z</time></trkpt><trkpt lat="45.44036273491198" lon="11.473212325582185"><ele>253.99999999999997</ele><time>2026-04-26T09:45:09Z</time></trkpt><trkpt lat="45.44046002395261" lon="11.473275208099613"><ele>254.0</ele><time>2026-04-26T09:45:11Z</time></trkpt><trkpt lat="45.44055710017722" lon="11.47335081631934"><ele>254.0</ele><time>2026-04-26T09:45:13Z</time></trkpt><trkpt lat="45.44064354065238" lon="11.473427130592462"><ele>254.0</ele><time>2026-04-26T09:45:15Z</time></trkpt><trkpt lat="45.44073127692179" lon="11.47351383987047"><ele>253.99999999999997</ele><time>2026-04-26T09:45:17Z</time></trkpt><trkpt lat="45.44082862891292" lon="11.473615169375469"><ele>253.99999999999997</ele><time>2026-04-26T09:45:19Z</time></trkpt><trkpt lat="45.440899336903804" lon="11.473721916342077"><ele>254.0</ele><time>2026-04-26T09:45:21Z</time></trkpt><trkpt lat="45.44095031165493" lon="11.473806831328385"><ele>254.0</ele><time>2026-04-26T09:45:23Z</time></trkpt><trkpt lat="45.44096886905073" lon="11.473909514238834"><ele>254.0</ele><time>2026-04-26T09:45:25Z</time></trkpt><trkpt lat="45.44096675585755" lon="11.474020728229961"><ele>254.0</ele><time>2026-04-26T09:45:26.999Z</time></trkpt><trkpt lat="45.4409626832911" lon="11.474114483796567"><ele>254.0</ele><time>2026-04-26T09:45:28.999Z</time></trkpt><trkpt lat="45.44092957567687" lon="11.474211774355005"><ele>254.0</ele><time>2026-04-26T09:45:30.999Z</time></trkpt><trkpt lat="45.440915104153035" lon="11.474312021056125"><ele>254.0</ele><time>2026-04-26T09:45:32.999Z</time></trkpt><trkpt lat="45.44091066767869" lon="11.474405065916276"><ele>254.0</ele><time>2026-04-26T09:45:35.999Z</time></trkpt><trkpt lat="45.440900048048455" lon="11.474504301133933"><ele>254.0</ele><time>2026-04-26T09:45:41.999Z</time></trkpt><trkpt lat="45.44089521154109" lon="11.474375245056343"><ele>254.00000000000003</ele><time>2026-04-26T09:46:04.999Z</time></trkpt><trkpt lat="45.44093516338231" lon="11.474229381343687"><ele>254.0</ele><time>2026-04-26T09:46:06.999Z</time></trkpt><trkpt lat="45.44094902370954" lon="11.47408160105924"><ele>254.0</ele><time>2026-04-26T09:46:08.998Z</time></trkpt><trkpt lat="45.44087976699228" lon="11.47403123625011"><ele>254.0</ele><time>2026-04-26T09:46:11.998Z</time></trkpt><trkpt lat="45.44085333183142" lon="11.47394104663991"><ele>254.00000000000003</ele><time>2026-04-26T09:47:05Z</time></trkpt><trkpt lat="45.44085487732649" lon="11.474044610253465"><ele>254.0</ele><time>2026-04-26T09:47:37.999Z</time></trkpt><trkpt lat="45.44088867565791" lon="11.473955507879202"><ele>254.0</ele><time>2026-04-26T09:49:55.999Z</time></trkpt><trkpt lat="45.4409322145913" lon="11.474056482944729"><ele>253.99999999999997</ele><time>2026-04-26T09:50:00.999Z</time></trkpt><trkpt lat="45.44095970451643" lon="11.474198895911186"><ele>253.99999999999997</ele><time>2026-04-26T09:50:02.999Z</time></trkpt><trkpt lat="45.440938582682975" lon="11.474350139982716"><ele>254.0</ele><time>2026-04-26T09:50:04.999Z</time></trkpt><trkpt lat="45.44092130072469" lon="11.474479679167674"><ele>254.0</ele><time>2026-04-26T09:50:06.999Z</time></trkpt><trkpt lat="45.440886972430235" lon="11.474585459778034"><ele>255.57142857142858</ele><time>2026-04-26T09:50:09.999Z</time></trkpt><trkpt lat="45.44085863996563" lon="11.474683387793851"><ele>257.1428571428571</ele><time>2026-04-26T09:50:12.999Z</time></trkpt><trkpt lat="45.44082134231003" lon="11.474777060061344"><ele>258.71428571428567</ele><time>2026-04-26T09:50:16.999Z</time></trkpt><trkpt lat="45.44080356980093" lon="11.474865035565795"><ele>260.2857142857143</ele><time>2026-04-26T09:50:19.999Z</time></trkpt><trkpt lat="45.44078450096822" lon="11.474980175134082"><ele>261.85714285714283</ele><time>2026-04-26T09:50:23.998Z</time></trkpt><trkpt lat="45.44076793929019" lon="11.475072210350932"><ele>263.4285714285714</ele><time>2026-04-26T09:50:26.998Z</time></trkpt><trkpt lat="45.44071653232374" lon="11.475151833031264"><ele>265.0</ele><time>2026-04-26T09:50:29.998Z</time></trkpt><trkpt lat="45.4406639302648" lon="11.475225990694417"><ele>265.0</ele><time>2026-04-26T09:50:32.998Z</time></trkpt><trkpt lat="45.44061265499913" lon="11.47529030468044"><ele>265.0</ele><time>2026-04-26T09:50:35.998Z</time></trkpt><trkpt lat="45.44053803745487" lon="11.475339133420057"><ele>265.0</ele><time>2026-04-26T09:50:39.998Z</time></trkpt><trkpt lat="45.44046441982801" lon="11.475358043569763"><ele>265.0</ele><time>2026-04-26T09:50:42.998Z</time></trkpt><trkpt lat="45.44037772072771" lon="11.475390099792985"><ele>265.0</ele><time>2026-04-26T09:50:45.998Z</time></trkpt><trkpt lat="45.440284732750555" lon="11.475365653891172"><ele>265.0</ele><time>2026-04-26T09:50:48.998Z</time></trkpt><trkpt lat="45.44022681627854" lon="11.475321098491204"><ele>265.66666666666663</ele><time>2026-04-26T09:50:50.998Z</time></trkpt><trkpt lat="45.440165804289926" lon="11.475237814810828"><ele>266.3333333333333</ele><time>2026-04-26T09:50:52.998Z</time></trkpt><trkpt lat="45.440089926229525" lon="11.475174146318876"><ele>267.0</ele><time>2026-04-26T09:50:55.998Z</time></trkpt><trkpt lat="45.44001799574537" lon="11.475113918879186"><ele>267.6666666666667</ele><time>2026-04-26T09:50:58.998Z</time></trkpt><trkpt lat="45.43994157820787" lon="11.475061864964454"><ele>268.33333333333337</ele><time>2026-04-26T09:51:00.998Z</time></trkpt><trkpt lat="45.43985736852198" lon="11.474981123676706"><ele>269.0</ele><time>2026-04-26T09:51:02.998Z</time></trkpt><trkpt lat="45.43979704682485" lon="11.474928232727013"><ele>269.0</ele><time>2026-04-26T09:51:04.997Z</time></trkpt><trkpt lat="45.43970201213276" lon="11.474879354327554"><ele>269.0</ele><time>2026-04-26T09:51:07.997Z</time></trkpt><trkpt lat="45.43962091007591" lon="11.474856964534636"><ele>269.0</ele><time>2026-04-26T09:51:09.997Z</time></trkpt><trkpt lat="45.43953401419506" lon="11.474879937804674"><ele>269.0</ele><time>2026-04-26T09:51:13Z</time></trkpt><trkpt lat="45.43946766787653" lon="11.474839332264628"><ele>269.0</ele><time>2026-04-26T09:51:16Z</time></trkpt><trkpt lat="45.43939389188634" lon="11.47484072507413"><ele>269.0</ele><time>2026-04-26T09:51:20Z</time></trkpt><trkpt lat="45.43932775260126" lon="11.474841013722246"><ele>270.5</ele><time>2026-04-26T09:51:23Z</time></trkpt><trkpt lat="45.43927260797966" lon="11.47490061688599"><ele>272.0</ele><time>2026-04-26T09:51:26Z</time></trkpt><trkpt lat="45.43921537376249" lon="11.474984658658713"><ele>273.5</ele><time>2026-04-26T09:51:30Z</time></trkpt><trkpt lat="45.43917282659134" lon="11.47505895227861"><ele>275.0</ele><time>2026-04-26T09:51:33Z</time></trkpt><trkpt lat="45.43912983843157" lon="11.475151660671743"><ele>276.5</ele><time>2026-04-26T09:51:36Z</time></trkpt><trkpt lat="45.43908058990002" lon="11.475214880746442"><ele>278.0</ele><time>2026-04-26T09:51:38Z</time></trkpt><trkpt lat="45.439019538772264" lon="11.475307857108115"><ele>278.0</ele><time>2026-04-26T09:51:41Z</time></trkpt><trkpt lat="45.438962318764744" lon="11.475391407081991"><ele>278.0</ele><time>2026-04-26T09:51:44Z</time></trkpt><trkpt lat="45.43892402930783" lon="11.475489715535694"><ele>278.0</ele><time>2026-04-26T09:51:46.999Z</time></trkpt><trkpt lat="45.43887027645927" lon="11.475597874708003"><ele>278.0</ele><time>2026-04-26T09:51:49.999Z</time></trkpt><trkpt lat="45.43883088459328" lon="11.475708532042583"><ele>278.0</ele><time>2026-04-26T09:51:52.999Z</time></trkpt><trkpt lat="45.43877678652355" lon="11.475817253442615"><ele>278.0</ele><time>2026-04-26T09:51:55.999Z</time></trkpt><trkpt lat="45.43875995025285" lon="11.475916171259746"><ele>277.8</ele><time>2026-04-26T09:51:57.999Z</time></trkpt><trkpt lat="45.43870975923904" lon="11.476033083486056"><ele>277.6</ele><time>2026-04-26T09:51:58.999Z</time></trkpt><trkpt lat="45.43870726619266" lon="11.476148642021043"><ele>277.4</ele><time>2026-04-26T09:51:59.999Z</time></trkpt><trkpt lat="45.43872729920956" lon="11.476277954579736"><ele>277.2</ele><time>2026-04-26T09:52:00.999Z</time></trkpt><trkpt lat="45.43875078066591" lon="11.476411146881134"><ele>277.0</ele><time>2026-04-26T09:52:01.999Z</time></trkpt><trkpt lat="45.43879525312261" lon="11.476520121127898"><ele>277.5</ele><time>2026-04-26T09:52:02.999Z</time></trkpt><trkpt lat="45.438820607876046" lon="11.476631835027973"><ele>278.0</ele><time>2026-04-26T09:52:03.999Z</time></trkpt><trkpt lat="45.43884944831217" lon="11.476741686411513"><ele>278.5</ele><time>2026-04-26T09:52:04.999Z</time></trkpt><trkpt lat="45.43884198806175" lon="11.476856430752658"><ele>279.0</ele><time>2026-04-26T09:52:05.999Z</time></trkpt><trkpt lat="45.43889337985709" lon="11.476921011539233"><ele>279.5</ele><time>2026-04-26T09:52:06.999Z</time></trkpt><trkpt lat="45.43895186296611" lon="11.477050870332464"><ele>280.0</ele><time>2026-04-26T09:52:08.999Z</time></trkpt><trkpt lat="45.43901665486472" lon="11.477132773263195"><ele>280.0</ele><time>2026-04-26T09:52:10.999Z</time></trkpt><trkpt lat="45.439143392012184" lon="11.477087736186466"><ele>280.0</ele><time>2026-04-26T09:52:14.999Z</time></trkpt><trkpt lat="45.43922231548618" lon="11.477086592646943"><ele>280.0</ele><time>2026-04-26T09:52:16.999Z</time></trkpt><trkpt lat="45.439306695698356" lon="11.477105671182716"><ele>280.0</ele><time>2026-04-26T09:52:19.999Z</time></trkpt><trkpt lat="45.43939071332231" lon="11.47713751146287"><ele>280.0</ele><time>2026-04-26T09:52:22.999Z</time></trkpt><trkpt lat="45.43947332544195" lon="11.477133219742784"><ele>280.0</ele><time>2026-04-26T09:52:26.998Z</time></trkpt><trkpt lat="45.43955441988498" lon="11.477168471488351"><ele>280.0</ele><time>2026-04-26T09:52:29.998Z</time></trkpt><trkpt lat="45.43963545829427" lon="11.47718885145187"><ele>280.0</ele><time>2026-04-26T09:52:32.998Z</time></trkpt><trkpt lat="45.43971209943437" lon="11.477219838630447"><ele>280.0</ele><time>2026-04-26T09:52:35.998Z</time></trkpt><trkpt lat="45.439782808806704" lon="11.477243691649736"><ele>280.0</ele><time>2026-04-26T09:52:38.998Z</time></trkpt><trkpt lat="45.43985477823777" lon="11.477239985852085"><ele>280.0</ele><time>2026-04-26T09:52:42.998Z</time></trkpt><trkpt lat="45.43993264876627" lon="11.477253904701533"><ele>281.16666666666663</ele><time>2026-04-26T09:52:45.998Z</time></trkpt><trkpt lat="45.44001590602763" lon="11.47726873968016"><ele>282.3333333333333</ele><time>2026-04-26T09:52:48.998Z</time></trkpt><trkpt lat="45.440085959587904" lon="11.477309063166203"><ele>283.5</ele><time>2026-04-26T09:52:51.998Z</time></trkpt><trkpt lat="45.44016857707769" lon="11.47732349011033"><ele>284.6666666666667</ele><time>2026-04-26T09:52:54.998Z</time></trkpt><trkpt lat="45.44024453064844" lon="11.477357771865481"><ele>285.83333333333337</ele><time>2026-04-26T09:52:57.998Z</time></trkpt><trkpt lat="45.440317949995645" lon="11.477373985033754"><ele>287.0</ele><time>2026-04-26T09:53:00.998Z</time></trkpt><trkpt lat="45.44039774813234" lon="11.477406219271717"><ele>289.1666666666667</ele><time>2026-04-26T09:53:03.998Z</time></trkpt><trkpt lat="45.440471156793514" lon="11.477411093124578"><ele>291.33333333333337</ele><time>2026-04-26T09:53:06.998Z</time></trkpt><trkpt lat="45.4405293396932" lon="11.477469790956858"><ele>293.5</ele><time>2026-04-26T09:53:08.997Z</time></trkpt><trkpt lat="45.440602624009244" lon="11.477499223756077"><ele>295.6666666666667</ele><time>2026-04-26T09:53:11.997Z</time></trkpt><trkpt lat="45.44068298386782" lon="11.477543075248315"><ele>297.8333333333333</ele><time>2026-04-26T09:53:14.997Z</time></trkpt><trkpt lat="45.44075879097196" lon="11.477568787739854"><ele>300.0</ele><time>2026-04-26T09:53:18Z</time></trkpt><trkpt lat="45.44082138552029" lon="11.477609658331119"><ele>300.0</ele><time>2026-04-26T09:53:20Z</time></trkpt><trkpt lat="45.44088563214127" lon="11.47762834519947"><ele>300.0</ele><time>2026-04-26T09:53:23Z</time></trkpt><trkpt lat="45.44098430422571" lon="11.477668753542982"><ele>300.0</ele><time>2026-04-26T09:53:26Z</time></trkpt><trkpt lat="45.44105758769146" lon="11.477708777039547"><ele>300.0</ele><time>2026-04-26T09:53:28Z</time></trkpt><trkpt lat="45.44113423127907" lon="11.477742669838822"><ele>300.0</ele><time>2026-04-26T09:53:31Z</time></trkpt><trkpt lat="45.4412308509234" lon="11.477774202303292"><ele>300.0</ele><time>2026-04-26T09:53:34Z</time></trkpt><trkpt lat="45.441332361074096" lon="11.477826161701433"><ele>301.1666666666667</ele><time>2026-04-26T09:53:37Z</time></trkpt><trkpt lat="45.44142381640205" lon="11.477854334148542"><ele>302.3333333333333</ele><time>2026-04-26T09:53:39Z</time></trkpt><trkpt lat="45.441495830595706" lon="11.47786691014963"><ele>303.5</ele><time>2026-04-26T09:53:40Z</time></trkpt><trkpt lat="45.441560971791276" lon="11.477858718770676"><ele>304.66666666666663</ele><time>2026-04-26T09:53:42Z</time></trkpt><trkpt lat="45.441650531449085" lon="11.47784390867252"><ele>305.8333333333333</ele><time>2026-04-26T09:53:44Z</time></trkpt><trkpt lat="45.44172407689799" lon="11.477821493892357"><ele>307.0</ele><time>2026-04-26T09:53:46Z</time></trkpt><trkpt lat="45.44181773233972" lon="11.477785826862636"><ele>307.0</ele><time>2026-04-26T09:53:48Z</time></trkpt><trkpt lat="45.44188797166835" lon="11.477741246975688"><ele>307.0</ele><time>2026-04-26T09:53:50Z</time></trkpt><trkpt lat="45.4419625800775" lon="11.477677343156135"><ele>307.0</ele><time>2026-04-26T09:53:52Z</time></trkpt><trkpt lat="45.442029353443615" lon="11.477618588146768"><ele>307.0</ele><time>2026-04-26T09:53:53.999Z</time></trkpt><trkpt lat="45.44211149845807" lon="11.477565442632532"><ele>307.0</ele><time>2026-04-26T09:53:55.999Z</time></trkpt><trkpt lat="45.44220488771718" lon="11.477484632668325"><ele>307.0</ele><time>2026-04-26T09:53:57.999Z</time></trkpt><trkpt lat="45.44229377394285" lon="11.477387891920788"><ele>305.0</ele><time>2026-04-26T09:53:59.999Z</time></trkpt><trkpt lat="45.44240731206166" lon="11.477332501246023"><ele>303.0</ele><time>2026-04-26T09:54:01.999Z</time></trkpt><trkpt lat="45.442471739791074" lon="11.477292577533055"><ele>301.0</ele><time>2026-04-26T09:54:02.999Z</time></trkpt><trkpt lat="45.442527488833576" lon="11.477233309935624"><ele>299.0</ele><time>2026-04-26T09:54:03.999Z</time></trkpt><trkpt lat="45.442644674839634" lon="11.477192376553512"><ele>297.0</ele><time>2026-04-26T09:54:05.999Z</time></trkpt><trkpt lat="45.442741846389694" lon="11.477156177482184"><ele>297.0</ele><time>2026-04-26T09:54:07.999Z</time></trkpt><trkpt lat="45.442816596434476" lon="11.477129926197817"><ele>297.0</ele><time>2026-04-26T09:54:09.999Z</time></trkpt><trkpt lat="45.44288365665531" lon="11.477107433087888"><ele>297.0</ele><time>2026-04-26T09:54:11.999Z</time></trkpt><trkpt lat="45.442955331090126" lon="11.477084072172762"><ele>297.0</ele><time>2026-04-26T09:54:13.999Z</time></trkpt><trkpt lat="45.443034600336965" lon="11.477058808242314"><ele>297.0</ele><time>2026-04-26T09:54:15.999Z</time></trkpt><trkpt lat="45.44309692116346" lon="11.477038945938713"><ele>297.0</ele><time>2026-04-26T09:54:17.999Z</time></trkpt><trkpt lat="45.443170900411054" lon="11.477017056036031"><ele>297.0</ele><time>2026-04-26T09:54:19.999Z</time></trkpt><trkpt lat="45.44323949414591" lon="11.476996915194494"><ele>297.8333333333333</ele><time>2026-04-26T09:54:21.999Z</time></trkpt><trkpt lat="45.44330704464095" lon="11.476981406081427"><ele>298.6666666666667</ele><time>2026-04-26T09:54:23.999Z</time></trkpt><trkpt lat="45.44339462408568" lon="11.476972586066903"><ele>299.5</ele><time>2026-04-26T09:54:26.999Z</time></trkpt><trkpt lat="45.44345778959428" lon="11.476927655972524"><ele>300.33333333333337</ele><time>2026-04-26T09:54:29.999Z</time></trkpt><trkpt lat="45.44353400861651" lon="11.476955910256113"><ele>301.1666666666667</ele><time>2026-04-26T09:54:32.999Z</time></trkpt><trkpt lat="45.44361291842973" lon="11.476957676428087"><ele>302.0</ele><time>2026-04-26T09:54:35.998Z</time></trkpt><trkpt lat="45.44374558556014" lon="11.476966071943872"><ele>301.33333333333337</ele><time>2026-04-26T09:54:38.998Z</time></trkpt><trkpt lat="45.44382519393126" lon="11.476984945965924"><ele>300.6666666666667</ele><time>2026-04-26T09:54:39.998Z</time></trkpt><trkpt lat="45.443922783592264" lon="11.476941650699903"><ele>300.0</ele><time>2026-04-26T09:54:41.998Z</time></trkpt><trkpt lat="45.444010005742285" lon="11.476916307053914"><ele>299.3333333333333</ele><time>2026-04-26T09:54:43.998Z</time></trkpt><trkpt lat="45.44409305311567" lon="11.476911210760397"><ele>298.66666666666663</ele><time>2026-04-26T09:54:45.998Z</time></trkpt><trkpt lat="45.44416827704512" lon="11.476941248374214"><ele>298.0</ele><time>2026-04-26T09:54:47.998Z</time></trkpt><trkpt lat="45.444255552890155" lon="11.476974047251696"><ele>298.0</ele><time>2026-04-26T09:54:50.998Z</time></trkpt><trkpt lat="45.44432137844221" lon="11.47700158139352"><ele>298.0</ele><time>2026-04-26T09:54:54.998Z</time></trkpt><trkpt lat="45.44439057058608" lon="11.47702015789154"><ele>298.0</ele><time>2026-04-26T09:54:57.998Z</time></trkpt><trkpt lat="45.44446360049788" lon="11.47705376390376"><ele>298.0</ele><time>2026-04-26T09:55:00.998Z</time></trkpt><trkpt lat="45.44453119206164" lon="11.477085998462615"><ele>298.0</ele><time>2026-04-26T09:55:02.998Z</time></trkpt><trkpt lat="45.44461261815825" lon="11.477126164366863"><ele>298.0</ele><time>2026-04-26T09:55:04.998Z</time></trkpt><trkpt lat="45.44468059782706" lon="11.477196852515304"><ele>300.8333333333333</ele><time>2026-04-26T09:55:06.998Z</time></trkpt><trkpt lat="45.444749179610014" lon="11.477247773038016"><ele>303.66666666666663</ele><time>2026-04-26T09:55:08.998Z</time></trkpt><trkpt lat="45.44481032359989" lon="11.477285390258425"><ele>306.5</ele><time>2026-04-26T09:55:10.998Z</time></trkpt><trkpt lat="45.444874886927785" lon="11.477332716015992"><ele>309.3333333333333</ele><time>2026-04-26T09:55:12.998Z</time></trkpt><trkpt lat="45.44494798464079" lon="11.477423117083907"><ele>312.1666666666667</ele><time>2026-04-26T09:55:15.998Z</time></trkpt><trkpt lat="45.44496269779782" lon="11.477521004790033"><ele>315.0</ele><time>2026-04-26T09:55:17.997Z</time></trkpt><trkpt lat="45.444954379419094" lon="11.47763468200051"><ele>315.0</ele><time>2026-04-26T09:55:19.997Z</time></trkpt><trkpt lat="45.444920404144256" lon="11.477736685248372"><ele>315.0</ele><time>2026-04-26T09:55:22.997Z</time></trkpt><trkpt lat="45.444872384520636" lon="11.477823474632258"><ele>315.0</ele><time>2026-04-26T09:55:26Z</time></trkpt><trkpt lat="45.44484005162927" lon="11.477902881003445"><ele>315.0</ele><time>2026-04-26T09:55:28Z</time></trkpt><trkpt lat="45.444785290618164" lon="11.47795558708393"><ele>315.0</ele><time>2026-04-26T09:55:30Z</time></trkpt><trkpt lat="45.44470859587936" lon="11.478028592218513"><ele>315.0</ele><time>2026-04-26T09:55:33Z</time></trkpt><trkpt lat="45.44465302921424" lon="11.47812227564145"><ele>316.3333333333333</ele><time>2026-04-26T09:55:36Z</time></trkpt><trkpt lat="45.444589434186824" lon="11.478197954284841"><ele>317.6666666666667</ele><time>2026-04-26T09:55:39Z</time></trkpt><trkpt lat="45.44452634647507" lon="11.478270545899916"><ele>319.0</ele><time>2026-04-26T09:55:42Z</time></trkpt><trkpt lat="45.44446031068389" lon="11.478361520843196"><ele>320.33333333333337</ele><time>2026-04-26T09:55:45Z</time></trkpt><trkpt lat="45.4444056071826" lon="11.478418034470362"><ele>321.6666666666667</ele><time>2026-04-26T09:55:47Z</time></trkpt><trkpt lat="45.44432545087654" lon="11.478469433939729"><ele>323.0</ele><time>2026-04-26T09:55:49Z</time></trkpt><trkpt lat="45.44427141840716" lon="11.478537044254077"><ele>323.00000000000006</ele><time>2026-04-26T09:55:51Z</time></trkpt><trkpt lat="45.44422844976773" lon="11.478609640795515"><ele>323.0</ele><time>2026-04-26T09:55:53Z</time></trkpt><trkpt lat="45.44416496474856" lon="11.478663935182718"><ele>323.0</ele><time>2026-04-26T09:55:55Z</time></trkpt><trkpt lat="45.444147320940004" lon="11.478766916697856"><ele>323.0</ele><time>2026-04-26T09:55:57Z</time></trkpt><trkpt lat="45.444138026511126" lon="11.478860167863338"><ele>323.0</ele><time>2026-04-26T09:55:58.999Z</time></trkpt><trkpt lat="45.44410566542595" lon="11.478940768001408"><ele>323.00000000000006</ele><time>2026-04-26T09:56:00.999Z</time></trkpt><trkpt lat="45.44406112561564" lon="11.479053971149638"><ele>323.0</ele><time>2026-04-26T09:56:03.999Z</time></trkpt><trkpt lat="45.444027094834574" lon="11.479132216315392"><ele>324.83333333333337</ele><time>2026-04-26T09:56:05.999Z</time></trkpt><trkpt lat="45.444004238899815" lon="11.479255581560402"><ele>326.6666666666667</ele><time>2026-04-26T09:56:08.999Z</time></trkpt><trkpt lat="45.44396448968825" lon="11.479381366646336"><ele>328.5</ele><time>2026-04-26T09:56:11.999Z</time></trkpt><trkpt lat="45.44394652080082" lon="11.479472503898368"><ele>330.3333333333333</ele><time>2026-04-26T09:56:13.999Z</time></trkpt><trkpt lat="45.443917728822036" lon="11.47956078910564"><ele>332.16666666666663</ele><time>2026-04-26T09:56:15.999Z</time></trkpt><trkpt lat="45.44391560885688" lon="11.479684997724554"><ele>334.0</ele><time>2026-04-26T09:56:18.999Z</time></trkpt><trkpt lat="45.44393406380896" lon="11.47979181803093"><ele>334.0</ele><time>2026-04-26T09:56:21.999Z</time></trkpt><trkpt lat="45.44397002063794" lon="11.479877802873727"><ele>334.0</ele><time>2026-04-26T09:56:24.999Z</time></trkpt><trkpt lat="45.444017225905796" lon="11.479947809650023"><ele>334.0</ele><time>2026-04-26T09:56:27.999Z</time></trkpt><trkpt lat="45.44407334374249" lon="11.479999553060946"><ele>334.0</ele><time>2026-04-26T09:56:30.999Z</time></trkpt><trkpt lat="45.44415598202248" lon="11.480010217049927"><ele>334.0</ele><time>2026-04-26T09:56:34.999Z</time></trkpt><trkpt lat="45.444236271097296" lon="11.480008005658338"><ele>334.0</ele><time>2026-04-26T09:56:38.998Z</time></trkpt><trkpt lat="45.444299245353626" lon="11.480013413327725"><ele>334.0</ele><time>2026-04-26T09:56:41.998Z</time></trkpt><trkpt lat="45.44439344845517" lon="11.4799977753546"><ele>334.0</ele><time>2026-04-26T09:56:44.998Z</time></trkpt><trkpt lat="45.444459179822076" lon="11.480006777333845"><ele>334.0</ele><time>2026-04-26T09:56:47.998Z</time></trkpt><trkpt lat="45.44454629280306" lon="11.479964215113995"><ele>334.0</ele><time>2026-04-26T09:56:50.998Z</time></trkpt><trkpt lat="45.44461689827083" lon="11.479976834934018"><ele>334.0</ele><time>2026-04-26T09:56:53.998Z</time></trkpt><trkpt lat="45.444687769004766" lon="11.479962609685744"><ele>334.0</ele><time>2026-04-26T09:56:56.998Z</time></trkpt><trkpt lat="45.44477226654468" lon="11.479937832727066"><ele>334.0</ele><time>2026-04-26T09:56:59.998Z</time></trkpt><trkpt lat="45.444855937412164" lon="11.479945806980336"><ele>336.16666666666663</ele><time>2026-04-26T09:57:02.998Z</time></trkpt><trkpt lat="45.44493016347175" lon="11.479894344629367"><ele>338.3333333333333</ele><time>2026-04-26T09:57:05.998Z</time></trkpt><trkpt lat="45.44502693820259" lon="11.47990667184631"><ele>340.5</ele><time>2026-04-26T09:57:08.998Z</time></trkpt><trkpt lat="45.445115067445" lon="11.47991171134589"><ele>342.6666666666667</ele><time>2026-04-26T09:57:11.998Z</time></trkpt><trkpt lat="45.44519061132671" lon="11.479895048165183"><ele>344.83333333333337</ele><time>2026-04-26T09:57:14.998Z</time></trkpt><trkpt lat="45.445258821397864" lon="11.479846082969827"><ele>347.0</ele><time>2026-04-26T09:57:17.998Z</time></trkpt><trkpt lat="45.44532986036854" lon="11.479799863698736"><ele>347.0</ele><time>2026-04-26T09:57:20.997Z</time></trkpt><trkpt lat="45.44539920963778" lon="11.47976234554333"><ele>347.0</ele><time>2026-04-26T09:57:23.997Z</time></trkpt><trkpt lat="45.44548265484037" lon="11.479762376644697"><ele>347.0</ele><time>2026-04-26T09:57:26.997Z</time></trkpt><trkpt lat="45.4455579187479" lon="11.479772822962184"><ele>347.0</ele><time>2026-04-26T09:57:30Z</time></trkpt><trkpt lat="45.44563102171556" lon="11.479761506392261"><ele>347.0</ele><time>2026-04-26T09:57:33Z</time></trkpt><trkpt lat="45.445696317798784" lon="11.479750732437466"><ele>347.0</ele><time>2026-04-26T09:58:42.999Z</time></trkpt><trkpt lat="45.445763151896124" lon="11.479746869586105"><ele>347.0</ele><time>2026-04-26T09:58:45.998Z</time></trkpt><trkpt lat="45.44585535496743" lon="11.479786646643369"><ele>347.6666666666667</ele><time>2026-04-26T09:58:48.998Z</time></trkpt><trkpt lat="45.44591398220123" lon="11.47984744026416"><ele>348.33333333333337</ele><time>2026-04-26T09:58:50.998Z</time></trkpt><trkpt lat="45.445987041317714" lon="11.479900424297295"><ele>349.0</ele><time>2026-04-26T09:58:53.998Z</time></trkpt><trkpt lat="45.4460656978822" lon="11.479937333826472"><ele>349.6666666666667</ele><time>2026-04-26T09:58:56.998Z</time></trkpt><trkpt lat="45.44613566643164" lon="11.480011203181382"><ele>350.3333333333333</ele><time>2026-04-26T09:58:59.998Z</time></trkpt><trkpt lat="45.44619659529709" lon="11.4800389520404"><ele>351.0</ele><time>2026-04-26T09:59:04.998Z</time></trkpt><trkpt lat="45.44627095881001" lon="11.480112750229353"><ele>352.00000000000006</ele><time>2026-04-26T09:59:06.998Z</time></trkpt><trkpt lat="45.44633343829675" lon="11.480161184877982"><ele>353.0</ele><time>2026-04-26T09:59:08.998Z</time></trkpt><trkpt lat="45.446396575797884" lon="11.480229409129468"><ele>354.0</ele><time>2026-04-26T09:59:11.998Z</time></trkpt><trkpt lat="45.446452574815545" lon="11.480275018599349"><ele>355.0</ele><time>2026-04-26T09:59:13.998Z</time></trkpt><trkpt lat="45.44651933687442" lon="11.480329257218845"><ele>356.0</ele><time>2026-04-26T09:59:15.998Z</time></trkpt><trkpt lat="45.44657648073457" lon="11.480379876324175"><ele>357.00000000000006</ele><time>2026-04-26T09:59:17.998Z</time></trkpt><trkpt lat="45.44665825971958" lon="11.48042875426737"><ele>358.0</ele><time>2026-04-26T09:59:20.998Z</time></trkpt><trkpt lat="45.446704057674566" lon="11.480512980127553"><ele>358.0</ele><time>2026-04-26T09:59:22.998Z</time></trkpt><trkpt lat="45.446740540476846" lon="11.480600562168195"><ele>358.0</ele><time>2026-04-26T09:59:24.998Z</time></trkpt><trkpt lat="45.44676366180855" lon="11.480746258300343"><ele>358.0</ele><time>2026-04-26T09:59:26.997Z</time></trkpt><trkpt lat="45.44679073372283" lon="11.48087142306796"><ele>358.0</ele><time>2026-04-26T09:59:28.997Z</time></trkpt><trkpt lat="45.446798839171485" lon="11.480979048800242"><ele>358.0</ele><time>2026-04-26T09:59:30.997Z</time></trkpt><trkpt lat="45.44678675666905" lon="11.48112158835125"><ele>358.0</ele><time>2026-04-26T09:59:32.997Z</time></trkpt><trkpt lat="45.44677999210147" lon="11.48123406645451"><ele>358.14285714285717</ele><time>2026-04-26T09:59:34.997Z</time></trkpt><trkpt lat="45.44675314606666" lon="11.481323508269586"><ele>358.2857142857143</ele><time>2026-04-26T09:59:38Z</time></trkpt><trkpt lat="45.446729670074724" lon="11.48143962561571"><ele>358.42857142857144</ele><time>2026-04-26T09:59:41Z</time></trkpt><trkpt lat="45.44671142385287" lon="11.4815265272321"><ele>358.57142857142856</ele><time>2026-04-26T09:59:43Z</time></trkpt><trkpt lat="45.44669699472285" lon="11.481641030774629"><ele>358.7142857142857</ele><time>2026-04-26T09:59:46Z</time></trkpt><trkpt lat="45.4466937441476" lon="11.481739911082025"><ele>358.8571428571429</ele><time>2026-04-26T09:59:49Z</time></trkpt><trkpt lat="45.44668343557347" lon="11.481831755101878"><ele>359.0</ele><time>2026-04-26T09:59:51Z</time></trkpt><trkpt lat="45.446690792658345" lon="11.481967073506"><ele>359.0</ele><time>2026-04-26T09:59:54Z</time></trkpt><trkpt lat="45.446705108929656" lon="11.482064763580562"><ele>359.0</ele><time>2026-04-26T09:59:57Z</time></trkpt><trkpt lat="45.446710092282416" lon="11.482160741074043"><ele>359.0</ele><time>2026-04-26T10:00:00Z</time></trkpt><trkpt lat="45.44673924041784" lon="11.482242732943469"><ele>359.0</ele><time>2026-04-26T10:00:03Z</time></trkpt><trkpt lat="45.44676390500469" lon="11.482325335630065"><ele>359.0</ele><time>2026-04-26T10:00:06Z</time></trkpt><trkpt lat="45.44678522441871" lon="11.482412713879581"><ele>359.0</ele><time>2026-04-26T10:00:09Z</time></trkpt><trkpt lat="45.44681765178412" lon="11.482528671361846"><ele>359.0</ele><time>2026-04-26T10:00:11.999Z</time></trkpt><trkpt lat="45.446832218706575" lon="11.482618652899603"><ele>359.1666666666667</ele><time>2026-04-26T10:00:13.999Z</time></trkpt><trkpt lat="45.446853532522304" lon="11.482704525212485"><ele>359.33333333333337</ele><time>2026-04-26T10:00:15.999Z</time></trkpt><trkpt lat="45.446882009281964" lon="11.482805118045519"><ele>359.5</ele><time>2026-04-26T10:00:18.999Z</time></trkpt><trkpt lat="45.44691018067687" lon="11.482906340900737"><ele>359.6666666666667</ele><time>2026-04-26T10:00:21.999Z</time></trkpt><trkpt lat="45.446948405974496" lon="11.482995190169502"><ele>359.8333333333333</ele><time>2026-04-26T10:00:24.999Z</time></trkpt><trkpt lat="45.44701303495196" lon="11.483109535099523"><ele>360.0</ele><time>2026-04-26T10:00:27.999Z</time></trkpt><trkpt lat="45.44707106605887" lon="11.483178132785799"><ele>362.0</ele><time>2026-04-26T10:00:30.999Z</time></trkpt><trkpt lat="45.44713480995493" lon="11.48326501218617"><ele>364.0</ele><time>2026-04-26T10:00:33.999Z</time></trkpt><trkpt lat="45.44719115807884" lon="11.483338606976064"><ele>366.0</ele><time>2026-04-26T10:00:36.999Z</time></trkpt><trkpt lat="45.44725232228215" lon="11.483418881611323"><ele>368.0</ele><time>2026-04-26T10:00:39.999Z</time></trkpt><trkpt lat="45.447315559317545" lon="11.483494071587607"><ele>370.0</ele><time>2026-04-26T10:00:42.999Z</time></trkpt><trkpt lat="45.447362179106584" lon="11.48356717985625"><ele>372.0</ele><time>2026-04-26T10:00:45.999Z</time></trkpt><trkpt lat="45.44739725895985" lon="11.483642665437038"><ele>372.0</ele><time>2026-04-26T10:00:47.999Z</time></trkpt><trkpt lat="45.44746253995468" lon="11.483745415532688"><ele>372.0</ele><time>2026-04-26T10:00:50.998Z</time></trkpt><trkpt lat="45.44750375426357" lon="11.4838213158652"><ele>372.0</ele><time>2026-04-26T10:00:52.998Z</time></trkpt><trkpt lat="45.44756831900809" lon="11.483936241702068"><ele>372.0</ele><time>2026-04-26T10:00:55.998Z</time></trkpt><trkpt lat="45.44761102185361" lon="11.484006073669365"><ele>372.0</ele><time>2026-04-26T10:00:57.998Z</time></trkpt><trkpt lat="45.4476419274131" lon="11.48408537647522"><ele>372.0</ele><time>2026-04-26T10:00:59.998Z</time></trkpt><trkpt lat="45.447696297135984" lon="11.484193885135923"><ele>371.8571428571429</ele><time>2026-04-26T10:01:02.998Z</time></trkpt><trkpt lat="45.44773390127904" lon="11.48426591446656"><ele>371.7142857142857</ele><time>2026-04-26T10:01:04.998Z</time></trkpt><trkpt lat="45.447771233900966" lon="11.48434081777966"><ele>371.57142857142856</ele><time>2026-04-26T10:01:06.998Z</time></trkpt><trkpt lat="45.44781831335243" lon="11.48443764921164"><ele>371.42857142857144</ele><time>2026-04-26T10:01:09.998Z</time></trkpt><trkpt lat="45.44786286075853" lon="11.484519527737158"><ele>371.2857142857143</ele><time>2026-04-26T10:01:12.998Z</time></trkpt><trkpt lat="45.44790540290712" lon="11.484619016620968"><ele>371.14285714285717</ele><time>2026-04-26T10:01:15.998Z</time></trkpt><trkpt lat="45.44794813887901" lon="11.484707056774992"><ele>371.0</ele><time>2026-04-26T10:01:18.998Z</time></trkpt><trkpt lat="45.447985967846" lon="11.484815404214054"><ele>372.4</ele><time>2026-04-26T10:01:21.998Z</time></trkpt><trkpt lat="45.44803166386593" lon="11.484910987188654"><ele>373.8</ele><time>2026-04-26T10:01:24.998Z</time></trkpt><trkpt lat="45.44806695691305" lon="11.485005036322633"><ele>375.2</ele><time>2026-04-26T10:01:27.998Z</time></trkpt><trkpt lat="45.448097102193366" lon="11.485100246471358"><ele>376.59999999999997</ele><time>2026-04-26T10:01:30.998Z</time></trkpt><trkpt lat="45.44816033732432" lon="11.485237478834174"><ele>378.0</ele><time>2026-04-26T10:01:33.997Z</time></trkpt><trkpt lat="45.448185314384034" lon="11.485401017251332"><ele>378.4</ele><time>2026-04-26T10:01:35.997Z</time></trkpt><trkpt lat="45.44822163805418" lon="11.485521394699427"><ele>378.79999999999995</ele><time>2026-04-26T10:01:37.997Z</time></trkpt><trkpt lat="45.44823539748749" lon="11.485640951982797"><ele>379.2</ele><time>2026-04-26T10:01:39.997Z</time></trkpt><trkpt lat="45.448258239591155" lon="11.485751494412202"><ele>379.6</ele><time>2026-04-26T10:01:42Z</time></trkpt><trkpt lat="45.44828892820278" lon="11.485879213814425"><ele>380.0</ele><time>2026-04-26T10:01:44Z</time></trkpt><trkpt lat="45.44833599651217" lon="11.486014516744103"><ele>380.0</ele><time>2026-04-26T10:01:46Z</time></trkpt><trkpt lat="45.448365536419566" lon="11.486154123911605"><ele>380.0</ele><time>2026-04-26T10:01:48Z</time></trkpt><trkpt lat="45.44841714938007" lon="11.486291585798494"><ele>380.0</ele><time>2026-04-26T10:01:50Z</time></trkpt><trkpt lat="45.448439890562746" lon="11.486380364511128"><ele>380.0</ele><time>2026-04-26T10:01:51Z</time></trkpt><trkpt lat="45.44847070039158" lon="11.486465158859511"><ele>380.0</ele><time>2026-04-26T10:01:52Z</time></trkpt><trkpt lat="45.44850364174387" lon="11.486622063440429"><ele>380.0</ele><time>2026-04-26T10:01:54Z</time></trkpt><trkpt lat="45.448547662455674" lon="11.486761404643959"><ele>380.0</ele><time>2026-04-26T10:01:56Z</time></trkpt><trkpt lat="45.44860011728549" lon="11.486813479611873"><ele>380.0</ele><time>2026-04-26T10:01:57Z</time></trkpt><trkpt lat="45.44871365789872" lon="11.486902306045629"><ele>380.0</ele><time>2026-04-26T10:01:59Z</time></trkpt><trkpt lat="45.448780563388105" lon="11.486960129095404"><ele>380.0</ele><time>2026-04-26T10:02:00Z</time></trkpt><trkpt lat="45.44884279453192" lon="11.487016914112278"><ele>380.0</ele><time>2026-04-26T10:02:01Z</time></trkpt><trkpt lat="45.44890199017187" lon="11.487086247636716"><ele>380.0</ele><time>2026-04-26T10:02:02Z</time></trkpt><trkpt lat="45.44897183409503" lon="11.487147163556935"><ele>380.0</ele><time>2026-04-26T10:02:03Z</time></trkpt><trkpt lat="45.44903581504463" lon="11.487297427303274"><ele>380.0</ele><time>2026-04-26T10:02:05Z</time></trkpt><trkpt lat="45.44909807906108" lon="11.487435343159348"><ele>380.0</ele><time>2026-04-26T10:02:07Z</time></trkpt><trkpt lat="45.449141604757315" lon="11.487567807268768"><ele>379.6</ele><time>2026-04-26T10:02:09Z</time></trkpt><trkpt lat="45.449171318119625" lon="11.487683480064515"><ele>379.2</ele><time>2026-04-26T10:02:11Z</time></trkpt><trkpt lat="45.44924874340291" lon="11.48775874463568"><ele>378.79999999999995</ele><time>2026-04-26T10:02:13Z</time></trkpt><trkpt lat="45.449329955655855" lon="11.487840722018785"><ele>378.4</ele><time>2026-04-26T10:02:14.999Z</time></trkpt><trkpt lat="45.449418176802126" lon="11.487926992633446"><ele>378.0</ele><time>2026-04-26T10:02:16.999Z</time></trkpt><trkpt lat="45.44948895869193" lon="11.487971560729205"><ele>378.2857142857143</ele><time>2026-04-26T10:02:18.999Z</time></trkpt><trkpt lat="45.44954327634542" lon="11.488035105370319"><ele>378.57142857142856</ele><time>2026-04-26T10:02:21.999Z</time></trkpt><trkpt lat="45.44959805616744" lon="11.488085727372939"><ele>378.8571428571429</ele><time>2026-04-26T10:02:29.999Z</time></trkpt><trkpt lat="45.449666415721964" lon="11.488104281516721"><ele>379.1428571428571</ele><time>2026-04-26T10:02:31.999Z</time></trkpt><trkpt lat="45.44972507360385" lon="11.48806834831083"><ele>379.42857142857144</ele><time>2026-04-26T10:02:33.999Z</time></trkpt><trkpt lat="45.44981279009096" lon="11.488122550998476"><ele>379.7142857142857</ele><time>2026-04-26T10:02:36.999Z</time></trkpt><trkpt lat="45.44987759163489" lon="11.48815644126859"><ele>380.0</ele><time>2026-04-26T10:02:37.999Z</time></trkpt><trkpt lat="45.449938008832135" lon="11.488198364091867"><ele>380.0</ele><time>2026-04-26T10:02:38.999Z</time></trkpt><trkpt lat="45.45003869922672" lon="11.488274801583149"><ele>380.0</ele><time>2026-04-26T10:02:40.999Z</time></trkpt><trkpt lat="45.450109406489126" lon="11.488341127372216"><ele>380.0</ele><time>2026-04-26T10:02:42.999Z</time></trkpt><trkpt lat="45.45019277684453" lon="11.488420537573896"><ele>380.0</ele><time>2026-04-26T10:02:45.999Z</time></trkpt><trkpt lat="45.450254160994646" lon="11.488496301263611"><ele>380.0</ele><time>2026-04-26T10:02:47.999Z</time></trkpt><trkpt lat="45.45032677040366" lon="11.488543743961813"><ele>380.0</ele><time>2026-04-26T10:02:49.999Z</time></trkpt><trkpt lat="45.45039440481934" lon="11.488573865755292"><ele>380.0</ele><time>2026-04-26T10:02:52.999Z</time></trkpt><trkpt lat="45.45046928324635" lon="11.488616938235792"><ele>380.0</ele><time>2026-04-26T10:02:55.998Z</time></trkpt><trkpt lat="45.45054745130015" lon="11.488686896224303"><ele>380.0</ele><time>2026-04-26T10:02:58.998Z</time></trkpt><trkpt lat="45.4506091376338" lon="11.488729781791127"><ele>380.0</ele><time>2026-04-26T10:03:00.998Z</time></trkpt><trkpt lat="45.45066977468646" lon="11.488778882794936"><ele>380.0</ele><time>2026-04-26T10:03:02.998Z</time></trkpt><trkpt lat="45.450729161557206" lon="11.488811284181756"><ele>380.0</ele><time>2026-04-26T10:03:04.998Z</time></trkpt><trkpt lat="45.450805919079336" lon="11.488876517658827"><ele>380.5</ele><time>2026-04-26T10:03:07.998Z</time></trkpt><trkpt lat="45.45088709369051" lon="11.488937155694849"><ele>381.0</ele><time>2026-04-26T10:03:10.998Z</time></trkpt><trkpt lat="45.45095146165099" lon="11.488995957558378"><ele>381.5</ele><time>2026-04-26T10:03:13.998Z</time></trkpt><trkpt lat="45.451029521576714" lon="11.489056985137706"><ele>382.0</ele><time>2026-04-26T10:03:16.998Z</time></trkpt><trkpt lat="45.45111566018267" lon="11.489117606595993"><ele>382.5</ele><time>2026-04-26T10:03:19.998Z</time></trkpt><trkpt lat="45.45118352463037" lon="11.48917746793499"><ele>383.0</ele><time>2026-04-26T10:03:22.998Z</time></trkpt><trkpt lat="45.45124088268061" lon="11.489222396888579"><ele>385.1428571428571</ele><time>2026-04-26T10:03:24.998Z</time></trkpt><trkpt lat="45.45130242738107" lon="11.489274595393454"><ele>387.2857142857143</ele><time>2026-04-26T10:03:26.998Z</time></trkpt><trkpt lat="45.45136354182416" lon="11.48930802872634"><ele>389.42857142857144</ele><time>2026-04-26T10:03:28.998Z</time></trkpt><trkpt lat="45.451418315226555" lon="11.48935929054841"><ele>391.57142857142856</ele><time>2026-04-26T10:03:30.998Z</time></trkpt><trkpt lat="45.45150279075591" lon="11.489404856983"><ele>393.7142857142857</ele><time>2026-04-26T10:03:33.998Z</time></trkpt><trkpt lat="45.45156218632721" lon="11.489468133152974"><ele>395.85714285714283</ele><time>2026-04-26T10:03:36.997Z</time></trkpt><trkpt lat="45.45164003546877" lon="11.489489121835621"><ele>398.0</ele><time>2026-04-26T10:03:39.997Z</time></trkpt><trkpt lat="45.45171398230158" lon="11.489520423372774"><ele>397.99999999999994</ele><time>2026-04-26T10:03:41.997Z</time></trkpt><trkpt lat="45.45179990108199" lon="11.489577141634669"><ele>398.0</ele><time>2026-04-26T10:03:43.997Z</time></trkpt><trkpt lat="45.451876152195524" lon="11.48963104463555"><ele>398.0</ele><time>2026-04-26T10:03:45.997Z</time></trkpt><trkpt lat="45.45194095539669" lon="11.489667573572046"><ele>398.0</ele><time>2026-04-26T10:03:49Z</time></trkpt><trkpt lat="45.452024083147" lon="11.489728365037704"><ele>397.99999999999994</ele><time>2026-04-26T10:03:52Z</time></trkpt><trkpt lat="45.45210441912947" lon="11.489795227804393"><ele>398.0</ele><time>2026-04-26T10:03:55Z</time></trkpt><trkpt lat="45.45216675550747" lon="11.489810071801339"><ele>395.59999999999997</ele><time>2026-04-26T10:03:58Z</time></trkpt><trkpt lat="45.45223518885741" lon="11.48983493194244"><ele>393.2</ele><time>2026-04-26T10:03:59Z</time></trkpt><trkpt lat="45.45230425534429" lon="11.489978300241507"><ele>390.8</ele><time>2026-04-26T10:04:01Z</time></trkpt><trkpt lat="45.452339862796606" lon="11.490092683574112"><ele>388.4</ele><time>2026-04-26T10:04:02Z</time></trkpt><trkpt lat="45.45237738440135" lon="11.490224390231836"><ele>386.0</ele><time>2026-04-26T10:04:03Z</time></trkpt><trkpt lat="45.452414144996524" lon="11.490345429798754"><ele>385.99999999999994</ele><time>2026-04-26T10:04:04Z</time></trkpt><trkpt lat="45.452449907950424" lon="11.490463173195124"><ele>386.0</ele><time>2026-04-26T10:04:05Z</time></trkpt><trkpt lat="45.45247590647696" lon="11.490579496682866"><ele>386.0</ele><time>2026-04-26T10:04:06Z</time></trkpt><trkpt lat="45.45250697385844" lon="11.49069252719741"><ele>386.0</ele><time>2026-04-26T10:04:07Z</time></trkpt><trkpt lat="45.4525278183023" lon="11.490817488238283"><ele>385.99999999999994</ele><time>2026-04-26T10:04:08Z</time></trkpt><trkpt lat="45.45254127743665" lon="11.490947612477502"><ele>386.0</ele><time>2026-04-26T10:04:09Z</time></trkpt><trkpt lat="45.45255264491192" lon="11.491083776723668"><ele>386.0</ele><time>2026-04-26T10:04:10Z</time></trkpt><trkpt lat="45.4525663465738" lon="11.49121373343374"><ele>386.0</ele><time>2026-04-26T10:04:11Z</time></trkpt><trkpt lat="45.45254349791524" lon="11.491354045027766"><ele>386.0</ele><time>2026-04-26T10:04:12Z</time></trkpt><trkpt lat="45.45256960451748" lon="11.491477864941114"><ele>386.0</ele><time>2026-04-26T10:04:13Z</time></trkpt><trkpt lat="45.45263713724003" lon="11.491591725716665"><ele>386.0</ele><time>2026-04-26T10:04:14Z</time></trkpt><trkpt lat="45.452713457652955" lon="11.49169517925658"><ele>385.8333333333333</ele><time>2026-04-26T10:04:15Z</time></trkpt><trkpt lat="45.45279197492897" lon="11.49177243172928"><ele>385.66666666666663</ele><time>2026-04-26T10:04:16Z</time></trkpt><trkpt lat="45.452856585010714" lon="11.491837322304965"><ele>385.5</ele><time>2026-04-26T10:04:17Z</time></trkpt><trkpt lat="45.45290950426883" lon="11.491922347675699"><ele>385.33333333333337</ele><time>2026-04-26T10:04:18Z</time></trkpt><trkpt lat="45.45294929479662" lon="11.492037295815816"><ele>385.1666666666667</ele><time>2026-04-26T10:04:19Z</time></trkpt><trkpt lat="45.452996112440495" lon="11.492170415929662"><ele>385.0</ele><time>2026-04-26T10:04:20Z</time></trkpt><trkpt lat="45.45303356660255" lon="11.492326217285848"><ele>379.75</ele><time>2026-04-26T10:04:21Z</time></trkpt><trkpt lat="45.45307334089952" lon="11.492488925708377"><ele>374.5</ele><time>2026-04-26T10:04:21.999Z</time></trkpt><trkpt lat="45.45312908492071" lon="11.492639235124493"><ele>369.25</ele><time>2026-04-26T10:04:22.999Z</time></trkpt><trkpt lat="45.45320378021765" lon="11.49278639649274"><ele>364.0</ele><time>2026-04-26T10:04:23.999Z</time></trkpt><trkpt lat="45.453281680641176" lon="11.492944757196122"><ele>364.0</ele><time>2026-04-26T10:04:24.999Z</time></trkpt><trkpt lat="45.45336570564258" lon="11.493095953394482"><ele>364.0</ele><time>2026-04-26T10:04:25.999Z</time></trkpt><trkpt lat="45.453440826297616" lon="11.493225155241989"><ele>364.0</ele><time>2026-04-26T10:04:26.999Z</time></trkpt><trkpt lat="45.45351503701993" lon="11.493360954454204"><ele>364.0</ele><time>2026-04-26T10:04:27.999Z</time></trkpt><trkpt lat="45.45358844566059" lon="11.493483020951048"><ele>364.0</ele><time>2026-04-26T10:04:28.999Z</time></trkpt><trkpt lat="45.45365730468936" lon="11.493607513819681"><ele>364.0</ele><time>2026-04-26T10:04:29.999Z</time></trkpt><trkpt lat="45.45371776363871" lon="11.493701400943948"><ele>364.0</ele><time>2026-04-26T10:04:30.999Z</time></trkpt><trkpt lat="45.45377962106101" lon="11.493782967226286"><ele>364.0</ele><time>2026-04-26T10:04:31.999Z</time></trkpt><trkpt lat="45.45384012240547" lon="11.493866230178426"><ele>364.0</ele><time>2026-04-26T10:04:32.999Z</time></trkpt><trkpt lat="45.45390564596783" lon="11.493933019390253"><ele>365.0</ele><time>2026-04-26T10:04:33.999Z</time></trkpt><trkpt lat="45.45396739325765" lon="11.493983779100805"><ele>366.0</ele><time>2026-04-26T10:04:34.999Z</time></trkpt><trkpt lat="45.454033585666316" lon="11.494019237540599"><ele>367.0</ele><time>2026-04-26T10:04:35.999Z</time></trkpt><trkpt lat="45.45414254199221" lon="11.49406162676139"><ele>368.0</ele><time>2026-04-26T10:04:37.999Z</time></trkpt><trkpt lat="45.45424294674306" lon="11.49409809340728"><ele>369.0</ele><time>2026-04-26T10:04:39.999Z</time></trkpt><trkpt lat="45.45431483377956" lon="11.494161886650872"><ele>370.0</ele><time>2026-04-26T10:04:41.999Z</time></trkpt><trkpt lat="45.454420144699746" lon="11.494168919747375"><ele>370.0</ele><time>2026-04-26T10:04:43.999Z</time></trkpt><trkpt lat="45.45454609987922" lon="11.494237911430213"><ele>370.0</ele><time>2026-04-26T10:04:45.999Z</time></trkpt><trkpt lat="45.45462588885517" lon="11.494282035968334"><ele>370.0</ele><time>2026-04-26T10:04:46.999Z</time></trkpt><trkpt lat="45.454708696149154" lon="11.49432830600419"><ele>370.0</ele><time>2026-04-26T10:04:47.999Z</time></trkpt><trkpt lat="45.45480648046707" lon="11.49438567981316"><ele>370.0</ele><time>2026-04-26T10:04:48.999Z</time></trkpt><trkpt lat="45.45491412887267" lon="11.494428045358813"><ele>368.8</ele><time>2026-04-26T10:04:49.999Z</time></trkpt><trkpt lat="45.45501670757509" lon="11.494445156736429"><ele>367.6</ele><time>2026-04-26T10:04:50.999Z</time></trkpt><trkpt lat="45.45512564941285" lon="11.494449961348092"><ele>366.4</ele><time>2026-04-26T10:04:51.999Z</time></trkpt><trkpt lat="45.45523491468821" lon="11.494480067183835"><ele>365.2</ele><time>2026-04-26T10:04:52.999Z</time></trkpt><trkpt lat="45.45534780416508" lon="11.494468560885723"><ele>364.0</ele><time>2026-04-26T10:04:53.999Z</time></trkpt><trkpt lat="45.455452008655506" lon="11.494439124304124"><ele>361.2</ele><time>2026-04-26T10:04:54.999Z</time></trkpt><trkpt lat="45.45554644436081" lon="11.494403180238814"><ele>358.4</ele><time>2026-04-26T10:04:55.999Z</time></trkpt><trkpt lat="45.455639339943694" lon="11.494362651016525"><ele>355.6</ele><time>2026-04-26T10:04:56.999Z</time></trkpt><trkpt lat="45.45571953070819" lon="11.494320897691436"><ele>352.8</ele><time>2026-04-26T10:04:57.999Z</time></trkpt><trkpt lat="45.45579943080641" lon="11.494286492400333"><ele>350.0</ele><time>2026-04-26T10:04:58.999Z</time></trkpt><trkpt lat="45.45588604696421" lon="11.494272876077959"><ele>350.0</ele><time>2026-04-26T10:04:59.999Z</time></trkpt><trkpt lat="45.45599215022978" lon="11.494272247418849"><ele>350.0</ele><time>2026-04-26T10:05:00.999Z</time></trkpt><trkpt lat="45.456102211534734" lon="11.494291530006665"><ele>350.0</ele><time>2026-04-26T10:05:01.999Z</time></trkpt><trkpt lat="45.45621657595081" lon="11.494296925088152"><ele>350.0</ele><time>2026-04-26T10:05:02.999Z</time></trkpt><trkpt lat="45.45632928939746" lon="11.494276624419804"><ele>350.0</ele><time>2026-04-26T10:05:03.999Z</time></trkpt><trkpt lat="45.456442386936565" lon="11.494233351649104"><ele>348.5</ele><time>2026-04-26T10:05:04.998Z</time></trkpt><trkpt lat="45.45656312287327" lon="11.494176401586726"><ele>347.0</ele><time>2026-04-26T10:05:05.998Z</time></trkpt><trkpt lat="45.45668064107711" lon="11.494133209593002"><ele>345.5</ele><time>2026-04-26T10:05:06.998Z</time></trkpt><trkpt lat="45.456804505224966" lon="11.494115656775184"><ele>344.0</ele><time>2026-04-26T10:05:07.998Z</time></trkpt><trkpt lat="45.456930248431654" lon="11.49409481808889"><ele>344.0</ele><time>2026-04-26T10:05:08.998Z</time></trkpt><trkpt lat="45.45705649613628" lon="11.494075675294175"><ele>344.0</ele><time>2026-04-26T10:05:09.998Z</time></trkpt><trkpt lat="45.45717509023" lon="11.494083267983209"><ele>344.0</ele><time>2026-04-26T10:05:10.998Z</time></trkpt><trkpt lat="45.457280701299254" lon="11.49406594208467"><ele>344.0</ele><time>2026-04-26T10:05:11.998Z</time></trkpt><trkpt lat="45.45738004468441" lon="11.494049347084271"><ele>343.2</ele><time>2026-04-26T10:05:12.998Z</time></trkpt><trkpt lat="45.45747717044572" lon="11.494019149340714"><ele>342.4</ele><time>2026-04-26T10:05:13.998Z</time></trkpt><trkpt lat="45.45757803494049" lon="11.494037944765404"><ele>341.6</ele><time>2026-04-26T10:05:14.998Z</time></trkpt><trkpt lat="45.4576714228731" lon="11.494054528812008"><ele>340.8</ele><time>2026-04-26T10:05:15.998Z</time></trkpt><trkpt lat="45.45776019175754" lon="11.494110001965996"><ele>340.0</ele><time>2026-04-26T10:05:16.998Z</time></trkpt><trkpt lat="45.457855697568256" lon="11.494147599167666"><ele>340.2</ele><time>2026-04-26T10:05:17.998Z</time></trkpt><trkpt lat="45.4579569894796" lon="11.494124628565848"><ele>340.4</ele><time>2026-04-26T10:05:18.998Z</time></trkpt><trkpt lat="45.45805361451282" lon="11.494130352237505"><ele>340.6</ele><time>2026-04-26T10:05:19.998Z</time></trkpt><trkpt lat="45.458143399802175" lon="11.494102624029983"><ele>340.8</ele><time>2026-04-26T10:05:20.998Z</time></trkpt><trkpt lat="45.45823073424043" lon="11.494071181116865"><ele>341.0</ele><time>2026-04-26T10:05:21.998Z</time></trkpt><trkpt lat="45.458319829490634" lon="11.49403581329319"><ele>341.0</ele><time>2026-04-26T10:05:22.998Z</time></trkpt><trkpt lat="45.45839867591417" lon="11.493994477583158"><ele>341.0</ele><time>2026-04-26T10:05:23.998Z</time></trkpt><trkpt lat="45.458471992570495" lon="11.493948258957053"><ele>341.0</ele><time>2026-04-26T10:05:24.998Z</time></trkpt><trkpt lat="45.458540463250884" lon="11.493911974722636"><ele>341.0</ele><time>2026-04-26T10:05:25.998Z</time></trkpt><trkpt lat="45.45860550909235" lon="11.49388762256249"><ele>341.0</ele><time>2026-04-26T10:05:26.998Z</time></trkpt><trkpt lat="45.45867173250659" lon="11.493871356414862"><ele>341.0</ele><time>2026-04-26T10:05:27.998Z</time></trkpt><trkpt lat="45.458741121836375" lon="11.493842390137434"><ele>341.0</ele><time>2026-04-26T10:05:28.998Z</time></trkpt><trkpt lat="45.458816194730154" lon="11.493843447428132"><ele>339.6666666666667</ele><time>2026-04-26T10:05:29.998Z</time></trkpt><trkpt lat="45.458888811667705" lon="11.493838420417449"><ele>338.33333333333337</ele><time>2026-04-26T10:05:30.998Z</time></trkpt><trkpt lat="45.45896161979276" lon="11.493832680436018"><ele>337.0</ele><time>2026-04-26T10:05:31.998Z</time></trkpt><trkpt lat="45.45903925084016" lon="11.493848624003965"><ele>335.6666666666667</ele><time>2026-04-26T10:05:32.998Z</time></trkpt><trkpt lat="45.459123986042194" lon="11.493838733643665"><ele>334.3333333333333</ele><time>2026-04-26T10:05:33.998Z</time></trkpt><trkpt lat="45.45921078977478" lon="11.493825770870592"><ele>333.0</ele><time>2026-04-26T10:05:34.998Z</time></trkpt><trkpt lat="45.45929739677087" lon="11.493806132597374"><ele>333.0</ele><time>2026-04-26T10:05:35.998Z</time></trkpt><trkpt lat="45.45938504871023" lon="11.493780487524058"><ele>333.0</ele><time>2026-04-26T10:05:36.998Z</time></trkpt><trkpt lat="45.45948129463487" lon="11.493722166195566"><ele>333.0</ele><time>2026-04-26T10:05:37.998Z</time></trkpt><trkpt lat="45.45959000051978" lon="11.493688779809975"><ele>333.0</ele><time>2026-04-26T10:05:38.998Z</time></trkpt><trkpt lat="45.45969942408256" lon="11.493646737182365"><ele>333.0</ele><time>2026-04-26T10:05:39.998Z</time></trkpt><trkpt lat="45.45981466038931" lon="11.493607216476112"><ele>332.0</ele><time>2026-04-26T10:05:40.998Z</time></trkpt><trkpt lat="45.459932666698954" lon="11.493576197691766"><ele>331.0</ele><time>2026-04-26T10:05:41.998Z</time></trkpt><trkpt lat="45.4600476728675" lon="11.493561433154518"><ele>330.0</ele><time>2026-04-26T10:05:42.998Z</time></trkpt><trkpt lat="45.46016117893641" lon="11.493559729537465"><ele>329.0</ele><time>2026-04-26T10:05:43.998Z</time></trkpt><trkpt lat="45.460268049520934" lon="11.493520879032868"><ele>329.0</ele><time>2026-04-26T10:05:44.998Z</time></trkpt><trkpt lat="45.460367397300054" lon="11.493502475080767"><ele>329.0</ele><time>2026-04-26T10:05:45.998Z</time></trkpt><trkpt lat="45.46046517558531" lon="11.493542516436511"><ele>329.0</ele><time>2026-04-26T10:05:46.997Z</time></trkpt><trkpt lat="45.46054688013517" lon="11.493524558618043"><ele>329.0</ele><time>2026-04-26T10:05:47.997Z</time></trkpt><trkpt lat="45.46062462313233" lon="11.493520726343148"><ele>329.0</ele><time>2026-04-26T10:05:48.997Z</time></trkpt><trkpt lat="45.46070311849367" lon="11.49352673557981"><ele>329.0</ele><time>2026-04-26T10:05:49.997Z</time></trkpt><trkpt lat="45.46078213954546" lon="11.493551114488692"><ele>330.0</ele><time>2026-04-26T10:05:50.997Z</time></trkpt><trkpt lat="45.46086175174092" lon="11.493579457356628"><ele>331.0</ele><time>2026-04-26T10:05:51.997Z</time></trkpt><trkpt lat="45.46093711766404" lon="11.493614457907935"><ele>332.0</ele><time>2026-04-26T10:05:52.997Z</time></trkpt><trkpt lat="45.461013223208624" lon="11.493643848145702"><ele>333.0</ele><time>2026-04-26T10:05:54Z</time></trkpt><trkpt lat="45.46109653783511" lon="11.493682610196123"><ele>334.0</ele><time>2026-04-26T10:05:55Z</time></trkpt><trkpt lat="45.461176904962" lon="11.493713367947153"><ele>335.0</ele><time>2026-04-26T10:05:56Z</time></trkpt><trkpt lat="45.46125410885927" lon="11.49374158737948"><ele>330.1666666666667</ele><time>2026-04-26T10:05:57Z</time></trkpt><trkpt lat="45.46133304006882" lon="11.493774343523555"><ele>325.33333333333337</ele><time>2026-04-26T10:05:58Z</time></trkpt><trkpt lat="45.46142027577484" lon="11.49379670492225"><ele>320.5</ele><time>2026-04-26T10:05:59Z</time></trkpt><trkpt lat="45.461505014309495" lon="11.493815970184654"><ele>315.6666666666667</ele><time>2026-04-26T10:06:00Z</time></trkpt><trkpt lat="45.46158307907106" lon="11.493831255476245"><ele>310.8333333333333</ele><time>2026-04-26T10:06:01Z</time></trkpt><trkpt lat="45.4616583292978" lon="11.49383715928474"><ele>306.0</ele><time>2026-04-26T10:06:02Z</time></trkpt><trkpt lat="45.46173096550414" lon="11.493830111785151"><ele>306.0</ele><time>2026-04-26T10:06:03Z</time></trkpt><trkpt lat="45.46179948582915" lon="11.493833295784016"><ele>306.0</ele><time>2026-04-26T10:06:04Z</time></trkpt><trkpt lat="45.46186567640386" lon="11.493839359343093"><ele>306.0</ele><time>2026-04-26T10:06:05Z</time></trkpt><trkpt lat="45.461934414782135" lon="11.49384916754096"><ele>306.0</ele><time>2026-04-26T10:06:06Z</time></trkpt><trkpt lat="45.46205893726195" lon="11.493875036316622"><ele>306.0</ele><time>2026-04-26T10:06:08Z</time></trkpt><trkpt lat="45.46216504153199" lon="11.49389445631212"><ele>306.0</ele><time>2026-04-26T10:06:10Z</time></trkpt><trkpt lat="45.462269537942895" lon="11.493928765264945"><ele>308.1666666666667</ele><time>2026-04-26T10:06:12Z</time></trkpt><trkpt lat="45.46236329464428" lon="11.493982561798564"><ele>310.3333333333333</ele><time>2026-04-26T10:06:14Z</time></trkpt><trkpt lat="45.462474553881016" lon="11.494029488276823"><ele>312.5</ele><time>2026-04-26T10:06:16Z</time></trkpt><trkpt lat="45.46252316946284" lon="11.494087170501393"><ele>314.66666666666663</ele><time>2026-04-26T10:06:17Z</time></trkpt><trkpt lat="45.4625809336606" lon="11.494129860651842"><ele>316.8333333333333</ele><time>2026-04-26T10:06:18Z</time></trkpt><trkpt lat="45.462662207021076" lon="11.49419392704663"><ele>319.0</ele><time>2026-04-26T10:06:20Z</time></trkpt><trkpt lat="45.46274461239173" lon="11.49426057958955"><ele>319.0</ele><time>2026-04-26T10:06:22Z</time></trkpt><trkpt lat="45.46282743815737" lon="11.49433705483904"><ele>319.0</ele><time>2026-04-26T10:06:24Z</time></trkpt><trkpt lat="45.46291058369638" lon="11.494403411614158"><ele>319.0</ele><time>2026-04-26T10:06:26Z</time></trkpt><trkpt lat="45.462992839225976" lon="11.494487550448873"><ele>319.0</ele><time>2026-04-26T10:06:27.999Z</time></trkpt><trkpt lat="45.4630633197167" lon="11.494566819176725"><ele>319.0</ele><time>2026-04-26T10:06:29.999Z</time></trkpt><trkpt lat="45.46314823775857" lon="11.494609349034445"><ele>316.4</ele><time>2026-04-26T10:06:31.999Z</time></trkpt><trkpt lat="45.463246929161194" lon="11.494655992026473"><ele>313.79999999999995</ele><time>2026-04-26T10:06:33.999Z</time></trkpt><trkpt lat="45.46336476947039" lon="11.49468181091344"><ele>311.20000000000005</ele><time>2026-04-26T10:06:35.999Z</time></trkpt><trkpt lat="45.463431894804536" lon="11.494692076225942"><ele>308.6</ele><time>2026-04-26T10:06:36.999Z</time></trkpt><trkpt lat="45.46356843463331" lon="11.494719779331993"><ele>306.0</ele><time>2026-04-26T10:06:38.999Z</time></trkpt><trkpt lat="45.46364852061841" lon="11.494727287188423"><ele>306.0</ele><time>2026-04-26T10:06:39.999Z</time></trkpt><trkpt lat="45.46372644537409" lon="11.494757402582891"><ele>306.0</ele><time>2026-04-26T10:06:40.999Z</time></trkpt><trkpt lat="45.463815199494015" lon="11.494777289632642"><ele>306.0</ele><time>2026-04-26T10:06:41.999Z</time></trkpt><trkpt lat="45.46389918239897" lon="11.494795218172381"><ele>306.0</ele><time>2026-04-26T10:06:42.999Z</time></trkpt><trkpt lat="45.46397991552988" lon="11.494802561108306"><ele>306.0</ele><time>2026-04-26T10:06:43.999Z</time></trkpt><trkpt lat="45.46405583732933" lon="11.494817014086202"><ele>306.0</ele><time>2026-04-26T10:06:44.999Z</time></trkpt><trkpt lat="45.46413301767123" lon="11.494840122886597"><ele>306.1666666666667</ele><time>2026-04-26T10:06:45.999Z</time></trkpt><trkpt lat="45.46422696541871" lon="11.494883463814089"><ele>306.3333333333333</ele><time>2026-04-26T10:06:46.999Z</time></trkpt><trkpt lat="45.46430507998275" lon="11.494911953031195"><ele>306.5</ele><time>2026-04-26T10:06:47.999Z</time></trkpt><trkpt lat="45.464383409198845" lon="11.494944405592525"><ele>306.66666666666663</ele><time>2026-04-26T10:06:48.999Z</time></trkpt><trkpt lat="45.464459270362475" lon="11.49497157478837"><ele>306.8333333333333</ele><time>2026-04-26T10:06:49.999Z</time></trkpt><trkpt lat="45.4645370675493" lon="11.494993815656654"><ele>307.0</ele><time>2026-04-26T10:06:50.999Z</time></trkpt><trkpt lat="45.464620607632064" lon="11.495016144395331"><ele>307.8</ele><time>2026-04-26T10:06:51.999Z</time></trkpt><trkpt lat="45.464714631415994" lon="11.49502985941139"><ele>308.6</ele><time>2026-04-26T10:06:52.999Z</time></trkpt><trkpt lat="45.46480422468034" lon="11.495040371519114"><ele>309.40000000000003</ele><time>2026-04-26T10:06:53.999Z</time></trkpt><trkpt lat="45.46491031012892" lon="11.495085347271718"><ele>310.2</ele><time>2026-04-26T10:06:54.999Z</time></trkpt><trkpt lat="45.46501928899131" lon="11.495118307040336"><ele>311.0</ele><time>2026-04-26T10:06:55.999Z</time></trkpt><trkpt lat="45.46512204249907" lon="11.495151795142311"><ele>311.0</ele><time>2026-04-26T10:06:56.999Z</time></trkpt><trkpt lat="45.46522417412185" lon="11.495174327071421"><ele>311.0</ele><time>2026-04-26T10:06:57.999Z</time></trkpt><trkpt lat="45.46532806652851" lon="11.49520506454732"><ele>311.0</ele><time>2026-04-26T10:06:58.999Z</time></trkpt><trkpt lat="45.4654192679911" lon="11.495246472812989"><ele>311.0</ele><time>2026-04-26T10:06:59.999Z</time></trkpt><trkpt lat="45.46550907485722" lon="11.495271371981273"><ele>311.0</ele><time>2026-04-26T10:07:00.999Z</time></trkpt><trkpt lat="45.46559962220775" lon="11.4952962399202"><ele>310.6</ele><time>2026-04-26T10:07:01.999Z</time></trkpt><trkpt lat="45.465702576823816" lon="11.495320459135732"><ele>310.20000000000005</ele><time>2026-04-26T10:07:02.999Z</time></trkpt><trkpt lat="45.46581191778191" lon="11.495340357214246"><ele>309.79999999999995</ele><time>2026-04-26T10:07:03.999Z</time></trkpt><trkpt lat="45.4659280473051" lon="11.495354572722226"><ele>309.4</ele><time>2026-04-26T10:07:04.999Z</time></trkpt><trkpt lat="45.46604205966732" lon="11.495345234378052"><ele>309.0</ele><time>2026-04-26T10:07:05.999Z</time></trkpt><trkpt lat="45.46615236244458" lon="11.495393164895079"><ele>309.0</ele><time>2026-04-26T10:07:06.999Z</time></trkpt><trkpt lat="45.466247598768774" lon="11.495398688962664"><ele>309.0</ele><time>2026-04-26T10:07:07.999Z</time></trkpt><trkpt lat="45.46632967129666" lon="11.495428863346831"><ele>309.0</ele><time>2026-04-26T10:07:08.999Z</time></trkpt><trkpt lat="45.4664080544562" lon="11.495479072496147"><ele>309.0</ele><time>2026-04-26T10:07:09.998Z</time></trkpt><trkpt lat="45.46648047717307" lon="11.495589713260836"><ele>309.0</ele><time>2026-04-26T10:07:10.998Z</time></trkpt><trkpt lat="45.46653619008538" lon="11.49570607018944"><ele>303.0</ele><time>2026-04-26T10:07:11.998Z</time></trkpt><trkpt lat="45.46660155300452" lon="11.495859802228562"><ele>297.0</ele><time>2026-04-26T10:07:12.998Z</time></trkpt><trkpt lat="45.46665627872134" lon="11.495993894720035"><ele>291.0</ele><time>2026-04-26T10:07:13.998Z</time></trkpt><trkpt lat="45.466754235285634" lon="11.496072740788524"><ele>285.0</ele><time>2026-04-26T10:07:14.998Z</time></trkpt><trkpt lat="45.46687039474617" lon="11.496071360613993"><ele>285.0</ele><time>2026-04-26T10:07:15.998Z</time></trkpt><trkpt lat="45.46697104824797" lon="11.496071088304646"><ele>285.0</ele><time>2026-04-26T10:07:16.998Z</time></trkpt><trkpt lat="45.467074574937996" lon="11.496067255152443"><ele>285.0</ele><time>2026-04-26T10:07:17.998Z</time></trkpt><trkpt lat="45.467163380447516" lon="11.496079413773096"><ele>285.0</ele><time>2026-04-26T10:07:18.998Z</time></trkpt><trkpt lat="45.467277508550325" lon="11.496106999843422"><ele>285.0</ele><time>2026-04-26T10:07:19.998Z</time></trkpt><trkpt lat="45.467381963348636" lon="11.496177582142412"><ele>283.5</ele><time>2026-04-26T10:07:20.998Z</time></trkpt><trkpt lat="45.46748363851119" lon="11.496267793953434"><ele>282.0</ele><time>2026-04-26T10:07:21.998Z</time></trkpt><trkpt lat="45.46757921407191" lon="11.496364956479256"><ele>280.5</ele><time>2026-04-26T10:07:22.998Z</time></trkpt><trkpt lat="45.46766480680489" lon="11.49648745048941"><ele>279.0</ele><time>2026-04-26T10:07:23.998Z</time></trkpt><trkpt lat="45.46775499642726" lon="11.496624309337772"><ele>279.0</ele><time>2026-04-26T10:07:24.998Z</time></trkpt><trkpt lat="45.46783160990065" lon="11.496712700832939"><ele>279.0</ele><time>2026-04-26T10:07:25.998Z</time></trkpt><trkpt lat="45.46792585262767" lon="11.4968006134065"><ele>279.0</ele><time>2026-04-26T10:07:26.998Z</time></trkpt><trkpt lat="45.46806802155417" lon="11.49687694614454"><ele>279.0</ele><time>2026-04-26T10:07:27.998Z</time></trkpt><trkpt lat="45.46817931952773" lon="11.496933081904375"><ele>278.6666666666667</ele><time>2026-04-26T10:07:28.998Z</time></trkpt><trkpt lat="45.46827960044336" lon="11.496938932938173"><ele>278.3333333333333</ele><time>2026-04-26T10:07:29.998Z</time></trkpt><trkpt lat="45.46836727602164" lon="11.49689711897311"><ele>278.0</ele><time>2026-04-26T10:07:30.998Z</time></trkpt><trkpt lat="45.46844451786516" lon="11.496858265560887"><ele>277.66666666666663</ele><time>2026-04-26T10:07:31.998Z</time></trkpt><trkpt lat="45.46852362174765" lon="11.49682149213363"><ele>277.3333333333333</ele><time>2026-04-26T10:07:32.998Z</time></trkpt><trkpt lat="45.468605499426864" lon="11.496815036360967"><ele>277.0</ele><time>2026-04-26T10:07:33.998Z</time></trkpt><trkpt lat="45.46868175163481" lon="11.496774933961342"><ele>277.0</ele><time>2026-04-26T10:07:34.998Z</time></trkpt><trkpt lat="45.46876401631825" lon="11.496782897514645"><ele>277.0</ele><time>2026-04-26T10:07:35.998Z</time></trkpt><trkpt lat="45.46884323642562" lon="11.496788772376341"><ele>277.0</ele><time>2026-04-26T10:07:36.998Z</time></trkpt><trkpt lat="45.46893286091804" lon="11.496796843570005"><ele>277.0</ele><time>2026-04-26T10:07:37.998Z</time></trkpt><trkpt lat="45.46902012171317" lon="11.496806433723645"><ele>277.0</ele><time>2026-04-26T10:07:38.998Z</time></trkpt><trkpt lat="45.469108190516764" lon="11.496840334366453"><ele>277.0</ele><time>2026-04-26T10:07:39.998Z</time></trkpt><trkpt lat="45.46919721187347" lon="11.496851754196499"><ele>276.6</ele><time>2026-04-26T10:07:40.998Z</time></trkpt><trkpt lat="45.46928334694138" lon="11.49686647340709"><ele>276.2</ele><time>2026-04-26T10:07:41.998Z</time></trkpt><trkpt lat="45.469367395820065" lon="11.496901142308682"><ele>275.8</ele><time>2026-04-26T10:07:42.998Z</time></trkpt><trkpt lat="45.46945451467508" lon="11.49694652034305"><ele>275.4</ele><time>2026-04-26T10:07:43.998Z</time></trkpt><trkpt lat="45.46954665330405" lon="11.49700996674382"><ele>275.0</ele><time>2026-04-26T10:07:44.998Z</time></trkpt><trkpt lat="45.469650646389674" lon="11.4970638772249"><ele>274.2</ele><time>2026-04-26T10:07:45.998Z</time></trkpt><trkpt lat="45.46975739885881" lon="11.497103792782912"><ele>273.4</ele><time>2026-04-26T10:07:46.998Z</time></trkpt><trkpt lat="45.469873971607235" lon="11.497104260846262"><ele>272.6</ele><time>2026-04-26T10:07:47.998Z</time></trkpt><trkpt lat="45.4699827370307" lon="11.49711158347457"><ele>271.8</ele><time>2026-04-26T10:07:48.998Z</time></trkpt><trkpt lat="45.47009422680323" lon="11.49712626287553"><ele>271.0</ele><time>2026-04-26T10:07:49.998Z</time></trkpt><trkpt lat="45.470212183384504" lon="11.497085272887931"><ele>271.0</ele><time>2026-04-26T10:07:50.998Z</time></trkpt><trkpt lat="45.47033009349876" lon="11.497093569770826"><ele>271.0</ele><time>2026-04-26T10:07:51.997Z</time></trkpt><trkpt lat="45.47043237592143" lon="11.49707386811851"><ele>271.0</ele><time>2026-04-26T10:07:52.997Z</time></trkpt><trkpt lat="45.470541553751296" lon="11.49706675447978"><ele>271.0</ele><time>2026-04-26T10:07:53.997Z</time></trkpt><trkpt lat="45.47063420791548" lon="11.497052904387376"><ele>271.0</ele><time>2026-04-26T10:07:54.997Z</time></trkpt><trkpt lat="45.470726150355254" lon="11.4970426030631"><ele>270.40000000000003</ele><time>2026-04-26T10:07:55.997Z</time></trkpt><trkpt lat="45.4708223736632" lon="11.497048255721575"><ele>269.8</ele><time>2026-04-26T10:07:56.997Z</time></trkpt><trkpt lat="45.47092138467334" lon="11.497047630193892"><ele>269.20000000000005</ele><time>2026-04-26T10:07:57.997Z</time></trkpt><trkpt lat="45.47101228031705" lon="11.497066863127195"><ele>268.6</ele><time>2026-04-26T10:07:58.997Z</time></trkpt><trkpt lat="45.47112318479795" lon="11.497050804684372"><ele>268.0</ele><time>2026-04-26T10:08:00Z</time></trkpt><trkpt lat="45.47123639709729" lon="11.497068900699785"><ele>266.4</ele><time>2026-04-26T10:08:01Z</time></trkpt><trkpt lat="45.47134608451769" lon="11.497070286436742"><ele>264.8</ele><time>2026-04-26T10:08:02Z</time></trkpt><trkpt lat="45.4714507344593" lon="11.497065578526044"><ele>263.2</ele><time>2026-04-26T10:08:03Z</time></trkpt><trkpt lat="45.47155626775405" lon="11.4970815571082"><ele>261.6</ele><time>2026-04-26T10:08:04Z</time></trkpt><trkpt lat="45.471669702084576" lon="11.497068589283568"><ele>260.0</ele><time>2026-04-26T10:08:05Z</time></trkpt><trkpt lat="45.47176137680627" lon="11.497048404825055"><ele>260.0</ele><time>2026-04-26T10:08:06Z</time></trkpt><trkpt lat="45.47186450554695" lon="11.497019965519092"><ele>260.0</ele><time>2026-04-26T10:08:07Z</time></trkpt><trkpt lat="45.47196265810555" lon="11.496989241275164"><ele>260.0</ele><time>2026-04-26T10:08:08Z</time></trkpt><trkpt lat="45.47205493198575" lon="11.496934329528054"><ele>260.0</ele><time>2026-04-26T10:08:09Z</time></trkpt><trkpt lat="45.4721454682891" lon="11.496908511954963"><ele>260.0</ele><time>2026-04-26T10:08:10Z</time></trkpt><trkpt lat="45.47223564711289" lon="11.496877200052618"><ele>259.5</ele><time>2026-04-26T10:08:11Z</time></trkpt><trkpt lat="45.47231913453908" lon="11.49683907108103"><ele>259.0</ele><time>2026-04-26T10:08:12Z</time></trkpt><trkpt lat="45.47239384757011" lon="11.496801459902269"><ele>258.5</ele><time>2026-04-26T10:08:13Z</time></trkpt><trkpt lat="45.47247347371416" lon="11.496770746163937"><ele>258.0</ele><time>2026-04-26T10:08:14Z</time></trkpt><trkpt lat="45.47254091170918" lon="11.496742083549437"><ele>257.5</ele><time>2026-04-26T10:08:15Z</time></trkpt><trkpt lat="45.472612705340495" lon="11.49671520616382"><ele>257.0</ele><time>2026-04-26T10:08:16Z</time></trkpt><trkpt lat="45.472690681530445" lon="11.496690612031175"><ele>257.0</ele><time>2026-04-26T10:08:17Z</time></trkpt><trkpt lat="45.472763994573235" lon="11.496654544503002"><ele>257.0</ele><time>2026-04-26T10:08:18Z</time></trkpt><trkpt lat="45.472838834400505" lon="11.49661907629928"><ele>257.0</ele><time>2026-04-26T10:08:19Z</time></trkpt><trkpt lat="45.47291721129973" lon="11.496580093375762"><ele>257.0</ele><time>2026-04-26T10:08:20Z</time></trkpt><trkpt lat="45.472993926348785" lon="11.496540672820743"><ele>257.0</ele><time>2026-04-26T10:08:21Z</time></trkpt><trkpt lat="45.47307540284327" lon="11.496507981112702"><ele>257.0</ele><time>2026-04-26T10:08:22Z</time></trkpt><trkpt lat="45.47315630166778" lon="11.496476821849733"><ele>256.6666666666667</ele><time>2026-04-26T10:08:23Z</time></trkpt><trkpt lat="45.47323552503025" lon="11.496449913230004"><ele>256.33333333333337</ele><time>2026-04-26T10:08:24Z</time></trkpt><trkpt lat="45.473304946608984" lon="11.496417485693536"><ele>256.0</ele><time>2026-04-26T10:08:25Z</time></trkpt><trkpt lat="45.4733742368803" lon="11.496393376082311"><ele>255.66666666666669</ele><time>2026-04-26T10:08:26Z</time></trkpt><trkpt lat="45.47344368436902" lon="11.49638605101749"><ele>255.33333333333334</ele><time>2026-04-26T10:08:27Z</time></trkpt><trkpt lat="45.473546660056016" lon="11.496343417941826"><ele>255.0</ele><time>2026-04-26T10:08:29Z</time></trkpt><trkpt lat="45.473625267229195" lon="11.496316292204389"><ele>255.0</ele><time>2026-04-26T10:08:31Z</time></trkpt><trkpt lat="45.47369281329117" lon="11.496289092562675"><ele>255.0</ele><time>2026-04-26T10:08:32.999Z</time></trkpt><trkpt lat="45.47378184226255" lon="11.496269477814796"><ele>255.0</ele><time>2026-04-26T10:08:35.999Z</time></trkpt><trkpt lat="45.47387434099206" lon="11.496266583325953"><ele>255.0</ele><time>2026-04-26T10:08:38.999Z</time></trkpt><trkpt lat="45.47397687615236" lon="11.496272249872757"><ele>255.0</ele><time>2026-04-26T10:08:41.999Z</time></trkpt><trkpt lat="45.47406216694254" lon="11.496317073991683"><ele>255.0</ele><time>2026-04-26T10:08:43.999Z</time></trkpt><trkpt lat="45.474154743377724" lon="11.496354766513798"><ele>255.2</ele><time>2026-04-26T10:08:45.999Z</time></trkpt><trkpt lat="45.47425692059094" lon="11.496413017106924"><ele>255.4</ele><time>2026-04-26T10:08:47.999Z</time></trkpt><trkpt lat="45.47435372205164" lon="11.496503769925404"><ele>255.60000000000002</ele><time>2026-04-26T10:08:49.999Z</time></trkpt><trkpt lat="45.47443527004062" lon="11.496604150353239"><ele>255.8</ele><time>2026-04-26T10:08:51.999Z</time></trkpt><trkpt lat="45.474509031901526" lon="11.496729860583377"><ele>256.0</ele><time>2026-04-26T10:08:53.999Z</time></trkpt><trkpt lat="45.47460310548388" lon="11.496824856617897"><ele>254.83333333333331</ele><time>2026-04-26T10:08:55.999Z</time></trkpt><trkpt lat="45.47464900387155" lon="11.496888370021788"><ele>253.66666666666666</ele><time>2026-04-26T10:08:56.999Z</time></trkpt><trkpt lat="45.47470112771747" lon="11.496969760899963"><ele>252.5</ele><time>2026-04-26T10:08:57.999Z</time></trkpt><trkpt lat="45.47477020553847" lon="11.497025048844952"><ele>251.33333333333331</ele><time>2026-04-26T10:08:58.999Z</time></trkpt><trkpt lat="45.4748723054818" lon="11.497155587056149"><ele>250.16666666666666</ele><time>2026-04-26T10:09:00.999Z</time></trkpt><trkpt lat="45.474939797500326" lon="11.497207066416754"><ele>249.0</ele><time>2026-04-26T10:09:01.999Z</time></trkpt><trkpt lat="45.475013447186456" lon="11.497246823060127"><ele>248.0</ele><time>2026-04-26T10:09:02.999Z</time></trkpt><trkpt lat="45.47507198074756" lon="11.497281244117712"><ele>246.99999999999997</ele><time>2026-04-26T10:09:03.999Z</time></trkpt><trkpt lat="45.47517158790941" lon="11.497333398769586"><ele>245.99999999999997</ele><time>2026-04-26T10:09:05.999Z</time></trkpt><trkpt lat="45.47526968820965" lon="11.497395191413409"><ele>245.0</ele><time>2026-04-26T10:09:07.999Z</time></trkpt><trkpt lat="45.47533790379394" lon="11.497481732402136"><ele>244.0</ele><time>2026-04-26T10:09:09.999Z</time></trkpt><trkpt lat="45.47543657183997" lon="11.49741335099032"><ele>244.0</ele><time>2026-04-26T10:09:11.999Z</time></trkpt><trkpt lat="45.47547431249379" lon="11.497283228137093"><ele>243.99999999999997</ele><time>2026-04-26T10:09:13.999Z</time></trkpt><trkpt lat="45.475470828895624" lon="11.497164306269008"><ele>243.99999999999997</ele><time>2026-04-26T10:09:15.998Z</time></trkpt><trkpt lat="45.4754998312194" lon="11.497023502635928"><ele>244.0</ele><time>2026-04-26T10:09:17.998Z</time></trkpt><trkpt lat="45.4755236391053" lon="11.496868363713386"><ele>244.0</ele><time>2026-04-26T10:09:19.998Z</time></trkpt><trkpt lat="45.47553851270338" lon="11.49669546212798"><ele>242.79999999999998</ele><time>2026-04-26T10:09:21.998Z</time></trkpt><trkpt lat="45.47557875328248" lon="11.496537181258033"><ele>241.59999999999997</ele><time>2026-04-26T10:09:23.998Z</time></trkpt><trkpt lat="45.475591543013316" lon="11.496414060080037"><ele>240.4</ele><time>2026-04-26T10:09:25.998Z</time></trkpt><trkpt lat="45.47560888278883" lon="11.496239411141998"><ele>239.2</ele><time>2026-04-26T10:09:27.998Z</time></trkpt><trkpt lat="45.47562023350519" lon="11.496076637049695"><ele>238.0</ele><time>2026-04-26T10:09:29.998Z</time></trkpt><trkpt lat="45.47561996445512" lon="11.495915433749177"><ele>237.33333333333331</ele><time>2026-04-26T10:09:31.998Z</time></trkpt><trkpt lat="45.47563771892896" lon="11.49582052460238"><ele>236.66666666666666</ele><time>2026-04-26T10:09:32.998Z</time></trkpt><trkpt lat="45.47566020815736" lon="11.495652557011523"><ele>236.0</ele><time>2026-04-26T10:09:34.998Z</time></trkpt><trkpt lat="45.47568455665559" lon="11.49551999573078"><ele>235.33333333333331</ele><time>2026-04-26T10:09:36.998Z</time></trkpt><trkpt lat="45.475717835178294" lon="11.495423155406842"><ele>234.66666666666666</ele><time>2026-04-26T10:09:38.998Z</time></trkpt><trkpt lat="45.475759466908606" lon="11.495319910179534"><ele>234.0</ele><time>2026-04-26T10:09:40.998Z</time></trkpt><trkpt lat="45.4757976100338" lon="11.495174812333794"><ele>234.0</ele><time>2026-04-26T10:09:42.998Z</time></trkpt><trkpt lat="45.47583641673918" lon="11.495074035539526"><ele>233.99999999999997</ele><time>2026-04-26T10:09:43.998Z</time></trkpt><trkpt lat="45.475871206063374" lon="11.494981085335445"><ele>233.99999999999997</ele><time>2026-04-26T10:09:44.998Z</time></trkpt><trkpt lat="45.475894411167694" lon="11.494884732350998"><ele>234.0</ele><time>2026-04-26T10:09:45.998Z</time></trkpt><trkpt lat="45.47596488391107" lon="11.49472096414184"><ele>234.0</ele><time>2026-04-26T10:09:47.998Z</time></trkpt><trkpt lat="45.47604528368266" lon="11.494588268873127"><ele>232.66666666666666</ele><time>2026-04-26T10:09:49.998Z</time></trkpt><trkpt lat="45.47608460365425" lon="11.494506261026958"><ele>231.33333333333331</ele><time>2026-04-26T10:09:50.998Z</time></trkpt><trkpt lat="45.47612619433511" lon="11.494431694808576"><ele>230.0</ele><time>2026-04-26T10:09:51.998Z</time></trkpt><trkpt lat="45.47617117016154" lon="11.494346525283966"><ele>228.66666666666666</ele><time>2026-04-26T10:09:52.998Z</time></trkpt><trkpt lat="45.47625065131747" lon="11.494250763109449"><ele>227.33333333333331</ele><time>2026-04-26T10:09:54.998Z</time></trkpt><trkpt lat="45.47629920535226" lon="11.494165468222054"><ele>226.0</ele><time>2026-04-26T10:09:56.997Z</time></trkpt><trkpt lat="45.476359079255154" lon="11.49410531590849"><ele>226.0</ele><time>2026-04-26T10:09:58.997Z</time></trkpt><trkpt lat="45.47642231371688" lon="11.494037532433149"><ele>226.00000000000003</ele><time>2026-04-26T10:10:00.997Z</time></trkpt><trkpt lat="45.47646905158593" lon="11.493966871976035"><ele>226.00000000000003</ele><time>2026-04-26T10:10:01.997Z</time></trkpt><trkpt lat="45.47654261657514" lon="11.49390034416802"><ele>226.0</ele><time>2026-04-26T10:10:03.997Z</time></trkpt><trkpt lat="45.47659598928241" lon="11.493846317995944"><ele>226.0</ele><time>2026-04-26T10:10:04.997Z</time></trkpt><trkpt lat="45.47676943736164" lon="11.493801616231421"><ele>225.99999999999997</ele><time>2026-04-26T10:10:10Z</time></trkpt><trkpt lat="45.47684842156091" lon="11.493781274423146"><ele>226.0</ele><time>2026-04-26T10:10:12Z</time></trkpt><trkpt lat="45.4769242803831" lon="11.493767274606983"><ele>226.0</ele><time>2026-04-26T10:10:14Z</time></trkpt><trkpt lat="45.47698786998744" lon="11.49372192549273"><ele>226.0</ele><time>2026-04-26T10:10:16Z</time></trkpt><trkpt lat="45.47709345592883" lon="11.493701408745531"><ele>225.99999999999997</ele><time>2026-04-26T10:10:18Z</time></trkpt><trkpt lat="45.47718697127698" lon="11.49366986293538"><ele>226.0</ele><time>2026-04-26T10:10:20Z</time></trkpt><trkpt lat="45.47725761038191" lon="11.49356689888259"><ele>228.33333333333331</ele><time>2026-04-26T10:10:22Z</time></trkpt><trkpt lat="45.47731549413137" lon="11.493516162609044"><ele>230.66666666666666</ele><time>2026-04-26T10:10:24Z</time></trkpt><trkpt lat="45.4774035559865" lon="11.49344455418336"><ele>233.0</ele><time>2026-04-26T10:10:27Z</time></trkpt><trkpt lat="45.47746397537238" lon="11.49338242640334"><ele>235.33333333333331</ele><time>2026-04-26T10:10:29Z</time></trkpt><trkpt lat="45.47753077021928" lon="11.493313900868616"><ele>237.66666666666666</ele><time>2026-04-26T10:10:31Z</time></trkpt><trkpt lat="45.477598225492194" lon="11.493258928356552"><ele>240.0</ele><time>2026-04-26T10:10:33Z</time></trkpt><trkpt lat="45.47767422226997" lon="11.493173815813634"><ele>240.0</ele><time>2026-04-26T10:10:35Z</time></trkpt><trkpt lat="45.47773973406019" lon="11.493134715124048"><ele>240.0</ele><time>2026-04-26T10:10:37Z</time></trkpt><trkpt lat="45.47780305917672" lon="11.493145811899202"><ele>240.0</ele><time>2026-04-26T10:10:39Z</time></trkpt><trkpt lat="45.477871718697294" lon="11.493129434416858"><ele>240.0</ele><time>2026-04-26T10:10:40.999Z</time></trkpt><trkpt lat="45.47794498935852" lon="11.493110212035829"><ele>240.0</ele><time>2026-04-26T10:10:43.999Z</time></trkpt><trkpt lat="45.47803037913406" lon="11.49313945078186"><ele>240.0</ele><time>2026-04-26T10:10:46.999Z</time></trkpt><trkpt lat="45.478129461280425" lon="11.493182957092207"><ele>239.16666666666666</ele><time>2026-04-26T10:10:48.999Z</time></trkpt><trkpt lat="45.47821151128675" lon="11.493185098169276"><ele>238.33333333333331</ele><time>2026-04-26T10:10:52.999Z</time></trkpt><trkpt lat="45.47828620748192" lon="11.493224540945908"><ele>237.5</ele><time>2026-04-26T10:10:54.999Z</time></trkpt><trkpt lat="45.47834927595065" lon="11.493220308896797"><ele>236.66666666666666</ele><time>2026-04-26T10:10:55.999Z</time></trkpt><trkpt lat="45.47843602454812" lon="11.493238144531956"><ele>235.83333333333331</ele><time>2026-04-26T10:10:56.999Z</time></trkpt><trkpt lat="45.47851085339506" lon="11.49328416263346"><ele>235.0</ele><time>2026-04-26T10:10:57.999Z</time></trkpt><trkpt lat="45.47859803109406" lon="11.493330435982179"><ele>235.0</ele><time>2026-04-26T10:10:58.999Z</time></trkpt><trkpt lat="45.47866928881727" lon="11.493353796709625"><ele>235.0</ele><time>2026-04-26T10:10:59.999Z</time></trkpt><trkpt lat="45.47877227960609" lon="11.493373615056747"><ele>235.0</ele><time>2026-04-26T10:11:01.999Z</time></trkpt><trkpt lat="45.47888690209744" lon="11.493385329366365"><ele>235.0</ele><time>2026-04-26T10:11:03.999Z</time></trkpt><trkpt lat="45.47900750001402" lon="11.493385753064862"><ele>235.0</ele><time>2026-04-26T10:11:05.999Z</time></trkpt><trkpt lat="45.47913122787887" lon="11.493371356456045"><ele>234.16666666666666</ele><time>2026-04-26T10:11:07.999Z</time></trkpt><trkpt lat="45.479205626712066" lon="11.493404593125838"><ele>233.33333333333331</ele><time>2026-04-26T10:11:08.999Z</time></trkpt><trkpt lat="45.47927565947503" lon="11.493396391616747"><ele>232.5</ele><time>2026-04-26T10:11:09.999Z</time></trkpt><trkpt lat="45.47938408006724" lon="11.493385610547966"><ele>231.66666666666669</ele><time>2026-04-26T10:11:11.999Z</time></trkpt><trkpt lat="45.47950255377946" lon="11.493383359539807"><ele>230.83333333333334</ele><time>2026-04-26T10:11:13.999Z</time></trkpt><trkpt lat="45.479571736442125" lon="11.49338815416336"><ele>230.0</ele><time>2026-04-26T10:11:14.999Z</time></trkpt><trkpt lat="45.47965068592011" lon="11.4934081259796"><ele>229.16666666666669</ele><time>2026-04-26T10:11:15.999Z</time></trkpt><trkpt lat="45.4797182100819" lon="11.493423206078623"><ele>228.33333333333334</ele><time>2026-04-26T10:11:16.999Z</time></trkpt><trkpt lat="45.47980015498948" lon="11.4934056882916"><ele>227.5</ele><time>2026-04-26T10:11:17.999Z</time></trkpt><trkpt lat="45.47986756040271" lon="11.493410889737932"><ele>226.66666666666669</ele><time>2026-04-26T10:11:18.999Z</time></trkpt><trkpt lat="45.47993221310915" lon="11.493461752684281"><ele>225.83333333333334</ele><time>2026-04-26T10:11:19.999Z</time></trkpt><trkpt lat="45.47996077258108" lon="11.493581992650926"><ele>225.0</ele><time>2026-04-26T10:11:20.999Z</time></trkpt><trkpt lat="45.48001819889931" lon="11.493643751019672"><ele>225.0</ele><time>2026-04-26T10:11:21.999Z</time></trkpt><trkpt lat="45.48012328170788" lon="11.493746189451663"><ele>225.0</ele><time>2026-04-26T10:11:23.998Z</time></trkpt><trkpt lat="45.4802097211618" lon="11.493807156095093"><ele>225.0</ele><time>2026-04-26T10:11:25.998Z</time></trkpt><trkpt lat="45.48029488141006" lon="11.493836508480848"><ele>225.0</ele><time>2026-04-26T10:11:27.998Z</time></trkpt><trkpt lat="45.48037740395868" lon="11.49389343245821"><ele>225.0</ele><time>2026-04-26T10:11:29.998Z</time></trkpt><trkpt lat="45.48045199612145" lon="11.493946722608351"><ele>226.6</ele><time>2026-04-26T10:11:31.998Z</time></trkpt><trkpt lat="45.48051130520717" lon="11.493987294729372"><ele>228.2</ele><time>2026-04-26T10:11:32.998Z</time></trkpt><trkpt lat="45.48057037732854" lon="11.494025210201931"><ele>229.8</ele><time>2026-04-26T10:11:33.998Z</time></trkpt><trkpt lat="45.480699396403296" lon="11.494070364039441"><ele>231.4</ele><time>2026-04-26T10:11:35.998Z</time></trkpt><trkpt lat="45.48079860946492" lon="11.494084788463514"><ele>233.0</ele><time>2026-04-26T10:11:37.998Z</time></trkpt><trkpt lat="45.480899098180174" lon="11.494098116071726"><ele>233.00000000000003</ele><time>2026-04-26T10:11:39.998Z</time></trkpt><trkpt lat="45.48099526895701" lon="11.494108216194556"><ele>233.0</ele><time>2026-04-26T10:11:41.998Z</time></trkpt><trkpt lat="45.48107491657282" lon="11.49409400631654"><ele>233.0</ele><time>2026-04-26T10:11:43.998Z</time></trkpt><trkpt lat="45.4811520753436" lon="11.494122323147819"><ele>233.0</ele><time>2026-04-26T10:11:45.998Z</time></trkpt><trkpt lat="45.48122630303342" lon="11.494127764701002"><ele>233.00000000000003</ele><time>2026-04-26T10:11:47.998Z</time></trkpt><trkpt lat="45.48129175829816" lon="11.494129696963425"><ele>233.0</ele><time>2026-04-26T10:11:49.998Z</time></trkpt><trkpt lat="45.48137455518945" lon="11.494132436165481"><ele>233.83333333333334</ele><time>2026-04-26T10:11:51.998Z</time></trkpt><trkpt lat="45.48144467852863" lon="11.494136069785212"><ele>234.66666666666669</ele><time>2026-04-26T10:11:53.998Z</time></trkpt><trkpt lat="45.48152113615096" lon="11.49409395403349"><ele>235.5</ele><time>2026-04-26T10:11:56.998Z</time></trkpt><trkpt lat="45.48160657913313" lon="11.494077672584599"><ele>236.33333333333331</ele><time>2026-04-26T10:12:00.998Z</time></trkpt><trkpt lat="45.48169393822961" lon="11.49409705257194"><ele>237.16666666666666</ele><time>2026-04-26T10:12:03.998Z</time></trkpt><trkpt lat="45.48177171520158" lon="11.494071748865498"><ele>238.0</ele><time>2026-04-26T10:12:06.997Z</time></trkpt><trkpt lat="45.48185055267837" lon="11.494089219679012"><ele>238.0</ele><time>2026-04-26T10:12:08.997Z</time></trkpt><trkpt lat="45.48197170239966" lon="11.494095012686513"><ele>238.0</ele><time>2026-04-26T10:12:10.997Z</time></trkpt><trkpt lat="45.482083407551855" lon="11.494133932448573"><ele>238.0</ele><time>2026-04-26T10:12:13Z</time></trkpt><trkpt lat="45.48216457202179" lon="11.494143366220909"><ele>238.0</ele><time>2026-04-26T10:12:15Z</time></trkpt><trkpt lat="45.4822491527377" lon="11.494160979583656"><ele>238.0</ele><time>2026-04-26T10:12:17Z</time></trkpt><trkpt lat="45.482324178956794" lon="11.494172244534552"><ele>237.8</ele><time>2026-04-26T10:12:20Z</time></trkpt><trkpt lat="45.48239472309054" lon="11.494060507036284"><ele>237.60000000000002</ele><time>2026-04-26T10:12:26Z</time></trkpt><trkpt lat="45.482469652921004" lon="11.49400997427778"><ele>237.39999999999998</ele><time>2026-04-26T10:12:27Z</time></trkpt><trkpt lat="45.48255664537907" lon="11.49400095974008"><ele>237.2</ele><time>2026-04-26T10:12:29Z</time></trkpt><trkpt lat="45.48262797627499" lon="11.494114015758752"><ele>237.0</ele><time>2026-04-26T10:12:32Z</time></trkpt><trkpt lat="45.48266354621822" lon="11.494214255225561"><ele>237.0</ele><time>2026-04-26T10:12:33Z</time></trkpt><trkpt lat="45.4827021844684" lon="11.494318452904587"><ele>237.0</ele><time>2026-04-26T10:12:34Z</time></trkpt><trkpt lat="45.48275578561112" lon="11.494451571958844"><ele>237.0</ele><time>2026-04-26T10:12:36Z</time></trkpt><trkpt lat="45.48284850012133" lon="11.49453824698453"><ele>237.0</ele><time>2026-04-26T10:12:38Z</time></trkpt><trkpt lat="45.48291317426352" lon="11.494611005191913"><ele>237.0</ele><time>2026-04-26T10:12:39Z</time></trkpt><trkpt lat="45.482967445917986" lon="11.494727776170826"><ele>234.83333333333334</ele><time>2026-04-26T10:12:42Z</time></trkpt><trkpt lat="45.48299849381736" lon="11.49481907794313"><ele>232.66666666666669</ele><time>2026-04-26T10:12:44Z</time></trkpt><trkpt lat="45.48303499864676" lon="11.49489916061287"><ele>230.5</ele><time>2026-04-26T10:12:46Z</time></trkpt><trkpt lat="45.48311357033925" lon="11.494952225323205"><ele>228.33333333333334</ele><time>2026-04-26T10:12:48.999Z</time></trkpt><trkpt lat="45.4832305530589" lon="11.494905717184547"><ele>226.16666666666669</ele><time>2026-04-26T10:12:50.999Z</time></trkpt><trkpt lat="45.48330571420246" lon="11.494885547400255"><ele>224.0</ele><time>2026-04-26T10:12:51.999Z</time></trkpt><trkpt lat="45.48340060783436" lon="11.494877089893052"><ele>224.00000000000003</ele><time>2026-04-26T10:12:52.999Z</time></trkpt><trkpt lat="45.48348882126824" lon="11.494870170067948"><ele>224.0</ele><time>2026-04-26T10:12:53.999Z</time></trkpt><trkpt lat="45.483574633866716" lon="11.494878837776264"><ele>224.0</ele><time>2026-04-26T10:12:54.999Z</time></trkpt><trkpt lat="45.48365146116817" lon="11.494871906664944"><ele>224.0</ele><time>2026-04-26T10:12:55.999Z</time></trkpt><trkpt lat="45.48371866322215" lon="11.494867350025956"><ele>224.00000000000003</ele><time>2026-04-26T10:12:56.999Z</time></trkpt><trkpt lat="45.48382522633128" lon="11.49484843827644"><ele>224.0</ele><time>2026-04-26T10:12:58.999Z</time></trkpt><trkpt lat="45.48390653203528" lon="11.494813663761656"><ele>221.6</ele><time>2026-04-26T10:13:00.999Z</time></trkpt><trkpt lat="45.48399368200823" lon="11.494814422289254"><ele>219.2</ele><time>2026-04-26T10:13:02.999Z</time></trkpt><trkpt lat="45.48409385428484" lon="11.494804895836387"><ele>216.79999999999998</ele><time>2026-04-26T10:13:04.999Z</time></trkpt><trkpt lat="45.484203205431186" lon="11.494792217321498"><ele>214.39999999999998</ele><time>2026-04-26T10:13:06.999Z</time></trkpt><trkpt lat="45.484282962687075" lon="11.494787612570407"><ele>212.0</ele><time>2026-04-26T10:13:08.999Z</time></trkpt><trkpt lat="45.48436995751344" lon="11.494753178948027"><ele>212.0</ele><time>2026-04-26T10:13:11.999Z</time></trkpt><trkpt lat="45.48446872097816" lon="11.494758429956958"><ele>212.0</ele><time>2026-04-26T10:13:15.999Z</time></trkpt><trkpt lat="45.484572140358026" lon="11.494772571411149"><ele>212.0</ele><time>2026-04-26T10:13:17.999Z</time></trkpt><trkpt lat="45.48466040502736" lon="11.494748276916335"><ele>212.0</ele><time>2026-04-26T10:13:19.999Z</time></trkpt><trkpt lat="45.484720367316015" lon="11.494696281072812"><ele>212.0</ele><time>2026-04-26T10:13:21.999Z</time></trkpt><trkpt lat="45.48483944176974" lon="11.494737601282221"><ele>210.16666666666669</ele><time>2026-04-26T10:13:23.999Z</time></trkpt><trkpt lat="45.48494533958981" lon="11.494756845574827"><ele>208.33333333333334</ele><time>2026-04-26T10:13:25.999Z</time></trkpt><trkpt lat="45.485053974806206" lon="11.494720950163797"><ele>206.5</ele><time>2026-04-26T10:13:27.999Z</time></trkpt><trkpt lat="45.485120283419995" lon="11.494723893813433"><ele>204.66666666666669</ele><time>2026-04-26T10:13:28.998Z</time></trkpt><trkpt lat="45.485190085148616" lon="11.494725120047947"><ele>202.83333333333334</ele><time>2026-04-26T10:13:29.998Z</time></trkpt><trkpt lat="45.485253782624994" lon="11.494712170073964"><ele>201.0</ele><time>2026-04-26T10:13:30.998Z</time></trkpt><trkpt lat="45.48538707386289" lon="11.494693253056576"><ele>197.0</ele><time>2026-04-26T10:13:32.998Z</time></trkpt><trkpt lat="45.485453934725385" lon="11.494720968806481"><ele>193.0</ele><time>2026-04-26T10:13:33.998Z</time></trkpt><trkpt lat="45.48557167476356" lon="11.494735063461007"><ele>189.0</ele><time>2026-04-26T10:13:35.998Z</time></trkpt><trkpt lat="45.48568591882198" lon="11.49473709922502"><ele>185.0</ele><time>2026-04-26T10:13:37.998Z</time></trkpt><trkpt lat="45.48576802363618" lon="11.49472497119384"><ele>181.0</ele><time>2026-04-26T10:13:38.998Z</time></trkpt><trkpt lat="45.485834681148205" lon="11.494684706838491"><ele>181.0</ele><time>2026-04-26T10:13:39.998Z</time></trkpt><trkpt lat="45.48594739995324" lon="11.494637846781442"><ele>181.0</ele><time>2026-04-26T10:13:41.998Z</time></trkpt><trkpt lat="45.486044455486685" lon="11.494564019970612"><ele>181.0</ele><time>2026-04-26T10:13:43.998Z</time></trkpt><trkpt lat="45.4861217346965" lon="11.494450355861991"><ele>181.0</ele><time>2026-04-26T10:13:45.998Z</time></trkpt><trkpt lat="45.4862065817521" lon="11.49440615989105"><ele>181.0</ele><time>2026-04-26T10:13:47.998Z</time></trkpt><trkpt lat="45.48628672711575" lon="11.494398247870432"><ele>180.0</ele><time>2026-04-26T10:13:48.998Z</time></trkpt><trkpt lat="45.4863542252366" lon="11.49437636866372"><ele>179.0</ele><time>2026-04-26T10:13:49.998Z</time></trkpt><trkpt lat="45.4864205774472" lon="11.494364648428972"><ele>178.0</ele><time>2026-04-26T10:13:50.998Z</time></trkpt><trkpt lat="45.486487094164495" lon="11.494378936180016"><ele>177.0</ele><time>2026-04-26T10:13:51.998Z</time></trkpt><trkpt lat="45.48655463090594" lon="11.494408877140108"><ele>176.0</ele><time>2026-04-26T10:13:52.998Z</time></trkpt><trkpt lat="45.4866224477266" lon="11.494431402984935"><ele>175.0</ele><time>2026-04-26T10:13:53.998Z</time></trkpt><trkpt lat="45.48668401231373" lon="11.494475844531248"><ele>174.0</ele><time>2026-04-26T10:13:54.998Z</time></trkpt><trkpt lat="45.486774244096296" lon="11.494590012826572"><ele>174.0</ele><time>2026-04-26T10:13:56.998Z</time></trkpt><trkpt lat="45.48680552573764" lon="11.494701586615635"><ele>174.0</ele><time>2026-04-26T10:13:57.998Z</time></trkpt><trkpt lat="45.48683553847773" lon="11.494786314303887"><ele>174.0</ele><time>2026-04-26T10:13:58.998Z</time></trkpt><trkpt lat="45.486848811096834" lon="11.494892445948537"><ele>174.0</ele><time>2026-04-26T10:13:59.998Z</time></trkpt><trkpt lat="45.48692609613515" lon="11.495004581736913"><ele>174.0</ele><time>2026-04-26T10:14:01.998Z</time></trkpt><trkpt lat="45.487015792867915" lon="11.495119937137595"><ele>174.0</ele><time>2026-04-26T10:14:03.998Z</time></trkpt><trkpt lat="45.48708017329988" lon="11.495192443505811"><ele>174.0</ele><time>2026-04-26T10:14:04.998Z</time></trkpt><trkpt lat="45.487140172951264" lon="11.495257373338791"><ele>174.0</ele><time>2026-04-26T10:14:05.998Z</time></trkpt><trkpt lat="45.4871950884668" lon="11.49530457037519"><ele>174.0</ele><time>2026-04-26T10:14:06.998Z</time></trkpt><trkpt lat="45.487251134274764" lon="11.495351415464357"><ele>174.0</ele><time>2026-04-26T10:14:07.998Z</time></trkpt><trkpt lat="45.487324800885645" lon="11.495391606111415"><ele>174.0</ele><time>2026-04-26T10:14:08.998Z</time></trkpt><trkpt lat="45.48740752496699" lon="11.495390787619693"><ele>174.0</ele><time>2026-04-26T10:14:10.997Z</time></trkpt><trkpt lat="45.48746577993529" lon="11.495429702398576"><ele>174.0</ele><time>2026-04-26T10:14:11.997Z</time></trkpt><trkpt lat="45.487550875818194" lon="11.49545465578184"><ele>174.0</ele><time>2026-04-26T10:14:13.997Z</time></trkpt><trkpt lat="45.48765645868983" lon="11.49549593237469"><ele>174.0</ele><time>2026-04-26T10:14:15.997Z</time></trkpt><trkpt lat="45.487735684705356" lon="11.49558808791011"><ele>174.0</ele><time>2026-04-26T10:14:18Z</time></trkpt><trkpt lat="45.48778331684158" lon="11.49564683743359"><ele>174.0</ele><time>2026-04-26T10:14:20Z</time></trkpt><trkpt lat="45.4878534631875" lon="11.495670383707031"><ele>174.0</ele><time>2026-04-26T10:14:22Z</time></trkpt><trkpt lat="45.48793052612984" lon="11.495740680004038"><ele>172.0</ele><time>2026-04-26T10:14:24Z</time></trkpt><trkpt lat="45.488025269054" lon="11.495833121926008"><ele>170.0</ele><time>2026-04-26T10:14:26Z</time></trkpt><trkpt lat="45.48811721567339" lon="11.49587245160865"><ele>168.0</ele><time>2026-04-26T10:14:29Z</time></trkpt><trkpt lat="45.488195891751786" lon="11.495839646113936"><ele>166.0</ele><time>2026-04-26T10:14:51Z</time></trkpt><trkpt lat="45.48827299617803" lon="11.495787663918186"><ele>164.0</ele><time>2026-04-26T10:14:52.999Z</time></trkpt><trkpt lat="45.488375148624314" lon="11.495677036307526"><ele>164.0</ele><time>2026-04-26T10:14:54.999Z</time></trkpt><trkpt lat="45.48841596234746" lon="11.49560693332154"><ele>164.0</ele><time>2026-04-26T10:14:55.999Z</time></trkpt><trkpt lat="45.4884683619229" lon="11.495534980272666"><ele>164.0</ele><time>2026-04-26T10:14:56.999Z</time></trkpt><trkpt lat="45.48854528583673" lon="11.495439868661785"><ele>164.0</ele><time>2026-04-26T10:14:58.999Z</time></trkpt><trkpt lat="45.48860946328541" lon="11.495410547347529"><ele>164.0</ele><time>2026-04-26T10:14:59.999Z</time></trkpt><trkpt lat="45.48873162196058" lon="11.495414505406282"><ele>164.0</ele><time>2026-04-26T10:15:01.999Z</time></trkpt><trkpt lat="45.4888491282542" lon="11.495416586709515"><ele>162.14285714285714</ele><time>2026-04-26T10:15:03.999Z</time></trkpt><trkpt lat="45.4889156000565" lon="11.495426143637335"><ele>160.28571428571428</ele><time>2026-04-26T10:15:04.999Z</time></trkpt><trkpt lat="45.48897967288544" lon="11.495442828318708"><ele>158.42857142857144</ele><time>2026-04-26T10:15:05.999Z</time></trkpt><trkpt lat="45.489054228055274" lon="11.495468028190073"><ele>156.57142857142856</ele><time>2026-04-26T10:15:06.999Z</time></trkpt><trkpt lat="45.48911466732661" lon="11.495514183125488"><ele>154.71428571428572</ele><time>2026-04-26T10:15:07.999Z</time></trkpt><trkpt lat="45.48918089661467" lon="11.495608775428272"><ele>152.85714285714286</ele><time>2026-04-26T10:15:08.999Z</time></trkpt><trkpt lat="45.48922751623184" lon="11.495682838925173"><ele>151.0</ele><time>2026-04-26T10:15:09.999Z</time></trkpt><trkpt lat="45.489250287112846" lon="11.495782576926894"><ele>151.0</ele><time>2026-04-26T10:15:10.999Z</time></trkpt><trkpt lat="45.4892823001742" lon="11.495868030296643"><ele>151.0</ele><time>2026-04-26T10:15:11.999Z</time></trkpt><trkpt lat="45.48933424348264" lon="11.495984899633399"><ele>151.0</ele><time>2026-04-26T10:15:13.999Z</time></trkpt><trkpt lat="45.48938074939361" lon="11.49608192320084"><ele>151.0</ele><time>2026-04-26T10:15:14.999Z</time></trkpt><trkpt lat="45.489433945182306" lon="11.496192080843567"><ele>151.0</ele><time>2026-04-26T10:15:15.999Z</time></trkpt><trkpt lat="45.4894965329507" lon="11.496302124307853"><ele>151.0</ele><time>2026-04-26T10:15:16.999Z</time></trkpt><trkpt lat="45.48955861814244" lon="11.496405619907197"><ele>147.2</ele><time>2026-04-26T10:15:17.999Z</time></trkpt><trkpt lat="45.48963641765072" lon="11.496502685274171"><ele>143.39999999999998</ele><time>2026-04-26T10:15:18.999Z</time></trkpt><trkpt lat="45.489724558075764" lon="11.496588388515551"><ele>139.6</ele><time>2026-04-26T10:15:19.999Z</time></trkpt><trkpt lat="45.489825233943165" lon="11.496638815921045"><ele>135.79999999999998</ele><time>2026-04-26T10:15:20.999Z</time></trkpt><trkpt lat="45.48994079462217" lon="11.496663391091678"><ele>132.0</ele><time>2026-04-26T10:15:21.999Z</time></trkpt><trkpt lat="45.490058358859855" lon="11.496692790109362"><ele>132.0</ele><time>2026-04-26T10:15:22.999Z</time></trkpt><trkpt lat="45.49016343165595" lon="11.496729662308319"><ele>132.0</ele><time>2026-04-26T10:15:23.999Z</time></trkpt><trkpt lat="45.49026445725686" lon="11.49677746338935"><ele>132.0</ele><time>2026-04-26T10:15:24.999Z</time></trkpt><trkpt lat="45.49035415739641" lon="11.496845734407197"><ele>132.0</ele><time>2026-04-26T10:15:25.999Z</time></trkpt><trkpt lat="45.4904394518764" lon="11.496869264018004"><ele>132.0</ele><time>2026-04-26T10:15:26.999Z</time></trkpt><trkpt lat="45.49051689488368" lon="11.496899871103674"><ele>129.2</ele><time>2026-04-26T10:15:27.999Z</time></trkpt><trkpt lat="45.49063086237656" lon="11.496908310018323"><ele>126.39999999999999</ele><time>2026-04-26T10:15:29.999Z</time></trkpt><trkpt lat="45.49073712683043" lon="11.496952540093838"><ele>123.60000000000001</ele><time>2026-04-26T10:15:31.999Z</time></trkpt><trkpt lat="45.49083597381999" lon="11.496892721349258"><ele>120.80000000000001</ele><time>2026-04-26T10:15:33.998Z</time></trkpt><trkpt lat="45.49092123447329" lon="11.496860984445545"><ele>118.0</ele><time>2026-04-26T10:15:35.998Z</time></trkpt><trkpt lat="45.49097279527666" lon="11.49691640010288"><ele>118.0</ele><time>2026-04-26T10:15:36.998Z</time></trkpt><trkpt lat="45.49105494206674" lon="11.497025164474524"><ele>118.00000000000001</ele><time>2026-04-26T10:15:37.998Z</time></trkpt><trkpt lat="45.491121551779734" lon="11.497135898117419"><ele>118.00000000000001</ele><time>2026-04-26T10:15:38.998Z</time></trkpt><trkpt lat="45.49119432728899" lon="11.497252499510253"><ele>118.0</ele><time>2026-04-26T10:15:39.998Z</time></trkpt><trkpt lat="45.49127172519553" lon="11.497365879758014"><ele>118.0</ele><time>2026-04-26T10:15:40.998Z</time></trkpt><trkpt lat="45.49135215731341" lon="11.497463968269429"><ele>113.75</ele><time>2026-04-26T10:15:41.998Z</time></trkpt><trkpt lat="45.49144051132493" lon="11.497567313627604"><ele>109.5</ele><time>2026-04-26T10:15:42.998Z</time></trkpt><trkpt lat="45.49152099262787" lon="11.49765855972205"><ele>105.25</ele><time>2026-04-26T10:15:43.998Z</time></trkpt><trkpt lat="45.49164552996219" lon="11.497792442519394"><ele>101.0</ele><time>2026-04-26T10:15:44.998Z</time></trkpt><trkpt lat="45.49177311908724" lon="11.497844429678242"><ele>101.5</ele><time>2026-04-26T10:15:45.998Z</time></trkpt><trkpt lat="45.49189204260461" lon="11.497932229285448"><ele>102.0</ele><time>2026-04-26T10:15:46.998Z</time></trkpt><trkpt lat="45.4920108753359" lon="11.497983160907403"><ele>102.5</ele><time>2026-04-26T10:15:47.998Z</time></trkpt><trkpt lat="45.49213526549241" lon="11.498027435112562"><ele>103.0</ele><time>2026-04-26T10:15:48.998Z</time></trkpt><trkpt lat="45.49227332893286" lon="11.49806846146481"><ele>103.0</ele><time>2026-04-26T10:15:49.998Z</time></trkpt><trkpt lat="45.49239603047824" lon="11.498104773190814"><ele>103.0</ele><time>2026-04-26T10:15:50.998Z</time></trkpt><trkpt lat="45.492525524099136" lon="11.498129919513318"><ele>103.0</ele><time>2026-04-26T10:15:51.998Z</time></trkpt><trkpt lat="45.49265485544526" lon="11.498150226344837"><ele>103.0</ele><time>2026-04-26T10:15:52.998Z</time></trkpt><trkpt lat="45.49274020295162" lon="11.498139090688635"><ele>103.0</ele><time>2026-04-26T10:15:53.998Z</time></trkpt><trkpt lat="45.492811655017" lon="11.498167345084484"><ele>103.0</ele><time>2026-04-26T10:15:54.998Z</time></trkpt><trkpt lat="45.4928950594788" lon="11.498185284730013"><ele>103.0</ele><time>2026-04-26T10:15:55.998Z</time></trkpt><trkpt lat="45.492984458667" lon="11.498199989281533"><ele>103.0</ele><time>2026-04-26T10:15:56.998Z</time></trkpt><trkpt lat="45.493080952331006" lon="11.498202008425691"><ele>103.0</ele><time>2026-04-26T10:15:57.998Z</time></trkpt><trkpt lat="45.493187479119854" lon="11.498192990532116"><ele>99.80000000000001</ele><time>2026-04-26T10:15:58.998Z</time></trkpt><trkpt lat="45.493287824923776" lon="11.498160935008393"><ele>96.6</ele><time>2026-04-26T10:15:59.998Z</time></trkpt><trkpt lat="45.4933851149446" lon="11.498199113339997"><ele>93.4</ele><time>2026-04-26T10:16:00.998Z</time></trkpt><trkpt lat="45.49349771768806" lon="11.498188161273744"><ele>90.19999999999999</ele><time>2026-04-26T10:16:01.998Z</time></trkpt><trkpt lat="45.493621761714486" lon="11.498167688016487"><ele>87.0</ele><time>2026-04-26T10:16:03.998Z</time></trkpt><trkpt lat="45.49370624287507" lon="11.498150774389838"><ele>83.16666666666667</ele><time>2026-04-26T10:16:04.998Z</time></trkpt><trkpt lat="45.49379682552892" lon="11.498136190624743"><ele>79.33333333333333</ele><time>2026-04-26T10:16:05.998Z</time></trkpt><trkpt lat="45.49388034595598" lon="11.498126662417805"><ele>75.5</ele><time>2026-04-26T10:16:06.998Z</time></trkpt><trkpt lat="45.49395739283655" lon="11.498146244311359"><ele>71.66666666666666</ele><time>2026-04-26T10:16:07.998Z</time></trkpt><trkpt lat="45.49402230163111" lon="11.498161001202334"><ele>67.83333333333333</ele><time>2026-04-26T10:16:08.998Z</time></trkpt><trkpt lat="45.4940931971929" lon="11.498205627889734"><ele>64.0</ele><time>2026-04-26T10:16:09.998Z</time></trkpt><trkpt lat="45.494146810863384" lon="11.498269055960888"><ele>63.99999999999999</ele><time>2026-04-26T10:16:10.998Z</time></trkpt><trkpt lat="45.494190997009724" lon="11.4983554374584"><ele>64.0</ele><time>2026-04-26T10:16:11.998Z</time></trkpt><trkpt lat="45.494220284344486" lon="11.498441114282205"><ele>64.0</ele><time>2026-04-26T10:16:12.998Z</time></trkpt><trkpt lat="45.4942244834432" lon="11.49855159457069"><ele>64.0</ele><time>2026-04-26T10:16:13.998Z</time></trkpt><trkpt lat="45.49417935577046" lon="11.498684911963716"><ele>63.99999999999999</ele><time>2026-04-26T10:16:14.998Z</time></trkpt><trkpt lat="45.494153932960934" lon="11.498833750945616"><ele>64.0</ele><time>2026-04-26T10:16:15.997Z</time></trkpt><trkpt lat="45.49410795941555" lon="11.498952195186156"><ele>63.400000000000006</ele><time>2026-04-26T10:16:16.997Z</time></trkpt><trkpt lat="45.494061959504336" lon="11.499075692848486"><ele>62.800000000000004</ele><time>2026-04-26T10:16:17.997Z</time></trkpt><trkpt lat="45.493988900070846" lon="11.499178869265938"><ele>62.199999999999996</ele><time>2026-04-26T10:16:18.997Z</time></trkpt><trkpt lat="45.49393766930188" lon="11.499272376982663"><ele>61.599999999999994</ele><time>2026-04-26T10:16:19.997Z</time></trkpt><trkpt lat="45.49389338700896" lon="11.499358466746978"><ele>61.0</ele><time>2026-04-26T10:16:20.997Z</time></trkpt><trkpt lat="45.49388040463628" lon="11.49951500730798"><ele>63.0</ele><time>2026-04-26T10:16:22.997Z</time></trkpt><trkpt lat="45.49395730594984" lon="11.499660149965157"><ele>65.0</ele><time>2026-04-26T10:16:25Z</time></trkpt><trkpt lat="45.49404492884716" lon="11.4997028317185"><ele>67.0</ele><time>2026-04-26T10:16:26Z</time></trkpt><trkpt lat="45.49413958837034" lon="11.49974695225911"><ele>69.0</ele><time>2026-04-26T10:16:27Z</time></trkpt><trkpt lat="45.49424378810174" lon="11.49978560521705"><ele>71.0</ele><time>2026-04-26T10:16:28Z</time></trkpt><trkpt lat="45.49434455976276" lon="11.49980880583831"><ele>71.0</ele><time>2026-04-26T10:16:29Z</time></trkpt><trkpt lat="45.49447508253598" lon="11.499806356755565"><ele>71.0</ele><time>2026-04-26T10:16:30Z</time></trkpt><trkpt lat="45.49459641119217" lon="11.499802231985365"><ele>71.0</ele><time>2026-04-26T10:16:31Z</time></trkpt><trkpt lat="45.49472775589157" lon="11.499805209365771"><ele>71.0</ele><time>2026-04-26T10:16:32Z</time></trkpt><trkpt lat="45.49484817447418" lon="11.49980225296096"><ele>67.25</ele><time>2026-04-26T10:16:33Z</time></trkpt><trkpt lat="45.49497562663511" lon="11.49978434973584"><ele>63.5</ele><time>2026-04-26T10:16:34Z</time></trkpt><trkpt lat="45.495090717071356" lon="11.499780425363559"><ele>59.75</ele><time>2026-04-26T10:16:35Z</time></trkpt><trkpt lat="45.495207459560135" lon="11.499766254387788"><ele>56.0</ele><time>2026-04-26T10:16:36Z</time></trkpt><trkpt lat="45.49532265831551" lon="11.499756232965053"><ele>53.0</ele><time>2026-04-26T10:16:37Z</time></trkpt><trkpt lat="45.495433236542" lon="11.499758854058355"><ele>49.99999999999999</ele><time>2026-04-26T10:16:38Z</time></trkpt><trkpt lat="45.49553976220839" lon="11.499774939493589"><ele>47.0</ele><time>2026-04-26T10:16:39Z</time></trkpt><trkpt lat="45.49564855058278" lon="11.499790950994734"><ele>44.0</ele><time>2026-04-26T10:16:40Z</time></trkpt><trkpt lat="45.49574722454615" lon="11.49981594461437"><ele>41.0</ele><time>2026-04-26T10:16:41Z</time></trkpt><trkpt lat="45.495824361031545" lon="11.49985718632657"><ele>41.0</ele><time>2026-04-26T10:16:42Z</time></trkpt><trkpt lat="45.49589520943285" lon="11.4999138145466"><ele>41.0</ele><time>2026-04-26T10:16:43Z</time></trkpt><trkpt lat="45.49595958014854" lon="11.499991554515042"><ele>41.0</ele><time>2026-04-26T10:16:44Z</time></trkpt><trkpt lat="45.49602585416905" lon="11.500063551817224"><ele>41.0</ele><time>2026-04-26T10:16:45Z</time></trkpt><trkpt lat="45.49606666206432" lon="11.500176004093346"><ele>41.0</ele><time>2026-04-26T10:16:46Z</time></trkpt><trkpt lat="45.49609860726205" lon="11.500282478043776"><ele>41.0</ele><time>2026-04-26T10:16:47Z</time></trkpt><trkpt lat="45.4961170666578" lon="11.500393821401"><ele>38.599999999999994</ele><time>2026-04-26T10:16:48Z</time></trkpt><trkpt lat="45.4961407104416" lon="11.500492906779401"><ele>36.199999999999996</ele><time>2026-04-26T10:16:49Z</time></trkpt><trkpt lat="45.496177706965916" lon="11.50066744655701"><ele>33.8</ele><time>2026-04-26T10:16:51Z</time></trkpt><trkpt lat="45.49622500868943" lon="11.500835710146712"><ele>31.4</ele><time>2026-04-26T10:16:53Z</time></trkpt><trkpt lat="45.496245870239996" lon="11.50093246274537"><ele>29.0</ele><time>2026-04-26T10:16:54Z</time></trkpt><trkpt lat="45.49627945212843" lon="11.50110515269055"><ele>28.999999999999996</ele><time>2026-04-26T10:16:55.999Z</time></trkpt><trkpt lat="45.49631057627453" lon="11.50119806422413"><ele>29.0</ele><time>2026-04-26T10:16:56.999Z</time></trkpt><trkpt lat="45.49634305734104" lon="11.501292944363014"><ele>29.0</ele><time>2026-04-26T10:16:57.999Z</time></trkpt><trkpt lat="45.496361278286244" lon="11.501383265851956"><ele>29.0</ele><time>2026-04-26T10:16:58.999Z</time></trkpt><trkpt lat="45.49639195149799" lon="11.50156074928294"><ele>28.999999999999996</ele><time>2026-04-26T10:17:00.999Z</time></trkpt><trkpt lat="45.496413912364055" lon="11.501653036778173"><ele>29.0</ele><time>2026-04-26T10:17:01.999Z</time></trkpt><trkpt lat="45.4964420450545" lon="11.50174425167082"><ele>30.333333333333332</ele><time>2026-04-26T10:17:02.999Z</time></trkpt><trkpt lat="45.496474681436524" lon="11.501902738387049"><ele>31.666666666666664</ele><time>2026-04-26T10:17:04.999Z</time></trkpt><trkpt lat="45.49651805239428" lon="11.502043380475923"><ele>33.0</ele><time>2026-04-26T10:17:06.999Z</time></trkpt><trkpt lat="45.4965332803901" lon="11.50214366098648"><ele>34.333333333333336</ele><time>2026-04-26T10:17:07.999Z</time></trkpt><trkpt lat="45.49656218356428" lon="11.502224533539934"><ele>35.66666666666667</ele><time>2026-04-26T10:17:08.999Z</time></trkpt><trkpt lat="45.49659694043967" lon="11.502304651752448"><ele>37.0</ele><time>2026-04-26T10:17:09.999Z</time></trkpt><trkpt lat="45.49662121089797" lon="11.502387616961157"><ele>39.400000000000006</ele><time>2026-04-26T10:17:10.999Z</time></trkpt><trkpt lat="45.49668127763441" lon="11.502537096382628"><ele>41.800000000000004</ele><time>2026-04-26T10:17:12.999Z</time></trkpt><trkpt lat="45.49674808164207" lon="11.502684005204683"><ele>44.2</ele><time>2026-04-26T10:17:14.999Z</time></trkpt><trkpt lat="45.49676723157922" lon="11.502773975261535"><ele>46.6</ele><time>2026-04-26T10:17:15.999Z</time></trkpt><trkpt lat="45.49683933043376" lon="11.502892616750458"><ele>49.0</ele><time>2026-04-26T10:17:17.999Z</time></trkpt><trkpt lat="45.49687410792093" lon="11.502967497036536"><ele>45.400000000000006</ele><time>2026-04-26T10:17:18.999Z</time></trkpt><trkpt lat="45.49693917598436" lon="11.503076800232357"><ele>41.800000000000004</ele><time>2026-04-26T10:17:20.999Z</time></trkpt><trkpt lat="45.49697278568083" lon="11.503160053182041"><ele>38.2</ele><time>2026-04-26T10:17:21.999Z</time></trkpt><trkpt lat="45.49703139901691" lon="11.503317504478675"><ele>34.6</ele><time>2026-04-26T10:17:23.999Z</time></trkpt><trkpt lat="45.49709513957697" lon="11.50345630941056"><ele>31.0</ele><time>2026-04-26T10:17:25.999Z</time></trkpt><trkpt lat="45.4971466418879" lon="11.503597114018328"><ele>31.000000000000004</ele><time>2026-04-26T10:17:27.999Z</time></trkpt><trkpt lat="45.49719080352125" lon="11.503745649710158"><ele>31.0</ele><time>2026-04-26T10:17:29.999Z</time></trkpt><trkpt lat="45.4972095768654" lon="11.503833436964277"><ele>31.0</ele><time>2026-04-26T10:17:30.999Z</time></trkpt><trkpt lat="45.49724802694886" lon="11.504004390750962"><ele>31.0</ele><time>2026-04-26T10:17:32.999Z</time></trkpt><trkpt lat="45.49725641345881" lon="11.504101091037693"><ele>31.000000000000004</ele><time>2026-04-26T10:17:33.999Z</time></trkpt><trkpt lat="45.49726961101183" lon="11.504191524886771"><ele>31.0</ele><time>2026-04-26T10:17:34.999Z</time></trkpt><trkpt lat="45.49729183041051" lon="11.50428344636335"><ele>31.42857142857143</ele><time>2026-04-26T10:17:35.999Z</time></trkpt><trkpt lat="45.4972930251614" lon="11.504380236491592"><ele>31.85714285714286</ele><time>2026-04-26T10:17:36.998Z</time></trkpt><trkpt lat="45.49731377258997" lon="11.504482713339863"><ele>32.285714285714285</ele><time>2026-04-26T10:17:37.998Z</time></trkpt><trkpt lat="45.49731710184627" lon="11.504582533374526"><ele>32.714285714285715</ele><time>2026-04-26T10:17:38.998Z</time></trkpt><trkpt lat="45.49733039596541" lon="11.50467615550508"><ele>33.14285714285714</ele><time>2026-04-26T10:17:39.998Z</time></trkpt><trkpt lat="45.49734568244699" lon="11.504768746704968"><ele>33.57142857142857</ele><time>2026-04-26T10:17:40.998Z</time></trkpt><trkpt lat="45.49735598241713" lon="11.504871673885205"><ele>34.0</ele><time>2026-04-26T10:17:41.998Z</time></trkpt><trkpt lat="45.497379696175486" lon="11.505053135667088"><ele>34.0</ele><time>2026-04-26T10:17:43.998Z</time></trkpt><trkpt lat="45.497405390432064" lon="11.505199117591648"><ele>34.0</ele><time>2026-04-26T10:17:45.998Z</time></trkpt><trkpt lat="45.49743620556198" lon="11.505329962587517"><ele>34.0</ele><time>2026-04-26T10:17:47.998Z</time></trkpt><trkpt lat="45.4974822744237" lon="11.505472817840017"><ele>34.0</ele><time>2026-04-26T10:17:49.998Z</time></trkpt><trkpt lat="45.49754272318167" lon="11.505525555870813"><ele>34.0</ele><time>2026-04-26T10:17:51.998Z</time></trkpt><trkpt lat="45.49761200604417" lon="11.505559180912762"><ele>34.0</ele><time>2026-04-26T10:17:52.998Z</time></trkpt><trkpt lat="45.49767860467396" lon="11.505591261324627"><ele>34.0</ele><time>2026-04-26T10:17:53.998Z</time></trkpt><trkpt lat="45.4977475823625" lon="11.50559198332939"><ele>34.0</ele><time>2026-04-26T10:17:54.998Z</time></trkpt><trkpt lat="45.49781284620547" lon="11.505592813962014"><ele>34.0</ele><time>2026-04-26T10:17:55.998Z</time></trkpt><trkpt lat="45.497926172395964" lon="11.505593330120808"><ele>34.0</ele><time>2026-04-26T10:17:57.998Z</time></trkpt><trkpt lat="45.49803497439184" lon="11.505589764268162"><ele>34.0</ele><time>2026-04-26T10:17:59.998Z</time></trkpt><trkpt lat="45.49814554215987" lon="11.505585100112656"><ele>33.833333333333336</ele><time>2026-04-26T10:18:01.998Z</time></trkpt><trkpt lat="45.49821153011809" lon="11.505582110104292"><ele>33.66666666666667</ele><time>2026-04-26T10:18:02.998Z</time></trkpt><trkpt lat="45.49827540257518" lon="11.50557921595656"><ele>33.5</ele><time>2026-04-26T10:18:03.998Z</time></trkpt><trkpt lat="45.49837854566836" lon="11.505574542402146"><ele>33.333333333333336</ele><time>2026-04-26T10:18:05.998Z</time></trkpt><trkpt lat="45.49847449322764" lon="11.505570211300759"><ele>33.166666666666664</ele><time>2026-04-26T10:18:07.998Z</time></trkpt><trkpt lat="45.49858484956319" lon="11.505563281950618"><ele>33.0</ele><time>2026-04-26T10:18:09.998Z</time></trkpt><trkpt lat="45.49867884119929" lon="11.505557706563652"><ele>32.199999999999996</ele><time>2026-04-26T10:18:11.998Z</time></trkpt><trkpt lat="45.4987744902218" lon="11.505552696026289"><ele>31.4</ele><time>2026-04-26T10:18:13.998Z</time></trkpt><trkpt lat="45.498875275137905" lon="11.505548647839067"><ele>30.599999999999998</ele><time>2026-04-26T10:18:15.998Z</time></trkpt><trkpt lat="45.498964194794766" lon="11.50554508438973"><ele>29.799999999999997</ele><time>2026-04-26T10:18:17.997Z</time></trkpt><trkpt lat="45.499056653084786" lon="11.505541379121205"><ele>29.0</ele><time>2026-04-26T10:18:19.997Z</time></trkpt><trkpt lat="45.49911965015176" lon="11.505466151467937"><ele>29.0</ele><time>2026-04-26T10:18:21.997Z</time></trkpt><trkpt lat="45.499195819027605" lon="11.505460562245315"><ele>29.0</ele><time>2026-04-26T10:18:23.997Z</time></trkpt><trkpt lat="45.499268008450095" lon="11.505468197646856"><ele>29.0</ele><time>2026-04-26T10:18:25.997Z</time></trkpt><trkpt lat="45.49934589399086" lon="11.505469514971407"><ele>29.0</ele><time>2026-04-26T10:18:27.997Z</time></trkpt><trkpt lat="45.49953548372761" lon="11.505464494657097"><ele>29.0</ele><time>2026-04-26T10:18:32Z</time></trkpt><trkpt lat="45.499640524267264" lon="11.505462492810453"><ele>29.0</ele><time>2026-04-26T10:18:34Z</time></trkpt><trkpt lat="45.49970925779508" lon="11.505467412281721"><ele>29.0</ele><time>2026-04-26T10:18:35Z</time></trkpt><trkpt lat="45.499816292870044" lon="11.505469570753972"><ele>29.0</ele><time>2026-04-26T10:18:37Z</time></trkpt><trkpt lat="45.499914455848476" lon="11.505453628090285"><ele>29.0</ele><time>2026-04-26T10:18:39Z</time></trkpt><trkpt lat="45.50001295863267" lon="11.50544354281113"><ele>29.0</ele><time>2026-04-26T10:18:41Z</time></trkpt><trkpt lat="45.500101627072574" lon="11.505437055337204"><ele>29.0</ele><time>2026-04-26T10:18:43Z</time></trkpt><trkpt lat="45.500185565004195" lon="11.505428513071626"><ele>29.0</ele><time>2026-04-26T10:18:45Z</time></trkpt><trkpt lat="45.500273412393156" lon="11.505430423796602"><ele>29.0</ele><time>2026-04-26T10:18:47Z</time></trkpt><trkpt lat="45.5003845961574" lon="11.50540756177999"><ele>29.0</ele><time>2026-04-26T10:18:49Z</time></trkpt><trkpt lat="45.5004931421188" lon="11.505399397543973"><ele>29.0</ele><time>2026-04-26T10:18:51Z</time></trkpt><trkpt lat="45.50058697189919" lon="11.505391731301117"><ele>28.799999999999997</ele><time>2026-04-26T10:18:53Z</time></trkpt><trkpt lat="45.50069873111394" lon="11.505380413483643"><ele>28.599999999999998</ele><time>2026-04-26T10:18:55Z</time></trkpt><trkpt lat="45.50079190426165" lon="11.505386068520776"><ele>28.4</ele><time>2026-04-26T10:18:57Z</time></trkpt><trkpt lat="45.50089542087723" lon="11.505385246259321"><ele>28.2</ele><time>2026-04-26T10:18:59Z</time></trkpt><trkpt lat="45.5010015814295" lon="11.505381655130432"><ele>28.0</ele><time>2026-04-26T10:19:01Z</time></trkpt><trkpt lat="45.50108789944742" lon="11.50538498775004"><ele>28.0</ele><time>2026-04-26T10:19:03Z</time></trkpt><trkpt lat="45.501178074251435" lon="11.505374574144392"><ele>27.999999999999996</ele><time>2026-04-26T10:19:04.999Z</time></trkpt><trkpt lat="45.5012761011577" lon="11.505367291961319"><ele>27.999999999999996</ele><time>2026-04-26T10:19:06.999Z</time></trkpt><trkpt lat="45.50137048049902" lon="11.505358816767917"><ele>28.0</ele><time>2026-04-26T10:19:08.999Z</time></trkpt><trkpt lat="45.5014526757957" lon="11.505369116048756"><ele>28.0</ele><time>2026-04-26T10:19:10.999Z</time></trkpt><trkpt lat="45.50153918181034" lon="11.505358470164545"><ele>28.333333333333336</ele><time>2026-04-26T10:19:12.999Z</time></trkpt><trkpt lat="45.50162855293099" lon="11.505353087941728"><ele>28.666666666666668</ele><time>2026-04-26T10:19:14.999Z</time></trkpt><trkpt lat="45.50170942893941" lon="11.50534632537363"><ele>29.0</ele><time>2026-04-26T10:19:16.999Z</time></trkpt><trkpt lat="45.501804971877625" lon="11.505342389256278"><ele>29.333333333333336</ele><time>2026-04-26T10:19:18.999Z</time></trkpt><trkpt lat="45.5018894276046" lon="11.50533970966695"><ele>29.666666666666668</ele><time>2026-04-26T10:19:20.999Z</time></trkpt><trkpt lat="45.501978029965734" lon="11.505330457115484"><ele>30.0</ele><time>2026-04-26T10:19:22.999Z</time></trkpt><trkpt lat="45.502043245137116" lon="11.505282221115715"><ele>32.5</ele><time>2026-04-26T10:19:24.999Z</time></trkpt><trkpt lat="45.50213918470984" lon="11.505288575515708"><ele>35.0</ele><time>2026-04-26T10:19:26.999Z</time></trkpt><trkpt lat="45.502230783480066" lon="11.505297112877532"><ele>37.5</ele><time>2026-04-26T10:19:28.999Z</time></trkpt><trkpt lat="45.50230767065365" lon="11.50530878502525"><ele>40.0</ele><time>2026-04-26T10:19:30.999Z</time></trkpt><trkpt lat="45.502391709726425" lon="11.505322100415233"><ele>42.5</ele><time>2026-04-26T10:19:32.999Z</time></trkpt><trkpt lat="45.502468576970664" lon="11.505332071755186"><ele>45.0</ele><time>2026-04-26T10:19:34.999Z</time></trkpt><trkpt lat="45.50253641037234" lon="11.505331472149424"><ele>45.0</ele><time>2026-04-26T10:19:36.999Z</time></trkpt><trkpt lat="45.50261410934499" lon="11.505337211093357"><ele>45.0</ele><time>2026-04-26T10:19:38.999Z</time></trkpt><trkpt lat="45.50268838301354" lon="11.505330171334364"><ele>45.0</ele><time>2026-04-26T10:19:40.999Z</time></trkpt><trkpt lat="45.502790538791146" lon="11.505299558518436"><ele>45.0</ele><time>2026-04-26T10:19:42.999Z</time></trkpt><trkpt lat="45.50288391543816" lon="11.505287680650722"><ele>45.0</ele><time>2026-04-26T10:19:44.998Z</time></trkpt><trkpt lat="45.50295904355516" lon="11.505310450537435"><ele>45.0</ele><time>2026-04-26T10:19:46.998Z</time></trkpt><trkpt lat="45.503030347796546" lon="11.505319191206508"><ele>46.833333333333336</ele><time>2026-04-26T10:19:48.998Z</time></trkpt><trkpt lat="45.503109177479075" lon="11.505350780080647"><ele>48.66666666666667</ele><time>2026-04-26T10:19:50.998Z</time></trkpt><trkpt lat="45.50318861319544" lon="11.505379744602951"><ele>50.5</ele><time>2026-04-26T10:19:52.998Z</time></trkpt><trkpt lat="45.503266974480354" lon="11.505395522189946"><ele>52.333333333333336</ele><time>2026-04-26T10:19:54.998Z</time></trkpt><trkpt lat="45.50336046171476" lon="11.505389746964747"><ele>54.16666666666667</ele><time>2026-04-26T10:19:58.998Z</time></trkpt><trkpt lat="45.50344395285278" lon="11.50545058581638"><ele>56.0</ele><time>2026-04-26T10:20:01.998Z</time></trkpt><trkpt lat="45.50355259083" lon="11.50545430804983"><ele>52.833333333333336</ele><time>2026-04-26T10:20:04.998Z</time></trkpt><trkpt lat="45.50368065926682" lon="11.505468149264367"><ele>49.66666666666667</ele><time>2026-04-26T10:20:06.998Z</time></trkpt><trkpt lat="45.50375357559988" lon="11.505461702155154"><ele>46.5</ele><time>2026-04-26T10:20:07.998Z</time></trkpt><trkpt lat="45.50382866548063" lon="11.505494859271082"><ele>43.333333333333336</ele><time>2026-04-26T10:20:09.998Z</time></trkpt><trkpt lat="45.503925697549285" lon="11.50553171791693"><ele>40.16666666666667</ele><time>2026-04-26T10:20:11.998Z</time></trkpt><trkpt lat="45.503987896832136" lon="11.505552941179193"><ele>37.0</ele><time>2026-04-26T10:20:12.998Z</time></trkpt><trkpt lat="45.50407740612442" lon="11.505581300425373"><ele>37.0</ele><time>2026-04-26T10:20:14.998Z</time></trkpt><trkpt lat="45.50417853119133" lon="11.50559441027379"><ele>37.0</ele><time>2026-04-26T10:20:17.998Z</time></trkpt><trkpt lat="45.504258965372635" lon="11.505610815971679"><ele>37.0</ele><time>2026-04-26T10:20:21.998Z</time></trkpt><trkpt lat="45.50432500716653" lon="11.505606614282001"><ele>37.0</ele><time>2026-04-26T10:20:23.998Z</time></trkpt><trkpt lat="45.50439004438547" lon="11.505591309797797"><ele>37.0</ele><time>2026-04-26T10:20:25.997Z</time></trkpt><trkpt lat="45.50447233606272" lon="11.505611429229699"><ele>37.0</ele><time>2026-04-26T10:20:28.997Z</time></trkpt><trkpt lat="45.50454015917113" lon="11.505666314081846"><ele>37.833333333333336</ele><time>2026-04-26T10:20:30.997Z</time></trkpt><trkpt lat="45.504616945952705" lon="11.505642788313068"><ele>38.66666666666667</ele><time>2026-04-26T10:20:32.997Z</time></trkpt><trkpt lat="45.50469334608538" lon="11.505677175794338"><ele>39.5</ele><time>2026-04-26T10:20:34.997Z</time></trkpt><trkpt lat="45.50476897940791" lon="11.50564472880677"><ele>40.333333333333336</ele><time>2026-04-26T10:20:36Z</time></trkpt><trkpt lat="45.50485200852792" lon="11.505614850394943"><ele>41.166666666666664</ele><time>2026-04-26T10:20:37Z</time></trkpt><trkpt lat="45.504946552720085" lon="11.505576858624462"><ele>42.0</ele><time>2026-04-26T10:20:38Z</time></trkpt><trkpt lat="45.505017385993945" lon="11.505560177119195"><ele>42.0</ele><time>2026-04-26T10:20:39Z</time></trkpt><trkpt lat="45.50513013684216" lon="11.505613099826082"><ele>42.0</ele><time>2026-04-26T10:20:41Z</time></trkpt><trkpt lat="45.505263037933155" lon="11.505640918765106"><ele>42.0</ele><time>2026-04-26T10:20:43Z</time></trkpt><trkpt lat="45.505344576359064" lon="11.505681511228731"><ele>42.0</ele><time>2026-04-26T10:20:44Z</time></trkpt><trkpt lat="45.50550748230221" lon="11.505669295076562"><ele>42.8</ele><time>2026-04-26T10:20:47Z</time></trkpt><trkpt lat="45.50560177715786" lon="11.505678681941953"><ele>43.6</ele><time>2026-04-26T10:20:49Z</time></trkpt><trkpt lat="45.50570675651393" lon="11.505676602329512"><ele>44.4</ele><time>2026-04-26T10:20:51Z</time></trkpt><trkpt lat="45.505798635027446" lon="11.505687237345427"><ele>45.199999999999996</ele><time>2026-04-26T10:20:53Z</time></trkpt><trkpt lat="45.505920488600644" lon="11.505655240910663"><ele>46.0</ele><time>2026-04-26T10:20:55Z</time></trkpt><trkpt lat="45.50599014713085" lon="11.505658523082626"><ele>46.0</ele><time>2026-04-26T10:20:56Z</time></trkpt><trkpt lat="45.506078880087784" lon="11.505674686725602"><ele>46.0</ele><time>2026-04-26T10:20:58Z</time></trkpt><trkpt lat="45.506197040240515" lon="11.505677310629208"><ele>46.0</ele><time>2026-04-26T10:21:00Z</time></trkpt><trkpt lat="45.50628547732596" lon="11.505675429012268"><ele>46.0</ele><time>2026-04-26T10:21:02Z</time></trkpt><trkpt lat="45.506384194275505" lon="11.505679719045562"><ele>46.0</ele><time>2026-04-26T10:21:04Z</time></trkpt><trkpt lat="45.506479159407654" lon="11.505695450844339"><ele>45.8</ele><time>2026-04-26T10:21:06Z</time></trkpt><trkpt lat="45.50657752823135" lon="11.50571388217163"><ele>45.599999999999994</ele><time>2026-04-26T10:21:08Z</time></trkpt><trkpt lat="45.506701270156995" lon="11.505698178208084"><ele>45.4</ele><time>2026-04-26T10:21:09.999Z</time></trkpt><trkpt lat="45.50680450031335" lon="11.505731860137697"><ele>45.2</ele><time>2026-04-26T10:21:11.999Z</time></trkpt><trkpt lat="45.5069174519108" lon="11.505724971405812"><ele>45.0</ele><time>2026-04-26T10:21:13.999Z</time></trkpt><trkpt lat="45.507008015780166" lon="11.505728461317247"><ele>45.4</ele><time>2026-04-26T10:21:15.999Z</time></trkpt><trkpt lat="45.507094255981166" lon="11.505730099118166"><ele>45.8</ele><time>2026-04-26T10:21:17.999Z</time></trkpt><trkpt lat="45.50718872353158" lon="11.505730363815985"><ele>46.2</ele><time>2026-04-26T10:21:19.999Z</time></trkpt><trkpt lat="45.50728235539178" lon="11.505750049000389"><ele>46.6</ele><time>2026-04-26T10:21:21.999Z</time></trkpt><trkpt lat="45.50737447687013" lon="11.505789976262133"><ele>47.0</ele><time>2026-04-26T10:21:23.999Z</time></trkpt><trkpt lat="45.50747665065492" lon="11.505820478092124"><ele>47.0</ele><time>2026-04-26T10:21:25.999Z</time></trkpt><trkpt lat="45.50758466325737" lon="11.505854555727272"><ele>47.0</ele><time>2026-04-26T10:21:27.999Z</time></trkpt><trkpt lat="45.50769982272498" lon="11.50589227033095"><ele>47.0</ele><time>2026-04-26T10:21:29.999Z</time></trkpt><trkpt lat="45.5078093524408" lon="11.50592915072731"><ele>47.0</ele><time>2026-04-26T10:21:31.999Z</time></trkpt><trkpt lat="45.50790586282075" lon="11.505963286509306"><ele>47.0</ele><time>2026-04-26T10:21:33.999Z</time></trkpt><trkpt lat="45.50800397535207" lon="11.505997988988332"><ele>49.0</ele><time>2026-04-26T10:21:35.999Z</time></trkpt><trkpt lat="45.508123651926375" lon="11.506017289790783"><ele>51.0</ele><time>2026-04-26T10:21:37.999Z</time></trkpt><trkpt lat="45.50822974779013" lon="11.506062291007662"><ele>53.0</ele><time>2026-04-26T10:21:39.999Z</time></trkpt><trkpt lat="45.50831710215123" lon="11.506108742151596"><ele>55.0</ele><time>2026-04-26T10:21:41.999Z</time></trkpt><trkpt lat="45.50839303973698" lon="11.506138928178784"><ele>57.0</ele><time>2026-04-26T10:21:43.999Z</time></trkpt><trkpt lat="45.50848597869871" lon="11.506158146169646"><ele>57.0</ele><time>2026-04-26T10:21:45.999Z</time></trkpt><trkpt lat="45.50859978075433" lon="11.50617889422279"><ele>57.0</ele><time>2026-04-26T10:21:47.999Z</time></trkpt><trkpt lat="45.50869381255916" lon="11.506216357828361"><ele>57.0</ele><time>2026-04-26T10:21:49.998Z</time></trkpt><trkpt lat="45.50878469111295" lon="11.506240280273943"><ele>57.0</ele><time>2026-04-26T10:21:51.998Z</time></trkpt><trkpt lat="45.50885379122263" lon="11.506259706349509"><ele>57.0</ele><time>2026-04-26T10:21:53.998Z</time></trkpt><trkpt lat="45.50895211653173" lon="11.506292138099804"><ele>52.6</ele><time>2026-04-26T10:21:55.998Z</time></trkpt><trkpt lat="45.509018392365554" lon="11.506319397574641"><ele>48.2</ele><time>2026-04-26T10:21:58.998Z</time></trkpt><trkpt lat="45.50908279697961" lon="11.506347296878824"><ele>43.8</ele><time>2026-04-26T10:22:00.998Z</time></trkpt><trkpt lat="45.50916481567641" lon="11.506419756817738"><ele>39.4</ele><time>2026-04-26T10:22:02.998Z</time></trkpt><trkpt lat="45.50924029674817" lon="11.506345290414206"><ele>35.0</ele><time>2026-04-26T10:22:03.998Z</time></trkpt><trkpt lat="45.509416992033444" lon="11.506319176514996"><ele>35.2</ele><time>2026-04-26T10:22:07.998Z</time></trkpt><trkpt lat="45.50958073980042" lon="11.506359170111065"><ele>35.4</ele><time>2026-04-26T10:22:10.998Z</time></trkpt><trkpt lat="45.50964244919317" lon="11.506440232162545"><ele>35.6</ele><time>2026-04-26T10:22:11.998Z</time></trkpt><trkpt lat="45.50970864400835" lon="11.506454451691855"><ele>35.8</ele><time>2026-04-26T10:22:12.998Z</time></trkpt><trkpt lat="45.509804568138705" lon="11.506468562729198"><ele>36.0</ele><time>2026-04-26T10:22:14.998Z</time></trkpt><trkpt lat="45.50989806553224" lon="11.506522180406368"><ele>36.0</ele><time>2026-04-26T10:22:16.998Z</time></trkpt><trkpt lat="45.509999595604384" lon="11.506533948110365"><ele>36.0</ele><time>2026-04-26T10:22:18.998Z</time></trkpt><trkpt lat="45.510098825347356" lon="11.50659587784888"><ele>36.0</ele><time>2026-04-26T10:22:20.998Z</time></trkpt><trkpt lat="45.51018314975866" lon="11.506640035623677"><ele>36.0</ele><time>2026-04-26T10:22:22.998Z</time></trkpt><trkpt lat="45.51026866811197" lon="11.506691020772049"><ele>36.0</ele><time>2026-04-26T10:22:24.998Z</time></trkpt><trkpt lat="45.51035113002736" lon="11.506727274664302"><ele>35.6</ele><time>2026-04-26T10:22:26.998Z</time></trkpt><trkpt lat="45.51044999998118" lon="11.506779033520818"><ele>35.2</ele><time>2026-04-26T10:22:28.998Z</time></trkpt><trkpt lat="45.510521281223895" lon="11.506803997834849"><ele>34.8</ele><time>2026-04-26T10:22:30.997Z</time></trkpt><trkpt lat="45.510614966288756" lon="11.506838930395574"><ele>34.4</ele><time>2026-04-26T10:22:32.997Z</time></trkpt><trkpt lat="45.51071872518135" lon="11.506905038852812"><ele>34.0</ele><time>2026-04-26T10:22:34.997Z</time></trkpt><trkpt lat="45.51080554842772" lon="11.506948770826641"><ele>34.0</ele><time>2026-04-26T10:22:36.997Z</time></trkpt><trkpt lat="45.51093279466942" lon="11.506999746412257"><ele>34.0</ele><time>2026-04-26T10:22:39.997Z</time></trkpt><trkpt lat="45.5110147791705" lon="11.507033751188622"><ele>34.0</ele><time>2026-04-26T10:22:42Z</time></trkpt><trkpt lat="45.51110893988419" lon="11.507085196630474"><ele>34.0</ele><time>2026-04-26T10:22:44Z</time></trkpt><trkpt lat="45.511202122476995" lon="11.50713377236367"><ele>34.0</ele><time>2026-04-26T10:22:46Z</time></trkpt><trkpt lat="45.5112935976221" lon="11.5071882028884"><ele>34.0</ele><time>2026-04-26T10:22:48Z</time></trkpt><trkpt lat="45.5113745030257" lon="11.507228553143"><ele>34.0</ele><time>2026-04-26T10:22:50Z</time></trkpt><trkpt lat="45.51145420303402" lon="11.507258770410802"><ele>34.0</ele><time>2026-04-26T10:22:52Z</time></trkpt><trkpt lat="45.5115238958612" lon="11.507294207510602"><ele>34.0</ele><time>2026-04-26T10:22:54Z</time></trkpt><trkpt lat="45.51160155918626" lon="11.507334988964418"><ele>34.0</ele><time>2026-04-26T10:22:56Z</time></trkpt><trkpt lat="45.51166741200694" lon="11.507374136327691"><ele>34.0</ele><time>2026-04-26T10:22:58Z</time></trkpt><trkpt lat="45.51175608526777" lon="11.507429419181602"><ele>34.0</ele><time>2026-04-26T10:23:00Z</time></trkpt><trkpt lat="45.51182904714977" lon="11.507469725277083"><ele>34.0</ele><time>2026-04-26T10:23:02Z</time></trkpt><trkpt lat="45.51190626578068" lon="11.507491285381587"><ele>34.0</ele><time>2026-04-26T10:23:05Z</time></trkpt><trkpt lat="45.51200684146911" lon="11.507550337527302"><ele>34.0</ele><time>2026-04-26T10:23:07Z</time></trkpt><trkpt lat="45.51206596474549" lon="11.507595115584431"><ele>34.0</ele><time>2026-04-26T10:23:08Z</time></trkpt><trkpt lat="45.512129349609005" lon="11.507644682043873"><ele>34.0</ele><time>2026-04-26T10:23:09Z</time></trkpt><trkpt lat="45.51218641424287" lon="11.507683008486639"><ele>33.8</ele><time>2026-04-26T10:23:10Z</time></trkpt><trkpt lat="45.51228381523536" lon="11.507747319001302"><ele>33.599999999999994</ele><time>2026-04-26T10:23:12Z</time></trkpt><trkpt lat="45.512372578700855" lon="11.507800862746722"><ele>33.4</ele><time>2026-04-26T10:23:13.999Z</time></trkpt><trkpt lat="45.512461833792976" lon="11.507855619299487"><ele>33.199999999999996</ele><time>2026-04-26T10:23:15.999Z</time></trkpt><trkpt lat="45.512548087344506" lon="11.507914745665746"><ele>33.0</ele><time>2026-04-26T10:23:17.999Z</time></trkpt><trkpt lat="45.512631474874" lon="11.5079790765786"><ele>33.0</ele><time>2026-04-26T10:23:19.999Z</time></trkpt><trkpt lat="45.512721067005096" lon="11.50806937738376"><ele>33.0</ele><time>2026-04-26T10:23:21.999Z</time></trkpt><trkpt lat="45.51282485255045" lon="11.508119968982239"><ele>33.0</ele><time>2026-04-26T10:23:23.999Z</time></trkpt><trkpt lat="45.512904129953164" lon="11.50816426938301"><ele>33.0</ele><time>2026-04-26T10:23:25.999Z</time></trkpt><trkpt lat="45.512975866388466" lon="11.50822078611936"><ele>33.0</ele><time>2026-04-26T10:23:27.999Z</time></trkpt><trkpt lat="45.513057617813196" lon="11.508280669769498"><ele>33.0</ele><time>2026-04-26T10:23:30.999Z</time></trkpt><trkpt lat="45.51315691086927" lon="11.508356447182548"><ele>33.0</ele><time>2026-04-26T10:23:33.999Z</time></trkpt><trkpt lat="45.51324671534612" lon="11.508414673844795"><ele>33.0</ele><time>2026-04-26T10:23:35.999Z</time></trkpt><trkpt lat="45.51331746555028" lon="11.508461363659096"><ele>33.0</ele><time>2026-04-26T10:23:37.999Z</time></trkpt><trkpt lat="45.51337536897575" lon="11.508499465139845"><ele>33.0</ele><time>2026-04-26T10:23:39.999Z</time></trkpt><trkpt lat="45.51347334411784" lon="11.508566778483628"><ele>33.0</ele><time>2026-04-26T10:23:42.999Z</time></trkpt><trkpt lat="45.51357322061506" lon="11.508647306459611"><ele>33.0</ele><time>2026-04-26T10:23:44.999Z</time></trkpt><trkpt lat="45.5136615164038" lon="11.50868999036994"><ele>33.0</ele><time>2026-04-26T10:23:46.999Z</time></trkpt><trkpt lat="45.51372337589889" lon="11.508722791329939"><ele>33.0</ele><time>2026-04-26T10:23:48.999Z</time></trkpt><trkpt lat="45.513793144371654" lon="11.508793961819421"><ele>33.0</ele><time>2026-04-26T10:23:50.999Z</time></trkpt><trkpt lat="45.51387467891986" lon="11.508850188559686"><ele>33.0</ele><time>2026-04-26T10:23:52.999Z</time></trkpt><trkpt lat="45.51393745874222" lon="11.50886379233143"><ele>33.0</ele><time>2026-04-26T10:23:54.998Z</time></trkpt><trkpt lat="45.51403612428732" lon="11.508938156651581"><ele>33.0</ele><time>2026-04-26T10:23:57.998Z</time></trkpt><trkpt lat="45.51409403295655" lon="11.508976897005578"><ele>33.0</ele><time>2026-04-26T10:23:59.998Z</time></trkpt><trkpt lat="45.51415744529854" lon="11.509021411610398"><ele>33.0</ele><time>2026-04-26T10:24:01.998Z</time></trkpt><trkpt lat="45.51422328066344" lon="11.509026684694772"><ele>33.0</ele><time>2026-04-26T10:24:27.998Z</time></trkpt><trkpt lat="45.51429531980866" lon="11.50906554987643"><ele>33.0</ele><time>2026-04-26T10:24:33.998Z</time></trkpt><trkpt lat="45.51436533681768" lon="11.509109918449875"><ele>33.0</ele><time>2026-04-26T10:24:38.997Z</time></trkpt><trkpt lat="45.514432662067584" lon="11.509114662570756"><ele>33.0</ele><time>2026-04-26T10:24:44.997Z</time></trkpt><trkpt lat="45.51437530434124" lon="11.509066778160609"><ele>33.0</ele><time>2026-04-26T10:25:28.999Z</time></trkpt><trkpt lat="45.51488884864266" lon="11.509706658565507"><ele>33.0</ele><time>2026-04-26T10:25:53.999Z</time></trkpt><trkpt lat="45.51479584111395" lon="11.509583576925479"><ele>33.0</ele><time>2026-04-26T10:25:55.999Z</time></trkpt><trkpt lat="45.514447228094355" lon="11.509137935947171"><ele>33.0</ele><time>2026-04-26T10:26:00.998Z</time></trkpt><trkpt lat="45.514387113575985" lon="11.50906402027262"><ele>33.0</ele><time>2026-04-26T10:26:02.998Z</time></trkpt><trkpt lat="45.51436816742242" lon="11.508965113212232"><ele>33.0</ele><time>2026-04-26T10:26:05.998Z</time></trkpt><trkpt lat="45.5144204035915" lon="11.509043066944523"><ele>33.0</ele><time>2026-04-26T10:26:14.998Z</time></trkpt><trkpt lat="45.51437343271419" lon="11.509142194967996"><ele>33.0</ele><time>2026-04-26T10:26:34.998Z</time></trkpt><trkpt lat="45.514434900560055" lon="11.509103486875421"><ele>33.0</ele><time>2026-04-26T10:26:50.997Z</time></trkpt><trkpt lat="45.51436366417034" lon="11.509127374128619"><ele>33.0</ele><time>2026-04-26T10:27:44.999Z</time></trkpt><trkpt lat="45.51429617376282" lon="11.50910585059023"><ele>33.0</ele><time>2026-04-26T10:27:50.999Z</time></trkpt><trkpt lat="45.514239133652616" lon="11.509041684087913"><ele>33.0</ele><time>2026-04-26T10:27:56.999Z</time></trkpt><trkpt lat="45.51417274245254" lon="11.509035734064245"><ele>33.0</ele><time>2026-04-26T10:28:01.999Z</time></trkpt><trkpt lat="45.51410568043393" lon="11.50906364027498"><ele>33.0</ele><time>2026-04-26T10:28:20.998Z</time></trkpt><trkpt lat="45.51406580430404" lon="11.508962122202625"><ele>33.0</ele><time>2026-04-26T10:28:22.998Z</time></trkpt><trkpt lat="45.51402418146734" lon="11.508883759257374"><ele>33.0</ele><time>2026-04-26T10:28:24.998Z</time></trkpt><trkpt lat="45.513978857280065" lon="11.508802800203254"><ele>32.8</ele><time>2026-04-26T10:28:26.998Z</time></trkpt><trkpt lat="45.513964153586564" lon="11.508662525584917"><ele>32.599999999999994</ele><time>2026-04-26T10:28:28.998Z</time></trkpt><trkpt lat="45.51393694133882" lon="11.50853415422928"><ele>32.400000000000006</ele><time>2026-04-26T10:28:30.998Z</time></trkpt><trkpt lat="45.513920153177594" lon="11.508367308055993"><ele>32.2</ele><time>2026-04-26T10:28:32.998Z</time></trkpt><trkpt lat="45.51389678476518" lon="11.508219057535086"><ele>32.0</ele><time>2026-04-26T10:28:34.998Z</time></trkpt><trkpt lat="45.513884676617735" lon="11.508059933053813"><ele>32.0</ele><time>2026-04-26T10:28:36.998Z</time></trkpt><trkpt lat="45.513860004182305" lon="11.507910188581421"><ele>32.0</ele><time>2026-04-26T10:28:38.998Z</time></trkpt><trkpt lat="45.513830677420714" lon="11.507781714347898"><ele>32.0</ele><time>2026-04-26T10:28:40.998Z</time></trkpt><trkpt lat="45.51381798809626" lon="11.507601919307751"><ele>32.0</ele><time>2026-04-26T10:28:42.998Z</time></trkpt><trkpt lat="45.51379310284268" lon="11.507446904385468"><ele>32.0</ele><time>2026-04-26T10:28:44.998Z</time></trkpt><trkpt lat="45.513774908222324" lon="11.507304450002435"><ele>31.8</ele><time>2026-04-26T10:28:46.998Z</time></trkpt><trkpt lat="45.51375085472808" lon="11.507159598772725"><ele>31.6</ele><time>2026-04-26T10:28:48.998Z</time></trkpt><trkpt lat="45.51373278201235" lon="11.507030327031098"><ele>31.400000000000002</ele><time>2026-04-26T10:28:50.997Z</time></trkpt><trkpt lat="45.513711378324146" lon="11.50689531863536"><ele>31.200000000000003</ele><time>2026-04-26T10:28:52.997Z</time></trkpt><trkpt lat="45.51369164902982" lon="11.506740517726833"><ele>31.0</ele><time>2026-04-26T10:28:54.997Z</time></trkpt><trkpt lat="45.51366643616345" lon="11.506586206329029"><ele>31.0</ele><time>2026-04-26T10:28:56.997Z</time></trkpt><trkpt lat="45.51365579500758" lon="11.506408878208136"><ele>31.0</ele><time>2026-04-26T10:28:58.997Z</time></trkpt><trkpt lat="45.513635415360454" lon="11.506310780825793"><ele>31.0</ele><time>2026-04-26T10:29:00Z</time></trkpt><trkpt lat="45.513615771940664" lon="11.506160093204178"><ele>31.0</ele><time>2026-04-26T10:29:02Z</time></trkpt><trkpt lat="45.5136047746804" lon="11.506014931731645"><ele>31.0</ele><time>2026-04-26T10:29:04Z</time></trkpt><trkpt lat="45.5135762872208" lon="11.505836419720398"><ele>32.4</ele><time>2026-04-26T10:29:06Z</time></trkpt><trkpt lat="45.51355871055632" lon="11.505748035575998"><ele>33.8</ele><time>2026-04-26T10:29:07Z</time></trkpt><trkpt lat="45.513527460189096" lon="11.505582538419183"><ele>35.199999999999996</ele><time>2026-04-26T10:29:09Z</time></trkpt><trkpt lat="45.513510096635244" lon="11.505432887364568"><ele>36.6</ele><time>2026-04-26T10:29:11Z</time></trkpt><trkpt lat="45.51348364825465" lon="11.505305849131107"><ele>38.0</ele><time>2026-04-26T10:29:13Z</time></trkpt><trkpt lat="45.51347745519497" lon="11.505189686867466"><ele>38.166666666666664</ele><time>2026-04-26T10:29:15Z</time></trkpt><trkpt lat="45.513454145323486" lon="11.505047744045045"><ele>38.33333333333333</ele><time>2026-04-26T10:29:17Z</time></trkpt><trkpt lat="45.513420508504325" lon="11.504920225659406"><ele>38.5</ele><time>2026-04-26T10:29:19Z</time></trkpt><trkpt lat="45.51340605688155" lon="11.504799991865255"><ele>38.666666666666664</ele><time>2026-04-26T10:29:21Z</time></trkpt><trkpt lat="45.51338182683905" lon="11.504701924403756"><ele>38.833333333333336</ele><time>2026-04-26T10:29:23Z</time></trkpt><trkpt lat="45.51334942258101" lon="11.504596804646711"><ele>39.0</ele><time>2026-04-26T10:29:26Z</time></trkpt><trkpt lat="45.51331180226275" lon="11.504511935761773"><ele>37.5</ele><time>2026-04-26T10:29:28.999Z</time></trkpt><trkpt lat="45.51324587945771" lon="11.504523366058729"><ele>36.0</ele><time>2026-04-26T10:29:29.999Z</time></trkpt><trkpt lat="45.51317395837318" lon="11.504454476899017"><ele>34.5</ele><time>2026-04-26T10:29:31.999Z</time></trkpt><trkpt lat="45.513119327202595" lon="11.50434409351326"><ele>33.0</ele><time>2026-04-26T10:29:33.999Z</time></trkpt><trkpt lat="45.51303343350208" lon="11.504216484220951"><ele>31.5</ele><time>2026-04-26T10:29:35.999Z</time></trkpt><trkpt lat="45.512982204721006" lon="11.50414656624705"><ele>30.0</ele><time>2026-04-26T10:29:36.999Z</time></trkpt><trkpt lat="45.5129067707167" lon="11.504012325938737"><ele>33.6</ele><time>2026-04-26T10:29:38.999Z</time></trkpt><trkpt lat="45.51283380244891" lon="11.503880335688203"><ele>37.2</ele><time>2026-04-26T10:29:40.999Z</time></trkpt><trkpt lat="45.51276372942435" lon="11.503734237879069"><ele>40.8</ele><time>2026-04-26T10:29:42.999Z</time></trkpt><trkpt lat="45.512692528102384" lon="11.503621273764773"><ele>44.4</ele><time>2026-04-26T10:29:44.999Z</time></trkpt><trkpt lat="45.5126657440246" lon="11.503524276940226"><ele>48.0</ele><time>2026-04-26T10:29:45.999Z</time></trkpt><trkpt lat="45.51263505102836" lon="11.503440245796659"><ele>48.0</ele><time>2026-04-26T10:29:46.999Z</time></trkpt><trkpt lat="45.51258944556513" lon="11.503306460100225"><ele>48.0</ele><time>2026-04-26T10:29:48.999Z</time></trkpt><trkpt lat="45.512583214211446" lon="11.50312787201481"><ele>48.0</ele><time>2026-04-26T10:29:50.999Z</time></trkpt><trkpt lat="45.51253166095214" lon="11.502985402893078"><ele>48.0</ele><time>2026-04-26T10:29:52.999Z</time></trkpt><trkpt lat="45.51248247015584" lon="11.502847319519308"><ele>44.4</ele><time>2026-04-26T10:29:54.999Z</time></trkpt><trkpt lat="45.512432457621266" lon="11.502705682474822"><ele>40.8</ele><time>2026-04-26T10:29:56.999Z</time></trkpt><trkpt lat="45.51240279928349" lon="11.502624319419265"><ele>37.2</ele><time>2026-04-26T10:29:57.999Z</time></trkpt><trkpt lat="45.51230876811538" lon="11.502506437973585"><ele>33.6</ele><time>2026-04-26T10:29:59.999Z</time></trkpt><trkpt lat="45.51226340872942" lon="11.502370443735142"><ele>30.0</ele><time>2026-04-26T10:30:01.999Z</time></trkpt><trkpt lat="45.512223236982976" lon="11.50221240463706"><ele>30.0</ele><time>2026-04-26T10:30:03.999Z</time></trkpt><trkpt lat="45.51216694809717" lon="11.502093439578127"><ele>30.0</ele><time>2026-04-26T10:30:05.999Z</time></trkpt><trkpt lat="45.51213410404965" lon="11.502016300085344"><ele>30.0</ele><time>2026-04-26T10:30:06.999Z</time></trkpt><trkpt lat="45.5121009730864" lon="11.50193570697603"><ele>30.0</ele><time>2026-04-26T10:30:07.999Z</time></trkpt><trkpt lat="45.51207244741339" lon="11.501855162314364"><ele>30.0</ele><time>2026-04-26T10:30:08.998Z</time></trkpt><trkpt lat="45.51202815333382" lon="11.501695848702335"><ele>30.0</ele><time>2026-04-26T10:30:10.998Z</time></trkpt><trkpt lat="45.51199762141853" lon="11.501544639384266"><ele>34.75</ele><time>2026-04-26T10:30:12.998Z</time></trkpt><trkpt lat="45.51198534813274" lon="11.501385367870354"><ele>39.5</ele><time>2026-04-26T10:30:14.998Z</time></trkpt><trkpt lat="45.51197971931639" lon="11.501217200397308"><ele>44.25</ele><time>2026-04-26T10:30:16.998Z</time></trkpt><trkpt lat="45.511974350401445" lon="11.50104153114852"><ele>49.0</ele><time>2026-04-26T10:30:18.998Z</time></trkpt><trkpt lat="45.511969530187564" lon="11.50089137261508"><ele>49.0</ele><time>2026-04-26T10:30:20.998Z</time></trkpt><trkpt lat="45.51196287415279" lon="11.500754326822232"><ele>49.0</ele><time>2026-04-26T10:30:22.998Z</time></trkpt><trkpt lat="45.511938457023845" lon="11.500589649581862"><ele>49.0</ele><time>2026-04-26T10:30:24.998Z</time></trkpt><trkpt lat="45.51193696783599" lon="11.500425701112778"><ele>49.0</ele><time>2026-04-26T10:30:26.998Z</time></trkpt><trkpt lat="45.5119220989223" lon="11.500287880977057"><ele>49.0</ele><time>2026-04-26T10:30:28.998Z</time></trkpt><trkpt lat="45.511900036526434" lon="11.500135862571044"><ele>48.166666666666664</ele><time>2026-04-26T10:30:30.998Z</time></trkpt><trkpt lat="45.51188493857302" lon="11.500040912527151"><ele>47.33333333333333</ele><time>2026-04-26T10:30:31.998Z</time></trkpt><trkpt lat="45.51187527150902" lon="11.499884489603124"><ele>46.5</ele><time>2026-04-26T10:30:33.998Z</time></trkpt><trkpt lat="45.51185638344635" lon="11.499793769390282"><ele>45.666666666666664</ele><time>2026-04-26T10:30:34.998Z</time></trkpt><trkpt lat="45.51184730881264" lon="11.499656734299357"><ele>44.83333333333333</ele><time>2026-04-26T10:30:36.998Z</time></trkpt><trkpt lat="45.511830115018235" lon="11.499527901316329"><ele>44.0</ele><time>2026-04-26T10:30:38.998Z</time></trkpt><trkpt lat="45.51180456759994" lon="11.49936294276243"><ele>42.75</ele><time>2026-04-26T10:30:40.998Z</time></trkpt><trkpt lat="45.51176915414697" lon="11.499199657318709"><ele>41.5</ele><time>2026-04-26T10:30:42.998Z</time></trkpt><trkpt lat="45.51173371608616" lon="11.499068798483501"><ele>40.25</ele><time>2026-04-26T10:30:44.998Z</time></trkpt><trkpt lat="45.51169103895094" lon="11.498927563731925"><ele>39.0</ele><time>2026-04-26T10:30:46.998Z</time></trkpt><trkpt lat="45.51162517387149" lon="11.498771184674915"><ele>39.333333333333336</ele><time>2026-04-26T10:30:48.998Z</time></trkpt><trkpt lat="45.51161268025319" lon="11.498675628141477"><ele>39.666666666666664</ele><time>2026-04-26T10:30:49.997Z</time></trkpt><trkpt lat="45.51159018969056" lon="11.498587190730756"><ele>40.0</ele><time>2026-04-26T10:30:50.997Z</time></trkpt><trkpt lat="45.511562818234204" lon="11.498438863138974"><ele>40.33333333333333</ele><time>2026-04-26T10:30:52.997Z</time></trkpt><trkpt lat="45.51155106180655" lon="11.498297335366491"><ele>40.666666666666664</ele><time>2026-04-26T10:30:54.997Z</time></trkpt><trkpt lat="45.51153471147472" lon="11.498147028148356"><ele>41.0</ele><time>2026-04-26T10:30:56.997Z</time></trkpt><trkpt lat="45.51156656607397" lon="11.497992453100144"><ele>43.4</ele><time>2026-04-26T10:30:58.997Z</time></trkpt><trkpt lat="45.511627223707265" lon="11.497837441048466"><ele>45.8</ele><time>2026-04-26T10:31:00.997Z</time></trkpt><trkpt lat="45.5116866005356" lon="11.4977785959441"><ele>48.199999999999996</ele><time>2026-04-26T10:31:01.997Z</time></trkpt><trkpt lat="45.51175108113425" lon="11.497652925545946"><ele>50.599999999999994</ele><time>2026-04-26T10:31:03.997Z</time></trkpt><trkpt lat="45.511819296075494" lon="11.497528873556965"><ele>53.0</ele><time>2026-04-26T10:31:06Z</time></trkpt><trkpt lat="45.51188721991274" lon="11.497410358205466"><ele>53.0</ele><time>2026-04-26T10:31:08Z</time></trkpt><trkpt lat="45.51195369790812" lon="11.497294474445464"><ele>53.0</ele><time>2026-04-26T10:31:10Z</time></trkpt><trkpt lat="45.51202023096549" lon="11.497147010700196"><ele>53.0</ele><time>2026-04-26T10:31:12Z</time></trkpt><trkpt lat="45.51208223454184" lon="11.497037000609087"><ele>53.0</ele><time>2026-04-26T10:31:14Z</time></trkpt><trkpt lat="45.51216183332928" lon="11.496941615633162"><ele>53.0</ele><time>2026-04-26T10:31:16Z</time></trkpt><trkpt lat="45.51222613415377" lon="11.496810289107438"><ele>51.16666666666667</ele><time>2026-04-26T10:31:18Z</time></trkpt><trkpt lat="45.51227965731086" lon="11.496754372753333"><ele>49.333333333333336</ele><time>2026-04-26T10:31:19Z</time></trkpt><trkpt lat="45.51230706448907" lon="11.496664559725925"><ele>47.5</ele><time>2026-04-26T10:31:20Z</time></trkpt><trkpt lat="45.51235482068533" lon="11.496603555987939"><ele>45.66666666666667</ele><time>2026-04-26T10:31:21Z</time></trkpt><trkpt lat="45.51240040271492" lon="11.496429559283124"><ele>43.833333333333336</ele><time>2026-04-26T10:31:23Z</time></trkpt><trkpt lat="45.5124302995097" lon="11.49633816151277"><ele>42.0</ele><time>2026-04-26T10:31:24Z</time></trkpt><trkpt lat="45.512437647865454" lon="11.496237897581858"><ele>41.8</ele><time>2026-04-26T10:31:25Z</time></trkpt><trkpt lat="45.51243434819343" lon="11.496146737829068"><ele>41.6</ele><time>2026-04-26T10:31:26Z</time></trkpt><trkpt lat="45.5124149615356" lon="11.495981563546337"><ele>41.4</ele><time>2026-04-26T10:31:28Z</time></trkpt><trkpt lat="45.51238014137241" lon="11.495823579449999"><ele>41.199999999999996</ele><time>2026-04-26T10:31:30Z</time></trkpt><trkpt lat="45.512343732319344" lon="11.495693869396916"><ele>41.0</ele><time>2026-04-26T10:31:32Z</time></trkpt><trkpt lat="45.512299909189736" lon="11.495559365945379"><ele>40.599999999999994</ele><time>2026-04-26T10:31:34Z</time></trkpt><trkpt lat="45.51224686282733" lon="11.495413459899156"><ele>40.199999999999996</ele><time>2026-04-26T10:31:36Z</time></trkpt><trkpt lat="45.51219352944096" lon="11.495279236874932"><ele>39.8</ele><time>2026-04-26T10:31:37.999Z</time></trkpt><trkpt lat="45.51214657815346" lon="11.495166330202325"><ele>39.4</ele><time>2026-04-26T10:31:39.999Z</time></trkpt><trkpt lat="45.51209222805932" lon="11.49503563213355"><ele>39.0</ele><time>2026-04-26T10:31:41.999Z</time></trkpt><trkpt lat="45.51205425113973" lon="11.494961829346513"><ele>39.8</ele><time>2026-04-26T10:31:42.999Z</time></trkpt><trkpt lat="45.51199840286842" lon="11.494908016135561"><ele>40.599999999999994</ele><time>2026-04-26T10:31:43.999Z</time></trkpt><trkpt lat="45.51192777918187" lon="11.494784268005567"><ele>41.4</ele><time>2026-04-26T10:31:45.999Z</time></trkpt><trkpt lat="45.511855962278304" lon="11.494662653290671"><ele>42.199999999999996</ele><time>2026-04-26T10:31:47.999Z</time></trkpt><trkpt lat="45.51179781469021" lon="11.494501288711326"><ele>43.0</ele><time>2026-04-26T10:31:49.999Z</time></trkpt><trkpt lat="45.51173723987019" lon="11.494362967336839"><ele>43.0</ele><time>2026-04-26T10:31:51.999Z</time></trkpt><trkpt lat="45.51168912859528" lon="11.494225226940157"><ele>43.0</ele><time>2026-04-26T10:31:53.999Z</time></trkpt><trkpt lat="45.511646094412924" lon="11.494151592053184"><ele>43.0</ele><time>2026-04-26T10:31:54.999Z</time></trkpt><trkpt lat="45.511592747992566" lon="11.4939872250854"><ele>43.0</ele><time>2026-04-26T10:31:56.999Z</time></trkpt><trkpt lat="45.51154415717194" lon="11.49382537824721"><ele>43.0</ele><time>2026-04-26T10:31:58.999Z</time></trkpt><trkpt lat="45.511503844143526" lon="11.493674244741682"><ele>42.0</ele><time>2026-04-26T10:32:00.999Z</time></trkpt><trkpt lat="45.511475820133484" lon="11.493533661151606"><ele>41.0</ele><time>2026-04-26T10:32:02.999Z</time></trkpt><trkpt lat="45.511438947412024" lon="11.493450656437272"><ele>40.0</ele><time>2026-04-26T10:32:03.999Z</time></trkpt><trkpt lat="45.51141764361287" lon="11.493365800998355"><ele>39.0</ele><time>2026-04-26T10:32:04.999Z</time></trkpt><trkpt lat="45.51137554546734" lon="11.493224188036601"><ele>38.0</ele><time>2026-04-26T10:32:06.999Z</time></trkpt><trkpt lat="45.51133622489534" lon="11.493082595994125"><ele>37.0</ele><time>2026-04-26T10:32:08.999Z</time></trkpt><trkpt lat="45.51129576049609" lon="11.492927162138828"><ele>36.2</ele><time>2026-04-26T10:32:10.999Z</time></trkpt><trkpt lat="45.511261881910684" lon="11.49284513234627"><ele>35.400000000000006</ele><time>2026-04-26T10:32:11.999Z</time></trkpt><trkpt lat="45.51121427341565" lon="11.49278302213596"><ele>34.599999999999994</ele><time>2026-04-26T10:32:12.999Z</time></trkpt><trkpt lat="45.5111522152018" lon="11.492647781082256"><ele>33.8</ele><time>2026-04-26T10:32:14.999Z</time></trkpt><trkpt lat="45.51107260457582" lon="11.49254055410309"><ele>33.0</ele><time>2026-04-26T10:32:16.999Z</time></trkpt><trkpt lat="45.51098449271022" lon="11.492446177011566"><ele>34.599999999999994</ele><time>2026-04-26T10:32:18.999Z</time></trkpt><trkpt lat="45.5109324638052" lon="11.49239297960163"><ele>36.199999999999996</ele><time>2026-04-26T10:32:19.998Z</time></trkpt><trkpt lat="45.51082906827467" lon="11.492288363656279"><ele>37.8</ele><time>2026-04-26T10:32:21.998Z</time></trkpt><trkpt lat="45.51072995062576" lon="11.49219136898892"><ele>39.4</ele><time>2026-04-26T10:32:23.998Z</time></trkpt><trkpt lat="45.51063920229106" lon="11.492104552647014"><ele>41.0</ele><time>2026-04-26T10:32:25.998Z</time></trkpt><trkpt lat="45.51056029010496" lon="11.4920295701835"><ele>41.0</ele><time>2026-04-26T10:32:27.998Z</time></trkpt><trkpt lat="45.510467555211186" lon="11.491967565403378"><ele>41.0</ele><time>2026-04-26T10:32:29.998Z</time></trkpt><trkpt lat="45.51041928708662" lon="11.491907203460313"><ele>41.0</ele><time>2026-04-26T10:32:30.998Z</time></trkpt><trkpt lat="45.510321547246335" lon="11.491837231684414"><ele>41.0</ele><time>2026-04-26T10:32:32.998Z</time></trkpt><trkpt lat="45.510240934461" lon="11.491740402949853"><ele>41.0</ele><time>2026-04-26T10:32:34.998Z</time></trkpt><trkpt lat="45.510180246484644" lon="11.491711004968604"><ele>41.0</ele><time>2026-04-26T10:32:35.998Z</time></trkpt><trkpt lat="45.51012488601429" lon="11.49165984697213"><ele>40.4</ele><time>2026-04-26T10:32:36.998Z</time></trkpt><trkpt lat="45.51002742887625" lon="11.491548807636878"><ele>39.8</ele><time>2026-04-26T10:32:38.998Z</time></trkpt><trkpt lat="45.5099368662268" lon="11.491466317272248"><ele>39.199999999999996</ele><time>2026-04-26T10:32:40.998Z</time></trkpt><trkpt lat="45.509850888344445" lon="11.491384451131061"><ele>38.599999999999994</ele><time>2026-04-26T10:32:42.998Z</time></trkpt><trkpt lat="45.50976307795143" lon="11.49131669905874"><ele>38.0</ele><time>2026-04-26T10:32:44.998Z</time></trkpt><trkpt lat="45.509675805016165" lon="11.491201198373718"><ele>38.0</ele><time>2026-04-26T10:32:46.998Z</time></trkpt><trkpt lat="45.50962701378366" lon="11.491137778438441"><ele>38.0</ele><time>2026-04-26T10:32:47.998Z</time></trkpt><trkpt lat="45.50958343510027" lon="11.49107106134344"><ele>38.0</ele><time>2026-04-26T10:32:48.998Z</time></trkpt><trkpt lat="45.509501102293484" lon="11.49094687043178"><ele>38.0</ele><time>2026-04-26T10:32:50.998Z</time></trkpt><trkpt lat="45.509428950189886" lon="11.4908327975519"><ele>38.0</ele><time>2026-04-26T10:32:52.998Z</time></trkpt><trkpt lat="45.509367336715194" lon="11.490735472738914"><ele>38.0</ele><time>2026-04-26T10:32:54.998Z</time></trkpt><trkpt lat="45.509278292321504" lon="11.490622556559329"><ele>38.199999999999996</ele><time>2026-04-26T10:32:56.998Z</time></trkpt><trkpt lat="45.509202312713576" lon="11.490505609341357"><ele>38.4</ele><time>2026-04-26T10:32:58.998Z</time></trkpt><trkpt lat="45.50912707762592" lon="11.490397834727862"><ele>38.599999999999994</ele><time>2026-04-26T10:33:00.998Z</time></trkpt><trkpt lat="45.50905291346884" lon="11.490286518317363"><ele>38.8</ele><time>2026-04-26T10:33:02.997Z</time></trkpt><trkpt lat="45.50898009107505" lon="11.490188823126438"><ele>39.0</ele><time>2026-04-26T10:33:04.997Z</time></trkpt><trkpt lat="45.50890539007323" lon="11.490090850518635"><ele>39.0</ele><time>2026-04-26T10:33:06.997Z</time></trkpt><trkpt lat="45.50882670801889" lon="11.490009954710986"><ele>39.0</ele><time>2026-04-26T10:33:08.997Z</time></trkpt><trkpt lat="45.5087685950324" lon="11.489908766375901"><ele>39.0</ele><time>2026-04-26T10:33:10.997Z</time></trkpt><trkpt lat="45.508702277067044" lon="11.489828692084783"><ele>39.0</ele><time>2026-04-26T10:33:13Z</time></trkpt><trkpt lat="45.50861958045707" lon="11.489751239620892"><ele>39.0</ele><time>2026-04-26T10:33:15Z</time></trkpt><trkpt lat="45.50856995111227" lon="11.489693054178101"><ele>39.0</ele><time>2026-04-26T10:33:16Z</time></trkpt><trkpt lat="45.50852190576096" lon="11.48962695224416"><ele>40.333333333333336</ele><time>2026-04-26T10:33:17Z</time></trkpt><trkpt lat="45.50842557126714" lon="11.489510186331351"><ele>41.666666666666664</ele><time>2026-04-26T10:33:19Z</time></trkpt><trkpt lat="45.508369305698345" lon="11.489435951422376"><ele>43.0</ele><time>2026-04-26T10:33:20Z</time></trkpt><trkpt lat="45.50831633770426" lon="11.489367806250433"><ele>44.33333333333333</ele><time>2026-04-26T10:33:21Z</time></trkpt><trkpt lat="45.508264908293356" lon="11.489285796901816"><ele>45.666666666666664</ele><time>2026-04-26T10:33:22Z</time></trkpt><trkpt lat="45.50821466154233" lon="11.489224484072396"><ele>47.0</ele><time>2026-04-26T10:33:23Z</time></trkpt><trkpt lat="45.5081707818844" lon="11.48915641423539"><ele>47.0</ele><time>2026-04-26T10:33:24Z</time></trkpt><trkpt lat="45.50809185568607" lon="11.489018188157793"><ele>47.0</ele><time>2026-04-26T10:33:26Z</time></trkpt><trkpt lat="45.50800788046378" lon="11.488894474297108"><ele>47.0</ele><time>2026-04-26T10:33:28Z</time></trkpt><trkpt lat="45.507928598711096" lon="11.488757837704"><ele>47.0</ele><time>2026-04-26T10:33:30Z</time></trkpt><trkpt lat="45.50788401208957" lon="11.488688844439189"><ele>47.0</ele><time>2026-04-26T10:33:31Z</time></trkpt><trkpt lat="45.50781601877319" lon="11.488553928197037"><ele>47.8</ele><time>2026-04-26T10:33:33Z</time></trkpt><trkpt lat="45.507744310785" lon="11.488435503987356"><ele>48.6</ele><time>2026-04-26T10:33:35Z</time></trkpt><trkpt lat="45.50765525698009" lon="11.488345068871586"><ele>49.4</ele><time>2026-04-26T10:33:37Z</time></trkpt><trkpt lat="45.50763436156872" lon="11.488253937274067"><ele>50.199999999999996</ele><time>2026-04-26T10:33:38Z</time></trkpt><trkpt lat="45.50754028156891" lon="11.48812901491919"><ele>51.0</ele><time>2026-04-26T10:33:40Z</time></trkpt><trkpt lat="45.50750673122009" lon="11.488052323689113"><ele>51.0</ele><time>2026-04-26T10:33:41Z</time></trkpt><trkpt lat="45.507423514380456" lon="11.487941634859386"><ele>51.0</ele><time>2026-04-26T10:33:43Z</time></trkpt><trkpt lat="45.50735387423322" lon="11.487802889981568"><ele>51.0</ele><time>2026-04-26T10:33:44.999Z</time></trkpt><trkpt lat="45.50727871677951" lon="11.487691155765848"><ele>51.0</ele><time>2026-04-26T10:33:46.999Z</time></trkpt><trkpt lat="45.507221920363314" lon="11.487569693103863"><ele>51.0</ele><time>2026-04-26T10:33:48.999Z</time></trkpt><trkpt lat="45.5071500792843" lon="11.487458845331624"><ele>49.833333333333336</ele><time>2026-04-26T10:33:50.999Z</time></trkpt><trkpt lat="45.50706434770501" lon="11.487348858057503"><ele>48.666666666666664</ele><time>2026-04-26T10:33:52.999Z</time></trkpt><trkpt lat="45.50702789958423" lon="11.487258547332509"><ele>47.5</ele><time>2026-04-26T10:33:53.999Z</time></trkpt><trkpt lat="45.506986521778906" lon="11.487181864377554"><ele>46.33333333333333</ele><time>2026-04-26T10:33:54.999Z</time></trkpt><trkpt lat="45.506948711986105" lon="11.487095439272714"><ele>45.166666666666664</ele><time>2026-04-26T10:33:55.999Z</time></trkpt><trkpt lat="45.50691513376029" lon="11.487010640725975"><ele>44.0</ele><time>2026-04-26T10:33:56.999Z</time></trkpt><trkpt lat="45.50687673899251" lon="11.486848033606188"><ele>44.0</ele><time>2026-04-26T10:33:58.999Z</time></trkpt><trkpt lat="45.506847997423804" lon="11.486757957129647"><ele>44.0</ele><time>2026-04-26T10:33:59.999Z</time></trkpt><trkpt lat="45.50684648721141" lon="11.486651316085002"><ele>44.0</ele><time>2026-04-26T10:34:00.999Z</time></trkpt><trkpt lat="45.50684439624353" lon="11.486552962027503"><ele>44.0</ele><time>2026-04-26T10:34:01.999Z</time></trkpt><trkpt lat="45.50684037500119" lon="11.486451135419252"><ele>44.0</ele><time>2026-04-26T10:34:02.999Z</time></trkpt><trkpt lat="45.50683685952292" lon="11.486346416347457"><ele>44.0</ele><time>2026-04-26T10:34:03.999Z</time></trkpt><trkpt lat="45.50683197457793" lon="11.486242365713826"><ele>44.0</ele><time>2026-04-26T10:34:04.999Z</time></trkpt><trkpt lat="45.506823470390664" lon="11.48614059599734"><ele>42.85714285714286</ele><time>2026-04-26T10:34:05.999Z</time></trkpt><trkpt lat="45.50681473176659" lon="11.486043735551222"><ele>41.714285714285715</ele><time>2026-04-26T10:34:06.999Z</time></trkpt><trkpt lat="45.506801974219954" lon="11.485936048396738"><ele>40.57142857142857</ele><time>2026-04-26T10:34:07.999Z</time></trkpt><trkpt lat="45.50677489418214" lon="11.485847289971172"><ele>39.42857142857143</ele><time>2026-04-26T10:34:08.999Z</time></trkpt><trkpt lat="45.50674419905925" lon="11.485763078304943"><ele>38.285714285714285</ele><time>2026-04-26T10:34:09.999Z</time></trkpt><trkpt lat="45.50670621120653" lon="11.485682581898983"><ele>37.142857142857146</ele><time>2026-04-26T10:34:10.999Z</time></trkpt><trkpt lat="45.50667582974498" lon="11.48560258871501"><ele>36.0</ele><time>2026-04-26T10:34:11.999Z</time></trkpt><trkpt lat="45.506610130422786" lon="11.4854557672683"><ele>35.25</ele><time>2026-04-26T10:34:13.999Z</time></trkpt><trkpt lat="45.506532443902906" lon="11.485323273035652"><ele>34.5</ele><time>2026-04-26T10:34:15.999Z</time></trkpt><trkpt lat="45.50647162961548" lon="11.485188127535597"><ele>33.75</ele><time>2026-04-26T10:34:17.999Z</time></trkpt><trkpt lat="45.506387611129206" lon="11.485082650489547"><ele>33.0</ele><time>2026-04-26T10:34:19.999Z</time></trkpt><trkpt lat="45.50630799077862" lon="11.484968749630646"><ele>33.0</ele><time>2026-04-26T10:34:21.999Z</time></trkpt><trkpt lat="45.50626782810763" lon="11.484831859499526"><ele>33.0</ele><time>2026-04-26T10:34:23.999Z</time></trkpt><trkpt lat="45.50631823146756" lon="11.48475920606793"><ele>33.0</ele><time>2026-04-26T10:34:24.999Z</time></trkpt><trkpt lat="45.506381516855704" lon="11.484714410915302"><ele>33.0</ele><time>2026-04-26T10:34:25.999Z</time></trkpt><trkpt lat="45.506449129635946" lon="11.484676558043823"><ele>33.0</ele><time>2026-04-26T10:34:26.998Z</time></trkpt><trkpt lat="45.50651681482251" lon="11.484640827237405"><ele>33.0</ele><time>2026-04-26T10:34:27.998Z</time></trkpt><trkpt lat="45.5065802429916" lon="11.484602429352028"><ele>33.0</ele><time>2026-04-26T10:34:28.998Z</time></trkpt><trkpt lat="45.50663660913127" lon="11.484560096813405"><ele>33.0</ele><time>2026-04-26T10:34:29.998Z</time></trkpt><trkpt lat="45.5066963326854" lon="11.484520780991343"><ele>33.0</ele><time>2026-04-26T10:34:30.998Z</time></trkpt><trkpt lat="45.50675751862327" lon="11.484486871025338"><ele>33.0</ele><time>2026-04-26T10:34:31.998Z</time></trkpt><trkpt lat="45.50686316547533" lon="11.484406393494556"><ele>33.0</ele><time>2026-04-26T10:34:33.998Z</time></trkpt><trkpt lat="45.506970183335454" lon="11.48435341235615"><ele>33.0</ele><time>2026-04-26T10:34:35.998Z</time></trkpt><trkpt lat="45.507068882874044" lon="11.48428840265089"><ele>33.199999999999996</ele><time>2026-04-26T10:34:37.998Z</time></trkpt><trkpt lat="45.50717200146398" lon="11.484219622188789"><ele>33.4</ele><time>2026-04-26T10:34:39.998Z</time></trkpt><trkpt lat="45.50723567358709" lon="11.48417668325838"><ele>33.599999999999994</ele><time>2026-04-26T10:34:40.998Z</time></trkpt><trkpt lat="45.50733530281108" lon="11.484109495747482"><ele>33.8</ele><time>2026-04-26T10:34:42.998Z</time></trkpt><trkpt lat="45.50743274320494" lon="11.484043784329936"><ele>34.0</ele><time>2026-04-26T10:34:44.998Z</time></trkpt><trkpt lat="45.50752912757353" lon="11.483979459821152"><ele>34.0</ele><time>2026-04-26T10:34:46.998Z</time></trkpt><trkpt lat="45.50762311560016" lon="11.483916801135507"><ele>34.0</ele><time>2026-04-26T10:34:48.998Z</time></trkpt><trkpt lat="45.50772346566027" lon="11.483849901097766"><ele>34.0</ele><time>2026-04-26T10:34:50.998Z</time></trkpt><trkpt lat="45.50778252711652" lon="11.48381052679256"><ele>34.0</ele><time>2026-04-26T10:34:51.998Z</time></trkpt><trkpt lat="45.50788866770683" lon="11.48373976639872"><ele>34.0</ele><time>2026-04-26T10:34:53.998Z</time></trkpt><trkpt lat="45.507938777427626" lon="11.483683282151256"><ele>33.6</ele><time>2026-04-26T10:34:54.998Z</time></trkpt><trkpt lat="45.50803588618192" lon="11.483616607035085"><ele>33.2</ele><time>2026-04-26T10:34:56.998Z</time></trkpt><trkpt lat="45.50809715666257" lon="11.48357546465435"><ele>32.800000000000004</ele><time>2026-04-26T10:34:57.998Z</time></trkpt><trkpt lat="45.50816297785355" lon="11.48355643935378"><ele>32.4</ele><time>2026-04-26T10:34:58.998Z</time></trkpt><trkpt lat="45.50827243769522" lon="11.483483325092253"><ele>32.0</ele><time>2026-04-26T10:35:00.998Z</time></trkpt><trkpt lat="45.50837499328291" lon="11.483416809996953"><ele>32.0</ele><time>2026-04-26T10:35:02.998Z</time></trkpt><trkpt lat="45.508476312500825" lon="11.483347327901473"><ele>32.0</ele><time>2026-04-26T10:35:04.998Z</time></trkpt><trkpt lat="45.50858547121711" lon="11.483255858121714"><ele>32.0</ele><time>2026-04-26T10:35:06.998Z</time></trkpt><trkpt lat="45.50863856545649" lon="11.483203557416886"><ele>32.0</ele><time>2026-04-26T10:35:07.998Z</time></trkpt><trkpt lat="45.50873103606292" lon="11.483105245478392"><ele>32.0</ele><time>2026-04-26T10:35:09.997Z</time></trkpt><trkpt lat="45.50882402914099" lon="11.482992280958005"><ele>32.800000000000004</ele><time>2026-04-26T10:35:11.997Z</time></trkpt><trkpt lat="45.50887132027556" lon="11.48293013970892"><ele>33.6</ele><time>2026-04-26T10:35:12.997Z</time></trkpt><trkpt lat="45.50895834513473" lon="11.482821922693402"><ele>34.400000000000006</ele><time>2026-04-26T10:35:14.997Z</time></trkpt><trkpt lat="45.509040745014524" lon="11.482721990921583"><ele>35.2</ele><time>2026-04-26T10:35:16.997Z</time></trkpt><trkpt lat="45.50909209040751" lon="11.48265972097257"><ele>36.0</ele><time>2026-04-26T10:35:18Z</time></trkpt><trkpt lat="45.50918009075901" lon="11.482549402435732"><ele>36.0</ele><time>2026-04-26T10:35:20Z</time></trkpt><trkpt lat="45.50925003593106" lon="11.482427388066816"><ele>36.0</ele><time>2026-04-26T10:35:22Z</time></trkpt><trkpt lat="45.509284971933646" lon="11.482350985877963"><ele>36.0</ele><time>2026-04-26T10:35:23Z</time></trkpt><trkpt lat="45.509310758304366" lon="11.482261939145381"><ele>36.0</ele><time>2026-04-26T10:35:24Z</time></trkpt><trkpt lat="45.509326593952586" lon="11.482171305838136"><ele>36.0</ele><time>2026-04-26T10:35:25Z</time></trkpt><trkpt lat="45.50931692445763" lon="11.482002832993176"><ele>36.0</ele><time>2026-04-26T10:35:27Z</time></trkpt><trkpt lat="45.509290566470185" lon="11.481860532017091"><ele>36.333333333333336</ele><time>2026-04-26T10:35:29Z</time></trkpt><trkpt lat="45.50929089636636" lon="11.48176638364898"><ele>36.666666666666664</ele><time>2026-04-26T10:35:30Z</time></trkpt><trkpt lat="45.509264805489074" lon="11.481609877556453"><ele>37.0</ele><time>2026-04-26T10:35:32Z</time></trkpt><trkpt lat="45.5092368088968" lon="11.48152704763132"><ele>37.33333333333333</ele><time>2026-04-26T10:35:33Z</time></trkpt><trkpt lat="45.50921864533538" lon="11.481426475899644"><ele>37.666666666666664</ele><time>2026-04-26T10:35:34Z</time></trkpt><trkpt lat="45.50920955803549" lon="11.481333502769655"><ele>38.0</ele><time>2026-04-26T10:35:35Z</time></trkpt><trkpt lat="45.50919779529828" lon="11.481178526678422"><ele>38.199999999999996</ele><time>2026-04-26T10:35:37Z</time></trkpt><trkpt lat="45.50918784411231" lon="11.481022054274568"><ele>38.4</ele><time>2026-04-26T10:35:39Z</time></trkpt><trkpt lat="45.50918634532372" lon="11.480866071100126"><ele>38.599999999999994</ele><time>2026-04-26T10:35:41Z</time></trkpt><trkpt lat="45.509198587823086" lon="11.480732458087253"><ele>38.8</ele><time>2026-04-26T10:35:43Z</time></trkpt><trkpt lat="45.50921918893433" lon="11.480574422723903"><ele>39.0</ele><time>2026-04-26T10:35:45Z</time></trkpt><trkpt lat="45.50922643847386" lon="11.480479853160631"><ele>39.0</ele><time>2026-04-26T10:35:46Z</time></trkpt><trkpt lat="45.50925709087828" lon="11.4803304684049"><ele>39.0</ele><time>2026-04-26T10:35:48Z</time></trkpt><trkpt lat="45.509298380880196" lon="11.480192433646252"><ele>39.0</ele><time>2026-04-26T10:35:50Z</time></trkpt><trkpt lat="45.50932505676153" lon="11.48005947209459"><ele>39.0</ele><time>2026-04-26T10:35:51.999Z</time></trkpt><trkpt lat="45.509377867677856" lon="11.47989954364152"><ele>39.0</ele><time>2026-04-26T10:35:53.999Z</time></trkpt><trkpt lat="45.509404712997465" lon="11.479809124931933"><ele>39.0</ele><time>2026-04-26T10:35:54.999Z</time></trkpt><trkpt lat="45.509427349451535" lon="11.479718575070326"><ele>39.0</ele><time>2026-04-26T10:35:55.999Z</time></trkpt><trkpt lat="45.509461680555475" lon="11.479555738259611"><ele>39.0</ele><time>2026-04-26T10:35:57.999Z</time></trkpt><trkpt lat="45.509512315601086" lon="11.479405269189934"><ele>39.0</ele><time>2026-04-26T10:35:59.999Z</time></trkpt><trkpt lat="45.509526165958206" lon="11.479315185054807"><ele>39.0</ele><time>2026-04-26T10:36:00.999Z</time></trkpt><trkpt lat="45.509525300808214" lon="11.479165561116806"><ele>38.6</ele><time>2026-04-26T10:36:02.999Z</time></trkpt><trkpt lat="45.50955129271325" lon="11.479017900860105"><ele>38.2</ele><time>2026-04-26T10:36:04.999Z</time></trkpt><trkpt lat="45.509542416050444" lon="11.478842335375452"><ele>37.800000000000004</ele><time>2026-04-26T10:36:06.999Z</time></trkpt><trkpt lat="45.509533270090635" lon="11.478673862632338"><ele>37.4</ele><time>2026-04-26T10:36:08.999Z</time></trkpt><trkpt lat="45.50953008192067" lon="11.478531754919706"><ele>37.0</ele><time>2026-04-26T10:36:10.999Z</time></trkpt><trkpt lat="45.509526959868666" lon="11.478415767136841"><ele>37.0</ele><time>2026-04-26T10:36:13.999Z</time></trkpt><trkpt lat="45.50948936393804" lon="11.478199896228244"><ele>37.0</ele><time>2026-04-26T10:36:15.999Z</time></trkpt><trkpt lat="45.509453334637016" lon="11.478052607155416"><ele>37.0</ele><time>2026-04-26T10:36:17.999Z</time></trkpt><trkpt lat="45.509417670993265" lon="11.477920573235433"><ele>37.0</ele><time>2026-04-26T10:36:19.999Z</time></trkpt><trkpt lat="45.5093439492423" lon="11.477808373147402"><ele>37.0</ele><time>2026-04-26T10:36:21.999Z</time></trkpt><trkpt lat="45.50932167248034" lon="11.47772263740645"><ele>37.0</ele><time>2026-04-26T10:36:22.999Z</time></trkpt><trkpt lat="45.509287418423206" lon="11.47755174697495"><ele>37.0</ele><time>2026-04-26T10:36:24.999Z</time></trkpt><trkpt lat="45.50923531577666" lon="11.47740812291882"><ele>37.0</ele><time>2026-04-26T10:36:26.999Z</time></trkpt><trkpt lat="45.50918779811432" lon="11.4772797634805"><ele>37.0</ele><time>2026-04-26T10:36:28.999Z</time></trkpt><trkpt lat="45.509122494890846" lon="11.477130321525948"><ele>37.2</ele><time>2026-04-26T10:36:30.999Z</time></trkpt><trkpt lat="45.509064445547374" lon="11.476997441083189"><ele>37.400000000000006</ele><time>2026-04-26T10:36:32.999Z</time></trkpt><trkpt lat="45.50902301653527" lon="11.476835050958833"><ele>37.599999999999994</ele><time>2026-04-26T10:36:34.998Z</time></trkpt><trkpt lat="45.50897146300736" lon="11.476695918217079"><ele>37.8</ele><time>2026-04-26T10:36:36.998Z</time></trkpt><trkpt lat="45.50892597739647" lon="11.476573387185503"><ele>38.0</ele><time>2026-04-26T10:36:38.998Z</time></trkpt><trkpt lat="45.508896475133916" lon="11.476493882647464"><ele>38.0</ele><time>2026-04-26T10:36:39.998Z</time></trkpt><trkpt lat="45.508843564815976" lon="11.476351296660024"><ele>38.0</ele><time>2026-04-26T10:36:41.998Z</time></trkpt><trkpt lat="45.50879073856305" lon="11.476208937198729"><ele>38.0</ele><time>2026-04-26T10:36:43.998Z</time></trkpt><trkpt lat="45.50873649577382" lon="11.476062760390299"><ele>38.0</ele><time>2026-04-26T10:36:45.998Z</time></trkpt><trkpt lat="45.508706799280695" lon="11.47598273243118"><ele>38.0</ele><time>2026-04-26T10:36:46.998Z</time></trkpt><trkpt lat="45.50865407665014" lon="11.475840652232248"><ele>38.0</ele><time>2026-04-26T10:36:48.998Z</time></trkpt><trkpt lat="45.508602466323396" lon="11.475701569530013"><ele>38.0</ele><time>2026-04-26T10:36:50.998Z</time></trkpt><trkpt lat="45.50855371270171" lon="11.47557018516078"><ele>38.0</ele><time>2026-04-26T10:36:52.998Z</time></trkpt><trkpt lat="45.50852260927494" lon="11.475486732214947"><ele>38.0</ele><time>2026-04-26T10:36:53.998Z</time></trkpt><trkpt lat="45.50849121686975" lon="11.475402373613292"><ele>38.0</ele><time>2026-04-26T10:36:54.998Z</time></trkpt><trkpt lat="45.50843564689388" lon="11.475253044332414"><ele>38.0</ele><time>2026-04-26T10:36:56.998Z</time></trkpt><trkpt lat="45.50840466691995" lon="11.47516979401614"><ele>38.0</ele><time>2026-04-26T10:36:57.998Z</time></trkpt><trkpt lat="45.508346753184206" lon="11.475014166494434"><ele>38.0</ele><time>2026-04-26T10:36:59.998Z</time></trkpt><trkpt lat="45.50828327735758" lon="11.474879480524253"><ele>38.0</ele><time>2026-04-26T10:37:01.998Z</time></trkpt><trkpt lat="45.508229713774334" lon="11.474724653707138"><ele>38.0</ele><time>2026-04-26T10:37:03.998Z</time></trkpt><trkpt lat="45.50816812999986" lon="11.474582027979334"><ele>38.0</ele><time>2026-04-26T10:37:05.998Z</time></trkpt><trkpt lat="45.508116512164676" lon="11.47443717035338"><ele>38.0</ele><time>2026-04-26T10:37:07.998Z</time></trkpt><trkpt lat="45.50806229658704" lon="11.474275069225566"><ele>38.0</ele><time>2026-04-26T10:37:09.998Z</time></trkpt><trkpt lat="45.508002622823376" lon="11.474132099513428"><ele>38.0</ele><time>2026-04-26T10:37:11.998Z</time></trkpt><trkpt lat="45.5079496507755" lon="11.474006492897631"><ele>38.199999999999996</ele><time>2026-04-26T10:37:13.998Z</time></trkpt><trkpt lat="45.50789763003848" lon="11.473859818717711"><ele>38.4</ele><time>2026-04-26T10:37:15.997Z</time></trkpt><trkpt lat="45.50785467473246" lon="11.47370161724903"><ele>38.599999999999994</ele><time>2026-04-26T10:37:17.997Z</time></trkpt><trkpt lat="45.507801603755176" lon="11.473560665905005"><ele>38.8</ele><time>2026-04-26T10:37:19.997Z</time></trkpt><trkpt lat="45.50776951631936" lon="11.473475444799194"><ele>39.0</ele><time>2026-04-26T10:37:20.997Z</time></trkpt><trkpt lat="45.507702682136845" lon="11.473336925380751"><ele>39.0</ele><time>2026-04-26T10:37:22.997Z</time></trkpt><trkpt lat="45.507698642370656" lon="11.4731697708762"><ele>39.0</ele><time>2026-04-26T10:37:25Z</time></trkpt><trkpt lat="45.50776012916162" lon="11.473019844753734"><ele>39.0</ele><time>2026-04-26T10:37:27Z</time></trkpt><trkpt lat="45.50785202917341" lon="11.472935362828217"><ele>39.0</ele><time>2026-04-26T10:37:29Z</time></trkpt><trkpt lat="45.50793987787803" lon="11.472846923090653"><ele>39.333333333333336</ele><time>2026-04-26T10:37:31Z</time></trkpt><trkpt lat="45.50802390134455" lon="11.472755659572947"><ele>39.666666666666664</ele><time>2026-04-26T10:37:33Z</time></trkpt><trkpt lat="45.508088687904085" lon="11.472681088317914"><ele>40.0</ele><time>2026-04-26T10:37:34Z</time></trkpt><trkpt lat="45.50818859467029" lon="11.472564403599204"><ele>40.33333333333333</ele><time>2026-04-26T10:37:36Z</time></trkpt><trkpt lat="45.508237750737685" lon="11.472506996462126"><ele>40.666666666666664</ele><time>2026-04-26T10:37:37Z</time></trkpt><trkpt lat="45.50828702417256" lon="11.472449448357073"><ele>41.0</ele><time>2026-04-26T10:37:38Z</time></trkpt><trkpt lat="45.508378476404204" lon="11.472342638093654"><ele>41.0</ele><time>2026-04-26T10:37:40Z</time></trkpt><trkpt lat="45.50847620932074" lon="11.472231995419106"><ele>41.0</ele><time>2026-04-26T10:37:42Z</time></trkpt><trkpt lat="45.50856698942489" lon="11.472129403486196"><ele>41.0</ele><time>2026-04-26T10:37:44Z</time></trkpt><trkpt lat="45.50862298541053" lon="11.472010706862715"><ele>41.0</ele><time>2026-04-26T10:37:46Z</time></trkpt><trkpt lat="45.5086928454037" lon="11.471924485862585"><ele>41.0</ele><time>2026-04-26T10:37:48Z</time></trkpt><trkpt lat="45.50878093274709" lon="11.471945992531236"><ele>42.0</ele><time>2026-04-26T10:37:49Z</time></trkpt><trkpt lat="45.50876878895348" lon="11.471805942815898"><ele>43.0</ele><time>2026-04-26T10:37:50Z</time></trkpt><trkpt lat="45.50872655148204" lon="11.471673111153752"><ele>44.0</ele><time>2026-04-26T10:37:52Z</time></trkpt><trkpt lat="45.50865033283519" lon="11.4715567134834"><ele>45.0</ele><time>2026-04-26T10:37:54Z</time></trkpt><trkpt lat="45.508595351481574" lon="11.471425772747413"><ele>46.0</ele><time>2026-04-26T10:37:56Z</time></trkpt><trkpt lat="45.508557500041" lon="11.471287638857095"><ele>46.199999999999996</ele><time>2026-04-26T10:37:58Z</time></trkpt><trkpt lat="45.508509111601434" lon="11.47116909822648"><ele>46.4</ele><time>2026-04-26T10:37:59.999Z</time></trkpt><trkpt lat="45.50845833712238" lon="11.471044712343897"><ele>46.6</ele><time>2026-04-26T10:38:01.999Z</time></trkpt><trkpt lat="45.50840158550215" lon="11.470905683832596"><ele>46.8</ele><time>2026-04-26T10:38:03.999Z</time></trkpt><trkpt lat="45.50834376940577" lon="11.470756140301242"><ele>47.0</ele><time>2026-04-26T10:38:05.999Z</time></trkpt><trkpt lat="45.50829983676813" lon="11.470621236190668"><ele>47.0</ele><time>2026-04-26T10:38:07.999Z</time></trkpt><trkpt lat="45.50826599845995" lon="11.470459072487628"><ele>47.0</ele><time>2026-04-26T10:38:09.999Z</time></trkpt><trkpt lat="45.508245260870055" lon="11.470323704816687"><ele>47.0</ele><time>2026-04-26T10:38:11.999Z</time></trkpt><trkpt lat="45.50823694530389" lon="11.470169776975064"><ele>47.0</ele><time>2026-04-26T10:38:13.999Z</time></trkpt><trkpt lat="45.508248380485576" lon="11.470018901432615"><ele>47.0</ele><time>2026-04-26T10:38:15.999Z</time></trkpt><trkpt lat="45.508128005262016" lon="11.469948259783157"><ele>46.8</ele><time>2026-04-26T10:38:16.999Z</time></trkpt><trkpt lat="45.50807353369007" lon="11.46989836355035"><ele>46.6</ele><time>2026-04-26T10:38:17.999Z</time></trkpt><trkpt lat="45.50799344869967" lon="11.469765797828195"><ele>46.4</ele><time>2026-04-26T10:38:19.999Z</time></trkpt><trkpt lat="45.50790633007166" lon="11.469647459077315"><ele>46.199999999999996</ele><time>2026-04-26T10:38:21.999Z</time></trkpt><trkpt lat="45.507823097234635" lon="11.469525089342405"><ele>46.0</ele><time>2026-04-26T10:38:23.999Z</time></trkpt><trkpt lat="45.507733403661476" lon="11.469390972375558"><ele>45.333333333333336</ele><time>2026-04-26T10:38:25.999Z</time></trkpt><trkpt lat="45.507659115078724" lon="11.46938525340332"><ele>44.66666666666667</ele><time>2026-04-26T10:38:26.999Z</time></trkpt><trkpt lat="45.50757604513307" lon="11.469287648889152"><ele>44.0</ele><time>2026-04-26T10:38:28.999Z</time></trkpt><trkpt lat="45.507581606914485" lon="11.469159795796884"><ele>43.333333333333336</ele><time>2026-04-26T10:38:29.999Z</time></trkpt><trkpt lat="45.50754035647639" lon="11.469085657843811"><ele>42.666666666666664</ele><time>2026-04-26T10:38:30.999Z</time></trkpt><trkpt lat="45.50748711296074" lon="11.468962237909027"><ele>42.0</ele><time>2026-04-26T10:38:32.999Z</time></trkpt><trkpt lat="45.50745644801939" lon="11.468883238869875"><ele>42.2</ele><time>2026-04-26T10:38:33.999Z</time></trkpt><trkpt lat="45.50740473279715" lon="11.468735198834004"><ele>42.400000000000006</ele><time>2026-04-26T10:38:35.999Z</time></trkpt><trkpt lat="45.507355426352774" lon="11.46859413494102"><ele>42.599999999999994</ele><time>2026-04-26T10:38:37.999Z</time></trkpt><trkpt lat="45.50730933613192" lon="11.468462272544686"><ele>42.8</ele><time>2026-04-26T10:38:39.999Z</time></trkpt><trkpt lat="45.507269637339775" lon="11.468348695667547"><ele>43.0</ele><time>2026-04-26T10:38:41.998Z</time></trkpt><trkpt lat="45.50725147163629" lon="11.468229219324263"><ele>43.0</ele><time>2026-04-26T10:38:43.998Z</time></trkpt><trkpt lat="45.507362872247654" lon="11.46818374739331"><ele>43.0</ele><time>2026-04-26T10:38:45.998Z</time></trkpt><trkpt lat="45.507480917617315" lon="11.46813063892293"><ele>43.0</ele><time>2026-04-26T10:38:47.998Z</time></trkpt><trkpt lat="45.50757899897503" lon="11.468085600983883"><ele>43.0</ele><time>2026-04-26T10:38:49.998Z</time></trkpt><trkpt lat="45.50767094509477" lon="11.468043546921463"><ele>43.0</ele><time>2026-04-26T10:38:51.998Z</time></trkpt><trkpt lat="45.507762033608174" lon="11.468001831251357"><ele>43.0</ele><time>2026-04-26T10:38:53.998Z</time></trkpt><trkpt lat="45.507908591207276" lon="11.467893867278306"><ele>43.0</ele><time>2026-04-26T10:38:55.998Z</time></trkpt><trkpt lat="45.507965064347076" lon="11.467943587709192"><ele>43.0</ele><time>2026-04-26T10:38:56.998Z</time></trkpt><trkpt lat="45.507913972470526" lon="11.468160561195548"><ele>43.0</ele><time>2026-04-26T10:38:57.998Z</time></trkpt><trkpt lat="45.50796134470767" lon="11.468267801056026"><ele>43.0</ele><time>2026-04-26T10:38:59.998Z</time></trkpt><trkpt lat="45.50807212437411" lon="11.468256333196143"><ele>43.0</ele><time>2026-04-26T10:39:01.998Z</time></trkpt><trkpt lat="45.508131311762234" lon="11.468289705949303"><ele>43.0</ele><time>2026-04-26T10:39:02.998Z</time></trkpt><trkpt lat="45.50825811493818" lon="11.468298847906972"><ele>43.0</ele><time>2026-04-26T10:39:04.998Z</time></trkpt><trkpt lat="45.50832955850587" lon="11.468300234664817"><ele>43.0</ele><time>2026-04-26T10:39:06.998Z</time></trkpt><trkpt lat="45.50843085182117" lon="11.468277530212413"><ele>43.0</ele><time>2026-04-26T10:39:08.998Z</time></trkpt><trkpt lat="45.50855655963136" lon="11.468272047715995"><ele>43.0</ele><time>2026-04-26T10:39:10.998Z</time></trkpt><trkpt lat="45.5086218863987" lon="11.468255947914418"><ele>43.0</ele><time>2026-04-26T10:39:12.998Z</time></trkpt><trkpt lat="45.508671927059304" lon="11.468351679381023"><ele>43.0</ele><time>2026-04-26T10:39:14.998Z</time></trkpt><trkpt lat="45.50876256801381" lon="11.468357361399901"><ele>43.0</ele><time>2026-04-26T10:39:16.998Z</time></trkpt><trkpt lat="45.508839047083896" lon="11.46839425859416"><ele>43.0</ele><time>2026-04-26T10:39:18.998Z</time></trkpt><trkpt lat="45.50880736733865" lon="11.468531339622581"><ele>43.0</ele><time>2026-04-26T10:39:35Z</time></trkpt><trkpt lat="45.50877540035063" lon="11.468681466636806"><ele>43.0</ele><time>2026-04-26T10:39:37Z</time></trkpt><trkpt lat="45.508745023080486" lon="11.468763801105737"><ele>43.0</ele><time>2026-04-26T10:39:38Z</time></trkpt><trkpt lat="45.508730592909664" lon="11.468853045202689"><ele>43.0</ele><time>2026-04-26T10:39:39Z</time></trkpt><trkpt lat="45.50871053872879" lon="11.469022393443852"><ele>43.0</ele><time>2026-04-26T10:39:41Z</time></trkpt><trkpt lat="45.50867004017353" lon="11.469118325420073"><ele>43.0</ele><time>2026-04-26T10:39:42Z</time></trkpt><trkpt lat="45.50864493574555" lon="11.469205589296752"><ele>43.16666666666667</ele><time>2026-04-26T10:39:43Z</time></trkpt><trkpt lat="45.50861829947579" lon="11.469293758716862"><ele>43.333333333333336</ele><time>2026-04-26T10:39:44Z</time></trkpt><trkpt lat="45.508607400973105" lon="11.469407289723954"><ele>43.5</ele><time>2026-04-26T10:39:45Z</time></trkpt><trkpt lat="45.50853002519234" lon="11.469530650488837"><ele>43.666666666666664</ele><time>2026-04-26T10:39:47Z</time></trkpt><trkpt lat="45.5084753664357" lon="11.46958150158687"><ele>43.83333333333333</ele><time>2026-04-26T10:39:48Z</time></trkpt><trkpt lat="45.50840103525452" lon="11.469711571849624"><ele>44.0</ele><time>2026-04-26T10:39:50Z</time></trkpt><trkpt lat="45.508334198472625" lon="11.469832766053358"><ele>44.400000000000006</ele><time>2026-04-26T10:39:52Z</time></trkpt><trkpt lat="45.508276486640845" lon="11.46993767568623"><ele>44.8</ele><time>2026-04-26T10:39:54Z</time></trkpt><trkpt lat="45.50822045849555" lon="11.470029319038296"><ele>45.2</ele><time>2026-04-26T10:39:57Z</time></trkpt><trkpt lat="45.50814645684566" lon="11.469966624395328"><ele>45.599999999999994</ele><time>2026-04-26T10:39:59Z</time></trkpt><trkpt lat="45.50805182933141" lon="11.469841130853695"><ele>46.0</ele><time>2026-04-26T10:40:01Z</time></trkpt><trkpt lat="45.50798218041319" lon="11.469766061005117"><ele>46.0</ele><time>2026-04-26T10:40:02Z</time></trkpt><trkpt lat="45.507928502248056" lon="11.469686936375721"><ele>46.0</ele><time>2026-04-26T10:40:03Z</time></trkpt><trkpt lat="45.50787255563309" lon="11.469604099135383"><ele>46.0</ele><time>2026-04-26T10:40:04Z</time></trkpt><trkpt lat="45.507822356192584" lon="11.469518293872191"><ele>46.0</ele><time>2026-04-26T10:40:05Z</time></trkpt><trkpt lat="45.50776082099392" lon="11.469438474917014"><ele>46.0</ele><time>2026-04-26T10:40:05.999Z</time></trkpt><trkpt lat="45.50771749560331" lon="11.469367185388034"><ele>46.0</ele><time>2026-04-26T10:40:06.999Z</time></trkpt><trkpt lat="45.50766921944796" lon="11.46929499903145"><ele>45.4</ele><time>2026-04-26T10:40:07.999Z</time></trkpt><trkpt lat="45.50762009622691" lon="11.46922154608864"><ele>44.8</ele><time>2026-04-26T10:40:08.999Z</time></trkpt><trkpt lat="45.50756765818135" lon="11.46913592607234"><ele>44.199999999999996</ele><time>2026-04-26T10:40:09.999Z</time></trkpt><trkpt lat="45.507525901553805" lon="11.46905911129687"><ele>43.599999999999994</ele><time>2026-04-26T10:40:10.999Z</time></trkpt><trkpt lat="45.50744784810843" lon="11.468894185228034"><ele>43.0</ele><time>2026-04-26T10:40:12.999Z</time></trkpt><trkpt lat="45.50740316275214" lon="11.468730706996784"><ele>43.0</ele><time>2026-04-26T10:40:14.999Z</time></trkpt><trkpt lat="45.50737473781451" lon="11.468649384307906"><ele>43.0</ele><time>2026-04-26T10:40:15.999Z</time></trkpt><trkpt lat="45.50732169966615" lon="11.468497644162168"><ele>43.0</ele><time>2026-04-26T10:40:17.999Z</time></trkpt><trkpt lat="45.507272293914326" lon="11.468356296048533"><ele>43.0</ele><time>2026-04-26T10:40:19.999Z</time></trkpt><trkpt lat="45.507248534342494" lon="11.468235664289251"><ele>43.0</ele><time>2026-04-26T10:40:21.999Z</time></trkpt><trkpt lat="45.50730919352329" lon="11.468173044161157"><ele>43.0</ele><time>2026-04-26T10:40:22.999Z</time></trkpt><trkpt lat="45.5073857826826" lon="11.468174323840639"><ele>43.0</ele><time>2026-04-26T10:40:23.999Z</time></trkpt><trkpt lat="45.50749798846497" lon="11.468122800176332"><ele>43.0</ele><time>2026-04-26T10:40:25.999Z</time></trkpt><trkpt lat="45.50752264240044" lon="11.467832577495683"><ele>43.0</ele><time>2026-04-26T10:40:28.999Z</time></trkpt><trkpt lat="45.5075138459374" lon="11.467738854283722"><ele>42.8</ele><time>2026-04-26T10:40:29.999Z</time></trkpt><trkpt lat="45.507499801319454" lon="11.467589213830015"><ele>42.599999999999994</ele><time>2026-04-26T10:40:31.999Z</time></trkpt><trkpt lat="45.5074872418669" lon="11.46745539735044"><ele>42.400000000000006</ele><time>2026-04-26T10:40:33.999Z</time></trkpt><trkpt lat="45.50747340266627" lon="11.467307945566745"><ele>42.2</ele><time>2026-04-26T10:40:35.999Z</time></trkpt><trkpt lat="45.50746030193085" lon="11.467168361886621"><ele>42.0</ele><time>2026-04-26T10:40:37.999Z</time></trkpt><trkpt lat="45.507440247387265" lon="11.467058846476991"><ele>42.0</ele><time>2026-04-26T10:40:39.999Z</time></trkpt><trkpt lat="45.507520285211896" lon="11.46692028001062"><ele>42.0</ele><time>2026-04-26T10:40:41.999Z</time></trkpt><trkpt lat="45.507621317600574" lon="11.466890531580724"><ele>42.0</ele><time>2026-04-26T10:40:43.999Z</time></trkpt><trkpt lat="45.50769787903583" lon="11.466867988488897"><ele>42.0</ele><time>2026-04-26T10:40:45.999Z</time></trkpt><trkpt lat="45.50772810277985" lon="11.467038431014629"><ele>42.0</ele><time>2026-04-26T10:40:46.999Z</time></trkpt><trkpt lat="45.50773322844322" lon="11.467155787663371"><ele>42.0</ele><time>2026-04-26T10:40:48.998Z</time></trkpt><trkpt lat="45.50775456225126" lon="11.467356202994509"><ele>42.0</ele><time>2026-04-26T10:40:50.998Z</time></trkpt><trkpt lat="45.507759081798895" lon="11.467458564583891"><ele>42.0</ele><time>2026-04-26T10:40:51.998Z</time></trkpt><trkpt lat="45.50774247611835" lon="11.467563949095878"><ele>42.0</ele><time>2026-04-26T10:40:53.998Z</time></trkpt><trkpt lat="45.50771145424698" lon="11.467649681422738"><ele>42.0</ele><time>2026-04-26T10:40:57.022Z</time></trkpt><trkpt lat="45.507671877473804" lon="11.467738389681848"><ele>42.0</ele><time>2026-04-26T10:41:01.021Z</time></trkpt><trkpt lat="45.50758932922891" lon="11.467505221803547"><ele>42.0</ele><time>2026-04-26T10:41:13.449Z</time></trkpt><trkpt lat="45.50758932922891" lon="11.467505221803547"><ele>42.0</ele><time>2026-04-26T10:41:13.449Z</time></trkpt></trkseg></trk></gpx>